<?xml version='1.0' encoding='UTF-8'?><gpx version="1.1" creator="JPX - https://github.com/jenetics/jpx" xmlns="http://www.topografix.com/GPX/1/1"><trk><trkseg><trkpt lat="41.12324403552101" lon="14.520608001667368"><ele>313.0</ele><time>2026-05-02T11:37:50.999Z</time></trkpt><trkpt lat="41.12334757611371" lon="14.520584275380305"><ele>313.0</ele><time>2026-05-02T11:37:51.999Z</time></trkpt><trkpt lat="41.12345783394069" lon="14.520549719251392"><ele>313.0</ele><time>2026-05-02T11:37:52.999Z</time></trkpt><trkpt lat="41.1235737855416" lon="14.520486632933384"><ele>313.0</ele><time>2026-05-02T11:37:53.999Z</time></trkpt><trkpt lat="41.12369656806697" lon="14.520452180826604"><ele>313.0</ele><time>2026-05-02T11:37:54.999Z</time></trkpt><trkpt lat="41.12383829253901" lon="14.52044513005569"><ele>313.0</ele><time>2026-05-02T11:37:55.999Z</time></trkpt><trkpt lat="41.12397789768307" lon="14.520471873670857"><ele>313.0</ele><time>2026-05-02T11:37:56.999Z</time></trkpt><trkpt lat="41.1240954468009" lon="14.520571553818316"><ele>313.0</ele><time>2026-05-02T11:37:57.999Z</time></trkpt><trkpt lat="41.12422495961921" lon="14.520675629668064"><ele>314.3333333333333</ele><time>2026-05-02T11:37:58.999Z</time></trkpt><trkpt lat="41.12434782904437" lon="14.520811090165584"><ele>315.6666666666667</ele><time>2026-05-02T11:37:59.999Z</time></trkpt><trkpt lat="41.12444953635574" lon="14.520972589050855"><ele>317.0</ele><time>2026-05-02T11:38:00.999Z</time></trkpt><trkpt lat="41.12455147297036" lon="14.52113434162007"><ele>318.33333333333337</ele><time>2026-05-02T11:38:01.999Z</time></trkpt><trkpt lat="41.12466910190855" lon="14.521290130935714"><ele>319.6666666666667</ele><time>2026-05-02T11:38:02.999Z</time></trkpt><trkpt lat="41.12481941916894" lon="14.521402798206624"><ele>321.0</ele><time>2026-05-02T11:38:03.999Z</time></trkpt><trkpt lat="41.12498068238884" lon="14.521513535575089"><ele>321.0</ele><time>2026-05-02T11:38:04.999Z</time></trkpt><trkpt lat="41.12514942798114" lon="14.52162633845525"><ele>321.0</ele><time>2026-05-02T11:38:05.999Z</time></trkpt><trkpt lat="41.1253127655367" lon="14.521745102702189"><ele>321.0</ele><time>2026-05-02T11:38:06.999Z</time></trkpt><trkpt lat="41.12545298852234" lon="14.521856953666807"><ele>321.0</ele><time>2026-05-02T11:38:07.999Z</time></trkpt><trkpt lat="41.12558227479458" lon="14.521954287545782"><ele>321.0</ele><time>2026-05-02T11:38:08.999Z</time></trkpt><trkpt lat="41.12571361623386" lon="14.522026153071865"><ele>321.0</ele><time>2026-05-02T11:38:09.999Z</time></trkpt><trkpt lat="41.125839547297204" lon="14.522068331765182"><ele>321.0</ele><time>2026-05-02T11:38:10.999Z</time></trkpt><trkpt lat="41.12596187516557" lon="14.522074400436416"><ele>320.0</ele><time>2026-05-02T11:38:11.999Z</time></trkpt><trkpt lat="41.12607034627083" lon="14.52203329294556"><ele>319.0</ele><time>2026-05-02T11:38:12.999Z</time></trkpt><trkpt lat="41.12615002159256" lon="14.521942364519512"><ele>318.0</ele><time>2026-05-02T11:38:13.999Z</time></trkpt><trkpt lat="41.12619304424451" lon="14.521792074597375"><ele>317.0</ele><time>2026-05-02T11:38:14.999Z</time></trkpt><trkpt lat="41.12621592557342" lon="14.521584999824135"><ele>317.0</ele><time>2026-05-02T11:38:15.999Z</time></trkpt><trkpt lat="41.12623673045323" lon="14.521355312775233"><ele>317.0</ele><time>2026-05-02T11:38:16.999Z</time></trkpt><trkpt lat="41.12632987888925" lon="14.521150779107591"><ele>317.0</ele><time>2026-05-02T11:38:17.999Z</time></trkpt><trkpt lat="41.126429418214535" lon="14.520978513658521"><ele>318.33333333333337</ele><time>2026-05-02T11:38:18.999Z</time></trkpt><trkpt lat="41.12657633823937" lon="14.520891109966401"><ele>319.6666666666667</ele><time>2026-05-02T11:38:19.999Z</time></trkpt><trkpt lat="41.12675787619747" lon="14.52079834011677"><ele>321.0</ele><time>2026-05-02T11:38:20.999Z</time></trkpt><trkpt lat="41.12694892614702" lon="14.520678457961926"><ele>321.0</ele><time>2026-05-02T11:38:21.999Z</time></trkpt><trkpt lat="41.127154648489466" lon="14.520592922577848"><ele>321.0</ele><time>2026-05-02T11:38:22.999Z</time></trkpt><trkpt lat="41.12737316590211" lon="14.520477698460269"><ele>318.6666666666667</ele><time>2026-05-02T11:38:23.999Z</time></trkpt><trkpt lat="41.12756664741392" lon="14.52035791550006"><ele>316.33333333333337</ele><time>2026-05-02T11:38:24.999Z</time></trkpt><trkpt lat="41.12774137722981" lon="14.5202614529616"><ele>314.0</ele><time>2026-05-02T11:38:25.999Z</time></trkpt><trkpt lat="41.12789755383038" lon="14.520168069839453"><ele>314.0</ele><time>2026-05-02T11:38:26.999Z</time></trkpt><trkpt lat="41.12805792101565" lon="14.520137443365984"><ele>314.0</ele><time>2026-05-02T11:38:27.999Z</time></trkpt><trkpt lat="41.12821802971691" lon="14.520110735578836"><ele>314.0</ele><time>2026-05-02T11:38:28.999Z</time></trkpt><trkpt lat="41.12836657718491" lon="14.52017118536703"><ele>314.25</ele><time>2026-05-02T11:38:29.999Z</time></trkpt><trkpt lat="41.12851528038786" lon="14.520244236872552"><ele>314.5</ele><time>2026-05-02T11:38:30.999Z</time></trkpt><trkpt lat="41.12865288339006" lon="14.520311602689107"><ele>314.75</ele><time>2026-05-02T11:38:31.999Z</time></trkpt><trkpt lat="41.128759931019914" lon="14.520340897226076"><ele>315.0</ele><time>2026-05-02T11:38:32.999Z</time></trkpt><trkpt lat="41.12885120297506" lon="14.520291599383105"><ele>315.0</ele><time>2026-05-02T11:38:33.999Z</time></trkpt><trkpt lat="41.12892806996222" lon="14.520204297343485"><ele>315.0</ele><time>2026-05-02T11:38:34.999Z</time></trkpt><trkpt lat="41.12897581739828" lon="14.52009170688281"><ele>315.0</ele><time>2026-05-02T11:38:35.999Z</time></trkpt><trkpt lat="41.12896649825787" lon="14.519943110379643"><ele>315.0</ele><time>2026-05-02T11:38:36.999Z</time></trkpt><trkpt lat="41.128943233151" lon="14.51976395792932"><ele>315.0</ele><time>2026-05-02T11:38:37.999Z</time></trkpt><trkpt lat="41.12890830625781" lon="14.519577214363496"><ele>312.25</ele><time>2026-05-02T11:38:38.999Z</time></trkpt><trkpt lat="41.12888385113899" lon="14.519384777791073"><ele>309.5</ele><time>2026-05-02T11:38:39.999Z</time></trkpt><trkpt lat="41.12888589475965" lon="14.519218957863849"><ele>306.75</ele><time>2026-05-02T11:38:41Z</time></trkpt><trkpt lat="41.12896054309942" lon="14.519071100286588"><ele>304.0</ele><time>2026-05-02T11:38:42Z</time></trkpt><trkpt lat="41.12903115458556" lon="14.518898744423963"><ele>302.0</ele><time>2026-05-02T11:38:43Z</time></trkpt><trkpt lat="41.12908115134722" lon="14.518702329964837"><ele>300.0</ele><time>2026-05-02T11:38:44Z</time></trkpt><trkpt lat="41.12907040286713" lon="14.51848253111943"><ele>298.0</ele><time>2026-05-02T11:38:45Z</time></trkpt><trkpt lat="41.12902922413273" lon="14.518245670975636"><ele>298.0</ele><time>2026-05-02T11:38:46Z</time></trkpt><trkpt lat="41.12899448985422" lon="14.518018421534974"><ele>298.0</ele><time>2026-05-02T11:38:47Z</time></trkpt><trkpt lat="41.128982150666644" lon="14.517819231303275"><ele>298.0</ele><time>2026-05-02T11:38:48Z</time></trkpt><trkpt lat="41.128988991368324" lon="14.51762935224072"><ele>296.0</ele><time>2026-05-02T11:38:49Z</time></trkpt><trkpt lat="41.12902926760014" lon="14.517428274652012"><ele>294.0</ele><time>2026-05-02T11:38:50Z</time></trkpt><trkpt lat="41.12913078275729" lon="14.517231078379488"><ele>292.0</ele><time>2026-05-02T11:38:51Z</time></trkpt><trkpt lat="41.12922930645107" lon="14.517014895505579"><ele>296.0</ele><time>2026-05-02T11:38:52Z</time></trkpt><trkpt lat="41.129319081207186" lon="14.516793763540461"><ele>300.0</ele><time>2026-05-02T11:38:53Z</time></trkpt><trkpt lat="41.12942378388978" lon="14.51662296827246"><ele>304.0</ele><time>2026-05-02T11:38:54Z</time></trkpt><trkpt lat="41.1295306353451" lon="14.516506603791473"><ele>304.0</ele><time>2026-05-02T11:38:55Z</time></trkpt><trkpt lat="41.1296558881438" lon="14.51649135971443"><ele>304.0</ele><time>2026-05-02T11:38:56Z</time></trkpt><trkpt lat="41.129815343372236" lon="14.516519829314584"><ele>304.0</ele><time>2026-05-02T11:38:57Z</time></trkpt><trkpt lat="41.12998718766705" lon="14.516489016608599"><ele>301.0</ele><time>2026-05-02T11:38:58Z</time></trkpt><trkpt lat="41.130170478210374" lon="14.516432314488528"><ele>298.0</ele><time>2026-05-02T11:38:59Z</time></trkpt><trkpt lat="41.13033952548435" lon="14.516310359532492"><ele>295.0</ele><time>2026-05-02T11:39:00Z</time></trkpt><trkpt lat="41.130503149959196" lon="14.516146955280071"><ele>295.0</ele><time>2026-05-02T11:39:01Z</time></trkpt><trkpt lat="41.13064023933652" lon="14.516007827374839"><ele>295.0</ele><time>2026-05-02T11:39:02Z</time></trkpt><trkpt lat="41.13078111109418" lon="14.515924424806853"><ele>295.0</ele><time>2026-05-02T11:39:03Z</time></trkpt><trkpt lat="41.130906480212126" lon="14.515872903760847"><ele>298.0</ele><time>2026-05-02T11:39:04Z</time></trkpt><trkpt lat="41.13102375687439" lon="14.515921133002456"><ele>301.0</ele><time>2026-05-02T11:39:05Z</time></trkpt><trkpt lat="41.13113918091952" lon="14.516046687421246"><ele>304.0</ele><time>2026-05-02T11:39:06Z</time></trkpt><trkpt lat="41.13129286585023" lon="14.51619533283548"><ele>307.66666666666663</ele><time>2026-05-02T11:39:07Z</time></trkpt><trkpt lat="41.13144650220049" lon="14.516332448494657"><ele>311.3333333333333</ele><time>2026-05-02T11:39:08Z</time></trkpt><trkpt lat="41.131619499869274" lon="14.5164265224118"><ele>315.0</ele><time>2026-05-02T11:39:09Z</time></trkpt><trkpt lat="41.13181631167087" lon="14.516476658204024"><ele>315.0</ele><time>2026-05-02T11:39:10Z</time></trkpt><trkpt lat="41.132006035984986" lon="14.516512697495985"><ele>315.0</ele><time>2026-05-02T11:39:11Z</time></trkpt><trkpt lat="41.13215982348705" lon="14.516603383889379"><ele>315.0</ele><time>2026-05-02T11:39:12Z</time></trkpt><trkpt lat="41.13227896447172" lon="14.51672730874461"><ele>315.0</ele><time>2026-05-02T11:39:13Z</time></trkpt><trkpt lat="41.13238138932445" lon="14.516910465013614"><ele>315.0</ele><time>2026-05-02T11:39:14Z</time></trkpt><trkpt lat="41.13248988776655" lon="14.517129749647097"><ele>315.0</ele><time>2026-05-02T11:39:15Z</time></trkpt><trkpt lat="41.13258999563675" lon="14.517351000490256"><ele>314.75</ele><time>2026-05-02T11:39:16Z</time></trkpt><trkpt lat="41.132673053054845" lon="14.517530321393787"><ele>314.5</ele><time>2026-05-02T11:39:17Z</time></trkpt><trkpt lat="41.13275185322101" lon="14.517692835852985"><ele>314.25</ele><time>2026-05-02T11:39:18Z</time></trkpt><trkpt lat="41.13282899126718" lon="14.517786024579545"><ele>314.0</ele><time>2026-05-02T11:39:19Z</time></trkpt><trkpt lat="41.13289302350425" lon="14.517837713251378"><ele>314.0</ele><time>2026-05-02T11:39:20Z</time></trkpt><trkpt lat="41.13298372342074" lon="14.51782868762326"><ele>314.0</ele><time>2026-05-02T11:39:20.999Z</time></trkpt><trkpt lat="41.133098397358424" lon="14.517784452256866"><ele>314.0</ele><time>2026-05-02T11:39:21.999Z</time></trkpt><trkpt lat="41.1332383839884" lon="14.517703505052696"><ele>314.0</ele><time>2026-05-02T11:39:22.999Z</time></trkpt><trkpt lat="41.13339352189781" lon="14.517621658479642"><ele>312.33333333333337</ele><time>2026-05-02T11:39:23.999Z</time></trkpt><trkpt lat="41.133550565249045" lon="14.517541685474878"><ele>310.6666666666667</ele><time>2026-05-02T11:39:24.999Z</time></trkpt><trkpt lat="41.13371725549418" lon="14.517465144441783"><ele>309.0</ele><time>2026-05-02T11:39:25.999Z</time></trkpt><trkpt lat="41.13389048243309" lon="14.517395897124809"><ele>310.6666666666667</ele><time>2026-05-02T11:39:26.999Z</time></trkpt><trkpt lat="41.134073533889776" lon="14.517326947817711"><ele>312.33333333333337</ele><time>2026-05-02T11:39:27.999Z</time></trkpt><trkpt lat="41.134265705332346" lon="14.517247439326875"><ele>314.0</ele><time>2026-05-02T11:39:28.999Z</time></trkpt><trkpt lat="41.134456697526566" lon="14.517157582198733"><ele>314.0</ele><time>2026-05-02T11:39:29.999Z</time></trkpt><trkpt lat="41.13464502332761" lon="14.517069433246878"><ele>314.0</ele><time>2026-05-02T11:39:30.999Z</time></trkpt><trkpt lat="41.134833456001445" lon="14.516994129951344"><ele>314.0</ele><time>2026-05-02T11:39:31.999Z</time></trkpt><trkpt lat="41.135025348825685" lon="14.516941305729423"><ele>312.6666666666667</ele><time>2026-05-02T11:39:32.999Z</time></trkpt><trkpt lat="41.135229898170316" lon="14.516911380137472"><ele>311.3333333333333</ele><time>2026-05-02T11:39:33.999Z</time></trkpt><trkpt lat="41.13542899426235" lon="14.516873828521135"><ele>310.0</ele><time>2026-05-02T11:39:34.999Z</time></trkpt><trkpt lat="41.13563020573802" lon="14.51682516957465"><ele>310.66666666666663</ele><time>2026-05-02T11:39:35.999Z</time></trkpt><trkpt lat="41.13582550495488" lon="14.516777891661652"><ele>311.3333333333333</ele><time>2026-05-02T11:39:36.999Z</time></trkpt><trkpt lat="41.13601073892389" lon="14.516718877783527"><ele>312.0</ele><time>2026-05-02T11:39:37.999Z</time></trkpt><trkpt lat="41.136180645939845" lon="14.516658526716634"><ele>312.0</ele><time>2026-05-02T11:39:38.999Z</time></trkpt><trkpt lat="41.1363521062914" lon="14.516609345226751"><ele>312.0</ele><time>2026-05-02T11:39:39.999Z</time></trkpt><trkpt lat="41.1365278813042" lon="14.516625735251282"><ele>312.0</ele><time>2026-05-02T11:39:40.999Z</time></trkpt><trkpt lat="41.13670360902195" lon="14.516662044000535"><ele>313.0</ele><time>2026-05-02T11:39:41.999Z</time></trkpt><trkpt lat="41.13686251369766" lon="14.516680665686803"><ele>314.0</ele><time>2026-05-02T11:39:42.999Z</time></trkpt><trkpt lat="41.13701636730925" lon="14.51671128713994"><ele>315.0</ele><time>2026-05-02T11:39:43.999Z</time></trkpt><trkpt lat="41.13717678660484" lon="14.51669737502914"><ele>315.0</ele><time>2026-05-02T11:39:44.999Z</time></trkpt><trkpt lat="41.13733116751675" lon="14.516639623780625"><ele>315.0</ele><time>2026-05-02T11:39:45.999Z</time></trkpt><trkpt lat="41.13748583571862" lon="14.516537962648194"><ele>315.0</ele><time>2026-05-02T11:39:46.999Z</time></trkpt><trkpt lat="41.13763488944408" lon="14.51641107459647"><ele>315.6666666666667</ele><time>2026-05-02T11:39:47.999Z</time></trkpt><trkpt lat="41.13778544093796" lon="14.516284340576853"><ele>316.33333333333337</ele><time>2026-05-02T11:39:48.999Z</time></trkpt><trkpt lat="41.13791584855619" lon="14.51616229081933"><ele>317.0</ele><time>2026-05-02T11:39:49.999Z</time></trkpt><trkpt lat="41.13804380866975" lon="14.51606022691197"><ele>316.4</ele><time>2026-05-02T11:39:50.999Z</time></trkpt><trkpt lat="41.138154232250216" lon="14.515993891138391"><ele>315.79999999999995</ele><time>2026-05-02T11:39:51.999Z</time></trkpt><trkpt lat="41.13825540837232" lon="14.5159826953095"><ele>315.2</ele><time>2026-05-02T11:39:52.999Z</time></trkpt><trkpt lat="41.138333983785245" lon="14.516024983120156"><ele>314.59999999999997</ele><time>2026-05-02T11:39:53.999Z</time></trkpt><trkpt lat="41.13838585307442" lon="14.516110546789415"><ele>314.0</ele><time>2026-05-02T11:39:54.999Z</time></trkpt><trkpt lat="41.138438841418164" lon="14.516213919633822"><ele>315.0</ele><time>2026-05-02T11:39:55.999Z</time></trkpt><trkpt lat="41.13841517995209" lon="14.516366418337654"><ele>316.0</ele><time>2026-05-02T11:39:57.999Z</time></trkpt><trkpt lat="41.13860949560951" lon="14.5162849827563"><ele>317.0</ele><time>2026-05-02T11:39:59.999Z</time></trkpt><trkpt lat="41.138739927004444" lon="14.516244585232249"><ele>316.75</ele><time>2026-05-02T11:40:01.999Z</time></trkpt><trkpt lat="41.13887324416617" lon="14.51613527447379"><ele>316.5</ele><time>2026-05-02T11:40:02.999Z</time></trkpt><trkpt lat="41.139001788427684" lon="14.516016161949091"><ele>316.25</ele><time>2026-05-02T11:40:03.999Z</time></trkpt><trkpt lat="41.13909086397518" lon="14.515893366291891"><ele>316.0</ele><time>2026-05-02T11:40:04.999Z</time></trkpt><trkpt lat="41.13916289760915" lon="14.515827236923005"><ele>316.0</ele><time>2026-05-02T11:40:05.999Z</time></trkpt><trkpt lat="41.139183480772395" lon="14.515664436806851"><ele>316.0</ele><time>2026-05-02T11:40:07.999Z</time></trkpt><trkpt lat="41.139133765797844" lon="14.515531888042362"><ele>316.0</ele><time>2026-05-02T11:40:08.999Z</time></trkpt><trkpt lat="41.13905201775416" lon="14.515373335823892"><ele>316.0</ele><time>2026-05-02T11:40:09.999Z</time></trkpt><trkpt lat="41.13895026547993" lon="14.515219924251998"><ele>313.6</ele><time>2026-05-02T11:40:10.999Z</time></trkpt><trkpt lat="41.13886188620237" lon="14.51508980883049"><ele>311.20000000000005</ele><time>2026-05-02T11:40:11.999Z</time></trkpt><trkpt lat="41.13879625995183" lon="14.514962148704884"><ele>308.79999999999995</ele><time>2026-05-02T11:40:12.999Z</time></trkpt><trkpt lat="41.13873495612967" lon="14.514860346560946"><ele>306.4</ele><time>2026-05-02T11:40:13.999Z</time></trkpt><trkpt lat="41.13869443145544" lon="14.51477337346085"><ele>304.0</ele><time>2026-05-02T11:40:14.999Z</time></trkpt><trkpt lat="41.13870909374925" lon="14.514627797150068"><ele>304.0</ele><time>2026-05-02T11:40:16.999Z</time></trkpt><trkpt lat="41.13881522620173" lon="14.51459286486614"><ele>304.0</ele><time>2026-05-02T11:40:17.999Z</time></trkpt><trkpt lat="41.138974206017" lon="14.514471530126395"><ele>304.0</ele><time>2026-05-02T11:40:18.999Z</time></trkpt><trkpt lat="41.139110741807066" lon="14.514350588311359"><ele>303.66666666666663</ele><time>2026-05-02T11:40:19.999Z</time></trkpt><trkpt lat="41.139254424767714" lon="14.51422530694963"><ele>303.3333333333333</ele><time>2026-05-02T11:40:20.999Z</time></trkpt><trkpt lat="41.13939148578632" lon="14.514065364721667"><ele>303.0</ele><time>2026-05-02T11:40:21.999Z</time></trkpt><trkpt lat="41.139528927427506" lon="14.513896942290717"><ele>301.3333333333333</ele><time>2026-05-02T11:40:22.999Z</time></trkpt><trkpt lat="41.139663735282646" lon="14.513711814994325"><ele>299.66666666666663</ele><time>2026-05-02T11:40:23.999Z</time></trkpt><trkpt lat="41.13981016639606" lon="14.513556140873172"><ele>298.0</ele><time>2026-05-02T11:40:24.999Z</time></trkpt><trkpt lat="41.13993866334506" lon="14.51345060199404"><ele>300.2</ele><time>2026-05-02T11:40:25.999Z</time></trkpt><trkpt lat="41.14006153036771" lon="14.513381240016333"><ele>302.4</ele><time>2026-05-02T11:40:26.999Z</time></trkpt><trkpt lat="41.140158805092014" lon="14.51336094453047"><ele>304.59999999999997</ele><time>2026-05-02T11:40:27.999Z</time></trkpt><trkpt lat="41.14024452556972" lon="14.513383182091255"><ele>306.8</ele><time>2026-05-02T11:40:28.999Z</time></trkpt><trkpt lat="41.140348908817394" lon="14.513410387211575"><ele>309.0</ele><time>2026-05-02T11:40:29.999Z</time></trkpt><trkpt lat="41.14046040789165" lon="14.5134733125353"><ele>309.0</ele><time>2026-05-02T11:40:30.999Z</time></trkpt><trkpt lat="41.140557321627014" lon="14.513495769225152"><ele>309.0</ele><time>2026-05-02T11:40:31.999Z</time></trkpt><trkpt lat="41.14064536026713" lon="14.513515504867586"><ele>309.0</ele><time>2026-05-02T11:40:32.999Z</time></trkpt><trkpt lat="41.14074220483154" lon="14.51348160316575"><ele>309.0</ele><time>2026-05-02T11:40:33.999Z</time></trkpt><trkpt lat="41.14084253933745" lon="14.51339783843366"><ele>309.0</ele><time>2026-05-02T11:40:34.999Z</time></trkpt><trkpt lat="41.140969370306614" lon="14.513313250145401"><ele>308.0</ele><time>2026-05-02T11:40:35.998Z</time></trkpt><trkpt lat="41.14109626547775" lon="14.513205526026882"><ele>307.0</ele><time>2026-05-02T11:40:36.998Z</time></trkpt><trkpt lat="41.14122902339895" lon="14.513080204696449"><ele>306.0</ele><time>2026-05-02T11:40:37.998Z</time></trkpt><trkpt lat="41.14136830645395" lon="14.512937554608321"><ele>306.75</ele><time>2026-05-02T11:40:38.998Z</time></trkpt><trkpt lat="41.141481143415646" lon="14.512836624563507"><ele>307.5</ele><time>2026-05-02T11:40:39.998Z</time></trkpt><trkpt lat="41.1415921380162" lon="14.512731357261186"><ele>308.25</ele><time>2026-05-02T11:40:40.998Z</time></trkpt><trkpt lat="41.1417020801484" lon="14.512602513377987"><ele>309.0</ele><time>2026-05-02T11:40:41.998Z</time></trkpt><trkpt lat="41.141816544760815" lon="14.512476896732945"><ele>307.0</ele><time>2026-05-02T11:40:42.998Z</time></trkpt><trkpt lat="41.14192658157073" lon="14.512303653192673"><ele>305.0</ele><time>2026-05-02T11:40:43.998Z</time></trkpt><trkpt lat="41.14200591335169" lon="14.512130350554909"><ele>303.0</ele><time>2026-05-02T11:40:44.998Z</time></trkpt><trkpt lat="41.14205259961648" lon="14.511969840592476"><ele>303.0</ele><time>2026-05-02T11:40:45.998Z</time></trkpt><trkpt lat="41.14211989746605" lon="14.511813273852997"><ele>303.0</ele><time>2026-05-02T11:40:47Z</time></trkpt><trkpt lat="41.14217517732414" lon="14.511637010540538"><ele>303.0</ele><time>2026-05-02T11:40:48Z</time></trkpt><trkpt lat="41.142213830528846" lon="14.511439775145984"><ele>303.0</ele><time>2026-05-02T11:40:49Z</time></trkpt><trkpt lat="41.1422423534196" lon="14.511221806178385"><ele>302.6666666666667</ele><time>2026-05-02T11:40:50Z</time></trkpt><trkpt lat="41.14227904251161" lon="14.510997771503932"><ele>302.33333333333337</ele><time>2026-05-02T11:40:51Z</time></trkpt><trkpt lat="41.142313728372706" lon="14.510762853709853"><ele>302.0</ele><time>2026-05-02T11:40:52Z</time></trkpt><trkpt lat="41.142331604155224" lon="14.510544244362718"><ele>299.33333333333337</ele><time>2026-05-02T11:40:53Z</time></trkpt><trkpt lat="41.14237495860957" lon="14.51034502093106"><ele>296.6666666666667</ele><time>2026-05-02T11:40:54Z</time></trkpt><trkpt lat="41.142416844885304" lon="14.5101456715672"><ele>294.0</ele><time>2026-05-02T11:40:55Z</time></trkpt><trkpt lat="41.14245768156606" lon="14.509970478695385"><ele>292.4</ele><time>2026-05-02T11:40:56Z</time></trkpt><trkpt lat="41.14249882566803" lon="14.50982982962702"><ele>290.79999999999995</ele><time>2026-05-02T11:40:57Z</time></trkpt><trkpt lat="41.14255677685999" lon="14.509714008059497"><ele>289.20000000000005</ele><time>2026-05-02T11:40:58Z</time></trkpt><trkpt lat="41.14263237203476" lon="14.509634914311551"><ele>287.6</ele><time>2026-05-02T11:40:59Z</time></trkpt><trkpt lat="41.14272243930579" lon="14.509591632014542"><ele>286.0</ele><time>2026-05-02T11:41:00Z</time></trkpt><trkpt lat="41.14281909877864" lon="14.509571165673389"><ele>286.0</ele><time>2026-05-02T11:41:01Z</time></trkpt><trkpt lat="41.14292654993333" lon="14.509553595696422"><ele>286.0</ele><time>2026-05-02T11:41:02Z</time></trkpt><trkpt lat="41.14304383463501" lon="14.50955952474727"><ele>286.0</ele><time>2026-05-02T11:41:03Z</time></trkpt><trkpt lat="41.14314317066363" lon="14.509538781076541"><ele>286.0</ele><time>2026-05-02T11:41:04Z</time></trkpt><trkpt lat="41.14323061829229" lon="14.509499419684719"><ele>286.0</ele><time>2026-05-02T11:41:05Z</time></trkpt><trkpt lat="41.14328583238119" lon="14.50943901687199"><ele>285.5</ele><time>2026-05-02T11:41:06Z</time></trkpt><trkpt lat="41.14338009277609" lon="14.509331558990477"><ele>285.0</ele><time>2026-05-02T11:41:08Z</time></trkpt><trkpt lat="41.14343102033936" lon="14.509263017260082"><ele>284.5</ele><time>2026-05-02T11:41:09Z</time></trkpt><trkpt lat="41.14347109690563" lon="14.509176550228355"><ele>284.0</ele><time>2026-05-02T11:41:10Z</time></trkpt><trkpt lat="41.143533880852665" lon="14.509116405649959"><ele>283.5</ele><time>2026-05-02T11:41:11Z</time></trkpt><trkpt lat="41.14359162647523" lon="14.509028641364255"><ele>283.0</ele><time>2026-05-02T11:41:12Z</time></trkpt><trkpt lat="41.14366744369109" lon="14.508911165341642"><ele>283.0</ele><time>2026-05-02T11:41:13Z</time></trkpt><trkpt lat="41.143769952184805" lon="14.50880513205323"><ele>283.0</ele><time>2026-05-02T11:41:14Z</time></trkpt><trkpt lat="41.14383965718943" lon="14.5087135948482"><ele>283.0</ele><time>2026-05-02T11:41:15Z</time></trkpt><trkpt lat="41.143898204203566" lon="14.508637154609424"><ele>283.0</ele><time>2026-05-02T11:41:16Z</time></trkpt><trkpt lat="41.14395421090285" lon="14.508563658432301"><ele>283.0</ele><time>2026-05-02T11:41:17Z</time></trkpt><trkpt lat="41.14400053126234" lon="14.508502386687741"><ele>282.0</ele><time>2026-05-02T11:41:18Z</time></trkpt><trkpt lat="41.14407133211843" lon="14.508467340616459"><ele>281.0</ele><time>2026-05-02T11:41:20Z</time></trkpt><trkpt lat="41.144137218108916" lon="14.508654536165263"><ele>280.0</ele><time>2026-05-02T11:41:21Z</time></trkpt><trkpt lat="41.144162571789806" lon="14.50881998559081"><ele>279.0</ele><time>2026-05-02T11:41:22Z</time></trkpt><trkpt lat="41.14419064916298" lon="14.509007812035788"><ele>278.2</ele><time>2026-05-02T11:41:23Z</time></trkpt><trkpt lat="41.14422192815591" lon="14.509148810126446"><ele>277.4</ele><time>2026-05-02T11:41:24Z</time></trkpt><trkpt lat="41.14421834043734" lon="14.50927788938853"><ele>276.6</ele><time>2026-05-02T11:41:25Z</time></trkpt><trkpt lat="41.144227792558716" lon="14.50939838079142"><ele>275.8</ele><time>2026-05-02T11:41:26Z</time></trkpt><trkpt lat="41.144242821429415" lon="14.509487096566893"><ele>275.0</ele><time>2026-05-02T11:41:27Z</time></trkpt><trkpt lat="41.14444268201158" lon="14.509518974047475"><ele>275.0</ele><time>2026-05-02T11:41:32Z</time></trkpt><trkpt lat="41.14454058221279" lon="14.509445123676372"><ele>275.0</ele><time>2026-05-02T11:41:33Z</time></trkpt><trkpt lat="41.14472341765715" lon="14.509166880870618"><ele>275.0</ele><time>2026-05-02T11:41:34.999Z</time></trkpt><trkpt lat="41.144841705893036" lon="14.509041124750894"><ele>274.33333333333337</ele><time>2026-05-02T11:41:35.999Z</time></trkpt><trkpt lat="41.14497749623922" lon="14.508932915915976"><ele>273.6666666666667</ele><time>2026-05-02T11:41:36.999Z</time></trkpt><trkpt lat="41.14512332719319" lon="14.508811930635549"><ele>273.0</ele><time>2026-05-02T11:41:37.999Z</time></trkpt><trkpt lat="41.1452768040704" lon="14.50867479248376"><ele>273.0</ele><time>2026-05-02T11:41:38.999Z</time></trkpt><trkpt lat="41.145421834852925" lon="14.508542179949025"><ele>273.0</ele><time>2026-05-02T11:41:39.999Z</time></trkpt><trkpt lat="41.145549059333874" lon="14.508398687107768"><ele>273.0</ele><time>2026-05-02T11:41:40.999Z</time></trkpt><trkpt lat="41.14569209972475" lon="14.508271198880646"><ele>269.3333333333333</ele><time>2026-05-02T11:41:41.999Z</time></trkpt><trkpt lat="41.14582728760721" lon="14.508145466428873"><ele>265.66666666666663</ele><time>2026-05-02T11:41:42.999Z</time></trkpt><trkpt lat="41.14596189403921" lon="14.508031678838893"><ele>262.0</ele><time>2026-05-02T11:41:43.999Z</time></trkpt><trkpt lat="41.14609928913702" lon="14.507967341204473"><ele>262.0</ele><time>2026-05-02T11:41:44.999Z</time></trkpt><trkpt lat="41.14622609947849" lon="14.507917757266293"><ele>262.0</ele><time>2026-05-02T11:41:45.999Z</time></trkpt><trkpt lat="41.146332638176006" lon="14.50784572784161"><ele>262.0</ele><time>2026-05-02T11:41:46.999Z</time></trkpt><trkpt lat="41.14643637916604" lon="14.507719786656985"><ele>262.0</ele><time>2026-05-02T11:41:47.999Z</time></trkpt><trkpt lat="41.146517784261746" lon="14.507546008157469"><ele>260.66666666666663</ele><time>2026-05-02T11:41:48.999Z</time></trkpt><trkpt lat="41.14656858025466" lon="14.507335315063155"><ele>259.3333333333333</ele><time>2026-05-02T11:41:49.999Z</time></trkpt><trkpt lat="41.14658759977155" lon="14.507103506281071"><ele>258.0</ele><time>2026-05-02T11:41:50.999Z</time></trkpt><trkpt lat="41.1465785400684" lon="14.506856517544763"><ele>258.0</ele><time>2026-05-02T11:41:51.999Z</time></trkpt><trkpt lat="41.14659526954834" lon="14.506631483895877"><ele>258.0</ele><time>2026-05-02T11:41:52.999Z</time></trkpt><trkpt lat="41.146611861650086" lon="14.506436079055261"><ele>258.0</ele><time>2026-05-02T11:41:53.999Z</time></trkpt><trkpt lat="41.14664052476389" lon="14.50625688337653"><ele>258.0</ele><time>2026-05-02T11:41:54.999Z</time></trkpt><trkpt lat="41.14670273591633" lon="14.506106972816646"><ele>258.0</ele><time>2026-05-02T11:41:55.999Z</time></trkpt><trkpt lat="41.14679224925803" lon="14.505960807212913"><ele>258.0</ele><time>2026-05-02T11:41:56.999Z</time></trkpt><trkpt lat="41.146891201351295" lon="14.505790940328904"><ele>258.0</ele><time>2026-05-02T11:41:57.999Z</time></trkpt><trkpt lat="41.146962768564116" lon="14.50561581040977"><ele>257.3333333333333</ele><time>2026-05-02T11:41:58.999Z</time></trkpt><trkpt lat="41.147013262353" lon="14.505405413316769"><ele>256.66666666666663</ele><time>2026-05-02T11:41:59.999Z</time></trkpt><trkpt lat="41.147018741282345" lon="14.505183423859611"><ele>256.0</ele><time>2026-05-02T11:42:00.999Z</time></trkpt><trkpt lat="41.147041236160725" lon="14.505003267360616"><ele>256.0</ele><time>2026-05-02T11:42:01.999Z</time></trkpt><trkpt lat="41.1470567555628" lon="14.504860249848289"><ele>256.0</ele><time>2026-05-02T11:42:02.999Z</time></trkpt><trkpt lat="41.14708567662906" lon="14.504739675556184"><ele>256.0</ele><time>2026-05-02T11:42:04.999Z</time></trkpt><trkpt lat="41.1472261926283" lon="14.504777045105877"><ele>256.0</ele><time>2026-05-02T11:42:05.999Z</time></trkpt><trkpt lat="41.1472970395429" lon="14.504882499660988"><ele>254.75</ele><time>2026-05-02T11:42:06.999Z</time></trkpt><trkpt lat="41.14739585150804" lon="14.505012420795492"><ele>253.5</ele><time>2026-05-02T11:42:07.999Z</time></trkpt><trkpt lat="41.14747753153558" lon="14.505167058149016"><ele>252.25</ele><time>2026-05-02T11:42:08.999Z</time></trkpt><trkpt lat="41.14758029787647" lon="14.505294835418292"><ele>251.0</ele><time>2026-05-02T11:42:09.999Z</time></trkpt><trkpt lat="41.1477155167198" lon="14.505397601932412"><ele>249.0</ele><time>2026-05-02T11:42:10.999Z</time></trkpt><trkpt lat="41.147875290268125" lon="14.505482097658927"><ele>247.0</ele><time>2026-05-02T11:42:11.999Z</time></trkpt><trkpt lat="41.14804832918936" lon="14.505559792619694"><ele>245.0</ele><time>2026-05-02T11:42:12.999Z</time></trkpt><trkpt lat="41.14821979495335" lon="14.505644785506039"><ele>244.33333333333334</ele><time>2026-05-02T11:42:13.999Z</time></trkpt><trkpt lat="41.14837792795043" lon="14.505727687820004"><ele>243.66666666666669</ele><time>2026-05-02T11:42:14.999Z</time></trkpt><trkpt lat="41.14851516185973" lon="14.505807520923057"><ele>243.0</ele><time>2026-05-02T11:42:15.999Z</time></trkpt><trkpt lat="41.148643555222556" lon="14.505881491052556"><ele>243.0</ele><time>2026-05-02T11:42:16.999Z</time></trkpt><trkpt lat="41.148765567928834" lon="14.505961638012625"><ele>243.0</ele><time>2026-05-02T11:42:17.999Z</time></trkpt><trkpt lat="41.14888319621409" lon="14.506042481572637"><ele>243.0</ele><time>2026-05-02T11:42:18.999Z</time></trkpt><trkpt lat="41.14900147907603" lon="14.506142518274197"><ele>243.0</ele><time>2026-05-02T11:42:19.999Z</time></trkpt><trkpt lat="41.1491236767095" lon="14.506245820631017"><ele>240.75</ele><time>2026-05-02T11:42:20.999Z</time></trkpt><trkpt lat="41.14925415516828" lon="14.506346323124982"><ele>238.5</ele><time>2026-05-02T11:42:21.999Z</time></trkpt><trkpt lat="41.14937991250258" lon="14.506438909783679"><ele>236.25</ele><time>2026-05-02T11:42:22.999Z</time></trkpt><trkpt lat="41.14949829196744" lon="14.506540850231808"><ele>234.0</ele><time>2026-05-02T11:42:23.999Z</time></trkpt><trkpt lat="41.14960710414584" lon="14.506634669342382"><ele>234.0</ele><time>2026-05-02T11:42:24.999Z</time></trkpt><trkpt lat="41.14971331452895" lon="14.506720247625381"><ele>233.99999999999997</ele><time>2026-05-02T11:42:25.999Z</time></trkpt><trkpt lat="41.14980833443784" lon="14.506799043823571"><ele>233.99999999999997</ele><time>2026-05-02T11:42:26.999Z</time></trkpt><trkpt lat="41.14989544196862" lon="14.506876120399603"><ele>234.0</ele><time>2026-05-02T11:42:27.999Z</time></trkpt><trkpt lat="41.14997859547753" lon="14.506948079319987"><ele>234.0</ele><time>2026-05-02T11:42:28.999Z</time></trkpt><trkpt lat="41.15005071947302" lon="14.506992051498832"><ele>235.0</ele><time>2026-05-02T11:42:29.999Z</time></trkpt><trkpt lat="41.150191396058155" lon="14.506944589172297"><ele>236.0</ele><time>2026-05-02T11:42:31.999Z</time></trkpt><trkpt lat="41.15028373354223" lon="14.5068748228817"><ele>237.0</ele><time>2026-05-02T11:42:32.999Z</time></trkpt><trkpt lat="41.1503763833655" lon="14.506786450459503"><ele>238.0</ele><time>2026-05-02T11:42:33.999Z</time></trkpt><trkpt lat="41.15048222253334" lon="14.506686315067869"><ele>238.0</ele><time>2026-05-02T11:42:34.999Z</time></trkpt><trkpt lat="41.15059657311259" lon="14.506578291817195"><ele>238.0</ele><time>2026-05-02T11:42:35.999Z</time></trkpt><trkpt lat="41.15070248351604" lon="14.506478098416151"><ele>238.0</ele><time>2026-05-02T11:42:36.999Z</time></trkpt><trkpt lat="41.15082888850566" lon="14.506380222557008"><ele>238.0</ele><time>2026-05-02T11:42:37.999Z</time></trkpt><trkpt lat="41.150920225852886" lon="14.506260783843002"><ele>239.5</ele><time>2026-05-02T11:42:38.999Z</time></trkpt><trkpt lat="41.150994113421646" lon="14.506137911562817"><ele>241.0</ele><time>2026-05-02T11:42:39.999Z</time></trkpt><trkpt lat="41.15103960700631" lon="14.505988729907605"><ele>242.5</ele><time>2026-05-02T11:42:40.999Z</time></trkpt><trkpt lat="41.15104780491632" lon="14.505811012097992"><ele>244.0</ele><time>2026-05-02T11:42:41.999Z</time></trkpt><trkpt lat="41.15102513582885" lon="14.505611408685526"><ele>243.33333333333331</ele><time>2026-05-02T11:42:42.999Z</time></trkpt><trkpt lat="41.15099126114204" lon="14.505397125380828"><ele>242.66666666666669</ele><time>2026-05-02T11:42:43.999Z</time></trkpt><trkpt lat="41.15092561478271" lon="14.505175947567784"><ele>242.0</ele><time>2026-05-02T11:42:44.999Z</time></trkpt><trkpt lat="41.15090712959022" lon="14.505023506833522"><ele>242.0</ele><time>2026-05-02T11:42:45.999Z</time></trkpt><trkpt lat="41.150869275219506" lon="14.504853617861688"><ele>242.0</ele><time>2026-05-02T11:42:46.999Z</time></trkpt><trkpt lat="41.15082337923882" lon="14.504718783930608"><ele>242.0</ele><time>2026-05-02T11:42:47.999Z</time></trkpt><trkpt lat="41.15074347302023" lon="14.50460993749845"><ele>242.0</ele><time>2026-05-02T11:42:48.999Z</time></trkpt><trkpt lat="41.15063075563128" lon="14.504521757663593"><ele>244.75</ele><time>2026-05-02T11:42:49.999Z</time></trkpt><trkpt lat="41.150522197570666" lon="14.504447556134117"><ele>247.5</ele><time>2026-05-02T11:42:50.999Z</time></trkpt><trkpt lat="41.150489524708966" lon="14.504331316319478"><ele>250.25</ele><time>2026-05-02T11:42:51.999Z</time></trkpt><trkpt lat="41.15043915598461" lon="14.50420188060148"><ele>253.0</ele><time>2026-05-02T11:42:53Z</time></trkpt><trkpt lat="41.15038697294132" lon="14.504045322650077"><ele>253.0</ele><time>2026-05-02T11:42:54Z</time></trkpt><trkpt lat="41.15033705967977" lon="14.503878719709745"><ele>253.0</ele><time>2026-05-02T11:42:55Z</time></trkpt><trkpt lat="41.15030551561139" lon="14.503753897759594"><ele>253.0</ele><time>2026-05-02T11:42:56Z</time></trkpt><trkpt lat="41.15028895323459" lon="14.503628122662546"><ele>253.0</ele><time>2026-05-02T11:42:57Z</time></trkpt><trkpt lat="41.15030418295757" lon="14.503494422730327"><ele>253.0</ele><time>2026-05-02T11:42:58Z</time></trkpt><trkpt lat="41.150334822184554" lon="14.503329966687083"><ele>253.0</ele><time>2026-05-02T11:42:59Z</time></trkpt><trkpt lat="41.150365812462724" lon="14.503152225984557"><ele>253.0</ele><time>2026-05-02T11:43:00Z</time></trkpt><trkpt lat="41.15039293806538" lon="14.502967389192044"><ele>253.0</ele><time>2026-05-02T11:43:01Z</time></trkpt><trkpt lat="41.15040704939259" lon="14.502762285603641"><ele>253.0</ele><time>2026-05-02T11:43:02Z</time></trkpt><trkpt lat="41.150400591025864" lon="14.502563465951845"><ele>255.0</ele><time>2026-05-02T11:43:03Z</time></trkpt><trkpt lat="41.15037635151189" lon="14.50236094381078"><ele>257.0</ele><time>2026-05-02T11:43:04Z</time></trkpt><trkpt lat="41.15031884156865" lon="14.50215335729757"><ele>259.0</ele><time>2026-05-02T11:43:05Z</time></trkpt><trkpt lat="41.15026066596884" lon="14.501944900586047"><ele>260.0</ele><time>2026-05-02T11:43:06Z</time></trkpt><trkpt lat="41.150206435904316" lon="14.50175002424346"><ele>261.0</ele><time>2026-05-02T11:43:07Z</time></trkpt><trkpt lat="41.15017178877325" lon="14.501574876374237"><ele>262.0</ele><time>2026-05-02T11:43:08Z</time></trkpt><trkpt lat="41.15015048450631" lon="14.50143376665247"><ele>263.0</ele><time>2026-05-02T11:43:09Z</time></trkpt><trkpt lat="41.15014974775762" lon="14.501298272092427"><ele>264.0</ele><time>2026-05-02T11:43:10Z</time></trkpt><trkpt lat="41.15016521408233" lon="14.501115508956573"><ele>265.0</ele><time>2026-05-02T11:43:11Z</time></trkpt><trkpt lat="41.15018816806088" lon="14.500910195605428"><ele>266.0</ele><time>2026-05-02T11:43:12Z</time></trkpt><trkpt lat="41.1502035809216" lon="14.500661461901005"><ele>266.0</ele><time>2026-05-02T11:43:13Z</time></trkpt><trkpt lat="41.150214789417895" lon="14.500447391650361"><ele>266.0</ele><time>2026-05-02T11:43:14Z</time></trkpt><trkpt lat="41.150223894801954" lon="14.500273488495642"><ele>266.0</ele><time>2026-05-02T11:43:15Z</time></trkpt><trkpt lat="41.150234159437865" lon="14.500119050636886"><ele>266.0</ele><time>2026-05-02T11:43:16Z</time></trkpt><trkpt lat="41.15024386654361" lon="14.499985803723703"><ele>267.0</ele><time>2026-05-02T11:43:17Z</time></trkpt><trkpt lat="41.150237363319555" lon="14.499872647777403"><ele>268.0</ele><time>2026-05-02T11:43:18Z</time></trkpt><trkpt lat="41.150263592526265" lon="14.499793177810684"><ele>269.0</ele><time>2026-05-02T11:43:19Z</time></trkpt><trkpt lat="41.15029941183372" lon="14.499707293308562"><ele>270.0</ele><time>2026-05-02T11:43:21Z</time></trkpt><trkpt lat="41.15044897957406" lon="14.499761735718462"><ele>271.0</ele><time>2026-05-02T11:43:22Z</time></trkpt><trkpt lat="41.15056366530639" lon="14.499813683381179"><ele>271.0</ele><time>2026-05-02T11:43:23Z</time></trkpt><trkpt lat="41.15068990785466" lon="14.499869611713796"><ele>271.0</ele><time>2026-05-02T11:43:24Z</time></trkpt><trkpt lat="41.15080903236908" lon="14.499930540748261"><ele>271.0</ele><time>2026-05-02T11:43:25Z</time></trkpt><trkpt lat="41.15093333295469" lon="14.499974415760944"><ele>271.0</ele><time>2026-05-02T11:43:26Z</time></trkpt><trkpt lat="41.15103741294857" lon="14.50001150405499"><ele>269.0</ele><time>2026-05-02T11:43:27Z</time></trkpt><trkpt lat="41.15114237960508" lon="14.500051599487367"><ele>267.0</ele><time>2026-05-02T11:43:28Z</time></trkpt><trkpt lat="41.15124729126493" lon="14.500087246274704"><ele>265.0</ele><time>2026-05-02T11:43:29Z</time></trkpt><trkpt lat="41.15135827209194" lon="14.500131513834496"><ele>263.0</ele><time>2026-05-02T11:43:30Z</time></trkpt><trkpt lat="41.151452509264665" lon="14.500192217963072"><ele>261.0</ele><time>2026-05-02T11:43:31Z</time></trkpt><trkpt lat="41.151552391661" lon="14.500287308223424"><ele>258.25</ele><time>2026-05-02T11:43:32Z</time></trkpt><trkpt lat="41.151640045210655" lon="14.500418688358439"><ele>255.5</ele><time>2026-05-02T11:43:33Z</time></trkpt><trkpt lat="41.15172927465285" lon="14.500547786892458"><ele>252.75</ele><time>2026-05-02T11:43:34Z</time></trkpt><trkpt lat="41.151812770366824" lon="14.500694689694397"><ele>250.0</ele><time>2026-05-02T11:43:35Z</time></trkpt><trkpt lat="41.15189804792328" lon="14.500849693242339"><ele>250.0</ele><time>2026-05-02T11:43:35.999Z</time></trkpt><trkpt lat="41.151979966017954" lon="14.501002618952146"><ele>250.0</ele><time>2026-05-02T11:43:36.999Z</time></trkpt><trkpt lat="41.152063617915594" lon="14.501123135903137"><ele>250.0</ele><time>2026-05-02T11:43:37.999Z</time></trkpt><trkpt lat="41.152141943304386" lon="14.501251326319656"><ele>250.0</ele><time>2026-05-02T11:43:38.999Z</time></trkpt><trkpt lat="41.152230395275566" lon="14.501390665863552"><ele>248.5</ele><time>2026-05-02T11:43:39.999Z</time></trkpt><trkpt lat="41.15231102739208" lon="14.501539936831627"><ele>247.0</ele><time>2026-05-02T11:43:40.999Z</time></trkpt><trkpt lat="41.15240752870059" lon="14.501668441147435"><ele>245.5</ele><time>2026-05-02T11:43:41.999Z</time></trkpt><trkpt lat="41.15250977241886" lon="14.501806883925923"><ele>244.0</ele><time>2026-05-02T11:43:42.999Z</time></trkpt><trkpt lat="41.152599020572026" lon="14.501950932019833"><ele>244.0</ele><time>2026-05-02T11:43:43.999Z</time></trkpt><trkpt lat="41.15269570867489" lon="14.502073368774344"><ele>244.0</ele><time>2026-05-02T11:43:44.999Z</time></trkpt><trkpt lat="41.15278268548798" lon="14.502202307050458"><ele>244.0</ele><time>2026-05-02T11:43:45.999Z</time></trkpt><trkpt lat="41.152876586658" lon="14.502320373276381"><ele>244.0</ele><time>2026-05-02T11:43:46.999Z</time></trkpt><trkpt lat="41.15297091455547" lon="14.502443137955336"><ele>241.25</ele><time>2026-05-02T11:43:47.999Z</time></trkpt><trkpt lat="41.1530622807012" lon="14.502567529333255"><ele>238.5</ele><time>2026-05-02T11:43:48.999Z</time></trkpt><trkpt lat="41.15315794525236" lon="14.502679244624211"><ele>235.75</ele><time>2026-05-02T11:43:49.999Z</time></trkpt><trkpt lat="41.15325651525469" lon="14.50280612932238"><ele>233.0</ele><time>2026-05-02T11:43:50.999Z</time></trkpt><trkpt lat="41.153345285509815" lon="14.502930870862286"><ele>231.5</ele><time>2026-05-02T11:43:51.999Z</time></trkpt><trkpt lat="41.153439439468414" lon="14.503040974095402"><ele>230.0</ele><time>2026-05-02T11:43:52.999Z</time></trkpt><trkpt lat="41.15351649066162" lon="14.503139821079984"><ele>228.5</ele><time>2026-05-02T11:43:53.999Z</time></trkpt><trkpt lat="41.15358401375912" lon="14.503259389120029"><ele>227.0</ele><time>2026-05-02T11:43:54.999Z</time></trkpt><trkpt lat="41.15365455703724" lon="14.503370725061645"><ele>227.0</ele><time>2026-05-02T11:43:55.999Z</time></trkpt><trkpt lat="41.15373689176529" lon="14.50348066941322"><ele>227.0</ele><time>2026-05-02T11:43:56.999Z</time></trkpt><trkpt lat="41.15381859824255" lon="14.503580545529582"><ele>227.0</ele><time>2026-05-02T11:43:57.999Z</time></trkpt><trkpt lat="41.153903069173644" lon="14.503678280195688"><ele>227.0</ele><time>2026-05-02T11:43:58.999Z</time></trkpt><trkpt lat="41.153984843864485" lon="14.503772397545852"><ele>227.0</ele><time>2026-05-02T11:43:59.999Z</time></trkpt><trkpt lat="41.15406456843439" lon="14.50386000903844"><ele>224.66666666666669</ele><time>2026-05-02T11:44:00.999Z</time></trkpt><trkpt lat="41.15414547145753" lon="14.503927766415366"><ele>222.33333333333334</ele><time>2026-05-02T11:44:01.999Z</time></trkpt><trkpt lat="41.15422638776839" lon="14.50398492111646"><ele>220.0</ele><time>2026-05-02T11:44:02.999Z</time></trkpt><trkpt lat="41.154290412473706" lon="14.504005780795293"><ele>217.66666666666669</ele><time>2026-05-02T11:44:03.999Z</time></trkpt><trkpt lat="41.15436591642445" lon="14.503963357039986"><ele>215.33333333333334</ele><time>2026-05-02T11:44:04.999Z</time></trkpt><trkpt lat="41.15442339143078" lon="14.503896002297015"><ele>213.0</ele><time>2026-05-02T11:44:05.999Z</time></trkpt><trkpt lat="41.15448455506981" lon="14.503770787583973"><ele>214.25</ele><time>2026-05-02T11:44:06.999Z</time></trkpt><trkpt lat="41.15454954116077" lon="14.503624713135695"><ele>215.5</ele><time>2026-05-02T11:44:07.999Z</time></trkpt><trkpt lat="41.1546329478122" lon="14.503510585047144"><ele>216.75</ele><time>2026-05-02T11:44:08.999Z</time></trkpt><trkpt lat="41.15470981862458" lon="14.50339746768397"><ele>218.0</ele><time>2026-05-02T11:44:09.999Z</time></trkpt><trkpt lat="41.154790431029255" lon="14.503292911111362"><ele>214.4</ele><time>2026-05-02T11:44:10.999Z</time></trkpt><trkpt lat="41.15487666040656" lon="14.503199676990757"><ele>210.8</ele><time>2026-05-02T11:44:11.999Z</time></trkpt><trkpt lat="41.15496117493975" lon="14.503135782593864"><ele>207.2</ele><time>2026-05-02T11:44:12.999Z</time></trkpt><trkpt lat="41.15506446648662" lon="14.503111013227954"><ele>203.6</ele><time>2026-05-02T11:44:13.999Z</time></trkpt><trkpt lat="41.15516341425299" lon="14.503092153838368"><ele>200.0</ele><time>2026-05-02T11:44:14.999Z</time></trkpt><trkpt lat="41.15526771540043" lon="14.503053006808992"><ele>200.0</ele><time>2026-05-02T11:44:15.999Z</time></trkpt><trkpt lat="41.155360319371596" lon="14.50295199819604"><ele>200.0</ele><time>2026-05-02T11:44:16.999Z</time></trkpt><trkpt lat="41.15546651734422" lon="14.50288814783172"><ele>200.0</ele><time>2026-05-02T11:44:17.999Z</time></trkpt><trkpt lat="41.15557135508328" lon="14.50279675066838"><ele>200.0</ele><time>2026-05-02T11:44:18.999Z</time></trkpt><trkpt lat="41.15568469099662" lon="14.502700036933577"><ele>197.5</ele><time>2026-05-02T11:44:19.999Z</time></trkpt><trkpt lat="41.15579498636568" lon="14.502608525942408"><ele>195.0</ele><time>2026-05-02T11:44:20.999Z</time></trkpt><trkpt lat="41.15591300954227" lon="14.502510899013254"><ele>192.5</ele><time>2026-05-02T11:44:21.999Z</time></trkpt><trkpt lat="41.1560210200113" lon="14.502430421648436"><ele>190.0</ele><time>2026-05-02T11:44:22.999Z</time></trkpt><trkpt lat="41.15610971958129" lon="14.502364276348153"><ele>190.0</ele><time>2026-05-02T11:44:23.999Z</time></trkpt><trkpt lat="41.15616908853564" lon="14.502327254682768"><ele>190.0</ele><time>2026-05-02T11:44:24.999Z</time></trkpt><trkpt lat="41.15627252199446" lon="14.502323052128274"><ele>190.0</ele><time>2026-05-02T11:44:26.999Z</time></trkpt><trkpt lat="41.15634005019191" lon="14.502359115266728"><ele>190.0</ele><time>2026-05-02T11:44:27.999Z</time></trkpt><trkpt lat="41.15645337597659" lon="14.5024132037917"><ele>190.0</ele><time>2026-05-02T11:44:28.999Z</time></trkpt><trkpt lat="41.15659016889059" lon="14.502472688416908"><ele>190.0</ele><time>2026-05-02T11:44:29.999Z</time></trkpt><trkpt lat="41.15673440056405" lon="14.502534865103907"><ele>190.0</ele><time>2026-05-02T11:44:30.999Z</time></trkpt><trkpt lat="41.15687488470713" lon="14.502603056211"><ele>190.0</ele><time>2026-05-02T11:44:31.999Z</time></trkpt><trkpt lat="41.157004669209165" lon="14.502648409540585"><ele>190.0</ele><time>2026-05-02T11:44:32.999Z</time></trkpt><trkpt lat="41.15713325774759" lon="14.502690759124187"><ele>190.0</ele><time>2026-05-02T11:44:33.999Z</time></trkpt><trkpt lat="41.1572644145451" lon="14.502730371440284"><ele>190.0</ele><time>2026-05-02T11:44:34.999Z</time></trkpt><trkpt lat="41.15740122945328" lon="14.50274951839744"><ele>190.0</ele><time>2026-05-02T11:44:35.999Z</time></trkpt><trkpt lat="41.15753316386913" lon="14.50276054098868"><ele>190.0</ele><time>2026-05-02T11:44:36.999Z</time></trkpt><trkpt lat="41.1576576210749" lon="14.502761820585118"><ele>188.75</ele><time>2026-05-02T11:44:37.999Z</time></trkpt><trkpt lat="41.15776939555137" lon="14.502746128895074"><ele>187.5</ele><time>2026-05-02T11:44:38.999Z</time></trkpt><trkpt lat="41.15788419852578" lon="14.502695994940634"><ele>186.25</ele><time>2026-05-02T11:44:39.999Z</time></trkpt><trkpt lat="41.15801700017713" lon="14.502596774483433"><ele>185.0</ele><time>2026-05-02T11:44:40.999Z</time></trkpt><trkpt lat="41.158148992491824" lon="14.502486813132633"><ele>181.0</ele><time>2026-05-02T11:44:41.999Z</time></trkpt><trkpt lat="41.15828410631296" lon="14.50235247528563"><ele>177.0</ele><time>2026-05-02T11:44:42.999Z</time></trkpt><trkpt lat="41.15842892738014" lon="14.502223897788337"><ele>173.0</ele><time>2026-05-02T11:44:43.999Z</time></trkpt><trkpt lat="41.158572781511666" lon="14.502098095579914"><ele>174.0</ele><time>2026-05-02T11:44:44.999Z</time></trkpt><trkpt lat="41.15873480230134" lon="14.501929554686454"><ele>175.0</ele><time>2026-05-02T11:44:45.999Z</time></trkpt><trkpt lat="41.15888208600208" lon="14.501775736126397"><ele>176.0</ele><time>2026-05-02T11:44:46.999Z</time></trkpt><trkpt lat="41.15901028135162" lon="14.50163513182932"><ele>173.5</ele><time>2026-05-02T11:44:47.999Z</time></trkpt><trkpt lat="41.15912527544096" lon="14.501519817599814"><ele>171.0</ele><time>2026-05-02T11:44:48.999Z</time></trkpt><trkpt lat="41.15923306898361" lon="14.501427985765133"><ele>168.5</ele><time>2026-05-02T11:44:49.999Z</time></trkpt><trkpt lat="41.15930435892211" lon="14.50134340235753"><ele>166.0</ele><time>2026-05-02T11:44:50.999Z</time></trkpt><trkpt lat="41.159381391174705" lon="14.501252490866861"><ele>167.5</ele><time>2026-05-02T11:44:51.999Z</time></trkpt><trkpt lat="41.159468150664566" lon="14.501105829807026"><ele>169.0</ele><time>2026-05-02T11:44:52.999Z</time></trkpt><trkpt lat="41.159583110442284" lon="14.500937399557866"><ele>170.5</ele><time>2026-05-02T11:44:53.999Z</time></trkpt><trkpt lat="41.159647768391174" lon="14.500776464124112"><ele>172.0</ele><time>2026-05-02T11:44:54.999Z</time></trkpt><trkpt lat="41.159721272607534" lon="14.500652987902818"><ele>172.0</ele><time>2026-05-02T11:44:55.999Z</time></trkpt><trkpt lat="41.15979079547468" lon="14.500566698899018"><ele>172.0</ele><time>2026-05-02T11:44:56.999Z</time></trkpt><trkpt lat="41.159890710042305" lon="14.500572893524545"><ele>172.0</ele><time>2026-05-02T11:44:57.999Z</time></trkpt><trkpt lat="41.15999615598675" lon="14.500578664326383"><ele>172.0</ele><time>2026-05-02T11:44:59Z</time></trkpt><trkpt lat="41.160135440370404" lon="14.500522598615936"><ele>172.0</ele><time>2026-05-02T11:45:00Z</time></trkpt><trkpt lat="41.16026275043496" lon="14.500480823326814"><ele>170.5</ele><time>2026-05-02T11:45:01Z</time></trkpt><trkpt lat="41.16035885961512" lon="14.500401313726336"><ele>169.0</ele><time>2026-05-02T11:45:02Z</time></trkpt><trkpt lat="41.16044618699545" lon="14.500263437662369"><ele>167.5</ele><time>2026-05-02T11:45:03Z</time></trkpt><trkpt lat="41.16052488999856" lon="14.500089610230376"><ele>166.0</ele><time>2026-05-02T11:45:04Z</time></trkpt><trkpt lat="41.160616159735554" lon="14.499965152161787"><ele>163.60000000000002</ele><time>2026-05-02T11:45:05Z</time></trkpt><trkpt lat="41.16069976076456" lon="14.499844326097103"><ele>161.20000000000002</ele><time>2026-05-02T11:45:06Z</time></trkpt><trkpt lat="41.16078311549041" lon="14.499775013216635"><ele>158.8</ele><time>2026-05-02T11:45:07Z</time></trkpt><trkpt lat="41.16085980639438" lon="14.499698559099787"><ele>156.4</ele><time>2026-05-02T11:45:08Z</time></trkpt><trkpt lat="41.16090750925974" lon="14.49962930343196"><ele>154.0</ele><time>2026-05-02T11:45:09Z</time></trkpt><trkpt lat="41.16094234342465" lon="14.499746109270694"><ele>154.0</ele><time>2026-05-02T11:45:12Z</time></trkpt><trkpt lat="41.16095536374419" lon="14.499921749411627"><ele>154.0</ele><time>2026-05-02T11:45:13Z</time></trkpt><trkpt lat="41.16095128768162" lon="14.500153123016647"><ele>154.0</ele><time>2026-05-02T11:45:14Z</time></trkpt><trkpt lat="41.160942086804575" lon="14.50035396689981"><ele>152.0</ele><time>2026-05-02T11:45:15Z</time></trkpt><trkpt lat="41.16090862223054" lon="14.500543445397303"><ele>150.0</ele><time>2026-05-02T11:45:16Z</time></trkpt><trkpt lat="41.16088996721339" lon="14.500722249099809"><ele>148.0</ele><time>2026-05-02T11:45:17Z</time></trkpt><trkpt lat="41.1608785271797" lon="14.500910954558499"><ele>146.0</ele><time>2026-05-02T11:45:18Z</time></trkpt><trkpt lat="41.16086564888324" lon="14.501068717428913"><ele>146.0</ele><time>2026-05-02T11:45:19Z</time></trkpt><trkpt lat="41.16086687302213" lon="14.501213157775297"><ele>146.0</ele><time>2026-05-02T11:45:20Z</time></trkpt><trkpt lat="41.1609006898699" lon="14.501356107194308"><ele>146.0</ele><time>2026-05-02T11:45:21Z</time></trkpt><trkpt lat="41.16097953161055" lon="14.501480653572056"><ele>146.0</ele><time>2026-05-02T11:45:22Z</time></trkpt><trkpt lat="41.16110439032912" lon="14.501589126664499"><ele>142.66666666666666</ele><time>2026-05-02T11:45:23Z</time></trkpt><trkpt lat="41.161260793623896" lon="14.501671786181344"><ele>139.33333333333334</ele><time>2026-05-02T11:45:24Z</time></trkpt><trkpt lat="41.161422722644836" lon="14.501736958423859"><ele>136.0</ele><time>2026-05-02T11:45:25Z</time></trkpt><trkpt lat="41.161590787296596" lon="14.501765474324985"><ele>135.66666666666669</ele><time>2026-05-02T11:45:26Z</time></trkpt><trkpt lat="41.16177641449189" lon="14.501801294627075"><ele>135.33333333333334</ele><time>2026-05-02T11:45:27Z</time></trkpt><trkpt lat="41.16198787033914" lon="14.501836049872214"><ele>135.0</ele><time>2026-05-02T11:45:28Z</time></trkpt><trkpt lat="41.162183754175224" lon="14.501819918390167"><ele>135.0</ele><time>2026-05-02T11:45:29Z</time></trkpt><trkpt lat="41.16234887495606" lon="14.501793832431554"><ele>135.0</ele><time>2026-05-02T11:45:30Z</time></trkpt><trkpt lat="41.16248356981047" lon="14.501767378809651"><ele>135.0</ele><time>2026-05-02T11:45:31Z</time></trkpt><trkpt lat="41.16258193084986" lon="14.50174633097247"><ele>135.0</ele><time>2026-05-02T11:45:32Z</time></trkpt><trkpt lat="41.16265860077637" lon="14.501772868611136"><ele>138.5</ele><time>2026-05-02T11:45:33Z</time></trkpt><trkpt lat="41.162691629685646" lon="14.501885244760942"><ele>142.0</ele><time>2026-05-02T11:45:34Z</time></trkpt><trkpt lat="41.16274383961248" lon="14.502002356479125"><ele>145.5</ele><time>2026-05-02T11:45:35Z</time></trkpt><trkpt lat="41.16279710601413" lon="14.502165492087393"><ele>149.0</ele><time>2026-05-02T11:45:36Z</time></trkpt><trkpt lat="41.16285550949618" lon="14.502310319090752"><ele>150.6</ele><time>2026-05-02T11:45:37Z</time></trkpt><trkpt lat="41.16291167142074" lon="14.502429400327655"><ele>152.2</ele><time>2026-05-02T11:45:38Z</time></trkpt><trkpt lat="41.162953306932614" lon="14.502509578231319"><ele>153.79999999999998</ele><time>2026-05-02T11:45:39Z</time></trkpt><trkpt lat="41.16298266144278" lon="14.502593407315372"><ele>155.4</ele><time>2026-05-02T11:45:40Z</time></trkpt><trkpt lat="41.16303415492466" lon="14.502684252356485"><ele>157.0</ele><time>2026-05-02T11:45:43.999Z</time></trkpt><trkpt lat="41.163166275369626" lon="14.502616299777477"><ele>157.75</ele><time>2026-05-02T11:45:44.999Z</time></trkpt><trkpt lat="41.16326684110159" lon="14.502543150458992"><ele>158.5</ele><time>2026-05-02T11:45:45.999Z</time></trkpt><trkpt lat="41.16335856502196" lon="14.502454236126024"><ele>159.25</ele><time>2026-05-02T11:45:46.999Z</time></trkpt><trkpt lat="41.16347420713291" lon="14.502352768396088"><ele>160.0</ele><time>2026-05-02T11:45:47.999Z</time></trkpt><trkpt lat="41.163593365464976" lon="14.502250181265348"><ele>160.0</ele><time>2026-05-02T11:45:48.999Z</time></trkpt><trkpt lat="41.16368504793722" lon="14.50215541117424"><ele>160.0</ele><time>2026-05-02T11:45:49.999Z</time></trkpt><trkpt lat="41.163746917752015" lon="14.502077497790713"><ele>160.0</ele><time>2026-05-02T11:45:50.999Z</time></trkpt><trkpt lat="41.163800645664345" lon="14.501983488298915"><ele>160.0</ele><time>2026-05-02T11:45:51.999Z</time></trkpt><trkpt lat="41.163851836366106" lon="14.50192264385107"><ele>160.0</ele><time>2026-05-02T11:45:52.999Z</time></trkpt><trkpt lat="41.16393827624736" lon="14.501825745127215"><ele>160.0</ele><time>2026-05-02T11:45:54.999Z</time></trkpt><trkpt lat="41.16403329242359" lon="14.501713309215695"><ele>160.0</ele><time>2026-05-02T11:45:56.999Z</time></trkpt><trkpt lat="41.16410936713398" lon="14.501618937872662"><ele>160.0</ele><time>2026-05-02T11:45:57.999Z</time></trkpt><trkpt lat="41.16418190403063" lon="14.501493023919334"><ele>160.0</ele><time>2026-05-02T11:45:58.999Z</time></trkpt><trkpt lat="41.164235659301056" lon="14.501336933190256"><ele>157.75</ele><time>2026-05-02T11:45:59.999Z</time></trkpt><trkpt lat="41.16428713003078" lon="14.501174818637168"><ele>155.5</ele><time>2026-05-02T11:46:00.999Z</time></trkpt><trkpt lat="41.1643134530898" lon="14.500985396723626"><ele>153.25</ele><time>2026-05-02T11:46:01.999Z</time></trkpt><trkpt lat="41.16433820271648" lon="14.500822300179953"><ele>151.0</ele><time>2026-05-02T11:46:02.999Z</time></trkpt><trkpt lat="41.164358600477925" lon="14.500673385945225"><ele>151.0</ele><time>2026-05-02T11:46:03.999Z</time></trkpt><trkpt lat="41.16437576439686" lon="14.500529631768076"><ele>151.0</ele><time>2026-05-02T11:46:04.999Z</time></trkpt><trkpt lat="41.16438694674597" lon="14.50038840177833"><ele>151.0</ele><time>2026-05-02T11:46:05.999Z</time></trkpt><trkpt lat="41.164374032991404" lon="14.50024190946428"><ele>151.0</ele><time>2026-05-02T11:46:06.999Z</time></trkpt><trkpt lat="41.16436418635511" lon="14.500047242138082"><ele>149.33333333333334</ele><time>2026-05-02T11:46:07.999Z</time></trkpt><trkpt lat="41.16436871791344" lon="14.499839953608785"><ele>147.66666666666666</ele><time>2026-05-02T11:46:08.999Z</time></trkpt><trkpt lat="41.16437659194495" lon="14.499616498238924"><ele>146.0</ele><time>2026-05-02T11:46:09.999Z</time></trkpt><trkpt lat="41.16437427143399" lon="14.49941078457509"><ele>145.0</ele><time>2026-05-02T11:46:10.999Z</time></trkpt><trkpt lat="41.16436751315531" lon="14.499223644590305"><ele>144.0</ele><time>2026-05-02T11:46:11.999Z</time></trkpt><trkpt lat="41.1643673624599" lon="14.499053868175055"><ele>143.0</ele><time>2026-05-02T11:46:12.999Z</time></trkpt><trkpt lat="41.164390742277156" lon="14.498893509141295"><ele>142.0</ele><time>2026-05-02T11:46:13.999Z</time></trkpt><trkpt lat="41.16444378008655" lon="14.498725417665824"><ele>140.33333333333334</ele><time>2026-05-02T11:46:14.999Z</time></trkpt><trkpt lat="41.16454230958376" lon="14.498558670918856"><ele>138.66666666666666</ele><time>2026-05-02T11:46:15.999Z</time></trkpt><trkpt lat="41.16467102474218" lon="14.49842876477341"><ele>137.0</ele><time>2026-05-02T11:46:16.999Z</time></trkpt><trkpt lat="41.16481612031406" lon="14.498283124742734"><ele>137.0</ele><time>2026-05-02T11:46:17.999Z</time></trkpt><trkpt lat="41.16500231265534" lon="14.498224832211642"><ele>137.0</ele><time>2026-05-02T11:46:18.999Z</time></trkpt><trkpt lat="41.165195862889135" lon="14.498177192000053"><ele>137.0</ele><time>2026-05-02T11:46:19.999Z</time></trkpt><trkpt lat="41.16537941467431" lon="14.498127597264832"><ele>137.0</ele><time>2026-05-02T11:46:20.999Z</time></trkpt><trkpt lat="41.165553412511166" lon="14.49810707080463"><ele>137.0</ele><time>2026-05-02T11:46:21.999Z</time></trkpt><trkpt lat="41.16571655431078" lon="14.498070300702178"><ele>137.0</ele><time>2026-05-02T11:46:22.999Z</time></trkpt><trkpt lat="41.165884326005866" lon="14.497984868185624"><ele>133.66666666666666</ele><time>2026-05-02T11:46:23.999Z</time></trkpt><trkpt lat="41.16604584510751" lon="14.497842010249666"><ele>130.33333333333334</ele><time>2026-05-02T11:46:24.999Z</time></trkpt><trkpt lat="41.16619835429504" lon="14.497685077856087"><ele>127.0</ele><time>2026-05-02T11:46:25.999Z</time></trkpt><trkpt lat="41.16633914227521" lon="14.497549095929894"><ele>127.0</ele><time>2026-05-02T11:46:26.999Z</time></trkpt><trkpt lat="41.16645232392798" lon="14.497389913643095"><ele>127.0</ele><time>2026-05-02T11:46:27.999Z</time></trkpt><trkpt lat="41.166553885105934" lon="14.497168927195121"><ele>127.0</ele><time>2026-05-02T11:46:28.999Z</time></trkpt><trkpt lat="41.166640110654946" lon="14.496910189994356"><ele>124.5</ele><time>2026-05-02T11:46:29.999Z</time></trkpt><trkpt lat="41.16669453541493" lon="14.496606365054662"><ele>122.0</ele><time>2026-05-02T11:46:30.999Z</time></trkpt><trkpt lat="41.16674362231719" lon="14.49627803232867"><ele>118.5</ele><time>2026-05-02T11:46:31.999Z</time></trkpt><trkpt lat="41.16679750263911" lon="14.495959081817167"><ele>115.0</ele><time>2026-05-02T11:46:32.999Z</time></trkpt><trkpt lat="41.16688124332801" lon="14.495686431580495"><ele>115.0</ele><time>2026-05-02T11:46:33.999Z</time></trkpt><trkpt lat="41.16696394524405" lon="14.495425817203008"><ele>115.0</ele><time>2026-05-02T11:46:34.999Z</time></trkpt><trkpt lat="41.167057359739566" lon="14.495176185991019"><ele>115.0</ele><time>2026-05-02T11:46:35.999Z</time></trkpt><trkpt lat="41.16714220187604" lon="14.494916478050804"><ele>115.0</ele><time>2026-05-02T11:46:36.999Z</time></trkpt><trkpt lat="41.16723768158748" lon="14.494678320849134"><ele>115.0</ele><time>2026-05-02T11:46:37.999Z</time></trkpt><trkpt lat="41.167323589635544" lon="14.494455503219896"><ele>115.0</ele><time>2026-05-02T11:46:38.999Z</time></trkpt><trkpt lat="41.16744741445742" lon="14.4942521337921"><ele>113.33333333333334</ele><time>2026-05-02T11:46:39.999Z</time></trkpt><trkpt lat="41.167572800793266" lon="14.49403851727139"><ele>111.66666666666666</ele><time>2026-05-02T11:46:40.999Z</time></trkpt><trkpt lat="41.16771855066942" lon="14.493839027014035"><ele>110.0</ele><time>2026-05-02T11:46:41.999Z</time></trkpt><trkpt lat="41.16788298765784" lon="14.49363958652209"><ele>108.66666666666666</ele><time>2026-05-02T11:46:42.999Z</time></trkpt><trkpt lat="41.16803337740095" lon="14.493468485705913"><ele>107.33333333333334</ele><time>2026-05-02T11:46:43.999Z</time></trkpt><trkpt lat="41.168171062776395" lon="14.493308405703573"><ele>106.0</ele><time>2026-05-02T11:46:44.999Z</time></trkpt><trkpt lat="41.16830054666969" lon="14.493178134159571"><ele>106.0</ele><time>2026-05-02T11:46:45.999Z</time></trkpt><trkpt lat="41.168398813893255" lon="14.493032815606956"><ele>106.0</ele><time>2026-05-02T11:46:46.999Z</time></trkpt><trkpt lat="41.16847178535845" lon="14.492828054774037"><ele>106.0</ele><time>2026-05-02T11:46:47.999Z</time></trkpt><trkpt lat="41.1685576727948" lon="14.492612967393773"><ele>104.66666666666667</ele><time>2026-05-02T11:46:48.999Z</time></trkpt><trkpt lat="41.168682551483656" lon="14.492425315831182"><ele>103.33333333333334</ele><time>2026-05-02T11:46:49.999Z</time></trkpt><trkpt lat="41.168823851320205" lon="14.492237199635191"><ele>102.0</ele><time>2026-05-02T11:46:50.999Z</time></trkpt><trkpt lat="41.16899504054597" lon="14.492021860172413"><ele>100.0</ele><time>2026-05-02T11:46:51.999Z</time></trkpt><trkpt lat="41.16917797927554" lon="14.491817300070746"><ele>98.0</ele><time>2026-05-02T11:46:52.999Z</time></trkpt><trkpt lat="41.16935271394043" lon="14.491624326444468"><ele>98.0</ele><time>2026-05-02T11:46:53.999Z</time></trkpt><trkpt lat="41.16949707689881" lon="14.491435284484021"><ele>98.0</ele><time>2026-05-02T11:46:54.999Z</time></trkpt><trkpt lat="41.16963256535814" lon="14.491256302751323"><ele>98.0</ele><time>2026-05-02T11:46:55.999Z</time></trkpt><trkpt lat="41.169773600808725" lon="14.491076670901053"><ele>97.0</ele><time>2026-05-02T11:46:56.999Z</time></trkpt><trkpt lat="41.169943521848886" lon="14.49093120447324"><ele>96.0</ele><time>2026-05-02T11:46:57.999Z</time></trkpt><trkpt lat="41.17013994964587" lon="14.490805150638465"><ele>95.0</ele><time>2026-05-02T11:46:58.999Z</time></trkpt><trkpt lat="41.17035299160455" lon="14.49069338658071"><ele>95.0</ele><time>2026-05-02T11:46:59.999Z</time></trkpt><trkpt lat="41.17057439616038" lon="14.490566062635972"><ele>95.0</ele><time>2026-05-02T11:47:00.999Z</time></trkpt><trkpt lat="41.17082033669302" lon="14.490459082969174"><ele>92.5</ele><time>2026-05-02T11:47:01.999Z</time></trkpt><trkpt lat="41.171034982334206" lon="14.490339074274857"><ele>90.0</ele><time>2026-05-02T11:47:02.999Z</time></trkpt><trkpt lat="41.17125133085167" lon="14.490224717387466"><ele>90.0</ele><time>2026-05-02T11:47:03.999Z</time></trkpt><trkpt lat="41.17146993180533" lon="14.490127878919841"><ele>90.0</ele><time>2026-05-02T11:47:05Z</time></trkpt><trkpt lat="41.171667423699034" lon="14.490047809296415"><ele>90.0</ele><time>2026-05-02T11:47:06Z</time></trkpt><trkpt lat="41.17186126099803" lon="14.489941639729576"><ele>90.33333333333333</ele><time>2026-05-02T11:47:07Z</time></trkpt><trkpt lat="41.17204729230657" lon="14.489833802663382"><ele>90.66666666666666</ele><time>2026-05-02T11:47:08Z</time></trkpt><trkpt lat="41.1722214094369" lon="14.489686073995198"><ele>91.0</ele><time>2026-05-02T11:47:09Z</time></trkpt><trkpt lat="41.172398004489956" lon="14.489480392798233"><ele>89.0</ele><time>2026-05-02T11:47:10Z</time></trkpt><trkpt lat="41.17258459818232" lon="14.489293132686113"><ele>87.0</ele><time>2026-05-02T11:47:11Z</time></trkpt><trkpt lat="41.17277126871051" lon="14.489120252658598"><ele>87.0</ele><time>2026-05-02T11:47:12Z</time></trkpt><trkpt lat="41.1729603365779" lon="14.488999822684836"><ele>87.0</ele><time>2026-05-02T11:47:13Z</time></trkpt><trkpt lat="41.17315138847523" lon="14.488879373080085"><ele>87.0</ele><time>2026-05-02T11:47:14Z</time></trkpt><trkpt lat="41.173320794911355" lon="14.488738597535018"><ele>85.66666666666667</ele><time>2026-05-02T11:47:15Z</time></trkpt><trkpt lat="41.17347659919903" lon="14.488574679684614"><ele>84.33333333333334</ele><time>2026-05-02T11:47:16Z</time></trkpt><trkpt lat="41.17361578761842" lon="14.488414832130147"><ele>83.0</ele><time>2026-05-02T11:47:17Z</time></trkpt><trkpt lat="41.17372367891735" lon="14.488208139017939"><ele>83.0</ele><time>2026-05-02T11:47:18Z</time></trkpt><trkpt lat="41.17380179112413" lon="14.48795736838257"><ele>83.0</ele><time>2026-05-02T11:47:19Z</time></trkpt><trkpt lat="41.17386759958778" lon="14.487670245103102"><ele>83.0</ele><time>2026-05-02T11:47:20Z</time></trkpt><trkpt lat="41.17394175553993" lon="14.487401386592165"><ele>81.5</ele><time>2026-05-02T11:47:21Z</time></trkpt><trkpt lat="41.174088184331794" lon="14.487174799002048"><ele>80.0</ele><time>2026-05-02T11:47:22Z</time></trkpt><trkpt lat="41.17423223473582" lon="14.486932075623463"><ele>78.66666666666667</ele><time>2026-05-02T11:47:23Z</time></trkpt><trkpt lat="41.174357946268444" lon="14.486705094076662"><ele>77.33333333333333</ele><time>2026-05-02T11:47:24Z</time></trkpt><trkpt lat="41.17446257074931" lon="14.486532129230607"><ele>76.0</ele><time>2026-05-02T11:47:25Z</time></trkpt><trkpt lat="41.174587910480724" lon="14.48641657048406"><ele>76.0</ele><time>2026-05-02T11:47:26Z</time></trkpt><trkpt lat="41.174750237741264" lon="14.48631745787471"><ele>76.0</ele><time>2026-05-02T11:47:27Z</time></trkpt><trkpt lat="41.17490608883304" lon="14.486237020167446"><ele>76.0</ele><time>2026-05-02T11:47:28Z</time></trkpt><trkpt lat="41.17504572030932" lon="14.486135545945292"><ele>75.66666666666666</ele><time>2026-05-02T11:47:29Z</time></trkpt><trkpt lat="41.17516507137255" lon="14.485992309774437"><ele>75.33333333333333</ele><time>2026-05-02T11:47:30Z</time></trkpt><trkpt lat="41.17523718838441" lon="14.485778741224442"><ele>75.0</ele><time>2026-05-02T11:47:31Z</time></trkpt><trkpt lat="41.175275044332096" lon="14.485522712283979"><ele>74.33333333333333</ele><time>2026-05-02T11:47:32Z</time></trkpt><trkpt lat="41.17526563588798" lon="14.485239490435664"><ele>73.66666666666666</ele><time>2026-05-02T11:47:33Z</time></trkpt><trkpt lat="41.17524816877482" lon="14.484973515347328"><ele>73.0</ele><time>2026-05-02T11:47:34Z</time></trkpt><trkpt lat="41.175273157489535" lon="14.484736578619614"><ele>72.33333333333333</ele><time>2026-05-02T11:47:35Z</time></trkpt><trkpt lat="41.17531389561047" lon="14.484524792444633"><ele>71.66666666666667</ele><time>2026-05-02T11:47:36Z</time></trkpt><trkpt lat="41.17536873807343" lon="14.484327700142968"><ele>71.0</ele><time>2026-05-02T11:47:37Z</time></trkpt><trkpt lat="41.17544391696427" lon="14.484132246882185"><ele>71.0</ele><time>2026-05-02T11:47:38Z</time></trkpt><trkpt lat="41.17553739115575" lon="14.483941622365037"><ele>71.0</ele><time>2026-05-02T11:47:39Z</time></trkpt><trkpt lat="41.17564899202643" lon="14.48375415391131"><ele>71.0</ele><time>2026-05-02T11:47:40Z</time></trkpt><trkpt lat="41.17577033149005" lon="14.483552283917689"><ele>69.0</ele><time>2026-05-02T11:47:41Z</time></trkpt><trkpt lat="41.17591404762838" lon="14.483307066756872"><ele>67.0</ele><time>2026-05-02T11:47:42Z</time></trkpt><trkpt lat="41.17605950426195" lon="14.48305219229843"><ele>65.0</ele><time>2026-05-02T11:47:43Z</time></trkpt><trkpt lat="41.176194085140935" lon="14.482773892205513"><ele>63.0</ele><time>2026-05-02T11:47:44Z</time></trkpt><trkpt lat="41.17634227040561" lon="14.482510716521157"><ele>63.0</ele><time>2026-05-02T11:47:45Z</time></trkpt><trkpt lat="41.176491422401476" lon="14.482225534685858"><ele>63.0</ele><time>2026-05-02T11:47:46Z</time></trkpt><trkpt lat="41.17663423891059" lon="14.481945578069798"><ele>62.66666666666667</ele><time>2026-05-02T11:47:47Z</time></trkpt><trkpt lat="41.176761335075405" lon="14.481687461122057"><ele>62.333333333333336</ele><time>2026-05-02T11:47:48Z</time></trkpt><trkpt lat="41.17686804603556" lon="14.481438070548391"><ele>62.0</ele><time>2026-05-02T11:47:49Z</time></trkpt><trkpt lat="41.17696598279561" lon="14.481201471326187"><ele>62.0</ele><time>2026-05-02T11:47:50Z</time></trkpt><trkpt lat="41.17705917198877" lon="14.480991533065872"><ele>62.0</ele><time>2026-05-02T11:47:51Z</time></trkpt><trkpt lat="41.17713762454029" lon="14.480785943307973"><ele>62.0</ele><time>2026-05-02T11:47:52Z</time></trkpt><trkpt lat="41.177164843118135" lon="14.480560224781781"><ele>61.333333333333336</ele><time>2026-05-02T11:47:53Z</time></trkpt><trkpt lat="41.17715292482705" lon="14.480297010538848"><ele>60.66666666666667</ele><time>2026-05-02T11:47:54Z</time></trkpt><trkpt lat="41.177165591805384" lon="14.480037458731909"><ele>60.0</ele><time>2026-05-02T11:47:55Z</time></trkpt><trkpt lat="41.17722864014321" lon="14.47975633649344"><ele>59.66666666666667</ele><time>2026-05-02T11:47:56Z</time></trkpt><trkpt lat="41.177293640156215" lon="14.479462116267563"><ele>59.333333333333336</ele><time>2026-05-02T11:47:57Z</time></trkpt><trkpt lat="41.17736182111456" lon="14.479219484778353"><ele>59.0</ele><time>2026-05-02T11:47:58Z</time></trkpt><trkpt lat="41.17742576359094" lon="14.478998650320653"><ele>59.0</ele><time>2026-05-02T11:47:59Z</time></trkpt><trkpt lat="41.17751170845322" lon="14.478791698989262"><ele>59.0</ele><time>2026-05-02T11:48:00Z</time></trkpt><trkpt lat="41.17761978077889" lon="14.478567730667082"><ele>59.0</ele><time>2026-05-02T11:48:01Z</time></trkpt><trkpt lat="41.17771686894802" lon="14.478389093415627"><ele>59.00000000000001</ele><time>2026-05-02T11:48:02Z</time></trkpt><trkpt lat="41.17779337420352" lon="14.478268142427105"><ele>59.0</ele><time>2026-05-02T11:48:03Z</time></trkpt><trkpt lat="41.17785492832419" lon="14.478165063004424"><ele>59.0</ele><time>2026-05-02T11:48:04Z</time></trkpt><trkpt lat="41.17790344606216" lon="14.478080959559241"><ele>59.0</ele><time>2026-05-02T11:48:04.999Z</time></trkpt><trkpt lat="41.17797475793925" lon="14.478079915722853"><ele>59.00000000000001</ele><time>2026-05-02T11:48:05.999Z</time></trkpt><trkpt lat="41.17804056633653" lon="14.478031954893405"><ele>59.0</ele><time>2026-05-02T11:48:09.999Z</time></trkpt><trkpt lat="41.178084616695" lon="14.477876887195952"><ele>58.800000000000004</ele><time>2026-05-02T11:48:11.999Z</time></trkpt><trkpt lat="41.178068300882266" lon="14.477750882308685"><ele>58.60000000000001</ele><time>2026-05-02T11:48:12.999Z</time></trkpt><trkpt lat="41.17807492891276" lon="14.477616351183464"><ele>58.4</ele><time>2026-05-02T11:48:13.999Z</time></trkpt><trkpt lat="41.17808605422834" lon="14.47747579853305"><ele>58.2</ele><time>2026-05-02T11:48:14.999Z</time></trkpt><trkpt lat="41.178097964591664" lon="14.477327199977639"><ele>58.0</ele><time>2026-05-02T11:48:15.999Z</time></trkpt><trkpt lat="41.17811131768397" lon="14.477200709247356"><ele>57.599999999999994</ele><time>2026-05-02T11:48:16.999Z</time></trkpt><trkpt lat="41.1781248806945" lon="14.477068617621901"><ele>57.199999999999996</ele><time>2026-05-02T11:48:17.999Z</time></trkpt><trkpt lat="41.17816195831006" lon="14.476948760066648"><ele>56.8</ele><time>2026-05-02T11:48:18.999Z</time></trkpt><trkpt lat="41.17820546444467" lon="14.47684584194994"><ele>56.4</ele><time>2026-05-02T11:48:19.999Z</time></trkpt><trkpt lat="41.17829205741596" lon="14.476753234034378"><ele>56.0</ele><time>2026-05-02T11:48:20.999Z</time></trkpt><trkpt lat="41.178386662760445" lon="14.476676945527505"><ele>55.5</ele><time>2026-05-02T11:48:21.999Z</time></trkpt><trkpt lat="41.17850465245074" lon="14.47661515111117"><ele>55.0</ele><time>2026-05-02T11:48:22.999Z</time></trkpt><trkpt lat="41.178663706016" lon="14.476584581052228"><ele>54.5</ele><time>2026-05-02T11:48:23.999Z</time></trkpt><trkpt lat="41.178810295201025" lon="14.476529826467573"><ele>54.0</ele><time>2026-05-02T11:48:24.999Z</time></trkpt><trkpt lat="41.17898992503927" lon="14.476459495788836"><ele>53.66666666666667</ele><time>2026-05-02T11:48:25.999Z</time></trkpt><trkpt lat="41.179173667617846" lon="14.476362253736523"><ele>53.333333333333336</ele><time>2026-05-02T11:48:26.999Z</time></trkpt><trkpt lat="41.17935596276555" lon="14.476245337677339"><ele>53.0</ele><time>2026-05-02T11:48:27.999Z</time></trkpt><trkpt lat="41.17952178045775" lon="14.476121976830282"><ele>52.333333333333336</ele><time>2026-05-02T11:48:28.999Z</time></trkpt><trkpt lat="41.1796761237236" lon="14.475967065694677"><ele>51.66666666666667</ele><time>2026-05-02T11:48:29.999Z</time></trkpt><trkpt lat="41.17980616639113" lon="14.475835780905522"><ele>51.0</ele><time>2026-05-02T11:48:30.999Z</time></trkpt><trkpt lat="41.17991916627309" lon="14.475725543761484"><ele>50.33333333333333</ele><time>2026-05-02T11:48:31.999Z</time></trkpt><trkpt lat="41.18002291096213" lon="14.475649737689997"><ele>49.666666666666664</ele><time>2026-05-02T11:48:32.999Z</time></trkpt><trkpt lat="41.1801688575077" lon="14.475625745382427"><ele>49.0</ele><time>2026-05-02T11:48:33.999Z</time></trkpt><trkpt lat="41.180361423264586" lon="14.475625571528553"><ele>49.0</ele><time>2026-05-02T11:48:34.999Z</time></trkpt><trkpt lat="41.18057576389557" lon="14.475618869017428"><ele>49.0</ele><time>2026-05-02T11:48:35.999Z</time></trkpt><trkpt lat="41.180783973293295" lon="14.475645081380856"><ele>49.0</ele><time>2026-05-02T11:48:36.999Z</time></trkpt><trkpt lat="41.18095378218358" lon="14.475649106020285"><ele>49.33333333333333</ele><time>2026-05-02T11:48:37.999Z</time></trkpt><trkpt lat="41.18113569113456" lon="14.475629795250104"><ele>49.66666666666667</ele><time>2026-05-02T11:48:38.999Z</time></trkpt><trkpt lat="41.18131670523615" lon="14.475553931560963"><ele>50.0</ele><time>2026-05-02T11:48:39.999Z</time></trkpt><trkpt lat="41.1815173803565" lon="14.475461018721772"><ele>50.66666666666667</ele><time>2026-05-02T11:48:40.999Z</time></trkpt><trkpt lat="41.18173411481202" lon="14.475369292665828"><ele>51.33333333333333</ele><time>2026-05-02T11:48:41.999Z</time></trkpt><trkpt lat="41.181929119320245" lon="14.475289941340067"><ele>52.0</ele><time>2026-05-02T11:48:42.999Z</time></trkpt><trkpt lat="41.182098562320355" lon="14.475220839589376"><ele>52.0</ele><time>2026-05-02T11:48:43.999Z</time></trkpt><trkpt lat="41.18226645542108" lon="14.475158672027252"><ele>52.0</ele><time>2026-05-02T11:48:44.999Z</time></trkpt><trkpt lat="41.18240294564627" lon="14.475153421006627"><ele>52.0</ele><time>2026-05-02T11:48:45.999Z</time></trkpt><trkpt lat="41.18253710083027" lon="14.475182737526247"><ele>52.0</ele><time>2026-05-02T11:48:46.999Z</time></trkpt><trkpt lat="41.1826420126664" lon="14.475262007339438"><ele>51.75</ele><time>2026-05-02T11:48:47.999Z</time></trkpt><trkpt lat="41.18276314456778" lon="14.475376624964172"><ele>51.5</ele><time>2026-05-02T11:48:48.999Z</time></trkpt><trkpt lat="41.182849684248275" lon="14.47553010068833"><ele>51.25</ele><time>2026-05-02T11:48:49.999Z</time></trkpt><trkpt lat="41.18290099395683" lon="14.475683325238885"><ele>51.0</ele><time>2026-05-02T11:48:50.999Z</time></trkpt><trkpt lat="41.182934941573755" lon="14.47580479706909"><ele>51.0</ele><time>2026-05-02T11:48:51.999Z</time></trkpt><trkpt lat="41.18298103677846" lon="14.475871194200561"><ele>51.0</ele><time>2026-05-02T11:48:52.999Z</time></trkpt><trkpt lat="41.18305513065796" lon="14.47587677728711"><ele>51.0</ele><time>2026-05-02T11:48:53.999Z</time></trkpt><trkpt lat="41.18317031897332" lon="14.475826120532872"><ele>51.0</ele><time>2026-05-02T11:48:54.999Z</time></trkpt><trkpt lat="41.18332456158937" lon="14.47572888962885"><ele>51.0</ele><time>2026-05-02T11:48:55.999Z</time></trkpt><trkpt lat="41.18351146685901" lon="14.475671341029647"><ele>46.0</ele><time>2026-05-02T11:48:56.999Z</time></trkpt><trkpt lat="41.18372594644259" lon="14.475582378051872"><ele>41.0</ele><time>2026-05-02T11:48:57.999Z</time></trkpt><trkpt lat="41.183938018109" lon="14.475483128471597"><ele>40.0</ele><time>2026-05-02T11:48:58.999Z</time></trkpt><trkpt lat="41.184181154663534" lon="14.475392821043604"><ele>39.0</ele><time>2026-05-02T11:48:59.999Z</time></trkpt><trkpt lat="41.184421185612294" lon="14.475294148134573"><ele>39.0</ele><time>2026-05-02T11:49:00.999Z</time></trkpt><trkpt lat="41.18462745956373" lon="14.475209464518139"><ele>39.0</ele><time>2026-05-02T11:49:01.999Z</time></trkpt><trkpt lat="41.18481311784534" lon="14.475136556964687"><ele>39.0</ele><time>2026-05-02T11:49:02.999Z</time></trkpt><trkpt lat="41.18499871564031" lon="14.475066126107002"><ele>39.666666666666664</ele><time>2026-05-02T11:49:03.999Z</time></trkpt><trkpt lat="41.18516946983075" lon="14.474980233962"><ele>40.33333333333333</ele><time>2026-05-02T11:49:04.999Z</time></trkpt><trkpt lat="41.18535979227556" lon="14.474907332323758"><ele>41.0</ele><time>2026-05-02T11:49:05.999Z</time></trkpt><trkpt lat="41.18553075983914" lon="14.474832234220596"><ele>41.666666666666664</ele><time>2026-05-02T11:49:06.999Z</time></trkpt><trkpt lat="41.18571107872674" lon="14.474779311541646"><ele>42.333333333333336</ele><time>2026-05-02T11:49:07.999Z</time></trkpt><trkpt lat="41.18587279659101" lon="14.474690206724555"><ele>43.0</ele><time>2026-05-02T11:49:08.999Z</time></trkpt><trkpt lat="41.18602908788253" lon="14.474628614708209"><ele>41.333333333333336</ele><time>2026-05-02T11:49:09.999Z</time></trkpt><trkpt lat="41.18619404291248" lon="14.47457931321409"><ele>39.666666666666664</ele><time>2026-05-02T11:49:11Z</time></trkpt><trkpt lat="41.18635390988642" lon="14.47449490213273"><ele>38.0</ele><time>2026-05-02T11:49:12Z</time></trkpt><trkpt lat="41.18650593375225" lon="14.474430091536862"><ele>38.75</ele><time>2026-05-02T11:49:13Z</time></trkpt><trkpt lat="41.18665123353634" lon="14.474391452856324"><ele>39.5</ele><time>2026-05-02T11:49:14Z</time></trkpt><trkpt lat="41.1868057078409" lon="14.47430608687597"><ele>40.25</ele><time>2026-05-02T11:49:15Z</time></trkpt><trkpt lat="41.186932531607724" lon="14.474256160441124"><ele>41.0</ele><time>2026-05-02T11:49:16Z</time></trkpt><trkpt lat="41.18706550500939" lon="14.47420231085352"><ele>41.0</ele><time>2026-05-02T11:49:17Z</time></trkpt><trkpt lat="41.18719100668367" lon="14.474168284359076"><ele>41.0</ele><time>2026-05-02T11:49:18Z</time></trkpt><trkpt lat="41.18731269325418" lon="14.474094762021974"><ele>41.0</ele><time>2026-05-02T11:49:19Z</time></trkpt><trkpt lat="41.18746717876654" lon="14.474040051196894"><ele>41.0</ele><time>2026-05-02T11:49:20Z</time></trkpt><trkpt lat="41.187612941845174" lon="14.473967656473619"><ele>41.0</ele><time>2026-05-02T11:49:21Z</time></trkpt><trkpt lat="41.18779913757071" lon="14.473917673050863"><ele>41.0</ele><time>2026-05-02T11:49:22Z</time></trkpt><trkpt lat="41.18796356777038" lon="14.473859683042"><ele>41.0</ele><time>2026-05-02T11:49:23Z</time></trkpt><trkpt lat="41.188117485396546" lon="14.473796400961199"><ele>40.33333333333333</ele><time>2026-05-02T11:49:24Z</time></trkpt><trkpt lat="41.18831040830748" lon="14.473712121004235"><ele>39.666666666666664</ele><time>2026-05-02T11:49:25Z</time></trkpt><trkpt lat="41.18850046621823" lon="14.473638181176028"><ele>39.0</ele><time>2026-05-02T11:49:26Z</time></trkpt><trkpt lat="41.18866040850448" lon="14.473576009147553"><ele>39.0</ele><time>2026-05-02T11:49:27Z</time></trkpt><trkpt lat="41.18882108622148" lon="14.473515709126533"><ele>39.0</ele><time>2026-05-02T11:49:28Z</time></trkpt><trkpt lat="41.18898516296482" lon="14.473440832229095"><ele>39.0</ele><time>2026-05-02T11:49:29Z</time></trkpt><trkpt lat="41.1891788499761" lon="14.473347192200247"><ele>39.0</ele><time>2026-05-02T11:49:30Z</time></trkpt><trkpt lat="41.189373763163104" lon="14.473260444899433"><ele>39.0</ele><time>2026-05-02T11:49:31Z</time></trkpt><trkpt lat="41.18958294390164" lon="14.473188574888177"><ele>39.0</ele><time>2026-05-02T11:49:32Z</time></trkpt><trkpt lat="41.18980283354599" lon="14.47309557367712"><ele>40.0</ele><time>2026-05-02T11:49:33Z</time></trkpt><trkpt lat="41.19001996441929" lon="14.47300928934834"><ele>41.0</ele><time>2026-05-02T11:49:34Z</time></trkpt><trkpt lat="41.190238932890075" lon="14.472904249354194"><ele>41.0</ele><time>2026-05-02T11:49:35Z</time></trkpt><trkpt lat="41.190456025691276" lon="14.472749515491667"><ele>41.0</ele><time>2026-05-02T11:49:36Z</time></trkpt><trkpt lat="41.19065427600659" lon="14.47252811271692"><ele>42.0</ele><time>2026-05-02T11:49:37Z</time></trkpt><trkpt lat="41.19084025691016" lon="14.472281798041612"><ele>43.0</ele><time>2026-05-02T11:49:38Z</time></trkpt><trkpt lat="41.191024083632854" lon="14.47200140874502"><ele>43.0</ele><time>2026-05-02T11:49:39Z</time></trkpt><trkpt lat="41.19123067583568" lon="14.471742082373092"><ele>43.0</ele><time>2026-05-02T11:49:40Z</time></trkpt><trkpt lat="41.19145769920201" lon="14.471468807727392"><ele>45.0</ele><time>2026-05-02T11:49:41Z</time></trkpt><trkpt lat="41.19167187325102" lon="14.47122182730846"><ele>47.0</ele><time>2026-05-02T11:49:42Z</time></trkpt><trkpt lat="41.19183029135106" lon="14.471025267785931"><ele>47.0</ele><time>2026-05-02T11:49:43Z</time></trkpt><trkpt lat="41.19200225019713" lon="14.470847028756378"><ele>47.0</ele><time>2026-05-02T11:49:44Z</time></trkpt><trkpt lat="41.19214770876027" lon="14.4706407350916"><ele>47.0</ele><time>2026-05-02T11:49:45Z</time></trkpt><trkpt lat="41.19229547874705" lon="14.470485972733547"><ele>47.33333333333333</ele><time>2026-05-02T11:49:46Z</time></trkpt><trkpt lat="41.192447711170786" lon="14.470327436448787"><ele>47.666666666666664</ele><time>2026-05-02T11:49:47Z</time></trkpt><trkpt lat="41.192595772950924" lon="14.47020488925406"><ele>48.0</ele><time>2026-05-02T11:49:48Z</time></trkpt><trkpt lat="41.19274871780914" lon="14.470073135477055"><ele>48.0</ele><time>2026-05-02T11:49:49Z</time></trkpt><trkpt lat="41.19290101218385" lon="14.469940741073593"><ele>48.0</ele><time>2026-05-02T11:49:50Z</time></trkpt><trkpt lat="41.193061697387506" lon="14.469802393794478"><ele>48.0</ele><time>2026-05-02T11:49:51Z</time></trkpt><trkpt lat="41.19321898078459" lon="14.469655850261084"><ele>48.0</ele><time>2026-05-02T11:49:52Z</time></trkpt><trkpt lat="41.19339313962457" lon="14.469512427691141"><ele>48.0</ele><time>2026-05-02T11:49:53Z</time></trkpt><trkpt lat="41.19358107893131" lon="14.469354818663808"><ele>48.0</ele><time>2026-05-02T11:49:54Z</time></trkpt><trkpt lat="41.193785726494426" lon="14.469191181520271"><ele>48.0</ele><time>2026-05-02T11:49:55Z</time></trkpt><trkpt lat="41.1940006135941" lon="14.469025293403835"><ele>48.0</ele><time>2026-05-02T11:49:56Z</time></trkpt><trkpt lat="41.19422042461698" lon="14.468875858884818"><ele>47.5</ele><time>2026-05-02T11:49:57Z</time></trkpt><trkpt lat="41.19444691352115" lon="14.468742061958379"><ele>47.0</ele><time>2026-05-02T11:49:58Z</time></trkpt><trkpt lat="41.1946564852436" lon="14.468617204828373"><ele>46.666666666666664</ele><time>2026-05-02T11:49:59Z</time></trkpt><trkpt lat="41.19485445487569" lon="14.468503553665755"><ele>46.333333333333336</ele><time>2026-05-02T11:50:00Z</time></trkpt><trkpt lat="41.19505781308328" lon="14.468375258171967"><ele>46.0</ele><time>2026-05-02T11:50:01Z</time></trkpt><trkpt lat="41.19524395004657" lon="14.468229135697587"><ele>46.0</ele><time>2026-05-02T11:50:02Z</time></trkpt><trkpt lat="41.19543147170513" lon="14.468064426393969"><ele>46.0</ele><time>2026-05-02T11:50:03Z</time></trkpt><trkpt lat="41.19560138280052" lon="14.467908068452388"><ele>46.0</ele><time>2026-05-02T11:50:04Z</time></trkpt><trkpt lat="41.19575718647118" lon="14.46777442759365"><ele>46.25</ele><time>2026-05-02T11:50:05Z</time></trkpt><trkpt lat="41.195895719866726" lon="14.46766633602257"><ele>46.5</ele><time>2026-05-02T11:50:06Z</time></trkpt><trkpt lat="41.196011340310974" lon="14.467550967271327"><ele>46.75</ele><time>2026-05-02T11:50:07Z</time></trkpt><trkpt lat="41.19610392048228" lon="14.467463786103755"><ele>47.0</ele><time>2026-05-02T11:50:08Z</time></trkpt><trkpt lat="41.19619167221739" lon="14.467386596872727"><ele>47.0</ele><time>2026-05-02T11:50:09Z</time></trkpt><trkpt lat="41.19628085018007" lon="14.46730111038357"><ele>47.0</ele><time>2026-05-02T11:50:10Z</time></trkpt><trkpt lat="41.19638573822656" lon="14.467209843581719"><ele>47.0</ele><time>2026-05-02T11:50:11Z</time></trkpt><trkpt lat="41.19648953303029" lon="14.467116646128025"><ele>47.0</ele><time>2026-05-02T11:50:12Z</time></trkpt><trkpt lat="41.196597065574025" lon="14.46701839584557"><ele>47.25</ele><time>2026-05-02T11:50:13Z</time></trkpt><trkpt lat="41.19670668913158" lon="14.46691340332668"><ele>47.5</ele><time>2026-05-02T11:50:14Z</time></trkpt><trkpt lat="41.196826072963894" lon="14.466802955750445"><ele>47.75</ele><time>2026-05-02T11:50:14.999Z</time></trkpt><trkpt lat="41.19695103144747" lon="14.46669478145456"><ele>48.0</ele><time>2026-05-02T11:50:15.999Z</time></trkpt><trkpt lat="41.19707485696956" lon="14.46658693767532"><ele>48.0</ele><time>2026-05-02T11:50:16.999Z</time></trkpt><trkpt lat="41.19719893438104" lon="14.466473453608172"><ele>48.0</ele><time>2026-05-02T11:50:17.999Z</time></trkpt><trkpt lat="41.19732193960797" lon="14.46634750317151"><ele>48.0</ele><time>2026-05-02T11:50:18.999Z</time></trkpt><trkpt lat="41.19744154185885" lon="14.46625334706148"><ele>48.0</ele><time>2026-05-02T11:50:19.999Z</time></trkpt><trkpt lat="41.1975498248845" lon="14.466139821754856"><ele>48.25</ele><time>2026-05-02T11:50:20.999Z</time></trkpt><trkpt lat="41.19766826663989" lon="14.466035025097979"><ele>48.5</ele><time>2026-05-02T11:50:21.999Z</time></trkpt><trkpt lat="41.197797160219906" lon="14.465939509281839"><ele>48.75</ele><time>2026-05-02T11:50:22.999Z</time></trkpt><trkpt lat="41.19789000187719" lon="14.46585455292854"><ele>49.0</ele><time>2026-05-02T11:50:23.999Z</time></trkpt><trkpt lat="41.197975536965274" lon="14.465781900255315"><ele>49.0</ele><time>2026-05-02T11:50:24.999Z</time></trkpt><trkpt lat="41.19805025606709" lon="14.465716677963908"><ele>49.0</ele><time>2026-05-02T11:50:25.999Z</time></trkpt><trkpt lat="41.19811072330911" lon="14.465658540960655"><ele>49.0</ele><time>2026-05-02T11:50:26.999Z</time></trkpt><trkpt lat="41.19815653979" lon="14.465601015637306"><ele>49.0</ele><time>2026-05-02T11:50:27.999Z</time></trkpt><trkpt lat="41.19813657695874" lon="14.465435092856964"><ele>49.0</ele><time>2026-05-02T11:50:29.999Z</time></trkpt><trkpt lat="41.198061842223495" lon="14.465326452126964"><ele>48.75</ele><time>2026-05-02T11:50:30.999Z</time></trkpt><trkpt lat="41.19799052137971" lon="14.465199890296148"><ele>48.5</ele><time>2026-05-02T11:50:31.999Z</time></trkpt><trkpt lat="41.19793427006202" lon="14.46504460515474"><ele>48.25</ele><time>2026-05-02T11:50:32.999Z</time></trkpt><trkpt lat="41.19788689366765" lon="14.464872841721366"><ele>48.0</ele><time>2026-05-02T11:50:33.999Z</time></trkpt><trkpt lat="41.197843071193766" lon="14.464698094609474"><ele>47.5</ele><time>2026-05-02T11:50:34.999Z</time></trkpt><trkpt lat="41.197785476798316" lon="14.464520556368596"><ele>47.0</ele><time>2026-05-02T11:50:35.999Z</time></trkpt><trkpt lat="41.19773679272088" lon="14.464364145757205"><ele>46.5</ele><time>2026-05-02T11:50:36.999Z</time></trkpt><trkpt lat="41.19769651365886" lon="14.464216413216107"><ele>46.0</ele><time>2026-05-02T11:50:37.999Z</time></trkpt><trkpt lat="41.19765638527287" lon="14.464073086528424"><ele>46.0</ele><time>2026-05-02T11:50:38.999Z</time></trkpt><trkpt lat="41.19761988172624" lon="14.463930698479635"><ele>46.0</ele><time>2026-05-02T11:50:39.999Z</time></trkpt><trkpt lat="41.19760347653742" lon="14.463756749515342"><ele>46.0</ele><time>2026-05-02T11:50:40.999Z</time></trkpt><trkpt lat="41.19759811131946" lon="14.463588885346693"><ele>46.0</ele><time>2026-05-02T11:50:41.999Z</time></trkpt><trkpt lat="41.19762614997928" lon="14.46341621951094"><ele>45.5</ele><time>2026-05-02T11:50:42.999Z</time></trkpt><trkpt lat="41.19767153891679" lon="14.463266727910394"><ele>45.0</ele><time>2026-05-02T11:50:43.999Z</time></trkpt><trkpt lat="41.19773908931087" lon="14.463135710425883"><ele>44.5</ele><time>2026-05-02T11:50:44.999Z</time></trkpt><trkpt lat="41.19783121721775" lon="14.463017630321302"><ele>44.0</ele><time>2026-05-02T11:50:45.999Z</time></trkpt><trkpt lat="41.197942668663245" lon="14.462929216031425"><ele>44.25</ele><time>2026-05-02T11:50:46.999Z</time></trkpt><trkpt lat="41.1980644080684" lon="14.462854522251131"><ele>44.5</ele><time>2026-05-02T11:50:47.999Z</time></trkpt><trkpt lat="41.198204300670085" lon="14.462801154262472"><ele>44.75</ele><time>2026-05-02T11:50:48.999Z</time></trkpt><trkpt lat="41.198345330152506" lon="14.46274769384064"><ele>45.0</ele><time>2026-05-02T11:50:49.999Z</time></trkpt><trkpt lat="41.19848903638814" lon="14.46268997928348"><ele>45.0</ele><time>2026-05-02T11:50:50.999Z</time></trkpt><trkpt lat="41.19864015254966" lon="14.462620130335916"><ele>45.0</ele><time>2026-05-02T11:50:51.999Z</time></trkpt><trkpt lat="41.1988135628661" lon="14.462545452006164"><ele>45.0</ele><time>2026-05-02T11:50:52.999Z</time></trkpt><trkpt lat="41.19898789628257" lon="14.462476929116017"><ele>46.33333333333333</ele><time>2026-05-02T11:50:53.999Z</time></trkpt><trkpt lat="41.199155689930315" lon="14.462412797430915"><ele>47.666666666666664</ele><time>2026-05-02T11:50:54.999Z</time></trkpt><trkpt lat="41.19933621389818" lon="14.46234764492758"><ele>49.0</ele><time>2026-05-02T11:50:55.999Z</time></trkpt><trkpt lat="41.19950744961514" lon="14.462272525586043"><ele>49.0</ele><time>2026-05-02T11:50:56.999Z</time></trkpt><trkpt lat="41.19966777639381" lon="14.462199532547274"><ele>49.0</ele><time>2026-05-02T11:50:57.999Z</time></trkpt><trkpt lat="41.19983000443782" lon="14.462125464135683"><ele>49.0</ele><time>2026-05-02T11:50:58.999Z</time></trkpt><trkpt lat="41.19999209469968" lon="14.462059426422913"><ele>50.33333333333333</ele><time>2026-05-02T11:50:59.999Z</time></trkpt><trkpt lat="41.20015681187416" lon="14.461982114038317"><ele>51.66666666666667</ele><time>2026-05-02T11:51:00.999Z</time></trkpt><trkpt lat="41.20032243324542" lon="14.46191601955552"><ele>53.0</ele><time>2026-05-02T11:51:01.999Z</time></trkpt><trkpt lat="41.20049352763353" lon="14.461854165223098"><ele>53.0</ele><time>2026-05-02T11:51:02.999Z</time></trkpt><trkpt lat="41.2006534422637" lon="14.461793585606312"><ele>53.0</ele><time>2026-05-02T11:51:03.999Z</time></trkpt><trkpt lat="41.2008079180502" lon="14.46172697646257"><ele>53.0</ele><time>2026-05-02T11:51:04.999Z</time></trkpt><trkpt lat="41.200963807560726" lon="14.461655447858048"><ele>53.75</ele><time>2026-05-02T11:51:05.999Z</time></trkpt><trkpt lat="41.20109741046624" lon="14.461585609684224"><ele>54.5</ele><time>2026-05-02T11:51:06.999Z</time></trkpt><trkpt lat="41.201228846743206" lon="14.461523110234621"><ele>55.25</ele><time>2026-05-02T11:51:07.999Z</time></trkpt><trkpt lat="41.20135692752666" lon="14.46147215325781"><ele>56.0</ele><time>2026-05-02T11:51:08.999Z</time></trkpt><trkpt lat="41.20148606127839" lon="14.46141732806644"><ele>56.599999999999994</ele><time>2026-05-02T11:51:09.999Z</time></trkpt><trkpt lat="41.20160131295025" lon="14.461376065646588"><ele>57.199999999999996</ele><time>2026-05-02T11:51:10.999Z</time></trkpt><trkpt lat="41.20170375886112" lon="14.461341664832723"><ele>57.800000000000004</ele><time>2026-05-02T11:51:11.999Z</time></trkpt><trkpt lat="41.20179677619921" lon="14.461316124238609"><ele>58.400000000000006</ele><time>2026-05-02T11:51:12.999Z</time></trkpt><trkpt lat="41.20188718580854" lon="14.461274698483154"><ele>59.0</ele><time>2026-05-02T11:51:13.999Z</time></trkpt><trkpt lat="41.2019739333643" lon="14.461230710624088"><ele>59.0</ele><time>2026-05-02T11:51:14.999Z</time></trkpt><trkpt lat="41.20205006935007" lon="14.461195948601814"><ele>59.00000000000001</ele><time>2026-05-02T11:51:15.999Z</time></trkpt><trkpt lat="41.20211335480145" lon="14.461161362223482"><ele>59.00000000000001</ele><time>2026-05-02T11:51:17Z</time></trkpt><trkpt lat="41.20220464365067" lon="14.461119907536252"><ele>59.0</ele><time>2026-05-02T11:51:19Z</time></trkpt><trkpt lat="41.20228218364457" lon="14.461059550882286"><ele>59.0</ele><time>2026-05-02T11:51:24Z</time></trkpt><trkpt lat="41.20223614226629" lon="14.46085073026789"><ele>59.0</ele><time>2026-05-02T11:51:25Z</time></trkpt><trkpt lat="41.20221865280619" lon="14.460721661711846"><ele>59.00000000000001</ele><time>2026-05-02T11:51:26Z</time></trkpt><trkpt lat="41.20218562281097" lon="14.460591086144646"><ele>59.00000000000001</ele><time>2026-05-02T11:51:27Z</time></trkpt><trkpt lat="41.202131996984" lon="14.460463882098088"><ele>59.0</ele><time>2026-05-02T11:51:28Z</time></trkpt><trkpt lat="41.20209830500135" lon="14.460311590178373"><ele>59.0</ele><time>2026-05-02T11:51:29Z</time></trkpt><trkpt lat="41.202040411140416" lon="14.460112876588685"><ele>57.0</ele><time>2026-05-02T11:51:30Z</time></trkpt><trkpt lat="41.202001791282136" lon="14.459919091899161"><ele>55.0</ele><time>2026-05-02T11:51:31Z</time></trkpt><trkpt lat="41.20189324167361" lon="14.459479696350964"><ele>54.0</ele><time>2026-05-02T11:51:33Z</time></trkpt><trkpt lat="41.201858233840404" lon="14.459268396544648"><ele>53.0</ele><time>2026-05-02T11:51:34Z</time></trkpt><trkpt lat="41.20182210289682" lon="14.459058467678426"><ele>52.0</ele><time>2026-05-02T11:51:35Z</time></trkpt><trkpt lat="41.20178891855218" lon="14.458843492404966"><ele>50.0</ele><time>2026-05-02T11:51:36Z</time></trkpt><trkpt lat="41.20176230300909" lon="14.45863158022002"><ele>48.0</ele><time>2026-05-02T11:51:37Z</time></trkpt><trkpt lat="41.201749415923956" lon="14.458418051368577"><ele>46.0</ele><time>2026-05-02T11:51:38Z</time></trkpt><trkpt lat="41.20176995000949" lon="14.458213542655361"><ele>46.0</ele><time>2026-05-02T11:51:39Z</time></trkpt><trkpt lat="41.201784499694256" lon="14.458035330028265"><ele>46.0</ele><time>2026-05-02T11:51:40Z</time></trkpt><trkpt lat="41.20179038781847" lon="14.457867372707192"><ele>46.0</ele><time>2026-05-02T11:51:41Z</time></trkpt><trkpt lat="41.20184779377545" lon="14.457746987953318"><ele>46.0</ele><time>2026-05-02T11:51:42Z</time></trkpt><trkpt lat="41.20193044716756" lon="14.45764723406521"><ele>45.75</ele><time>2026-05-02T11:51:43Z</time></trkpt><trkpt lat="41.20203770095823" lon="14.457557150757331"><ele>45.5</ele><time>2026-05-02T11:51:44Z</time></trkpt><trkpt lat="41.202169617720955" lon="14.457517126995883"><ele>45.25</ele><time>2026-05-02T11:51:45Z</time></trkpt><trkpt lat="41.20231853980384" lon="14.457504168596834"><ele>45.0</ele><time>2026-05-02T11:51:46Z</time></trkpt><trkpt lat="41.20249106732935" lon="14.45751192874897"><ele>45.0</ele><time>2026-05-02T11:51:47Z</time></trkpt><trkpt lat="41.202662887432744" lon="14.457498203691928"><ele>45.0</ele><time>2026-05-02T11:51:48Z</time></trkpt><trkpt lat="41.20284130135065" lon="14.457502376642834"><ele>45.0</ele><time>2026-05-02T11:51:49Z</time></trkpt><trkpt lat="41.203017123419656" lon="14.457466933869988"><ele>45.333333333333336</ele><time>2026-05-02T11:51:50Z</time></trkpt><trkpt lat="41.20317714157179" lon="14.457407640158529"><ele>45.66666666666667</ele><time>2026-05-02T11:51:51Z</time></trkpt><trkpt lat="41.20333051283128" lon="14.457320825951479"><ele>46.0</ele><time>2026-05-02T11:51:52Z</time></trkpt><trkpt lat="41.203478566134756" lon="14.457219393945284"><ele>45.0</ele><time>2026-05-02T11:51:53Z</time></trkpt><trkpt lat="41.20363357998157" lon="14.457117333679571"><ele>44.0</ele><time>2026-05-02T11:51:54Z</time></trkpt><trkpt lat="41.20380914677745" lon="14.457018585422148"><ele>43.0</ele><time>2026-05-02T11:51:55Z</time></trkpt><trkpt lat="41.20398931949236" lon="14.456900008102654"><ele>44.0</ele><time>2026-05-02T11:51:56Z</time></trkpt><trkpt lat="41.20416396734236" lon="14.456784389419797"><ele>45.0</ele><time>2026-05-02T11:51:57Z</time></trkpt><trkpt lat="41.20431055135436" lon="14.4566865417527"><ele>46.0</ele><time>2026-05-02T11:51:58Z</time></trkpt><trkpt lat="41.20445136507807" lon="14.456607595336127"><ele>46.0</ele><time>2026-05-02T11:51:59Z</time></trkpt><trkpt lat="41.20458493777546" lon="14.456551604688746"><ele>46.0</ele><time>2026-05-02T11:52:00Z</time></trkpt><trkpt lat="41.20469899994256" lon="14.456484646400677"><ele>46.0</ele><time>2026-05-02T11:52:01Z</time></trkpt><trkpt lat="41.20481081402839" lon="14.456450275519613"><ele>46.0</ele><time>2026-05-02T11:52:02Z</time></trkpt><trkpt lat="41.20486381187765" lon="14.456329391720587"><ele>46.8</ele><time>2026-05-02T11:52:03Z</time></trkpt><trkpt lat="41.20488126984989" lon="14.45619332154512"><ele>47.599999999999994</ele><time>2026-05-02T11:52:04Z</time></trkpt><trkpt lat="41.20487404834716" lon="14.456021714903391"><ele>48.4</ele><time>2026-05-02T11:52:05Z</time></trkpt><trkpt lat="41.20490701725577" lon="14.45589108956521"><ele>49.2</ele><time>2026-05-02T11:52:06Z</time></trkpt><trkpt lat="41.20494972503919" lon="14.455766363805859"><ele>50.0</ele><time>2026-05-02T11:52:07Z</time></trkpt><trkpt lat="41.205016408115114" lon="14.45561545009902"><ele>50.0</ele><time>2026-05-02T11:52:08Z</time></trkpt><trkpt lat="41.20508436063214" lon="14.455459029510966"><ele>50.0</ele><time>2026-05-02T11:52:08.999Z</time></trkpt><trkpt lat="41.205150811293514" lon="14.455294398385691"><ele>50.0</ele><time>2026-05-02T11:52:09.999Z</time></trkpt><trkpt lat="41.20520877346801" lon="14.455151768597439"><ele>50.0</ele><time>2026-05-02T11:52:10.999Z</time></trkpt><trkpt lat="41.205268931748044" lon="14.45503361133557"><ele>49.8</ele><time>2026-05-02T11:52:11.999Z</time></trkpt><trkpt lat="41.20533684640901" lon="14.454938188636014"><ele>49.6</ele><time>2026-05-02T11:52:12.999Z</time></trkpt><trkpt lat="41.20541716858602" lon="14.454849545478353"><ele>49.400000000000006</ele><time>2026-05-02T11:52:13.999Z</time></trkpt><trkpt lat="41.20551937499764" lon="14.454797216194574"><ele>49.2</ele><time>2026-05-02T11:52:14.999Z</time></trkpt><trkpt lat="41.20562476938996" lon="14.454784949831392"><ele>49.0</ele><time>2026-05-02T11:52:15.999Z</time></trkpt><trkpt lat="41.2057584945986" lon="14.454750297622788"><ele>49.75</ele><time>2026-05-02T11:52:16.999Z</time></trkpt><trkpt lat="41.205896043988474" lon="14.454714654460407"><ele>50.5</ele><time>2026-05-02T11:52:17.999Z</time></trkpt><trkpt lat="41.20602086566734" lon="14.45469391511793"><ele>51.25</ele><time>2026-05-02T11:52:18.999Z</time></trkpt><trkpt lat="41.20612903680446" lon="14.454698167389031"><ele>52.0</ele><time>2026-05-02T11:52:19.999Z</time></trkpt><trkpt lat="41.2062244652751" lon="14.454694541707855"><ele>52.0</ele><time>2026-05-02T11:52:20.999Z</time></trkpt><trkpt lat="41.20630822038821" lon="14.454796194309994"><ele>52.0</ele><time>2026-05-02T11:52:21.999Z</time></trkpt><trkpt lat="41.206422835749414" lon="14.454871633196026"><ele>52.0</ele><time>2026-05-02T11:52:22.999Z</time></trkpt><trkpt lat="41.20653779316568" lon="14.454911720442523"><ele>52.0</ele><time>2026-05-02T11:52:23.999Z</time></trkpt><trkpt lat="41.206654984498556" lon="14.454910481742802"><ele>50.75</ele><time>2026-05-02T11:52:24.999Z</time></trkpt><trkpt lat="41.20677586021258" lon="14.454902055626507"><ele>49.5</ele><time>2026-05-02T11:52:25.999Z</time></trkpt><trkpt lat="41.206901734170735" lon="14.454878139258295"><ele>48.25</ele><time>2026-05-02T11:52:26.999Z</time></trkpt><trkpt lat="41.20703757840544" lon="14.454835685626744"><ele>47.0</ele><time>2026-05-02T11:52:27.999Z</time></trkpt><trkpt lat="41.20717124802909" lon="14.454756655026594"><ele>47.0</ele><time>2026-05-02T11:52:28.999Z</time></trkpt><trkpt lat="41.20730088403307" lon="14.454674553212826"><ele>47.0</ele><time>2026-05-02T11:52:29.999Z</time></trkpt><trkpt lat="41.20742366497329" lon="14.45456674448666"><ele>47.0</ele><time>2026-05-02T11:52:30.999Z</time></trkpt><trkpt lat="41.207527279521415" lon="14.454465162882258"><ele>47.0</ele><time>2026-05-02T11:52:31.999Z</time></trkpt><trkpt lat="41.20761556090244" lon="14.454354673002083"><ele>46.2</ele><time>2026-05-02T11:52:32.999Z</time></trkpt><trkpt lat="41.20768544282142" lon="14.454251236612889"><ele>45.400000000000006</ele><time>2026-05-02T11:52:33.999Z</time></trkpt><trkpt lat="41.20773926700175" lon="14.454161536616445"><ele>44.599999999999994</ele><time>2026-05-02T11:52:34.999Z</time></trkpt><trkpt lat="41.20779636299352" lon="14.45405298971427"><ele>43.8</ele><time>2026-05-02T11:52:35.999Z</time></trkpt><trkpt lat="41.20782664550745" lon="14.453966087378262"><ele>43.0</ele><time>2026-05-02T11:52:36.999Z</time></trkpt><trkpt lat="41.20793348491022" lon="14.453962073184904"><ele>43.0</ele><time>2026-05-02T11:52:38.999Z</time></trkpt><trkpt lat="41.207999615046894" lon="14.45393333032516"><ele>43.0</ele><time>2026-05-02T11:52:39.999Z</time></trkpt><trkpt lat="41.208083093592734" lon="14.4539053153236"><ele>43.0</ele><time>2026-05-02T11:52:40.999Z</time></trkpt><trkpt lat="41.208187541418795" lon="14.4539041568494"><ele>43.0</ele><time>2026-05-02T11:52:41.999Z</time></trkpt><trkpt lat="41.20830063249875" lon="14.453945533717688"><ele>43.0</ele><time>2026-05-02T11:52:42.999Z</time></trkpt><trkpt lat="41.208408986303816" lon="14.453971489261852"><ele>44.0</ele><time>2026-05-02T11:52:43.999Z</time></trkpt><trkpt lat="41.208511305511124" lon="14.453969117294239"><ele>45.0</ele><time>2026-05-02T11:52:44.999Z</time></trkpt><trkpt lat="41.20860685377217" lon="14.453897897918779"><ele>46.0</ele><time>2026-05-02T11:52:45.999Z</time></trkpt><trkpt lat="41.2087380427819" lon="14.453846065480409"><ele>47.0</ele><time>2026-05-02T11:52:46.999Z</time></trkpt><trkpt lat="41.20886217619574" lon="14.453787793674172"><ele>47.0</ele><time>2026-05-02T11:52:47.999Z</time></trkpt><trkpt lat="41.20895769816238" lon="14.45374206134661"><ele>47.0</ele><time>2026-05-02T11:52:48.999Z</time></trkpt><trkpt lat="41.20903157036062" lon="14.453717263461614"><ele>47.0</ele><time>2026-05-02T11:52:49.999Z</time></trkpt><trkpt lat="41.209055932360954" lon="14.453888564050665"><ele>47.0</ele><time>2026-05-02T11:52:52.999Z</time></trkpt><trkpt lat="41.20906512290249" lon="14.454045052055855"><ele>47.0</ele><time>2026-05-02T11:52:53.999Z</time></trkpt><trkpt lat="41.20909427836763" lon="14.454258192771446"><ele>50.0</ele><time>2026-05-02T11:52:54.999Z</time></trkpt><trkpt lat="41.2091046605983" lon="14.454487660551813"><ele>53.0</ele><time>2026-05-02T11:52:55.999Z</time></trkpt><trkpt lat="41.20913206761121" lon="14.4547364951466"><ele>56.0</ele><time>2026-05-02T11:52:56.999Z</time></trkpt><trkpt lat="41.20915323067015" lon="14.454987900988453"><ele>57.0</ele><time>2026-05-02T11:52:57.999Z</time></trkpt><trkpt lat="41.20917386621009" lon="14.455253878822393"><ele>58.0</ele><time>2026-05-02T11:52:58.999Z</time></trkpt><trkpt lat="41.209197194078804" lon="14.455481412830355"><ele>59.0</ele><time>2026-05-02T11:52:59.999Z</time></trkpt><trkpt lat="41.209221980266676" lon="14.455674261485354"><ele>59.25</ele><time>2026-05-02T11:53:00.999Z</time></trkpt><trkpt lat="41.20924074812127" lon="14.455845496594085"><ele>59.5</ele><time>2026-05-02T11:53:01.999Z</time></trkpt><trkpt lat="41.20926297516272" lon="14.4559946433554"><ele>59.75</ele><time>2026-05-02T11:53:02.999Z</time></trkpt><trkpt lat="41.209279776997974" lon="14.456141313971221"><ele>60.0</ele><time>2026-05-02T11:53:03.999Z</time></trkpt><trkpt lat="41.209286430715984" lon="14.45626690115867"><ele>59.8</ele><time>2026-05-02T11:53:04.999Z</time></trkpt><trkpt lat="41.2092583066157" lon="14.456365130499737"><ele>59.6</ele><time>2026-05-02T11:53:05.999Z</time></trkpt><trkpt lat="41.20918324135128" lon="14.456423705149492"><ele>59.400000000000006</ele><time>2026-05-02T11:53:06.999Z</time></trkpt><trkpt lat="41.209086497960335" lon="14.456463524218146"><ele>59.2</ele><time>2026-05-02T11:53:07.999Z</time></trkpt><trkpt lat="41.20898549247328" lon="14.456489116303313"><ele>59.0</ele><time>2026-05-02T11:53:08.999Z</time></trkpt><trkpt lat="41.20887467129136" lon="14.456518582808483"><ele>58.50000000000001</ele><time>2026-05-02T11:53:09.999Z</time></trkpt><trkpt lat="41.20877820783042" lon="14.456548343945217"><ele>58.0</ele><time>2026-05-02T11:53:10.999Z</time></trkpt><trkpt lat="41.20871005543984" lon="14.456605183932824"><ele>57.5</ele><time>2026-05-02T11:53:11.999Z</time></trkpt><trkpt lat="41.20867900751286" lon="14.456679061559244"><ele>57.0</ele><time>2026-05-02T11:53:12.999Z</time></trkpt><trkpt lat="41.208677347303265" lon="14.45679024571759"><ele>56.50000000000001</ele><time>2026-05-02T11:53:13.999Z</time></trkpt><trkpt lat="41.2087075247642" lon="14.456932837581379"><ele>56.0</ele><time>2026-05-02T11:53:14.999Z</time></trkpt><trkpt lat="41.20874393149931" lon="14.457125879144725"><ele>56.0</ele><time>2026-05-02T11:53:15.999Z</time></trkpt><trkpt lat="41.20877627458825" lon="14.457304875149838"><ele>55.99999999999999</ele><time>2026-05-02T11:53:16.999Z</time></trkpt><trkpt lat="41.20880194735498" lon="14.457450205291071"><ele>55.99999999999999</ele><time>2026-05-02T11:53:17.999Z</time></trkpt><trkpt lat="41.208821992191965" lon="14.45757581151288"><ele>56.0</ele><time>2026-05-02T11:53:18.999Z</time></trkpt><trkpt lat="41.20883566206562" lon="14.457682649422116"><ele>56.0</ele><time>2026-05-02T11:53:19.999Z</time></trkpt><trkpt lat="41.208843451170466" lon="14.457768981253171"><ele>57.0</ele><time>2026-05-02T11:53:20.999Z</time></trkpt><trkpt lat="41.20901206738904" lon="14.457816082814732"><ele>58.0</ele><time>2026-05-02T11:53:26Z</time></trkpt><trkpt lat="41.20910567713138" lon="14.457755884080559"><ele>59.0</ele><time>2026-05-02T11:53:27Z</time></trkpt><trkpt lat="41.209221977483644" lon="14.457677222838898"><ele>60.0</ele><time>2026-05-02T11:53:28Z</time></trkpt><trkpt lat="41.20935459049527" lon="14.457584575388658"><ele>60.0</ele><time>2026-05-02T11:53:29Z</time></trkpt><trkpt lat="41.20949110389958" lon="14.457490659520769"><ele>60.0</ele><time>2026-05-02T11:53:30Z</time></trkpt><trkpt lat="41.209629326234634" lon="14.457387367012762"><ele>60.0</ele><time>2026-05-02T11:53:31Z</time></trkpt><trkpt lat="41.20977871905778" lon="14.457303386558834"><ele>60.0</ele><time>2026-05-02T11:53:32Z</time></trkpt><trkpt lat="41.20992867483324" lon="14.457181444052813"><ele>60.0</ele><time>2026-05-02T11:53:33Z</time></trkpt><trkpt lat="41.210093678410914" lon="14.457098073824037"><ele>60.0</ele><time>2026-05-02T11:53:34Z</time></trkpt><trkpt lat="41.21025584432788" lon="14.45699497224569"><ele>60.0</ele><time>2026-05-02T11:53:35Z</time></trkpt><trkpt lat="41.21041834666652" lon="14.456891656780908"><ele>60.0</ele><time>2026-05-02T11:53:36Z</time></trkpt><trkpt lat="41.21057038552784" lon="14.45677456490823"><ele>60.0</ele><time>2026-05-02T11:53:37Z</time></trkpt><trkpt lat="41.21073617150562" lon="14.45668377743186"><ele>60.33333333333333</ele><time>2026-05-02T11:53:38Z</time></trkpt><trkpt lat="41.21090970056488" lon="14.456582074509718"><ele>60.666666666666664</ele><time>2026-05-02T11:53:39Z</time></trkpt><trkpt lat="41.21107937366093" lon="14.45648400334181"><ele>61.0</ele><time>2026-05-02T11:53:40Z</time></trkpt><trkpt lat="41.21125071531444" lon="14.456389812803115"><ele>61.33333333333333</ele><time>2026-05-02T11:53:41Z</time></trkpt><trkpt lat="41.211430585721224" lon="14.456285868120313"><ele>61.66666666666667</ele><time>2026-05-02T11:53:42Z</time></trkpt><trkpt lat="41.21160580582072" lon="14.456177899651687"><ele>62.0</ele><time>2026-05-02T11:53:43Z</time></trkpt><trkpt lat="41.21178418968954" lon="14.456064609978618"><ele>62.0</ele><time>2026-05-02T11:53:44Z</time></trkpt><trkpt lat="41.21196164316365" lon="14.455946606538312"><ele>62.0</ele><time>2026-05-02T11:53:45Z</time></trkpt><trkpt lat="41.21213581826521" lon="14.45581788216578"><ele>62.0</ele><time>2026-05-02T11:53:46Z</time></trkpt><trkpt lat="41.21230899656812" lon="14.455678356063219"><ele>62.0</ele><time>2026-05-02T11:53:47Z</time></trkpt><trkpt lat="41.212485573265866" lon="14.455546572438807"><ele>62.0</ele><time>2026-05-02T11:53:48Z</time></trkpt><trkpt lat="41.212656352444625" lon="14.455395648115903"><ele>62.0</ele><time>2026-05-02T11:53:49Z</time></trkpt><trkpt lat="41.21282796234977" lon="14.45524432038066"><ele>62.0</ele><time>2026-05-02T11:53:50Z</time></trkpt><trkpt lat="41.21300526339686" lon="14.455099627721015"><ele>62.0</ele><time>2026-05-02T11:53:51Z</time></trkpt><trkpt lat="41.21318820058957" lon="14.454968474784001"><ele>62.0</ele><time>2026-05-02T11:53:52Z</time></trkpt><trkpt lat="41.21337125151303" lon="14.454838071534585"><ele>61.66666666666667</ele><time>2026-05-02T11:53:53Z</time></trkpt><trkpt lat="41.213547866187305" lon="14.454694865230774"><ele>61.33333333333333</ele><time>2026-05-02T11:53:54Z</time></trkpt><trkpt lat="41.213745478897856" lon="14.454592176617178"><ele>61.0</ele><time>2026-05-02T11:53:55Z</time></trkpt><trkpt lat="41.213939291866566" lon="14.454471309398519"><ele>61.33333333333333</ele><time>2026-05-02T11:53:56Z</time></trkpt><trkpt lat="41.21412955432878" lon="14.454334731274011"><ele>61.66666666666667</ele><time>2026-05-02T11:53:57Z</time></trkpt><trkpt lat="41.21432971585883" lon="14.454220489483758"><ele>62.0</ele><time>2026-05-02T11:53:58Z</time></trkpt><trkpt lat="41.21452830446122" lon="14.454101891640159"><ele>62.0</ele><time>2026-05-02T11:53:59Z</time></trkpt><trkpt lat="41.2147277255194" lon="14.45397038358365"><ele>62.0</ele><time>2026-05-02T11:54:00Z</time></trkpt><trkpt lat="41.214925540241005" lon="14.453843044757154"><ele>62.0</ele><time>2026-05-02T11:54:01Z</time></trkpt><trkpt lat="41.215130747868976" lon="14.45371554833479"><ele>61.66666666666667</ele><time>2026-05-02T11:54:02Z</time></trkpt><trkpt lat="41.21534311513694" lon="14.453620237807609"><ele>61.33333333333333</ele><time>2026-05-02T11:54:03Z</time></trkpt><trkpt lat="41.215544683674615" lon="14.453495794447027"><ele>61.0</ele><time>2026-05-02T11:54:04Z</time></trkpt><trkpt lat="41.21574724209953" lon="14.453368302447764"><ele>61.0</ele><time>2026-05-02T11:54:05Z</time></trkpt><trkpt lat="41.21594700043739" lon="14.453241236669115"><ele>61.0</ele><time>2026-05-02T11:54:06Z</time></trkpt><trkpt lat="41.216142838563485" lon="14.453112550682674"><ele>61.0</ele><time>2026-05-02T11:54:07Z</time></trkpt><trkpt lat="41.216330056633375" lon="14.45298359690109"><ele>61.0</ele><time>2026-05-02T11:54:08Z</time></trkpt><trkpt lat="41.21646935141706" lon="14.452889249206336"><ele>61.0</ele><time>2026-05-02T11:54:09Z</time></trkpt><trkpt lat="41.21659205987913" lon="14.452807145571027"><ele>61.0</ele><time>2026-05-02T11:54:10Z</time></trkpt><trkpt lat="41.21670011092427" lon="14.452725333949912"><ele>61.0</ele><time>2026-05-02T11:54:11Z</time></trkpt><trkpt lat="41.21679930704839" lon="14.45265083325294"><ele>61.0</ele><time>2026-05-02T11:54:11.999Z</time></trkpt><trkpt lat="41.21689785219593" lon="14.452576821620962"><ele>61.0</ele><time>2026-05-02T11:54:12.999Z</time></trkpt><trkpt lat="41.217012581701105" lon="14.452490655701675"><ele>61.0</ele><time>2026-05-02T11:54:13.999Z</time></trkpt><trkpt lat="41.21713675854684" lon="14.45240023017182"><ele>61.0</ele><time>2026-05-02T11:54:14.999Z</time></trkpt><trkpt lat="41.217267299153455" lon="14.452304217045695"><ele>61.25</ele><time>2026-05-02T11:54:15.999Z</time></trkpt><trkpt lat="41.217393252301925" lon="14.452212819933877"><ele>61.5</ele><time>2026-05-02T11:54:16.999Z</time></trkpt><trkpt lat="41.21750147210567" lon="14.45213541551827"><ele>61.75</ele><time>2026-05-02T11:54:17.999Z</time></trkpt><trkpt lat="41.21759487803766" lon="14.452071367965388"><ele>62.0</ele><time>2026-05-02T11:54:18.999Z</time></trkpt><trkpt lat="41.21767532526723" lon="14.452016205964913"><ele>62.0</ele><time>2026-05-02T11:54:19.999Z</time></trkpt><trkpt lat="41.21775005523608" lon="14.45196451973466"><ele>62.0</ele><time>2026-05-02T11:54:20.999Z</time></trkpt><trkpt lat="41.217835000955674" lon="14.451903816396088"><ele>62.0</ele><time>2026-05-02T11:54:21.999Z</time></trkpt><trkpt lat="41.2179410802867" lon="14.451829577962675"><ele>62.0</ele><time>2026-05-02T11:54:22.999Z</time></trkpt><trkpt lat="41.218075144624905" lon="14.451746367855154"><ele>62.0</ele><time>2026-05-02T11:54:23.999Z</time></trkpt><trkpt lat="41.21821213418901" lon="14.451672975893443"><ele>62.66666666666667</ele><time>2026-05-02T11:54:24.999Z</time></trkpt><trkpt lat="41.218366700624706" lon="14.4515991715633"><ele>63.33333333333333</ele><time>2026-05-02T11:54:25.999Z</time></trkpt><trkpt lat="41.218515697558104" lon="14.451526546748031"><ele>64.0</ele><time>2026-05-02T11:54:26.999Z</time></trkpt><trkpt lat="41.21864130664339" lon="14.451467454944304"><ele>64.0</ele><time>2026-05-02T11:54:27.999Z</time></trkpt><trkpt lat="41.218752386807914" lon="14.451423347239569"><ele>64.0</ele><time>2026-05-02T11:54:28.999Z</time></trkpt><trkpt lat="41.21886318122606" lon="14.451374779209633"><ele>64.0</ele><time>2026-05-02T11:54:29.999Z</time></trkpt><trkpt lat="41.21898154385945" lon="14.451310911623287"><ele>64.0</ele><time>2026-05-02T11:54:30.999Z</time></trkpt><trkpt lat="41.219119876958324" lon="14.45124145240366"><ele>63.0</ele><time>2026-05-02T11:54:31.999Z</time></trkpt><trkpt lat="41.21926404191032" lon="14.451153647792413"><ele>62.0</ele><time>2026-05-02T11:54:32.999Z</time></trkpt><trkpt lat="41.21940538565977" lon="14.451051743370744"><ele>61.0</ele><time>2026-05-02T11:54:33.999Z</time></trkpt><trkpt lat="41.21954157995012" lon="14.45093297818965"><ele>61.0</ele><time>2026-05-02T11:54:34.999Z</time></trkpt><trkpt lat="41.21965510840933" lon="14.450812698872316"><ele>61.0</ele><time>2026-05-02T11:54:35.999Z</time></trkpt><trkpt lat="41.2197602872174" lon="14.450709660282607"><ele>61.0</ele><time>2026-05-02T11:54:36.999Z</time></trkpt><trkpt lat="41.21984785678685" lon="14.450606568037527"><ele>61.0</ele><time>2026-05-02T11:54:37.999Z</time></trkpt><trkpt lat="41.21993306422701" lon="14.450515533979313"><ele>60.4</ele><time>2026-05-02T11:54:38.999Z</time></trkpt><trkpt lat="41.22002192172317" lon="14.450418197611992"><ele>59.8</ele><time>2026-05-02T11:54:39.999Z</time></trkpt><trkpt lat="41.22010711976429" lon="14.450319499921006"><ele>59.199999999999996</ele><time>2026-05-02T11:54:40.999Z</time></trkpt><trkpt lat="41.220185230724624" lon="14.450224746222563"><ele>58.599999999999994</ele><time>2026-05-02T11:54:41.999Z</time></trkpt><trkpt lat="41.2202617326237" lon="14.450146137681346"><ele>58.0</ele><time>2026-05-02T11:54:42.999Z</time></trkpt><trkpt lat="41.22033302351238" lon="14.45007062293131"><ele>58.0</ele><time>2026-05-02T11:54:43.999Z</time></trkpt><trkpt lat="41.220401980460366" lon="14.449993721831156"><ele>58.0</ele><time>2026-05-02T11:54:44.999Z</time></trkpt><trkpt lat="41.220477660942315" lon="14.449910039217547"><ele>58.0</ele><time>2026-05-02T11:54:45.999Z</time></trkpt><trkpt lat="41.22055888956901" lon="14.449814814576678"><ele>58.0</ele><time>2026-05-02T11:54:46.999Z</time></trkpt><trkpt lat="41.22064068629413" lon="14.449726684672497"><ele>58.0</ele><time>2026-05-02T11:54:47.999Z</time></trkpt><trkpt lat="41.22070465511995" lon="14.44965495487128"><ele>57.8</ele><time>2026-05-02T11:54:48.999Z</time></trkpt><trkpt lat="41.22075632248628" lon="14.449585413015894"><ele>57.599999999999994</ele><time>2026-05-02T11:54:49.999Z</time></trkpt><trkpt lat="41.22082479520358" lon="14.4495024954766"><ele>57.400000000000006</ele><time>2026-05-02T11:54:50.999Z</time></trkpt><trkpt lat="41.22089840778973" lon="14.44940304006144"><ele>57.2</ele><time>2026-05-02T11:54:51.999Z</time></trkpt><trkpt lat="41.22097342582253" lon="14.449292767842747"><ele>57.0</ele><time>2026-05-02T11:54:52.999Z</time></trkpt><trkpt lat="41.22105884479604" lon="14.449199990320691"><ele>57.0</ele><time>2026-05-02T11:54:53.999Z</time></trkpt><trkpt lat="41.22112981191075" lon="14.44912040324101"><ele>57.0</ele><time>2026-05-02T11:54:54.999Z</time></trkpt><trkpt lat="41.221193482381466" lon="14.449036143295544"><ele>57.0</ele><time>2026-05-02T11:54:55.999Z</time></trkpt><trkpt lat="41.221265511090394" lon="14.448952921404027"><ele>57.0</ele><time>2026-05-02T11:54:56.999Z</time></trkpt><trkpt lat="41.221338003644256" lon="14.448853274398784"><ele>57.0</ele><time>2026-05-02T11:54:57.999Z</time></trkpt><trkpt lat="41.22142117763788" lon="14.448754067205067"><ele>57.25</ele><time>2026-05-02T11:54:58.999Z</time></trkpt><trkpt lat="41.22150520213288" lon="14.44864304740606"><ele>57.5</ele><time>2026-05-02T11:54:59.999Z</time></trkpt><trkpt lat="41.22158389686561" lon="14.44852732177765"><ele>57.75</ele><time>2026-05-02T11:55:00.999Z</time></trkpt><trkpt lat="41.221667480524104" lon="14.448419511809881"><ele>58.0</ele><time>2026-05-02T11:55:01.999Z</time></trkpt><trkpt lat="41.2217763901277" lon="14.448367683859816"><ele>58.0</ele><time>2026-05-02T11:55:02.999Z</time></trkpt><trkpt lat="41.22188513793007" lon="14.448327944048929"><ele>58.0</ele><time>2026-05-02T11:55:03.999Z</time></trkpt><trkpt lat="41.22198520127937" lon="14.448246057738658"><ele>58.0</ele><time>2026-05-02T11:55:04.999Z</time></trkpt><trkpt lat="41.22208456361837" lon="14.448175994368786"><ele>58.0</ele><time>2026-05-02T11:55:05.999Z</time></trkpt><trkpt lat="41.22218369165366" lon="14.44811593299017"><ele>57.99999999999999</ele><time>2026-05-02T11:55:06.999Z</time></trkpt><trkpt lat="41.222276415967535" lon="14.44805552624713"><ele>58.0</ele><time>2026-05-02T11:55:07.999Z</time></trkpt><trkpt lat="41.22235487667936" lon="14.448054263838046"><ele>58.0</ele><time>2026-05-02T11:55:08.999Z</time></trkpt><trkpt lat="41.222430761411985" lon="14.44800947250844"><ele>58.0</ele><time>2026-05-02T11:55:09.999Z</time></trkpt><trkpt lat="41.22250423274362" lon="14.447999841846798"><ele>57.99999999999999</ele><time>2026-05-02T11:55:10.999Z</time></trkpt><trkpt lat="41.222585153672554" lon="14.447984429309416"><ele>58.0</ele><time>2026-05-02T11:55:12.999Z</time></trkpt><trkpt lat="41.22263460872405" lon="14.448125093951544"><ele>58.2</ele><time>2026-05-02T11:55:14.999Z</time></trkpt><trkpt lat="41.222645473979014" lon="14.448237583219647"><ele>58.4</ele><time>2026-05-02T11:55:15.999Z</time></trkpt><trkpt lat="41.22266977505774" lon="14.448375383042492"><ele>58.60000000000001</ele><time>2026-05-02T11:55:16.999Z</time></trkpt><trkpt lat="41.22269522372603" lon="14.448501307094379"><ele>58.800000000000004</ele><time>2026-05-02T11:55:17.999Z</time></trkpt><trkpt lat="41.222709944755465" lon="14.448615778149875"><ele>59.0</ele><time>2026-05-02T11:55:18.999Z</time></trkpt><trkpt lat="41.22273772081295" lon="14.448713513614603"><ele>59.00000000000001</ele><time>2026-05-02T11:55:19.999Z</time></trkpt><trkpt lat="41.222774509258784" lon="14.448792227707933"><ele>59.0</ele><time>2026-05-02T11:55:20.999Z</time></trkpt><trkpt lat="41.22282183282941" lon="14.44889154658444"><ele>59.0</ele><time>2026-05-02T11:55:21.999Z</time></trkpt><trkpt lat="41.222872724883" lon="14.44896485026782"><ele>59.0</ele><time>2026-05-02T11:55:22.999Z</time></trkpt><trkpt lat="41.222941920808914" lon="14.449033417284758"><ele>59.00000000000001</ele><time>2026-05-02T11:55:23.999Z</time></trkpt><trkpt lat="41.223017341370756" lon="14.449107115254781"><ele>59.0</ele><time>2026-05-02T11:55:24.999Z</time></trkpt><trkpt lat="41.22306119718753" lon="14.44920365959403"><ele>59.2</ele><time>2026-05-02T11:55:25.999Z</time></trkpt><trkpt lat="41.22312143007494" lon="14.449330861227955"><ele>59.400000000000006</ele><time>2026-05-02T11:55:26.999Z</time></trkpt><trkpt lat="41.223171223118" lon="14.449421421599286"><ele>59.6</ele><time>2026-05-02T11:55:27.999Z</time></trkpt><trkpt lat="41.22324062423454" lon="14.449515576808073"><ele>59.8</ele><time>2026-05-02T11:55:28.999Z</time></trkpt><trkpt lat="41.22328090923639" lon="14.449643389204615"><ele>60.0</ele><time>2026-05-02T11:55:30.999Z</time></trkpt><trkpt lat="41.2233201878096" lon="14.449729962329547"><ele>60.4</ele><time>2026-05-02T11:55:31.999Z</time></trkpt><trkpt lat="41.223355298585965" lon="14.44983872633058"><ele>60.8</ele><time>2026-05-02T11:55:32.999Z</time></trkpt><trkpt lat="41.2233862942258" lon="14.449957809268069"><ele>61.2</ele><time>2026-05-02T11:55:33.999Z</time></trkpt><trkpt lat="41.22340732799012" lon="14.450095450173766"><ele>61.6</ele><time>2026-05-02T11:55:34.999Z</time></trkpt><trkpt lat="41.22343325500935" lon="14.450252570722464"><ele>62.0</ele><time>2026-05-02T11:55:35.999Z</time></trkpt><trkpt lat="41.223475940549655" lon="14.450420871280834"><ele>61.75</ele><time>2026-05-02T11:55:36.999Z</time></trkpt><trkpt lat="41.2234935387601" lon="14.45059545741457"><ele>61.5</ele><time>2026-05-02T11:55:37.999Z</time></trkpt><trkpt lat="41.223524464165344" lon="14.450762896063166"><ele>61.25</ele><time>2026-05-02T11:55:38.999Z</time></trkpt><trkpt lat="41.22355301237923" lon="14.450925268886794"><ele>61.0</ele><time>2026-05-02T11:55:39.999Z</time></trkpt><trkpt lat="41.22358067317302" lon="14.451092287342808"><ele>61.0</ele><time>2026-05-02T11:55:40.999Z</time></trkpt><trkpt lat="41.22358078378216" lon="14.451266510294342"><ele>61.0</ele><time>2026-05-02T11:55:41.999Z</time></trkpt><trkpt lat="41.22360931560783" lon="14.451454129608459"><ele>61.0</ele><time>2026-05-02T11:55:42.999Z</time></trkpt><trkpt lat="41.22365216086447" lon="14.451645349237612"><ele>61.0</ele><time>2026-05-02T11:55:43.999Z</time></trkpt><trkpt lat="41.22368363639228" lon="14.451839199460226"><ele>61.0</ele><time>2026-05-02T11:55:44.999Z</time></trkpt><trkpt lat="41.22373218290307" lon="14.45204832855823"><ele>61.0</ele><time>2026-05-02T11:55:45.999Z</time></trkpt><trkpt lat="41.22377124817032" lon="14.452297932732284"><ele>61.0</ele><time>2026-05-02T11:55:46.999Z</time></trkpt><trkpt lat="41.22381014934982" lon="14.452540850025827"><ele>60.666666666666664</ele><time>2026-05-02T11:55:47.999Z</time></trkpt><trkpt lat="41.223857689613034" lon="14.452801668645755"><ele>60.33333333333333</ele><time>2026-05-02T11:55:48.999Z</time></trkpt><trkpt lat="41.22390139638699" lon="14.453067119638991"><ele>60.0</ele><time>2026-05-02T11:55:50Z</time></trkpt><trkpt lat="41.223944678185305" lon="14.453338466000572"><ele>60.66666666666667</ele><time>2026-05-02T11:55:51Z</time></trkpt><trkpt lat="41.223989096956856" lon="14.453606831395824"><ele>61.333333333333336</ele><time>2026-05-02T11:55:52Z</time></trkpt><trkpt lat="41.224027167973965" lon="14.453876500257385"><ele>62.0</ele><time>2026-05-02T11:55:53Z</time></trkpt><trkpt lat="41.224067056657255" lon="14.454146470607721"><ele>62.0</ele><time>2026-05-02T11:55:54Z</time></trkpt><trkpt lat="41.224110594292355" lon="14.454402564712462"><ele>62.0</ele><time>2026-05-02T11:55:55Z</time></trkpt><trkpt lat="41.224154644515444" lon="14.45465024977984"><ele>62.0</ele><time>2026-05-02T11:55:56Z</time></trkpt><trkpt lat="41.22419178141151" lon="14.454887872037505"><ele>62.333333333333336</ele><time>2026-05-02T11:55:57Z</time></trkpt><trkpt lat="41.22423476520438" lon="14.455144036707068"><ele>62.66666666666667</ele><time>2026-05-02T11:55:58Z</time></trkpt><trkpt lat="41.22428062338639" lon="14.455417113984456"><ele>63.0</ele><time>2026-05-02T11:55:59Z</time></trkpt><trkpt lat="41.22431899370377" lon="14.455680000372732"><ele>63.0</ele><time>2026-05-02T11:56:00Z</time></trkpt><trkpt lat="41.22435479579526" lon="14.45590043151484"><ele>63.0</ele><time>2026-05-02T11:56:01Z</time></trkpt><trkpt lat="41.2243758555865" lon="14.45609676162346"><ele>63.0</ele><time>2026-05-02T11:56:02Z</time></trkpt><trkpt lat="41.2244112842015" lon="14.456294943173836"><ele>63.0</ele><time>2026-05-02T11:56:03Z</time></trkpt><trkpt lat="41.2244458115997" lon="14.45647285593149"><ele>63.0</ele><time>2026-05-02T11:56:04Z</time></trkpt><trkpt lat="41.2244789271695" lon="14.456664443955304"><ele>63.0</ele><time>2026-05-02T11:56:05Z</time></trkpt><trkpt lat="41.224505722017646" lon="14.45686982948831"><ele>63.0</ele><time>2026-05-02T11:56:06Z</time></trkpt><trkpt lat="41.22454097393409" lon="14.45707522201955"><ele>62.8</ele><time>2026-05-02T11:56:07Z</time></trkpt><trkpt lat="41.224572920381476" lon="14.457258054280718"><ele>62.599999999999994</ele><time>2026-05-02T11:56:08Z</time></trkpt><trkpt lat="41.22459271890213" lon="14.457416532122172"><ele>62.400000000000006</ele><time>2026-05-02T11:56:09Z</time></trkpt><trkpt lat="41.2246145743511" lon="14.457549798684859"><ele>62.2</ele><time>2026-05-02T11:56:10Z</time></trkpt><trkpt lat="41.224636261611685" lon="14.45765257413162"><ele>62.0</ele><time>2026-05-02T11:56:11Z</time></trkpt><trkpt lat="41.2247759815577" lon="14.457711415064935"><ele>62.400000000000006</ele><time>2026-05-02T11:56:13Z</time></trkpt><trkpt lat="41.22483679392578" lon="14.457805101197042"><ele>62.800000000000004</ele><time>2026-05-02T11:56:14Z</time></trkpt><trkpt lat="41.22492331208396" lon="14.45792249934544"><ele>63.2</ele><time>2026-05-02T11:56:15Z</time></trkpt><trkpt lat="41.22499345533989" lon="14.458039135814387"><ele>63.6</ele><time>2026-05-02T11:56:16Z</time></trkpt><trkpt lat="41.22504363150021" lon="14.45816627821495"><ele>64.0</ele><time>2026-05-02T11:56:17Z</time></trkpt><trkpt lat="41.22507535131209" lon="14.458306327840424"><ele>64.25</ele><time>2026-05-02T11:56:18Z</time></trkpt><trkpt lat="41.22514432667732" lon="14.458439592070901"><ele>64.5</ele><time>2026-05-02T11:56:19Z</time></trkpt><trkpt lat="41.22523692883572" lon="14.458557541520875"><ele>64.75</ele><time>2026-05-02T11:56:20Z</time></trkpt><trkpt lat="41.22535250829003" lon="14.458672566704584"><ele>65.0</ele><time>2026-05-02T11:56:20.999Z</time></trkpt><trkpt lat="41.22548794847776" lon="14.458818847068123"><ele>65.0</ele><time>2026-05-02T11:56:21.999Z</time></trkpt><trkpt lat="41.22562035314057" lon="14.458974519549416"><ele>65.0</ele><time>2026-05-02T11:56:22.999Z</time></trkpt><trkpt lat="41.2257378444028" lon="14.459130338750036"><ele>65.0</ele><time>2026-05-02T11:56:23.999Z</time></trkpt><trkpt lat="41.225858941256696" lon="14.459268899783458"><ele>65.0</ele><time>2026-05-02T11:56:24.999Z</time></trkpt><trkpt lat="41.22598912218388" lon="14.45937724206438"><ele>65.0</ele><time>2026-05-02T11:56:25.999Z</time></trkpt><trkpt lat="41.22610688313126" lon="14.459478916518364"><ele>65.0</ele><time>2026-05-02T11:56:26.999Z</time></trkpt><trkpt lat="41.22626800193117" lon="14.459521558378329"><ele>65.0</ele><time>2026-05-02T11:56:27.999Z</time></trkpt><trkpt lat="41.226437756806895" lon="14.45957112020041"><ele>65.0</ele><time>2026-05-02T11:56:28.999Z</time></trkpt><trkpt lat="41.226592479604996" lon="14.45965571743704"><ele>65.0</ele><time>2026-05-02T11:56:29.999Z</time></trkpt><trkpt lat="41.226742738135655" lon="14.459758368484499"><ele>66.0</ele><time>2026-05-02T11:56:30.999Z</time></trkpt><trkpt lat="41.22689513160895" lon="14.45986278479401"><ele>67.0</ele><time>2026-05-02T11:56:31.999Z</time></trkpt><trkpt lat="41.227048896629974" lon="14.45996619656485"><ele>68.0</ele><time>2026-05-02T11:56:32.999Z</time></trkpt><trkpt lat="41.2271991022157" lon="14.460066720562917"><ele>68.0</ele><time>2026-05-02T11:56:33.999Z</time></trkpt><trkpt lat="41.22735973091256" lon="14.460146414728436"><ele>68.0</ele><time>2026-05-02T11:56:34.999Z</time></trkpt><trkpt lat="41.22752810039404" lon="14.460194581658817"><ele>68.0</ele><time>2026-05-02T11:56:35.999Z</time></trkpt><trkpt lat="41.22769462270606" lon="14.460205923717634"><ele>68.0</ele><time>2026-05-02T11:56:36.999Z</time></trkpt><trkpt lat="41.22784158423256" lon="14.460202524850137"><ele>68.0</ele><time>2026-05-02T11:56:37.999Z</time></trkpt><trkpt lat="41.22797169363978" lon="14.46025148095033"><ele>68.0</ele><time>2026-05-02T11:56:38.999Z</time></trkpt><trkpt lat="41.2281029232507" lon="14.460342367630139"><ele>68.0</ele><time>2026-05-02T11:56:39.999Z</time></trkpt><trkpt lat="41.22823664018907" lon="14.460461570897753"><ele>68.66666666666667</ele><time>2026-05-02T11:56:40.999Z</time></trkpt><trkpt lat="41.228361017863044" lon="14.460604465581044"><ele>69.33333333333333</ele><time>2026-05-02T11:56:41.999Z</time></trkpt><trkpt lat="41.22846768639279" lon="14.460765863463063"><ele>70.0</ele><time>2026-05-02T11:56:42.999Z</time></trkpt><trkpt lat="41.22854645004004" lon="14.460973335953645"><ele>70.0</ele><time>2026-05-02T11:56:43.999Z</time></trkpt><trkpt lat="41.22864868598349" lon="14.461195180070947"><ele>70.0</ele><time>2026-05-02T11:56:44.999Z</time></trkpt><trkpt lat="41.22876716963068" lon="14.461396400798296"><ele>70.0</ele><time>2026-05-02T11:56:45.999Z</time></trkpt><trkpt lat="41.228860694823844" lon="14.461577892473741"><ele>70.25</ele><time>2026-05-02T11:56:46.999Z</time></trkpt><trkpt lat="41.22892894315824" lon="14.46171347153107"><ele>70.5</ele><time>2026-05-02T11:56:47.999Z</time></trkpt><trkpt lat="41.2289706648268" lon="14.461806135124585"><ele>70.75</ele><time>2026-05-02T11:56:48.999Z</time></trkpt><trkpt lat="41.22912477964715" lon="14.461739735075572"><ele>71.0</ele><time>2026-05-02T11:56:53.999Z</time></trkpt><trkpt lat="41.22923921864155" lon="14.461669995627986"><ele>71.39999999999999</ele><time>2026-05-02T11:56:54.999Z</time></trkpt><trkpt lat="41.22934980299755" lon="14.461638619743296"><ele>71.8</ele><time>2026-05-02T11:56:55.999Z</time></trkpt><trkpt lat="41.22943934124592" lon="14.461680904954282"><ele>72.19999999999999</ele><time>2026-05-02T11:56:56.999Z</time></trkpt><trkpt lat="41.22951986245465" lon="14.461743020799885"><ele>72.6</ele><time>2026-05-02T11:56:57.999Z</time></trkpt><trkpt lat="41.229638211562005" lon="14.461830622986872"><ele>73.0</ele><time>2026-05-02T11:56:58.999Z</time></trkpt><trkpt lat="41.22976772665415" lon="14.461925829525848"><ele>73.5</ele><time>2026-05-02T11:56:59.999Z</time></trkpt><trkpt lat="41.22988213373519" lon="14.46202445265111"><ele>74.0</ele><time>2026-05-02T11:57:00.999Z</time></trkpt><trkpt lat="41.22998362033177" lon="14.46212404439243"><ele>74.5</ele><time>2026-05-02T11:57:01.999Z</time></trkpt><trkpt lat="41.23007978631998" lon="14.462244410820192"><ele>75.0</ele><time>2026-05-02T11:57:02.999Z</time></trkpt><trkpt lat="41.230185617007066" lon="14.462374094505021"><ele>75.75</ele><time>2026-05-02T11:57:03.999Z</time></trkpt><trkpt lat="41.230275642425596" lon="14.462487468666078"><ele>76.5</ele><time>2026-05-02T11:57:04.999Z</time></trkpt><trkpt lat="41.230379094705576" lon="14.462579415541624"><ele>77.25</ele><time>2026-05-02T11:57:05.999Z</time></trkpt><trkpt lat="41.23049967158505" lon="14.462654420749612"><ele>78.0</ele><time>2026-05-02T11:57:06.999Z</time></trkpt><trkpt lat="41.23061699934919" lon="14.46272565726413"><ele>78.0</ele><time>2026-05-02T11:57:07.999Z</time></trkpt><trkpt lat="41.230720471962584" lon="14.462783278806425"><ele>78.0</ele><time>2026-05-02T11:57:08.999Z</time></trkpt><trkpt lat="41.23080820833942" lon="14.462881120174021"><ele>78.0</ele><time>2026-05-02T11:57:09.999Z</time></trkpt><trkpt lat="41.23087957595991" lon="14.46297284179923"><ele>78.0</ele><time>2026-05-02T11:57:10.999Z</time></trkpt><trkpt lat="41.23092406748351" lon="14.46308811594676"><ele>78.0</ele><time>2026-05-02T11:57:11.999Z</time></trkpt><trkpt lat="41.2309550233737" lon="14.46320258132294"><ele>78.2</ele><time>2026-05-02T11:57:12.999Z</time></trkpt><trkpt lat="41.230985046945975" lon="14.463285676318014"><ele>78.4</ele><time>2026-05-02T11:57:13.999Z</time></trkpt><trkpt lat="41.23109279848784" lon="14.463405531712452"><ele>78.60000000000001</ele><time>2026-05-02T11:57:15.999Z</time></trkpt><trkpt lat="41.231176353467035" lon="14.463486525729634"><ele>78.8</ele><time>2026-05-02T11:57:16.999Z</time></trkpt><trkpt lat="41.23127126048758" lon="14.463596200981858"><ele>79.0</ele><time>2026-05-02T11:57:17.999Z</time></trkpt><trkpt lat="41.23135485370064" lon="14.463721911450891"><ele>79.80000000000001</ele><time>2026-05-02T11:57:18.999Z</time></trkpt><trkpt lat="41.23142111364524" lon="14.4638301223697"><ele>80.60000000000001</ele><time>2026-05-02T11:57:19.999Z</time></trkpt><trkpt lat="41.23146564555026" lon="14.463955026112988"><ele>81.4</ele><time>2026-05-02T11:57:20.999Z</time></trkpt><trkpt lat="41.231486472228845" lon="14.464094395957671"><ele>82.2</ele><time>2026-05-02T11:57:21.999Z</time></trkpt><trkpt lat="41.23150818959838" lon="14.464203918742205"><ele>83.0</ele><time>2026-05-02T11:57:22.999Z</time></trkpt><trkpt lat="41.23156192970182" lon="14.464278447645007"><ele>83.0</ele><time>2026-05-02T11:57:23.999Z</time></trkpt><trkpt lat="41.23163820152934" lon="14.464295845545035"><ele>83.0</ele><time>2026-05-02T11:57:24.999Z</time></trkpt><trkpt lat="41.23173123747639" lon="14.46426283146998"><ele>83.0</ele><time>2026-05-02T11:57:25.999Z</time></trkpt><trkpt lat="41.2318579044984" lon="14.464243846531948"><ele>83.0</ele><time>2026-05-02T11:57:26.999Z</time></trkpt><trkpt lat="41.23197105449305" lon="14.464208243316989"><ele>83.0</ele><time>2026-05-02T11:57:27.999Z</time></trkpt><trkpt lat="41.23205686482175" lon="14.464184053755247"><ele>83.0</ele><time>2026-05-02T11:57:28.999Z</time></trkpt><trkpt lat="41.232121627395614" lon="14.464167122182504"><ele>83.0</ele><time>2026-05-02T11:57:29.999Z</time></trkpt><trkpt lat="41.232207251074854" lon="14.46415813441922"><ele>83.0</ele><time>2026-05-02T11:57:32.999Z</time></trkpt><trkpt lat="41.23222444734657" lon="14.464288773413857"><ele>83.0</ele><time>2026-05-02T11:57:34.999Z</time></trkpt><trkpt lat="41.232212287787725" lon="14.464433776240442"><ele>83.0</ele><time>2026-05-02T11:57:35.999Z</time></trkpt><trkpt lat="41.232199687950796" lon="14.46460039500626"><ele>83.25</ele><time>2026-05-02T11:57:36.999Z</time></trkpt><trkpt lat="41.232196614404415" lon="14.464778434189883"><ele>83.5</ele><time>2026-05-02T11:57:37.999Z</time></trkpt><trkpt lat="41.232195503379735" lon="14.464992272237591"><ele>83.75</ele><time>2026-05-02T11:57:38.999Z</time></trkpt><trkpt lat="41.23220220276519" lon="14.465155398522782"><ele>84.0</ele><time>2026-05-02T11:57:39.999Z</time></trkpt><trkpt lat="41.23222778896849" lon="14.465270099548107"><ele>84.0</ele><time>2026-05-02T11:57:40.999Z</time></trkpt><trkpt lat="41.232286844202136" lon="14.465362894047296"><ele>84.0</ele><time>2026-05-02T11:57:41.999Z</time></trkpt><trkpt lat="41.23239006637537" lon="14.465434663895078"><ele>84.0</ele><time>2026-05-02T11:57:42.999Z</time></trkpt><trkpt lat="41.2325304487563" lon="14.46550701402187"><ele>84.0</ele><time>2026-05-02T11:57:43.999Z</time></trkpt><trkpt lat="41.232704017928" lon="14.465602611901815"><ele>84.66666666666667</ele><time>2026-05-02T11:57:44.999Z</time></trkpt><trkpt lat="41.23288922286585" lon="14.465705836632774"><ele>85.33333333333334</ele><time>2026-05-02T11:57:45.999Z</time></trkpt><trkpt lat="41.23307631730197" lon="14.465810114481766"><ele>86.0</ele><time>2026-05-02T11:57:46.999Z</time></trkpt><trkpt lat="41.233249293358355" lon="14.465906523086295"><ele>86.0</ele><time>2026-05-02T11:57:48Z</time></trkpt><trkpt lat="41.233410897605786" lon="14.46599808891275"><ele>86.0</ele><time>2026-05-02T11:57:49Z</time></trkpt><trkpt lat="41.23357705860628" lon="14.466091817115169"><ele>86.0</ele><time>2026-05-02T11:57:50Z</time></trkpt><trkpt lat="41.23383576024104" lon="14.466216520249102"><ele>86.0</ele><time>2026-05-02T11:57:52Z</time></trkpt><trkpt lat="41.23392539239844" lon="14.46627111931774"><ele>86.0</ele><time>2026-05-02T11:57:53Z</time></trkpt><trkpt lat="41.234030853881755" lon="14.466344318359331"><ele>86.0</ele><time>2026-05-02T11:57:54Z</time></trkpt><trkpt lat="41.2341511927156" lon="14.46642856265187"><ele>86.0</ele><time>2026-05-02T11:57:55Z</time></trkpt><trkpt lat="41.23427250753524" lon="14.466516434916127"><ele>86.0</ele><time>2026-05-02T11:57:56Z</time></trkpt><trkpt lat="41.234408157699015" lon="14.466598442734696"><ele>86.0</ele><time>2026-05-02T11:57:57Z</time></trkpt><trkpt lat="41.2345462256147" lon="14.466649887810581"><ele>86.0</ele><time>2026-05-02T11:57:58Z</time></trkpt><trkpt lat="41.23469424541995" lon="14.46666071776689"><ele>86.0</ele><time>2026-05-02T11:57:59Z</time></trkpt><trkpt lat="41.23486896493246" lon="14.46662444743742"><ele>86.0</ele><time>2026-05-02T11:58:00Z</time></trkpt><trkpt lat="41.23501658811737" lon="14.466578798044893"><ele>86.0</ele><time>2026-05-02T11:58:01Z</time></trkpt><trkpt lat="41.23511970369739" lon="14.466543574398639"><ele>86.0</ele><time>2026-05-02T11:58:02Z</time></trkpt><trkpt lat="41.235212043210446" lon="14.46654363251923"><ele>86.0</ele><time>2026-05-02T11:58:03Z</time></trkpt><trkpt lat="41.235284365777375" lon="14.466525990449018"><ele>86.0</ele><time>2026-05-02T11:58:04Z</time></trkpt><trkpt lat="41.23535270837746" lon="14.466530058498277"><ele>86.0</ele><time>2026-05-02T11:58:05Z</time></trkpt><trkpt lat="41.23544086311677" lon="14.466539326379658"><ele>86.0</ele><time>2026-05-02T11:58:06Z</time></trkpt><trkpt lat="41.235507162474406" lon="14.466540349346973"><ele>86.0</ele><time>2026-05-02T11:58:07Z</time></trkpt><trkpt lat="41.23560843192654" lon="14.466528110673467"><ele>86.0</ele><time>2026-05-02T11:58:08Z</time></trkpt><trkpt lat="41.23571491164401" lon="14.46652989508859"><ele>86.0</ele><time>2026-05-02T11:58:09Z</time></trkpt><trkpt lat="41.23582803276351" lon="14.46656135761628"><ele>86.19999999999999</ele><time>2026-05-02T11:58:10Z</time></trkpt><trkpt lat="41.235921483604095" lon="14.466575486134463"><ele>86.39999999999999</ele><time>2026-05-02T11:58:11Z</time></trkpt><trkpt lat="41.236000026422744" lon="14.466607003661505"><ele>86.6</ele><time>2026-05-02T11:58:12Z</time></trkpt><trkpt lat="41.23606114429126" lon="14.466657368000561"><ele>86.8</ele><time>2026-05-02T11:58:13Z</time></trkpt><trkpt lat="41.2361686016255" lon="14.466736852199332"><ele>87.0</ele><time>2026-05-02T11:58:15Z</time></trkpt><trkpt lat="41.23616823433523" lon="14.466910354154768"><ele>87.0</ele><time>2026-05-02T11:58:18Z</time></trkpt><trkpt lat="41.23615272094198" lon="14.467014139607516"><ele>87.0</ele><time>2026-05-02T11:58:19Z</time></trkpt><trkpt lat="41.23611756090169" lon="14.467120405438488"><ele>87.0</ele><time>2026-05-02T11:58:20Z</time></trkpt><trkpt lat="41.2361014555924" lon="14.467236918863195"><ele>87.0</ele><time>2026-05-02T11:58:21Z</time></trkpt><trkpt lat="41.2360398655396" lon="14.467329310165777"><ele>87.0</ele><time>2026-05-02T11:58:23Z</time></trkpt><trkpt lat="41.23602529300747" lon="14.46743412281108"><ele>87.0</ele><time>2026-05-02T11:58:26Z</time></trkpt><trkpt lat="41.23605963402455" lon="14.467347403679062"><ele>87.0</ele><time>2026-05-02T11:58:43Z</time></trkpt><trkpt lat="41.23622277330226" lon="14.46725666359335"><ele>87.0</ele><time>2026-05-02T11:58:44.999Z</time></trkpt><trkpt lat="41.236248755620444" lon="14.467174109622684"><ele>87.0</ele><time>2026-05-02T11:58:45.999Z</time></trkpt><trkpt lat="41.236279561481915" lon="14.46707622983199"><ele>87.0</ele><time>2026-05-02T11:58:46.999Z</time></trkpt><trkpt lat="41.23631955456431" lon="14.466949023221712"><ele>87.0</ele><time>2026-05-02T11:58:48.999Z</time></trkpt><trkpt lat="41.23634623459198" lon="14.466864245596254"><ele>87.0</ele><time>2026-05-02T11:58:51.999Z</time></trkpt><trkpt lat="41.23608597435009" lon="14.466659201497691"><ele>87.0</ele><time>2026-05-02T11:58:58.999Z</time></trkpt><trkpt lat="41.23602847090675" lon="14.466618700568599"><ele>87.0</ele><time>2026-05-02T11:58:59.999Z</time></trkpt><trkpt lat="41.2359692638966" lon="14.466582938519217"><ele>87.0</ele><time>2026-05-02T11:59:00.999Z</time></trkpt><trkpt lat="41.235906503640436" lon="14.466542200048144"><ele>87.0</ele><time>2026-05-02T11:59:01.999Z</time></trkpt><trkpt lat="41.23583684916774" lon="14.466521193566885"><ele>87.0</ele><time>2026-05-02T11:59:02.999Z</time></trkpt><trkpt lat="41.23576485797392" lon="14.466515844614547"><ele>87.0</ele><time>2026-05-02T11:59:03.999Z</time></trkpt><trkpt lat="41.23569792906912" lon="14.466512862676629"><ele>87.0</ele><time>2026-05-02T11:59:04.999Z</time></trkpt><trkpt lat="41.23563076023216" lon="14.466512018047917"><ele>87.0</ele><time>2026-05-02T11:59:05.999Z</time></trkpt><trkpt lat="41.235562437336604" lon="14.466511287534056"><ele>87.0</ele><time>2026-05-02T11:59:06.999Z</time></trkpt><trkpt lat="41.23549383253363" lon="14.466509804079172"><ele>87.0</ele><time>2026-05-02T11:59:07.999Z</time></trkpt><trkpt lat="41.23542900991681" lon="14.466510081232688"><ele>86.83333333333333</ele><time>2026-05-02T11:59:08.999Z</time></trkpt><trkpt lat="41.23535082592652" lon="14.466509897187407"><ele>86.66666666666667</ele><time>2026-05-02T11:59:09.999Z</time></trkpt><trkpt lat="41.235267715118944" lon="14.46651582026768"><ele>86.5</ele><time>2026-05-02T11:59:10.999Z</time></trkpt><trkpt lat="41.23519660307075" lon="14.466519524040017"><ele>86.33333333333334</ele><time>2026-05-02T11:59:11.999Z</time></trkpt><trkpt lat="41.235111665012376" lon="14.466514555053763"><ele>86.16666666666667</ele><time>2026-05-02T11:59:39.999Z</time></trkpt><trkpt lat="41.235045497652" lon="14.466534185876492"><ele>86.0</ele><time>2026-05-02T11:59:40.999Z</time></trkpt><trkpt lat="41.234961098635814" lon="14.466560244488543"><ele>86.0</ele><time>2026-05-02T11:59:41.999Z</time></trkpt><trkpt lat="41.234861773622" lon="14.46658447628956"><ele>86.0</ele><time>2026-05-02T11:59:42.999Z</time></trkpt><trkpt lat="41.234755169362906" lon="14.466604510399458"><ele>86.0</ele><time>2026-05-02T11:59:43.999Z</time></trkpt><trkpt lat="41.23465706620677" lon="14.466630069430165"><ele>86.0</ele><time>2026-05-02T11:59:44.999Z</time></trkpt><trkpt lat="41.23458279520612" lon="14.46661761091937"><ele>86.0</ele><time>2026-05-02T11:59:45.999Z</time></trkpt><trkpt lat="41.23449901035619" lon="14.466599449362484"><ele>85.83333333333334</ele><time>2026-05-02T11:59:46.999Z</time></trkpt><trkpt lat="41.23441230646056" lon="14.466567655207742"><ele>85.66666666666667</ele><time>2026-05-02T11:59:47.999Z</time></trkpt><trkpt lat="41.234322971719" lon="14.466514231295548"><ele>85.5</ele><time>2026-05-02T11:59:48.999Z</time></trkpt><trkpt lat="41.234239084694096" lon="14.466449284973276"><ele>85.33333333333333</ele><time>2026-05-02T11:59:49.999Z</time></trkpt><trkpt lat="41.234161472754735" lon="14.466392269216866"><ele>85.16666666666666</ele><time>2026-05-02T11:59:50.999Z</time></trkpt><trkpt lat="41.23409575024118" lon="14.46635312733832"><ele>85.0</ele><time>2026-05-02T11:59:51.999Z</time></trkpt><trkpt lat="41.23398677758881" lon="14.466272636565085"><ele>85.0</ele><time>2026-05-02T11:59:53.999Z</time></trkpt><trkpt lat="41.233925232511005" lon="14.46625040421215"><ele>85.0</ele><time>2026-05-02T11:59:56.999Z</time></trkpt><trkpt lat="41.23391742879139" lon="14.466471894778946"><ele>85.0</ele><time>2026-05-02T11:59:58.999Z</time></trkpt><trkpt lat="41.23393570704457" lon="14.466570759060023"><ele>85.0</ele><time>2026-05-02T12:00:00Z</time></trkpt><trkpt lat="41.233958745973034" lon="14.46670170421897"><ele>85.0</ele><time>2026-05-02T12:00:01Z</time></trkpt><trkpt lat="41.23398232742594" lon="14.466844231665462"><ele>85.0</ele><time>2026-05-02T12:00:02Z</time></trkpt><trkpt lat="41.2340062595585" lon="14.46699289764211"><ele>85.0</ele><time>2026-05-02T12:00:03Z</time></trkpt><trkpt lat="41.234036474943444" lon="14.467157985893655"><ele>85.0</ele><time>2026-05-02T12:00:04Z</time></trkpt><trkpt lat="41.23407952265356" lon="14.467325781384348"><ele>85.0</ele><time>2026-05-02T12:00:05Z</time></trkpt><trkpt lat="41.23411458654277" lon="14.467506459129826"><ele>84.25</ele><time>2026-05-02T12:00:06Z</time></trkpt><trkpt lat="41.234142490809674" lon="14.467682017877552"><ele>83.5</ele><time>2026-05-02T12:00:07Z</time></trkpt><trkpt lat="41.234178861449934" lon="14.467855114175581"><ele>82.75</ele><time>2026-05-02T12:00:08Z</time></trkpt><trkpt lat="41.23420985351182" lon="14.468031212205524"><ele>82.0</ele><time>2026-05-02T12:00:09Z</time></trkpt><trkpt lat="41.23423860742015" lon="14.468206151796164"><ele>82.0</ele><time>2026-05-02T12:00:10Z</time></trkpt><trkpt lat="41.234286925193" lon="14.4685382525973"><ele>82.0</ele><time>2026-05-02T12:00:12Z</time></trkpt><trkpt lat="41.23431491180213" lon="14.468705119697425"><ele>82.0</ele><time>2026-05-02T12:00:13Z</time></trkpt><trkpt lat="41.234333289711735" lon="14.468875194675071"><ele>83.0</ele><time>2026-05-02T12:00:14Z</time></trkpt><trkpt lat="41.23435824765882" lon="14.46904541117515"><ele>84.0</ele><time>2026-05-02T12:00:15Z</time></trkpt><trkpt lat="41.23438832577116" lon="14.469217498458503"><ele>85.0</ele><time>2026-05-02T12:00:16Z</time></trkpt><trkpt lat="41.23444891021785" lon="14.46956574023246"><ele>86.0</ele><time>2026-05-02T12:00:18Z</time></trkpt><trkpt lat="41.234485272539175" lon="14.469745294343078"><ele>87.0</ele><time>2026-05-02T12:00:19Z</time></trkpt><trkpt lat="41.23451859486783" lon="14.469922754223308"><ele>88.0</ele><time>2026-05-02T12:00:20Z</time></trkpt><trkpt lat="41.234549362607545" lon="14.470077169798504"><ele>89.0</ele><time>2026-05-02T12:00:21Z</time></trkpt><trkpt lat="41.2345757577552" lon="14.47023544968691"><ele>89.0</ele><time>2026-05-02T12:00:22Z</time></trkpt><trkpt lat="41.234585448756675" lon="14.470364141368552"><ele>89.0</ele><time>2026-05-02T12:00:23Z</time></trkpt><trkpt lat="41.23460237784596" lon="14.470458015326747"><ele>89.0</ele><time>2026-05-02T12:00:24Z</time></trkpt><trkpt lat="41.23461798076887" lon="14.470544650101557"><ele>89.0</ele><time>2026-05-02T12:00:25Z</time></trkpt><trkpt lat="41.234650966899174" lon="14.470646209527567"><ele>89.0</ele><time>2026-05-02T12:00:26Z</time></trkpt><trkpt lat="41.234667161468806" lon="14.470764295650064"><ele>89.0</ele><time>2026-05-02T12:00:27Z</time></trkpt><trkpt lat="41.234693671170156" lon="14.470897342258043"><ele>89.4</ele><time>2026-05-02T12:00:28Z</time></trkpt><trkpt lat="41.23472085891982" lon="14.471042876884963"><ele>89.80000000000001</ele><time>2026-05-02T12:00:29Z</time></trkpt><trkpt lat="41.23474529791345" lon="14.471180619258787"><ele>90.19999999999999</ele><time>2026-05-02T12:00:30Z</time></trkpt><trkpt lat="41.234754857579375" lon="14.471318175728882"><ele>90.6</ele><time>2026-05-02T12:00:31Z</time></trkpt><trkpt lat="41.23475457622051" lon="14.471458293808343"><ele>91.0</ele><time>2026-05-02T12:00:32Z</time></trkpt><trkpt lat="41.23472729578599" lon="14.471592744870549"><ele>91.0</ele><time>2026-05-02T12:00:33Z</time></trkpt><trkpt lat="41.234687155853294" lon="14.471737411550043"><ele>91.0</ele><time>2026-05-02T12:00:34Z</time></trkpt><trkpt lat="41.23463187915006" lon="14.4718894148168"><ele>91.0</ele><time>2026-05-02T12:00:35Z</time></trkpt><trkpt lat="41.23457451472375" lon="14.472056035614715"><ele>91.0</ele><time>2026-05-02T12:00:36Z</time></trkpt><trkpt lat="41.23452385160652" lon="14.472225990252234"><ele>91.0</ele><time>2026-05-02T12:00:37Z</time></trkpt><trkpt lat="41.23447292448227" lon="14.472404937058549"><ele>91.0</ele><time>2026-05-02T12:00:38Z</time></trkpt><trkpt lat="41.23442034249054" lon="14.472589302524087"><ele>91.0</ele><time>2026-05-02T12:00:39Z</time></trkpt><trkpt lat="41.234362788033025" lon="14.472776585445216"><ele>91.0</ele><time>2026-05-02T12:00:40Z</time></trkpt><trkpt lat="41.234303433372716" lon="14.472960985139352"><ele>91.33333333333333</ele><time>2026-05-02T12:00:41Z</time></trkpt><trkpt lat="41.23424188545194" lon="14.473147890210901"><ele>91.66666666666667</ele><time>2026-05-02T12:00:42Z</time></trkpt><trkpt lat="41.234184331606954" lon="14.473329287977972"><ele>92.0</ele><time>2026-05-02T12:00:43Z</time></trkpt><trkpt lat="41.23412047720527" lon="14.473508419081767"><ele>92.0</ele><time>2026-05-02T12:00:44Z</time></trkpt><trkpt lat="41.23403780867805" lon="14.47367128907032"><ele>92.0</ele><time>2026-05-02T12:00:45Z</time></trkpt><trkpt lat="41.23394655972665" lon="14.473821052417621"><ele>92.0</ele><time>2026-05-02T12:00:46Z</time></trkpt><trkpt lat="41.233822707423286" lon="14.473946564472579"><ele>92.0</ele><time>2026-05-02T12:00:47Z</time></trkpt><trkpt lat="41.23369708190655" lon="14.474097370159523"><ele>92.33333333333334</ele><time>2026-05-02T12:00:48Z</time></trkpt><trkpt lat="41.2335757184494" lon="14.474219347358686"><ele>92.66666666666667</ele><time>2026-05-02T12:00:49Z</time></trkpt><trkpt lat="41.23345878513158" lon="14.474335673827799"><ele>93.0</ele><time>2026-05-02T12:00:50Z</time></trkpt><trkpt lat="41.23332790638019" lon="14.474438244185697"><ele>93.0</ele><time>2026-05-02T12:00:51Z</time></trkpt><trkpt lat="41.233197884014125" lon="14.474550407163928"><ele>93.0</ele><time>2026-05-02T12:00:52Z</time></trkpt><trkpt lat="41.23308195411897" lon="14.47465948920496"><ele>93.0</ele><time>2026-05-02T12:00:53Z</time></trkpt><trkpt lat="41.232982712033426" lon="14.4747598935315"><ele>93.0</ele><time>2026-05-02T12:00:54Z</time></trkpt><trkpt lat="41.232898158553546" lon="14.474856905209586"><ele>92.83333333333333</ele><time>2026-05-02T12:00:55Z</time></trkpt><trkpt lat="41.23281526339045" lon="14.47493505213585"><ele>92.66666666666667</ele><time>2026-05-02T12:00:56Z</time></trkpt><trkpt lat="41.232729528078444" lon="14.47499521214146"><ele>92.5</ele><time>2026-05-02T12:00:57Z</time></trkpt><trkpt lat="41.23265508283234" lon="14.475055486556508"><ele>92.33333333333334</ele><time>2026-05-02T12:00:58Z</time></trkpt><trkpt lat="41.23259843550063" lon="14.475108158957795"><ele>92.16666666666667</ele><time>2026-05-02T12:00:59Z</time></trkpt><trkpt lat="41.232531435735396" lon="14.47518730192091"><ele>92.0</ele><time>2026-05-02T12:01:01Z</time></trkpt><trkpt lat="41.23270058514428" lon="14.475201255389972"><ele>92.0</ele><time>2026-05-02T12:01:06Z</time></trkpt><trkpt lat="41.23279417289201" lon="14.47511573117172"><ele>92.0</ele><time>2026-05-02T12:01:07Z</time></trkpt><trkpt lat="41.23289949435815" lon="14.47502800018161"><ele>92.0</ele><time>2026-05-02T12:01:08Z</time></trkpt><trkpt lat="41.233026794612655" lon="14.474918868928416"><ele>92.0</ele><time>2026-05-02T12:01:09Z</time></trkpt><trkpt lat="41.23317060614189" lon="14.474811045870515"><ele>92.33333333333334</ele><time>2026-05-02T12:01:10Z</time></trkpt><trkpt lat="41.233316078640335" lon="14.47468842472688"><ele>92.66666666666667</ele><time>2026-05-02T12:01:11Z</time></trkpt><trkpt lat="41.23349687434699" lon="14.474550572637536"><ele>93.0</ele><time>2026-05-02T12:01:12Z</time></trkpt><trkpt lat="41.233638877874974" lon="14.474438731234864"><ele>93.0</ele><time>2026-05-02T12:01:13Z</time></trkpt><trkpt lat="41.23377546198707" lon="14.474376417927733"><ele>93.0</ele><time>2026-05-02T12:01:14Z</time></trkpt><trkpt lat="41.23392888379471" lon="14.474345710898339"><ele>93.0</ele><time>2026-05-02T12:01:15Z</time></trkpt><trkpt lat="41.23407851532705" lon="14.47433720804067"><ele>93.0</ele><time>2026-05-02T12:01:16Z</time></trkpt><trkpt lat="41.23420938692852" lon="14.474306365257013"><ele>93.25</ele><time>2026-05-02T12:01:17Z</time></trkpt><trkpt lat="41.23431687016565" lon="14.474245969901833"><ele>93.5</ele><time>2026-05-02T12:01:18Z</time></trkpt><trkpt lat="41.234402341768906" lon="14.474146139901533"><ele>93.75</ele><time>2026-05-02T12:01:19Z</time></trkpt><trkpt lat="41.234465913148824" lon="14.473980973776728"><ele>94.0</ele><time>2026-05-02T12:01:20Z</time></trkpt><trkpt lat="41.23452379354508" lon="14.473771722413183"><ele>93.0</ele><time>2026-05-02T12:01:21Z</time></trkpt><trkpt lat="41.234586852319325" lon="14.473498838755374"><ele>92.0</ele><time>2026-05-02T12:01:21.999Z</time></trkpt><trkpt lat="41.234668790432465" lon="14.473204186682919"><ele>91.66666666666667</ele><time>2026-05-02T12:01:22.999Z</time></trkpt><trkpt lat="41.23475058656934" lon="14.472932006867355"><ele>91.33333333333333</ele><time>2026-05-02T12:01:23.999Z</time></trkpt><trkpt lat="41.23482269906489" lon="14.472687667799788"><ele>91.0</ele><time>2026-05-02T12:01:24.999Z</time></trkpt><trkpt lat="41.234906296167516" lon="14.472475957851335"><ele>91.33333333333333</ele><time>2026-05-02T12:01:25.999Z</time></trkpt><trkpt lat="41.23498930932912" lon="14.472297908231335"><ele>91.66666666666667</ele><time>2026-05-02T12:01:26.999Z</time></trkpt><trkpt lat="41.23508143792228" lon="14.472133231341415"><ele>92.0</ele><time>2026-05-02T12:01:27.999Z</time></trkpt><trkpt lat="41.235187906818545" lon="14.471962036100212"><ele>92.0</ele><time>2026-05-02T12:01:28.999Z</time></trkpt><trkpt lat="41.23529502296233" lon="14.471755014619225"><ele>92.0</ele><time>2026-05-02T12:01:29.999Z</time></trkpt><trkpt lat="41.2354228053179" lon="14.471542248330667"><ele>92.0</ele><time>2026-05-02T12:01:30.999Z</time></trkpt><trkpt lat="41.23556432530451" lon="14.47133601474192"><ele>91.66666666666667</ele><time>2026-05-02T12:01:31.999Z</time></trkpt><trkpt lat="41.235681280099946" lon="14.47110618904945"><ele>91.33333333333333</ele><time>2026-05-02T12:01:32.999Z</time></trkpt><trkpt lat="41.235802906516284" lon="14.4709112617806"><ele>91.0</ele><time>2026-05-02T12:01:33.999Z</time></trkpt><trkpt lat="41.23592725711337" lon="14.470713359755255"><ele>91.0</ele><time>2026-05-02T12:01:34.999Z</time></trkpt><trkpt lat="41.23605554537405" lon="14.470519810645412"><ele>91.0</ele><time>2026-05-02T12:01:35.999Z</time></trkpt><trkpt lat="41.23618495328813" lon="14.470329841489994"><ele>91.0</ele><time>2026-05-02T12:01:36.999Z</time></trkpt><trkpt lat="41.23632248107457" lon="14.470152641189204"><ele>90.33333333333333</ele><time>2026-05-02T12:01:37.999Z</time></trkpt><trkpt lat="41.236463214537466" lon="14.469978643865478"><ele>89.66666666666667</ele><time>2026-05-02T12:01:38.999Z</time></trkpt><trkpt lat="41.236592531193814" lon="14.469812006993157"><ele>89.0</ele><time>2026-05-02T12:01:39.999Z</time></trkpt><trkpt lat="41.23671520028953" lon="14.469653468364662"><ele>89.4</ele><time>2026-05-02T12:01:40.999Z</time></trkpt><trkpt lat="41.23681252419945" lon="14.469531553966354"><ele>89.80000000000001</ele><time>2026-05-02T12:01:41.999Z</time></trkpt><trkpt lat="41.236877998436455" lon="14.469444499702158"><ele>90.19999999999999</ele><time>2026-05-02T12:01:42.999Z</time></trkpt><trkpt lat="41.23693442516377" lon="14.469394546449434"><ele>90.6</ele><time>2026-05-02T12:01:43.999Z</time></trkpt><trkpt lat="41.23702304556498" lon="14.469459108381619"><ele>91.0</ele><time>2026-05-02T12:01:45.999Z</time></trkpt><trkpt lat="41.23705329426949" lon="14.469541401797512"><ele>91.5</ele><time>2026-05-02T12:01:47Z</time></trkpt><trkpt lat="41.23707819706478" lon="14.469651873369388"><ele>92.0</ele><time>2026-05-02T12:01:48Z</time></trkpt><trkpt lat="41.237112114470534" lon="14.46977862439116"><ele>92.5</ele><time>2026-05-02T12:01:49Z</time></trkpt><trkpt lat="41.237147885370426" lon="14.469936859224937"><ele>93.0</ele><time>2026-05-02T12:01:50Z</time></trkpt><trkpt lat="41.23718011620364" lon="14.470132921721437"><ele>93.0</ele><time>2026-05-02T12:01:51Z</time></trkpt><trkpt lat="41.23721033271468" lon="14.470332242102275"><ele>93.0</ele><time>2026-05-02T12:01:52Z</time></trkpt><trkpt lat="41.237250383193526" lon="14.470547272497283"><ele>93.0</ele><time>2026-05-02T12:01:53Z</time></trkpt><trkpt lat="41.237294899832726" lon="14.470771935534735"><ele>94.66666666666666</ele><time>2026-05-02T12:01:54Z</time></trkpt><trkpt lat="41.23734347598113" lon="14.471019858475552"><ele>96.33333333333333</ele><time>2026-05-02T12:01:55Z</time></trkpt><trkpt lat="41.237381015033186" lon="14.471276031870955"><ele>98.0</ele><time>2026-05-02T12:01:56Z</time></trkpt><trkpt lat="41.23742934937137" lon="14.471521329395822"><ele>98.25</ele><time>2026-05-02T12:01:57Z</time></trkpt><trkpt lat="41.237452410801694" lon="14.471749271061586"><ele>98.5</ele><time>2026-05-02T12:01:58Z</time></trkpt><trkpt lat="41.23742662827202" lon="14.471910845577701"><ele>98.75</ele><time>2026-05-02T12:01:59Z</time></trkpt><trkpt lat="41.23737578528267" lon="14.471979047929667"><ele>99.0</ele><time>2026-05-02T12:02:00Z</time></trkpt><trkpt lat="41.23735875815681" lon="14.47211420437454"><ele>99.0</ele><time>2026-05-02T12:02:02Z</time></trkpt><trkpt lat="41.237378539845345" lon="14.47223834003743"><ele>99.0</ele><time>2026-05-02T12:02:04Z</time></trkpt><trkpt lat="41.23746951139503" lon="14.472188713693855"><ele>99.0</ele><time>2026-05-02T12:02:06Z</time></trkpt><trkpt lat="41.23743913257434" lon="14.472098531374915"><ele>99.0</ele><time>2026-05-02T12:02:08Z</time></trkpt><trkpt lat="41.23734860717085" lon="14.472069628233479"><ele>99.0</ele><time>2026-05-02T12:02:10Z</time></trkpt><trkpt lat="41.237273946865876" lon="14.471877661905737"><ele>98.66666666666666</ele><time>2026-05-02T12:02:11Z</time></trkpt><trkpt lat="41.23717562016989" lon="14.471890903633279"><ele>98.33333333333333</ele><time>2026-05-02T12:02:12Z</time></trkpt><trkpt lat="41.23709070986542" lon="14.472307542374491"><ele>98.0</ele><time>2026-05-02T12:02:13Z</time></trkpt><trkpt lat="41.2369582053225" lon="14.472478265429789"><ele>98.0</ele><time>2026-05-02T12:02:14Z</time></trkpt><trkpt lat="41.23683490804371" lon="14.472644885049121"><ele>98.0</ele><time>2026-05-02T12:02:15Z</time></trkpt><trkpt lat="41.2367294116284" lon="14.472840129331638"><ele>98.0</ele><time>2026-05-02T12:02:16Z</time></trkpt><trkpt lat="41.23666211284901" lon="14.473058712825221"><ele>99.0</ele><time>2026-05-02T12:02:17Z</time></trkpt><trkpt lat="41.23661609274014" lon="14.473325382863372"><ele>100.0</ele><time>2026-05-02T12:02:18Z</time></trkpt><trkpt lat="41.236582694926916" lon="14.47363646190174"><ele>101.0</ele><time>2026-05-02T12:02:19Z</time></trkpt><trkpt lat="41.23654314808792" lon="14.473959933888676"><ele>100.66666666666666</ele><time>2026-05-02T12:02:20Z</time></trkpt><trkpt lat="41.23650064447547" lon="14.474257131959076"><ele>100.33333333333334</ele><time>2026-05-02T12:02:21Z</time></trkpt><trkpt lat="41.23646505556303" lon="14.474532509138589"><ele>100.0</ele><time>2026-05-02T12:02:22Z</time></trkpt><trkpt lat="41.23642273157076" lon="14.474791191477658"><ele>100.0</ele><time>2026-05-02T12:02:23Z</time></trkpt><trkpt lat="41.236391595522285" lon="14.475032183883947"><ele>100.0</ele><time>2026-05-02T12:02:24Z</time></trkpt><trkpt lat="41.236359758699656" lon="14.475277651147293"><ele>100.0</ele><time>2026-05-02T12:02:25Z</time></trkpt><trkpt lat="41.236319418377605" lon="14.47554913302435"><ele>101.0</ele><time>2026-05-02T12:02:26Z</time></trkpt><trkpt lat="41.236277619883786" lon="14.475794562499233"><ele>102.0</ele><time>2026-05-02T12:02:27Z</time></trkpt><trkpt lat="41.236235723586766" lon="14.47602140388544"><ele>103.0</ele><time>2026-05-02T12:02:28Z</time></trkpt><trkpt lat="41.23618964770026" lon="14.476240340686235"><ele>104.33333333333334</ele><time>2026-05-02T12:02:29Z</time></trkpt><trkpt lat="41.236115303566066" lon="14.476447655040735"><ele>105.66666666666666</ele><time>2026-05-02T12:02:30Z</time></trkpt><trkpt lat="41.23599154049422" lon="14.47667305748099"><ele>107.0</ele><time>2026-05-02T12:02:31Z</time></trkpt><trkpt lat="41.2358502505184" lon="14.476923814320248"><ele>106.66666666666666</ele><time>2026-05-02T12:02:32Z</time></trkpt><trkpt lat="41.23570498590757" lon="14.47715147181209"><ele>106.33333333333334</ele><time>2026-05-02T12:02:33Z</time></trkpt><trkpt lat="41.23557355669442" lon="14.477372233045745"><ele>106.0</ele><time>2026-05-02T12:02:34Z</time></trkpt><trkpt lat="41.23544076977153" lon="14.477599904658828"><ele>106.0</ele><time>2026-05-02T12:02:35Z</time></trkpt><trkpt lat="41.23530756549866" lon="14.477819705614012"><ele>106.0</ele><time>2026-05-02T12:02:36Z</time></trkpt><trkpt lat="41.23517671805233" lon="14.478030878059585"><ele>106.0</ele><time>2026-05-02T12:02:37Z</time></trkpt><trkpt lat="41.23505636202697" lon="14.478234292682375"><ele>105.66666666666667</ele><time>2026-05-02T12:02:38Z</time></trkpt><trkpt lat="41.23494151938927" lon="14.478414289923188"><ele>105.33333333333334</ele><time>2026-05-02T12:02:39Z</time></trkpt><trkpt lat="41.23483547864505" lon="14.47860769923533"><ele>105.0</ele><time>2026-05-02T12:02:40Z</time></trkpt><trkpt lat="41.23471806110291" lon="14.47878648303858"><ele>105.0</ele><time>2026-05-02T12:02:41Z</time></trkpt><trkpt lat="41.23461086668103" lon="14.478969415537657"><ele>105.0</ele><time>2026-05-02T12:02:42Z</time></trkpt><trkpt lat="41.23450756422928" lon="14.479175936612087"><ele>105.0</ele><time>2026-05-02T12:02:43Z</time></trkpt><trkpt lat="41.23441013382447" lon="14.479374539636535"><ele>106.33333333333334</ele><time>2026-05-02T12:02:44Z</time></trkpt><trkpt lat="41.23432918946573" lon="14.479611919530575"><ele>107.66666666666667</ele><time>2026-05-02T12:02:45Z</time></trkpt><trkpt lat="41.23425498835744" lon="14.479858418039838"><ele>109.0</ele><time>2026-05-02T12:02:46Z</time></trkpt><trkpt lat="41.234166940500685" lon="14.480117087429345"><ele>109.0</ele><time>2026-05-02T12:02:47Z</time></trkpt><trkpt lat="41.234073306100605" lon="14.480382499899159"><ele>109.0</ele><time>2026-05-02T12:02:48Z</time></trkpt><trkpt lat="41.23398892864551" lon="14.480648111326609"><ele>109.0</ele><time>2026-05-02T12:02:49Z</time></trkpt><trkpt lat="41.233908759658405" lon="14.480891850766199"><ele>107.33333333333334</ele><time>2026-05-02T12:02:50Z</time></trkpt><trkpt lat="41.23384478528108" lon="14.48111766576212"><ele>105.66666666666666</ele><time>2026-05-02T12:02:51Z</time></trkpt><trkpt lat="41.233810626797144" lon="14.481334754053131"><ele>104.0</ele><time>2026-05-02T12:02:52Z</time></trkpt><trkpt lat="41.23381847946982" lon="14.481545418120351"><ele>104.0</ele><time>2026-05-02T12:02:53Z</time></trkpt><trkpt lat="41.23385494778723" lon="14.481780399714411"><ele>104.0</ele><time>2026-05-02T12:02:54Z</time></trkpt><trkpt lat="41.23389115554891" lon="14.482034908818058"><ele>104.0</ele><time>2026-05-02T12:02:55Z</time></trkpt><trkpt lat="41.23394005788525" lon="14.48233480554752"><ele>105.5</ele><time>2026-05-02T12:02:56Z</time></trkpt><trkpt lat="41.23398661180308" lon="14.482647567287122"><ele>107.0</ele><time>2026-05-02T12:02:57Z</time></trkpt><trkpt lat="41.23403350692685" lon="14.482965962180488"><ele>107.0</ele><time>2026-05-02T12:02:58Z</time></trkpt><trkpt lat="41.23408157577745" lon="14.483280114576544"><ele>107.0</ele><time>2026-05-02T12:02:59Z</time></trkpt><trkpt lat="41.23412453213342" lon="14.483555181293301"><ele>106.33333333333333</ele><time>2026-05-02T12:03:00Z</time></trkpt><trkpt lat="41.23416947886487" lon="14.483831205766451"><ele>105.66666666666666</ele><time>2026-05-02T12:03:01Z</time></trkpt><trkpt lat="41.23420895566273" lon="14.484103299407124"><ele>105.0</ele><time>2026-05-02T12:03:02Z</time></trkpt><trkpt lat="41.23424625759555" lon="14.484377402508509"><ele>105.33333333333334</ele><time>2026-05-02T12:03:03Z</time></trkpt><trkpt lat="41.23427841960456" lon="14.484652339579181"><ele>105.66666666666667</ele><time>2026-05-02T12:03:04Z</time></trkpt><trkpt lat="41.234322491602576" lon="14.484921019281751"><ele>106.0</ele><time>2026-05-02T12:03:05Z</time></trkpt><trkpt lat="41.234385140452865" lon="14.485176761472937"><ele>106.0</ele><time>2026-05-02T12:03:06Z</time></trkpt><trkpt lat="41.234452841493855" lon="14.485416550765596"><ele>106.0</ele><time>2026-05-02T12:03:07Z</time></trkpt><trkpt lat="41.23452002214571" lon="14.485636895171858"><ele>106.0</ele><time>2026-05-02T12:03:08Z</time></trkpt><trkpt lat="41.23457682557686" lon="14.485860935176467"><ele>105.33333333333334</ele><time>2026-05-02T12:03:09Z</time></trkpt><trkpt lat="41.23462462543171" lon="14.486098063670807"><ele>104.66666666666666</ele><time>2026-05-02T12:03:10Z</time></trkpt><trkpt lat="41.23466678433424" lon="14.486347694371473"><ele>104.0</ele><time>2026-05-02T12:03:11Z</time></trkpt><trkpt lat="41.23469327462495" lon="14.486614100845012"><ele>103.33333333333333</ele><time>2026-05-02T12:03:12Z</time></trkpt><trkpt lat="41.23470797044171" lon="14.48688679613869"><ele>102.66666666666666</ele><time>2026-05-02T12:03:13Z</time></trkpt><trkpt lat="41.23471363251018" lon="14.487156544248668"><ele>102.0</ele><time>2026-05-02T12:03:14Z</time></trkpt><trkpt lat="41.23472286153732" lon="14.487426525744006"><ele>101.0</ele><time>2026-05-02T12:03:15Z</time></trkpt><trkpt lat="41.2347308286109" lon="14.48769493814247"><ele>100.0</ele><time>2026-05-02T12:03:16Z</time></trkpt><trkpt lat="41.234730285609174" lon="14.48795016148866"><ele>99.0</ele><time>2026-05-02T12:03:17Z</time></trkpt><trkpt lat="41.23473221151505" lon="14.488205244027734"><ele>99.33333333333334</ele><time>2026-05-02T12:03:18Z</time></trkpt><trkpt lat="41.23474611720556" lon="14.488447892403684"><ele>99.66666666666667</ele><time>2026-05-02T12:03:19Z</time></trkpt><trkpt lat="41.23477105498287" lon="14.488711042697684"><ele>100.0</ele><time>2026-05-02T12:03:20Z</time></trkpt><trkpt lat="41.23480973078156" lon="14.488978976788056"><ele>100.0</ele><time>2026-05-02T12:03:21Z</time></trkpt><trkpt lat="41.23485889922405" lon="14.489249635218988"><ele>100.0</ele><time>2026-05-02T12:03:22Z</time></trkpt><trkpt lat="41.23492751648589" lon="14.489519280009644"><ele>100.0</ele><time>2026-05-02T12:03:23Z</time></trkpt><trkpt lat="41.234991773991496" lon="14.489781562673892"><ele>100.0</ele><time>2026-05-02T12:03:24Z</time></trkpt><trkpt lat="41.23505463727777" lon="14.490053424508725"><ele>100.0</ele><time>2026-05-02T12:03:25Z</time></trkpt><trkpt lat="41.23511830548791" lon="14.490324433844352"><ele>100.0</ele><time>2026-05-02T12:03:26Z</time></trkpt><trkpt lat="41.235184198493414" lon="14.490600259548534"><ele>100.0</ele><time>2026-05-02T12:03:27Z</time></trkpt><trkpt lat="41.23524951575426" lon="14.490869216132138"><ele>100.0</ele><time>2026-05-02T12:03:28Z</time></trkpt><trkpt lat="41.23532374857896" lon="14.491134998135154"><ele>100.0</ele><time>2026-05-02T12:03:29Z</time></trkpt><trkpt lat="41.23539246799457" lon="14.491401331862502"><ele>99.33333333333334</ele><time>2026-05-02T12:03:30Z</time></trkpt><trkpt lat="41.23544494555902" lon="14.491656652230965"><ele>98.66666666666666</ele><time>2026-05-02T12:03:31Z</time></trkpt><trkpt lat="41.23553394387777" lon="14.491865552981231"><ele>98.0</ele><time>2026-05-02T12:03:32Z</time></trkpt><trkpt lat="41.235604634097136" lon="14.492060868500447"><ele>98.5</ele><time>2026-05-02T12:03:33Z</time></trkpt><trkpt lat="41.23567155601068" lon="14.492235177374491"><ele>99.0</ele><time>2026-05-02T12:03:34Z</time></trkpt><trkpt lat="41.2357241483885" lon="14.492396043876386"><ele>99.5</ele><time>2026-05-02T12:03:35Z</time></trkpt><trkpt lat="41.235770977279415" lon="14.492551061372591"><ele>100.0</ele><time>2026-05-02T12:03:36Z</time></trkpt><trkpt lat="41.2358207395187" lon="14.492698354753115"><ele>100.00000000000001</ele><time>2026-05-02T12:03:37Z</time></trkpt><trkpt lat="41.23585907843962" lon="14.492828438295204"><ele>100.0</ele><time>2026-05-02T12:03:38Z</time></trkpt><trkpt lat="41.23589634503824" lon="14.49294010433465"><ele>100.0</ele><time>2026-05-02T12:03:39Z</time></trkpt><trkpt lat="41.23592719724003" lon="14.493038226445758"><ele>100.0</ele><time>2026-05-02T12:03:40Z</time></trkpt><trkpt lat="41.23595287884579" lon="14.493133238742432"><ele>100.00000000000001</ele><time>2026-05-02T12:03:41Z</time></trkpt><trkpt lat="41.23597081671446" lon="14.493217339626307"><ele>100.0</ele><time>2026-05-02T12:03:42Z</time></trkpt><trkpt lat="41.235998759692926" lon="14.493307673383754"><ele>100.2</ele><time>2026-05-02T12:03:43Z</time></trkpt><trkpt lat="41.236055192912424" lon="14.493374251143102"><ele>100.4</ele><time>2026-05-02T12:03:44Z</time></trkpt><trkpt lat="41.2361401472055" lon="14.493432672222175"><ele>100.6</ele><time>2026-05-02T12:03:45Z</time></trkpt><trkpt lat="41.23624267503525" lon="14.493518360331267"><ele>100.8</ele><time>2026-05-02T12:03:46Z</time></trkpt><trkpt lat="41.23632625840088" lon="14.49365070006686"><ele>101.0</ele><time>2026-05-02T12:03:47Z</time></trkpt><trkpt lat="41.23638929149344" lon="14.493827557184499"><ele>100.0</ele><time>2026-05-02T12:03:48Z</time></trkpt><trkpt lat="41.23644680871391" lon="14.494037568302822"><ele>99.0</ele><time>2026-05-02T12:03:49Z</time></trkpt><trkpt lat="41.23651850710694" lon="14.494245505296881"><ele>98.0</ele><time>2026-05-02T12:03:50Z</time></trkpt><trkpt lat="41.23660238807736" lon="14.494437747193897"><ele>97.66666666666666</ele><time>2026-05-02T12:03:51Z</time></trkpt><trkpt lat="41.23669892436757" lon="14.49463868612254"><ele>97.33333333333334</ele><time>2026-05-02T12:03:52Z</time></trkpt><trkpt lat="41.23679632448109" lon="14.494841769706207"><ele>97.0</ele><time>2026-05-02T12:03:53Z</time></trkpt><trkpt lat="41.2368849104865" lon="14.495043964069472"><ele>97.0</ele><time>2026-05-02T12:03:54Z</time></trkpt><trkpt lat="41.23698351929757" lon="14.495225018081129"><ele>97.0</ele><time>2026-05-02T12:03:55Z</time></trkpt><trkpt lat="41.23710512356959" lon="14.495398073099317"><ele>97.0</ele><time>2026-05-02T12:03:56Z</time></trkpt><trkpt lat="41.23722319082312" lon="14.495568197026856"><ele>97.33333333333334</ele><time>2026-05-02T12:03:57Z</time></trkpt><trkpt lat="41.23733023547237" lon="14.495728081896953"><ele>97.66666666666666</ele><time>2026-05-02T12:03:58Z</time></trkpt><trkpt lat="41.23742383898174" lon="14.495910003237464"><ele>98.0</ele><time>2026-05-02T12:03:59Z</time></trkpt><trkpt lat="41.23748271191439" lon="14.496099759955978"><ele>97.25</ele><time>2026-05-02T12:04:00Z</time></trkpt><trkpt lat="41.237529909760966" lon="14.4962769614768"><ele>96.5</ele><time>2026-05-02T12:04:01Z</time></trkpt><trkpt lat="41.23756945472919" lon="14.496441710207167"><ele>95.75</ele><time>2026-05-02T12:04:02Z</time></trkpt><trkpt lat="41.237594225555355" lon="14.496613115716858"><ele>95.0</ele><time>2026-05-02T12:04:03Z</time></trkpt><trkpt lat="41.23760187080315" lon="14.49677916819639"><ele>95.0</ele><time>2026-05-02T12:04:04Z</time></trkpt><trkpt lat="41.23760803350002" lon="14.496930995457882"><ele>95.0</ele><time>2026-05-02T12:04:05Z</time></trkpt><trkpt lat="41.23761125315222" lon="14.497078410213554"><ele>95.0</ele><time>2026-05-02T12:04:06Z</time></trkpt><trkpt lat="41.23761070637915" lon="14.497216037121982"><ele>95.0</ele><time>2026-05-02T12:04:07Z</time></trkpt><trkpt lat="41.23758772983363" lon="14.497336557725722"><ele>95.0</ele><time>2026-05-02T12:04:08Z</time></trkpt><trkpt lat="41.23756347121769" lon="14.497442295238821"><ele>94.4</ele><time>2026-05-02T12:04:09Z</time></trkpt><trkpt lat="41.237598015306816" lon="14.49759159357053"><ele>93.8</ele><time>2026-05-02T12:04:11Z</time></trkpt><trkpt lat="41.23768595671628" lon="14.497697646433947"><ele>93.19999999999999</ele><time>2026-05-02T12:04:13Z</time></trkpt><trkpt lat="41.23777682622005" lon="14.49776579510689"><ele>92.6</ele><time>2026-05-02T12:04:15Z</time></trkpt><trkpt lat="41.23787190152902" lon="14.497826448933377"><ele>92.0</ele><time>2026-05-02T12:04:17Z</time></trkpt><trkpt lat="41.237931706512825" lon="14.497874932159034"><ele>92.0</ele><time>2026-05-02T12:04:18Z</time></trkpt><trkpt lat="41.237999931372606" lon="14.497910639603788"><ele>92.0</ele><time>2026-05-02T12:04:19Z</time></trkpt><trkpt lat="41.23806754449189" lon="14.49795168665466"><ele>92.0</ele><time>2026-05-02T12:04:20Z</time></trkpt><trkpt lat="41.238129957543386" lon="14.4980070978575"><ele>92.0</ele><time>2026-05-02T12:04:21Z</time></trkpt><trkpt lat="41.23817839855518" lon="14.498067203812916"><ele>92.0</ele><time>2026-05-02T12:04:22Z</time></trkpt><trkpt lat="41.238219913651704" lon="14.498139308237292"><ele>92.0</ele><time>2026-05-02T12:04:23Z</time></trkpt><trkpt lat="41.238252108772386" lon="14.498234994588627"><ele>92.0</ele><time>2026-05-02T12:04:24Z</time></trkpt><trkpt lat="41.238254167169146" lon="14.498364491304761"><ele>92.0</ele><time>2026-05-02T12:04:25Z</time></trkpt><trkpt lat="41.238260126024265" lon="14.498495306393195"><ele>92.0</ele><time>2026-05-02T12:04:26Z</time></trkpt><trkpt lat="41.23827099859464" lon="14.498632979999664"><ele>92.0</ele><time>2026-05-02T12:04:27Z</time></trkpt><trkpt lat="41.23829995322446" lon="14.498787374944273"><ele>92.0</ele><time>2026-05-02T12:04:28Z</time></trkpt><trkpt lat="41.23832656544319" lon="14.498920884036108"><ele>92.0</ele><time>2026-05-02T12:04:29Z</time></trkpt><trkpt lat="41.23836150734383" lon="14.499026496614784"><ele>93.0</ele><time>2026-05-02T12:04:30Z</time></trkpt><trkpt lat="41.23837678661487" lon="14.499125330364222"><ele>94.0</ele><time>2026-05-02T12:04:31Z</time></trkpt><trkpt lat="41.23830972862312" lon="14.499244916168921"><ele>95.0</ele><time>2026-05-02T12:04:33Z</time></trkpt><trkpt lat="41.2381665825526" lon="14.499276609329232"><ele>96.0</ele><time>2026-05-02T12:04:35Z</time></trkpt><trkpt lat="41.23807740274367" lon="14.499315953997996"><ele>97.0</ele><time>2026-05-02T12:04:36Z</time></trkpt><trkpt lat="41.2380221791365" lon="14.49938123858756"><ele>97.0</ele><time>2026-05-02T12:04:37Z</time></trkpt><trkpt lat="41.237946913366684" lon="14.499407359321754"><ele>97.0</ele><time>2026-05-02T12:04:39Z</time></trkpt><trkpt lat="41.23801271278964" lon="14.499411614559437"><ele>97.0</ele><time>2026-05-02T12:04:42Z</time></trkpt><trkpt lat="41.238139525861726" lon="14.499536889230319"><ele>97.0</ele><time>2026-05-02T12:04:43Z</time></trkpt><trkpt lat="41.23825794585518" lon="14.499580172651672"><ele>97.0</ele><time>2026-05-02T12:04:44Z</time></trkpt><trkpt lat="41.238361595083525" lon="14.499624263611977"><ele>97.25</ele><time>2026-05-02T12:04:45Z</time></trkpt><trkpt lat="41.2384761458373" lon="14.49967096414377"><ele>97.5</ele><time>2026-05-02T12:04:46Z</time></trkpt><trkpt lat="41.238617134608624" lon="14.499735484399483"><ele>97.75</ele><time>2026-05-02T12:04:47Z</time></trkpt><trkpt lat="41.23875860612234" lon="14.499812889563778"><ele>98.0</ele><time>2026-05-02T12:04:48Z</time></trkpt><trkpt lat="41.2389100514641" lon="14.499879390340286"><ele>99.33333333333333</ele><time>2026-05-02T12:04:49Z</time></trkpt><trkpt lat="41.239062969447176" lon="14.499946518123947"><ele>100.66666666666666</ele><time>2026-05-02T12:04:50Z</time></trkpt><trkpt lat="41.2392151852174" lon="14.500015941996349"><ele>102.0</ele><time>2026-05-02T12:04:51Z</time></trkpt><trkpt lat="41.23936817117892" lon="14.500088399532403"><ele>102.0</ele><time>2026-05-02T12:04:52Z</time></trkpt><trkpt lat="41.23952591208841" lon="14.500161503036889"><ele>102.0</ele><time>2026-05-02T12:04:53Z</time></trkpt><trkpt lat="41.23968177514755" lon="14.500232379720337"><ele>102.0</ele><time>2026-05-02T12:04:54Z</time></trkpt><trkpt lat="41.23984015053372" lon="14.5003043988332"><ele>102.33333333333334</ele><time>2026-05-02T12:04:55Z</time></trkpt><trkpt lat="41.240004019457395" lon="14.500357054255632"><ele>102.66666666666667</ele><time>2026-05-02T12:04:56Z</time></trkpt><trkpt lat="41.24017486132918" lon="14.500441341697748"><ele>103.0</ele><time>2026-05-02T12:04:57Z</time></trkpt><trkpt lat="41.24034113944628" lon="14.500520323945967"><ele>106.66666666666667</ele><time>2026-05-02T12:04:58Z</time></trkpt><trkpt lat="41.240487889522896" lon="14.500599560571604"><ele>110.33333333333334</ele><time>2026-05-02T12:04:59Z</time></trkpt><trkpt lat="41.24063965809377" lon="14.500675631254305"><ele>114.0</ele><time>2026-05-02T12:05:00Z</time></trkpt><trkpt lat="41.24079096461496" lon="14.500752434210426"><ele>114.0</ele><time>2026-05-02T12:05:01Z</time></trkpt><trkpt lat="41.240941104781314" lon="14.500838524586552"><ele>114.0</ele><time>2026-05-02T12:05:02Z</time></trkpt><trkpt lat="41.24109106392662" lon="14.500926160343907"><ele>114.0</ele><time>2026-05-02T12:05:03Z</time></trkpt><trkpt lat="41.24124281071667" lon="14.5010194209694"><ele>114.0</ele><time>2026-05-02T12:05:04Z</time></trkpt><trkpt lat="41.24139493906778" lon="14.501109986002037"><ele>114.0</ele><time>2026-05-02T12:05:05Z</time></trkpt><trkpt lat="41.241544059977564" lon="14.501228700074616"><ele>114.0</ele><time>2026-05-02T12:05:06Z</time></trkpt><trkpt lat="41.24170547156251" lon="14.501342736075634"><ele>116.33333333333334</ele><time>2026-05-02T12:05:07Z</time></trkpt><trkpt lat="41.24186547930045" lon="14.50147967502106"><ele>118.66666666666667</ele><time>2026-05-02T12:05:08Z</time></trkpt><trkpt lat="41.24198967130117" lon="14.501658234288797"><ele>121.0</ele><time>2026-05-02T12:05:09Z</time></trkpt><trkpt lat="41.24209887774568" lon="14.501893438707464"><ele>119.66666666666667</ele><time>2026-05-02T12:05:10Z</time></trkpt><trkpt lat="41.24220492359689" lon="14.502141831192187"><ele>118.33333333333334</ele><time>2026-05-02T12:05:11Z</time></trkpt><trkpt lat="41.2423025642801" lon="14.502385750831237"><ele>117.0</ele><time>2026-05-02T12:05:12Z</time></trkpt><trkpt lat="41.242412545992764" lon="14.502610283542307"><ele>117.0</ele><time>2026-05-02T12:05:13Z</time></trkpt><trkpt lat="41.24252070299721" lon="14.502863768459925"><ele>117.0</ele><time>2026-05-02T12:05:14Z</time></trkpt><trkpt lat="41.242635652637354" lon="14.503102967908465"><ele>117.0</ele><time>2026-05-02T12:05:15Z</time></trkpt><trkpt lat="41.24275722480982" lon="14.503324958091444"><ele>118.0</ele><time>2026-05-02T12:05:16Z</time></trkpt><trkpt lat="41.24286973983387" lon="14.503539797783855"><ele>119.0</ele><time>2026-05-02T12:05:17Z</time></trkpt><trkpt lat="41.242978800695575" lon="14.503749758008041"><ele>120.0</ele><time>2026-05-02T12:05:18Z</time></trkpt><trkpt lat="41.243084118782015" lon="14.503971959596143"><ele>119.33333333333334</ele><time>2026-05-02T12:05:19Z</time></trkpt><trkpt lat="41.24321193250364" lon="14.504195983993112"><ele>118.66666666666667</ele><time>2026-05-02T12:05:20Z</time></trkpt><trkpt lat="41.243365038920494" lon="14.504411088929134"><ele>118.0</ele><time>2026-05-02T12:05:21Z</time></trkpt><trkpt lat="41.24352405706179" lon="14.504618939699759"><ele>121.0</ele><time>2026-05-02T12:05:22Z</time></trkpt><trkpt lat="41.243686196606156" lon="14.504837882675954"><ele>124.0</ele><time>2026-05-02T12:05:23Z</time></trkpt><trkpt lat="41.24385580887106" lon="14.505073502259366"><ele>124.0</ele><time>2026-05-02T12:05:24Z</time></trkpt><trkpt lat="41.24402945867807" lon="14.50531473049712"><ele>124.0</ele><time>2026-05-02T12:05:25Z</time></trkpt><trkpt lat="41.244208071842706" lon="14.505563211183715"><ele>124.0</ele><time>2026-05-02T12:05:26Z</time></trkpt><trkpt lat="41.24439517815146" lon="14.505829445785945"><ele>124.0</ele><time>2026-05-02T12:05:27Z</time></trkpt><trkpt lat="41.244584006827814" lon="14.506104660837757"><ele>125.5</ele><time>2026-05-02T12:05:28Z</time></trkpt><trkpt lat="41.24476212253858" lon="14.506375042377725"><ele>127.0</ele><time>2026-05-02T12:05:29Z</time></trkpt><trkpt lat="41.24493442487547" lon="14.506641407911202"><ele>127.0</ele><time>2026-05-02T12:05:30Z</time></trkpt><trkpt lat="41.24510316252826" lon="14.506883931544614"><ele>127.0</ele><time>2026-05-02T12:05:31Z</time></trkpt><trkpt lat="41.24524041675616" lon="14.50711555823466"><ele>128.66666666666669</ele><time>2026-05-02T12:05:32Z</time></trkpt><trkpt lat="41.245384826918304" lon="14.507308975055317"><ele>130.33333333333334</ele><time>2026-05-02T12:05:33Z</time></trkpt><trkpt lat="41.245503038409005" lon="14.507501510483761"><ele>132.0</ele><time>2026-05-02T12:05:34Z</time></trkpt><trkpt lat="41.24563095433923" lon="14.507683460492974"><ele>132.0</ele><time>2026-05-02T12:05:35Z</time></trkpt><trkpt lat="41.245715777409565" lon="14.507847412536718"><ele>132.0</ele><time>2026-05-02T12:05:36Z</time></trkpt><trkpt lat="41.24575689534065" lon="14.507976094290527"><ele>132.0</ele><time>2026-05-02T12:05:37Z</time></trkpt><trkpt lat="41.24574990241386" lon="14.508092462386543"><ele>132.0</ele><time>2026-05-02T12:05:38Z</time></trkpt><trkpt lat="41.245688577715654" lon="14.508200888527004"><ele>132.0</ele><time>2026-05-02T12:05:39Z</time></trkpt><trkpt lat="41.24559377476466" lon="14.508322591126955"><ele>135.66666666666666</ele><time>2026-05-02T12:05:40Z</time></trkpt><trkpt lat="41.24547943532087" lon="14.508508137965467"><ele>139.33333333333331</ele><time>2026-05-02T12:05:41Z</time></trkpt><trkpt lat="41.24536735529321" lon="14.508711991795568"><ele>143.0</ele><time>2026-05-02T12:05:42Z</time></trkpt><trkpt lat="41.24527416140565" lon="14.508922585923067"><ele>144.0</ele><time>2026-05-02T12:05:43Z</time></trkpt><trkpt lat="41.245181562326884" lon="14.509145770031742"><ele>145.0</ele><time>2026-05-02T12:05:44Z</time></trkpt><trkpt lat="41.24509904624643" lon="14.50937877960007"><ele>146.0</ele><time>2026-05-02T12:05:45Z</time></trkpt><trkpt lat="41.24500772148623" lon="14.509589932702385"><ele>146.66666666666666</ele><time>2026-05-02T12:05:46Z</time></trkpt><trkpt lat="41.244951090530314" lon="14.509789856612139"><ele>147.33333333333334</ele><time>2026-05-02T12:05:47Z</time></trkpt><trkpt lat="41.24494323891072" lon="14.510012561965597"><ele>148.0</ele><time>2026-05-02T12:05:48Z</time></trkpt><trkpt lat="41.244977811187546" lon="14.510227903498057"><ele>149.25</ele><time>2026-05-02T12:05:49Z</time></trkpt><trkpt lat="41.24501240637727" lon="14.51042214603435"><ele>150.5</ele><time>2026-05-02T12:05:50Z</time></trkpt><trkpt lat="41.24507937265721" lon="14.510585195091263"><ele>151.75</ele><time>2026-05-02T12:05:51Z</time></trkpt><trkpt lat="41.245176966295865" lon="14.510724689716005"><ele>153.0</ele><time>2026-05-02T12:05:52Z</time></trkpt><trkpt lat="41.24527794621479" lon="14.510865457095893"><ele>153.0</ele><time>2026-05-02T12:05:53Z</time></trkpt><trkpt lat="41.245357586319166" lon="14.510984484803405"><ele>153.0</ele><time>2026-05-02T12:05:54Z</time></trkpt><trkpt lat="41.24541032144244" lon="14.511082872020193"><ele>153.0</ele><time>2026-05-02T12:05:55Z</time></trkpt><trkpt lat="41.24539438403129" lon="14.511216622152451"><ele>153.0</ele><time>2026-05-02T12:05:56Z</time></trkpt><trkpt lat="41.24526214406454" lon="14.511307061473868"><ele>154.75</ele><time>2026-05-02T12:05:57Z</time></trkpt><trkpt lat="41.245159511055796" lon="14.511444511925244"><ele>156.5</ele><time>2026-05-02T12:05:58Z</time></trkpt><trkpt lat="41.24504834414152" lon="14.511580702030491"><ele>158.25</ele><time>2026-05-02T12:05:59Z</time></trkpt><trkpt lat="41.24496125694205" lon="14.511688219921155"><ele>160.0</ele><time>2026-05-02T12:06:00Z</time></trkpt><trkpt lat="41.244898058073716" lon="14.511787254906263"><ele>160.0</ele><time>2026-05-02T12:06:01Z</time></trkpt><trkpt lat="41.24486330813846" lon="14.511895936055039"><ele>160.0</ele><time>2026-05-02T12:06:02Z</time></trkpt><trkpt lat="41.24487934553013" lon="14.512036111817318"><ele>160.0</ele><time>2026-05-02T12:06:03Z</time></trkpt><trkpt lat="41.24490514354475" lon="14.512176130549003"><ele>160.0</ele><time>2026-05-02T12:06:04Z</time></trkpt><trkpt lat="41.24491561172389" lon="14.512283601364958"><ele>160.0</ele><time>2026-05-02T12:06:05Z</time></trkpt><trkpt lat="41.245220838278655" lon="14.512258057469065"><ele>161.0</ele><time>2026-05-02T12:06:06Z</time></trkpt><trkpt lat="41.245375749197024" lon="14.512210960950167"><ele>162.0</ele><time>2026-05-02T12:06:07Z</time></trkpt><trkpt lat="41.24555754865009" lon="14.512135592431875"><ele>163.0</ele><time>2026-05-02T12:06:08Z</time></trkpt><trkpt lat="41.24577745874263" lon="14.512070072411566"><ele>164.33333333333334</ele><time>2026-05-02T12:06:09Z</time></trkpt><trkpt lat="41.2459840385746" lon="14.512011399403187"><ele>165.66666666666666</ele><time>2026-05-02T12:06:10Z</time></trkpt><trkpt lat="41.24616132616149" lon="14.512008389755582"><ele>167.0</ele><time>2026-05-02T12:06:11Z</time></trkpt><trkpt lat="41.246325010891404" lon="14.51205791052683"><ele>169.33333333333331</ele><time>2026-05-02T12:06:12Z</time></trkpt><trkpt lat="41.24647886841564" lon="14.512115121365984"><ele>171.66666666666666</ele><time>2026-05-02T12:06:13Z</time></trkpt><trkpt lat="41.24663857672835" lon="14.512104473890027"><ele>174.0</ele><time>2026-05-02T12:06:14Z</time></trkpt><trkpt lat="41.246773179419236" lon="14.512037211341317"><ele>174.0</ele><time>2026-05-02T12:06:15Z</time></trkpt><trkpt lat="41.246894849063054" lon="14.511893325376372"><ele>174.0</ele><time>2026-05-02T12:06:16Z</time></trkpt><trkpt lat="41.24700460552989" lon="14.51170424482207"><ele>174.0</ele><time>2026-05-02T12:06:17Z</time></trkpt><trkpt lat="41.24711172576407" lon="14.511552304922787"><ele>174.0</ele><time>2026-05-02T12:06:18Z</time></trkpt><trkpt lat="41.24724575994204" lon="14.511462042962021"><ele>174.0</ele><time>2026-05-02T12:06:19Z</time></trkpt><trkpt lat="41.2474003605209" lon="14.511425979351225"><ele>174.0</ele><time>2026-05-02T12:06:20Z</time></trkpt><trkpt lat="41.24751950086207" lon="14.511403391931822"><ele>174.0</ele><time>2026-05-02T12:06:21Z</time></trkpt><trkpt lat="41.247595816735455" lon="14.511412751846377"><ele>177.25</ele><time>2026-05-02T12:06:22Z</time></trkpt><trkpt lat="41.24763077087826" lon="14.511511164974337"><ele>180.5</ele><time>2026-05-02T12:06:23Z</time></trkpt><trkpt lat="41.24761235280269" lon="14.511639409677596"><ele>183.75</ele><time>2026-05-02T12:06:24Z</time></trkpt><trkpt lat="41.24754595368687" lon="14.51177942123449"><ele>187.0</ele><time>2026-05-02T12:06:25Z</time></trkpt><trkpt lat="41.24744134638159" lon="14.511931225778342"><ele>185.75</ele><time>2026-05-02T12:06:26Z</time></trkpt><trkpt lat="41.24734583334436" lon="14.512077357444365"><ele>184.5</ele><time>2026-05-02T12:06:27Z</time></trkpt><trkpt lat="41.24727177148414" lon="14.512221301425162"><ele>183.25</ele><time>2026-05-02T12:06:28Z</time></trkpt><trkpt lat="41.24722760985543" lon="14.512342039035723"><ele>182.0</ele><time>2026-05-02T12:06:29Z</time></trkpt><trkpt lat="41.24722563453684" lon="14.512461329133151"><ele>182.0</ele><time>2026-05-02T12:06:30Z</time></trkpt><trkpt lat="41.24728180607861" lon="14.512574150001594"><ele>182.0</ele><time>2026-05-02T12:06:31Z</time></trkpt><trkpt lat="41.24738437991512" lon="14.512628359697059"><ele>182.0</ele><time>2026-05-02T12:06:32Z</time></trkpt><trkpt lat="41.247499904561174" lon="14.512590512582047"><ele>182.0</ele><time>2026-05-02T12:06:33Z</time></trkpt><trkpt lat="41.24758921386834" lon="14.512500060940539"><ele>182.0</ele><time>2026-05-02T12:06:34Z</time></trkpt><trkpt lat="41.247684241955525" lon="14.51235252813753"><ele>183.66666666666666</ele><time>2026-05-02T12:06:35Z</time></trkpt><trkpt lat="41.24780229634904" lon="14.512184629031944"><ele>185.33333333333334</ele><time>2026-05-02T12:06:36Z</time></trkpt><trkpt lat="41.247927781651185" lon="14.51205017959591"><ele>187.0</ele><time>2026-05-02T12:06:37Z</time></trkpt><trkpt lat="41.24804954893015" lon="14.511960957875761"><ele>189.5</ele><time>2026-05-02T12:06:38Z</time></trkpt><trkpt lat="41.248181214578786" lon="14.511902811177595"><ele>192.0</ele><time>2026-05-02T12:06:39Z</time></trkpt><trkpt lat="41.24832675121173" lon="14.511901620352912"><ele>194.5</ele><time>2026-05-02T12:06:40Z</time></trkpt><trkpt lat="41.24847995766988" lon="14.511958571051318"><ele>197.0</ele><time>2026-05-02T12:06:41Z</time></trkpt><trkpt lat="41.24864874162864" lon="14.512063664974212"><ele>201.0</ele><time>2026-05-02T12:06:42Z</time></trkpt><trkpt lat="41.24883842803361" lon="14.512205250696258"><ele>205.0</ele><time>2026-05-02T12:06:43Z</time></trkpt><trkpt lat="41.24901322120933" lon="14.512333984471832"><ele>209.0</ele><time>2026-05-02T12:06:44Z</time></trkpt><trkpt lat="41.24919727676843" lon="14.51244215096541"><ele>210.33333333333334</ele><time>2026-05-02T12:06:45Z</time></trkpt><trkpt lat="41.24935758367394" lon="14.51253336932551"><ele>211.66666666666669</ele><time>2026-05-02T12:06:46Z</time></trkpt><trkpt lat="41.249510433788416" lon="14.512591485483945"><ele>213.0</ele><time>2026-05-02T12:06:47Z</time></trkpt><trkpt lat="41.24967970203255" lon="14.51259305831653"><ele>214.25</ele><time>2026-05-02T12:06:48Z</time></trkpt><trkpt lat="41.24984166116504" lon="14.512536334443158"><ele>215.5</ele><time>2026-05-02T12:06:49Z</time></trkpt><trkpt lat="41.249967947672666" lon="14.512530326960345"><ele>216.75</ele><time>2026-05-02T12:06:50Z</time></trkpt><trkpt lat="41.25009129130663" lon="14.512595504823542"><ele>218.0</ele><time>2026-05-02T12:06:51Z</time></trkpt><trkpt lat="41.2502315364488" lon="14.512671116776898"><ele>218.0</ele><time>2026-05-02T12:06:52Z</time></trkpt><trkpt lat="41.25041566123689" lon="14.512760159498951"><ele>218.0</ele><time>2026-05-02T12:06:53Z</time></trkpt><trkpt lat="41.25058916314963" lon="14.512867926530795"><ele>218.0</ele><time>2026-05-02T12:06:54Z</time></trkpt><trkpt lat="41.25078293802831" lon="14.51296928606688"><ele>222.33333333333334</ele><time>2026-05-02T12:06:55Z</time></trkpt><trkpt lat="41.25096267760686" lon="14.513078691119643"><ele>226.66666666666669</ele><time>2026-05-02T12:06:56Z</time></trkpt><trkpt lat="41.251156721988146" lon="14.513187876206885"><ele>231.0</ele><time>2026-05-02T12:06:57Z</time></trkpt><trkpt lat="41.25132692142844" lon="14.513320867912427"><ele>232.66666666666669</ele><time>2026-05-02T12:06:58Z</time></trkpt><trkpt lat="41.25150321709261" lon="14.513462473705346"><ele>234.33333333333334</ele><time>2026-05-02T12:06:59Z</time></trkpt><trkpt lat="41.25167133567133" lon="14.513650432081931"><ele>236.0</ele><time>2026-05-02T12:07:00Z</time></trkpt><trkpt lat="41.25183747968645" lon="14.513840963311472"><ele>236.66666666666669</ele><time>2026-05-02T12:07:01Z</time></trkpt><trkpt lat="41.25198783377731" lon="14.514008980791827"><ele>237.33333333333331</ele><time>2026-05-02T12:07:02Z</time></trkpt><trkpt lat="41.25212641785839" lon="14.5141397424077"><ele>238.0</ele><time>2026-05-02T12:07:03Z</time></trkpt><trkpt lat="41.2522401269064" lon="14.514267677939864"><ele>238.25</ele><time>2026-05-02T12:07:04Z</time></trkpt><trkpt lat="41.25233424478804" lon="14.514368905806142"><ele>238.5</ele><time>2026-05-02T12:07:05Z</time></trkpt><trkpt lat="41.25241939472187" lon="14.514452354231377"><ele>238.75</ele><time>2026-05-02T12:07:06Z</time></trkpt><trkpt lat="41.25252465216393" lon="14.514511698360238"><ele>239.0</ele><time>2026-05-02T12:07:07Z</time></trkpt><trkpt lat="41.252655310887576" lon="14.514556475596873"><ele>238.66666666666669</ele><time>2026-05-02T12:07:08Z</time></trkpt><trkpt lat="41.25280626586059" lon="14.514622335343981"><ele>238.33333333333331</ele><time>2026-05-02T12:07:09Z</time></trkpt><trkpt lat="41.25297285633799" lon="14.514675949636795"><ele>238.0</ele><time>2026-05-02T12:07:10Z</time></trkpt><trkpt lat="41.25314890045871" lon="14.514720683095337"><ele>237.0</ele><time>2026-05-02T12:07:11Z</time></trkpt><trkpt lat="41.25331419508948" lon="14.514837066873067"><ele>236.0</ele><time>2026-05-02T12:07:12Z</time></trkpt><trkpt lat="41.2534850379483" lon="14.51495501345485"><ele>235.0</ele><time>2026-05-02T12:07:13Z</time></trkpt><trkpt lat="41.2536644970555" lon="14.51508465796249"><ele>235.0</ele><time>2026-05-02T12:07:14Z</time></trkpt><trkpt lat="41.25385490950371" lon="14.515202939691319"><ele>235.0</ele><time>2026-05-02T12:07:15Z</time></trkpt><trkpt lat="41.25404696407557" lon="14.515340268426108"><ele>235.0</ele><time>2026-05-02T12:07:16Z</time></trkpt><trkpt lat="41.254236595956186" lon="14.515476493820112"><ele>230.33333333333331</ele><time>2026-05-02T12:07:17Z</time></trkpt><trkpt lat="41.25441480635309" lon="14.515605892843023"><ele>225.66666666666669</ele><time>2026-05-02T12:07:18Z</time></trkpt><trkpt lat="41.25457666222266" lon="14.515732715872842"><ele>221.0</ele><time>2026-05-02T12:07:19Z</time></trkpt><trkpt lat="41.254734325738774" lon="14.515845878329696"><ele>220.0</ele><time>2026-05-02T12:07:20Z</time></trkpt><trkpt lat="41.25489775170599" lon="14.515937629802261"><ele>219.0</ele><time>2026-05-02T12:07:21Z</time></trkpt><trkpt lat="41.25505978540203" lon="14.515994616901146"><ele>218.0</ele><time>2026-05-02T12:07:22Z</time></trkpt><trkpt lat="41.25523666614226" lon="14.51600781340249"><ele>218.0</ele><time>2026-05-02T12:07:23Z</time></trkpt><trkpt lat="41.25539974618695" lon="14.515993990238906"><ele>218.0</ele><time>2026-05-02T12:07:24Z</time></trkpt><trkpt lat="41.25555257671928" lon="14.515981944356987"><ele>218.0</ele><time>2026-05-02T12:07:25Z</time></trkpt><trkpt lat="41.25569132640345" lon="14.51593932058346"><ele>216.0</ele><time>2026-05-02T12:07:26Z</time></trkpt><trkpt lat="41.25580898370897" lon="14.515875355226623"><ele>214.0</ele><time>2026-05-02T12:07:27Z</time></trkpt><trkpt lat="41.2559075298626" lon="14.515837064727936"><ele>212.0</ele><time>2026-05-02T12:07:28Z</time></trkpt><trkpt lat="41.25601292810335" lon="14.51580604364579"><ele>210.0</ele><time>2026-05-02T12:07:29Z</time></trkpt><trkpt lat="41.25611485703796" lon="14.515790698849933"><ele>208.0</ele><time>2026-05-02T12:07:30Z</time></trkpt><trkpt lat="41.25621656916868" lon="14.515803341948633"><ele>207.99999999999997</ele><time>2026-05-02T12:07:31Z</time></trkpt><trkpt lat="41.25628842558447" lon="14.515836914024097"><ele>208.0</ele><time>2026-05-02T12:07:32Z</time></trkpt><trkpt lat="41.256393948552585" lon="14.515877652225692"><ele>208.0</ele><time>2026-05-02T12:07:34Z</time></trkpt><trkpt lat="41.25646122292732" lon="14.5159519187301"><ele>208.0</ele><time>2026-05-02T12:07:36Z</time></trkpt><trkpt lat="41.25654589484477" lon="14.515999504636492"><ele>207.99999999999997</ele><time>2026-05-02T12:07:43Z</time></trkpt><trkpt lat="41.256610310745764" lon="14.516070696007743"><ele>208.0</ele><time>2026-05-02T12:07:44Z</time></trkpt><trkpt lat="41.25668690877116" lon="14.51613475075362"><ele>206.5</ele><time>2026-05-02T12:07:45Z</time></trkpt><trkpt lat="41.25678714811962" lon="14.516218076463874"><ele>205.0</ele><time>2026-05-02T12:07:46Z</time></trkpt><trkpt lat="41.25691760073706" lon="14.516327099094552"><ele>203.5</ele><time>2026-05-02T12:07:47Z</time></trkpt><trkpt lat="41.25706292954407" lon="14.516449142208655"><ele>202.0</ele><time>2026-05-02T12:07:48Z</time></trkpt><trkpt lat="41.25721751106867" lon="14.516578955499286"><ele>200.0</ele><time>2026-05-02T12:07:49Z</time></trkpt><trkpt lat="41.25739236055656" lon="14.516701823438256"><ele>198.0</ele><time>2026-05-02T12:07:50Z</time></trkpt><trkpt lat="41.2575621233825" lon="14.516859562735519"><ele>196.0</ele><time>2026-05-02T12:07:51Z</time></trkpt><trkpt lat="41.257740977914274" lon="14.517004611115416"><ele>195.0</ele><time>2026-05-02T12:07:52Z</time></trkpt><trkpt lat="41.2579264544901" lon="14.517158926976103"><ele>194.0</ele><time>2026-05-02T12:07:53Z</time></trkpt><trkpt lat="41.258116857772144" lon="14.517312299515858"><ele>193.0</ele><time>2026-05-02T12:07:54Z</time></trkpt><trkpt lat="41.258305941229054" lon="14.517473013076414"><ele>192.0</ele><time>2026-05-02T12:07:55Z</time></trkpt><trkpt lat="41.25849298405774" lon="14.5176337544435"><ele>191.0</ele><time>2026-05-02T12:07:56Z</time></trkpt><trkpt lat="41.25868723618066" lon="14.517815812416497"><ele>191.33333333333331</ele><time>2026-05-02T12:07:57Z</time></trkpt><trkpt lat="41.258867179419184" lon="14.517962921956201"><ele>191.66666666666666</ele><time>2026-05-02T12:07:58Z</time></trkpt><trkpt lat="41.25905424786605" lon="14.518139624722641"><ele>192.0</ele><time>2026-05-02T12:07:59Z</time></trkpt><trkpt lat="41.25923594426976" lon="14.518329152265958"><ele>191.66666666666666</ele><time>2026-05-02T12:08:00Z</time></trkpt><trkpt lat="41.25940907918322" lon="14.518487893513159"><ele>191.33333333333331</ele><time>2026-05-02T12:08:01Z</time></trkpt><trkpt lat="41.25956405153113" lon="14.51861991748874"><ele>191.0</ele><time>2026-05-02T12:08:02Z</time></trkpt><trkpt lat="41.25970611178855" lon="14.518750181024869"><ele>191.0</ele><time>2026-05-02T12:08:03Z</time></trkpt><trkpt lat="41.25984354389402" lon="14.51888367128831"><ele>191.0</ele><time>2026-05-02T12:08:04Z</time></trkpt><trkpt lat="41.25998410965341" lon="14.519026973118164"><ele>191.0</ele><time>2026-05-02T12:08:05.001Z</time></trkpt><trkpt lat="41.26012538009687" lon="14.51917649697237"><ele>191.0</ele><time>2026-05-02T12:08:06.001Z</time></trkpt><trkpt lat="41.26025538893502" lon="14.519361467096374"><ele>191.0</ele><time>2026-05-02T12:08:07.001Z</time></trkpt><trkpt lat="41.26035934080375" lon="14.519584429426038"><ele>191.0</ele><time>2026-05-02T12:08:08.001Z</time></trkpt><trkpt lat="41.26047857636185" lon="14.519809686315776"><ele>190.66666666666666</ele><time>2026-05-02T12:08:09.001Z</time></trkpt><trkpt lat="41.26060489857481" lon="14.520028902249596"><ele>190.33333333333334</ele><time>2026-05-02T12:08:10.001Z</time></trkpt><trkpt lat="41.26073059249178" lon="14.520265537456325"><ele>190.0</ele><time>2026-05-02T12:08:11.001Z</time></trkpt><trkpt lat="41.260860124218354" lon="14.520507874809006"><ele>189.0</ele><time>2026-05-02T12:08:12.001Z</time></trkpt><trkpt lat="41.26098971423477" lon="14.520753325471494"><ele>188.0</ele><time>2026-05-02T12:08:13.001Z</time></trkpt><trkpt lat="41.26111271931376" lon="14.52101627910311"><ele>188.0</ele><time>2026-05-02T12:08:14.001Z</time></trkpt><trkpt lat="41.26125901828001" lon="14.52125483618696"><ele>188.0</ele><time>2026-05-02T12:08:15.001Z</time></trkpt><trkpt lat="41.26139485900643" lon="14.521507920655086"><ele>187.66666666666666</ele><time>2026-05-02T12:08:16Z</time></trkpt><trkpt lat="41.26151132327429" lon="14.521734523997292"><ele>187.33333333333334</ele><time>2026-05-02T12:08:17Z</time></trkpt><trkpt lat="41.261605455424295" lon="14.521908470030185"><ele>187.0</ele><time>2026-05-02T12:08:18Z</time></trkpt><trkpt lat="41.26168177920452" lon="14.522083246041676"><ele>187.0</ele><time>2026-05-02T12:08:19Z</time></trkpt><trkpt lat="41.26175857205045" lon="14.522224456140451"><ele>187.0</ele><time>2026-05-02T12:08:20Z</time></trkpt><trkpt lat="41.261848413387135" lon="14.522354754602226"><ele>187.0</ele><time>2026-05-02T12:08:21Z</time></trkpt><trkpt lat="41.2619251088881" lon="14.522507720417039"><ele>187.0</ele><time>2026-05-02T12:08:22Z</time></trkpt><trkpt lat="41.262013039643705" lon="14.522683553013854"><ele>187.0</ele><time>2026-05-02T12:08:23Z</time></trkpt><trkpt lat="41.26210147218444" lon="14.522869374866863"><ele>187.0</ele><time>2026-05-02T12:08:24Z</time></trkpt><trkpt lat="41.26220304187715" lon="14.523064474210631"><ele>187.0</ele><time>2026-05-02T12:08:25Z</time></trkpt><trkpt lat="41.262304023693424" lon="14.52325957955953"><ele>187.33333333333334</ele><time>2026-05-02T12:08:26Z</time></trkpt><trkpt lat="41.2624122361753" lon="14.52346171956993"><ele>187.66666666666666</ele><time>2026-05-02T12:08:27Z</time></trkpt><trkpt lat="41.26252038144588" lon="14.523661430868167"><ele>188.0</ele><time>2026-05-02T12:08:28Z</time></trkpt><trkpt lat="41.2626317692124" lon="14.523865152879505"><ele>188.0</ele><time>2026-05-02T12:08:29Z</time></trkpt><trkpt lat="41.26274639333609" lon="14.524067248429157"><ele>188.0</ele><time>2026-05-02T12:08:30Z</time></trkpt><trkpt lat="41.26285840452123" lon="14.52426928630817"><ele>188.0</ele><time>2026-05-02T12:08:31Z</time></trkpt><trkpt lat="41.26298084687683" lon="14.524494297602345"><ele>188.0</ele><time>2026-05-02T12:08:32Z</time></trkpt><trkpt lat="41.263099016494664" lon="14.524720155453013"><ele>188.0</ele><time>2026-05-02T12:08:33Z</time></trkpt><trkpt lat="41.26321077054338" lon="14.52494399477675"><ele>188.0</ele><time>2026-05-02T12:08:34Z</time></trkpt><trkpt lat="41.26333434052172" lon="14.525170999213291"><ele>187.66666666666666</ele><time>2026-05-02T12:08:35Z</time></trkpt><trkpt lat="41.26346530727616" lon="14.525405680454513"><ele>187.33333333333334</ele><time>2026-05-02T12:08:36Z</time></trkpt><trkpt lat="41.263595680077046" lon="14.525646880093847"><ele>187.0</ele><time>2026-05-02T12:08:37Z</time></trkpt><trkpt lat="41.263725872115415" lon="14.525890317930779"><ele>187.0</ele><time>2026-05-02T12:08:38Z</time></trkpt><trkpt lat="41.263859379593676" lon="14.5261426777067"><ele>187.0</ele><time>2026-05-02T12:08:39Z</time></trkpt><trkpt lat="41.26399246357279" lon="14.52639954588893"><ele>187.5</ele><time>2026-05-02T12:08:40Z</time></trkpt><trkpt lat="41.26413267255579" lon="14.526659757369975"><ele>188.0</ele><time>2026-05-02T12:08:41Z</time></trkpt><trkpt lat="41.26427766624807" lon="14.526930555626352"><ele>188.5</ele><time>2026-05-02T12:08:42Z</time></trkpt><trkpt lat="41.264421810697186" lon="14.527200313490612"><ele>189.0</ele><time>2026-05-02T12:08:43Z</time></trkpt><trkpt lat="41.264565733518054" lon="14.5274665416149"><ele>189.0</ele><time>2026-05-02T12:08:44Z</time></trkpt><trkpt lat="41.26470989889725" lon="14.527739621783521"><ele>189.0</ele><time>2026-05-02T12:08:45Z</time></trkpt><trkpt lat="41.264861961138074" lon="14.528018740570737"><ele>190.0</ele><time>2026-05-02T12:08:46Z</time></trkpt><trkpt lat="41.26501293673262" lon="14.52830232306729"><ele>191.0</ele><time>2026-05-02T12:08:47Z</time></trkpt><trkpt lat="41.265168535333665" lon="14.528586816305491"><ele>191.5</ele><time>2026-05-02T12:08:48Z</time></trkpt><trkpt lat="41.26532479051448" lon="14.528879457517247"><ele>192.0</ele><time>2026-05-02T12:08:49Z</time></trkpt><trkpt lat="41.26548665378611" lon="14.529173024277533"><ele>192.0</ele><time>2026-05-02T12:08:50Z</time></trkpt><trkpt lat="41.265632666651335" lon="14.529446587273783"><ele>192.0</ele><time>2026-05-02T12:08:51Z</time></trkpt><trkpt lat="41.26577904653204" lon="14.529713946921069"><ele>192.0</ele><time>2026-05-02T12:08:52Z</time></trkpt><trkpt lat="41.26590607983861" lon="14.529991344615432"><ele>192.0</ele><time>2026-05-02T12:08:53Z</time></trkpt><trkpt lat="41.266034640661694" lon="14.53026545492141"><ele>193.0</ele><time>2026-05-02T12:08:54Z</time></trkpt><trkpt lat="41.26614833864783" lon="14.530565580704614"><ele>194.0</ele><time>2026-05-02T12:08:55Z</time></trkpt><trkpt lat="41.26627536581235" lon="14.530872856973309"><ele>194.0</ele><time>2026-05-02T12:08:56Z</time></trkpt><trkpt lat="41.26638914304294" lon="14.53121006421857"><ele>194.0</ele><time>2026-05-02T12:08:57Z</time></trkpt><trkpt lat="41.26648796559031" lon="14.531508691374745"><ele>194.33333333333334</ele><time>2026-05-02T12:08:58Z</time></trkpt><trkpt lat="41.26658407269684" lon="14.531783121674843"><ele>194.66666666666669</ele><time>2026-05-02T12:08:59Z</time></trkpt><trkpt lat="41.266661149222564" lon="14.532016079475977"><ele>195.0</ele><time>2026-05-02T12:09:00Z</time></trkpt><trkpt lat="41.266754921801336" lon="14.532221745803662"><ele>196.66666666666669</ele><time>2026-05-02T12:09:01Z</time></trkpt><trkpt lat="41.26685751460591" lon="14.532402728102609"><ele>198.33333333333334</ele><time>2026-05-02T12:09:02Z</time></trkpt><trkpt lat="41.266984024961296" lon="14.532541134478661"><ele>200.0</ele><time>2026-05-02T12:09:03Z</time></trkpt><trkpt lat="41.26711096347177" lon="14.53271834488385"><ele>199.5</ele><time>2026-05-02T12:09:04Z</time></trkpt><trkpt lat="41.267417980531604" lon="14.532658744970682"><ele>199.0</ele><time>2026-05-02T12:09:05Z</time></trkpt><trkpt lat="41.26758284250422" lon="14.532722192356646"><ele>199.0</ele><time>2026-05-02T12:09:06Z</time></trkpt><trkpt lat="41.26770618462629" lon="14.532799581749444"><ele>199.0</ele><time>2026-05-02T12:09:07Z</time></trkpt><trkpt lat="41.267802682838656" lon="14.532890920161169"><ele>199.0</ele><time>2026-05-02T12:09:08Z</time></trkpt><trkpt lat="41.26786243862344" lon="14.533039562319676"><ele>199.0</ele><time>2026-05-02T12:09:09Z</time></trkpt><trkpt lat="41.26788740430177" lon="14.533252750880793"><ele>199.6</ele><time>2026-05-02T12:09:10Z</time></trkpt><trkpt lat="41.26789138659677" lon="14.5334543084041"><ele>200.2</ele><time>2026-05-02T12:09:11Z</time></trkpt><trkpt lat="41.26790199838952" lon="14.533594141551289"><ele>200.79999999999998</ele><time>2026-05-02T12:09:12Z</time></trkpt><trkpt lat="41.26792388335973" lon="14.533704323998165"><ele>201.39999999999998</ele><time>2026-05-02T12:09:13Z</time></trkpt><trkpt lat="41.26793868748723" lon="14.533793723288449"><ele>202.0</ele><time>2026-05-02T12:09:14Z</time></trkpt><trkpt lat="41.267950617953296" lon="14.533887445312384"><ele>202.75</ele><time>2026-05-02T12:09:15Z</time></trkpt><trkpt lat="41.2679720348206" lon="14.534036462321664"><ele>203.5</ele><time>2026-05-02T12:09:16Z</time></trkpt><trkpt lat="41.26799493560138" lon="14.534224844360034"><ele>204.25</ele><time>2026-05-02T12:09:17Z</time></trkpt><trkpt lat="41.26802685796882" lon="14.534442269447624"><ele>205.0</ele><time>2026-05-02T12:09:18Z</time></trkpt><trkpt lat="41.268064469879505" lon="14.534683866849605"><ele>205.0</ele><time>2026-05-02T12:09:19Z</time></trkpt><trkpt lat="41.26810004834534" lon="14.53492649745156"><ele>205.0</ele><time>2026-05-02T12:09:20Z</time></trkpt><trkpt lat="41.268125696380004" lon="14.535189911518009"><ele>205.0</ele><time>2026-05-02T12:09:21Z</time></trkpt><trkpt lat="41.26815056192337" lon="14.53543994033837"><ele>205.0</ele><time>2026-05-02T12:09:22Z</time></trkpt><trkpt lat="41.268172796773605" lon="14.535662570847855"><ele>205.0</ele><time>2026-05-02T12:09:23Z</time></trkpt><trkpt lat="41.2681919816227" lon="14.53585816054925"><ele>205.0</ele><time>2026-05-02T12:09:24Z</time></trkpt><trkpt lat="41.26820935791734" lon="14.536045399039027"><ele>205.0</ele><time>2026-05-02T12:09:25Z</time></trkpt><trkpt lat="41.268228386007564" lon="14.53621040454253"><ele>205.0</ele><time>2026-05-02T12:09:26Z</time></trkpt><trkpt lat="41.268241408422206" lon="14.536361545200009"><ele>205.0</ele><time>2026-05-02T12:09:27Z</time></trkpt><trkpt lat="41.26824510730403" lon="14.536478638187193"><ele>205.0</ele><time>2026-05-02T12:09:28Z</time></trkpt><trkpt lat="41.26826506037932" lon="14.536615561795617"><ele>205.0</ele><time>2026-05-02T12:09:29Z</time></trkpt><trkpt lat="41.26828109591544" lon="14.536755492024"><ele>205.2</ele><time>2026-05-02T12:09:30Z</time></trkpt><trkpt lat="41.26829934386368" lon="14.536895375711413"><ele>205.4</ele><time>2026-05-02T12:09:31Z</time></trkpt><trkpt lat="41.26831628356765" lon="14.53704941002444"><ele>205.60000000000002</ele><time>2026-05-02T12:09:32Z</time></trkpt><trkpt lat="41.2683353512019" lon="14.537193934125678"><ele>205.8</ele><time>2026-05-02T12:09:33Z</time></trkpt><trkpt lat="41.26835087817018" lon="14.5373281986581"><ele>206.0</ele><time>2026-05-02T12:09:34Z</time></trkpt><trkpt lat="41.268366884496736" lon="14.537442101115325"><ele>206.60000000000002</ele><time>2026-05-02T12:09:35Z</time></trkpt><trkpt lat="41.26838911849849" lon="14.537533235549033"><ele>207.2</ele><time>2026-05-02T12:09:36Z</time></trkpt><trkpt lat="41.26846577870819" lon="14.537661245524738"><ele>207.8</ele><time>2026-05-02T12:09:38Z</time></trkpt><trkpt lat="41.268515059786104" lon="14.537732657944623"><ele>208.39999999999998</ele><time>2026-05-02T12:09:39Z</time></trkpt><trkpt lat="41.26859609116126" lon="14.537780012652268"><ele>209.0</ele><time>2026-05-02T12:09:40Z</time></trkpt><trkpt lat="41.26871399883398" lon="14.537836713838999"><ele>209.0</ele><time>2026-05-02T12:09:41Z</time></trkpt><trkpt lat="41.268844623853596" lon="14.537870164624097"><ele>209.0</ele><time>2026-05-02T12:09:42Z</time></trkpt><trkpt lat="41.26896274988838" lon="14.537910443463208"><ele>209.0</ele><time>2026-05-02T12:09:43Z</time></trkpt><trkpt lat="41.269077971666626" lon="14.537990360452534"><ele>209.0</ele><time>2026-05-02T12:09:44Z</time></trkpt><trkpt lat="41.26921278672879" lon="14.538136930070564"><ele>206.33333333333334</ele><time>2026-05-02T12:09:45Z</time></trkpt><trkpt lat="41.26935747066659" lon="14.538288898583385"><ele>203.66666666666669</ele><time>2026-05-02T12:09:46Z</time></trkpt><trkpt lat="41.269500815356935" lon="14.538419788024187"><ele>201.0</ele><time>2026-05-02T12:09:47Z</time></trkpt><trkpt lat="41.26963354418341" lon="14.53853347249566"><ele>201.0</ele><time>2026-05-02T12:09:48Z</time></trkpt><trkpt lat="41.26976113408881" lon="14.538654313112556"><ele>201.0</ele><time>2026-05-02T12:09:49Z</time></trkpt><trkpt lat="41.269886251320564" lon="14.538753632324866"><ele>201.0</ele><time>2026-05-02T12:09:50Z</time></trkpt><trkpt lat="41.27000314857884" lon="14.538865025141577"><ele>201.0</ele><time>2026-05-02T12:09:51Z</time></trkpt><trkpt lat="41.27011171009405" lon="14.539008773508412"><ele>199.33333333333331</ele><time>2026-05-02T12:09:52Z</time></trkpt><trkpt lat="41.270212968282046" lon="14.539178151205387"><ele>197.66666666666666</ele><time>2026-05-02T12:09:53Z</time></trkpt><trkpt lat="41.270309378406786" lon="14.539351033741072"><ele>196.0</ele><time>2026-05-02T12:09:54Z</time></trkpt><trkpt lat="41.27038001398742" lon="14.539525040651776"><ele>195.66666666666666</ele><time>2026-05-02T12:09:55Z</time></trkpt><trkpt lat="41.27047761801511" lon="14.539687939612847"><ele>195.33333333333331</ele><time>2026-05-02T12:09:56Z</time></trkpt><trkpt lat="41.27058464812353" lon="14.539866574908633"><ele>195.0</ele><time>2026-05-02T12:09:57Z</time></trkpt><trkpt lat="41.270676383591784" lon="14.540037913970595"><ele>195.0</ele><time>2026-05-02T12:09:58Z</time></trkpt><trkpt lat="41.27077018049966" lon="14.540210225446346"><ele>195.0</ele><time>2026-05-02T12:09:59Z</time></trkpt><trkpt lat="41.27085225828766" lon="14.540385568875987"><ele>195.0</ele><time>2026-05-02T12:10:00Z</time></trkpt><trkpt lat="41.27090774779317" lon="14.540509044510818"><ele>195.0</ele><time>2026-05-02T12:10:01Z</time></trkpt><trkpt lat="41.270955350211224" lon="14.540647796671355"><ele>195.0</ele><time>2026-05-02T12:10:02Z</time></trkpt><trkpt lat="41.27099008581291" lon="14.540780453688356"><ele>195.0</ele><time>2026-05-02T12:10:03Z</time></trkpt><trkpt lat="41.271033885684766" lon="14.540905142745457"><ele>195.0</ele><time>2026-05-02T12:10:04Z</time></trkpt><trkpt lat="41.271124230449075" lon="14.541018253574945"><ele>195.0</ele><time>2026-05-02T12:10:05Z</time></trkpt><trkpt lat="41.27124014950761" lon="14.541153990463302"><ele>195.33333333333331</ele><time>2026-05-02T12:10:06Z</time></trkpt><trkpt lat="41.27136107841399" lon="14.54131866051391"><ele>195.66666666666666</ele><time>2026-05-02T12:10:07Z</time></trkpt><trkpt lat="41.27148485260643" lon="14.541497497794449"><ele>196.0</ele><time>2026-05-02T12:10:08Z</time></trkpt><trkpt lat="41.27158490097696" lon="14.541656542011228"><ele>196.0</ele><time>2026-05-02T12:10:09Z</time></trkpt><trkpt lat="41.2716842238267" lon="14.541809237334402"><ele>196.0</ele><time>2026-05-02T12:10:10Z</time></trkpt><trkpt lat="41.2717575798609" lon="14.541959996400879"><ele>196.0</ele><time>2026-05-02T12:10:11.001Z</time></trkpt><trkpt lat="41.27187397064615" lon="14.542089663205187"><ele>196.0</ele><time>2026-05-02T12:10:12.001Z</time></trkpt><trkpt lat="41.27200119306803" lon="14.542200244782848"><ele>198.33333333333331</ele><time>2026-05-02T12:10:13.001Z</time></trkpt><trkpt lat="41.27213724792299" lon="14.542296031102708"><ele>200.66666666666669</ele><time>2026-05-02T12:10:14.001Z</time></trkpt><trkpt lat="41.27229448133856" lon="14.542393382453257"><ele>203.0</ele><time>2026-05-02T12:10:15.001Z</time></trkpt><trkpt lat="41.2724532186067" lon="14.542492128581486"><ele>203.0</ele><time>2026-05-02T12:10:16.001Z</time></trkpt><trkpt lat="41.27260745934524" lon="14.542595503584415"><ele>203.0</ele><time>2026-05-02T12:10:17.001Z</time></trkpt><trkpt lat="41.27275104805697" lon="14.542687204574571"><ele>203.0</ele><time>2026-05-02T12:10:18.001Z</time></trkpt><trkpt lat="41.272872008433254" lon="14.542779796214809"><ele>203.0</ele><time>2026-05-02T12:10:19.001Z</time></trkpt><trkpt lat="41.2729716603935" lon="14.542860705252261"><ele>203.0</ele><time>2026-05-02T12:10:20.001Z</time></trkpt><trkpt lat="41.2730867175463" lon="14.542961999212896"><ele>203.0</ele><time>2026-05-02T12:10:21.001Z</time></trkpt><trkpt lat="41.273190688583924" lon="14.543065042303677"><ele>203.0</ele><time>2026-05-02T12:10:22.001Z</time></trkpt><trkpt lat="41.2732884659214" lon="14.543166015730026"><ele>202.8</ele><time>2026-05-02T12:10:23.001Z</time></trkpt><trkpt lat="41.27336677398578" lon="14.543257601585289"><ele>202.60000000000002</ele><time>2026-05-02T12:10:24.001Z</time></trkpt><trkpt lat="41.2734392202994" lon="14.543330252329785"><ele>202.39999999999998</ele><time>2026-05-02T12:10:25.001Z</time></trkpt><trkpt lat="41.27350001951182" lon="14.5433899070929"><ele>202.2</ele><time>2026-05-02T12:10:26.001Z</time></trkpt><trkpt lat="41.273577189046556" lon="14.543503101583086"><ele>202.0</ele><time>2026-05-02T12:10:28.001Z</time></trkpt><trkpt lat="41.27350547364444" lon="14.543700185333032"><ele>202.75</ele><time>2026-05-02T12:10:32.001Z</time></trkpt><trkpt lat="41.27341886773873" lon="14.54378888289811"><ele>203.5</ele><time>2026-05-02T12:10:33.001Z</time></trkpt><trkpt lat="41.27333714212662" lon="14.543891920936739"><ele>204.25</ele><time>2026-05-02T12:10:34.001Z</time></trkpt><trkpt lat="41.27325299656302" lon="14.544011442350824"><ele>205.0</ele><time>2026-05-02T12:10:35.001Z</time></trkpt><trkpt lat="41.27316425387814" lon="14.54415464474133"><ele>208.0</ele><time>2026-05-02T12:10:36.001Z</time></trkpt><trkpt lat="41.27309293969799" lon="14.54431368295165"><ele>211.0</ele><time>2026-05-02T12:10:37.001Z</time></trkpt><trkpt lat="41.27306025821678" lon="14.544503188277714"><ele>214.0</ele><time>2026-05-02T12:10:38Z</time></trkpt><trkpt lat="41.273070949873265" lon="14.544725625319987"><ele>213.0</ele><time>2026-05-02T12:10:39Z</time></trkpt><trkpt lat="41.273116696638716" lon="14.54496603923222"><ele>212.0</ele><time>2026-05-02T12:10:40Z</time></trkpt><trkpt lat="41.27315755295769" lon="14.545207049199329"><ele>211.0</ele><time>2026-05-02T12:10:41Z</time></trkpt><trkpt lat="41.273197134984166" lon="14.545439699609181"><ele>211.0</ele><time>2026-05-02T12:10:42Z</time></trkpt><trkpt lat="41.27321958543919" lon="14.545643942206848"><ele>211.0</ele><time>2026-05-02T12:10:43Z</time></trkpt><trkpt lat="41.273223739803306" lon="14.545861518142344"><ele>211.0</ele><time>2026-05-02T12:10:44Z</time></trkpt><trkpt lat="41.273225706306214" lon="14.546067947627188"><ele>212.0</ele><time>2026-05-02T12:10:45Z</time></trkpt><trkpt lat="41.27323991049389" lon="14.546254088891788"><ele>213.0</ele><time>2026-05-02T12:10:46Z</time></trkpt><trkpt lat="41.27327772601522" lon="14.54640232821263"><ele>214.0</ele><time>2026-05-02T12:10:47Z</time></trkpt><trkpt lat="41.27335456072351" lon="14.546543683481671"><ele>215.0</ele><time>2026-05-02T12:10:48Z</time></trkpt><trkpt lat="41.27343980135417" lon="14.546678942751406"><ele>215.00000000000003</ele><time>2026-05-02T12:10:49Z</time></trkpt><trkpt lat="41.27350108874805" lon="14.546781482102144"><ele>215.0</ele><time>2026-05-02T12:10:50Z</time></trkpt><trkpt lat="41.27356591254275" lon="14.546876486785987"><ele>215.0</ele><time>2026-05-02T12:10:51Z</time></trkpt><trkpt lat="41.273622105790444" lon="14.546955447995192"><ele>215.0</ele><time>2026-05-02T12:10:52Z</time></trkpt><trkpt lat="41.2736712157914" lon="14.54703193327103"><ele>215.00000000000003</ele><time>2026-05-02T12:10:53Z</time></trkpt><trkpt lat="41.27373164422375" lon="14.547124399269872"><ele>215.0</ele><time>2026-05-02T12:10:54Z</time></trkpt><trkpt lat="41.273769576847556" lon="14.547249557689325"><ele>215.0</ele><time>2026-05-02T12:10:55Z</time></trkpt><trkpt lat="41.27385404946438" lon="14.547376966408468"><ele>215.0</ele><time>2026-05-02T12:10:56Z</time></trkpt><trkpt lat="41.27395636300427" lon="14.547513163587713"><ele>215.0</ele><time>2026-05-02T12:10:57Z</time></trkpt><trkpt lat="41.27406433917924" lon="14.547662653103071"><ele>215.0</ele><time>2026-05-02T12:10:58Z</time></trkpt><trkpt lat="41.274177386981904" lon="14.547830982480452"><ele>217.33333333333334</ele><time>2026-05-02T12:10:59Z</time></trkpt><trkpt lat="41.274282511022285" lon="14.54801560428937"><ele>219.66666666666669</ele><time>2026-05-02T12:11:00Z</time></trkpt><trkpt lat="41.27439204911822" lon="14.548217747382921"><ele>222.0</ele><time>2026-05-02T12:11:01Z</time></trkpt><trkpt lat="41.274502749852104" lon="14.548413809805425"><ele>222.0</ele><time>2026-05-02T12:11:02Z</time></trkpt><trkpt lat="41.27455809138353" lon="14.548638498683829"><ele>222.0</ele><time>2026-05-02T12:11:03Z</time></trkpt><trkpt lat="41.27462915165177" lon="14.548830013241345"><ele>222.0</ele><time>2026-05-02T12:11:04Z</time></trkpt><trkpt lat="41.274674555665854" lon="14.54901069901352"><ele>221.75</ele><time>2026-05-02T12:11:05Z</time></trkpt><trkpt lat="41.274752103705595" lon="14.549164937862384"><ele>221.5</ele><time>2026-05-02T12:11:06Z</time></trkpt><trkpt lat="41.274875507781836" lon="14.549280921354974"><ele>221.25</ele><time>2026-05-02T12:11:07Z</time></trkpt><trkpt lat="41.27500790330486" lon="14.549332691579671"><ele>221.0</ele><time>2026-05-02T12:11:08Z</time></trkpt><trkpt lat="41.27510642647293" lon="14.549374587206106"><ele>221.0</ele><time>2026-05-02T12:11:09Z</time></trkpt><trkpt lat="41.27518865916961" lon="14.549412848564845"><ele>221.00000000000003</ele><time>2026-05-02T12:11:10Z</time></trkpt><trkpt lat="41.275266708131475" lon="14.549488267400298"><ele>221.00000000000003</ele><time>2026-05-02T12:11:11Z</time></trkpt><trkpt lat="41.275318248056266" lon="14.549611930125975"><ele>221.0</ele><time>2026-05-02T12:11:12Z</time></trkpt><trkpt lat="41.27533644901812" lon="14.549716125256621"><ele>221.0</ele><time>2026-05-02T12:11:13Z</time></trkpt><trkpt lat="41.27532489233295" lon="14.549849471852415"><ele>222.25</ele><time>2026-05-02T12:11:14Z</time></trkpt><trkpt lat="41.27517847730476" lon="14.54994920169486"><ele>223.5</ele><time>2026-05-02T12:11:15Z</time></trkpt><trkpt lat="41.27507259731469" lon="14.550039511988638"><ele>224.75</ele><time>2026-05-02T12:11:16Z</time></trkpt><trkpt lat="41.27495155960624" lon="14.550146979447346"><ele>226.0</ele><time>2026-05-02T12:11:17Z</time></trkpt><trkpt lat="41.27483332791895" lon="14.550259886157244"><ele>226.0</ele><time>2026-05-02T12:11:18Z</time></trkpt><trkpt lat="41.27471500867139" lon="14.550374729284927"><ele>226.0</ele><time>2026-05-02T12:11:19Z</time></trkpt><trkpt lat="41.27457303475454" lon="14.550481528985683"><ele>226.0</ele><time>2026-05-02T12:11:20Z</time></trkpt><trkpt lat="41.274434571396455" lon="14.550597660586785"><ele>226.0</ele><time>2026-05-02T12:11:21Z</time></trkpt><trkpt lat="41.274298269164944" lon="14.550719846440156"><ele>226.0</ele><time>2026-05-02T12:11:22Z</time></trkpt><trkpt lat="41.27416270611607" lon="14.550839565244706"><ele>226.0</ele><time>2026-05-02T12:11:23Z</time></trkpt><trkpt lat="41.27402858062385" lon="14.55095761944493"><ele>225.0</ele><time>2026-05-02T12:11:24Z</time></trkpt><trkpt lat="41.273894382390786" lon="14.551075114448048"><ele>224.0</ele><time>2026-05-02T12:11:25Z</time></trkpt><trkpt lat="41.273763765586786" lon="14.551195409320503"><ele>223.0</ele><time>2026-05-02T12:11:26Z</time></trkpt><trkpt lat="41.273627277802206" lon="14.551308537129566"><ele>223.0</ele><time>2026-05-02T12:11:27Z</time></trkpt><trkpt lat="41.27350967359519" lon="14.551425861985619"><ele>223.0</ele><time>2026-05-02T12:11:28Z</time></trkpt><trkpt lat="41.27339687037552" lon="14.551520159044365"><ele>223.0</ele><time>2026-05-02T12:11:29Z</time></trkpt><trkpt lat="41.27327280092003" lon="14.551599055551161"><ele>223.0</ele><time>2026-05-02T12:11:30Z</time></trkpt><trkpt lat="41.27312375823535" lon="14.551606755856927"><ele>223.66666666666666</ele><time>2026-05-02T12:11:31Z</time></trkpt><trkpt lat="41.272963499005506" lon="14.551617320570388"><ele>224.33333333333331</ele><time>2026-05-02T12:11:32Z</time></trkpt><trkpt lat="41.272779687730925" lon="14.55160208133407"><ele>225.0</ele><time>2026-05-02T12:11:33Z</time></trkpt><trkpt lat="41.27258463797562" lon="14.551602052156408"><ele>225.0</ele><time>2026-05-02T12:11:34Z</time></trkpt><trkpt lat="41.27238101835112" lon="14.551605094689252"><ele>225.0</ele><time>2026-05-02T12:11:35Z</time></trkpt><trkpt lat="41.27217353568578" lon="14.551614762488267"><ele>225.0</ele><time>2026-05-02T12:11:36Z</time></trkpt><trkpt lat="41.271960004077165" lon="14.551624758448623"><ele>226.0</ele><time>2026-05-02T12:11:37Z</time></trkpt><trkpt lat="41.271739659234164" lon="14.55163488374151"><ele>227.0</ele><time>2026-05-02T12:11:38Z</time></trkpt><trkpt lat="41.271501614475945" lon="14.551648224195464"><ele>225.5</ele><time>2026-05-02T12:11:39Z</time></trkpt><trkpt lat="41.271218890015476" lon="14.55166301571103"><ele>224.0</ele><time>2026-05-02T12:11:40Z</time></trkpt><trkpt lat="41.270929212179446" lon="14.551664786338732"><ele>224.0</ele><time>2026-05-02T12:11:41Z</time></trkpt><trkpt lat="41.27062828525361" lon="14.551667911086115"><ele>224.0</ele><time>2026-05-02T12:11:42Z</time></trkpt><trkpt lat="41.27036273099538" lon="14.551684958701824"><ele>224.5</ele><time>2026-05-02T12:11:43Z</time></trkpt><trkpt lat="41.2701112308473" lon="14.551696791761465"><ele>225.0</ele><time>2026-05-02T12:11:44Z</time></trkpt><trkpt lat="41.26987069429745" lon="14.55170685527798"><ele>225.0</ele><time>2026-05-02T12:11:45Z</time></trkpt><trkpt lat="41.269644037973286" lon="14.551718699351799"><ele>225.0</ele><time>2026-05-02T12:11:46Z</time></trkpt><trkpt lat="41.26942735455795" lon="14.551727405951434"><ele>225.0</ele><time>2026-05-02T12:11:47Z</time></trkpt><trkpt lat="41.26921416566405" lon="14.551737024441275"><ele>225.0</ele><time>2026-05-02T12:11:48Z</time></trkpt><trkpt lat="41.26899953517767" lon="14.551742565471981"><ele>225.0</ele><time>2026-05-02T12:11:49Z</time></trkpt><trkpt lat="41.2687816816725" lon="14.551748206037836"><ele>225.0</ele><time>2026-05-02T12:11:50Z</time></trkpt><trkpt lat="41.268563500413485" lon="14.55175927893381"><ele>225.66666666666669</ele><time>2026-05-02T12:11:51Z</time></trkpt><trkpt lat="41.26835423609916" lon="14.551772298579355"><ele>226.33333333333334</ele><time>2026-05-02T12:11:52Z</time></trkpt><trkpt lat="41.26814350384842" lon="14.551775903584193"><ele>227.0</ele><time>2026-05-02T12:11:53Z</time></trkpt><trkpt lat="41.26794342333025" lon="14.551780092766151"><ele>227.0</ele><time>2026-05-02T12:11:54Z</time></trkpt><trkpt lat="41.26775633235918" lon="14.55178643349689"><ele>227.0</ele><time>2026-05-02T12:11:55Z</time></trkpt><trkpt lat="41.267565619458594" lon="14.551796259230121"><ele>227.0</ele><time>2026-05-02T12:11:56Z</time></trkpt><trkpt lat="41.26737780836948" lon="14.551804370076484"><ele>227.0</ele><time>2026-05-02T12:11:57Z</time></trkpt><trkpt lat="41.267189557693705" lon="14.551809881987966"><ele>227.0</ele><time>2026-05-02T12:11:58Z</time></trkpt><trkpt lat="41.26700805388213" lon="14.551813049633"><ele>227.0</ele><time>2026-05-02T12:11:59Z</time></trkpt><trkpt lat="41.26683453757516" lon="14.551824131382155"><ele>227.0</ele><time>2026-05-02T12:12:00Z</time></trkpt><trkpt lat="41.266680342495206" lon="14.551823046023038"><ele>227.0</ele><time>2026-05-02T12:12:01Z</time></trkpt><trkpt lat="41.26644290916328" lon="14.551819825393457"><ele>227.0</ele><time>2026-05-02T12:12:03Z</time></trkpt><trkpt lat="41.26636646381308" lon="14.55182121768909"><ele>227.0</ele><time>2026-05-02T12:12:04Z</time></trkpt><trkpt lat="41.26630582392471" lon="14.551983641587672"><ele>227.0</ele><time>2026-05-02T12:12:06Z</time></trkpt><trkpt lat="41.26628674213582" lon="14.552151473513604"><ele>227.0</ele><time>2026-05-02T12:12:07Z</time></trkpt><trkpt lat="41.26627602852369" lon="14.552331881410568"><ele>227.0</ele><time>2026-05-02T12:12:08Z</time></trkpt><trkpt lat="41.26630198701066" lon="14.552519382413557"><ele>227.0</ele><time>2026-05-02T12:12:09Z</time></trkpt><trkpt lat="41.2663418866132" lon="14.552703188630725"><ele>227.0</ele><time>2026-05-02T12:12:10Z</time></trkpt><trkpt lat="41.26640051398603" lon="14.552862041864895"><ele>227.0</ele><time>2026-05-02T12:12:11Z</time></trkpt><trkpt lat="41.26649207352036" lon="14.553001358239609"><ele>227.0</ele><time>2026-05-02T12:12:12Z</time></trkpt><trkpt lat="41.266612402232695" lon="14.553139308349149"><ele>228.33333333333334</ele><time>2026-05-02T12:12:13Z</time></trkpt><trkpt lat="41.26675964499775" lon="14.553290920111559"><ele>229.66666666666669</ele><time>2026-05-02T12:12:14Z</time></trkpt><trkpt lat="41.266877169841806" lon="14.55342545197128"><ele>231.0</ele><time>2026-05-02T12:12:15Z</time></trkpt><trkpt lat="41.266961682348075" lon="14.55353879062332"><ele>231.0</ele><time>2026-05-02T12:12:16Z</time></trkpt><trkpt lat="41.26702957943781" lon="14.55366748001771"><ele>231.0</ele><time>2026-05-02T12:12:17.001Z</time></trkpt><trkpt lat="41.267043782716975" lon="14.553841546306924"><ele>231.0</ele><time>2026-05-02T12:12:18.001Z</time></trkpt><trkpt lat="41.26704493002963" lon="14.554024024500395"><ele>231.0</ele><time>2026-05-02T12:12:19.001Z</time></trkpt><trkpt lat="41.267077420699" lon="14.554207512056701"><ele>231.5</ele><time>2026-05-02T12:12:20.001Z</time></trkpt><trkpt lat="41.26709484142959" lon="14.554376182355638"><ele>232.0</ele><time>2026-05-02T12:12:21.001Z</time></trkpt><trkpt lat="41.26713999551368" lon="14.554543618906715"><ele>232.5</ele><time>2026-05-02T12:12:22.001Z</time></trkpt><trkpt lat="41.267236774873815" lon="14.554726768372333"><ele>233.0</ele><time>2026-05-02T12:12:23.001Z</time></trkpt><trkpt lat="41.267283956520835" lon="14.554835851426231"><ele>233.25</ele><time>2026-05-02T12:12:24.001Z</time></trkpt><trkpt lat="41.26730352906715" lon="14.554958392598081"><ele>233.5</ele><time>2026-05-02T12:12:26.001Z</time></trkpt><trkpt lat="41.26734451522577" lon="14.555032652633843"><ele>233.75</ele><time>2026-05-02T12:12:28.001Z</time></trkpt><trkpt lat="41.267151279938176" lon="14.555097799094186"><ele>234.0</ele><time>2026-05-02T12:12:29.001Z</time></trkpt><trkpt lat="41.267061356261145" lon="14.555148787939082"><ele>234.39999999999998</ele><time>2026-05-02T12:12:30.001Z</time></trkpt><trkpt lat="41.2669781545977" lon="14.555224316876773"><ele>234.79999999999998</ele><time>2026-05-02T12:12:31.001Z</time></trkpt><trkpt lat="41.26690179104088" lon="14.555324097282911"><ele>235.20000000000002</ele><time>2026-05-02T12:12:32.001Z</time></trkpt><trkpt lat="41.26687337432907" lon="14.555447706575098"><ele>235.60000000000002</ele><time>2026-05-02T12:12:33.001Z</time></trkpt><trkpt lat="41.26688374310012" lon="14.555555028798059"><ele>236.0</ele><time>2026-05-02T12:12:34.001Z</time></trkpt><trkpt lat="41.2669091355332" lon="14.555713885573907"><ele>236.5</ele><time>2026-05-02T12:12:35Z</time></trkpt><trkpt lat="41.266926590175025" lon="14.555890571881834"><ele>237.0</ele><time>2026-05-02T12:12:36Z</time></trkpt><trkpt lat="41.26690304855979" lon="14.556069769970303"><ele>237.5</ele><time>2026-05-02T12:12:37Z</time></trkpt><trkpt lat="41.26685793149111" lon="14.556241209330086"><ele>238.0</ele><time>2026-05-02T12:12:38Z</time></trkpt><trkpt lat="41.266802471424135" lon="14.556383072124321"><ele>238.25</ele><time>2026-05-02T12:12:39Z</time></trkpt><trkpt lat="41.26673978073849" lon="14.556530612428709"><ele>238.5</ele><time>2026-05-02T12:12:40Z</time></trkpt><trkpt lat="41.266663901814375" lon="14.55667740285377"><ele>238.75</ele><time>2026-05-02T12:12:41Z</time></trkpt><trkpt lat="41.26658011826468" lon="14.55682192618774"><ele>239.0</ele><time>2026-05-02T12:12:42Z</time></trkpt><trkpt lat="41.26649215847868" lon="14.556961579206115"><ele>240.25</ele><time>2026-05-02T12:12:43Z</time></trkpt><trkpt lat="41.26639007937819" lon="14.557080711933617"><ele>241.5</ele><time>2026-05-02T12:12:44Z</time></trkpt><trkpt lat="41.26629814860523" lon="14.557202419680618"><ele>242.75</ele><time>2026-05-02T12:12:45Z</time></trkpt><trkpt lat="41.26622756649535" lon="14.557347005834721"><ele>244.0</ele><time>2026-05-02T12:12:46Z</time></trkpt><trkpt lat="41.26617389187902" lon="14.557515096463227"><ele>244.0</ele><time>2026-05-02T12:12:47Z</time></trkpt><trkpt lat="41.26610823334721" lon="14.557723995221838"><ele>244.0</ele><time>2026-05-02T12:12:48Z</time></trkpt><trkpt lat="41.266027921635924" lon="14.557939166526992"><ele>244.0</ele><time>2026-05-02T12:12:49Z</time></trkpt><trkpt lat="41.265946094393776" lon="14.558122628849569"><ele>245.5</ele><time>2026-05-02T12:12:50Z</time></trkpt><trkpt lat="41.26586647904678" lon="14.558296059373427"><ele>247.0</ele><time>2026-05-02T12:12:51Z</time></trkpt><trkpt lat="41.26579535536169" lon="14.558461694088084"><ele>248.5</ele><time>2026-05-02T12:12:52Z</time></trkpt><trkpt lat="41.26574247041367" lon="14.558625074650392"><ele>250.0</ele><time>2026-05-02T12:12:53Z</time></trkpt><trkpt lat="41.26569873942654" lon="14.558771099499689"><ele>250.4</ele><time>2026-05-02T12:12:54Z</time></trkpt><trkpt lat="41.26566169794057" lon="14.558913076295676"><ele>250.8</ele><time>2026-05-02T12:12:55Z</time></trkpt><trkpt lat="41.26562283963684" lon="14.559048790971408"><ele>251.2</ele><time>2026-05-02T12:12:56Z</time></trkpt><trkpt lat="41.26557893326489" lon="14.559193941711442"><ele>251.6</ele><time>2026-05-02T12:12:57Z</time></trkpt><trkpt lat="41.265540528662235" lon="14.559330722952778"><ele>252.0</ele><time>2026-05-02T12:12:58Z</time></trkpt><trkpt lat="41.26550320098549" lon="14.559464969893329"><ele>252.8</ele><time>2026-05-02T12:12:59Z</time></trkpt><trkpt lat="41.2654617900826" lon="14.559603592622906"><ele>253.6</ele><time>2026-05-02T12:13:00Z</time></trkpt><trkpt lat="41.265424350819195" lon="14.55973878687667"><ele>254.40000000000003</ele><time>2026-05-02T12:13:01Z</time></trkpt><trkpt lat="41.26538841610867" lon="14.559857503345803"><ele>255.20000000000002</ele><time>2026-05-02T12:13:02Z</time></trkpt><trkpt lat="41.26535911863929" lon="14.559988986120624"><ele>256.0</ele><time>2026-05-02T12:13:03Z</time></trkpt><trkpt lat="41.26534175007527" lon="14.560124381978016"><ele>256.0</ele><time>2026-05-02T12:13:04Z</time></trkpt><trkpt lat="41.26533247462936" lon="14.56026588541638"><ele>256.0</ele><time>2026-05-02T12:13:05Z</time></trkpt><trkpt lat="41.265327532342354" lon="14.560414347918746"><ele>256.0</ele><time>2026-05-02T12:13:06Z</time></trkpt><trkpt lat="41.265324933097354" lon="14.560567665435562"><ele>256.0</ele><time>2026-05-02T12:13:07Z</time></trkpt><trkpt lat="41.26532026155969" lon="14.560716862700456"><ele>256.0</ele><time>2026-05-02T12:13:08Z</time></trkpt><trkpt lat="41.26531264290902" lon="14.560865240653103"><ele>256.75</ele><time>2026-05-02T12:13:09Z</time></trkpt><trkpt lat="41.26529720065723" lon="14.561019530572754"><ele>257.5</ele><time>2026-05-02T12:13:10Z</time></trkpt><trkpt lat="41.26527692723195" lon="14.561173903648632"><ele>258.25</ele><time>2026-05-02T12:13:11Z</time></trkpt><trkpt lat="41.26524344402282" lon="14.561326922383337"><ele>259.0</ele><time>2026-05-02T12:13:12Z</time></trkpt><trkpt lat="41.265201922787675" lon="14.561485083355917"><ele>260.25</ele><time>2026-05-02T12:13:13Z</time></trkpt><trkpt lat="41.2651591931179" lon="14.561638824549242"><ele>261.5</ele><time>2026-05-02T12:13:14Z</time></trkpt><trkpt lat="41.26511490823443" lon="14.561808305734916"><ele>262.75</ele><time>2026-05-02T12:13:15Z</time></trkpt><trkpt lat="41.265076118892" lon="14.56197556353791"><ele>264.0</ele><time>2026-05-02T12:13:16Z</time></trkpt><trkpt lat="41.26504451239005" lon="14.56212116928863"><ele>265.0</ele><time>2026-05-02T12:13:17Z</time></trkpt><trkpt lat="41.265007970665366" lon="14.562271437852054"><ele>266.0</ele><time>2026-05-02T12:13:18Z</time></trkpt><trkpt lat="41.26496917625809" lon="14.56241780664969"><ele>267.0</ele><time>2026-05-02T12:13:19Z</time></trkpt><trkpt lat="41.26492639254839" lon="14.562577826508166"><ele>268.0</ele><time>2026-05-02T12:13:20Z</time></trkpt><trkpt lat="41.2648870466305" lon="14.562734985662685"><ele>269.0</ele><time>2026-05-02T12:13:21Z</time></trkpt><trkpt lat="41.264855875064455" lon="14.56287474228149"><ele>270.0</ele><time>2026-05-02T12:13:22Z</time></trkpt><trkpt lat="41.26482212724462" lon="14.563025155505972"><ele>271.0</ele><time>2026-05-02T12:13:23Z</time></trkpt><trkpt lat="41.26479805452242" lon="14.563173456447817"><ele>272.0</ele><time>2026-05-02T12:13:24Z</time></trkpt><trkpt lat="41.26477928362345" lon="14.563323333602781"><ele>272.0</ele><time>2026-05-02T12:13:25Z</time></trkpt><trkpt lat="41.26477502845704" lon="14.563457950829026"><ele>272.0</ele><time>2026-05-02T12:13:26Z</time></trkpt><trkpt lat="41.264780418189275" lon="14.563598348741419"><ele>272.0</ele><time>2026-05-02T12:13:27Z</time></trkpt><trkpt lat="41.264788431174516" lon="14.56373260724074"><ele>272.0</ele><time>2026-05-02T12:13:28Z</time></trkpt><trkpt lat="41.26479715261674" lon="14.563850703801128"><ele>272.0</ele><time>2026-05-02T12:13:29Z</time></trkpt><trkpt lat="41.26481657590578" lon="14.563970509928332"><ele>272.8</ele><time>2026-05-02T12:13:30Z</time></trkpt><trkpt lat="41.264866830581845" lon="14.564089118508617"><ele>273.6</ele><time>2026-05-02T12:13:31Z</time></trkpt><trkpt lat="41.26493830326583" lon="14.564170301568907"><ele>274.40000000000003</ele><time>2026-05-02T12:13:32Z</time></trkpt><trkpt lat="41.265021463505185" lon="14.564255674509074"><ele>275.2</ele><time>2026-05-02T12:13:33Z</time></trkpt><trkpt lat="41.265098735477125" lon="14.564379156776742"><ele>276.0</ele><time>2026-05-02T12:13:34Z</time></trkpt><trkpt lat="41.26517629104791" lon="14.564486622496254"><ele>276.75</ele><time>2026-05-02T12:13:35Z</time></trkpt><trkpt lat="41.26526199330376" lon="14.564607008663561"><ele>277.5</ele><time>2026-05-02T12:13:36Z</time></trkpt><trkpt lat="41.26534645406702" lon="14.564705740257518"><ele>278.25</ele><time>2026-05-02T12:13:37Z</time></trkpt><trkpt lat="41.265405471159546" lon="14.564833595076061"><ele>279.0</ele><time>2026-05-02T12:13:38Z</time></trkpt><trkpt lat="41.26545542834758" lon="14.56498319308721"><ele>279.0</ele><time>2026-05-02T12:13:39Z</time></trkpt><trkpt lat="41.265481461712945" lon="14.56514119255248"><ele>279.0</ele><time>2026-05-02T12:13:40Z</time></trkpt><trkpt lat="41.26549504862342" lon="14.56529733864835"><ele>279.0</ele><time>2026-05-02T12:13:41Z</time></trkpt><trkpt lat="41.265506557328315" lon="14.565456188693677"><ele>279.0</ele><time>2026-05-02T12:13:42Z</time></trkpt><trkpt lat="41.26550861162671" lon="14.565612518222865"><ele>280.25</ele><time>2026-05-02T12:13:43Z</time></trkpt><trkpt lat="41.26550813853582" lon="14.565778149056763"><ele>281.5</ele><time>2026-05-02T12:13:44Z</time></trkpt><trkpt lat="41.265508274191234" lon="14.565961233240122"><ele>282.75</ele><time>2026-05-02T12:13:45Z</time></trkpt><trkpt lat="41.265514104211285" lon="14.566121759154619"><ele>284.0</ele><time>2026-05-02T12:13:46Z</time></trkpt><trkpt lat="41.26552235285792" lon="14.566289993698211"><ele>284.75</ele><time>2026-05-02T12:13:47Z</time></trkpt><trkpt lat="41.265527685514925" lon="14.566439907827705"><ele>285.5</ele><time>2026-05-02T12:13:48Z</time></trkpt><trkpt lat="41.26558333964223" lon="14.56658112433604"><ele>286.25</ele><time>2026-05-02T12:13:49Z</time></trkpt><trkpt lat="41.26566232248442" lon="14.566718433840352"><ele>287.0</ele><time>2026-05-02T12:13:50Z</time></trkpt><trkpt lat="41.265733119195" lon="14.56685134299237"><ele>290.0</ele><time>2026-05-02T12:13:51Z</time></trkpt><trkpt lat="41.265803181762905" lon="14.566989321996694"><ele>293.0</ele><time>2026-05-02T12:13:52Z</time></trkpt><trkpt lat="41.26585985907003" lon="14.567137888460426"><ele>296.0</ele><time>2026-05-02T12:13:53Z</time></trkpt><trkpt lat="41.2659103247778" lon="14.56729698804437"><ele>299.0</ele><time>2026-05-02T12:13:54Z</time></trkpt><trkpt lat="41.265964395856074" lon="14.567455974021861"><ele>299.75</ele><time>2026-05-02T12:13:55Z</time></trkpt><trkpt lat="41.26602675683297" lon="14.56760790498676"><ele>300.5</ele><time>2026-05-02T12:13:56Z</time></trkpt><trkpt lat="41.266103960270364" lon="14.567742680481462"><ele>301.25</ele><time>2026-05-02T12:13:57Z</time></trkpt><trkpt lat="41.266168486779996" lon="14.56788768631832"><ele>302.0</ele><time>2026-05-02T12:13:58Z</time></trkpt><trkpt lat="41.26624694740122" lon="14.568043707560298"><ele>302.0</ele><time>2026-05-02T12:13:59Z</time></trkpt><trkpt lat="41.26632251063234" lon="14.568202672959865"><ele>302.0</ele><time>2026-05-02T12:14:00Z</time></trkpt><trkpt lat="41.26639427936121" lon="14.568364043363083"><ele>302.0</ele><time>2026-05-02T12:14:01Z</time></trkpt><trkpt lat="41.26647975090449" lon="14.56852026597406"><ele>302.0</ele><time>2026-05-02T12:14:02Z</time></trkpt><trkpt lat="41.26654970629097" lon="14.568655347326777"><ele>303.6</ele><time>2026-05-02T12:14:03Z</time></trkpt><trkpt lat="41.26662490646441" lon="14.568778745047469"><ele>305.2</ele><time>2026-05-02T12:14:04Z</time></trkpt><trkpt lat="41.266692562443275" lon="14.568876770871794"><ele>306.8</ele><time>2026-05-02T12:14:05Z</time></trkpt><trkpt lat="41.26676561937314" lon="14.568984188966517"><ele>308.4</ele><time>2026-05-02T12:14:06Z</time></trkpt><trkpt lat="41.26683212760751" lon="14.569093065062026"><ele>310.0</ele><time>2026-05-02T12:14:07Z</time></trkpt><trkpt lat="41.26687957115888" lon="14.569182190769832"><ele>310.0</ele><time>2026-05-02T12:14:08Z</time></trkpt><trkpt lat="41.26692803153281" lon="14.569294418645683"><ele>310.0</ele><time>2026-05-02T12:14:10Z</time></trkpt><trkpt lat="41.266939024451005" lon="14.569408092158236"><ele>310.0</ele><time>2026-05-02T12:14:12Z</time></trkpt><trkpt lat="41.26698217676535" lon="14.569502982021412"><ele>310.0</ele><time>2026-05-02T12:14:13Z</time></trkpt><trkpt lat="41.26694882526413" lon="14.56964265810814"><ele>310.0</ele><time>2026-05-02T12:14:14Z</time></trkpt><trkpt lat="41.26696025331004" lon="14.569755809309187"><ele>309.8</ele><time>2026-05-02T12:14:15Z</time></trkpt><trkpt lat="41.266958832408235" lon="14.56986003450863"><ele>309.6</ele><time>2026-05-02T12:14:16Z</time></trkpt><trkpt lat="41.266960981684605" lon="14.569975522662924"><ele>309.4</ele><time>2026-05-02T12:14:17Z</time></trkpt><trkpt lat="41.26697006399104" lon="14.57011149526386"><ele>309.2</ele><time>2026-05-02T12:14:18Z</time></trkpt><trkpt lat="41.26699397953445" lon="14.570241778794234"><ele>309.0</ele><time>2026-05-02T12:14:19Z</time></trkpt><trkpt lat="41.26705891738449" lon="14.57036937470657"><ele>308.0</ele><time>2026-05-02T12:14:20Z</time></trkpt><trkpt lat="41.26714351185217" lon="14.570476575047532"><ele>307.0</ele><time>2026-05-02T12:14:21Z</time></trkpt><trkpt lat="41.26722405300889" lon="14.570572010998006"><ele>306.0</ele><time>2026-05-02T12:14:22Z</time></trkpt><trkpt lat="41.267291227940305" lon="14.570684128445297"><ele>305.0</ele><time>2026-05-02T12:14:23.001Z</time></trkpt><trkpt lat="41.267350174539345" lon="14.570776314921687"><ele>304.0</ele><time>2026-05-02T12:14:24.001Z</time></trkpt><trkpt lat="41.26740425243611" lon="14.57086363529278"><ele>304.4</ele><time>2026-05-02T12:14:25.001Z</time></trkpt><trkpt lat="41.26742071479758" lon="14.571020504112415"><ele>304.79999999999995</ele><time>2026-05-02T12:14:26.001Z</time></trkpt><trkpt lat="41.267387543934596" lon="14.57115423567864"><ele>305.20000000000005</ele><time>2026-05-02T12:14:27.001Z</time></trkpt><trkpt lat="41.26732836610432" lon="14.571246332736807"><ele>305.6</ele><time>2026-05-02T12:14:28.001Z</time></trkpt><trkpt lat="41.26724481816454" lon="14.571302384218018"><ele>306.0</ele><time>2026-05-02T12:14:29.001Z</time></trkpt><trkpt lat="41.26716746656966" lon="14.571361312516682"><ele>306.0</ele><time>2026-05-02T12:14:30.001Z</time></trkpt><trkpt lat="41.267111128766494" lon="14.571462351181303"><ele>306.0</ele><time>2026-05-02T12:14:31.001Z</time></trkpt><trkpt lat="41.26708170611372" lon="14.571601581924725"><ele>306.0</ele><time>2026-05-02T12:14:32.001Z</time></trkpt><trkpt lat="41.267065337030694" lon="14.571762341460968"><ele>306.0</ele><time>2026-05-02T12:14:33.001Z</time></trkpt><trkpt lat="41.26705572560982" lon="14.571923467561403"><ele>306.0</ele><time>2026-05-02T12:14:34.001Z</time></trkpt><trkpt lat="41.26703845526278" lon="14.572082164359195"><ele>308.5</ele><time>2026-05-02T12:14:35.001Z</time></trkpt><trkpt lat="41.26701010579199" lon="14.572216709242989"><ele>311.0</ele><time>2026-05-02T12:14:36.001Z</time></trkpt><trkpt lat="41.26694319267483" lon="14.572328474216363"><ele>313.5</ele><time>2026-05-02T12:14:37.001Z</time></trkpt><trkpt lat="41.26685671273361" lon="14.572408843966205"><ele>316.0</ele><time>2026-05-02T12:14:38.001Z</time></trkpt><trkpt lat="41.26671380247867" lon="14.572428183118841"><ele>316.0</ele><time>2026-05-02T12:14:39Z</time></trkpt><trkpt lat="41.26657941267141" lon="14.572433080326421"><ele>316.0</ele><time>2026-05-02T12:14:40Z</time></trkpt><trkpt lat="41.26648208730315" lon="14.572446571550367"><ele>316.0</ele><time>2026-05-02T12:14:41Z</time></trkpt><trkpt lat="41.26638275128616" lon="14.572514774354396"><ele>316.0</ele><time>2026-05-02T12:14:42Z</time></trkpt><trkpt lat="41.2663030728482" lon="14.572613679242103"><ele>315.25</ele><time>2026-05-02T12:14:43Z</time></trkpt><trkpt lat="41.266279136469684" lon="14.572768563799604"><ele>314.5</ele><time>2026-05-02T12:14:44Z</time></trkpt><trkpt lat="41.26625926619445" lon="14.57292457535662"><ele>313.75</ele><time>2026-05-02T12:14:45Z</time></trkpt><trkpt lat="41.266240120304005" lon="14.573066060386054"><ele>313.0</ele><time>2026-05-02T12:14:46Z</time></trkpt><trkpt lat="41.266203512557276" lon="14.573204905934967"><ele>315.25</ele><time>2026-05-02T12:14:47Z</time></trkpt><trkpt lat="41.2660787207219" lon="14.573303611761405"><ele>317.5</ele><time>2026-05-02T12:14:48Z</time></trkpt><trkpt lat="41.265966033809306" lon="14.573420955621698"><ele>319.75</ele><time>2026-05-02T12:14:49Z</time></trkpt><trkpt lat="41.26586156209403" lon="14.573545173370313"><ele>322.0</ele><time>2026-05-02T12:14:50Z</time></trkpt><trkpt lat="41.26575050304026" lon="14.573629955638813"><ele>322.0</ele><time>2026-05-02T12:14:51Z</time></trkpt><trkpt lat="41.26562848761217" lon="14.573673089245892"><ele>322.0</ele><time>2026-05-02T12:14:52Z</time></trkpt><trkpt lat="41.26550912779334" lon="14.573633058531367"><ele>322.0</ele><time>2026-05-02T12:14:53Z</time></trkpt><trkpt lat="41.26538635191728" lon="14.573597508939383"><ele>322.0</ele><time>2026-05-02T12:14:54Z</time></trkpt><trkpt lat="41.265267511680314" lon="14.573535380818669"><ele>322.0</ele><time>2026-05-02T12:14:55Z</time></trkpt><trkpt lat="41.26517878567353" lon="14.573496085813389"><ele>322.0</ele><time>2026-05-02T12:14:56Z</time></trkpt><trkpt lat="41.26510210371211" lon="14.573506307821994"><ele>322.0</ele><time>2026-05-02T12:14:57Z</time></trkpt><trkpt lat="41.265018361566135" lon="14.573548942360885"><ele>322.0</ele><time>2026-05-02T12:14:58Z</time></trkpt><trkpt lat="41.26496073181122" lon="14.573654569635433"><ele>322.0</ele><time>2026-05-02T12:14:59Z</time></trkpt><trkpt lat="41.264936318543704" lon="14.573769333993042"><ele>322.0</ele><time>2026-05-02T12:15:00Z</time></trkpt><trkpt lat="41.26494229965943" lon="14.573912612689728"><ele>323.75</ele><time>2026-05-02T12:15:01Z</time></trkpt><trkpt lat="41.26499470530939" lon="14.574045626840407"><ele>325.5</ele><time>2026-05-02T12:15:02Z</time></trkpt><trkpt lat="41.26507580959006" lon="14.574231419291939"><ele>327.25</ele><time>2026-05-02T12:15:04Z</time></trkpt><trkpt lat="41.26512350374722" lon="14.574366228788467"><ele>329.0</ele><time>2026-05-02T12:15:05Z</time></trkpt><trkpt lat="41.26513887230054" lon="14.574484840909413"><ele>329.79999999999995</ele><time>2026-05-02T12:15:06Z</time></trkpt><trkpt lat="41.265123332331434" lon="14.574614982428589"><ele>330.59999999999997</ele><time>2026-05-02T12:15:07Z</time></trkpt><trkpt lat="41.26505958972006" lon="14.574711855950905"><ele>331.4</ele><time>2026-05-02T12:15:08Z</time></trkpt><trkpt lat="41.26499744226208" lon="14.574810542645615"><ele>332.2</ele><time>2026-05-02T12:15:09Z</time></trkpt><trkpt lat="41.26494915121383" lon="14.574909868995993"><ele>333.0</ele><time>2026-05-02T12:15:10Z</time></trkpt><trkpt lat="41.26492332369343" lon="14.5750367508254"><ele>333.0</ele><time>2026-05-02T12:15:11Z</time></trkpt><trkpt lat="41.26494649476496" lon="14.575178018833737"><ele>333.0</ele><time>2026-05-02T12:15:12Z</time></trkpt><trkpt lat="41.264984347641125" lon="14.575324258431793"><ele>333.0</ele><time>2026-05-02T12:15:13Z</time></trkpt><trkpt lat="41.26502446842642" lon="14.575480298346674"><ele>333.0</ele><time>2026-05-02T12:15:14Z</time></trkpt><trkpt lat="41.265072241936785" lon="14.575623023712255"><ele>332.3333333333333</ele><time>2026-05-02T12:15:15Z</time></trkpt><trkpt lat="41.26514270011155" lon="14.575772653020778"><ele>331.66666666666663</ele><time>2026-05-02T12:15:16Z</time></trkpt><trkpt lat="41.26524464562485" lon="14.575892586959753"><ele>331.0</ele><time>2026-05-02T12:15:17Z</time></trkpt><trkpt lat="41.265403443419544" lon="14.5760093512661"><ele>331.0</ele><time>2026-05-02T12:15:18Z</time></trkpt><trkpt lat="41.26560475940268" lon="14.576141673511094"><ele>331.0</ele><time>2026-05-02T12:15:19Z</time></trkpt><trkpt lat="41.265828503726965" lon="14.576303870891126"><ele>333.66666666666663</ele><time>2026-05-02T12:15:20Z</time></trkpt><trkpt lat="41.266040595242764" lon="14.576459598751985"><ele>336.3333333333333</ele><time>2026-05-02T12:15:21Z</time></trkpt><trkpt lat="41.26620629016894" lon="14.576619211422626"><ele>339.0</ele><time>2026-05-02T12:15:22Z</time></trkpt><trkpt lat="41.26630940975083" lon="14.57679807253192"><ele>339.0</ele><time>2026-05-02T12:15:23Z</time></trkpt><trkpt lat="41.266392030293325" lon="14.576981923619279"><ele>339.0</ele><time>2026-05-02T12:15:24Z</time></trkpt><trkpt lat="41.26643892349968" lon="14.577184801770278"><ele>339.0</ele><time>2026-05-02T12:15:25Z</time></trkpt><trkpt lat="41.266462650123344" lon="14.57744996852221"><ele>344.0</ele><time>2026-05-02T12:15:26Z</time></trkpt><trkpt lat="41.26653724616483" lon="14.577756159402314"><ele>349.0</ele><time>2026-05-02T12:15:27Z</time></trkpt><trkpt lat="41.266615184576516" lon="14.578041981741338"><ele>350.0</ele><time>2026-05-02T12:15:28Z</time></trkpt><trkpt lat="41.266682435361105" lon="14.578294867847882"><ele>351.0</ele><time>2026-05-02T12:15:29Z</time></trkpt><trkpt lat="41.26673731088398" lon="14.57852169916453"><ele>352.0</ele><time>2026-05-02T12:15:30Z</time></trkpt><trkpt lat="41.26678077360633" lon="14.578723895756802"><ele>353.0</ele><time>2026-05-02T12:15:31Z</time></trkpt><trkpt lat="41.26677272638419" lon="14.578920145692193"><ele>354.0</ele><time>2026-05-02T12:15:32Z</time></trkpt><trkpt lat="41.26670886806173" lon="14.57907108058865"><ele>355.0</ele><time>2026-05-02T12:15:33Z</time></trkpt><trkpt lat="41.26664208320067" lon="14.579263972366704"><ele>356.0</ele><time>2026-05-02T12:15:34Z</time></trkpt><trkpt lat="41.26653725676338" lon="14.579460789090263"><ele>355.6666666666667</ele><time>2026-05-02T12:15:35Z</time></trkpt><trkpt lat="41.266460981831095" lon="14.579673556589135"><ele>355.3333333333333</ele><time>2026-05-02T12:15:36Z</time></trkpt><trkpt lat="41.266425713961524" lon="14.579904005158358"><ele>355.0</ele><time>2026-05-02T12:15:37Z</time></trkpt><trkpt lat="41.26641665104261" lon="14.580167780269155"><ele>356.0</ele><time>2026-05-02T12:15:38Z</time></trkpt><trkpt lat="41.26640985305217" lon="14.580451596759787"><ele>357.0</ele><time>2026-05-02T12:15:39Z</time></trkpt><trkpt lat="41.26637028362961" lon="14.580733237605351"><ele>358.0</ele><time>2026-05-02T12:15:40Z</time></trkpt><trkpt lat="41.26633145633304" lon="14.581023375342507"><ele>358.5</ele><time>2026-05-02T12:15:41Z</time></trkpt><trkpt lat="41.26631371117797" lon="14.58130963856318"><ele>359.0</ele><time>2026-05-02T12:15:42Z</time></trkpt><trkpt lat="41.2663316428774" lon="14.581639103699127"><ele>359.0</ele><time>2026-05-02T12:15:43Z</time></trkpt><trkpt lat="41.266373282144144" lon="14.581999327572756"><ele>359.0</ele><time>2026-05-02T12:15:44Z</time></trkpt><trkpt lat="41.26641324860483" lon="14.582315909171411"><ele>359.33333333333337</ele><time>2026-05-02T12:15:45Z</time></trkpt><trkpt lat="41.2664296595379" lon="14.582580404967118"><ele>359.6666666666667</ele><time>2026-05-02T12:15:46Z</time></trkpt><trkpt lat="41.26643268656693" lon="14.582806465662998"><ele>360.0</ele><time>2026-05-02T12:15:47Z</time></trkpt><trkpt lat="41.26641083158051" lon="14.583002822850478"><ele>362.75</ele><time>2026-05-02T12:15:48Z</time></trkpt><trkpt lat="41.266367149960175" lon="14.583154554785747"><ele>365.5</ele><time>2026-05-02T12:15:49Z</time></trkpt><trkpt lat="41.26628426549712" lon="14.583290483907188"><ele>368.25</ele><time>2026-05-02T12:15:50Z</time></trkpt><trkpt lat="41.266181514249176" lon="14.583443575445592"><ele>371.0</ele><time>2026-05-02T12:15:51Z</time></trkpt><trkpt lat="41.26605471097762" lon="14.583590887958902"><ele>372.33333333333337</ele><time>2026-05-02T12:15:52Z</time></trkpt><trkpt lat="41.26588747129328" lon="14.583761824793799"><ele>373.6666666666667</ele><time>2026-05-02T12:15:53Z</time></trkpt><trkpt lat="41.265732894308734" lon="14.583935896095028"><ele>375.0</ele><time>2026-05-02T12:15:54Z</time></trkpt><trkpt lat="41.26556792989262" lon="14.584122924610627"><ele>375.0</ele><time>2026-05-02T12:15:55Z</time></trkpt><trkpt lat="41.265414328414806" lon="14.584309590538268"><ele>375.0</ele><time>2026-05-02T12:15:56Z</time></trkpt><trkpt lat="41.26528296764094" lon="14.584512424788008"><ele>375.0</ele><time>2026-05-02T12:15:57Z</time></trkpt><trkpt lat="41.26517054402304" lon="14.58476147876039"><ele>377.6666666666667</ele><time>2026-05-02T12:15:58Z</time></trkpt><trkpt lat="41.26507192059259" lon="14.585024377916785"><ele>380.33333333333337</ele><time>2026-05-02T12:15:59Z</time></trkpt><trkpt lat="41.26495674733103" lon="14.585279061459577"><ele>383.0</ele><time>2026-05-02T12:16:00Z</time></trkpt><trkpt lat="41.26479162258878" lon="14.585545618283957"><ele>383.5</ele><time>2026-05-02T12:16:01Z</time></trkpt><trkpt lat="41.264626567576265" lon="14.585783356302402"><ele>384.0</ele><time>2026-05-02T12:16:02Z</time></trkpt><trkpt lat="41.264438670496475" lon="14.586040252894435"><ele>388.5</ele><time>2026-05-02T12:16:03Z</time></trkpt><trkpt lat="41.26425228954391" lon="14.586297687870394"><ele>393.0</ele><time>2026-05-02T12:16:04Z</time></trkpt><trkpt lat="41.2641010340162" lon="14.586548709637187"><ele>393.0</ele><time>2026-05-02T12:16:04.999Z</time></trkpt><trkpt lat="41.26397655359915" lon="14.586767047659466"><ele>393.0</ele><time>2026-05-02T12:16:05.999Z</time></trkpt><trkpt lat="41.2638595670791" lon="14.587004310719974"><ele>393.0</ele><time>2026-05-02T12:16:06.999Z</time></trkpt><trkpt lat="41.263717945570555" lon="14.58723578219014"><ele>387.5</ele><time>2026-05-02T12:16:07.999Z</time></trkpt><trkpt lat="41.26355559150282" lon="14.587496656607005"><ele>382.0</ele><time>2026-05-02T12:16:08.999Z</time></trkpt><trkpt lat="41.26340101695003" lon="14.587788720872089"><ele>379.5</ele><time>2026-05-02T12:16:09.999Z</time></trkpt><trkpt lat="41.26323057838944" lon="14.588061420957551"><ele>377.0</ele><time>2026-05-02T12:16:10.999Z</time></trkpt><trkpt lat="41.26307567318838" lon="14.588293220378743"><ele>377.0</ele><time>2026-05-02T12:16:11.999Z</time></trkpt><trkpt lat="41.26293239308978" lon="14.588524294240832"><ele>377.0</ele><time>2026-05-02T12:16:12.999Z</time></trkpt><trkpt lat="41.26282037822058" lon="14.588720928244513"><ele>377.0</ele><time>2026-05-02T12:16:13.999Z</time></trkpt><trkpt lat="41.262710996532796" lon="14.588895711341394"><ele>379.25</ele><time>2026-05-02T12:16:14.999Z</time></trkpt><trkpt lat="41.26264563914916" lon="14.589073246735811"><ele>381.5</ele><time>2026-05-02T12:16:15.999Z</time></trkpt><trkpt lat="41.2626091386332" lon="14.589259347609639"><ele>383.75</ele><time>2026-05-02T12:16:16.999Z</time></trkpt><trkpt lat="41.26260565834095" lon="14.589464261600105"><ele>386.0</ele><time>2026-05-02T12:16:17.999Z</time></trkpt><trkpt lat="41.262566780484924" lon="14.589620413258064"><ele>388.25</ele><time>2026-05-02T12:16:18.999Z</time></trkpt><trkpt lat="41.262520973498304" lon="14.58974490518422"><ele>390.5</ele><time>2026-05-02T12:16:19.999Z</time></trkpt><trkpt lat="41.26244487508582" lon="14.589841244877585"><ele>392.75</ele><time>2026-05-02T12:16:20.999Z</time></trkpt><trkpt lat="41.26231684485706" lon="14.589842038854277"><ele>395.0</ele><time>2026-05-02T12:16:21.999Z</time></trkpt><trkpt lat="41.26216776763881" lon="14.589836771593564"><ele>396.66666666666663</ele><time>2026-05-02T12:16:22.999Z</time></trkpt><trkpt lat="41.26199374147081" lon="14.58980748479064"><ele>398.33333333333337</ele><time>2026-05-02T12:16:23.999Z</time></trkpt><trkpt lat="41.261801829663874" lon="14.589706930064095"><ele>400.0</ele><time>2026-05-02T12:16:24.999Z</time></trkpt><trkpt lat="41.261586526431955" lon="14.58961793493455"><ele>395.0</ele><time>2026-05-02T12:16:25.999Z</time></trkpt><trkpt lat="41.26133646822477" lon="14.589535250956446"><ele>390.0</ele><time>2026-05-02T12:16:26.999Z</time></trkpt><trkpt lat="41.261126860749435" lon="14.589476055743987"><ele>390.0</ele><time>2026-05-02T12:16:27.999Z</time></trkpt><trkpt lat="41.260971706793164" lon="14.58939818812955"><ele>390.0</ele><time>2026-05-02T12:16:29Z</time></trkpt><trkpt lat="41.26081877389459" lon="14.589309657251716"><ele>390.0</ele><time>2026-05-02T12:16:30Z</time></trkpt><trkpt lat="41.26066158335315" lon="14.589186202596416"><ele>392.66666666666663</ele><time>2026-05-02T12:16:31Z</time></trkpt><trkpt lat="41.26046507615308" lon="14.589038602119587"><ele>395.3333333333333</ele><time>2026-05-02T12:16:32Z</time></trkpt><trkpt lat="41.26028022009209" lon="14.588941074507023"><ele>398.0</ele><time>2026-05-02T12:16:33Z</time></trkpt><trkpt lat="41.260126946362256" lon="14.58885253319329"><ele>398.0</ele><time>2026-05-02T12:16:34Z</time></trkpt><trkpt lat="41.26000296819554" lon="14.588829460909242"><ele>398.0</ele><time>2026-05-02T12:16:35Z</time></trkpt><trkpt lat="41.25989955627972" lon="14.588845650088599"><ele>398.0</ele><time>2026-05-02T12:16:36Z</time></trkpt><trkpt lat="41.25981313267129" lon="14.588912249971967"><ele>398.0</ele><time>2026-05-02T12:16:37Z</time></trkpt><trkpt lat="41.25972704667957" lon="14.589016325272997"><ele>398.0</ele><time>2026-05-02T12:16:38Z</time></trkpt><trkpt lat="41.25962960240109" lon="14.589125348801488"><ele>397.75</ele><time>2026-05-02T12:16:39Z</time></trkpt><trkpt lat="41.25951188532268" lon="14.58921354959252"><ele>397.5</ele><time>2026-05-02T12:16:40Z</time></trkpt><trkpt lat="41.25940498013021" lon="14.58931262361003"><ele>397.25</ele><time>2026-05-02T12:16:41Z</time></trkpt><trkpt lat="41.25929382499009" lon="14.5894156362056"><ele>397.0</ele><time>2026-05-02T12:16:42Z</time></trkpt><trkpt lat="41.259191072726374" lon="14.58951185012937"><ele>395.8</ele><time>2026-05-02T12:16:43Z</time></trkpt><trkpt lat="41.259102315577756" lon="14.589592950957204"><ele>394.6</ele><time>2026-05-02T12:16:44Z</time></trkpt><trkpt lat="41.25902354894057" lon="14.589676746094428"><ele>393.40000000000003</ele><time>2026-05-02T12:16:45Z</time></trkpt><trkpt lat="41.258948904869534" lon="14.589790785915897"><ele>392.20000000000005</ele><time>2026-05-02T12:16:46Z</time></trkpt><trkpt lat="41.25890028995178" lon="14.58993404886951"><ele>391.0</ele><time>2026-05-02T12:16:47Z</time></trkpt><trkpt lat="41.25885961320299" lon="14.590088974367571"><ele>391.0</ele><time>2026-05-02T12:16:48Z</time></trkpt><trkpt lat="41.258842716332474" lon="14.590264847791891"><ele>391.0</ele><time>2026-05-02T12:16:49Z</time></trkpt><trkpt lat="41.25882910547051" lon="14.59042538267906"><ele>391.0</ele><time>2026-05-02T12:16:50Z</time></trkpt><trkpt lat="41.25882730788343" lon="14.590554850813556"><ele>391.0</ele><time>2026-05-02T12:16:51Z</time></trkpt><trkpt lat="41.258847403226255" lon="14.590680795366305"><ele>391.0</ele><time>2026-05-02T12:16:52Z</time></trkpt><trkpt lat="41.25889938822793" lon="14.59080820594055"><ele>392.8</ele><time>2026-05-02T12:16:53Z</time></trkpt><trkpt lat="41.258975023055385" lon="14.590919559890105"><ele>394.6</ele><time>2026-05-02T12:16:54Z</time></trkpt><trkpt lat="41.25907064806896" lon="14.590999524300289"><ele>396.4</ele><time>2026-05-02T12:16:55Z</time></trkpt><trkpt lat="41.25916224826278" lon="14.59108156714213"><ele>398.2</ele><time>2026-05-02T12:16:56Z</time></trkpt><trkpt lat="41.259243663317555" lon="14.591178496205535"><ele>400.0</ele><time>2026-05-02T12:16:57Z</time></trkpt><trkpt lat="41.259334925431105" lon="14.591244645404753"><ele>400.0</ele><time>2026-05-02T12:16:58Z</time></trkpt><trkpt lat="41.25939509392116" lon="14.591352117170334"><ele>400.0</ele><time>2026-05-02T12:16:59Z</time></trkpt><trkpt lat="41.259424429233455" lon="14.591501614480679"><ele>400.0</ele><time>2026-05-02T12:17:00Z</time></trkpt><trkpt lat="41.25938262823895" lon="14.591653843888402"><ele>400.0</ele><time>2026-05-02T12:17:01Z</time></trkpt><trkpt lat="41.25934100455786" lon="14.591814243601442"><ele>400.0</ele><time>2026-05-02T12:17:02Z</time></trkpt><trkpt lat="41.25929933857418" lon="14.591986473729554"><ele>400.0</ele><time>2026-05-02T12:17:03Z</time></trkpt><trkpt lat="41.25926999723143" lon="14.592177622207343"><ele>400.0</ele><time>2026-05-02T12:17:04Z</time></trkpt><trkpt lat="41.25921526777695" lon="14.592366683414948"><ele>400.0</ele><time>2026-05-02T12:17:05Z</time></trkpt><trkpt lat="41.259173593877144" lon="14.592542178222606"><ele>400.25</ele><time>2026-05-02T12:17:06Z</time></trkpt><trkpt lat="41.259129522051396" lon="14.592715656205995"><ele>400.5</ele><time>2026-05-02T12:17:07Z</time></trkpt><trkpt lat="41.25906521400749" lon="14.592875750099124"><ele>400.75</ele><time>2026-05-02T12:17:08Z</time></trkpt><trkpt lat="41.25901200658793" lon="14.59303211056951"><ele>401.0</ele><time>2026-05-02T12:17:09Z</time></trkpt><trkpt lat="41.25896378785148" lon="14.593169527142868"><ele>399.8</ele><time>2026-05-02T12:17:10Z</time></trkpt><trkpt lat="41.25893209882278" lon="14.593304862345734"><ele>398.6</ele><time>2026-05-02T12:17:11Z</time></trkpt><trkpt lat="41.25888740589891" lon="14.593411145960747"><ele>397.4</ele><time>2026-05-02T12:17:12Z</time></trkpt><trkpt lat="41.258856472097136" lon="14.593487761617064"><ele>396.2</ele><time>2026-05-02T12:17:13Z</time></trkpt><trkpt lat="41.258786452584765" lon="14.593607695018076"><ele>395.0</ele><time>2026-05-02T12:17:15Z</time></trkpt><trkpt lat="41.258657711204464" lon="14.593781849333427"><ele>398.25</ele><time>2026-05-02T12:17:17Z</time></trkpt><trkpt lat="41.25856866637529" lon="14.593858542032788"><ele>401.5</ele><time>2026-05-02T12:17:18Z</time></trkpt><trkpt lat="41.25845867215809" lon="14.593916209164803"><ele>404.75</ele><time>2026-05-02T12:17:19Z</time></trkpt><trkpt lat="41.25833393120131" lon="14.593961191235545"><ele>408.0</ele><time>2026-05-02T12:17:20Z</time></trkpt><trkpt lat="41.25820145413359" lon="14.593999928174757"><ele>405.0</ele><time>2026-05-02T12:17:21Z</time></trkpt><trkpt lat="41.25807924968113" lon="14.594075220883255"><ele>402.0</ele><time>2026-05-02T12:17:22Z</time></trkpt><trkpt lat="41.2579809912596" lon="14.594159284329347"><ele>399.0</ele><time>2026-05-02T12:17:23Z</time></trkpt><trkpt lat="41.257916743941955" lon="14.594264862169238"><ele>396.0</ele><time>2026-05-02T12:17:24Z</time></trkpt><trkpt lat="41.257848904437594" lon="14.594372995525784"><ele>396.0</ele><time>2026-05-02T12:17:25Z</time></trkpt><trkpt lat="41.25778779527476" lon="14.594462334663758"><ele>396.0</ele><time>2026-05-02T12:17:26Z</time></trkpt><trkpt lat="41.25771723740653" lon="14.594529781205452"><ele>396.0</ele><time>2026-05-02T12:17:27Z</time></trkpt><trkpt lat="41.2576564791368" lon="14.594601482281766"><ele>396.0</ele><time>2026-05-02T12:17:28Z</time></trkpt><trkpt lat="41.25761848187622" lon="14.594670690322426"><ele>396.0</ele><time>2026-05-02T12:17:29Z</time></trkpt><trkpt lat="41.257552494487626" lon="14.594706844091414"><ele>396.0</ele><time>2026-05-02T12:17:30Z</time></trkpt><trkpt lat="41.25746392890225" lon="14.594783463080557"><ele>398.8</ele><time>2026-05-02T12:17:32Z</time></trkpt><trkpt lat="41.2573636787549" lon="14.594859627080865"><ele>401.6</ele><time>2026-05-02T12:17:34Z</time></trkpt><trkpt lat="41.257297911567235" lon="14.594919676474824"><ele>404.4</ele><time>2026-05-02T12:17:36Z</time></trkpt><trkpt lat="41.25723186494744" lon="14.594945448941283"><ele>407.2</ele><time>2026-05-02T12:17:39Z</time></trkpt><trkpt lat="41.25715124075906" lon="14.594971490553666"><ele>410.0</ele><time>2026-05-02T12:18:31.999Z</time></trkpt><trkpt lat="41.257054484545314" lon="14.595027332216143"><ele>409.99999999999994</ele><time>2026-05-02T12:18:32.999Z</time></trkpt><trkpt lat="41.25696799590344" lon="14.595084563172076"><ele>410.0</ele><time>2026-05-02T12:18:33.999Z</time></trkpt><trkpt lat="41.2568975045522" lon="14.595137945948695"><ele>410.0</ele><time>2026-05-02T12:18:35Z</time></trkpt><trkpt lat="41.25681408748499" lon="14.595214221304913"><ele>410.0</ele><time>2026-05-02T12:18:37Z</time></trkpt><trkpt lat="41.256763252187866" lon="14.595265481538146"><ele>409.99999999999994</ele><time>2026-05-02T12:18:38Z</time></trkpt><trkpt lat="41.25670580199381" lon="14.595327153234928"><ele>410.0</ele><time>2026-05-02T12:18:39Z</time></trkpt><trkpt lat="41.256654146186186" lon="14.595385315540392"><ele>414.5</ele><time>2026-05-02T12:18:40Z</time></trkpt><trkpt lat="41.256565293776355" lon="14.595474535708831"><ele>419.0</ele><time>2026-05-02T12:18:42Z</time></trkpt><trkpt lat="41.25649961227528" lon="14.595542520022473"><ele>423.5</ele><time>2026-05-02T12:18:43Z</time></trkpt><trkpt lat="41.25641737225659" lon="14.595641634455765"><ele>428.0</ele><time>2026-05-02T12:18:44Z</time></trkpt><trkpt lat="41.25632712596017" lon="14.59580649841396"><ele>428.5</ele><time>2026-05-02T12:18:45Z</time></trkpt><trkpt lat="41.256226472640684" lon="14.595966535981201"><ele>429.0</ele><time>2026-05-02T12:18:46Z</time></trkpt><trkpt lat="41.25613217898579" lon="14.596116706901126"><ele>429.5</ele><time>2026-05-02T12:18:47Z</time></trkpt><trkpt lat="41.25603837298963" lon="14.59625807840109"><ele>430.0</ele><time>2026-05-02T12:18:48Z</time></trkpt><trkpt lat="41.2559706137995" lon="14.596378675861462"><ele>431.0</ele><time>2026-05-02T12:18:49Z</time></trkpt><trkpt lat="41.25590275540073" lon="14.596484862813845"><ele>432.0</ele><time>2026-05-02T12:18:50Z</time></trkpt><trkpt lat="41.255828099044365" lon="14.596557564093029"><ele>433.0</ele><time>2026-05-02T12:18:51Z</time></trkpt><trkpt lat="41.25575809116607" lon="14.596659183687688"><ele>434.0</ele><time>2026-05-02T12:18:52Z</time></trkpt><trkpt lat="41.25572298529297" lon="14.59677120804458"><ele>435.0</ele><time>2026-05-02T12:18:53Z</time></trkpt><trkpt lat="41.25568790878742" lon="14.59688859690923"><ele>435.4</ele><time>2026-05-02T12:18:54Z</time></trkpt><trkpt lat="41.25567444491294" lon="14.597016409523754"><ele>435.8</ele><time>2026-05-02T12:18:55Z</time></trkpt><trkpt lat="41.2557210262964" lon="14.597149598836195"><ele>436.20000000000005</ele><time>2026-05-02T12:18:56Z</time></trkpt><trkpt lat="41.25574479967584" lon="14.597297097784967"><ele>436.6</ele><time>2026-05-02T12:18:57Z</time></trkpt><trkpt lat="41.25572486728892" lon="14.597423419435657"><ele>437.0</ele><time>2026-05-02T12:18:58Z</time></trkpt><trkpt lat="41.255752489187586" lon="14.597577109668258"><ele>437.0</ele><time>2026-05-02T12:18:59Z</time></trkpt><trkpt lat="41.255782857794976" lon="14.597730151011005"><ele>437.0</ele><time>2026-05-02T12:19:00Z</time></trkpt><trkpt lat="41.255811779996876" lon="14.597882520326538"><ele>437.0</ele><time>2026-05-02T12:19:01Z</time></trkpt><trkpt lat="41.255848512781945" lon="14.598040338242216"><ele>437.0</ele><time>2026-05-02T12:19:02Z</time></trkpt><trkpt lat="41.25588376528541" lon="14.598186304779395"><ele>437.0</ele><time>2026-05-02T12:19:03Z</time></trkpt><trkpt lat="41.255940421570706" lon="14.598334481559737"><ele>437.0</ele><time>2026-05-02T12:19:04Z</time></trkpt><trkpt lat="41.25599948049291" lon="14.598481864516879"><ele>437.0</ele><time>2026-05-02T12:19:05Z</time></trkpt><trkpt lat="41.25607773269182" lon="14.598625661739684"><ele>437.0</ele><time>2026-05-02T12:19:06Z</time></trkpt><trkpt lat="41.25612591728452" lon="14.598791169749616"><ele>437.0</ele><time>2026-05-02T12:19:07Z</time></trkpt><trkpt lat="41.25618979372158" lon="14.598954093933068"><ele>437.0</ele><time>2026-05-02T12:19:08Z</time></trkpt><trkpt lat="41.25625975650758" lon="14.599132563341076"><ele>437.0</ele><time>2026-05-02T12:19:09Z</time></trkpt><trkpt lat="41.25631260523862" lon="14.599283803470378"><ele>437.0</ele><time>2026-05-02T12:19:10Z</time></trkpt><trkpt lat="41.25634994413309" lon="14.599435593172418"><ele>438.25</ele><time>2026-05-02T12:19:11Z</time></trkpt><trkpt lat="41.25634528013573" lon="14.599586769281366"><ele>439.5</ele><time>2026-05-02T12:19:12Z</time></trkpt><trkpt lat="41.25632538059781" lon="14.599755025116202"><ele>440.75</ele><time>2026-05-02T12:19:13Z</time></trkpt><trkpt lat="41.256271847882054" lon="14.599930131678564"><ele>442.0</ele><time>2026-05-02T12:19:14Z</time></trkpt><trkpt lat="41.25622590125302" lon="14.60012412936899"><ele>442.0</ele><time>2026-05-02T12:19:15Z</time></trkpt><trkpt lat="41.25618592932534" lon="14.600323895330385"><ele>442.0</ele><time>2026-05-02T12:19:16Z</time></trkpt><trkpt lat="41.256127348006" lon="14.600529063107901"><ele>442.0</ele><time>2026-05-02T12:19:17Z</time></trkpt><trkpt lat="41.25607797689239" lon="14.600740774638519"><ele>443.33333333333337</ele><time>2026-05-02T12:19:18Z</time></trkpt><trkpt lat="41.25602649217986" lon="14.600953524338841"><ele>444.66666666666663</ele><time>2026-05-02T12:19:19Z</time></trkpt><trkpt lat="41.25597232933547" lon="14.601177950034751"><ele>446.0</ele><time>2026-05-02T12:19:20Z</time></trkpt><trkpt lat="41.25591244184734" lon="14.6014122607499"><ele>446.66666666666663</ele><time>2026-05-02T12:19:21Z</time></trkpt><trkpt lat="41.2558585790069" lon="14.601610728798489"><ele>447.33333333333337</ele><time>2026-05-02T12:19:22Z</time></trkpt><trkpt lat="41.25582083834252" lon="14.60180027519739"><ele>448.0</ele><time>2026-05-02T12:19:23Z</time></trkpt><trkpt lat="41.25577841458723" lon="14.601996608229078"><ele>447.33333333333337</ele><time>2026-05-02T12:19:24Z</time></trkpt><trkpt lat="41.25572323463284" lon="14.602218371929544"><ele>446.66666666666663</ele><time>2026-05-02T12:19:25Z</time></trkpt><trkpt lat="41.25566417658709" lon="14.602440659691212"><ele>446.0</ele><time>2026-05-02T12:19:26Z</time></trkpt><trkpt lat="41.25561084456174" lon="14.602664974047826"><ele>446.3333333333333</ele><time>2026-05-02T12:19:27Z</time></trkpt><trkpt lat="41.255554758667344" lon="14.602893445213182"><ele>446.66666666666663</ele><time>2026-05-02T12:19:28Z</time></trkpt><trkpt lat="41.2555020984193" lon="14.603114232375198"><ele>447.0</ele><time>2026-05-02T12:19:29Z</time></trkpt><trkpt lat="41.25545562637831" lon="14.603313712629863"><ele>447.0</ele><time>2026-05-02T12:19:30Z</time></trkpt><trkpt lat="41.255418612751654" lon="14.603507592717568"><ele>447.0</ele><time>2026-05-02T12:19:31Z</time></trkpt><trkpt lat="41.25536872350546" lon="14.603708361530865"><ele>447.0</ele><time>2026-05-02T12:19:32Z</time></trkpt><trkpt lat="41.255320828178924" lon="14.60391918125396"><ele>448.0</ele><time>2026-05-02T12:19:33Z</time></trkpt><trkpt lat="41.25526610698005" lon="14.604144443751077"><ele>449.0</ele><time>2026-05-02T12:19:34Z</time></trkpt><trkpt lat="41.255209741434456" lon="14.604368940598974"><ele>450.0</ele><time>2026-05-02T12:19:35Z</time></trkpt><trkpt lat="41.25514547300274" lon="14.604588761888907"><ele>451.33333333333337</ele><time>2026-05-02T12:19:36Z</time></trkpt><trkpt lat="41.25509519404724" lon="14.60481258713236"><ele>452.6666666666667</ele><time>2026-05-02T12:19:37Z</time></trkpt><trkpt lat="41.2550458551316" lon="14.605004944979042"><ele>454.0</ele><time>2026-05-02T12:19:38Z</time></trkpt><trkpt lat="41.25501167470468" lon="14.605198290236466"><ele>454.6666666666667</ele><time>2026-05-02T12:19:39Z</time></trkpt><trkpt lat="41.254984630317985" lon="14.605414839095555"><ele>455.33333333333337</ele><time>2026-05-02T12:19:40Z</time></trkpt><trkpt lat="41.25496604157578" lon="14.605638524382146"><ele>456.0</ele><time>2026-05-02T12:19:41Z</time></trkpt><trkpt lat="41.25493916593344" lon="14.605879716927612"><ele>456.0</ele><time>2026-05-02T12:19:42Z</time></trkpt><trkpt lat="41.25492002903248" lon="14.606120442959389"><ele>456.0</ele><time>2026-05-02T12:19:43Z</time></trkpt><trkpt lat="41.254896763115646" lon="14.60637307865519"><ele>456.0</ele><time>2026-05-02T12:19:44Z</time></trkpt><trkpt lat="41.25486495277372" lon="14.606641561552767"><ele>456.66666666666663</ele><time>2026-05-02T12:19:45Z</time></trkpt><trkpt lat="41.25483585487142" lon="14.606893496555458"><ele>457.3333333333333</ele><time>2026-05-02T12:19:46Z</time></trkpt><trkpt lat="41.254813269260346" lon="14.607125893311373"><ele>458.0</ele><time>2026-05-02T12:19:47Z</time></trkpt><trkpt lat="41.25480113515483" lon="14.607342611953456"><ele>459.0</ele><time>2026-05-02T12:19:48Z</time></trkpt><trkpt lat="41.254799322866454" lon="14.607562777063254"><ele>460.0</ele><time>2026-05-02T12:19:49Z</time></trkpt><trkpt lat="41.25483864050213" lon="14.607792832159012"><ele>461.0</ele><time>2026-05-02T12:19:50Z</time></trkpt><trkpt lat="41.25492687775572" lon="14.608024408881606"><ele>461.3333333333333</ele><time>2026-05-02T12:19:51Z</time></trkpt><trkpt lat="41.25501190116421" lon="14.60826534976738"><ele>461.66666666666663</ele><time>2026-05-02T12:19:52Z</time></trkpt><trkpt lat="41.255079190885986" lon="14.608533053986337"><ele>462.0</ele><time>2026-05-02T12:19:53Z</time></trkpt><trkpt lat="41.25516077989998" lon="14.608787139049191"><ele>462.0</ele><time>2026-05-02T12:19:54Z</time></trkpt><trkpt lat="41.25521523835177" lon="14.609058980047157"><ele>462.0</ele><time>2026-05-02T12:19:55Z</time></trkpt><trkpt lat="41.25523043642903" lon="14.609346680876584"><ele>462.0</ele><time>2026-05-02T12:19:56Z</time></trkpt><trkpt lat="41.255224964445944" lon="14.609642811560674"><ele>462.0</ele><time>2026-05-02T12:19:57Z</time></trkpt><trkpt lat="41.25520055711563" lon="14.609962659329128"><ele>462.0</ele><time>2026-05-02T12:19:57.999Z</time></trkpt><trkpt lat="41.255168694090216" lon="14.610301899696685"><ele>463.5</ele><time>2026-05-02T12:19:58.999Z</time></trkpt><trkpt lat="41.25514721047928" lon="14.610639822604005"><ele>465.0</ele><time>2026-05-02T12:19:59.999Z</time></trkpt><trkpt lat="41.25510127355297" lon="14.610962462276945"><ele>466.33333333333337</ele><time>2026-05-02T12:20:00.999Z</time></trkpt><trkpt lat="41.255071839197775" lon="14.611251261691176"><ele>467.6666666666667</ele><time>2026-05-02T12:20:01.999Z</time></trkpt><trkpt lat="41.2550320670596" lon="14.611522235714892"><ele>469.0</ele><time>2026-05-02T12:20:02.999Z</time></trkpt><trkpt lat="41.254971705331315" lon="14.611773241535156"><ele>473.0</ele><time>2026-05-02T12:20:03.999Z</time></trkpt><trkpt lat="41.25487849206318" lon="14.61203348514527"><ele>477.0</ele><time>2026-05-02T12:20:04.999Z</time></trkpt><trkpt lat="41.254770032887606" lon="14.612250644578827"><ele>481.0</ele><time>2026-05-02T12:20:05.999Z</time></trkpt><trkpt lat="41.25465372520369" lon="14.612431127227397"><ele>475.33333333333337</ele><time>2026-05-02T12:20:06.999Z</time></trkpt><trkpt lat="41.25454311525928" lon="14.612603192114635"><ele>469.66666666666663</ele><time>2026-05-02T12:20:07.999Z</time></trkpt><trkpt lat="41.25443858629811" lon="14.612767079723863"><ele>464.0</ele><time>2026-05-02T12:20:08.999Z</time></trkpt><trkpt lat="41.254327286598475" lon="14.612949422504443"><ele>464.0</ele><time>2026-05-02T12:20:09.999Z</time></trkpt><trkpt lat="41.25428551707666" lon="14.613234872153152"><ele>464.0</ele><time>2026-05-02T12:20:10.999Z</time></trkpt><trkpt lat="41.25421440777194" lon="14.613486216397565"><ele>464.0</ele><time>2026-05-02T12:20:11.999Z</time></trkpt><trkpt lat="41.25414140160219" lon="14.613756872941261"><ele>466.3333333333333</ele><time>2026-05-02T12:20:12.999Z</time></trkpt><trkpt lat="41.25406256937308" lon="14.614022991957238"><ele>468.66666666666663</ele><time>2026-05-02T12:20:13.999Z</time></trkpt><trkpt lat="41.25399108352353" lon="14.614272648158257"><ele>471.0</ele><time>2026-05-02T12:20:14.999Z</time></trkpt><trkpt lat="41.25392578166304" lon="14.614484638186505"><ele>466.25</ele><time>2026-05-02T12:20:15.999Z</time></trkpt><trkpt lat="41.25387487267055" lon="14.614659374329625"><ele>461.5</ele><time>2026-05-02T12:20:16.999Z</time></trkpt><trkpt lat="41.25384907487503" lon="14.614836451465985"><ele>456.75</ele><time>2026-05-02T12:20:17.999Z</time></trkpt><trkpt lat="41.253866558831014" lon="14.615033872633868"><ele>452.0</ele><time>2026-05-02T12:20:18.999Z</time></trkpt><trkpt lat="41.25394311248804" lon="14.615238489000467"><ele>457.3333333333333</ele><time>2026-05-02T12:20:19.999Z</time></trkpt><trkpt lat="41.25405340802369" lon="14.615461803873718"><ele>462.66666666666663</ele><time>2026-05-02T12:20:20.999Z</time></trkpt><trkpt lat="41.254148527649505" lon="14.615705162324387"><ele>468.0</ele><time>2026-05-02T12:20:21.999Z</time></trkpt><trkpt lat="41.25417662196336" lon="14.615969630646767"><ele>465.66666666666663</ele><time>2026-05-02T12:20:22.999Z</time></trkpt><trkpt lat="41.25419615529863" lon="14.61623869687257"><ele>463.3333333333333</ele><time>2026-05-02T12:20:23.999Z</time></trkpt><trkpt lat="41.2542300552591" lon="14.616474993367031"><ele>461.0</ele><time>2026-05-02T12:20:24.999Z</time></trkpt><trkpt lat="41.25425781491434" lon="14.61673102808079"><ele>458.3333333333333</ele><time>2026-05-02T12:20:25.999Z</time></trkpt><trkpt lat="41.25432569033826" lon="14.616991312144767"><ele>455.66666666666663</ele><time>2026-05-02T12:20:26.999Z</time></trkpt><trkpt lat="41.25443299050437" lon="14.6172456569199"><ele>453.0</ele><time>2026-05-02T12:20:27.999Z</time></trkpt><trkpt lat="41.25458117209653" lon="14.617499849101904"><ele>453.0</ele><time>2026-05-02T12:20:28.999Z</time></trkpt><trkpt lat="41.2547065736176" lon="14.617761238882256"><ele>453.0</ele><time>2026-05-02T12:20:29.999Z</time></trkpt><trkpt lat="41.254822151260285" lon="14.617995971141418"><ele>453.0</ele><time>2026-05-02T12:20:30.999Z</time></trkpt><trkpt lat="41.25491467200833" lon="14.618214446035116"><ele>457.33333333333337</ele><time>2026-05-02T12:20:31.999Z</time></trkpt><trkpt lat="41.25497930391732" lon="14.618432362455827"><ele>461.6666666666667</ele><time>2026-05-02T12:20:32.999Z</time></trkpt><trkpt lat="41.255009516448816" lon="14.618650349926364"><ele>466.0</ele><time>2026-05-02T12:20:33.999Z</time></trkpt><trkpt lat="41.25498840229625" lon="14.61886301769235"><ele>466.0</ele><time>2026-05-02T12:20:34.999Z</time></trkpt><trkpt lat="41.25490725443159" lon="14.619066794475955"><ele>466.0</ele><time>2026-05-02T12:20:35.999Z</time></trkpt><trkpt lat="41.25481887336344" lon="14.619317304416521"><ele>466.0</ele><time>2026-05-02T12:20:36.999Z</time></trkpt><trkpt lat="41.25471497184967" lon="14.619571246916673"><ele>459.33333333333337</ele><time>2026-05-02T12:20:37.999Z</time></trkpt><trkpt lat="41.25466334387122" lon="14.619827446248962"><ele>452.66666666666663</ele><time>2026-05-02T12:20:38.999Z</time></trkpt><trkpt lat="41.25463724510708" lon="14.620066832576608"><ele>446.0</ele><time>2026-05-02T12:20:39.999Z</time></trkpt><trkpt lat="41.25465021291613" lon="14.620282182225544"><ele>445.66666666666663</ele><time>2026-05-02T12:20:41Z</time></trkpt><trkpt lat="41.25470510608881" lon="14.620475859989588"><ele>445.33333333333337</ele><time>2026-05-02T12:20:42Z</time></trkpt><trkpt lat="41.25481004848875" lon="14.620657082750736"><ele>445.0</ele><time>2026-05-02T12:20:43Z</time></trkpt><trkpt lat="41.2549627455208" lon="14.620783152797003"><ele>449.33333333333337</ele><time>2026-05-02T12:20:44Z</time></trkpt><trkpt lat="41.25515652503424" lon="14.62085869986561"><ele>453.66666666666663</ele><time>2026-05-02T12:20:45Z</time></trkpt><trkpt lat="41.25535721119537" lon="14.62092905710901"><ele>458.0</ele><time>2026-05-02T12:20:46Z</time></trkpt><trkpt lat="41.25559200969679" lon="14.620998571359394"><ele>462.0</ele><time>2026-05-02T12:20:47Z</time></trkpt><trkpt lat="41.2558205247208" lon="14.621040125555844"><ele>466.0</ele><time>2026-05-02T12:20:48Z</time></trkpt><trkpt lat="41.2560199595967" lon="14.621051115514291"><ele>470.0</ele><time>2026-05-02T12:20:49Z</time></trkpt><trkpt lat="41.25619925246612" lon="14.621043369134968"><ele>470.0</ele><time>2026-05-02T12:20:50Z</time></trkpt><trkpt lat="41.25636342281102" lon="14.62098317711802"><ele>470.0</ele><time>2026-05-02T12:20:51Z</time></trkpt><trkpt lat="41.2565274772521" lon="14.620865143653258"><ele>470.0</ele><time>2026-05-02T12:20:52Z</time></trkpt><trkpt lat="41.256685030155694" lon="14.620678171448414"><ele>469.66666666666663</ele><time>2026-05-02T12:20:53Z</time></trkpt><trkpt lat="41.25685760064853" lon="14.62051434978532"><ele>469.33333333333337</ele><time>2026-05-02T12:20:54Z</time></trkpt><trkpt lat="41.25700343889065" lon="14.620375692133752"><ele>469.0</ele><time>2026-05-02T12:20:55Z</time></trkpt><trkpt lat="41.257147131723166" lon="14.620285481509654"><ele>476.6666666666667</ele><time>2026-05-02T12:20:56Z</time></trkpt><trkpt lat="41.257314358548605" lon="14.620243242921012"><ele>484.33333333333337</ele><time>2026-05-02T12:20:57Z</time></trkpt><trkpt lat="41.25750104878824" lon="14.620224685270204"><ele>492.0</ele><time>2026-05-02T12:20:58Z</time></trkpt><trkpt lat="41.257692933526535" lon="14.620233629588972"><ele>492.0</ele><time>2026-05-02T12:20:59Z</time></trkpt><trkpt lat="41.257925592020726" lon="14.620288046954645"><ele>492.0</ele><time>2026-05-02T12:21:00Z</time></trkpt><trkpt lat="41.258143829213644" lon="14.620353674971666"><ele>485.0</ele><time>2026-05-02T12:21:01Z</time></trkpt><trkpt lat="41.25836526602033" lon="14.62041541115268"><ele>478.0</ele><time>2026-05-02T12:21:02Z</time></trkpt><trkpt lat="41.25858060151168" lon="14.620497558052437"><ele>478.0</ele><time>2026-05-02T12:21:03Z</time></trkpt><trkpt lat="41.258809267337924" lon="14.620587451358286"><ele>478.0</ele><time>2026-05-02T12:21:04Z</time></trkpt><trkpt lat="41.25902966754156" lon="14.62067191719822"><ele>480.6666666666667</ele><time>2026-05-02T12:21:05Z</time></trkpt><trkpt lat="41.25923016386202" lon="14.62075553700202"><ele>483.33333333333337</ele><time>2026-05-02T12:21:06Z</time></trkpt><trkpt lat="41.259414792554814" lon="14.620857784618472"><ele>486.0</ele><time>2026-05-02T12:21:07Z</time></trkpt><trkpt lat="41.25957597903983" lon="14.62094300892061"><ele>486.0</ele><time>2026-05-02T12:21:08Z</time></trkpt><trkpt lat="41.25971547098977" lon="14.621051702750885"><ele>486.0</ele><time>2026-05-02T12:21:09Z</time></trkpt><trkpt lat="41.25981963248504" lon="14.621205688478822"><ele>486.0</ele><time>2026-05-02T12:21:10Z</time></trkpt><trkpt lat="41.25988170805409" lon="14.621404038927182"><ele>486.66666666666663</ele><time>2026-05-02T12:21:11Z</time></trkpt><trkpt lat="41.259918415424686" lon="14.621631009572697"><ele>487.3333333333333</ele><time>2026-05-02T12:21:12Z</time></trkpt><trkpt lat="41.259959753041436" lon="14.621842637298572"><ele>488.0</ele><time>2026-05-02T12:21:13Z</time></trkpt><trkpt lat="41.259987004812" lon="14.622005384373722"><ele>485.66666666666663</ele><time>2026-05-02T12:21:14Z</time></trkpt><trkpt lat="41.2600582426696" lon="14.622146854200428"><ele>483.33333333333337</ele><time>2026-05-02T12:21:15Z</time></trkpt><trkpt lat="41.26017349622079" lon="14.622302802244885"><ele>481.0</ele><time>2026-05-02T12:21:16Z</time></trkpt><trkpt lat="41.26034551604642" lon="14.622445715984602"><ele>481.0</ele><time>2026-05-02T12:21:17Z</time></trkpt><trkpt lat="41.26049715272728" lon="14.622621229474532"><ele>481.0</ele><time>2026-05-02T12:21:18Z</time></trkpt><trkpt lat="41.260662510913335" lon="14.622798666777582"><ele>481.0</ele><time>2026-05-02T12:21:19Z</time></trkpt><trkpt lat="41.26081332325658" lon="14.622963764547304"><ele>481.0</ele><time>2026-05-02T12:21:20Z</time></trkpt><trkpt lat="41.26093606543543" lon="14.623115788051571"><ele>481.0</ele><time>2026-05-02T12:21:21Z</time></trkpt><trkpt lat="41.26101749743075" lon="14.623274871754845"><ele>481.0</ele><time>2026-05-02T12:21:22Z</time></trkpt><trkpt lat="41.26109216064173" lon="14.623459905673386"><ele>480.0</ele><time>2026-05-02T12:21:23Z</time></trkpt><trkpt lat="41.26109210993096" lon="14.623721279294799"><ele>479.0</ele><time>2026-05-02T12:21:24Z</time></trkpt><trkpt lat="41.26112795737308" lon="14.623967866352265"><ele>478.0</ele><time>2026-05-02T12:21:25Z</time></trkpt><trkpt lat="41.261129697327036" lon="14.624207817697645"><ele>478.0</ele><time>2026-05-02T12:21:26Z</time></trkpt><trkpt lat="41.26113171565348" lon="14.624463833833516"><ele>478.0</ele><time>2026-05-02T12:21:27Z</time></trkpt><trkpt lat="41.261095022228055" lon="14.624721127648048"><ele>478.0</ele><time>2026-05-02T12:21:28Z</time></trkpt><trkpt lat="41.261027781294196" lon="14.62495067129692"><ele>478.33333333333337</ele><time>2026-05-02T12:21:29Z</time></trkpt><trkpt lat="41.26098014901191" lon="14.62516050969453"><ele>478.66666666666663</ele><time>2026-05-02T12:21:30Z</time></trkpt><trkpt lat="41.260915359201704" lon="14.625353672589542"><ele>479.0</ele><time>2026-05-02T12:21:31Z</time></trkpt><trkpt lat="41.26086797319898" lon="14.625529752949264"><ele>479.0</ele><time>2026-05-02T12:21:32Z</time></trkpt><trkpt lat="41.260858397046746" lon="14.625705886975217"><ele>479.0</ele><time>2026-05-02T12:21:33Z</time></trkpt><trkpt lat="41.260888725931" lon="14.625880021434387"><ele>479.0</ele><time>2026-05-02T12:21:34Z</time></trkpt><trkpt lat="41.260972097351875" lon="14.626021482040082"><ele>479.0</ele><time>2026-05-02T12:21:35Z</time></trkpt><trkpt lat="41.26108325243072" lon="14.626133377669216"><ele>477.5</ele><time>2026-05-02T12:21:36Z</time></trkpt><trkpt lat="41.26115439800741" lon="14.62627094327505"><ele>476.0</ele><time>2026-05-02T12:21:37Z</time></trkpt><trkpt lat="41.261216290005386" lon="14.626422997628532"><ele>474.5</ele><time>2026-05-02T12:21:38Z</time></trkpt><trkpt lat="41.26123949735769" lon="14.626611845857468"><ele>473.0</ele><time>2026-05-02T12:21:39Z</time></trkpt><trkpt lat="41.261232107031574" lon="14.626859024804457"><ele>472.0</ele><time>2026-05-02T12:21:40Z</time></trkpt><trkpt lat="41.261188845633946" lon="14.627103736986756"><ele>471.0</ele><time>2026-05-02T12:21:41Z</time></trkpt><trkpt lat="41.261132902584286" lon="14.627338327707433"><ele>470.0</ele><time>2026-05-02T12:21:42Z</time></trkpt><trkpt lat="41.26109005169847" lon="14.627556244472574"><ele>470.0</ele><time>2026-05-02T12:21:42.999Z</time></trkpt><trkpt lat="41.26107178961548" lon="14.627745453035105"><ele>470.0</ele><time>2026-05-02T12:21:43.999Z</time></trkpt><trkpt lat="41.261073811002625" lon="14.627901346758993"><ele>470.0</ele><time>2026-05-02T12:21:44.999Z</time></trkpt><trkpt lat="41.26108944692509" lon="14.628014327223175"><ele>470.0</ele><time>2026-05-02T12:21:45.999Z</time></trkpt><trkpt lat="41.261161333313936" lon="14.62809777885471"><ele>470.0</ele><time>2026-05-02T12:21:46.999Z</time></trkpt><trkpt lat="41.2612838534254" lon="14.628076002316787"><ele>470.5</ele><time>2026-05-02T12:21:47.999Z</time></trkpt><trkpt lat="41.261401200861535" lon="14.628092119277259"><ele>471.0</ele><time>2026-05-02T12:21:48.999Z</time></trkpt><trkpt lat="41.26152036835487" lon="14.62809086388242"><ele>471.5</ele><time>2026-05-02T12:21:49.999Z</time></trkpt><trkpt lat="41.261645407729404" lon="14.62808954662747"><ele>472.0</ele><time>2026-05-02T12:21:50.999Z</time></trkpt><trkpt lat="41.261779111710176" lon="14.6280662829697"><ele>472.0</ele><time>2026-05-02T12:21:51.999Z</time></trkpt><trkpt lat="41.26191403258849" lon="14.628067451099628"><ele>472.0</ele><time>2026-05-02T12:21:52.999Z</time></trkpt><trkpt lat="41.262042594426795" lon="14.62804410051949"><ele>472.0</ele><time>2026-05-02T12:21:53.999Z</time></trkpt><trkpt lat="41.26214202986034" lon="14.627953978929574"><ele>472.0</ele><time>2026-05-02T12:21:54.999Z</time></trkpt><trkpt lat="41.2622278261503" lon="14.62788096296456"><ele>474.0</ele><time>2026-05-02T12:21:55.999Z</time></trkpt><trkpt lat="41.26232637151776" lon="14.627823161843637"><ele>476.0</ele><time>2026-05-02T12:21:56.999Z</time></trkpt><trkpt lat="41.26245156034569" lon="14.627844808537414"><ele>478.0</ele><time>2026-05-02T12:21:57.999Z</time></trkpt><trkpt lat="41.26257025419214" lon="14.627881924270271"><ele>480.0</ele><time>2026-05-02T12:21:58.999Z</time></trkpt><trkpt lat="41.26266871840044" lon="14.627916160710992"><ele>480.0</ele><time>2026-05-02T12:21:59.999Z</time></trkpt><trkpt lat="41.26275897703278" lon="14.627939709558097"><ele>480.0</ele><time>2026-05-02T12:22:00.999Z</time></trkpt><trkpt lat="41.26282517975801" lon="14.628018925661173"><ele>480.0</ele><time>2026-05-02T12:22:01.999Z</time></trkpt><trkpt lat="41.26286276685028" lon="14.628121849588199"><ele>480.0</ele><time>2026-05-02T12:22:02.999Z</time></trkpt><trkpt lat="41.262841187690675" lon="14.628239806994982"><ele>480.0</ele><time>2026-05-02T12:22:03.999Z</time></trkpt><trkpt lat="41.26283964346432" lon="14.62836661785961"><ele>480.0</ele><time>2026-05-02T12:22:04.999Z</time></trkpt><trkpt lat="41.262848473770006" lon="14.62849044769086"><ele>480.0</ele><time>2026-05-02T12:22:05.999Z</time></trkpt><trkpt lat="41.26281776272211" lon="14.628590111310283"><ele>480.0</ele><time>2026-05-02T12:22:06.999Z</time></trkpt><trkpt lat="41.262744148705664" lon="14.628667932751757"><ele>480.0</ele><time>2026-05-02T12:22:07.999Z</time></trkpt><trkpt lat="41.262637118444815" lon="14.628716149682525"><ele>480.0</ele><time>2026-05-02T12:22:08.999Z</time></trkpt><trkpt lat="41.26252480965461" lon="14.628784215240643"><ele>482.5</ele><time>2026-05-02T12:22:09.999Z</time></trkpt><trkpt lat="41.26242824667764" lon="14.628905202984754"><ele>485.0</ele><time>2026-05-02T12:22:10.999Z</time></trkpt><trkpt lat="41.2623452273718" lon="14.629060412000962"><ele>487.5</ele><time>2026-05-02T12:22:11.999Z</time></trkpt><trkpt lat="41.26226986593979" lon="14.629209451563213"><ele>490.0</ele><time>2026-05-02T12:22:12.999Z</time></trkpt><trkpt lat="41.26220644204465" lon="14.629337216136665"><ele>484.25</ele><time>2026-05-02T12:22:13.999Z</time></trkpt><trkpt lat="41.26215713637218" lon="14.629459647588337"><ele>478.5</ele><time>2026-05-02T12:22:14.999Z</time></trkpt><trkpt lat="41.26212963936366" lon="14.629595695459965"><ele>472.75</ele><time>2026-05-02T12:22:15.999Z</time></trkpt><trkpt lat="41.262181072896574" lon="14.629749381644507"><ele>467.0</ele><time>2026-05-02T12:22:16.999Z</time></trkpt><trkpt lat="41.26222476140152" lon="14.629948715263922"><ele>478.0</ele><time>2026-05-02T12:22:17.999Z</time></trkpt><trkpt lat="41.26228799773857" lon="14.630156863545267"><ele>489.0</ele><time>2026-05-02T12:22:18.999Z</time></trkpt><trkpt lat="41.26234137124059" lon="14.630375204276604"><ele>500.0</ele><time>2026-05-02T12:22:19.999Z</time></trkpt><trkpt lat="41.26235364347284" lon="14.63059841644124"><ele>500.0</ele><time>2026-05-02T12:22:20.999Z</time></trkpt><trkpt lat="41.262347876740364" lon="14.630823837871546"><ele>500.0</ele><time>2026-05-02T12:22:21.999Z</time></trkpt><trkpt lat="41.26233773362478" lon="14.631031697347819"><ele>500.0</ele><time>2026-05-02T12:22:22.999Z</time></trkpt><trkpt lat="41.262318316805526" lon="14.631245918383996"><ele>500.0</ele><time>2026-05-02T12:22:23.999Z</time></trkpt><trkpt lat="41.26229567768558" lon="14.63147245395731"><ele>500.0</ele><time>2026-05-02T12:22:24.999Z</time></trkpt><trkpt lat="41.26223371467069" lon="14.631681580945248"><ele>500.0</ele><time>2026-05-02T12:22:25.999Z</time></trkpt><trkpt lat="41.26218807784271" lon="14.631855388721315"><ele>499.5</ele><time>2026-05-02T12:22:26.999Z</time></trkpt><trkpt lat="41.2621601153197" lon="14.632019725313597"><ele>499.0</ele><time>2026-05-02T12:22:27.999Z</time></trkpt><trkpt lat="41.26217227559085" lon="14.632177073100193"><ele>498.5</ele><time>2026-05-02T12:22:28.999Z</time></trkpt><trkpt lat="41.262220228616435" lon="14.632312681849365"><ele>498.0</ele><time>2026-05-02T12:22:29.999Z</time></trkpt><trkpt lat="41.26232446726366" lon="14.632436346416913"><ele>498.0</ele><time>2026-05-02T12:22:30.999Z</time></trkpt><trkpt lat="41.262420960925134" lon="14.632521706139451"><ele>498.0</ele><time>2026-05-02T12:22:31.999Z</time></trkpt><trkpt lat="41.2625530605352" lon="14.632658266943709"><ele>498.0</ele><time>2026-05-02T12:22:32.999Z</time></trkpt><trkpt lat="41.26263101609434" lon="14.63281221625872"><ele>498.0</ele><time>2026-05-02T12:22:33.999Z</time></trkpt><trkpt lat="41.26270224803924" lon="14.632990023465432"><ele>497.25</ele><time>2026-05-02T12:22:34.999Z</time></trkpt><trkpt lat="41.26276032659848" lon="14.633175755018431"><ele>496.5</ele><time>2026-05-02T12:22:35.999Z</time></trkpt><trkpt lat="41.262825327231106" lon="14.633361428077633"><ele>495.75</ele><time>2026-05-02T12:22:36.999Z</time></trkpt><trkpt lat="41.26288134239133" lon="14.633521434374817"><ele>495.0</ele><time>2026-05-02T12:22:37.999Z</time></trkpt><trkpt lat="41.262935404074824" lon="14.633669116973145"><ele>495.0</ele><time>2026-05-02T12:22:38.999Z</time></trkpt><trkpt lat="41.262978356297495" lon="14.633795281984963"><ele>495.0</ele><time>2026-05-02T12:22:39.999Z</time></trkpt><trkpt lat="41.26299796989216" lon="14.633913582622856"><ele>495.0</ele><time>2026-05-02T12:22:40.999Z</time></trkpt><trkpt lat="41.262978813910465" lon="14.634007295105329"><ele>495.0</ele><time>2026-05-02T12:22:41.999Z</time></trkpt><trkpt lat="41.262922330830975" lon="14.634105883597151"><ele>495.0</ele><time>2026-05-02T12:22:42.999Z</time></trkpt><trkpt lat="41.262786878695195" lon="14.63415673311142"><ele>495.0</ele><time>2026-05-02T12:22:43.999Z</time></trkpt><trkpt lat="41.26262991150124" lon="14.63424053001259"><ele>495.0</ele><time>2026-05-02T12:22:44.999Z</time></trkpt><trkpt lat="41.26248814318844" lon="14.63431041928889"><ele>495.0</ele><time>2026-05-02T12:22:45.999Z</time></trkpt><trkpt lat="41.26233621485849" lon="14.634388197249617"><ele>495.0</ele><time>2026-05-02T12:22:47Z</time></trkpt><trkpt lat="41.26219168806446" lon="14.634468859293248"><ele>495.0</ele><time>2026-05-02T12:22:48Z</time></trkpt><trkpt lat="41.26203529647443" lon="14.634552921051592"><ele>495.0</ele><time>2026-05-02T12:22:49Z</time></trkpt><trkpt lat="41.26188439773004" lon="14.634631958699634"><ele>495.0</ele><time>2026-05-02T12:22:50Z</time></trkpt><trkpt lat="41.26172947808978" lon="14.634707917050676"><ele>495.0</ele><time>2026-05-02T12:22:51Z</time></trkpt><trkpt lat="41.26158474637667" lon="14.634775439534694"><ele>495.0</ele><time>2026-05-02T12:22:52Z</time></trkpt><trkpt lat="41.261445675761124" lon="14.634845028992034"><ele>494.0</ele><time>2026-05-02T12:22:53Z</time></trkpt><trkpt lat="41.26130664365603" lon="14.634929955681615"><ele>493.0</ele><time>2026-05-02T12:22:54Z</time></trkpt><trkpt lat="41.261162925631666" lon="14.634992984098409"><ele>492.0</ele><time>2026-05-02T12:22:55Z</time></trkpt><trkpt lat="41.26102850377369" lon="14.635081849225642"><ele>492.0</ele><time>2026-05-02T12:22:56Z</time></trkpt><trkpt lat="41.26088632432033" lon="14.635151538326527"><ele>492.0</ele><time>2026-05-02T12:22:57Z</time></trkpt><trkpt lat="41.26073845926379" lon="14.63520317235288"><ele>492.0</ele><time>2026-05-02T12:22:58Z</time></trkpt><trkpt lat="41.26060286282684" lon="14.6352942711378"><ele>492.20000000000005</ele><time>2026-05-02T12:22:59Z</time></trkpt><trkpt lat="41.260470293479074" lon="14.635349298300701"><ele>492.40000000000003</ele><time>2026-05-02T12:23:00Z</time></trkpt><trkpt lat="41.260357523839225" lon="14.635394158671597"><ele>492.59999999999997</ele><time>2026-05-02T12:23:01Z</time></trkpt><trkpt lat="41.26026843457777" lon="14.635447706702674"><ele>492.79999999999995</ele><time>2026-05-02T12:23:02Z</time></trkpt><trkpt lat="41.26020155231663" lon="14.63550620820887"><ele>493.0</ele><time>2026-05-02T12:23:03Z</time></trkpt><trkpt lat="41.26014401746527" lon="14.635583945627268"><ele>493.0</ele><time>2026-05-02T12:23:04Z</time></trkpt><trkpt lat="41.26010424395666" lon="14.635695056237362"><ele>492.99999999999994</ele><time>2026-05-02T12:23:06Z</time></trkpt><trkpt lat="41.26023498691152" lon="14.63580997233547"><ele>492.99999999999994</ele><time>2026-05-02T12:23:07Z</time></trkpt><trkpt lat="41.26029644923573" lon="14.635889958555637"><ele>493.0</ele><time>2026-05-02T12:23:08Z</time></trkpt><trkpt lat="41.26036012301463" lon="14.635994429226978"><ele>493.0</ele><time>2026-05-02T12:23:09Z</time></trkpt><trkpt lat="41.260415487291645" lon="14.636113758153327"><ele>494.5</ele><time>2026-05-02T12:23:10Z</time></trkpt><trkpt lat="41.26048318867026" lon="14.636240188726255"><ele>496.0</ele><time>2026-05-02T12:23:11Z</time></trkpt><trkpt lat="41.26055283010613" lon="14.636366104449511"><ele>497.5</ele><time>2026-05-02T12:23:12Z</time></trkpt><trkpt lat="41.26062942302508" lon="14.636506355902835"><ele>499.0</ele><time>2026-05-02T12:23:13Z</time></trkpt><trkpt lat="41.260687829814174" lon="14.636632865997482"><ele>499.0</ele><time>2026-05-02T12:23:14Z</time></trkpt><trkpt lat="41.260731822272426" lon="14.636749328832359"><ele>499.0</ele><time>2026-05-02T12:23:15Z</time></trkpt><trkpt lat="41.26076141935355" lon="14.636866126713882"><ele>499.0</ele><time>2026-05-02T12:23:16Z</time></trkpt><trkpt lat="41.26077486656241" lon="14.63699505522856"><ele>499.0</ele><time>2026-05-02T12:23:17Z</time></trkpt><trkpt lat="41.26075821014552" lon="14.637122634814249"><ele>499.0</ele><time>2026-05-02T12:23:18Z</time></trkpt><trkpt lat="41.26070903746398" lon="14.637268261710354"><ele>499.0</ele><time>2026-05-02T12:23:19Z</time></trkpt><trkpt lat="41.26063779345532" lon="14.637471808752325"><ele>499.0</ele><time>2026-05-02T12:23:20Z</time></trkpt><trkpt lat="41.2605582838188" lon="14.637676867728242"><ele>499.0</ele><time>2026-05-02T12:23:21Z</time></trkpt><trkpt lat="41.26046242600807" lon="14.63788133155469"><ele>490.33333333333337</ele><time>2026-05-02T12:23:22Z</time></trkpt><trkpt lat="41.26036740807072" lon="14.638064044642535"><ele>481.66666666666663</ele><time>2026-05-02T12:23:23Z</time></trkpt><trkpt lat="41.26027920125053" lon="14.638233334649597"><ele>473.0</ele><time>2026-05-02T12:23:24Z</time></trkpt><trkpt lat="41.260196579827195" lon="14.638394279662803"><ele>473.0</ele><time>2026-05-02T12:23:25Z</time></trkpt><trkpt lat="41.26012278640801" lon="14.638546252408334"><ele>473.0</ele><time>2026-05-02T12:23:26Z</time></trkpt><trkpt lat="41.260061076746645" lon="14.638710243316988"><ele>473.0</ele><time>2026-05-02T12:23:27Z</time></trkpt><trkpt lat="41.26003017311826" lon="14.638891100406727"><ele>473.0</ele><time>2026-05-02T12:23:28Z</time></trkpt><trkpt lat="41.26004191164458" lon="14.639104743328687"><ele>474.0</ele><time>2026-05-02T12:23:29Z</time></trkpt><trkpt lat="41.26006092244672" lon="14.639352922846903"><ele>475.0</ele><time>2026-05-02T12:23:30Z</time></trkpt><trkpt lat="41.260086739344885" lon="14.639636526672147"><ele>476.0</ele><time>2026-05-02T12:23:31Z</time></trkpt><trkpt lat="41.260109628859944" lon="14.639909781130363"><ele>476.0</ele><time>2026-05-02T12:23:32Z</time></trkpt><trkpt lat="41.26012875072151" lon="14.64015286935607"><ele>476.0</ele><time>2026-05-02T12:23:33Z</time></trkpt><trkpt lat="41.26014436054518" lon="14.64036774150708"><ele>476.0</ele><time>2026-05-02T12:23:34Z</time></trkpt><trkpt lat="41.26015520887138" lon="14.640561308046555"><ele>475.5</ele><time>2026-05-02T12:23:35Z</time></trkpt><trkpt lat="41.26014724757799" lon="14.64072154351312"><ele>475.0</ele><time>2026-05-02T12:23:36Z</time></trkpt><trkpt lat="41.260090536436216" lon="14.640864881477976"><ele>474.5</ele><time>2026-05-02T12:23:37Z</time></trkpt><trkpt lat="41.25999624666766" lon="14.641029656337816"><ele>474.0</ele><time>2026-05-02T12:23:38Z</time></trkpt><trkpt lat="41.25987852524183" lon="14.641203652293154"><ele>468.0</ele><time>2026-05-02T12:23:39Z</time></trkpt><trkpt lat="41.25976195291098" lon="14.641374381489985"><ele>462.0</ele><time>2026-05-02T12:23:40Z</time></trkpt><trkpt lat="41.259665099415685" lon="14.641534275952525"><ele>456.0</ele><time>2026-05-02T12:23:41Z</time></trkpt><trkpt lat="41.259572097829036" lon="14.64171386380164"><ele>456.0</ele><time>2026-05-02T12:23:42Z</time></trkpt><trkpt lat="41.25951026768419" lon="14.641915310341556"><ele>456.0</ele><time>2026-05-02T12:23:43Z</time></trkpt><trkpt lat="41.25946018592183" lon="14.642121704488678"><ele>456.0</ele><time>2026-05-02T12:23:44Z</time></trkpt><trkpt lat="41.25943181523959" lon="14.642349855904456"><ele>456.0</ele><time>2026-05-02T12:23:45Z</time></trkpt><trkpt lat="41.259447040799465" lon="14.642602613843998"><ele>456.0</ele><time>2026-05-02T12:23:46Z</time></trkpt><trkpt lat="41.259465967876174" lon="14.642862437037937"><ele>456.0</ele><time>2026-05-02T12:23:47Z</time></trkpt><trkpt lat="41.259464266600915" lon="14.643114312749436"><ele>456.0</ele><time>2026-05-02T12:23:48Z</time></trkpt><trkpt lat="41.25948936123073" lon="14.643331402267462"><ele>456.0</ele><time>2026-05-02T12:23:49Z</time></trkpt><trkpt lat="41.25950280306737" lon="14.64352895050157"><ele>456.0</ele><time>2026-05-02T12:23:50Z</time></trkpt><trkpt lat="41.25956786632908" lon="14.643732092080898"><ele>454.0</ele><time>2026-05-02T12:23:51Z</time></trkpt><trkpt lat="41.25967408542751" lon="14.643929554996529"><ele>452.0</ele><time>2026-05-02T12:23:51.999Z</time></trkpt><trkpt lat="41.2597653090263" lon="14.644152913244262"><ele>450.0</ele><time>2026-05-02T12:23:52.999Z</time></trkpt><trkpt lat="41.259869141100204" lon="14.644359807853018"><ele>452.0</ele><time>2026-05-02T12:23:53.999Z</time></trkpt><trkpt lat="41.25997434910371" lon="14.64456712378387"><ele>454.0</ele><time>2026-05-02T12:23:54.999Z</time></trkpt><trkpt lat="41.260076926502194" lon="14.64477371947851"><ele>456.0</ele><time>2026-05-02T12:23:55.999Z</time></trkpt><trkpt lat="41.26018028032823" lon="14.644976374739564"><ele>456.0</ele><time>2026-05-02T12:23:56.999Z</time></trkpt><trkpt lat="41.26029005620206" lon="14.645179760592116"><ele>456.0</ele><time>2026-05-02T12:23:57.999Z</time></trkpt><trkpt lat="41.26040799378651" lon="14.645384136875984"><ele>456.0</ele><time>2026-05-02T12:23:58.999Z</time></trkpt><trkpt lat="41.26050881214102" lon="14.645593857387366"><ele>457.0</ele><time>2026-05-02T12:23:59.999Z</time></trkpt><trkpt lat="41.260619229282526" lon="14.645804440598427"><ele>458.0</ele><time>2026-05-02T12:24:00.999Z</time></trkpt><trkpt lat="41.26074634096437" lon="14.646016190730395"><ele>459.0</ele><time>2026-05-02T12:24:01.999Z</time></trkpt><trkpt lat="41.260875876930946" lon="14.646258988965895"><ele>459.0</ele><time>2026-05-02T12:24:02.999Z</time></trkpt><trkpt lat="41.26104965584289" lon="14.64647923588913"><ele>459.0</ele><time>2026-05-02T12:24:03.999Z</time></trkpt><trkpt lat="41.2611688435658" lon="14.646702768057773"><ele>459.0</ele><time>2026-05-02T12:24:04.999Z</time></trkpt><trkpt lat="41.26126386993952" lon="14.64691079847383"><ele>457.66666666666663</ele><time>2026-05-02T12:24:05.999Z</time></trkpt><trkpt lat="41.26131378175797" lon="14.647151114086666"><ele>456.3333333333333</ele><time>2026-05-02T12:24:06.999Z</time></trkpt><trkpt lat="41.261344690139325" lon="14.647410117224632"><ele>455.0</ele><time>2026-05-02T12:24:07.999Z</time></trkpt><trkpt lat="41.261358202024425" lon="14.647713796690267"><ele>456.0</ele><time>2026-05-02T12:24:08.999Z</time></trkpt><trkpt lat="41.26137583496492" lon="14.64804605630826"><ele>457.0</ele><time>2026-05-02T12:24:09.999Z</time></trkpt><trkpt lat="41.26141927421764" lon="14.648379877427328"><ele>461.0</ele><time>2026-05-02T12:24:10.999Z</time></trkpt><trkpt lat="41.26146127175859" lon="14.648710893004731"><ele>465.0</ele><time>2026-05-02T12:24:11.999Z</time></trkpt><trkpt lat="41.261485183310775" lon="14.64893256834256"><ele>469.0</ele><time>2026-05-02T12:24:12.999Z</time></trkpt><trkpt lat="41.261524340687906" lon="14.649188851322272"><ele>469.0</ele><time>2026-05-02T12:24:13.999Z</time></trkpt><trkpt lat="41.26157297052289" lon="14.649419555649732"><ele>469.0</ele><time>2026-05-02T12:24:14.999Z</time></trkpt><trkpt lat="41.26163496603738" lon="14.649627785426976"><ele>469.0</ele><time>2026-05-02T12:24:15.999Z</time></trkpt><trkpt lat="41.26172129633978" lon="14.649812020716755"><ele>467.0</ele><time>2026-05-02T12:24:16.999Z</time></trkpt><trkpt lat="41.26185388940121" lon="14.649962473676577"><ele>465.0</ele><time>2026-05-02T12:24:17.999Z</time></trkpt><trkpt lat="41.26201436267952" lon="14.650098742300708"><ele>463.0</ele><time>2026-05-02T12:24:18.999Z</time></trkpt><trkpt lat="41.262198533053365" lon="14.650231416576535"><ele>464.33333333333337</ele><time>2026-05-02T12:24:19.999Z</time></trkpt><trkpt lat="41.26236316994876" lon="14.650406589850347"><ele>465.66666666666663</ele><time>2026-05-02T12:24:20.999Z</time></trkpt><trkpt lat="41.26250400108134" lon="14.650540373765756"><ele>467.0</ele><time>2026-05-02T12:24:21.999Z</time></trkpt><trkpt lat="41.2626020534079" lon="14.650649629280117"><ele>467.0</ele><time>2026-05-02T12:24:22.999Z</time></trkpt><trkpt lat="41.2626717100554" lon="14.650813101515526"><ele>467.0</ele><time>2026-05-02T12:24:23.999Z</time></trkpt><trkpt lat="41.26276943453525" lon="14.650994703987804"><ele>467.0</ele><time>2026-05-02T12:24:24.999Z</time></trkpt><trkpt lat="41.26290388456137" lon="14.651169336949865"><ele>465.66666666666663</ele><time>2026-05-02T12:24:25.999Z</time></trkpt><trkpt lat="41.263002970527644" lon="14.651399119758386"><ele>464.33333333333337</ele><time>2026-05-02T12:24:26.999Z</time></trkpt><trkpt lat="41.26310396709751" lon="14.651688576543306"><ele>463.0</ele><time>2026-05-02T12:24:27.999Z</time></trkpt><trkpt lat="41.263207657774416" lon="14.651955445217187"><ele>464.6666666666667</ele><time>2026-05-02T12:24:28.999Z</time></trkpt><trkpt lat="41.26329296493582" lon="14.65218260107222"><ele>466.33333333333337</ele><time>2026-05-02T12:24:29.999Z</time></trkpt><trkpt lat="41.26339048826827" lon="14.65238707162084"><ele>468.0</ele><time>2026-05-02T12:24:30.999Z</time></trkpt><trkpt lat="41.26350296084839" lon="14.652559466437577"><ele>468.0</ele><time>2026-05-02T12:24:31.999Z</time></trkpt><trkpt lat="41.26363556980702" lon="14.65272157759577"><ele>468.0</ele><time>2026-05-02T12:24:32.999Z</time></trkpt><trkpt lat="41.263794996576316" lon="14.652898264015988"><ele>468.0</ele><time>2026-05-02T12:24:33.999Z</time></trkpt><trkpt lat="41.26395069524831" lon="14.653099913028202"><ele>466.66666666666663</ele><time>2026-05-02T12:24:34.999Z</time></trkpt><trkpt lat="41.264116757138545" lon="14.653257949512218"><ele>465.3333333333333</ele><time>2026-05-02T12:24:35.999Z</time></trkpt><trkpt lat="41.26427983810436" lon="14.65340823999274"><ele>464.0</ele><time>2026-05-02T12:24:36.999Z</time></trkpt><trkpt lat="41.26446497193333" lon="14.653547535924996"><ele>461.3333333333333</ele><time>2026-05-02T12:24:37.999Z</time></trkpt><trkpt lat="41.26466208581395" lon="14.653667116181255"><ele>458.66666666666663</ele><time>2026-05-02T12:24:38.999Z</time></trkpt><trkpt lat="41.26482778153112" lon="14.65376281539093"><ele>456.0</ele><time>2026-05-02T12:24:39.999Z</time></trkpt><trkpt lat="41.2649908377939" lon="14.653836369811627"><ele>456.0</ele><time>2026-05-02T12:24:40.999Z</time></trkpt><trkpt lat="41.26516303426771" lon="14.653872176865423"><ele>456.0</ele><time>2026-05-02T12:24:41.999Z</time></trkpt><trkpt lat="41.26535168948011" lon="14.65385694647571"><ele>456.0</ele><time>2026-05-02T12:24:42.999Z</time></trkpt><trkpt lat="41.26558313441023" lon="14.653840754870318"><ele>456.5</ele><time>2026-05-02T12:24:43.999Z</time></trkpt><trkpt lat="41.26583343410602" lon="14.653813616621104"><ele>457.0</ele><time>2026-05-02T12:24:44.999Z</time></trkpt><trkpt lat="41.26609279546195" lon="14.653783450001312"><ele>457.0</ele><time>2026-05-02T12:24:45.999Z</time></trkpt><trkpt lat="41.2663486558665" lon="14.653751588951573"><ele>457.0</ele><time>2026-05-02T12:24:46.999Z</time></trkpt><trkpt lat="41.26656914561605" lon="14.65372413244265"><ele>456.6666666666667</ele><time>2026-05-02T12:24:47.999Z</time></trkpt><trkpt lat="41.266745961463606" lon="14.653703835652585"><ele>456.33333333333337</ele><time>2026-05-02T12:24:48.999Z</time></trkpt><trkpt lat="41.26689821091488" lon="14.653692191446096"><ele>456.0</ele><time>2026-05-02T12:24:49.999Z</time></trkpt><trkpt lat="41.26703668706115" lon="14.653710710542354"><ele>456.0</ele><time>2026-05-02T12:24:50.999Z</time></trkpt><trkpt lat="41.26715657333025" lon="14.653780878612867"><ele>456.0</ele><time>2026-05-02T12:24:51.999Z</time></trkpt><trkpt lat="41.267306291178755" lon="14.65389786705417"><ele>456.0</ele><time>2026-05-02T12:24:53Z</time></trkpt><trkpt lat="41.26745315760647" lon="14.654014967548747"><ele>456.8</ele><time>2026-05-02T12:24:54Z</time></trkpt><trkpt lat="41.267576009368234" lon="14.65411354658516"><ele>457.6</ele><time>2026-05-02T12:24:55Z</time></trkpt><trkpt lat="41.26767298886739" lon="14.654198263775593"><ele>458.4</ele><time>2026-05-02T12:24:56Z</time></trkpt><trkpt lat="41.267742875686594" lon="14.654291443631086"><ele>459.2</ele><time>2026-05-02T12:24:57Z</time></trkpt><trkpt lat="41.26777793324455" lon="14.654403192289044"><ele>460.0</ele><time>2026-05-02T12:24:58Z</time></trkpt><trkpt lat="41.26776554341055" lon="14.654525846591731"><ele>461.5</ele><time>2026-05-02T12:24:59Z</time></trkpt><trkpt lat="41.26773411352313" lon="14.65465338289152"><ele>463.0</ele><time>2026-05-02T12:25:00Z</time></trkpt><trkpt lat="41.26762349931812" lon="14.654771847777324"><ele>464.5</ele><time>2026-05-02T12:25:01Z</time></trkpt><trkpt lat="41.2674860300159" lon="14.654913307800948"><ele>466.0</ele><time>2026-05-02T12:25:02Z</time></trkpt><trkpt lat="41.26730757183311" lon="14.65508686252197"><ele>467.6666666666667</ele><time>2026-05-02T12:25:03Z</time></trkpt><trkpt lat="41.26714465527179" lon="14.655279881878641"><ele>469.33333333333337</ele><time>2026-05-02T12:25:04Z</time></trkpt><trkpt lat="41.266981045743435" lon="14.65544017991035"><ele>471.0</ele><time>2026-05-02T12:25:05Z</time></trkpt><trkpt lat="41.266837016611866" lon="14.655577058626498"><ele>471.0</ele><time>2026-05-02T12:25:06Z</time></trkpt><trkpt lat="41.266686469248334" lon="14.655657231385534"><ele>471.0</ele><time>2026-05-02T12:25:07Z</time></trkpt><trkpt lat="41.26650126364045" lon="14.655706693855977"><ele>471.0</ele><time>2026-05-02T12:25:08Z</time></trkpt><trkpt lat="41.26629803760935" lon="14.655753212515098"><ele>468.33333333333337</ele><time>2026-05-02T12:25:09Z</time></trkpt><trkpt lat="41.266127269111635" lon="14.655823462336212"><ele>465.6666666666667</ele><time>2026-05-02T12:25:10Z</time></trkpt><trkpt lat="41.26596124730635" lon="14.655930063014095"><ele>463.0</ele><time>2026-05-02T12:25:11Z</time></trkpt><trkpt lat="41.26578060530008" lon="14.65609839580761"><ele>463.33333333333337</ele><time>2026-05-02T12:25:12Z</time></trkpt><trkpt lat="41.26562171382753" lon="14.656273226048608"><ele>463.66666666666663</ele><time>2026-05-02T12:25:13Z</time></trkpt><trkpt lat="41.265485547215036" lon="14.656424324651168"><ele>464.0</ele><time>2026-05-02T12:25:14Z</time></trkpt><trkpt lat="41.26535306282866" lon="14.656593267016381"><ele>464.0</ele><time>2026-05-02T12:25:15Z</time></trkpt><trkpt lat="41.26524354215062" lon="14.656813037992158"><ele>464.0</ele><time>2026-05-02T12:25:16Z</time></trkpt><trkpt lat="41.265176006847234" lon="14.657056349954589"><ele>464.0</ele><time>2026-05-02T12:25:17Z</time></trkpt><trkpt lat="41.26513511304165" lon="14.657275717256963"><ele>465.0</ele><time>2026-05-02T12:25:18Z</time></trkpt><trkpt lat="41.26513367764997" lon="14.65747106165542"><ele>466.0</ele><time>2026-05-02T12:25:19Z</time></trkpt><trkpt lat="41.265201928818655" lon="14.657680118919748"><ele>467.0</ele><time>2026-05-02T12:25:20Z</time></trkpt><trkpt lat="41.26528756934728" lon="14.657862771987439"><ele>467.5</ele><time>2026-05-02T12:25:21Z</time></trkpt><trkpt lat="41.26532721081142" lon="14.65803835841971"><ele>468.0</ele><time>2026-05-02T12:25:22Z</time></trkpt><trkpt lat="41.2653307621354" lon="14.658200232169937"><ele>468.5</ele><time>2026-05-02T12:25:23Z</time></trkpt><trkpt lat="41.26526212630923" lon="14.658326100014223"><ele>469.0</ele><time>2026-05-02T12:25:24Z</time></trkpt><trkpt lat="41.26515181536847" lon="14.658420615816569"><ele>469.0</ele><time>2026-05-02T12:25:25Z</time></trkpt><trkpt lat="41.26502328778709" lon="14.658574652632902"><ele>469.0</ele><time>2026-05-02T12:25:26Z</time></trkpt><trkpt lat="41.26488712408969" lon="14.658705408779488"><ele>469.0</ele><time>2026-05-02T12:25:27Z</time></trkpt><trkpt lat="41.264787453571955" lon="14.658884065620606"><ele>468.0</ele><time>2026-05-02T12:25:28Z</time></trkpt><trkpt lat="41.26470050520248" lon="14.659098639346444"><ele>467.0</ele><time>2026-05-02T12:25:29Z</time></trkpt><trkpt lat="41.2646186050601" lon="14.659325472266227"><ele>466.0</ele><time>2026-05-02T12:25:30Z</time></trkpt><trkpt lat="41.26456950968569" lon="14.659582735231812"><ele>466.0</ele><time>2026-05-02T12:25:31Z</time></trkpt><trkpt lat="41.26454008963914" lon="14.659774787689583"><ele>466.0</ele><time>2026-05-02T12:25:32Z</time></trkpt><trkpt lat="41.26452672902416" lon="14.65995790347557"><ele>466.0</ele><time>2026-05-02T12:25:33Z</time></trkpt><trkpt lat="41.26453702510175" lon="14.660148667226997"><ele>466.0</ele><time>2026-05-02T12:25:34Z</time></trkpt><trkpt lat="41.26457325443467" lon="14.660344221548987"><ele>465.6</ele><time>2026-05-02T12:25:35Z</time></trkpt><trkpt lat="41.26462302682913" lon="14.660501330391186"><ele>465.20000000000005</ele><time>2026-05-02T12:25:36Z</time></trkpt><trkpt lat="41.26468317909372" lon="14.660627803828488"><ele>464.79999999999995</ele><time>2026-05-02T12:25:37Z</time></trkpt><trkpt lat="41.26475058225561" lon="14.660720277188119"><ele>464.4</ele><time>2026-05-02T12:25:38Z</time></trkpt><trkpt lat="41.26482738374876" lon="14.660785699824451"><ele>464.0</ele><time>2026-05-02T12:25:39Z</time></trkpt><trkpt lat="41.26490829444363" lon="14.66083158083084"><ele>464.5</ele><time>2026-05-02T12:25:40Z</time></trkpt><trkpt lat="41.26499690730913" lon="14.660913535603676"><ele>465.0</ele><time>2026-05-02T12:25:41Z</time></trkpt><trkpt lat="41.26509169738587" lon="14.660979086277829"><ele>465.5</ele><time>2026-05-02T12:25:42Z</time></trkpt><trkpt lat="41.26519756611217" lon="14.661050376269378"><ele>466.0</ele><time>2026-05-02T12:25:43Z</time></trkpt><trkpt lat="41.265317173552326" lon="14.661125150822617"><ele>466.0</ele><time>2026-05-02T12:25:44Z</time></trkpt><trkpt lat="41.2654425491387" lon="14.661179707649751"><ele>466.0</ele><time>2026-05-02T12:25:45Z</time></trkpt><trkpt lat="41.26555384100454" lon="14.661257622834757"><ele>466.0</ele><time>2026-05-02T12:25:46Z</time></trkpt><trkpt lat="41.265678846981366" lon="14.661328142911668"><ele>466.0</ele><time>2026-05-02T12:25:47Z</time></trkpt><trkpt lat="41.26579607567818" lon="14.661396372301471"><ele>467.8</ele><time>2026-05-02T12:25:48Z</time></trkpt><trkpt lat="41.26590732436157" lon="14.66146900295827"><ele>469.6</ele><time>2026-05-02T12:25:49Z</time></trkpt><trkpt lat="41.266016744361835" lon="14.661523541173334"><ele>471.4</ele><time>2026-05-02T12:25:50Z</time></trkpt><trkpt lat="41.2661125791488" lon="14.66158468244736"><ele>473.2</ele><time>2026-05-02T12:25:51Z</time></trkpt><trkpt lat="41.26620065968011" lon="14.661651738455587"><ele>475.0</ele><time>2026-05-02T12:25:52Z</time></trkpt><trkpt lat="41.26627940159459" lon="14.66172826524726"><ele>475.0</ele><time>2026-05-02T12:25:53Z</time></trkpt><trkpt lat="41.266344549280085" lon="14.66182153893501"><ele>475.0</ele><time>2026-05-02T12:25:53.999Z</time></trkpt><trkpt lat="41.266376339718086" lon="14.661934339802903"><ele>475.0</ele><time>2026-05-02T12:25:54.999Z</time></trkpt><trkpt lat="41.26639855423098" lon="14.66204230779969"><ele>475.0</ele><time>2026-05-02T12:25:55.999Z</time></trkpt><trkpt lat="41.26638652923496" lon="14.662177722639655"><ele>475.0</ele><time>2026-05-02T12:25:56.999Z</time></trkpt><trkpt lat="41.26638824113488" lon="14.662323865488673"><ele>475.0</ele><time>2026-05-02T12:25:57.999Z</time></trkpt><trkpt lat="41.266363436920074" lon="14.662449426025777"><ele>475.0</ele><time>2026-05-02T12:25:58.999Z</time></trkpt><trkpt lat="41.26633628384506" lon="14.662572048582078"><ele>475.0</ele><time>2026-05-02T12:25:59.999Z</time></trkpt><trkpt lat="41.26631207569579" lon="14.662703565142891"><ele>475.0</ele><time>2026-05-02T12:26:00.999Z</time></trkpt><trkpt lat="41.26627558382064" lon="14.662840847826413"><ele>475.0</ele><time>2026-05-02T12:26:01.999Z</time></trkpt><trkpt lat="41.26623213155613" lon="14.66297146431594"><ele>475.8</ele><time>2026-05-02T12:26:02.999Z</time></trkpt><trkpt lat="41.26618670793111" lon="14.663110240030761"><ele>476.6</ele><time>2026-05-02T12:26:03.999Z</time></trkpt><trkpt lat="41.2661413192471" lon="14.66322825244736"><ele>477.4</ele><time>2026-05-02T12:26:04.999Z</time></trkpt><trkpt lat="41.26610610151711" lon="14.66332053934626"><ele>478.2</ele><time>2026-05-02T12:26:05.999Z</time></trkpt><trkpt lat="41.26607813299627" lon="14.663398795330222"><ele>479.0</ele><time>2026-05-02T12:26:06.999Z</time></trkpt><trkpt lat="41.266041055033945" lon="14.66352183652279"><ele>480.16666666666663</ele><time>2026-05-02T12:26:08.999Z</time></trkpt><trkpt lat="41.2660207528225" lon="14.663631838806857"><ele>481.3333333333333</ele><time>2026-05-02T12:26:10.999Z</time></trkpt><trkpt lat="41.26598523931161" lon="14.663718024124213"><ele>482.5</ele><time>2026-05-02T12:26:13.999Z</time></trkpt><trkpt lat="41.265970203438236" lon="14.663842710665337"><ele>483.66666666666663</ele><time>2026-05-02T12:26:31.999Z</time></trkpt><trkpt lat="41.265945067347275" lon="14.663930794424605"><ele>484.8333333333333</ele><time>2026-05-02T12:26:32.999Z</time></trkpt><trkpt lat="41.265903956827906" lon="14.663994829173463"><ele>486.0</ele><time>2026-05-02T12:26:33.999Z</time></trkpt><trkpt lat="41.265872808490485" lon="14.664077336724226"><ele>486.0</ele><time>2026-05-02T12:26:34.999Z</time></trkpt><trkpt lat="41.26581957056129" lon="14.664142407144746"><ele>486.0</ele><time>2026-05-02T12:26:35.999Z</time></trkpt><trkpt lat="41.26576594704848" lon="14.664188047487873"><ele>486.0</ele><time>2026-05-02T12:26:36.999Z</time></trkpt><trkpt lat="41.26563833758132" lon="14.664230419783843"><ele>486.0</ele><time>2026-05-02T12:26:38.999Z</time></trkpt><trkpt lat="41.26555630865789" lon="14.664244100783971"><ele>486.0</ele><time>2026-05-02T12:26:39.999Z</time></trkpt><trkpt lat="41.265471792112166" lon="14.664253536256139"><ele>486.0</ele><time>2026-05-02T12:26:40.999Z</time></trkpt><trkpt lat="41.26538746620074" lon="14.664253766043501"><ele>485.3333333333333</ele><time>2026-05-02T12:26:41.999Z</time></trkpt><trkpt lat="41.265304753217414" lon="14.664252611455064"><ele>484.66666666666663</ele><time>2026-05-02T12:26:42.999Z</time></trkpt><trkpt lat="41.26521536289982" lon="14.664253413935477"><ele>484.0</ele><time>2026-05-02T12:26:43.999Z</time></trkpt><trkpt lat="41.26512817124684" lon="14.664253012827487"><ele>483.3333333333333</ele><time>2026-05-02T12:26:44.999Z</time></trkpt><trkpt lat="41.265034699535896" lon="14.664248625372752"><ele>482.66666666666663</ele><time>2026-05-02T12:26:45.999Z</time></trkpt><trkpt lat="41.26494299199687" lon="14.664250894504983"><ele>482.0</ele><time>2026-05-02T12:26:46.999Z</time></trkpt><trkpt lat="41.264845300194864" lon="14.66428224779994"><ele>482.20000000000005</ele><time>2026-05-02T12:26:47.999Z</time></trkpt><trkpt lat="41.26475491725685" lon="14.664350985333567"><ele>482.40000000000003</ele><time>2026-05-02T12:26:48.999Z</time></trkpt><trkpt lat="41.26467625314511" lon="14.664441503535583"><ele>482.59999999999997</ele><time>2026-05-02T12:26:49.999Z</time></trkpt><trkpt lat="41.264612881392296" lon="14.664552050349606"><ele>482.79999999999995</ele><time>2026-05-02T12:26:50.999Z</time></trkpt><trkpt lat="41.264556660391214" lon="14.664676820687731"><ele>483.0</ele><time>2026-05-02T12:26:51.999Z</time></trkpt><trkpt lat="41.26449701639068" lon="14.664803887317145"><ele>483.0</ele><time>2026-05-02T12:26:52.999Z</time></trkpt><trkpt lat="41.264429681123616" lon="14.664930709068434"><ele>482.99999999999994</ele><time>2026-05-02T12:26:53.999Z</time></trkpt><trkpt lat="41.2643704637458" lon="14.665062079698153"><ele>482.99999999999994</ele><time>2026-05-02T12:26:54.999Z</time></trkpt><trkpt lat="41.26434523396521" lon="14.66518964709167"><ele>483.0</ele><time>2026-05-02T12:26:55.999Z</time></trkpt><trkpt lat="41.26432678119874" lon="14.665324175072435"><ele>483.0</ele><time>2026-05-02T12:26:56.999Z</time></trkpt><trkpt lat="41.2643781787589" lon="14.665458845579257"><ele>483.4</ele><time>2026-05-02T12:26:57.999Z</time></trkpt><trkpt lat="41.26441419705861" lon="14.665575466849514"><ele>483.79999999999995</ele><time>2026-05-02T12:26:58.999Z</time></trkpt><trkpt lat="41.26453261863314" lon="14.665621126905197"><ele>484.2</ele><time>2026-05-02T12:26:59.999Z</time></trkpt><trkpt lat="41.2646394467458" lon="14.665661149126228"><ele>484.6</ele><time>2026-05-02T12:27:00.999Z</time></trkpt><trkpt lat="41.26474961945485" lon="14.665678916326494"><ele>485.0</ele><time>2026-05-02T12:27:01.999Z</time></trkpt><trkpt lat="41.26486358587291" lon="14.665703053674923"><ele>485.0</ele><time>2026-05-02T12:27:02.999Z</time></trkpt><trkpt lat="41.264982308654716" lon="14.665735684684083"><ele>485.0</ele><time>2026-05-02T12:27:03.999Z</time></trkpt><trkpt lat="41.26510520738782" lon="14.665759103807572"><ele>485.0</ele><time>2026-05-02T12:27:04.999Z</time></trkpt><trkpt lat="41.265228950545065" lon="14.665797888741364"><ele>485.0</ele><time>2026-05-02T12:27:05.999Z</time></trkpt><trkpt lat="41.265365472041786" lon="14.665828290499379"><ele>485.0</ele><time>2026-05-02T12:27:06.999Z</time></trkpt><trkpt lat="41.26550269550521" lon="14.665854155409976"><ele>485.0</ele><time>2026-05-02T12:27:07.999Z</time></trkpt><trkpt lat="41.26564325499422" lon="14.665881699945507"><ele>485.0</ele><time>2026-05-02T12:27:08.999Z</time></trkpt><trkpt lat="41.26578426950213" lon="14.6659080817062"><ele>485.0</ele><time>2026-05-02T12:27:09.999Z</time></trkpt><trkpt lat="41.26591648071583" lon="14.665928265353385"><ele>485.6</ele><time>2026-05-02T12:27:10.999Z</time></trkpt><trkpt lat="41.26604101415647" lon="14.665947221498318"><ele>486.2</ele><time>2026-05-02T12:27:11.999Z</time></trkpt><trkpt lat="41.26614838082124" lon="14.665973495037248"><ele>486.79999999999995</ele><time>2026-05-02T12:27:12.999Z</time></trkpt><trkpt lat="41.26623957145537" lon="14.665995192856512"><ele>487.4</ele><time>2026-05-02T12:27:13.999Z</time></trkpt><trkpt lat="41.26630797917396" lon="14.666094790286605"><ele>488.0</ele><time>2026-05-02T12:27:14.999Z</time></trkpt><trkpt lat="41.26637095841343" lon="14.66621541801682"><ele>488.0</ele><time>2026-05-02T12:27:15.999Z</time></trkpt><trkpt lat="41.26637210903891" lon="14.66635549054839"><ele>487.99999999999994</ele><time>2026-05-02T12:27:16.999Z</time></trkpt><trkpt lat="41.26637382847839" lon="14.666491909972333"><ele>487.99999999999994</ele><time>2026-05-02T12:27:17.999Z</time></trkpt><trkpt lat="41.266353513631316" lon="14.666626258866817"><ele>488.0</ele><time>2026-05-02T12:27:18.999Z</time></trkpt><trkpt lat="41.26632252411719" lon="14.66676164417977"><ele>488.0</ele><time>2026-05-02T12:27:19.999Z</time></trkpt><trkpt lat="41.266299153327154" lon="14.666902487878284"><ele>488.4</ele><time>2026-05-02T12:27:20.999Z</time></trkpt><trkpt lat="41.26627402307425" lon="14.667039037675423"><ele>488.79999999999995</ele><time>2026-05-02T12:27:21.999Z</time></trkpt><trkpt lat="41.2662506725876" lon="14.667169544169203"><ele>489.2</ele><time>2026-05-02T12:27:22.999Z</time></trkpt><trkpt lat="41.26623228073558" lon="14.667302544316996"><ele>489.6</ele><time>2026-05-02T12:27:23.999Z</time></trkpt><trkpt lat="41.26623692674519" lon="14.667438668122024"><ele>490.0</ele><time>2026-05-02T12:27:24.999Z</time></trkpt><trkpt lat="41.26626865766992" lon="14.667575335533106"><ele>490.0</ele><time>2026-05-02T12:27:25.999Z</time></trkpt><trkpt lat="41.26632474188967" lon="14.667710810801722"><ele>490.0</ele><time>2026-05-02T12:27:26.999Z</time></trkpt><trkpt lat="41.266390277486096" lon="14.667836734973097"><ele>490.0</ele><time>2026-05-02T12:27:27.999Z</time></trkpt><trkpt lat="41.266456272007716" lon="14.667978364257149"><ele>490.0</ele><time>2026-05-02T12:27:28.999Z</time></trkpt><trkpt lat="41.266523479425025" lon="14.668114543021087"><ele>491.8</ele><time>2026-05-02T12:27:29.999Z</time></trkpt><trkpt lat="41.2665777309128" lon="14.668233195416125"><ele>493.6</ele><time>2026-05-02T12:27:30.999Z</time></trkpt><trkpt lat="41.26660352635107" lon="14.668350716066566"><ele>495.4</ele><time>2026-05-02T12:27:31.999Z</time></trkpt><trkpt lat="41.26658806093046" lon="14.66847132014356"><ele>497.2</ele><time>2026-05-02T12:27:32.999Z</time></trkpt><trkpt lat="41.26653551367284" lon="14.668590385184606"><ele>499.0</ele><time>2026-05-02T12:27:33.999Z</time></trkpt><trkpt lat="41.26646931143619" lon="14.668707582006466"><ele>497.75</ele><time>2026-05-02T12:27:34.999Z</time></trkpt><trkpt lat="41.26639919657358" lon="14.668831452290851"><ele>496.5</ele><time>2026-05-02T12:27:35.999Z</time></trkpt><trkpt lat="41.266325621939565" lon="14.668959567292339"><ele>495.25</ele><time>2026-05-02T12:27:36.999Z</time></trkpt><trkpt lat="41.26625283141987" lon="14.669098193037716"><ele>494.0</ele><time>2026-05-02T12:27:37.999Z</time></trkpt><trkpt lat="41.266195103410574" lon="14.669214967174657"><ele>494.0</ele><time>2026-05-02T12:27:38.999Z</time></trkpt><trkpt lat="41.26614677968102" lon="14.669345500367562"><ele>494.0</ele><time>2026-05-02T12:27:39.999Z</time></trkpt><trkpt lat="41.26610974233968" lon="14.669494021500954"><ele>494.0</ele><time>2026-05-02T12:27:40.999Z</time></trkpt><trkpt lat="41.26607457310252" lon="14.6696462601745"><ele>494.0</ele><time>2026-05-02T12:27:41.999Z</time></trkpt><trkpt lat="41.266016540571165" lon="14.669962906857647"><ele>495.0</ele><time>2026-05-02T12:27:43.999Z</time></trkpt><trkpt lat="41.26599193202899" lon="14.670126350293497"><ele>496.0</ele><time>2026-05-02T12:27:44.999Z</time></trkpt><trkpt lat="41.265963217248775" lon="14.670315451096512"><ele>497.0</ele><time>2026-05-02T12:27:45.999Z</time></trkpt><trkpt lat="41.26594362898987" lon="14.670491723923613"><ele>498.0</ele><time>2026-05-02T12:27:46.999Z</time></trkpt><trkpt lat="41.26592548710981" lon="14.670665311015606"><ele>498.25</ele><time>2026-05-02T12:27:47.999Z</time></trkpt><trkpt lat="41.26592945117236" lon="14.670838517297781"><ele>498.5</ele><time>2026-05-02T12:27:48.999Z</time></trkpt><trkpt lat="41.265973162238566" lon="14.671011919895667"><ele>498.75</ele><time>2026-05-02T12:27:49.999Z</time></trkpt><trkpt lat="41.26605458391305" lon="14.671183260152194"><ele>499.0</ele><time>2026-05-02T12:27:50.999Z</time></trkpt><trkpt lat="41.26617851217785" lon="14.671362005390987"><ele>499.6666666666667</ele><time>2026-05-02T12:27:51.999Z</time></trkpt><trkpt lat="41.26633091622675" lon="14.671558196151517"><ele>500.33333333333337</ele><time>2026-05-02T12:27:52.999Z</time></trkpt><trkpt lat="41.26649123545422" lon="14.671791117725002"><ele>501.0</ele><time>2026-05-02T12:27:53.999Z</time></trkpt><trkpt lat="41.266607693965405" lon="14.672011149034477"><ele>501.0</ele><time>2026-05-02T12:27:54.999Z</time></trkpt><trkpt lat="41.26671043928353" lon="14.672273948147092"><ele>501.0</ele><time>2026-05-02T12:27:55.999Z</time></trkpt><trkpt lat="41.26681060585037" lon="14.672602816192446"><ele>500.5</ele><time>2026-05-02T12:27:56.999Z</time></trkpt><trkpt lat="41.26691410019863" lon="14.67297402755576"><ele>500.0</ele><time>2026-05-02T12:27:57.999Z</time></trkpt><trkpt lat="41.26699457535024" lon="14.673241358378023"><ele>500.0</ele><time>2026-05-02T12:27:58.999Z</time></trkpt><trkpt lat="41.26706158892526" lon="14.67351039329587"><ele>500.0</ele><time>2026-05-02T12:27:59.999Z</time></trkpt><trkpt lat="41.26713469986799" lon="14.673776158624017"><ele>500.0</ele><time>2026-05-02T12:28:00.999Z</time></trkpt><trkpt lat="41.26718747309334" lon="14.673987801929256"><ele>500.66666666666663</ele><time>2026-05-02T12:28:01.999Z</time></trkpt><trkpt lat="41.26725207343549" lon="14.674164869573588"><ele>501.33333333333337</ele><time>2026-05-02T12:28:02.999Z</time></trkpt><trkpt lat="41.267367916495516" lon="14.674299776711385"><ele>502.0</ele><time>2026-05-02T12:28:03.999Z</time></trkpt><trkpt lat="41.26752589082687" lon="14.6744164633462"><ele>502.0</ele><time>2026-05-02T12:28:04.999Z</time></trkpt><trkpt lat="41.26767773878568" lon="14.674555409438303"><ele>502.0</ele><time>2026-05-02T12:28:05.999Z</time></trkpt><trkpt lat="41.26780103184809" lon="14.674709831391738"><ele>502.0</ele><time>2026-05-02T12:28:06.999Z</time></trkpt><trkpt lat="41.26790971156229" lon="14.674892112222738"><ele>502.0</ele><time>2026-05-02T12:28:07.999Z</time></trkpt><trkpt lat="41.26801832441349" lon="14.675097178654964"><ele>502.0</ele><time>2026-05-02T12:28:08.999Z</time></trkpt><trkpt lat="41.268112899834136" lon="14.675273898005338"><ele>502.0</ele><time>2026-05-02T12:28:09.999Z</time></trkpt><trkpt lat="41.2681975992539" lon="14.675490214778952"><ele>503.33333333333337</ele><time>2026-05-02T12:28:10.999Z</time></trkpt><trkpt lat="41.2682645099539" lon="14.675747379828868"><ele>504.66666666666663</ele><time>2026-05-02T12:28:11.999Z</time></trkpt><trkpt lat="41.268317378146996" lon="14.676007077553274"><ele>506.0</ele><time>2026-05-02T12:28:12.999Z</time></trkpt><trkpt lat="41.268361258453886" lon="14.676235023673948"><ele>506.0</ele><time>2026-05-02T12:28:13.999Z</time></trkpt><trkpt lat="41.268419237034884" lon="14.676445941346747"><ele>506.0</ele><time>2026-05-02T12:28:14.999Z</time></trkpt><trkpt lat="41.26849832414278" lon="14.67664015174851"><ele>506.0</ele><time>2026-05-02T12:28:15.999Z</time></trkpt><trkpt lat="41.26862589719394" lon="14.676823793561155"><ele>508.0</ele><time>2026-05-02T12:28:16.999Z</time></trkpt><trkpt lat="41.268753975894626" lon="14.676998113699213"><ele>510.0</ele><time>2026-05-02T12:28:17.999Z</time></trkpt><trkpt lat="41.26891363067669" lon="14.677137099918655"><ele>512.0</ele><time>2026-05-02T12:28:18.999Z</time></trkpt><trkpt lat="41.26906522343568" lon="14.677222694590276"><ele>512.0</ele><time>2026-05-02T12:28:19.999Z</time></trkpt><trkpt lat="41.269203924928526" lon="14.67732195591067"><ele>512.0</ele><time>2026-05-02T12:28:20.999Z</time></trkpt><trkpt lat="41.269365570621964" lon="14.67737811358932"><ele>512.0</ele><time>2026-05-02T12:28:21.999Z</time></trkpt><trkpt lat="41.26951577440845" lon="14.677366696479387"><ele>512.0</ele><time>2026-05-02T12:28:22.999Z</time></trkpt><trkpt lat="41.26969699130026" lon="14.677293182937316"><ele>512.0</ele><time>2026-05-02T12:28:23.999Z</time></trkpt><trkpt lat="41.269880205562224" lon="14.677193565735605"><ele>512.0</ele><time>2026-05-02T12:28:24.999Z</time></trkpt><trkpt lat="41.27007324483471" lon="14.677074724350247"><ele>512.0</ele><time>2026-05-02T12:28:25.999Z</time></trkpt><trkpt lat="41.27021509923156" lon="14.676968935451711"><ele>512.0</ele><time>2026-05-02T12:28:26.999Z</time></trkpt><trkpt lat="41.27029615428497" lon="14.676809384101988"><ele>512.0</ele><time>2026-05-02T12:28:27.999Z</time></trkpt><trkpt lat="41.27035845274602" lon="14.676625871436405"><ele>514.5</ele><time>2026-05-02T12:28:28.999Z</time></trkpt><trkpt lat="41.270409866814475" lon="14.676473163576539"><ele>517.0</ele><time>2026-05-02T12:28:29.999Z</time></trkpt><trkpt lat="41.27050925501764" lon="14.676384495858782"><ele>519.5</ele><time>2026-05-02T12:28:30.999Z</time></trkpt><trkpt lat="41.270609369246614" lon="14.676364614466635"><ele>522.0</ele><time>2026-05-02T12:28:31.999Z</time></trkpt><trkpt lat="41.270725433582605" lon="14.67638836524997"><ele>522.0</ele><time>2026-05-02T12:28:32.999Z</time></trkpt><trkpt lat="41.27082642813464" lon="14.67647774293291"><ele>522.0</ele><time>2026-05-02T12:28:33.999Z</time></trkpt><trkpt lat="41.27092125833098" lon="14.676611417022597"><ele>522.0</ele><time>2026-05-02T12:28:34.999Z</time></trkpt><trkpt lat="41.27105730730477" lon="14.676753487177434"><ele>522.0</ele><time>2026-05-02T12:28:35.999Z</time></trkpt><trkpt lat="41.27117074110039" lon="14.676859013651361"><ele>522.0</ele><time>2026-05-02T12:28:36.999Z</time></trkpt><trkpt lat="41.27130830358085" lon="14.676915276072384"><ele>522.0</ele><time>2026-05-02T12:28:37.999Z</time></trkpt><trkpt lat="41.27146812851449" lon="14.676942044625676"><ele>522.0</ele><time>2026-05-02T12:28:38.999Z</time></trkpt><trkpt lat="41.271637232744624" lon="14.676948894131268"><ele>520.3333333333334</ele><time>2026-05-02T12:28:39.999Z</time></trkpt><trkpt lat="41.27178536027203" lon="14.677023686316328"><ele>518.6666666666667</ele><time>2026-05-02T12:28:40.999Z</time></trkpt><trkpt lat="41.27194445782536" lon="14.677123555196392"><ele>517.0</ele><time>2026-05-02T12:28:41.999Z</time></trkpt><trkpt lat="41.2721072149401" lon="14.677227147002858"><ele>517.0</ele><time>2026-05-02T12:28:42.999Z</time></trkpt><trkpt lat="41.27225047914807" lon="14.677312268779689"><ele>517.0</ele><time>2026-05-02T12:28:43.999Z</time></trkpt><trkpt lat="41.27236805384891" lon="14.677397877654752"><ele>517.0</ele><time>2026-05-02T12:28:44.999Z</time></trkpt><trkpt lat="41.272437021943034" lon="14.677501745345339"><ele>517.0</ele><time>2026-05-02T12:28:45.999Z</time></trkpt><trkpt lat="41.27246608335615" lon="14.67763453528485"><ele>519.3333333333334</ele><time>2026-05-02T12:28:46.999Z</time></trkpt><trkpt lat="41.27247466387583" lon="14.677817495035528"><ele>521.6666666666666</ele><time>2026-05-02T12:28:47.999Z</time></trkpt><trkpt lat="41.272525667244096" lon="14.678028244373245"><ele>524.0</ele><time>2026-05-02T12:28:48.999Z</time></trkpt><trkpt lat="41.272602003701365" lon="14.678260048647408"><ele>524.0</ele><time>2026-05-02T12:28:49.999Z</time></trkpt><trkpt lat="41.2726937726349" lon="14.678479102334741"><ele>524.0</ele><time>2026-05-02T12:28:50.999Z</time></trkpt><trkpt lat="41.272768353373216" lon="14.678686699048573"><ele>524.0</ele><time>2026-05-02T12:28:51.999Z</time></trkpt><trkpt lat="41.27280675770648" lon="14.678784516117094"><ele>524.0</ele><time>2026-05-02T12:28:52.999Z</time></trkpt><trkpt lat="41.27284282513536" lon="14.678861011099821"><ele>523.3333333333333</ele><time>2026-05-02T12:28:54.999Z</time></trkpt><trkpt lat="41.27286618925096" lon="14.67897241798019"><ele>522.6666666666666</ele><time>2026-05-02T12:28:56.999Z</time></trkpt><trkpt lat="41.272878287310455" lon="14.679059361344322"><ele>522.0</ele><time>2026-05-02T12:28:58.999Z</time></trkpt><trkpt lat="41.27287192602401" lon="14.679218318662162"><ele>521.3333333333334</ele><time>2026-05-02T12:29:00.999Z</time></trkpt><trkpt lat="41.27287116511031" lon="14.679302641906299"><ele>520.6666666666667</ele><time>2026-05-02T12:29:01.999Z</time></trkpt><trkpt lat="41.2728578427848" lon="14.679439813589111"><ele>520.0</ele><time>2026-05-02T12:29:03.999Z</time></trkpt><trkpt lat="41.27285444206317" lon="14.679550319949627"><ele>519.8333333333334</ele><time>2026-05-02T12:29:05.999Z</time></trkpt><trkpt lat="41.27284879223229" lon="14.679669678980499"><ele>519.6666666666667</ele><time>2026-05-02T12:29:07.999Z</time></trkpt><trkpt lat="41.27284631510917" lon="14.679770235477474"><ele>519.5</ele><time>2026-05-02T12:30:03.999Z</time></trkpt><trkpt lat="41.27285478385582" lon="14.679901813558557"><ele>519.3333333333334</ele><time>2026-05-02T12:30:05.999Z</time></trkpt><trkpt lat="41.272852735267556" lon="14.679992550582332"><ele>519.1666666666666</ele><time>2026-05-02T12:30:06.999Z</time></trkpt><trkpt lat="41.27285566682959" lon="14.680093636231929"><ele>519.0</ele><time>2026-05-02T12:30:07.999Z</time></trkpt><trkpt lat="41.272863737410354" lon="14.680213118562264"><ele>518.8</ele><time>2026-05-02T12:30:08.999Z</time></trkpt><trkpt lat="41.272869875086265" lon="14.680341560650149"><ele>518.5999999999999</ele><time>2026-05-02T12:30:09.999Z</time></trkpt><trkpt lat="41.272880096715824" lon="14.68047421352013"><ele>518.4</ele><time>2026-05-02T12:30:10.999Z</time></trkpt><trkpt lat="41.27288870491905" lon="14.680616054382227"><ele>518.1999999999999</ele><time>2026-05-02T12:30:11.999Z</time></trkpt><trkpt lat="41.27290157618039" lon="14.680765627079516"><ele>518.0</ele><time>2026-05-02T12:30:12.999Z</time></trkpt><trkpt lat="41.27291226286972" lon="14.680921645880181"><ele>518.0</ele><time>2026-05-02T12:30:13.999Z</time></trkpt><trkpt lat="41.27291873030592" lon="14.681069914332733"><ele>518.0</ele><time>2026-05-02T12:30:14.999Z</time></trkpt><trkpt lat="41.27292254942553" lon="14.681189790020232"><ele>518.0</ele><time>2026-05-02T12:30:15.999Z</time></trkpt><trkpt lat="41.27291232312859" lon="14.681311565672377"><ele>518.0</ele><time>2026-05-02T12:30:16.999Z</time></trkpt><trkpt lat="41.272885492707324" lon="14.681441985611773"><ele>518.0</ele><time>2026-05-02T12:30:17.999Z</time></trkpt><trkpt lat="41.27288347659286" lon="14.681603699187038"><ele>518.5</ele><time>2026-05-02T12:30:18.999Z</time></trkpt><trkpt lat="41.27274838155068" lon="14.681707337358366"><ele>519.0</ele><time>2026-05-02T12:30:19.999Z</time></trkpt><trkpt lat="41.27264716515594" lon="14.68182697362499"><ele>519.5</ele><time>2026-05-02T12:30:20.999Z</time></trkpt><trkpt lat="41.272527152930806" lon="14.681963905042346"><ele>520.0</ele><time>2026-05-02T12:30:21.999Z</time></trkpt><trkpt lat="41.27239607986717" lon="14.682091135094018"><ele>517.0</ele><time>2026-05-02T12:30:22.999Z</time></trkpt><trkpt lat="41.272253512967076" lon="14.682163981972632"><ele>514.0</ele><time>2026-05-02T12:30:23.999Z</time></trkpt><trkpt lat="41.272134826020356" lon="14.682287450537075"><ele>511.0</ele><time>2026-05-02T12:30:24.999Z</time></trkpt><trkpt lat="41.272035841633695" lon="14.682445704417443"><ele>511.0</ele><time>2026-05-02T12:30:25.999Z</time></trkpt><trkpt lat="41.27189988509778" lon="14.682625295716175"><ele>511.0</ele><time>2026-05-02T12:30:26.999Z</time></trkpt><trkpt lat="41.27194590829616" lon="14.682536236399013"><ele>511.0</ele><time>2026-05-02T12:30:27.999Z</time></trkpt><trkpt lat="41.271857750441626" lon="14.682662162201535"><ele>511.0</ele><time>2026-05-02T12:30:28.999Z</time></trkpt><trkpt lat="41.27177264969111" lon="14.682774718599543"><ele>510.4</ele><time>2026-05-02T12:30:29.999Z</time></trkpt><trkpt lat="41.27169399929895" lon="14.682885632969015"><ele>509.8</ele><time>2026-05-02T12:30:30.999Z</time></trkpt><trkpt lat="41.271618567164595" lon="14.68299144883823"><ele>509.19999999999993</ele><time>2026-05-02T12:30:31.999Z</time></trkpt><trkpt lat="41.27154585723458" lon="14.683090636822874"><ele>508.59999999999997</ele><time>2026-05-02T12:30:32.999Z</time></trkpt><trkpt lat="41.27147977490298" lon="14.683185818140783"><ele>508.0</ele><time>2026-05-02T12:30:33.999Z</time></trkpt><trkpt lat="41.271409156205486" lon="14.683235462882989"><ele>504.59999999999997</ele><time>2026-05-02T12:30:34.999Z</time></trkpt><trkpt lat="41.271323922035336" lon="14.68317059117405"><ele>501.19999999999993</ele><time>2026-05-02T12:30:35.999Z</time></trkpt><trkpt lat="41.27125500408393" lon="14.683067753775324"><ele>497.8</ele><time>2026-05-02T12:30:36.999Z</time></trkpt><trkpt lat="41.27115852453553" lon="14.682981724574542"><ele>494.4</ele><time>2026-05-02T12:30:37.999Z</time></trkpt><trkpt lat="41.271067186267416" lon="14.682932641290435"><ele>491.0</ele><time>2026-05-02T12:30:38.999Z</time></trkpt><trkpt lat="41.27098963379578" lon="14.682883570664844"><ele>490.99999999999994</ele><time>2026-05-02T12:30:39.999Z</time></trkpt><trkpt lat="41.27092646351436" lon="14.68287109111668"><ele>491.0</ele><time>2026-05-02T12:30:40.999Z</time></trkpt><trkpt lat="41.27087263230672" lon="14.682952056616923"><ele>491.0</ele><time>2026-05-02T12:30:42.999Z</time></trkpt><trkpt lat="41.270959424667524" lon="14.683085298992305"><ele>491.0</ele><time>2026-05-02T12:30:44.999Z</time></trkpt><trkpt lat="41.27102020397995" lon="14.683122318199391"><ele>490.99999999999994</ele><time>2026-05-02T12:30:45.999Z</time></trkpt><trkpt lat="41.271017018291126" lon="14.683227361867187"><ele>491.0</ele><time>2026-05-02T12:30:47.999Z</time></trkpt><trkpt lat="41.27094544094192" lon="14.683233277005579"><ele>491.0</ele><time>2026-05-02T12:30:48.999Z</time></trkpt><trkpt lat="41.27084987195575" lon="14.683165056138124"><ele>491.0</ele><time>2026-05-02T12:30:49.999Z</time></trkpt><trkpt lat="41.27072676302132" lon="14.683151611475083"><ele>491.0</ele><time>2026-05-02T12:30:50.999Z</time></trkpt><trkpt lat="41.27059644562049" lon="14.683120823703755"><ele>491.0</ele><time>2026-05-02T12:30:51.999Z</time></trkpt><trkpt lat="41.270472156635186" lon="14.683125740484664"><ele>487.5</ele><time>2026-05-02T12:30:52.999Z</time></trkpt><trkpt lat="41.27034965596957" lon="14.68314236554574"><ele>484.0</ele><time>2026-05-02T12:30:53.999Z</time></trkpt><trkpt lat="41.27021900822324" lon="14.683175052194477"><ele>480.5</ele><time>2026-05-02T12:30:54.999Z</time></trkpt><trkpt lat="41.27010031504824" lon="14.683183753109208"><ele>477.0</ele><time>2026-05-02T12:30:55.999Z</time></trkpt><trkpt lat="41.26998334750873" lon="14.683188441266115"><ele>477.0</ele><time>2026-05-02T12:30:56.999Z</time></trkpt><trkpt lat="41.26986766823428" lon="14.683169391689589"><ele>477.0</ele><time>2026-05-02T12:30:57.999Z</time></trkpt><trkpt lat="41.269754174113835" lon="14.68311791086606"><ele>477.0</ele><time>2026-05-02T12:30:58.999Z</time></trkpt><trkpt lat="41.26962348442099" lon="14.683101542796123"><ele>477.0</ele><time>2026-05-02T12:30:59.999Z</time></trkpt><trkpt lat="41.26946126406112" lon="14.683096789258714"><ele>473.33333333333337</ele><time>2026-05-02T12:31:00.999Z</time></trkpt><trkpt lat="41.269302276104185" lon="14.683136394124478"><ele>469.6666666666667</ele><time>2026-05-02T12:31:01.999Z</time></trkpt><trkpt lat="41.26914457265776" lon="14.683173196399267"><ele>466.0</ele><time>2026-05-02T12:31:02.999Z</time></trkpt><trkpt lat="41.26899563346453" lon="14.683210652666485"><ele>464.75</ele><time>2026-05-02T12:31:03.999Z</time></trkpt><trkpt lat="41.268847325662" lon="14.68324410035495"><ele>463.5</ele><time>2026-05-02T12:31:04.999Z</time></trkpt><trkpt lat="41.26869921987207" lon="14.68328026438167"><ele>462.25</ele><time>2026-05-02T12:31:05.999Z</time></trkpt><trkpt lat="41.26855746188319" lon="14.683300495368098"><ele>461.0</ele><time>2026-05-02T12:31:06.999Z</time></trkpt><trkpt lat="41.26840985934566" lon="14.683314019399106"><ele>461.0</ele><time>2026-05-02T12:31:07.999Z</time></trkpt><trkpt lat="41.26827097223401" lon="14.683319886049533"><ele>461.0</ele><time>2026-05-02T12:31:08.999Z</time></trkpt><trkpt lat="41.26814114448299" lon="14.683320822157102"><ele>461.0</ele><time>2026-05-02T12:31:09.999Z</time></trkpt><trkpt lat="41.26803704415536" lon="14.683333571195183"><ele>461.0</ele><time>2026-05-02T12:31:10.999Z</time></trkpt><trkpt lat="41.26795905625524" lon="14.683356711474287"><ele>460.8</ele><time>2026-05-02T12:31:11.999Z</time></trkpt><trkpt lat="41.2678904107405" lon="14.683402009923201"><ele>460.6</ele><time>2026-05-02T12:31:12.999Z</time></trkpt><trkpt lat="41.26781785071271" lon="14.683453059353036"><ele>460.4</ele><time>2026-05-02T12:31:13.999Z</time></trkpt><trkpt lat="41.26774557674904" lon="14.683524051908115"><ele>460.2</ele><time>2026-05-02T12:31:14.999Z</time></trkpt><trkpt lat="41.26767040774571" lon="14.683631034414374"><ele>460.0</ele><time>2026-05-02T12:31:15.999Z</time></trkpt><trkpt lat="41.267590611981916" lon="14.683740522115835"><ele>459.0</ele><time>2026-05-02T12:31:16.999Z</time></trkpt><trkpt lat="41.267527235925215" lon="14.683858379235772"><ele>458.0</ele><time>2026-05-02T12:31:17.999Z</time></trkpt><trkpt lat="41.26747931847874" lon="14.683959831026101"><ele>457.0</ele><time>2026-05-02T12:31:18.999Z</time></trkpt><trkpt lat="41.267404443170975" lon="14.684038332057929"><ele>456.0</ele><time>2026-05-02T12:31:19.999Z</time></trkpt><trkpt lat="41.26731962410673" lon="14.684110071081117"><ele>455.0</ele><time>2026-05-02T12:31:20.999Z</time></trkpt><trkpt lat="41.267209304095" lon="14.684065116080987"><ele>454.66666666666663</ele><time>2026-05-02T12:31:21.999Z</time></trkpt><trkpt lat="41.26705817489005" lon="14.684081689018761"><ele>454.33333333333337</ele><time>2026-05-02T12:31:23Z</time></trkpt><trkpt lat="41.266893126438006" lon="14.684143645047316"><ele>454.0</ele><time>2026-05-02T12:31:24Z</time></trkpt><trkpt lat="41.26673462761482" lon="14.684169056843668"><ele>454.0</ele><time>2026-05-02T12:31:25Z</time></trkpt><trkpt lat="41.26658573006961" lon="14.68422669594674"><ele>454.0</ele><time>2026-05-02T12:31:26Z</time></trkpt><trkpt lat="41.26644763012161" lon="14.684235974450328"><ele>454.0</ele><time>2026-05-02T12:31:27Z</time></trkpt><trkpt lat="41.266306118798965" lon="14.684274270907897"><ele>454.0</ele><time>2026-05-02T12:31:28Z</time></trkpt><trkpt lat="41.2662089425982" lon="14.684353858375767"><ele>450.25</ele><time>2026-05-02T12:31:29Z</time></trkpt><trkpt lat="41.26610048291053" lon="14.684416414804248"><ele>446.5</ele><time>2026-05-02T12:31:30Z</time></trkpt><trkpt lat="41.26602745529318" lon="14.684543671297357"><ele>442.75</ele><time>2026-05-02T12:31:31Z</time></trkpt><trkpt lat="41.265954482135356" lon="14.684669330771126"><ele>439.0</ele><time>2026-05-02T12:31:32Z</time></trkpt><trkpt lat="41.26590255892802" lon="14.684811854490196"><ele>438.75</ele><time>2026-05-02T12:31:33Z</time></trkpt><trkpt lat="41.26588016434271" lon="14.684970982101648"><ele>438.5</ele><time>2026-05-02T12:31:34Z</time></trkpt><trkpt lat="41.265842470895905" lon="14.685159204135184"><ele>438.25</ele><time>2026-05-02T12:31:35Z</time></trkpt><trkpt lat="41.26585438551848" lon="14.68534521106343"><ele>438.0</ele><time>2026-05-02T12:31:36Z</time></trkpt><trkpt lat="41.26585252429251" lon="14.685546872708715"><ele>437.33333333333337</ele><time>2026-05-02T12:31:37Z</time></trkpt><trkpt lat="41.265847114932704" lon="14.685756980248602"><ele>436.6666666666667</ele><time>2026-05-02T12:31:38Z</time></trkpt><trkpt lat="41.265827698353604" lon="14.685963452949185"><ele>436.0</ele><time>2026-05-02T12:31:39Z</time></trkpt><trkpt lat="41.26579194718183" lon="14.686151699900893"><ele>436.0</ele><time>2026-05-02T12:31:40Z</time></trkpt><trkpt lat="41.26575171135902" lon="14.686343691811283"><ele>436.0</ele><time>2026-05-02T12:31:41Z</time></trkpt><trkpt lat="41.26572096952269" lon="14.686533608739136"><ele>436.0</ele><time>2026-05-02T12:31:42Z</time></trkpt><trkpt lat="41.26569896700927" lon="14.686748421805374"><ele>435.0</ele><time>2026-05-02T12:31:43Z</time></trkpt><trkpt lat="41.26569927155108" lon="14.686964617680411"><ele>434.0</ele><time>2026-05-02T12:31:44Z</time></trkpt><trkpt lat="41.265710471957064" lon="14.687143594447434"><ele>433.0</ele><time>2026-05-02T12:31:45Z</time></trkpt><trkpt lat="41.26570963317488" lon="14.687294501282198"><ele>432.0</ele><time>2026-05-02T12:31:46Z</time></trkpt><trkpt lat="41.26571253756643" lon="14.68741861438096"><ele>432.0</ele><time>2026-05-02T12:31:47Z</time></trkpt><trkpt lat="41.265679489484356" lon="14.687529817389159"><ele>432.00000000000006</ele><time>2026-05-02T12:31:48Z</time></trkpt><trkpt lat="41.26561640550907" lon="14.687615570250095"><ele>432.00000000000006</ele><time>2026-05-02T12:31:49Z</time></trkpt><trkpt lat="41.265520098237914" lon="14.687684626136015"><ele>432.0</ele><time>2026-05-02T12:31:50Z</time></trkpt><trkpt lat="41.26540240097716" lon="14.687743307328427"><ele>432.0</ele><time>2026-05-02T12:31:51Z</time></trkpt><trkpt lat="41.265270408604074" lon="14.687781649896332"><ele>432.20000000000005</ele><time>2026-05-02T12:31:52Z</time></trkpt><trkpt lat="41.265166278357796" lon="14.687778761012055"><ele>432.40000000000003</ele><time>2026-05-02T12:31:53Z</time></trkpt><trkpt lat="41.26507371010264" lon="14.687752208829416"><ele>432.59999999999997</ele><time>2026-05-02T12:31:54Z</time></trkpt><trkpt lat="41.264993825334386" lon="14.687643105514134"><ele>432.79999999999995</ele><time>2026-05-02T12:31:55Z</time></trkpt><trkpt lat="41.26489749825866" lon="14.687532269024482"><ele>433.0</ele><time>2026-05-02T12:31:56Z</time></trkpt><trkpt lat="41.26478685123317" lon="14.687432709281543"><ele>431.0</ele><time>2026-05-02T12:31:57Z</time></trkpt><trkpt lat="41.26467431806049" lon="14.687392837628385"><ele>429.0</ele><time>2026-05-02T12:31:58Z</time></trkpt><trkpt lat="41.26454230111865" lon="14.687402847865926"><ele>427.0</ele><time>2026-05-02T12:31:59Z</time></trkpt><trkpt lat="41.26437684126402" lon="14.687437994429867"><ele>425.0</ele><time>2026-05-02T12:32:00Z</time></trkpt><trkpt lat="41.26421250549586" lon="14.687467971991001"><ele>425.0</ele><time>2026-05-02T12:32:01Z</time></trkpt><trkpt lat="41.26407421060682" lon="14.68748327983088"><ele>425.0</ele><time>2026-05-02T12:32:02Z</time></trkpt><trkpt lat="41.26395221661503" lon="14.687490028367524"><ele>425.0</ele><time>2026-05-02T12:32:03Z</time></trkpt><trkpt lat="41.26384778257538" lon="14.68748687912326"><ele>425.0</ele><time>2026-05-02T12:32:04Z</time></trkpt><trkpt lat="41.26375533028009" lon="14.68746017367395"><ele>423.49999999999994</ele><time>2026-05-02T12:32:05Z</time></trkpt><trkpt lat="41.26367533976754" lon="14.687421704557813"><ele>422.0</ele><time>2026-05-02T12:32:06Z</time></trkpt><trkpt lat="41.26360641693226" lon="14.687427331388747"><ele>420.5</ele><time>2026-05-02T12:32:07Z</time></trkpt><trkpt lat="41.26355028314418" lon="14.687499505077012"><ele>419.0</ele><time>2026-05-02T12:32:08Z</time></trkpt><trkpt lat="41.26351170706777" lon="14.687608228447933"><ele>417.49999999999994</ele><time>2026-05-02T12:32:09Z</time></trkpt><trkpt lat="41.26346797409466" lon="14.687744785241446"><ele>416.0</ele><time>2026-05-02T12:32:10Z</time></trkpt><trkpt lat="41.26341857915334" lon="14.68789402671619"><ele>416.0</ele><time>2026-05-02T12:32:10.999Z</time></trkpt><trkpt lat="41.26336449857152" lon="14.688055235038846"><ele>416.0</ele><time>2026-05-02T12:32:11.999Z</time></trkpt><trkpt lat="41.26330076600102" lon="14.688229078769567"><ele>416.0</ele><time>2026-05-02T12:32:12.999Z</time></trkpt><trkpt lat="41.263224693283426" lon="14.688378502259475"><ele>416.0</ele><time>2026-05-02T12:32:13.999Z</time></trkpt><trkpt lat="41.26314184732569" lon="14.688519726441998"><ele>414.75</ele><time>2026-05-02T12:32:14.999Z</time></trkpt><trkpt lat="41.26304384293211" lon="14.688604349474364"><ele>413.5</ele><time>2026-05-02T12:32:15.999Z</time></trkpt><trkpt lat="41.262913295877134" lon="14.688659661939042"><ele>412.25</ele><time>2026-05-02T12:32:16.999Z</time></trkpt><trkpt lat="41.262755624612225" lon="14.688719670093388"><ele>411.0</ele><time>2026-05-02T12:32:17.999Z</time></trkpt><trkpt lat="41.262582450300606" lon="14.688760587176976"><ele>411.0</ele><time>2026-05-02T12:32:18.999Z</time></trkpt><trkpt lat="41.262417969378944" lon="14.688778142484633"><ele>411.0</ele><time>2026-05-02T12:32:19.999Z</time></trkpt><trkpt lat="41.26227040318486" lon="14.68877480655043"><ele>411.0</ele><time>2026-05-02T12:32:20.999Z</time></trkpt><trkpt lat="41.262134444752526" lon="14.688726587431571"><ele>406.66666666666663</ele><time>2026-05-02T12:32:21.999Z</time></trkpt><trkpt lat="41.26200095321075" lon="14.688637296536625"><ele>402.3333333333333</ele><time>2026-05-02T12:32:22.999Z</time></trkpt><trkpt lat="41.26184209955536" lon="14.688553742818677"><ele>398.0</ele><time>2026-05-02T12:32:23.999Z</time></trkpt><trkpt lat="41.261703127584234" lon="14.688445616762914"><ele>397.0</ele><time>2026-05-02T12:32:24.999Z</time></trkpt><trkpt lat="41.261579983370986" lon="14.688369066676051"><ele>396.0</ele><time>2026-05-02T12:32:25.999Z</time></trkpt><trkpt lat="41.261478320566646" lon="14.688322027685818"><ele>395.0</ele><time>2026-05-02T12:32:26.999Z</time></trkpt><trkpt lat="41.26138156347541" lon="14.688335550529775"><ele>394.0</ele><time>2026-05-02T12:32:27.999Z</time></trkpt><trkpt lat="41.2612885894588" lon="14.688394471375322"><ele>393.0</ele><time>2026-05-02T12:32:28.999Z</time></trkpt><trkpt lat="41.261175835713146" lon="14.688496941847276"><ele>389.5</ele><time>2026-05-02T12:32:29.999Z</time></trkpt><trkpt lat="41.26107248723891" lon="14.688662727095185"><ele>386.0</ele><time>2026-05-02T12:32:30.999Z</time></trkpt><trkpt lat="41.260989111661914" lon="14.688805322739242"><ele>382.5</ele><time>2026-05-02T12:32:31.999Z</time></trkpt><trkpt lat="41.260944789408875" lon="14.688936698241612"><ele>379.0</ele><time>2026-05-02T12:32:32.999Z</time></trkpt><trkpt lat="41.260929119225565" lon="14.689088760423326"><ele>379.0</ele><time>2026-05-02T12:32:33.999Z</time></trkpt><trkpt lat="41.26093234217085" lon="14.689284244100723"><ele>379.0</ele><time>2026-05-02T12:32:34.999Z</time></trkpt><trkpt lat="41.2609449351191" lon="14.689461786006305"><ele>379.0</ele><time>2026-05-02T12:32:35.999Z</time></trkpt><trkpt lat="41.26097052622332" lon="14.689601752953644"><ele>379.0</ele><time>2026-05-02T12:32:36.999Z</time></trkpt><trkpt lat="41.261024393309505" lon="14.689738759696185"><ele>376.25</ele><time>2026-05-02T12:32:37.999Z</time></trkpt><trkpt lat="41.26110225346766" lon="14.689879417175655"><ele>373.5</ele><time>2026-05-02T12:32:38.999Z</time></trkpt><trkpt lat="41.261187600421394" lon="14.690033528779614"><ele>370.75</ele><time>2026-05-02T12:32:39.999Z</time></trkpt><trkpt lat="41.261235307947054" lon="14.690177519431279"><ele>368.0</ele><time>2026-05-02T12:32:40.999Z</time></trkpt><trkpt lat="41.26129104499871" lon="14.690302641102456"><ele>366.0</ele><time>2026-05-02T12:32:41.999Z</time></trkpt><trkpt lat="41.26133627032539" lon="14.690434160276926"><ele>364.0</ele><time>2026-05-02T12:32:42.999Z</time></trkpt><trkpt lat="41.2613455676429" lon="14.690570688240289"><ele>362.0</ele><time>2026-05-02T12:32:43.999Z</time></trkpt><trkpt lat="41.26131639700537" lon="14.69071854837475"><ele>360.0</ele><time>2026-05-02T12:32:44.999Z</time></trkpt><trkpt lat="41.2612635654723" lon="14.69087051422563"><ele>360.0</ele><time>2026-05-02T12:32:45.999Z</time></trkpt><trkpt lat="41.261214231508355" lon="14.691041917370079"><ele>360.0</ele><time>2026-05-02T12:32:46.999Z</time></trkpt><trkpt lat="41.26118511139884" lon="14.691195065640546"><ele>360.0</ele><time>2026-05-02T12:32:47.999Z</time></trkpt><trkpt lat="41.26119571142602" lon="14.691342949391224"><ele>360.0</ele><time>2026-05-02T12:32:48.999Z</time></trkpt><trkpt lat="41.26121077380777" lon="14.691456678800575"><ele>360.0</ele><time>2026-05-02T12:32:49.999Z</time></trkpt><trkpt lat="41.26117794839199" lon="14.691530189842398"><ele>360.0</ele><time>2026-05-02T12:32:51.999Z</time></trkpt><trkpt lat="41.26117189134069" lon="14.69142605386192"><ele>360.0</ele><time>2026-05-02T12:32:53.999Z</time></trkpt><trkpt lat="41.26116579159974" lon="14.691310336885984"><ele>360.0</ele><time>2026-05-02T12:32:54.999Z</time></trkpt><trkpt lat="41.261079289607586" lon="14.691097377353449"><ele>360.0</ele><time>2026-05-02T12:32:55.999Z</time></trkpt><trkpt lat="41.261084682351616" lon="14.690891846266664"><ele>360.0</ele><time>2026-05-02T12:32:56.999Z</time></trkpt><trkpt lat="41.26107094198533" lon="14.690735365345368"><ele>360.0</ele><time>2026-05-02T12:32:57.999Z</time></trkpt><trkpt lat="41.261039099197546" lon="14.690589643132446"><ele>360.0</ele><time>2026-05-02T12:32:58.999Z</time></trkpt><trkpt lat="41.260982505338596" lon="14.690471029346517"><ele>360.0</ele><time>2026-05-02T12:32:59.999Z</time></trkpt><trkpt lat="41.26093924003325" lon="14.690374897587185"><ele>360.0</ele><time>2026-05-02T12:33:00.999Z</time></trkpt><trkpt lat="41.26083195721976" lon="14.69033774944298"><ele>360.0</ele><time>2026-05-02T12:33:02.999Z</time></trkpt><trkpt lat="41.26078953175043" lon="14.690454868334863"><ele>360.0</ele><time>2026-05-02T12:33:03.999Z</time></trkpt><trkpt lat="41.26077508982039" lon="14.690574556555207"><ele>360.0</ele><time>2026-05-02T12:33:04.999Z</time></trkpt><trkpt lat="41.26079374800749" lon="14.690717658304134"><ele>360.0</ele><time>2026-05-02T12:33:05.999Z</time></trkpt><trkpt lat="41.260810827307935" lon="14.690873892012904"><ele>360.0</ele><time>2026-05-02T12:33:06.999Z</time></trkpt><trkpt lat="41.260798943121806" lon="14.691058783565888"><ele>359.25</ele><time>2026-05-02T12:33:07.999Z</time></trkpt><trkpt lat="41.26080206332375" lon="14.691246584891676"><ele>358.5</ele><time>2026-05-02T12:33:08.999Z</time></trkpt><trkpt lat="41.260819413099824" lon="14.69141325637988"><ele>357.75</ele><time>2026-05-02T12:33:09.999Z</time></trkpt><trkpt lat="41.26080962925899" lon="14.691564848128362"><ele>357.0</ele><time>2026-05-02T12:33:10.999Z</time></trkpt><trkpt lat="41.260765701687056" lon="14.69168130980775"><ele>357.0</ele><time>2026-05-02T12:33:11.999Z</time></trkpt><trkpt lat="41.26069192287197" lon="14.691783155888107"><ele>357.0</ele><time>2026-05-02T12:33:12.999Z</time></trkpt><trkpt lat="41.26059447206314" lon="14.691889641913141"><ele>357.0</ele><time>2026-05-02T12:33:13.999Z</time></trkpt><trkpt lat="41.26052441508323" lon="14.692027643329109"><ele>357.0</ele><time>2026-05-02T12:33:14.999Z</time></trkpt><trkpt lat="41.26047702245394" lon="14.692140762325874"><ele>354.20000000000005</ele><time>2026-05-02T12:33:15.999Z</time></trkpt><trkpt lat="41.26046482165823" lon="14.692235110006825"><ele>351.4</ele><time>2026-05-02T12:33:17Z</time></trkpt><trkpt lat="41.26049060273248" lon="14.692316003856495"><ele>348.6</ele><time>2026-05-02T12:33:18Z</time></trkpt><trkpt lat="41.260548659182206" lon="14.69239050472324"><ele>345.79999999999995</ele><time>2026-05-02T12:33:19Z</time></trkpt><trkpt lat="41.26067639398104" lon="14.692424284985274"><ele>343.0</ele><time>2026-05-02T12:33:20Z</time></trkpt><trkpt lat="41.26083500455463" lon="14.692476353217762"><ele>343.0</ele><time>2026-05-02T12:33:21Z</time></trkpt><trkpt lat="41.260966395285074" lon="14.692503127452365"><ele>343.0</ele><time>2026-05-02T12:33:22Z</time></trkpt><trkpt lat="41.26108110170396" lon="14.69254507857231"><ele>343.0</ele><time>2026-05-02T12:33:23Z</time></trkpt><trkpt lat="41.26118342122612" lon="14.692548607041081"><ele>343.0</ele><time>2026-05-02T12:33:24Z</time></trkpt><trkpt lat="41.26127907950489" lon="14.692537759747092"><ele>343.0</ele><time>2026-05-02T12:33:25Z</time></trkpt><trkpt lat="41.261349824219074" lon="14.692539015726066"><ele>343.0</ele><time>2026-05-02T12:33:26Z</time></trkpt><trkpt lat="41.26138491057961" lon="14.692644656942624"><ele>343.0</ele><time>2026-05-02T12:33:28Z</time></trkpt><trkpt lat="41.26124920487916" lon="14.692666080121137"><ele>343.0</ele><time>2026-05-02T12:33:30Z</time></trkpt><trkpt lat="41.261155273956646" lon="14.692680981377796"><ele>343.0</ele><time>2026-05-02T12:33:31Z</time></trkpt><trkpt lat="41.26105871602399" lon="14.692700119367153"><ele>343.0</ele><time>2026-05-02T12:33:32Z</time></trkpt><trkpt lat="41.26098977012788" lon="14.692706081297967"><ele>343.0</ele><time>2026-05-02T12:33:33Z</time></trkpt><trkpt lat="41.26092590919171" lon="14.692708405139328"><ele>343.0</ele><time>2026-05-02T12:33:36Z</time></trkpt><trkpt lat="41.26094958211924" lon="14.692909569889814"><ele>343.0</ele><time>2026-05-02T12:33:37Z</time></trkpt><trkpt lat="41.260965573429885" lon="14.69301713445065"><ele>343.0</ele><time>2026-05-02T12:33:38Z</time></trkpt><trkpt lat="41.26097225260163" lon="14.693143778791958"><ele>340.0</ele><time>2026-05-02T12:33:39Z</time></trkpt><trkpt lat="41.26099253570805" lon="14.693250462969813"><ele>337.0</ele><time>2026-05-02T12:33:40Z</time></trkpt><trkpt lat="41.2610203737233" lon="14.69333261626022"><ele>334.0</ele><time>2026-05-02T12:33:41Z</time></trkpt><trkpt lat="41.26107499972542" lon="14.693396543859837"><ele>331.0</ele><time>2026-05-02T12:33:42Z</time></trkpt><trkpt lat="41.2611383034648" lon="14.693454763305617"><ele>328.0</ele><time>2026-05-02T12:33:43Z</time></trkpt><trkpt lat="41.26121208694275" lon="14.693516020690483"><ele>325.0</ele><time>2026-05-02T12:33:44Z</time></trkpt><trkpt lat="41.261302351137296" lon="14.693587631983496"><ele>322.75</ele><time>2026-05-02T12:33:45Z</time></trkpt><trkpt lat="41.26138774484088" lon="14.693680751171733"><ele>320.5</ele><time>2026-05-02T12:33:46Z</time></trkpt><trkpt lat="41.2614724777382" lon="14.693791683118102"><ele>318.25</ele><time>2026-05-02T12:33:47Z</time></trkpt><trkpt lat="41.26155149589129" lon="14.693903809210758"><ele>316.0</ele><time>2026-05-02T12:33:48Z</time></trkpt><trkpt lat="41.2616252094515" lon="14.694011662055258"><ele>316.0</ele><time>2026-05-02T12:33:49Z</time></trkpt><trkpt lat="41.261688220954824" lon="14.694119067954633"><ele>316.0</ele><time>2026-05-02T12:33:50Z</time></trkpt><trkpt lat="41.261727102536945" lon="14.694241447903197"><ele>316.0</ele><time>2026-05-02T12:33:51Z</time></trkpt><trkpt lat="41.261745209873744" lon="14.694361771073055"><ele>316.0</ele><time>2026-05-02T12:33:52Z</time></trkpt><trkpt lat="41.261732707697554" lon="14.694505041762545"><ele>316.0</ele><time>2026-05-02T12:33:53Z</time></trkpt><trkpt lat="41.26169566639857" lon="14.694635951973835"><ele>313.2</ele><time>2026-05-02T12:33:54Z</time></trkpt><trkpt lat="41.26166163639892" lon="14.694775875622367"><ele>310.40000000000003</ele><time>2026-05-02T12:33:55Z</time></trkpt><trkpt lat="41.26161708640691" lon="14.694917962345587"><ele>307.6</ele><time>2026-05-02T12:33:56Z</time></trkpt><trkpt lat="41.261559957410604" lon="14.695043044934476"><ele>304.8</ele><time>2026-05-02T12:33:57Z</time></trkpt><trkpt lat="41.26150785220202" lon="14.695143838661386"><ele>302.0</ele><time>2026-05-02T12:33:58Z</time></trkpt><trkpt lat="41.2614633179461" lon="14.695235170955554"><ele>300.6666666666667</ele><time>2026-05-02T12:33:59Z</time></trkpt><trkpt lat="41.26143698796756" lon="14.69532856658321"><ele>299.33333333333337</ele><time>2026-05-02T12:34:00Z</time></trkpt><trkpt lat="41.26139534267532" lon="14.695435961684023"><ele>298.0</ele><time>2026-05-02T12:34:01Z</time></trkpt><trkpt lat="41.26137175547378" lon="14.69555248125015"><ele>296.6666666666667</ele><time>2026-05-02T12:34:02Z</time></trkpt><trkpt lat="41.26135238536478" lon="14.695647022100953"><ele>295.3333333333333</ele><time>2026-05-02T12:34:03Z</time></trkpt><trkpt lat="41.26134543306153" lon="14.69575010502044"><ele>294.0</ele><time>2026-05-02T12:34:04Z</time></trkpt><trkpt lat="41.26124224994479" lon="14.695853773830901"><ele>294.0</ele><time>2026-05-02T12:34:06Z</time></trkpt><trkpt lat="41.26109164952274" lon="14.695905281535893"><ele>294.0</ele><time>2026-05-02T12:34:08Z</time></trkpt><trkpt lat="41.26102617868694" lon="14.69592138228863"><ele>294.0</ele><time>2026-05-02T12:34:09Z</time></trkpt><trkpt lat="41.26096467458625" lon="14.696057852876915"><ele>294.0</ele><time>2026-05-02T12:34:11Z</time></trkpt><trkpt lat="41.26101369511839" lon="14.6961797737373"><ele>294.0</ele><time>2026-05-02T12:34:12Z</time></trkpt><trkpt lat="41.261067570242915" lon="14.696236171148866"><ele>292.2</ele><time>2026-05-02T12:34:13Z</time></trkpt><trkpt lat="41.261102924022474" lon="14.696348701790427"><ele>290.4</ele><time>2026-05-02T12:34:15Z</time></trkpt><trkpt lat="41.26112840167271" lon="14.696430519972827"><ele>288.6</ele><time>2026-05-02T12:34:16Z</time></trkpt><trkpt lat="41.2612995106024" lon="14.696490682170667"><ele>286.8</ele><time>2026-05-02T12:34:18Z</time></trkpt><trkpt lat="41.261369994609495" lon="14.696495738138005"><ele>285.0</ele><time>2026-05-02T12:34:19Z</time></trkpt><trkpt lat="41.26142818592555" lon="14.696357600604696"><ele>284.8</ele><time>2026-05-02T12:34:20Z</time></trkpt><trkpt lat="41.26147444450153" lon="14.69626147272786"><ele>284.6</ele><time>2026-05-02T12:34:21Z</time></trkpt><trkpt lat="41.26152652995636" lon="14.696161991599176"><ele>284.4</ele><time>2026-05-02T12:34:22Z</time></trkpt><trkpt lat="41.26160160926982" lon="14.696076072182915"><ele>284.2</ele><time>2026-05-02T12:34:23Z</time></trkpt><trkpt lat="41.26168700655597" lon="14.696021660833658"><ele>284.0</ele><time>2026-05-02T12:34:24Z</time></trkpt><trkpt lat="41.26177785008422" lon="14.696054987331085"><ele>284.0</ele><time>2026-05-02T12:34:25Z</time></trkpt><trkpt lat="41.261863111576346" lon="14.696075915311956"><ele>284.0</ele><time>2026-05-02T12:34:26Z</time></trkpt><trkpt lat="41.26193337364354" lon="14.696149274214937"><ele>284.0</ele><time>2026-05-02T12:34:27Z</time></trkpt><trkpt lat="41.26197273076619" lon="14.69627714738159"><ele>284.0</ele><time>2026-05-02T12:34:28Z</time></trkpt><trkpt lat="41.261982467733766" lon="14.696378903371567"><ele>284.0</ele><time>2026-05-02T12:34:29Z</time></trkpt><trkpt lat="41.26200242216253" lon="14.696504763744414"><ele>284.0</ele><time>2026-05-02T12:34:30Z</time></trkpt><trkpt lat="41.26203121528168" lon="14.696653706168005"><ele>284.0</ele><time>2026-05-02T12:34:31Z</time></trkpt><trkpt lat="41.26205643815233" lon="14.696782523800639"><ele>284.0</ele><time>2026-05-02T12:34:32Z</time></trkpt><trkpt lat="41.26208209204181" lon="14.696913542888215"><ele>284.0</ele><time>2026-05-02T12:34:33Z</time></trkpt><trkpt lat="41.26211481469643" lon="14.697037153695439"><ele>284.0</ele><time>2026-05-02T12:34:34Z</time></trkpt><trkpt lat="41.262116709550305" lon="14.69715726425182"><ele>283.0</ele><time>2026-05-02T12:34:35Z</time></trkpt><trkpt lat="41.26210149081794" lon="14.697272386767965"><ele>282.0</ele><time>2026-05-02T12:34:36Z</time></trkpt><trkpt lat="41.26207199867461" lon="14.697378494436746"><ele>281.0</ele><time>2026-05-02T12:34:37Z</time></trkpt><trkpt lat="41.262026594428555" lon="14.697468872167576"><ele>280.0</ele><time>2026-05-02T12:34:38Z</time></trkpt><trkpt lat="41.26196436765932" lon="14.697557475049065"><ele>279.0</ele><time>2026-05-02T12:34:39Z</time></trkpt><trkpt lat="41.26188887546025" lon="14.697645480752856"><ele>278.0</ele><time>2026-05-02T12:34:40Z</time></trkpt><trkpt lat="41.26183064553373" lon="14.697735695965033"><ele>276.6</ele><time>2026-05-02T12:34:41Z</time></trkpt><trkpt lat="41.261773734314524" lon="14.697828932400334"><ele>275.20000000000005</ele><time>2026-05-02T12:34:42Z</time></trkpt><trkpt lat="41.26172173827617" lon="14.697925441207586"><ele>273.8</ele><time>2026-05-02T12:34:43Z</time></trkpt><trkpt lat="41.26168540136224" lon="14.69803558150472"><ele>272.40000000000003</ele><time>2026-05-02T12:34:44Z</time></trkpt><trkpt lat="41.26168113286233" lon="14.698157031089671"><ele>271.0</ele><time>2026-05-02T12:34:45Z</time></trkpt><trkpt lat="41.26169689007699" lon="14.698273180957502"><ele>271.0</ele><time>2026-05-02T12:34:46Z</time></trkpt><trkpt lat="41.261717831138334" lon="14.6983875041547"><ele>271.0</ele><time>2026-05-02T12:34:47Z</time></trkpt><trkpt lat="41.26175900689407" lon="14.698481892130754"><ele>271.0</ele><time>2026-05-02T12:34:48Z</time></trkpt><trkpt lat="41.26179824369261" lon="14.698570863294671"><ele>271.0</ele><time>2026-05-02T12:34:49Z</time></trkpt><trkpt lat="41.26183994564989" lon="14.698641287023976"><ele>271.0</ele><time>2026-05-02T12:34:50Z</time></trkpt><trkpt lat="41.26188770361309" lon="14.69873764870146"><ele>271.0</ele><time>2026-05-02T12:34:52Z</time></trkpt><trkpt lat="41.26198516994666" lon="14.698582860946534"><ele>271.0</ele><time>2026-05-02T12:34:57Z</time></trkpt></trkseg><trkseg><trkpt lat="41.26196170549761" lon="14.698643243197951"><ele>265.0</ele><time>2026-05-02T12:53:06.999Z</time></trkpt><trkpt lat="41.261935110169674" lon="14.698725551040852"><ele>265.0</ele><time>2026-05-02T12:53:10.998Z</time></trkpt><trkpt lat="41.2619737854647" lon="14.698815709039708"><ele>265.0</ele><time>2026-05-02T12:53:12.998Z</time></trkpt><trkpt lat="41.26202529647799" lon="14.698906724471838"><ele>265.0</ele><time>2026-05-02T12:53:13.998Z</time></trkpt><trkpt lat="41.26206367322915" lon="14.698999261157578"><ele>265.0</ele><time>2026-05-02T12:53:14.998Z</time></trkpt><trkpt lat="41.26209281249037" lon="14.699094357274548"><ele>265.0</ele><time>2026-05-02T12:53:15.998Z</time></trkpt><trkpt lat="41.26208988102635" lon="14.699186648394894"><ele>265.0</ele><time>2026-05-02T12:53:16.998Z</time></trkpt><trkpt lat="41.26213636931632" lon="14.699333486023294"><ele>265.0</ele><time>2026-05-02T12:53:18.998Z</time></trkpt><trkpt lat="41.26214903257377" lon="14.699425450954207"><ele>265.0</ele><time>2026-05-02T12:53:19.998Z</time></trkpt><trkpt lat="41.262128900627104" lon="14.699507147590667"><ele>265.0</ele><time>2026-05-02T12:53:20.998Z</time></trkpt><trkpt lat="41.26210149495785" lon="14.69960024140291"><ele>265.0</ele><time>2026-05-02T12:53:21.998Z</time></trkpt><trkpt lat="41.262063527261056" lon="14.699716289592269"><ele>265.0</ele><time>2026-05-02T12:53:22.998Z</time></trkpt><trkpt lat="41.262025996539634" lon="14.699847818065122"><ele>266.75</ele><time>2026-05-02T12:53:23.998Z</time></trkpt><trkpt lat="41.26198751771089" lon="14.699982900871506"><ele>268.5</ele><time>2026-05-02T12:53:24.998Z</time></trkpt><trkpt lat="41.26194826383666" lon="14.70012921944347"><ele>270.25</ele><time>2026-05-02T12:53:25.998Z</time></trkpt><trkpt lat="41.26190754930851" lon="14.70027541277119"><ele>272.0</ele><time>2026-05-02T12:53:26.998Z</time></trkpt><trkpt lat="41.26186451993064" lon="14.700419509700222"><ele>273.25</ele><time>2026-05-02T12:53:28Z</time></trkpt><trkpt lat="41.26181875647813" lon="14.700568363140114"><ele>274.5</ele><time>2026-05-02T12:53:29Z</time></trkpt><trkpt lat="41.261771732453525" lon="14.700711430518417"><ele>275.75</ele><time>2026-05-02T12:53:30Z</time></trkpt><trkpt lat="41.26171653858067" lon="14.70085370471364"><ele>277.0</ele><time>2026-05-02T12:53:31Z</time></trkpt><trkpt lat="41.261655229730415" lon="14.701008566764106"><ele>277.75</ele><time>2026-05-02T12:53:32Z</time></trkpt><trkpt lat="41.261597915565076" lon="14.701153340180582"><ele>278.5</ele><time>2026-05-02T12:53:33Z</time></trkpt><trkpt lat="41.26153925904183" lon="14.701304630372146"><ele>279.25</ele><time>2026-05-02T12:53:34Z</time></trkpt><trkpt lat="41.26149533310779" lon="14.701458727727486"><ele>280.0</ele><time>2026-05-02T12:53:35Z</time></trkpt><trkpt lat="41.261433380282966" lon="14.701610229779098"><ele>280.5</ele><time>2026-05-02T12:53:36Z</time></trkpt><trkpt lat="41.261372013443705" lon="14.701761816710473"><ele>281.0</ele><time>2026-05-02T12:53:37Z</time></trkpt><trkpt lat="41.261295051316836" lon="14.70189931268201"><ele>281.5</ele><time>2026-05-02T12:53:38Z</time></trkpt><trkpt lat="41.261220477041405" lon="14.702030989708245"><ele>282.0</ele><time>2026-05-02T12:53:39Z</time></trkpt><trkpt lat="41.26114603946147" lon="14.702143040548075"><ele>282.0</ele><time>2026-05-02T12:53:40Z</time></trkpt><trkpt lat="41.26104590804569" lon="14.70222422714018"><ele>282.0</ele><time>2026-05-02T12:53:41Z</time></trkpt><trkpt lat="41.260926394642915" lon="14.702277112425174"><ele>282.0</ele><time>2026-05-02T12:53:42Z</time></trkpt><trkpt lat="41.26079535741182" lon="14.702310811417991"><ele>282.0</ele><time>2026-05-02T12:53:43Z</time></trkpt><trkpt lat="41.26065677088579" lon="14.70234047260782"><ele>279.25</ele><time>2026-05-02T12:53:44Z</time></trkpt><trkpt lat="41.26052374714337" lon="14.702394251470434"><ele>276.5</ele><time>2026-05-02T12:53:45Z</time></trkpt><trkpt lat="41.26039702860553" lon="14.702451314941202"><ele>273.75</ele><time>2026-05-02T12:53:46Z</time></trkpt><trkpt lat="41.26025711605921" lon="14.70246744161695"><ele>271.0</ele><time>2026-05-02T12:53:47Z</time></trkpt><trkpt lat="41.260120599654904" lon="14.702534081192594"><ele>271.0</ele><time>2026-05-02T12:53:48Z</time></trkpt><trkpt lat="41.26003756735459" lon="14.702728598681523"><ele>271.0</ele><time>2026-05-02T12:53:49Z</time></trkpt><trkpt lat="41.25991464452965" lon="14.702809204546073"><ele>271.0</ele><time>2026-05-02T12:53:50Z</time></trkpt><trkpt lat="41.259772300256245" lon="14.702944153771691"><ele>271.75</ele><time>2026-05-02T12:53:51Z</time></trkpt><trkpt lat="41.25964627244267" lon="14.703053602856498"><ele>272.5</ele><time>2026-05-02T12:53:52Z</time></trkpt><trkpt lat="41.259567373574285" lon="14.703153075955171"><ele>273.25</ele><time>2026-05-02T12:53:53Z</time></trkpt><trkpt lat="41.25948487756298" lon="14.70327952860641"><ele>274.0</ele><time>2026-05-02T12:53:54Z</time></trkpt><trkpt lat="41.259398620030254" lon="14.703403250881353"><ele>276.66666666666663</ele><time>2026-05-02T12:53:55Z</time></trkpt><trkpt lat="41.25932325029829" lon="14.703584793444245"><ele>279.3333333333333</ele><time>2026-05-02T12:53:56Z</time></trkpt><trkpt lat="41.259236169772514" lon="14.703808494767047"><ele>282.0</ele><time>2026-05-02T12:53:57Z</time></trkpt><trkpt lat="41.259184559965064" lon="14.703962107134297"><ele>282.0</ele><time>2026-05-02T12:53:58Z</time></trkpt><trkpt lat="41.25915459778279" lon="14.704120359836937"><ele>282.0</ele><time>2026-05-02T12:53:58.999Z</time></trkpt><trkpt lat="41.25914678875779" lon="14.70432014398872"><ele>282.0</ele><time>2026-05-02T12:53:59.999Z</time></trkpt><trkpt lat="41.25914103809704" lon="14.704560690546643"><ele>283.0</ele><time>2026-05-02T12:54:00.999Z</time></trkpt><trkpt lat="41.25914006821615" lon="14.704794141548234"><ele>284.0</ele><time>2026-05-02T12:54:01.999Z</time></trkpt><trkpt lat="41.25911921442199" lon="14.704992503852589"><ele>285.0</ele><time>2026-05-02T12:54:02.999Z</time></trkpt><trkpt lat="41.25911273468775" lon="14.705161639129207"><ele>284.75</ele><time>2026-05-02T12:54:03.999Z</time></trkpt><trkpt lat="41.259085220902456" lon="14.70531516922556"><ele>284.5</ele><time>2026-05-02T12:54:04.999Z</time></trkpt><trkpt lat="41.25903969279118" lon="14.70546126397862"><ele>284.25</ele><time>2026-05-02T12:54:05.999Z</time></trkpt><trkpt lat="41.25900188051888" lon="14.705630963991808"><ele>284.0</ele><time>2026-05-02T12:54:06.999Z</time></trkpt><trkpt lat="41.258940326294784" lon="14.705799026338733"><ele>284.0</ele><time>2026-05-02T12:54:07.999Z</time></trkpt><trkpt lat="41.258879962684844" lon="14.705958171574066"><ele>284.0</ele><time>2026-05-02T12:54:08.999Z</time></trkpt><trkpt lat="41.2588106423442" lon="14.706086761594689"><ele>284.0</ele><time>2026-05-02T12:54:09.999Z</time></trkpt><trkpt lat="41.25874391402903" lon="14.70620568063518"><ele>284.0</ele><time>2026-05-02T12:54:10.999Z</time></trkpt><trkpt lat="41.258656705033104" lon="14.706316883320737"><ele>288.33333333333337</ele><time>2026-05-02T12:54:11.999Z</time></trkpt><trkpt lat="41.25854413545073" lon="14.706390558718999"><ele>292.6666666666667</ele><time>2026-05-02T12:54:12.999Z</time></trkpt><trkpt lat="41.25839386513637" lon="14.706445632155061"><ele>297.0</ele><time>2026-05-02T12:54:13.999Z</time></trkpt><trkpt lat="41.25819763877801" lon="14.70647972519095"><ele>297.3333333333333</ele><time>2026-05-02T12:54:14.999Z</time></trkpt><trkpt lat="41.2580003249103" lon="14.706486622033466"><ele>297.66666666666663</ele><time>2026-05-02T12:54:15.999Z</time></trkpt><trkpt lat="41.25780287431039" lon="14.706506951428786"><ele>298.0</ele><time>2026-05-02T12:54:16.999Z</time></trkpt><trkpt lat="41.25765120227769" lon="14.706541995335737"><ele>298.0</ele><time>2026-05-02T12:54:17.999Z</time></trkpt><trkpt lat="41.257524974411034" lon="14.706599813350524"><ele>298.0</ele><time>2026-05-02T12:54:18.999Z</time></trkpt><trkpt lat="41.25741553951002" lon="14.70667312579718"><ele>298.0</ele><time>2026-05-02T12:54:19.999Z</time></trkpt><trkpt lat="41.25732466330482" lon="14.70677408847991"><ele>298.0</ele><time>2026-05-02T12:54:20.999Z</time></trkpt><trkpt lat="41.257258089598466" lon="14.706919540337289"><ele>299.0</ele><time>2026-05-02T12:54:21.999Z</time></trkpt><trkpt lat="41.25719542560647" lon="14.707087570807893"><ele>300.0</ele><time>2026-05-02T12:54:22.999Z</time></trkpt><trkpt lat="41.2571840965086" lon="14.707264100456722"><ele>301.0</ele><time>2026-05-02T12:54:23.999Z</time></trkpt><trkpt lat="41.25720123611609" lon="14.70744528519579"><ele>302.0</ele><time>2026-05-02T12:54:24.999Z</time></trkpt><trkpt lat="41.257212320635986" lon="14.707619402344351"><ele>304.25</ele><time>2026-05-02T12:54:25.999Z</time></trkpt><trkpt lat="41.257263675805795" lon="14.707772734546921"><ele>306.5</ele><time>2026-05-02T12:54:26.999Z</time></trkpt><trkpt lat="41.25735580984407" lon="14.707879851918653"><ele>308.75</ele><time>2026-05-02T12:54:27.999Z</time></trkpt><trkpt lat="41.25743087095364" lon="14.707971137609949"><ele>311.0</ele><time>2026-05-02T12:54:28.999Z</time></trkpt><trkpt lat="41.25754410218575" lon="14.708007309479441"><ele>312.0</ele><time>2026-05-02T12:54:29.999Z</time></trkpt><trkpt lat="41.257664999482415" lon="14.708023512861388"><ele>313.0</ele><time>2026-05-02T12:54:30.999Z</time></trkpt><trkpt lat="41.25778709775582" lon="14.70801573413141"><ele>314.0</ele><time>2026-05-02T12:54:31.999Z</time></trkpt><trkpt lat="41.257912006792424" lon="14.707972280575786"><ele>315.0</ele><time>2026-05-02T12:54:32.999Z</time></trkpt><trkpt lat="41.25804825765426" lon="14.707913866666413"><ele>317.3333333333333</ele><time>2026-05-02T12:54:33.999Z</time></trkpt><trkpt lat="41.25819068991137" lon="14.70786466545368"><ele>319.66666666666663</ele><time>2026-05-02T12:54:34.999Z</time></trkpt><trkpt lat="41.25834970440994" lon="14.707808565526774"><ele>322.0</ele><time>2026-05-02T12:54:35.999Z</time></trkpt><trkpt lat="41.25853221621393" lon="14.707748019332657"><ele>319.66666666666663</ele><time>2026-05-02T12:54:36.999Z</time></trkpt><trkpt lat="41.25871737990811" lon="14.707696710269792"><ele>317.3333333333333</ele><time>2026-05-02T12:54:37.999Z</time></trkpt><trkpt lat="41.258895272396565" lon="14.707647812122785"><ele>315.0</ele><time>2026-05-02T12:54:38.999Z</time></trkpt><trkpt lat="41.259044857652064" lon="14.70760158616145"><ele>315.0</ele><time>2026-05-02T12:54:39.999Z</time></trkpt><trkpt lat="41.25919975925051" lon="14.707574771602962"><ele>315.0</ele><time>2026-05-02T12:54:40.999Z</time></trkpt><trkpt lat="41.259385603932365" lon="14.707565249177131"><ele>315.0</ele><time>2026-05-02T12:54:41.999Z</time></trkpt><trkpt lat="41.25958747952366" lon="14.707572809893492"><ele>315.0</ele><time>2026-05-02T12:54:42.999Z</time></trkpt><trkpt lat="41.259780091654605" lon="14.707578697915935"><ele>315.0</ele><time>2026-05-02T12:54:43.999Z</time></trkpt><trkpt lat="41.25997958427377" lon="14.707560187927402"><ele>315.0</ele><time>2026-05-02T12:54:44.999Z</time></trkpt><trkpt lat="41.26017608256787" lon="14.707532271488631"><ele>317.6666666666667</ele><time>2026-05-02T12:54:45.999Z</time></trkpt><trkpt lat="41.260380113745484" lon="14.707483572587527"><ele>320.33333333333337</ele><time>2026-05-02T12:54:46.999Z</time></trkpt><trkpt lat="41.26059223541662" lon="14.707428044821926"><ele>323.0</ele><time>2026-05-02T12:54:47.999Z</time></trkpt><trkpt lat="41.26080076246205" lon="14.707374902457238"><ele>325.33333333333337</ele><time>2026-05-02T12:54:48.999Z</time></trkpt><trkpt lat="41.261007761290685" lon="14.707296247835785"><ele>327.6666666666667</ele><time>2026-05-02T12:54:49.999Z</time></trkpt><trkpt lat="41.2612096994174" lon="14.707173233614428"><ele>330.0</ele><time>2026-05-02T12:54:50.999Z</time></trkpt><trkpt lat="41.26137445419039" lon="14.707036229589026"><ele>329.75</ele><time>2026-05-02T12:54:51.999Z</time></trkpt><trkpt lat="41.26150273510993" lon="14.706906798981509"><ele>329.5</ele><time>2026-05-02T12:54:52.999Z</time></trkpt><trkpt lat="41.26164178946444" lon="14.706854339656953"><ele>329.25</ele><time>2026-05-02T12:54:53.999Z</time></trkpt><trkpt lat="41.26177864046785" lon="14.706824686065183"><ele>329.0</ele><time>2026-05-02T12:54:54.999Z</time></trkpt><trkpt lat="41.2619248549393" lon="14.706798794916047"><ele>329.0</ele><time>2026-05-02T12:54:55.999Z</time></trkpt><trkpt lat="41.26207575750833" lon="14.706838839071409"><ele>329.0</ele><time>2026-05-02T12:54:56.999Z</time></trkpt><trkpt lat="41.26222202467421" lon="14.706910913616754"><ele>329.0</ele><time>2026-05-02T12:54:57.999Z</time></trkpt><trkpt lat="41.26234830499383" lon="14.7069973440872"><ele>333.5</ele><time>2026-05-02T12:54:58.999Z</time></trkpt><trkpt lat="41.26247483036162" lon="14.707102592415769"><ele>338.0</ele><time>2026-05-02T12:54:59.999Z</time></trkpt><trkpt lat="41.26260020578137" lon="14.707186361176932"><ele>342.5</ele><time>2026-05-02T12:55:00.999Z</time></trkpt><trkpt lat="41.26272056961675" lon="14.707294346396797"><ele>347.0</ele><time>2026-05-02T12:55:01.999Z</time></trkpt><trkpt lat="41.262828254877135" lon="14.707411852464725"><ele>347.0</ele><time>2026-05-02T12:55:02.999Z</time></trkpt><trkpt lat="41.26294448277021" lon="14.707524241195774"><ele>347.0</ele><time>2026-05-02T12:55:03.999Z</time></trkpt><trkpt lat="41.26304770708162" lon="14.707630882546177"><ele>347.0</ele><time>2026-05-02T12:55:04.999Z</time></trkpt><trkpt lat="41.263145177665244" lon="14.707755165601796"><ele>347.0</ele><time>2026-05-02T12:55:05.999Z</time></trkpt><trkpt lat="41.263231981564395" lon="14.707891335286245"><ele>348.75</ele><time>2026-05-02T12:55:06.999Z</time></trkpt><trkpt lat="41.26329202402096" lon="14.708039676173273"><ele>350.5</ele><time>2026-05-02T12:55:07.999Z</time></trkpt><trkpt lat="41.26331709126264" lon="14.708185482464554"><ele>352.25</ele><time>2026-05-02T12:55:08.998Z</time></trkpt><trkpt lat="41.263350673619414" lon="14.708347460580555"><ele>354.0</ele><time>2026-05-02T12:55:09.998Z</time></trkpt><trkpt lat="41.26330750227961" lon="14.708515096621204"><ele>356.5</ele><time>2026-05-02T12:55:10.998Z</time></trkpt><trkpt lat="41.26329095236719" lon="14.708685064299571"><ele>359.0</ele><time>2026-05-02T12:55:11.998Z</time></trkpt><trkpt lat="41.263277341513316" lon="14.708862747926629"><ele>361.5</ele><time>2026-05-02T12:55:12.998Z</time></trkpt><trkpt lat="41.263220590929514" lon="14.70904924306517"><ele>364.0</ele><time>2026-05-02T12:55:13.998Z</time></trkpt><trkpt lat="41.263125779002" lon="14.709206945343537"><ele>362.66666666666663</ele><time>2026-05-02T12:55:14.998Z</time></trkpt><trkpt lat="41.26303174643917" lon="14.709399517181474"><ele>361.3333333333333</ele><time>2026-05-02T12:55:15.998Z</time></trkpt><trkpt lat="41.26291719765582" lon="14.709581702957578"><ele>360.0</ele><time>2026-05-02T12:55:16.998Z</time></trkpt><trkpt lat="41.26279206867777" lon="14.709757144747643"><ele>362.0</ele><time>2026-05-02T12:55:17.998Z</time></trkpt><trkpt lat="41.26267920405014" lon="14.709920811532735"><ele>364.0</ele><time>2026-05-02T12:55:18.998Z</time></trkpt><trkpt lat="41.26258144455933" lon="14.710048786499295"><ele>366.0</ele><time>2026-05-02T12:55:19.998Z</time></trkpt><trkpt lat="41.26246479723238" lon="14.71011045632666"><ele>368.0</ele><time>2026-05-02T12:55:20.998Z</time></trkpt><trkpt lat="41.26233921020197" lon="14.710165907372566"><ele>369.0</ele><time>2026-05-02T12:55:21.998Z</time></trkpt><trkpt lat="41.262197490386654" lon="14.71015878668286"><ele>370.0</ele><time>2026-05-02T12:55:22.998Z</time></trkpt><trkpt lat="41.262066908221385" lon="14.710104791144408"><ele>371.0</ele><time>2026-05-02T12:55:23.998Z</time></trkpt><trkpt lat="41.26193386714754" lon="14.710020079236914"><ele>372.0</ele><time>2026-05-02T12:55:24.998Z</time></trkpt><trkpt lat="41.2617857614859" lon="14.70993695175388"><ele>372.0</ele><time>2026-05-02T12:55:25.998Z</time></trkpt><trkpt lat="41.26165276853259" lon="14.70986545646106"><ele>372.0</ele><time>2026-05-02T12:55:26.998Z</time></trkpt><trkpt lat="41.261509028762276" lon="14.709838958973537"><ele>372.0</ele><time>2026-05-02T12:55:27.998Z</time></trkpt><trkpt lat="41.26133494321974" lon="14.709859043986818"><ele>372.6666666666667</ele><time>2026-05-02T12:55:28.998Z</time></trkpt><trkpt lat="41.26114310205826" lon="14.70990928040257"><ele>373.33333333333337</ele><time>2026-05-02T12:55:29.998Z</time></trkpt><trkpt lat="41.260956956457214" lon="14.709960738312617"><ele>374.0</ele><time>2026-05-02T12:55:30.998Z</time></trkpt><trkpt lat="41.260772308673616" lon="14.709993303410815"><ele>371.6666666666667</ele><time>2026-05-02T12:55:31.998Z</time></trkpt><trkpt lat="41.26061491598768" lon="14.710039627358622"><ele>369.3333333333333</ele><time>2026-05-02T12:55:32.998Z</time></trkpt><trkpt lat="41.26046881388466" lon="14.710106689653237"><ele>367.0</ele><time>2026-05-02T12:55:33.999Z</time></trkpt><trkpt lat="41.26033076126617" lon="14.710225337642841"><ele>372.66666666666663</ele><time>2026-05-02T12:55:34.999Z</time></trkpt><trkpt lat="41.26019212902443" lon="14.71035018292554"><ele>378.3333333333333</ele><time>2026-05-02T12:55:35.999Z</time></trkpt><trkpt lat="41.26004099397641" lon="14.710389520159492"><ele>384.0</ele><time>2026-05-02T12:55:36.999Z</time></trkpt><trkpt lat="41.259889207434654" lon="14.710361186868974"><ele>381.75</ele><time>2026-05-02T12:55:37.999Z</time></trkpt><trkpt lat="41.25970891994818" lon="14.71035912709342"><ele>379.5</ele><time>2026-05-02T12:55:38.999Z</time></trkpt><trkpt lat="41.25956232419176" lon="14.710343833126078"><ele>377.25</ele><time>2026-05-02T12:55:39.999Z</time></trkpt><trkpt lat="41.2594502063004" lon="14.71039351951839"><ele>375.0</ele><time>2026-05-02T12:55:40.999Z</time></trkpt><trkpt lat="41.25937226195862" lon="14.710508188415414"><ele>375.0</ele><time>2026-05-02T12:55:41.999Z</time></trkpt><trkpt lat="41.259313134261234" lon="14.710677898419142"><ele>375.0</ele><time>2026-05-02T12:55:42.999Z</time></trkpt><trkpt lat="41.25929263964877" lon="14.710885117135824"><ele>375.0</ele><time>2026-05-02T12:55:43.999Z</time></trkpt><trkpt lat="41.25929868895747" lon="14.711118088066824"><ele>377.0</ele><time>2026-05-02T12:55:44.999Z</time></trkpt><trkpt lat="41.25928304788249" lon="14.711349254601062"><ele>379.0</ele><time>2026-05-02T12:55:45.999Z</time></trkpt><trkpt lat="41.259251618231715" lon="14.711511417089644"><ele>381.0</ele><time>2026-05-02T12:55:46.999Z</time></trkpt><trkpt lat="41.25919506607726" lon="14.711617555056877"><ele>383.0</ele><time>2026-05-02T12:55:47.999Z</time></trkpt><trkpt lat="41.25910513265756" lon="14.71166117394183"><ele>383.0</ele><time>2026-05-02T12:55:48.999Z</time></trkpt><trkpt lat="41.258986844977514" lon="14.71165884689521"><ele>383.0</ele><time>2026-05-02T12:55:49.999Z</time></trkpt><trkpt lat="41.25885986417233" lon="14.71161535235553"><ele>383.0</ele><time>2026-05-02T12:55:50.999Z</time></trkpt><trkpt lat="41.258723413079224" lon="14.711564426352167"><ele>383.0</ele><time>2026-05-02T12:55:51.999Z</time></trkpt><trkpt lat="41.258594552780096" lon="14.711500311407603"><ele>383.5</ele><time>2026-05-02T12:55:52.999Z</time></trkpt><trkpt lat="41.25847302925878" lon="14.711464649016664"><ele>384.0</ele><time>2026-05-02T12:55:53.999Z</time></trkpt><trkpt lat="41.25834324936683" lon="14.711456106139606"><ele>384.5</ele><time>2026-05-02T12:55:54.999Z</time></trkpt><trkpt lat="41.25821537026353" lon="14.711489557491019"><ele>385.0</ele><time>2026-05-02T12:55:55.999Z</time></trkpt><trkpt lat="41.25808042098662" lon="14.71155121105843"><ele>385.0</ele><time>2026-05-02T12:55:56.999Z</time></trkpt><trkpt lat="41.25794882682444" lon="14.711629607163053"><ele>385.0</ele><time>2026-05-02T12:55:57.999Z</time></trkpt><trkpt lat="41.25783262032084" lon="14.711723984698198"><ele>385.0</ele><time>2026-05-02T12:55:58.999Z</time></trkpt><trkpt lat="41.257735779621974" lon="14.71185404397331"><ele>385.0</ele><time>2026-05-02T12:55:59.999Z</time></trkpt><trkpt lat="41.25766460563613" lon="14.711998183605907"><ele>386.75</ele><time>2026-05-02T12:56:00.999Z</time></trkpt><trkpt lat="41.25763796098544" lon="14.71214725322993"><ele>388.5</ele><time>2026-05-02T12:56:01.999Z</time></trkpt><trkpt lat="41.25765148833092" lon="14.712312083147618"><ele>390.25</ele><time>2026-05-02T12:56:02.999Z</time></trkpt><trkpt lat="41.257716189678476" lon="14.712485652575296"><ele>392.0</ele><time>2026-05-02T12:56:03.999Z</time></trkpt><trkpt lat="41.257809138368316" lon="14.712667023458282"><ele>391.25</ele><time>2026-05-02T12:56:04.999Z</time></trkpt><trkpt lat="41.257928693009895" lon="14.712807356347962"><ele>390.5</ele><time>2026-05-02T12:56:05.999Z</time></trkpt><trkpt lat="41.258061252539015" lon="14.712891596506225"><ele>389.75</ele><time>2026-05-02T12:56:06.999Z</time></trkpt><trkpt lat="41.258182422708856" lon="14.712928327053945"><ele>389.0</ele><time>2026-05-02T12:56:07.999Z</time></trkpt><trkpt lat="41.258295916661616" lon="14.712970462811514"><ele>393.4</ele><time>2026-05-02T12:56:08.999Z</time></trkpt><trkpt lat="41.25840275507535" lon="14.71300897840153"><ele>397.79999999999995</ele><time>2026-05-02T12:56:09.999Z</time></trkpt><trkpt lat="41.25849666645045" lon="14.713047618517114"><ele>402.20000000000005</ele><time>2026-05-02T12:56:10.999Z</time></trkpt><trkpt lat="41.258587429649914" lon="14.713091918501966"><ele>406.6</ele><time>2026-05-02T12:56:11.999Z</time></trkpt><trkpt lat="41.258722649189785" lon="14.713155918704148"><ele>411.0</ele><time>2026-05-02T12:56:12.999Z</time></trkpt><trkpt lat="41.25889913172349" lon="14.713251654515743"><ele>411.33333333333337</ele><time>2026-05-02T12:56:13.999Z</time></trkpt><trkpt lat="41.25906691003804" lon="14.7133167200546"><ele>411.6666666666667</ele><time>2026-05-02T12:56:14.999Z</time></trkpt><trkpt lat="41.259251378646454" lon="14.713404880857112"><ele>412.0</ele><time>2026-05-02T12:56:15.999Z</time></trkpt><trkpt lat="41.25945201632259" lon="14.713497899697007"><ele>412.0</ele><time>2026-05-02T12:56:16.999Z</time></trkpt><trkpt lat="41.259664601569646" lon="14.713570772878619"><ele>412.0</ele><time>2026-05-02T12:56:17.999Z</time></trkpt><trkpt lat="41.259888854902485" lon="14.713612347501337"><ele>412.0</ele><time>2026-05-02T12:56:18.999Z</time></trkpt><trkpt lat="41.260146083962105" lon="14.713644722458497"><ele>419.0</ele><time>2026-05-02T12:56:19.999Z</time></trkpt><trkpt lat="41.2603651968259" lon="14.713667356210852"><ele>426.0</ele><time>2026-05-02T12:56:20.999Z</time></trkpt><trkpt lat="41.260584422731334" lon="14.713667345898044"><ele>433.0</ele><time>2026-05-02T12:56:21.999Z</time></trkpt><trkpt lat="41.26084331044252" lon="14.713618425346116"><ele>423.5</ele><time>2026-05-02T12:56:22.999Z</time></trkpt><trkpt lat="41.26109949138701" lon="14.713523352234024"><ele>414.0</ele><time>2026-05-02T12:56:23.999Z</time></trkpt><trkpt lat="41.26131805067243" lon="14.713436591306081"><ele>416.0</ele><time>2026-05-02T12:56:24.999Z</time></trkpt><trkpt lat="41.26149420047029" lon="14.71337610804059"><ele>418.0</ele><time>2026-05-02T12:56:25.999Z</time></trkpt><trkpt lat="41.26161855112875" lon="14.713339820482782"><ele>420.0</ele><time>2026-05-02T12:56:26.999Z</time></trkpt><trkpt lat="41.26172887391425" lon="14.713326747796073"><ele>422.0</ele><time>2026-05-02T12:56:27.999Z</time></trkpt><trkpt lat="41.26182261020573" lon="14.713364370181406"><ele>422.0</ele><time>2026-05-02T12:56:28.999Z</time></trkpt><trkpt lat="41.261887551039905" lon="14.713487279897514"><ele>422.0</ele><time>2026-05-02T12:56:29.999Z</time></trkpt><trkpt lat="41.2619338542219" lon="14.713625107003535"><ele>422.0</ele><time>2026-05-02T12:56:30.999Z</time></trkpt><trkpt lat="41.26195047134302" lon="14.713780799907873"><ele>422.0</ele><time>2026-05-02T12:56:31.999Z</time></trkpt><trkpt lat="41.261935759580496" lon="14.713980850632405"><ele>424.66666666666663</ele><time>2026-05-02T12:56:32.999Z</time></trkpt><trkpt lat="41.261922543601294" lon="14.714211465914062"><ele>427.33333333333337</ele><time>2026-05-02T12:56:33.999Z</time></trkpt><trkpt lat="41.261942769264174" lon="14.714442317056884"><ele>430.0</ele><time>2026-05-02T12:56:34.999Z</time></trkpt><trkpt lat="41.2619706284724" lon="14.71467415588964"><ele>431.33333333333337</ele><time>2026-05-02T12:56:35.999Z</time></trkpt><trkpt lat="41.26205515061487" lon="14.71492135964056"><ele>432.66666666666663</ele><time>2026-05-02T12:56:36.999Z</time></trkpt><trkpt lat="41.26209984779031" lon="14.715115171468549"><ele>434.0</ele><time>2026-05-02T12:56:37.999Z</time></trkpt><trkpt lat="41.2621146184086" lon="14.715293369888808"><ele>434.3333333333333</ele><time>2026-05-02T12:56:38.999Z</time></trkpt><trkpt lat="41.2620826041242" lon="14.715463147642259"><ele>434.66666666666663</ele><time>2026-05-02T12:56:39.999Z</time></trkpt><trkpt lat="41.26202446102142" lon="14.715660075812494"><ele>435.0</ele><time>2026-05-02T12:56:40.999Z</time></trkpt><trkpt lat="41.26194545241955" lon="14.715895179150252"><ele>435.33333333333337</ele><time>2026-05-02T12:56:41.999Z</time></trkpt><trkpt lat="41.261863159190625" lon="14.716162192445916"><ele>435.6666666666667</ele><time>2026-05-02T12:56:42.999Z</time></trkpt><trkpt lat="41.26180869666583" lon="14.71643923816141"><ele>436.0</ele><time>2026-05-02T12:56:43.999Z</time></trkpt><trkpt lat="41.261781852253094" lon="14.716662125271872"><ele>436.0</ele><time>2026-05-02T12:56:44.999Z</time></trkpt><trkpt lat="41.26179216372501" lon="14.716857445071113"><ele>436.0</ele><time>2026-05-02T12:56:45.999Z</time></trkpt><trkpt lat="41.26183704763736" lon="14.717041375554658"><ele>436.0</ele><time>2026-05-02T12:56:46.999Z</time></trkpt><trkpt lat="41.26190987173517" lon="14.717232690894665"><ele>435.6666666666667</ele><time>2026-05-02T12:56:47.999Z</time></trkpt><trkpt lat="41.26200388038274" lon="14.717437761938056"><ele>435.33333333333337</ele><time>2026-05-02T12:56:48.999Z</time></trkpt><trkpt lat="41.26209507646834" lon="14.71766567897774"><ele>435.0</ele><time>2026-05-02T12:56:49.999Z</time></trkpt><trkpt lat="41.26219124284002" lon="14.717886029408481"><ele>438.0</ele><time>2026-05-02T12:56:50.999Z</time></trkpt><trkpt lat="41.26228973163541" lon="14.71811170132574"><ele>441.0</ele><time>2026-05-02T12:56:51.999Z</time></trkpt><trkpt lat="41.26239177716364" lon="14.718345522971243"><ele>444.0</ele><time>2026-05-02T12:56:52.999Z</time></trkpt><trkpt lat="41.26249087432767" lon="14.718572588792135"><ele>444.66666666666663</ele><time>2026-05-02T12:56:53.999Z</time></trkpt><trkpt lat="41.262590024992264" lon="14.718803820845036"><ele>445.3333333333333</ele><time>2026-05-02T12:56:54.999Z</time></trkpt><trkpt lat="41.26268909088405" lon="14.719034777958777"><ele>446.0</ele><time>2026-05-02T12:56:55.999Z</time></trkpt><trkpt lat="41.26279130058903" lon="14.719235851133156"><ele>447.3333333333333</ele><time>2026-05-02T12:56:56.999Z</time></trkpt><trkpt lat="41.26285977513711" lon="14.719440411119646"><ele>448.66666666666663</ele><time>2026-05-02T12:56:57.999Z</time></trkpt><trkpt lat="41.26293172257885" lon="14.71963432386987"><ele>450.0</ele><time>2026-05-02T12:56:58.999Z</time></trkpt><trkpt lat="41.26298584142785" lon="14.719829274179286"><ele>450.0</ele><time>2026-05-02T12:56:59.999Z</time></trkpt><trkpt lat="41.263020684544315" lon="14.720020156471397"><ele>450.0</ele><time>2026-05-02T12:57:00.999Z</time></trkpt><trkpt lat="41.26302436793868" lon="14.720201276640138"><ele>450.0</ele><time>2026-05-02T12:57:01.999Z</time></trkpt><trkpt lat="41.26297279387594" lon="14.720372646692338"><ele>450.0</ele><time>2026-05-02T12:57:02.999Z</time></trkpt><trkpt lat="41.26290695933435" lon="14.72057685128763"><ele>452.33333333333337</ele><time>2026-05-02T12:57:03.999Z</time></trkpt><trkpt lat="41.26283086272832" lon="14.72081435408285"><ele>454.6666666666667</ele><time>2026-05-02T12:57:04.999Z</time></trkpt><trkpt lat="41.26276961987891" lon="14.721030396001455"><ele>457.0</ele><time>2026-05-02T12:57:05.999Z</time></trkpt><trkpt lat="41.262723157455625" lon="14.721203397687406"><ele>458.25</ele><time>2026-05-02T12:57:06.999Z</time></trkpt><trkpt lat="41.26272069233838" lon="14.721371090634376"><ele>459.5</ele><time>2026-05-02T12:57:07.999Z</time></trkpt><trkpt lat="41.262725644548425" lon="14.72151715592489"><ele>460.75</ele><time>2026-05-02T12:57:08.999Z</time></trkpt><trkpt lat="41.26277241555581" lon="14.721697714731313"><ele>462.0</ele><time>2026-05-02T12:57:09.999Z</time></trkpt><trkpt lat="41.262869195850215" lon="14.721894458918682"><ele>461.66666666666663</ele><time>2026-05-02T12:57:10.999Z</time></trkpt><trkpt lat="41.26298157888576" lon="14.722118278103004"><ele>461.3333333333333</ele><time>2026-05-02T12:57:11.999Z</time></trkpt><trkpt lat="41.26307700859419" lon="14.722321236176814"><ele>461.0</ele><time>2026-05-02T12:57:12.998Z</time></trkpt><trkpt lat="41.26313039993127" lon="14.722496692871529"><ele>461.0</ele><time>2026-05-02T12:57:13.998Z</time></trkpt><trkpt lat="41.26314094122528" lon="14.72265626209349"><ele>461.0</ele><time>2026-05-02T12:57:14.998Z</time></trkpt><trkpt lat="41.26311983932086" lon="14.722844361672308"><ele>461.0</ele><time>2026-05-02T12:57:15.998Z</time></trkpt><trkpt lat="41.26306291010249" lon="14.723049259759033"><ele>461.0</ele><time>2026-05-02T12:57:16.998Z</time></trkpt><trkpt lat="41.262973367492755" lon="14.72329068897999"><ele>461.0</ele><time>2026-05-02T12:57:17.998Z</time></trkpt><trkpt lat="41.26288844673015" lon="14.723512959155343"><ele>461.0</ele><time>2026-05-02T12:57:18.998Z</time></trkpt><trkpt lat="41.26282844438224" lon="14.723679970912272"><ele>461.0</ele><time>2026-05-02T12:57:19.998Z</time></trkpt><trkpt lat="41.262817662882156" lon="14.723837129031873"><ele>461.0</ele><time>2026-05-02T12:57:20.998Z</time></trkpt><trkpt lat="41.262852778096224" lon="14.724001697192014"><ele>462.3333333333333</ele><time>2026-05-02T12:57:21.998Z</time></trkpt><trkpt lat="41.262938815792744" lon="14.72416592459147"><ele>463.66666666666663</ele><time>2026-05-02T12:57:22.998Z</time></trkpt><trkpt lat="41.26305376835732" lon="14.724310952483796"><ele>465.0</ele><time>2026-05-02T12:57:23.998Z</time></trkpt><trkpt lat="41.26322733464858" lon="14.724471827633023"><ele>469.0</ele><time>2026-05-02T12:57:24.998Z</time></trkpt><trkpt lat="41.263390670474024" lon="14.724636870325888"><ele>473.0</ele><time>2026-05-02T12:57:25.998Z</time></trkpt><trkpt lat="41.26354936723953" lon="14.72479647505989"><ele>477.0</ele><time>2026-05-02T12:57:26.998Z</time></trkpt><trkpt lat="41.263708502884874" lon="14.724965439966073"><ele>477.0</ele><time>2026-05-02T12:57:27.998Z</time></trkpt><trkpt lat="41.26385794271564" lon="14.725126796137637"><ele>477.0</ele><time>2026-05-02T12:57:28.998Z</time></trkpt><trkpt lat="41.2639755714925" lon="14.725279831619112"><ele>477.0</ele><time>2026-05-02T12:57:29.998Z</time></trkpt><trkpt lat="41.26408365477404" lon="14.725452469627045"><ele>480.66666666666663</ele><time>2026-05-02T12:57:30.998Z</time></trkpt><trkpt lat="41.26416961008509" lon="14.72564310841316"><ele>484.3333333333333</ele><time>2026-05-02T12:57:31.998Z</time></trkpt><trkpt lat="41.26422991445008" lon="14.725856956820943"><ele>488.0</ele><time>2026-05-02T12:57:32.998Z</time></trkpt><trkpt lat="41.26425653421791" lon="14.726089390331161"><ele>489.0</ele><time>2026-05-02T12:57:33.998Z</time></trkpt><trkpt lat="41.26426674613732" lon="14.726345672612757"><ele>490.0</ele><time>2026-05-02T12:57:34.998Z</time></trkpt><trkpt lat="41.264269210037206" lon="14.726620280400198"><ele>491.0</ele><time>2026-05-02T12:57:35.998Z</time></trkpt><trkpt lat="41.26426676469563" lon="14.72688654692937"><ele>492.3333333333333</ele><time>2026-05-02T12:57:36.998Z</time></trkpt><trkpt lat="41.26426451230517" lon="14.72715244267894"><ele>493.66666666666663</ele><time>2026-05-02T12:57:37.998Z</time></trkpt><trkpt lat="41.264261844614445" lon="14.727408894886304"><ele>495.0</ele><time>2026-05-02T12:57:38.998Z</time></trkpt><trkpt lat="41.26425906840328" lon="14.72766899857159"><ele>496.33333333333337</ele><time>2026-05-02T12:57:39.998Z</time></trkpt><trkpt lat="41.26425677629756" lon="14.727883747630784"><ele>497.6666666666667</ele><time>2026-05-02T12:57:40.998Z</time></trkpt><trkpt lat="41.26425497009522" lon="14.728097900372875"><ele>499.0</ele><time>2026-05-02T12:57:41.998Z</time></trkpt><trkpt lat="41.26425317998197" lon="14.728302599772642"><ele>499.0</ele><time>2026-05-02T12:57:42.998Z</time></trkpt><trkpt lat="41.26424989893331" lon="14.728492376086882"><ele>499.0</ele><time>2026-05-02T12:57:43.999Z</time></trkpt><trkpt lat="41.26424606453505" lon="14.728649094321163"><ele>499.0</ele><time>2026-05-02T12:57:44.999Z</time></trkpt><trkpt lat="41.26425339597447" lon="14.728822176910423"><ele>499.0</ele><time>2026-05-02T12:57:45.999Z</time></trkpt><trkpt lat="41.264237929581434" lon="14.728996857381132"><ele>499.5</ele><time>2026-05-02T12:57:46.999Z</time></trkpt><trkpt lat="41.26423245537836" lon="14.729180396599958"><ele>500.0</ele><time>2026-05-02T12:57:47.999Z</time></trkpt><trkpt lat="41.264237248442136" lon="14.729340930973795"><ele>500.5</ele><time>2026-05-02T12:57:48.999Z</time></trkpt><trkpt lat="41.26426121866228" lon="14.729484518216026"><ele>501.0</ele><time>2026-05-02T12:57:49.999Z</time></trkpt><trkpt lat="41.26430341755053" lon="14.729609634664655"><ele>501.5</ele><time>2026-05-02T12:57:50.999Z</time></trkpt><trkpt lat="41.26437481491477" lon="14.729714946026307"><ele>502.0</ele><time>2026-05-02T12:57:51.999Z</time></trkpt><trkpt lat="41.264477843346285" lon="14.729768675950766"><ele>502.5</ele><time>2026-05-02T12:57:52.999Z</time></trkpt><trkpt lat="41.26460377433124" lon="14.729790299542675"><ele>503.0</ele><time>2026-05-02T12:57:53.999Z</time></trkpt><trkpt lat="41.26473413234668" lon="14.72977085150617"><ele>504.0</ele><time>2026-05-02T12:57:54.999Z</time></trkpt><trkpt lat="41.26486563510074" lon="14.729750385005511"><ele>505.0</ele><time>2026-05-02T12:57:55.999Z</time></trkpt><trkpt lat="41.265025396090955" lon="14.729713907626216"><ele>506.0</ele><time>2026-05-02T12:57:56.999Z</time></trkpt><trkpt lat="41.2651375640171" lon="14.729699321032898"><ele>507.0</ele><time>2026-05-02T12:57:57.999Z</time></trkpt><trkpt lat="41.26524760176444" lon="14.729690677244431"><ele>507.0</ele><time>2026-05-02T12:57:58.999Z</time></trkpt><trkpt lat="41.265335106178384" lon="14.729695589751303"><ele>507.0</ele><time>2026-05-02T12:57:59.999Z</time></trkpt><trkpt lat="41.265409502284335" lon="14.729733466687591"><ele>507.0</ele><time>2026-05-02T12:58:00.999Z</time></trkpt><trkpt lat="41.2654671290206" lon="14.729807363205788"><ele>507.0</ele><time>2026-05-02T12:58:01.999Z</time></trkpt><trkpt lat="41.26550990717052" lon="14.7299185832653"><ele>507.0</ele><time>2026-05-02T12:58:02.999Z</time></trkpt><trkpt lat="41.26554201678361" lon="14.730054655255563"><ele>507.0</ele><time>2026-05-02T12:58:03.999Z</time></trkpt><trkpt lat="41.26557922855077" lon="14.730199230794538"><ele>506.75</ele><time>2026-05-02T12:58:04.999Z</time></trkpt><trkpt lat="41.26564335209799" lon="14.730335595111747"><ele>506.5</ele><time>2026-05-02T12:58:05.999Z</time></trkpt><trkpt lat="41.26574156843895" lon="14.730466881056815"><ele>506.25</ele><time>2026-05-02T12:58:06.999Z</time></trkpt><trkpt lat="41.26586613886534" lon="14.730620455986818"><ele>506.0</ele><time>2026-05-02T12:58:07.999Z</time></trkpt><trkpt lat="41.266005635234016" lon="14.730786678597216"><ele>506.0</ele><time>2026-05-02T12:58:08.999Z</time></trkpt><trkpt lat="41.26614604080436" lon="14.730964183780802"><ele>506.0</ele><time>2026-05-02T12:58:09.999Z</time></trkpt><trkpt lat="41.26629563090944" lon="14.731158579760498"><ele>506.0</ele><time>2026-05-02T12:58:10.999Z</time></trkpt><trkpt lat="41.2664527118603" lon="14.73136057347389"><ele>506.0</ele><time>2026-05-02T12:58:11.999Z</time></trkpt><trkpt lat="41.26661780492769" lon="14.731557793855751"><ele>506.0</ele><time>2026-05-02T12:58:12.999Z</time></trkpt><trkpt lat="41.266748963292734" lon="14.731713303474407"><ele>506.0</ele><time>2026-05-02T12:58:13.999Z</time></trkpt><trkpt lat="41.26684913279753" lon="14.731857247483722"><ele>506.5</ele><time>2026-05-02T12:58:14.999Z</time></trkpt><trkpt lat="41.26692962014578" lon="14.732013013501275"><ele>507.0</ele><time>2026-05-02T12:58:15.999Z</time></trkpt><trkpt lat="41.26697656055028" lon="14.732188625888032"><ele>507.5</ele><time>2026-05-02T12:58:16.999Z</time></trkpt><trkpt lat="41.266973078488654" lon="14.732386191168649"><ele>508.0</ele><time>2026-05-02T12:58:17.999Z</time></trkpt><trkpt lat="41.2669258828368" lon="14.732597646360269"><ele>507.6666666666667</ele><time>2026-05-02T12:58:18.999Z</time></trkpt><trkpt lat="41.2668386855405" lon="14.732804824435354"><ele>507.33333333333337</ele><time>2026-05-02T12:58:19.999Z</time></trkpt><trkpt lat="41.266712447356255" lon="14.73302032437352"><ele>507.0</ele><time>2026-05-02T12:58:20.999Z</time></trkpt><trkpt lat="41.26657163723077" lon="14.73321834957484"><ele>507.0</ele><time>2026-05-02T12:58:21.999Z</time></trkpt><trkpt lat="41.266446284503736" lon="14.73338409518045"><ele>507.0</ele><time>2026-05-02T12:58:22.999Z</time></trkpt><trkpt lat="41.26636576623712" lon="14.733581853800967"><ele>507.0</ele><time>2026-05-02T12:58:23.999Z</time></trkpt><trkpt lat="41.266324373280234" lon="14.733817823977349"><ele>508.0</ele><time>2026-05-02T12:58:24.999Z</time></trkpt><trkpt lat="41.266321363328785" lon="14.73407900479514"><ele>509.0</ele><time>2026-05-02T12:58:25.999Z</time></trkpt><trkpt lat="41.266335855956164" lon="14.734357468322928"><ele>510.0</ele><time>2026-05-02T12:58:26.999Z</time></trkpt><trkpt lat="41.26634691499978" lon="14.73460689041981"><ele>510.0</ele><time>2026-05-02T12:58:27.999Z</time></trkpt><trkpt lat="41.26633571674732" lon="14.734847369822726"><ele>510.0</ele><time>2026-05-02T12:58:28.999Z</time></trkpt><trkpt lat="41.26629101082915" lon="14.735105860422628"><ele>510.0</ele><time>2026-05-02T12:58:29.999Z</time></trkpt><trkpt lat="41.266222007259685" lon="14.735331320175067"><ele>509.25</ele><time>2026-05-02T12:58:30.999Z</time></trkpt><trkpt lat="41.2661543132286" lon="14.73550629560303"><ele>508.5</ele><time>2026-05-02T12:58:31.999Z</time></trkpt><trkpt lat="41.26607665683911" lon="14.735639534509676"><ele>507.75</ele><time>2026-05-02T12:58:32.999Z</time></trkpt><trkpt lat="41.26597508920516" lon="14.735720556924434"><ele>507.0</ele><time>2026-05-02T12:58:33.999Z</time></trkpt><trkpt lat="41.26585031988984" lon="14.735742422909786"><ele>507.0</ele><time>2026-05-02T12:58:34.999Z</time></trkpt><trkpt lat="41.26572697176395" lon="14.735714174311259"><ele>507.0</ele><time>2026-05-02T12:58:35.999Z</time></trkpt><trkpt lat="41.26560338291817" lon="14.735656417414477"><ele>507.0</ele><time>2026-05-02T12:58:36.999Z</time></trkpt><trkpt lat="41.26545925777004" lon="14.73557845819713"><ele>507.0</ele><time>2026-05-02T12:58:37.999Z</time></trkpt><trkpt lat="41.26529716304709" lon="14.735478605264264"><ele>506.66666666666663</ele><time>2026-05-02T12:58:38.999Z</time></trkpt><trkpt lat="41.26512766442601" lon="14.735379901384553"><ele>506.3333333333333</ele><time>2026-05-02T12:58:39.999Z</time></trkpt><trkpt lat="41.264953458967746" lon="14.73528862014711"><ele>506.0</ele><time>2026-05-02T12:58:40.999Z</time></trkpt><trkpt lat="41.264770319820094" lon="14.735207282183776"><ele>506.0</ele><time>2026-05-02T12:58:41.999Z</time></trkpt><trkpt lat="41.26457740212489" lon="14.735144711084008"><ele>506.0</ele><time>2026-05-02T12:58:42.999Z</time></trkpt><trkpt lat="41.26437353781811" lon="14.735121412400721"><ele>506.0</ele><time>2026-05-02T12:58:43.999Z</time></trkpt><trkpt lat="41.26416280287972" lon="14.735129804459694"><ele>504.5</ele><time>2026-05-02T12:58:44.999Z</time></trkpt><trkpt lat="41.263935889167996" lon="14.73514114666939"><ele>503.0</ele><time>2026-05-02T12:58:45.999Z</time></trkpt><trkpt lat="41.26370929343006" lon="14.735128109012955"><ele>503.0</ele><time>2026-05-02T12:58:46.999Z</time></trkpt><trkpt lat="41.26348720896386" lon="14.73508587457264"><ele>503.0</ele><time>2026-05-02T12:58:47.999Z</time></trkpt><trkpt lat="41.26326300495677" lon="14.73501381464958"><ele>501.0</ele><time>2026-05-02T12:58:48.999Z</time></trkpt><trkpt lat="41.26304532182115" lon="14.734922153189142"><ele>499.0</ele><time>2026-05-02T12:58:49.999Z</time></trkpt><trkpt lat="41.262840532459634" lon="14.734849376987222"><ele>497.0</ele><time>2026-05-02T12:58:50.999Z</time></trkpt><trkpt lat="41.262628703397205" lon="14.734815886186016"><ele>497.0</ele><time>2026-05-02T12:58:51.999Z</time></trkpt><trkpt lat="41.262420746200895" lon="14.73485092749718"><ele>497.0</ele><time>2026-05-02T12:58:52.999Z</time></trkpt><trkpt lat="41.26220793216394" lon="14.734900659154244"><ele>497.0</ele><time>2026-05-02T12:58:53.999Z</time></trkpt><trkpt lat="41.26198949529439" lon="14.734970753563323"><ele>497.0</ele><time>2026-05-02T12:58:54.999Z</time></trkpt><trkpt lat="41.261784012825125" lon="14.73511198627324"><ele>497.0</ele><time>2026-05-02T12:58:55.999Z</time></trkpt><trkpt lat="41.261601966935" lon="14.735269396748906"><ele>497.0</ele><time>2026-05-02T12:58:56.999Z</time></trkpt><trkpt lat="41.261439645017894" lon="14.73543334554998"><ele>495.5</ele><time>2026-05-02T12:58:57.999Z</time></trkpt><trkpt lat="41.261286928318256" lon="14.735639751957796"><ele>494.0</ele><time>2026-05-02T12:58:58.999Z</time></trkpt><trkpt lat="41.261138360367106" lon="14.735894568344534"><ele>491.3333333333333</ele><time>2026-05-02T12:58:59.999Z</time></trkpt><trkpt lat="41.26099580220228" lon="14.736142473691089"><ele>488.66666666666663</ele><time>2026-05-02T12:59:00.999Z</time></trkpt><trkpt lat="41.260869278351066" lon="14.736347578231172"><ele>486.0</ele><time>2026-05-02T12:59:01.999Z</time></trkpt><trkpt lat="41.260752702887316" lon="14.7365203732599"><ele>486.0</ele><time>2026-05-02T12:59:02.999Z</time></trkpt><trkpt lat="41.26063122979259" lon="14.736661843479341"><ele>486.0</ele><time>2026-05-02T12:59:03.999Z</time></trkpt><trkpt lat="41.26048289259112" lon="14.736768583462922"><ele>486.0</ele><time>2026-05-02T12:59:04.999Z</time></trkpt><trkpt lat="41.260300367495546" lon="14.736824835703523"><ele>485.66666666666663</ele><time>2026-05-02T12:59:05.999Z</time></trkpt><trkpt lat="41.260104545641774" lon="14.736799234801394"><ele>485.3333333333333</ele><time>2026-05-02T12:59:06.999Z</time></trkpt><trkpt lat="41.259924890173316" lon="14.736784489934182"><ele>485.0</ele><time>2026-05-02T12:59:07.999Z</time></trkpt><trkpt lat="41.259757120550276" lon="14.736783118983423"><ele>484.66666666666663</ele><time>2026-05-02T12:59:08.999Z</time></trkpt><trkpt lat="41.259590994769624" lon="14.736847943472705"><ele>484.33333333333337</ele><time>2026-05-02T12:59:09.999Z</time></trkpt><trkpt lat="41.259433009090735" lon="14.736972457723333"><ele>484.0</ele><time>2026-05-02T12:59:10.999Z</time></trkpt><trkpt lat="41.25929224485477" lon="14.737098809486856"><ele>480.6666666666667</ele><time>2026-05-02T12:59:11.999Z</time></trkpt><trkpt lat="41.259136688447526" lon="14.737186407823716"><ele>477.33333333333337</ele><time>2026-05-02T12:59:12.999Z</time></trkpt><trkpt lat="41.2589508231869" lon="14.737191936869953"><ele>474.0</ele><time>2026-05-02T12:59:13.999Z</time></trkpt><trkpt lat="41.258727821499036" lon="14.737169212670919"><ele>473.33333333333337</ele><time>2026-05-02T12:59:14.999Z</time></trkpt><trkpt lat="41.25851854235654" lon="14.737157755764947"><ele>472.6666666666667</ele><time>2026-05-02T12:59:15.999Z</time></trkpt><trkpt lat="41.25833448953616" lon="14.73715861494291"><ele>472.0</ele><time>2026-05-02T12:59:16.999Z</time></trkpt><trkpt lat="41.258163908302606" lon="14.73715705664965"><ele>472.5</ele><time>2026-05-02T12:59:17.999Z</time></trkpt><trkpt lat="41.258015958218856" lon="14.737192022634916"><ele>473.0</ele><time>2026-05-02T12:59:18.999Z</time></trkpt><trkpt lat="41.25789544157535" lon="14.737279773283527"><ele>473.5</ele><time>2026-05-02T12:59:19.999Z</time></trkpt><trkpt lat="41.257806893346796" lon="14.737420833000256"><ele>474.0</ele><time>2026-05-02T12:59:20.999Z</time></trkpt><trkpt lat="41.25771805836266" lon="14.737610653785607"><ele>470.5</ele><time>2026-05-02T12:59:21.999Z</time></trkpt><trkpt lat="41.25762684091796" lon="14.737860236148741"><ele>467.0</ele><time>2026-05-02T12:59:22.999Z</time></trkpt><trkpt lat="41.257519583179715" lon="14.738160502414434"><ele>467.0</ele><time>2026-05-02T12:59:23.999Z</time></trkpt><trkpt lat="41.25739264778535" lon="14.738461660433439"><ele>467.0</ele><time>2026-05-02T12:59:24.999Z</time></trkpt><trkpt lat="41.257256475518325" lon="14.738763381818163"><ele>468.0</ele><time>2026-05-02T12:59:25.999Z</time></trkpt><trkpt lat="41.257115420095495" lon="14.739084965620538"><ele>469.0</ele><time>2026-05-02T12:59:26.999Z</time></trkpt><trkpt lat="41.25698683596383" lon="14.739390658307208"><ele>466.0</ele><time>2026-05-02T12:59:27.999Z</time></trkpt><trkpt lat="41.2568733392941" lon="14.739661957389712"><ele>463.0</ele><time>2026-05-02T12:59:28.999Z</time></trkpt><trkpt lat="41.25677423224074" lon="14.739903525484054"><ele>460.0</ele><time>2026-05-02T12:59:29.999Z</time></trkpt><trkpt lat="41.256674867143126" lon="14.740109990696883"><ele>458.6666666666667</ele><time>2026-05-02T12:59:30.999Z</time></trkpt><trkpt lat="41.256553093346774" lon="14.740293691941176"><ele>457.33333333333337</ele><time>2026-05-02T12:59:31.999Z</time></trkpt><trkpt lat="41.25639062351989" lon="14.740454096689342"><ele>456.0</ele><time>2026-05-02T12:59:32.999Z</time></trkpt><trkpt lat="41.25618486208089" lon="14.740590353556152"><ele>456.0</ele><time>2026-05-02T12:59:33.999Z</time></trkpt><trkpt lat="41.256008583929265" lon="14.740688023140434"><ele>456.0</ele><time>2026-05-02T12:59:34.999Z</time></trkpt><trkpt lat="41.255867824622776" lon="14.740785677848772"><ele>456.0</ele><time>2026-05-02T12:59:35.999Z</time></trkpt><trkpt lat="41.2557282480652" lon="14.740884784280096"><ele>455.66666666666663</ele><time>2026-05-02T12:59:36.999Z</time></trkpt><trkpt lat="41.255586065294686" lon="14.740977480224268"><ele>455.3333333333333</ele><time>2026-05-02T12:59:37.999Z</time></trkpt><trkpt lat="41.2554446158544" lon="14.74106701458353"><ele>455.0</ele><time>2026-05-02T12:59:38.999Z</time></trkpt><trkpt lat="41.255294406076324" lon="14.741144001625575"><ele>454.66666666666663</ele><time>2026-05-02T12:59:39.999Z</time></trkpt><trkpt lat="41.25514073492617" lon="14.741236235013334"><ele>454.33333333333337</ele><time>2026-05-02T12:59:40.999Z</time></trkpt><trkpt lat="41.25498496232569" lon="14.741350818263255"><ele>454.0</ele><time>2026-05-02T12:59:41.999Z</time></trkpt><trkpt lat="41.254848701852495" lon="14.741514716451665"><ele>451.6666666666667</ele><time>2026-05-02T12:59:42.999Z</time></trkpt><trkpt lat="41.25472581309891" lon="14.741733588142365"><ele>449.33333333333337</ele><time>2026-05-02T12:59:43.999Z</time></trkpt><trkpt lat="41.25460088646616" lon="14.741963553197037"><ele>447.0</ele><time>2026-05-02T12:59:44.999Z</time></trkpt><trkpt lat="41.25445946455627" lon="14.742229576453765"><ele>447.0</ele><time>2026-05-02T12:59:45.999Z</time></trkpt><trkpt lat="41.25430611611366" lon="14.742504719724117"><ele>447.0</ele><time>2026-05-02T12:59:46.999Z</time></trkpt><trkpt lat="41.25415387644635" lon="14.742783612547509"><ele>447.0</ele><time>2026-05-02T12:59:47.999Z</time></trkpt><trkpt lat="41.25400596735338" lon="14.743052890057687"><ele>447.0</ele><time>2026-05-02T12:59:48.999Z</time></trkpt><trkpt lat="41.253869959083126" lon="14.743297015433129"><ele>446.0</ele><time>2026-05-02T12:59:49.999Z</time></trkpt><trkpt lat="41.253740045981544" lon="14.743532051135386"><ele>445.0</ele><time>2026-05-02T12:59:50.999Z</time></trkpt><trkpt lat="41.25362497495468" lon="14.7437486184374"><ele>444.0</ele><time>2026-05-02T12:59:51.999Z</time></trkpt><trkpt lat="41.253519140852646" lon="14.743938001262036"><ele>444.0</ele><time>2026-05-02T12:59:52.999Z</time></trkpt><trkpt lat="41.25343958784821" lon="14.744120193645987"><ele>444.0</ele><time>2026-05-02T12:59:53.999Z</time></trkpt><trkpt lat="41.253391520189645" lon="14.744320888458589"><ele>444.0</ele><time>2026-05-02T12:59:54.999Z</time></trkpt><trkpt lat="41.253370413137155" lon="14.744559468385964"><ele>443.33333333333337</ele><time>2026-05-02T12:59:55.999Z</time></trkpt><trkpt lat="41.25336647763716" lon="14.744822707956077"><ele>442.6666666666667</ele><time>2026-05-02T12:59:56.999Z</time></trkpt><trkpt lat="41.253372717284314" lon="14.74507706024145"><ele>442.0</ele><time>2026-05-02T12:59:57.999Z</time></trkpt><trkpt lat="41.25337827404424" lon="14.745318722879576"><ele>441.33333333333337</ele><time>2026-05-02T12:59:58.999Z</time></trkpt><trkpt lat="41.25338135258762" lon="14.74555908635073"><ele>440.66666666666663</ele><time>2026-05-02T12:59:59.999Z</time></trkpt><trkpt lat="41.25338230918669" lon="14.7458065766636"><ele>440.0</ele><time>2026-05-02T13:00:00.999Z</time></trkpt><trkpt lat="41.25338692415597" lon="14.746059784151859"><ele>439.0</ele><time>2026-05-02T13:00:01.999Z</time></trkpt><trkpt lat="41.253391486649264" lon="14.746316505454839"><ele>438.0</ele><time>2026-05-02T13:00:02.999Z</time></trkpt><trkpt lat="41.25339254268491" lon="14.74658589720093"><ele>437.0</ele><time>2026-05-02T13:00:03.999Z</time></trkpt><trkpt lat="41.25338579581122" lon="14.746870124025206"><ele>436.66666666666663</ele><time>2026-05-02T13:00:04.999Z</time></trkpt><trkpt lat="41.25338074914666" lon="14.747141001164339"><ele>436.33333333333337</ele><time>2026-05-02T13:00:05.999Z</time></trkpt><trkpt lat="41.25337608690365" lon="14.747374699943634"><ele>436.0</ele><time>2026-05-02T13:00:06.999Z</time></trkpt><trkpt lat="41.253400948877875" lon="14.747593364987289"><ele>433.6666666666667</ele><time>2026-05-02T13:00:07.999Z</time></trkpt><trkpt lat="41.253472964715954" lon="14.74782033891502"><ele>431.33333333333337</ele><time>2026-05-02T13:00:08.999Z</time></trkpt><trkpt lat="41.25360077944206" lon="14.748065652624215"><ele>429.0</ele><time>2026-05-02T13:00:09.999Z</time></trkpt><trkpt lat="41.25374105083337" lon="14.748317147011672"><ele>428.5</ele><time>2026-05-02T13:00:10.999Z</time></trkpt><trkpt lat="41.25387209095599" lon="14.74859950337919"><ele>428.0</ele><time>2026-05-02T13:00:11.999Z</time></trkpt><trkpt lat="41.25401277457589" lon="14.74887685996487"><ele>428.0</ele><time>2026-05-02T13:00:12.999Z</time></trkpt><trkpt lat="41.25415237051352" lon="14.749139625311892"><ele>428.0</ele><time>2026-05-02T13:00:13.999Z</time></trkpt><trkpt lat="41.25427626555779" lon="14.749370781326"><ele>426.3333333333333</ele><time>2026-05-02T13:00:14.999Z</time></trkpt><trkpt lat="41.254393546980644" lon="14.749590330102423"><ele>424.66666666666663</ele><time>2026-05-02T13:00:15.999Z</time></trkpt><trkpt lat="41.254499643267906" lon="14.749795466230093"><ele>423.0</ele><time>2026-05-02T13:00:16.999Z</time></trkpt><trkpt lat="41.25459260139242" lon="14.749993450690573"><ele>423.0</ele><time>2026-05-02T13:00:17.999Z</time></trkpt><trkpt lat="41.25465874284205" lon="14.750167577980239"><ele>423.0</ele><time>2026-05-02T13:00:18.999Z</time></trkpt><trkpt lat="41.25468154973773" lon="14.750348301073123"><ele>423.0</ele><time>2026-05-02T13:00:19.999Z</time></trkpt><trkpt lat="41.254671074260365" lon="14.750574029444424"><ele>420.66666666666663</ele><time>2026-05-02T13:00:20.999Z</time></trkpt><trkpt lat="41.254631111593035" lon="14.750817411812642"><ele>418.3333333333333</ele><time>2026-05-02T13:00:21.999Z</time></trkpt><trkpt lat="41.25455567537394" lon="14.751074679249687"><ele>416.0</ele><time>2026-05-02T13:00:22.999Z</time></trkpt><trkpt lat="41.25447363571908" lon="14.751362639663718"><ele>415.5</ele><time>2026-05-02T13:00:23.999Z</time></trkpt><trkpt lat="41.25439994145388" lon="14.751676335674333"><ele>415.0</ele><time>2026-05-02T13:00:24.999Z</time></trkpt><trkpt lat="41.25433948775465" lon="14.751975130310788"><ele>415.6666666666667</ele><time>2026-05-02T13:00:25.999Z</time></trkpt><trkpt lat="41.25427809006939" lon="14.752213538880529"><ele>416.33333333333337</ele><time>2026-05-02T13:00:26.999Z</time></trkpt><trkpt lat="41.254242833005485" lon="14.75242725564496"><ele>417.0</ele><time>2026-05-02T13:00:27.999Z</time></trkpt><trkpt lat="41.25417404143495" lon="14.752616413168925"><ele>414.75</ele><time>2026-05-02T13:00:28.999Z</time></trkpt><trkpt lat="41.254155779041795" lon="14.752808372012149"><ele>412.5</ele><time>2026-05-02T13:00:29.999Z</time></trkpt><trkpt lat="41.254174679753405" lon="14.752976569743604"><ele>410.25</ele><time>2026-05-02T13:00:30.999Z</time></trkpt><trkpt lat="41.25425607868903" lon="14.753159554831145"><ele>408.0</ele><time>2026-05-02T13:00:31.999Z</time></trkpt><trkpt lat="41.25437533568004" lon="14.753313917329885"><ele>408.0</ele><time>2026-05-02T13:00:32.999Z</time></trkpt><trkpt lat="41.254533336079575" lon="14.753425842965452"><ele>408.0</ele><time>2026-05-02T13:00:33.999Z</time></trkpt><trkpt lat="41.254691433259104" lon="14.75348760651483"><ele>408.0</ele><time>2026-05-02T13:00:34.999Z</time></trkpt><trkpt lat="41.254804419027955" lon="14.753554545376149"><ele>410.25</ele><time>2026-05-02T13:00:35.999Z</time></trkpt><trkpt lat="41.254904628256526" lon="14.753656044925277"><ele>412.5</ele><time>2026-05-02T13:00:36.999Z</time></trkpt><trkpt lat="41.25496922535631" lon="14.753797102368601"><ele>414.75</ele><time>2026-05-02T13:00:37.999Z</time></trkpt><trkpt lat="41.255014342727996" lon="14.754009637144685"><ele>417.0</ele><time>2026-05-02T13:00:38.999Z</time></trkpt><trkpt lat="41.25502477468234" lon="14.754226207689534"><ele>419.33333333333337</ele><time>2026-05-02T13:00:39.999Z</time></trkpt><trkpt lat="41.255012718734925" lon="14.75440822990184"><ele>421.6666666666667</ele><time>2026-05-02T13:00:40.999Z</time></trkpt><trkpt lat="41.254956700123415" lon="14.754579554722959"><ele>424.0</ele><time>2026-05-02T13:00:41.999Z</time></trkpt><trkpt lat="41.25485270742386" lon="14.754765119358801"><ele>422.0</ele><time>2026-05-02T13:00:42.999Z</time></trkpt><trkpt lat="41.25474315214857" lon="14.75497220691818"><ele>420.0</ele><time>2026-05-02T13:00:43.999Z</time></trkpt><trkpt lat="41.254665949199236" lon="14.75513560063067"><ele>418.0</ele><time>2026-05-02T13:00:44.999Z</time></trkpt><trkpt lat="41.25457741139776" lon="14.755247751574467"><ele>418.0</ele><time>2026-05-02T13:00:45.999Z</time></trkpt><trkpt lat="41.25444705815426" lon="14.755309184701202"><ele>418.0</ele><time>2026-05-02T13:00:46.999Z</time></trkpt><trkpt lat="41.254308175207555" lon="14.755283841706651"><ele>418.0</ele><time>2026-05-02T13:00:47.999Z</time></trkpt><trkpt lat="41.254185621137154" lon="14.75528616490814"><ele>418.0</ele><time>2026-05-02T13:00:48.999Z</time></trkpt><trkpt lat="41.254057034830296" lon="14.755367746505726"><ele>418.0</ele><time>2026-05-02T13:00:49.999Z</time></trkpt><trkpt lat="41.25396523782089" lon="14.755513802509228"><ele>418.0</ele><time>2026-05-02T13:00:50.999Z</time></trkpt><trkpt lat="41.25390164251871" lon="14.755706300810978"><ele>418.0</ele><time>2026-05-02T13:00:51.999Z</time></trkpt><trkpt lat="41.25384413726567" lon="14.755923401561697"><ele>417.33333333333337</ele><time>2026-05-02T13:00:52.999Z</time></trkpt><trkpt lat="41.25374617648689" lon="14.756107410968061"><ele>416.66666666666663</ele><time>2026-05-02T13:00:53.999Z</time></trkpt><trkpt lat="41.25361685629247" lon="14.756280704195717"><ele>416.0</ele><time>2026-05-02T13:00:54.999Z</time></trkpt><trkpt lat="41.253447611188115" lon="14.756437956322099"><ele>416.0</ele><time>2026-05-02T13:00:55.999Z</time></trkpt><trkpt lat="41.25325739910824" lon="14.756525190738115"><ele>416.0</ele><time>2026-05-02T13:00:56.999Z</time></trkpt><trkpt lat="41.25307276575778" lon="14.756603611547428"><ele>416.0</ele><time>2026-05-02T13:00:57.999Z</time></trkpt><trkpt lat="41.25296521928814" lon="14.756620057707087"><ele>414.3333333333333</ele><time>2026-05-02T13:00:58.999Z</time></trkpt><trkpt lat="41.25280543052497" lon="14.756596890557292"><ele>412.66666666666663</ele><time>2026-05-02T13:00:59.999Z</time></trkpt><trkpt lat="41.25264511269197" lon="14.756488044097098"><ele>411.0</ele><time>2026-05-02T13:01:00.999Z</time></trkpt><trkpt lat="41.25245571132349" lon="14.756361036516763"><ele>408.66666666666663</ele><time>2026-05-02T13:01:01.999Z</time></trkpt><trkpt lat="41.252262529916415" lon="14.75627597517145"><ele>406.3333333333333</ele><time>2026-05-02T13:01:02.999Z</time></trkpt><trkpt lat="41.25208737660302" lon="14.756214882804215"><ele>404.0</ele><time>2026-05-02T13:01:03.999Z</time></trkpt><trkpt lat="41.251937904301776" lon="14.756212404421952"><ele>404.0</ele><time>2026-05-02T13:01:04.999Z</time></trkpt><trkpt lat="41.25181660262293" lon="14.756293803827631"><ele>404.0</ele><time>2026-05-02T13:01:05.999Z</time></trkpt><trkpt lat="41.251742652642285" lon="14.75641647130623"><ele>404.0</ele><time>2026-05-02T13:01:06.999Z</time></trkpt><trkpt lat="41.25169792277049" lon="14.75657624969169"><ele>404.0</ele><time>2026-05-02T13:01:07.999Z</time></trkpt><trkpt lat="41.251758651184105" lon="14.756778949464243"><ele>403.66666666666663</ele><time>2026-05-02T13:01:08.999Z</time></trkpt><trkpt lat="41.25179877010948" lon="14.757032248846713"><ele>403.33333333333337</ele><time>2026-05-02T13:01:09.999Z</time></trkpt><trkpt lat="41.251823473091726" lon="14.757284433641942"><ele>403.0</ele><time>2026-05-02T13:01:10.999Z</time></trkpt><trkpt lat="41.2517541739659" lon="14.757497570544208"><ele>405.0</ele><time>2026-05-02T13:01:11.999Z</time></trkpt><trkpt lat="41.25167663202451" lon="14.75775557355154"><ele>407.0</ele><time>2026-05-02T13:01:12.999Z</time></trkpt><trkpt lat="41.25160556216415" lon="14.757965928479374"><ele>409.0</ele><time>2026-05-02T13:01:13.999Z</time></trkpt><trkpt lat="41.25152850913829" lon="14.75815195954466"><ele>406.5</ele><time>2026-05-02T13:01:14.999Z</time></trkpt><trkpt lat="41.25144082621747" lon="14.758291048642652"><ele>404.0</ele><time>2026-05-02T13:01:15.999Z</time></trkpt><trkpt lat="41.251334476685166" lon="14.758394460651688"><ele>401.5</ele><time>2026-05-02T13:01:16.999Z</time></trkpt><trkpt lat="41.25121198862948" lon="14.7584332775115"><ele>399.0</ele><time>2026-05-02T13:01:17.999Z</time></trkpt><trkpt lat="41.25103900193341" lon="14.75845504500391"><ele>399.0</ele><time>2026-05-02T13:01:18.999Z</time></trkpt><trkpt lat="41.25083106631743" lon="14.75846842888411"><ele>399.0</ele><time>2026-05-02T13:01:19.999Z</time></trkpt><trkpt lat="41.250623962603264" lon="14.758470280390618"><ele>399.0</ele><time>2026-05-02T13:01:20.999Z</time></trkpt><trkpt lat="41.250430862628896" lon="14.758458074789846"><ele>399.33333333333337</ele><time>2026-05-02T13:01:21.999Z</time></trkpt><trkpt lat="41.25026216501211" lon="14.758381360245993"><ele>399.6666666666667</ele><time>2026-05-02T13:01:22.999Z</time></trkpt><trkpt lat="41.250085357832276" lon="14.758270001471288"><ele>400.0</ele><time>2026-05-02T13:01:23.999Z</time></trkpt><trkpt lat="41.249890090231716" lon="14.758147539433557"><ele>399.6666666666667</ele><time>2026-05-02T13:01:24.999Z</time></trkpt><trkpt lat="41.24969072791886" lon="14.758057404814998"><ele>399.33333333333337</ele><time>2026-05-02T13:01:25.999Z</time></trkpt><trkpt lat="41.24951384430148" lon="14.757983621736019"><ele>399.0</ele><time>2026-05-02T13:01:26.999Z</time></trkpt><trkpt lat="41.24932056861625" lon="14.757955363956267"><ele>399.0</ele><time>2026-05-02T13:01:27.999Z</time></trkpt><trkpt lat="41.249106021777465" lon="14.75800646325336"><ele>399.0</ele><time>2026-05-02T13:01:28.999Z</time></trkpt><trkpt lat="41.24892914655" lon="14.758054814972892"><ele>399.0</ele><time>2026-05-02T13:01:29.999Z</time></trkpt><trkpt lat="41.24878936616518" lon="14.75808515438017"><ele>394.75</ele><time>2026-05-02T13:01:30.999Z</time></trkpt><trkpt lat="41.24868952568995" lon="14.758135217074233"><ele>390.5</ele><time>2026-05-02T13:01:31.999Z</time></trkpt><trkpt lat="41.248614518708614" lon="14.75825349585742"><ele>386.25</ele><time>2026-05-02T13:01:32.999Z</time></trkpt><trkpt lat="41.248595160646445" lon="14.75840894017705"><ele>382.0</ele><time>2026-05-02T13:01:33.999Z</time></trkpt><trkpt lat="41.248637387223766" lon="14.758581366615708"><ele>382.0</ele><time>2026-05-02T13:01:34.999Z</time></trkpt><trkpt lat="41.24873902851368" lon="14.75873485251147"><ele>382.0</ele><time>2026-05-02T13:01:35.999Z</time></trkpt><trkpt lat="41.248847062092274" lon="14.758838752758752"><ele>382.0</ele><time>2026-05-02T13:01:36.999Z</time></trkpt><trkpt lat="41.24893013143597" lon="14.758958834662556"><ele>382.0</ele><time>2026-05-02T13:01:37.999Z</time></trkpt><trkpt lat="41.24895691946741" lon="14.759127913064447"><ele>382.0</ele><time>2026-05-02T13:01:38.999Z</time></trkpt><trkpt lat="41.248913460285216" lon="14.759319331082912"><ele>382.0</ele><time>2026-05-02T13:01:39.999Z</time></trkpt><trkpt lat="41.24882299023641" lon="14.759489758234338"><ele>382.0</ele><time>2026-05-02T13:01:40.999Z</time></trkpt><trkpt lat="41.24872552964744" lon="14.759630410738538"><ele>386.0</ele><time>2026-05-02T13:01:41.999Z</time></trkpt><trkpt lat="41.248600768149174" lon="14.75973420960063"><ele>390.0</ele><time>2026-05-02T13:01:42.999Z</time></trkpt><trkpt lat="41.24844256933221" lon="14.759755603213364"><ele>394.0</ele><time>2026-05-02T13:01:43.999Z</time></trkpt><trkpt lat="41.24828878554202" lon="14.75980664015018"><ele>394.0</ele><time>2026-05-02T13:01:44.999Z</time></trkpt><trkpt lat="41.248144250349206" lon="14.759841711430013"><ele>394.0</ele><time>2026-05-02T13:01:45.999Z</time></trkpt><trkpt lat="41.24800047685712" lon="14.759885500078271"><ele>394.0</ele><time>2026-05-02T13:01:46.999Z</time></trkpt><trkpt lat="41.24786886121383" lon="14.759897265901325"><ele>394.0</ele><time>2026-05-02T13:01:47.999Z</time></trkpt><trkpt lat="41.24774331902899" lon="14.759908132191972"><ele>392.25</ele><time>2026-05-02T13:01:48.999Z</time></trkpt><trkpt lat="41.247629917829755" lon="14.759924844338432"><ele>390.5</ele><time>2026-05-02T13:01:49.999Z</time></trkpt><trkpt lat="41.2475165476556" lon="14.759948087695484"><ele>388.75</ele><time>2026-05-02T13:01:50.999Z</time></trkpt><trkpt lat="41.24739918700905" lon="14.759966126362748"><ele>387.0</ele><time>2026-05-02T13:01:52Z</time></trkpt><trkpt lat="41.24728274913745" lon="14.759990031830975"><ele>386.5</ele><time>2026-05-02T13:01:53Z</time></trkpt><trkpt lat="41.247164909646834" lon="14.760030379979677"><ele>386.0</ele><time>2026-05-02T13:01:54Z</time></trkpt><trkpt lat="41.24704083079869" lon="14.760090890811238"><ele>385.5</ele><time>2026-05-02T13:01:55Z</time></trkpt><trkpt lat="41.24691184478902" lon="14.76013038509741"><ele>385.0</ele><time>2026-05-02T13:01:56Z</time></trkpt><trkpt lat="41.24677779439158" lon="14.760150784425155"><ele>385.0</ele><time>2026-05-02T13:01:57Z</time></trkpt><trkpt lat="41.24664501601324" lon="14.760161290404657"><ele>385.0</ele><time>2026-05-02T13:01:58Z</time></trkpt><trkpt lat="41.24652234319009" lon="14.760124898922278"><ele>385.0</ele><time>2026-05-02T13:01:59Z</time></trkpt><trkpt lat="41.246412400304834" lon="14.760115992515598"><ele>385.0</ele><time>2026-05-02T13:02:00Z</time></trkpt><trkpt lat="41.24632035412498" lon="14.76005939443282"><ele>384.83333333333337</ele><time>2026-05-02T13:02:01Z</time></trkpt><trkpt lat="41.24622729954553" lon="14.76003626371694"><ele>384.6666666666667</ele><time>2026-05-02T13:02:02Z</time></trkpt><trkpt lat="41.24614902315186" lon="14.760008245253625"><ele>384.5</ele><time>2026-05-02T13:02:03Z</time></trkpt><trkpt lat="41.24607132157582" lon="14.76001864093015"><ele>384.33333333333337</ele><time>2026-05-02T13:02:04Z</time></trkpt><trkpt lat="41.24599566619234" lon="14.760069232744812"><ele>384.1666666666667</ele><time>2026-05-02T13:02:05Z</time></trkpt><trkpt lat="41.24594630653871" lon="14.760173623426441"><ele>384.0</ele><time>2026-05-02T13:02:06Z</time></trkpt><trkpt lat="41.24592422000239" lon="14.760284378185696"><ele>384.4</ele><time>2026-05-02T13:02:07Z</time></trkpt><trkpt lat="41.24592846696951" lon="14.76041805735558"><ele>384.79999999999995</ele><time>2026-05-02T13:02:08Z</time></trkpt><trkpt lat="41.24592363138703" lon="14.760577577059326"><ele>385.20000000000005</ele><time>2026-05-02T13:02:09Z</time></trkpt><trkpt lat="41.24590578307098" lon="14.760705782319143"><ele>385.6</ele><time>2026-05-02T13:02:10Z</time></trkpt><trkpt lat="41.245895278953036" lon="14.760860639967795"><ele>386.0</ele><time>2026-05-02T13:02:11Z</time></trkpt><trkpt lat="41.24588508032377" lon="14.761029467675437"><ele>387.0</ele><time>2026-05-02T13:02:12Z</time></trkpt><trkpt lat="41.24587505951531" lon="14.761199500115085"><ele>388.0</ele><time>2026-05-02T13:02:13Z</time></trkpt><trkpt lat="41.24586617933287" lon="14.761365693785004"><ele>389.0</ele><time>2026-05-02T13:02:14Z</time></trkpt><trkpt lat="41.24585809788283" lon="14.761520031958675"><ele>390.0</ele><time>2026-05-02T13:02:15Z</time></trkpt><trkpt lat="41.24585146921142" lon="14.761663947558361"><ele>390.0</ele><time>2026-05-02T13:02:16Z</time></trkpt><trkpt lat="41.24583658451297" lon="14.761789290626222"><ele>390.0</ele><time>2026-05-02T13:02:17Z</time></trkpt><trkpt lat="41.245807378172096" lon="14.761891346782095"><ele>390.0</ele><time>2026-05-02T13:02:18Z</time></trkpt><trkpt lat="41.24571142690771" lon="14.761933056120002"><ele>390.0</ele><time>2026-05-02T13:02:19Z</time></trkpt><trkpt lat="41.24561770154756" lon="14.761888776210535"><ele>390.0</ele><time>2026-05-02T13:02:20Z</time></trkpt><trkpt lat="41.245541550964845" lon="14.761770004912677"><ele>387.5</ele><time>2026-05-02T13:02:21Z</time></trkpt><trkpt lat="41.24542321246289" lon="14.761681980757986"><ele>385.0</ele><time>2026-05-02T13:02:22Z</time></trkpt><trkpt lat="41.245324510755154" lon="14.761589370935987"><ele>382.5</ele><time>2026-05-02T13:02:23Z</time></trkpt><trkpt lat="41.24520920772904" lon="14.761536764476151"><ele>380.0</ele><time>2026-05-02T13:02:24Z</time></trkpt><trkpt lat="41.245070998953736" lon="14.761528576060552"><ele>380.0</ele><time>2026-05-02T13:02:25Z</time></trkpt><trkpt lat="41.24494184722459" lon="14.761561921930312"><ele>380.0</ele><time>2026-05-02T13:02:26Z</time></trkpt><trkpt lat="41.24486054184769" lon="14.761605726079829"><ele>380.0</ele><time>2026-05-02T13:02:27Z</time></trkpt><trkpt lat="41.24480030972638" lon="14.761676290427127"><ele>380.0</ele><time>2026-05-02T13:02:28Z</time></trkpt><trkpt lat="41.244736915979665" lon="14.761757451381571"><ele>380.0</ele><time>2026-05-02T13:02:29Z</time></trkpt><trkpt lat="41.24465811729871" lon="14.761810763046709"><ele>379.25</ele><time>2026-05-02T13:02:30Z</time></trkpt><trkpt lat="41.24455240784807" lon="14.761812002156267"><ele>378.5</ele><time>2026-05-02T13:02:31Z</time></trkpt><trkpt lat="41.24441482793775" lon="14.76181186917911"><ele>377.75</ele><time>2026-05-02T13:02:32Z</time></trkpt><trkpt lat="41.24428182965401" lon="14.761819722581725"><ele>377.0</ele><time>2026-05-02T13:02:33Z</time></trkpt><trkpt lat="41.24414037194653" lon="14.76183954985844"><ele>380.6666666666667</ele><time>2026-05-02T13:02:34Z</time></trkpt><trkpt lat="41.24399114936288" lon="14.761880726985392"><ele>384.33333333333337</ele><time>2026-05-02T13:02:35Z</time></trkpt><trkpt lat="41.24384382183349" lon="14.761935171088366"><ele>388.0</ele><time>2026-05-02T13:02:36Z</time></trkpt><trkpt lat="41.24369582355955" lon="14.762002716455989"><ele>388.0</ele><time>2026-05-02T13:02:37Z</time></trkpt><trkpt lat="41.24354950453523" lon="14.762101659696842"><ele>388.0</ele><time>2026-05-02T13:02:38Z</time></trkpt><trkpt lat="41.24343566263746" lon="14.762205915992343"><ele>388.0</ele><time>2026-05-02T13:02:39Z</time></trkpt><trkpt lat="41.24333330825659" lon="14.762329834153816"><ele>388.0</ele><time>2026-05-02T13:02:40Z</time></trkpt><trkpt lat="41.24324266447316" lon="14.762484193985463"><ele>388.0</ele><time>2026-05-02T13:02:41Z</time></trkpt><trkpt lat="41.24319192020784" lon="14.76262870191258"><ele>388.0</ele><time>2026-05-02T13:02:42Z</time></trkpt><trkpt lat="41.243171166852136" lon="14.762788023261322"><ele>388.0</ele><time>2026-05-02T13:02:43Z</time></trkpt><trkpt lat="41.243160290011346" lon="14.762977832372105"><ele>388.0</ele><time>2026-05-02T13:02:44Z</time></trkpt><trkpt lat="41.243121504431066" lon="14.763168025952448"><ele>385.6666666666667</ele><time>2026-05-02T13:02:45Z</time></trkpt><trkpt lat="41.24303858067281" lon="14.763368092730419"><ele>383.33333333333337</ele><time>2026-05-02T13:02:46Z</time></trkpt><trkpt lat="41.24293253382711" lon="14.7635610709295"><ele>381.0</ele><time>2026-05-02T13:02:47Z</time></trkpt><trkpt lat="41.242882558250045" lon="14.763732406333354"><ele>381.0</ele><time>2026-05-02T13:02:48Z</time></trkpt><trkpt lat="41.24287812855874" lon="14.76387455415243"><ele>381.0</ele><time>2026-05-02T13:02:49Z</time></trkpt><trkpt lat="41.242915524423466" lon="14.7640447232919"><ele>381.0</ele><time>2026-05-02T13:02:50Z</time></trkpt><trkpt lat="41.24297747081457" lon="14.764277107026869"><ele>381.0</ele><time>2026-05-02T13:02:51Z</time></trkpt><trkpt lat="41.24306695335758" lon="14.764435692977148"><ele>384.0</ele><time>2026-05-02T13:02:52Z</time></trkpt><trkpt lat="41.24314816069171" lon="14.764548084180651"><ele>387.0</ele><time>2026-05-02T13:02:53Z</time></trkpt><trkpt lat="41.24326571766927" lon="14.764617746168733"><ele>390.0</ele><time>2026-05-02T13:02:54Z</time></trkpt><trkpt lat="41.24340618457812" lon="14.764659250077989"><ele>393.0</ele><time>2026-05-02T13:02:55Z</time></trkpt><trkpt lat="41.2435476094718" lon="14.764715599754428"><ele>393.0</ele><time>2026-05-02T13:02:56Z</time></trkpt><trkpt lat="41.24366899218661" lon="14.764795505944043"><ele>393.0</ele><time>2026-05-02T13:02:57Z</time></trkpt><trkpt lat="41.24376376581197" lon="14.764911983778907"><ele>393.0</ele><time>2026-05-02T13:02:58Z</time></trkpt><trkpt lat="41.24381691355256" lon="14.765044680291206"><ele>393.0</ele><time>2026-05-02T13:02:59Z</time></trkpt><trkpt lat="41.243834124325296" lon="14.765214228294607"><ele>392.0</ele><time>2026-05-02T13:03:00Z</time></trkpt><trkpt lat="41.24386690115751" lon="14.765417084029213"><ele>391.0</ele><time>2026-05-02T13:03:01Z</time></trkpt><trkpt lat="41.24386231323135" lon="14.765633454044279"><ele>390.0</ele><time>2026-05-02T13:03:02Z</time></trkpt><trkpt lat="41.24385720322641" lon="14.765832650862482"><ele>390.0</ele><time>2026-05-02T13:03:03Z</time></trkpt><trkpt lat="41.243868818203595" lon="14.765996878967576"><ele>390.0</ele><time>2026-05-02T13:03:04Z</time></trkpt><trkpt lat="41.24392266049408" lon="14.766172659422796"><ele>390.0</ele><time>2026-05-02T13:03:05Z</time></trkpt><trkpt lat="41.24403125530505" lon="14.766373309298558"><ele>393.0</ele><time>2026-05-02T13:03:06Z</time></trkpt><trkpt lat="41.244168481743706" lon="14.766563877042627"><ele>396.0</ele><time>2026-05-02T13:03:07Z</time></trkpt><trkpt lat="41.24429750574337" lon="14.766731847683632"><ele>399.0</ele><time>2026-05-02T13:03:08Z</time></trkpt><trkpt lat="41.24440872332705" lon="14.766911825836846"><ele>399.0</ele><time>2026-05-02T13:03:09Z</time></trkpt><trkpt lat="41.24447842291362" lon="14.76709524703668"><ele>399.0</ele><time>2026-05-02T13:03:10Z</time></trkpt><trkpt lat="41.2445166481578" lon="14.767247951142949"><ele>399.0</ele><time>2026-05-02T13:03:11Z</time></trkpt><trkpt lat="41.244524324110486" lon="14.76738831545835"><ele>399.0</ele><time>2026-05-02T13:03:12Z</time></trkpt><trkpt lat="41.244579481733645" lon="14.767488376716917"><ele>399.0</ele><time>2026-05-02T13:03:13Z</time></trkpt><trkpt lat="41.244632072289335" lon="14.767602013507915"><ele>399.0</ele><time>2026-05-02T13:03:14Z</time></trkpt><trkpt lat="41.24467921684535" lon="14.76774589967859"><ele>399.0</ele><time>2026-05-02T13:03:15Z</time></trkpt><trkpt lat="41.24474024363925" lon="14.76791942625304"><ele>399.0</ele><time>2026-05-02T13:03:16Z</time></trkpt><trkpt lat="41.24478933301445" lon="14.768076146591643"><ele>401.25</ele><time>2026-05-02T13:03:17Z</time></trkpt><trkpt lat="41.244845986949876" lon="14.768222462492822"><ele>403.5</ele><time>2026-05-02T13:03:18Z</time></trkpt><trkpt lat="41.24494241579394" lon="14.76833322293416"><ele>405.75</ele><time>2026-05-02T13:03:19Z</time></trkpt><trkpt lat="41.245047684742076" lon="14.7684692632162"><ele>408.0</ele><time>2026-05-02T13:03:20Z</time></trkpt><trkpt lat="41.24512973238166" lon="14.768610551023349"><ele>408.0</ele><time>2026-05-02T13:03:21Z</time></trkpt><trkpt lat="41.24522196860594" lon="14.768698785892834"><ele>408.0</ele><time>2026-05-02T13:03:22Z</time></trkpt><trkpt lat="41.24533031038606" lon="14.768752039273581"><ele>408.0</ele><time>2026-05-02T13:03:23Z</time></trkpt><trkpt lat="41.245466818291" lon="14.768719137892091"><ele>408.0</ele><time>2026-05-02T13:03:24Z</time></trkpt><trkpt lat="41.24559678316574" lon="14.768715861728978"><ele>410.25</ele><time>2026-05-02T13:03:25Z</time></trkpt><trkpt lat="41.245697839270264" lon="14.768755517979427"><ele>412.5</ele><time>2026-05-02T13:03:26Z</time></trkpt><trkpt lat="41.245779375280925" lon="14.768855087237833"><ele>414.75</ele><time>2026-05-02T13:03:27Z</time></trkpt><trkpt lat="41.245864286110695" lon="14.769003343519646"><ele>417.0</ele><time>2026-05-02T13:03:28Z</time></trkpt><trkpt lat="41.245931013814186" lon="14.76919088833993"><ele>417.0</ele><time>2026-05-02T13:03:29Z</time></trkpt><trkpt lat="41.24596064382722" lon="14.769358824853862"><ele>417.0</ele><time>2026-05-02T13:03:30Z</time></trkpt><trkpt lat="41.245967843215425" lon="14.769493908769224"><ele>417.0</ele><time>2026-05-02T13:03:31Z</time></trkpt><trkpt lat="41.2459473421912" lon="14.76961652797638"><ele>417.0</ele><time>2026-05-02T13:03:32Z</time></trkpt><trkpt lat="41.245864116677616" lon="14.769738233351568"><ele>418.33333333333337</ele><time>2026-05-02T13:03:33Z</time></trkpt><trkpt lat="41.24581799849241" lon="14.769926140270156"><ele>419.6666666666667</ele><time>2026-05-02T13:03:34Z</time></trkpt><trkpt lat="41.24577995471397" lon="14.770125784281314"><ele>421.0</ele><time>2026-05-02T13:03:35Z</time></trkpt><trkpt lat="41.24576130247961" lon="14.770343205313646"><ele>421.75</ele><time>2026-05-02T13:03:36Z</time></trkpt><trkpt lat="41.245713039714175" lon="14.770504013305757"><ele>422.5</ele><time>2026-05-02T13:03:37Z</time></trkpt><trkpt lat="41.24566240908582" lon="14.77064995051245"><ele>423.25</ele><time>2026-05-02T13:03:38Z</time></trkpt><trkpt lat="41.24555999137946" lon="14.770758739165794"><ele>424.0</ele><time>2026-05-02T13:03:39Z</time></trkpt><trkpt lat="41.245424120019415" lon="14.77083147873241"><ele>423.6666666666667</ele><time>2026-05-02T13:03:40Z</time></trkpt><trkpt lat="41.245309678802904" lon="14.770948132915704"><ele>423.33333333333337</ele><time>2026-05-02T13:03:41Z</time></trkpt><trkpt lat="41.24521878276472" lon="14.771104078327637"><ele>423.0</ele><time>2026-05-02T13:03:42Z</time></trkpt><trkpt lat="41.24514972001192" lon="14.771320210717452"><ele>423.0</ele><time>2026-05-02T13:03:43Z</time></trkpt><trkpt lat="41.245114880540505" lon="14.771547661397696"><ele>423.0</ele><time>2026-05-02T13:03:44Z</time></trkpt><trkpt lat="41.24506054037566" lon="14.771702092785741"><ele>423.0</ele><time>2026-05-02T13:03:45Z</time></trkpt><trkpt lat="41.245002895283925" lon="14.771830347457875"><ele>423.0</ele><time>2026-05-02T13:03:46Z</time></trkpt><trkpt lat="41.24490046323435" lon="14.771927935497098"><ele>422.66666666666663</ele><time>2026-05-02T13:03:47Z</time></trkpt><trkpt lat="41.24474181024342" lon="14.77208879258126"><ele>422.3333333333333</ele><time>2026-05-02T13:03:48Z</time></trkpt><trkpt lat="41.244606403097016" lon="14.772267996634508"><ele>422.0</ele><time>2026-05-02T13:03:49Z</time></trkpt><trkpt lat="41.24450118119037" lon="14.772442227733535"><ele>422.0</ele><time>2026-05-02T13:03:50Z</time></trkpt><trkpt lat="41.244417006997686" lon="14.77257584432296"><ele>422.0</ele><time>2026-05-02T13:03:51Z</time></trkpt><trkpt lat="41.244329746361345" lon="14.772685705855345"><ele>422.0</ele><time>2026-05-02T13:03:52Z</time></trkpt><trkpt lat="41.24424084909891" lon="14.772805608140162"><ele>422.0</ele><time>2026-05-02T13:03:53Z</time></trkpt><trkpt lat="41.244159629067425" lon="14.772947901928505"><ele>423.75</ele><time>2026-05-02T13:03:54Z</time></trkpt><trkpt lat="41.24409011596752" lon="14.773110499677966"><ele>425.5</ele><time>2026-05-02T13:03:55Z</time></trkpt><trkpt lat="41.24405042240632" lon="14.7732783341032"><ele>427.25</ele><time>2026-05-02T13:03:56Z</time></trkpt><trkpt lat="41.24403602404419" lon="14.77345010865502"><ele>429.0</ele><time>2026-05-02T13:03:57Z</time></trkpt><trkpt lat="41.24404153655645" lon="14.773622258664696"><ele>429.0</ele><time>2026-05-02T13:03:58Z</time></trkpt><trkpt lat="41.244071608015254" lon="14.77379879733838"><ele>429.0</ele><time>2026-05-02T13:03:59Z</time></trkpt><trkpt lat="41.2441424175184" lon="14.77399408544433"><ele>429.0</ele><time>2026-05-02T13:04:00Z</time></trkpt><trkpt lat="41.244217482832106" lon="14.774168523027694"><ele>429.0</ele><time>2026-05-02T13:04:01Z</time></trkpt><trkpt lat="41.244286694815905" lon="14.77430133630746"><ele>429.0</ele><time>2026-05-02T13:04:02Z</time></trkpt><trkpt lat="41.24437051099301" lon="14.77440431602077"><ele>429.0</ele><time>2026-05-02T13:04:03Z</time></trkpt><trkpt lat="41.2444836096376" lon="14.774487161649699"><ele>429.0</ele><time>2026-05-02T13:04:04Z</time></trkpt><trkpt lat="41.24457296343914" lon="14.77456525431674"><ele>428.2</ele><time>2026-05-02T13:04:05Z</time></trkpt><trkpt lat="41.24463479639812" lon="14.774603814419917"><ele>427.4</ele><time>2026-05-02T13:04:06Z</time></trkpt><trkpt lat="41.24466017325158" lon="14.774681556649773"><ele>426.6</ele><time>2026-05-02T13:04:07Z</time></trkpt><trkpt lat="41.24465631264078" lon="14.774846512283109"><ele>425.8</ele><time>2026-05-02T13:04:08Z</time></trkpt><trkpt lat="41.24471380398601" lon="14.775007014634758"><ele>425.0</ele><time>2026-05-02T13:04:09Z</time></trkpt><trkpt lat="41.24477544450297" lon="14.775134051148884"><ele>426.5</ele><time>2026-05-02T13:04:10Z</time></trkpt><trkpt lat="41.244860965950835" lon="14.775228801916727"><ele>428.0</ele><time>2026-05-02T13:04:11Z</time></trkpt><trkpt lat="41.24493184168358" lon="14.775295787981497"><ele>429.5</ele><time>2026-05-02T13:04:12Z</time></trkpt><trkpt lat="41.245018988432214" lon="14.775374157773701"><ele>431.0</ele><time>2026-05-02T13:04:13Z</time></trkpt><trkpt lat="41.24515716880579" lon="14.775485152297716"><ele>431.0</ele><time>2026-05-02T13:04:14Z</time></trkpt><trkpt lat="41.245331220634846" lon="14.775615498199215"><ele>431.0</ele><time>2026-05-02T13:04:15Z</time></trkpt><trkpt lat="41.245441811091005" lon="14.77572931772341"><ele>431.0</ele><time>2026-05-02T13:04:16Z</time></trkpt><trkpt lat="41.24549060517685" lon="14.775833914972036"><ele>431.0</ele><time>2026-05-02T13:04:17Z</time></trkpt><trkpt lat="41.24550858568237" lon="14.775981122699882"><ele>431.25</ele><time>2026-05-02T13:04:18Z</time></trkpt><trkpt lat="41.24552494632985" lon="14.776175432148259"><ele>431.5</ele><time>2026-05-02T13:04:19Z</time></trkpt><trkpt lat="41.24552021238845" lon="14.77637210829467"><ele>431.75</ele><time>2026-05-02T13:04:20Z</time></trkpt><trkpt lat="41.245474299497694" lon="14.776553742391775"><ele>432.0</ele><time>2026-05-02T13:04:21Z</time></trkpt><trkpt lat="41.24539464459049" lon="14.77677560391346"><ele>434.5</ele><time>2026-05-02T13:04:22Z</time></trkpt><trkpt lat="41.245307158442984" lon="14.777054944136736"><ele>437.0</ele><time>2026-05-02T13:04:23Z</time></trkpt><trkpt lat="41.24521550883805" lon="14.777347899571849"><ele>437.0</ele><time>2026-05-02T13:04:24Z</time></trkpt><trkpt lat="41.245152758062645" lon="14.777615936401991"><ele>437.0</ele><time>2026-05-02T13:04:25Z</time></trkpt><trkpt lat="41.24511693901313" lon="14.777829085937633"><ele>437.0</ele><time>2026-05-02T13:04:26Z</time></trkpt><trkpt lat="41.24510358941098" lon="14.778014796610522"><ele>437.5</ele><time>2026-05-02T13:04:27Z</time></trkpt><trkpt lat="41.2451275926531" lon="14.778162430514977"><ele>438.0</ele><time>2026-05-02T13:04:28Z</time></trkpt><trkpt lat="41.24519318600397" lon="14.778281928808257"><ele>438.5</ele><time>2026-05-02T13:04:29Z</time></trkpt><trkpt lat="41.24532552404638" lon="14.778360304097715"><ele>439.0</ele><time>2026-05-02T13:04:30Z</time></trkpt><trkpt lat="41.24548955487575" lon="14.77843801568808"><ele>440.0</ele><time>2026-05-02T13:04:31Z</time></trkpt><trkpt lat="41.2456847250269" lon="14.77854042944643"><ele>441.0</ele><time>2026-05-02T13:04:32Z</time></trkpt><trkpt lat="41.245878980298045" lon="14.77866584424026"><ele>442.0</ele><time>2026-05-02T13:04:33Z</time></trkpt><trkpt lat="41.246007100205354" lon="14.778767240394837"><ele>442.0</ele><time>2026-05-02T13:04:34Z</time></trkpt><trkpt lat="41.24609525493568" lon="14.778864405338902"><ele>442.00000000000006</ele><time>2026-05-02T13:04:35Z</time></trkpt><trkpt lat="41.24611428935894" lon="14.778969927340869"><ele>442.00000000000006</ele><time>2026-05-02T13:04:36Z</time></trkpt><trkpt lat="41.24609869697013" lon="14.779110519434395"><ele>442.0</ele><time>2026-05-02T13:04:37Z</time></trkpt><trkpt lat="41.24602191077723" lon="14.779253756687154"><ele>442.0</ele><time>2026-05-02T13:04:38Z</time></trkpt><trkpt lat="41.24591649605558" lon="14.779398969080741"><ele>443.0</ele><time>2026-05-02T13:04:39Z</time></trkpt><trkpt lat="41.245767588223615" lon="14.77953092834421"><ele>444.0</ele><time>2026-05-02T13:04:40Z</time></trkpt><trkpt lat="41.245610670188846" lon="14.779664731264168"><ele>445.0</ele><time>2026-05-02T13:04:41Z</time></trkpt><trkpt lat="41.245493264764825" lon="14.779748273497283"><ele>443.0</ele><time>2026-05-02T13:04:42Z</time></trkpt><trkpt lat="41.24542707787184" lon="14.779847749354051"><ele>441.0</ele><time>2026-05-02T13:04:43Z</time></trkpt><trkpt lat="41.24540368818456" lon="14.779999281522295"><ele>439.0</ele><time>2026-05-02T13:04:44Z</time></trkpt><trkpt lat="41.245413982904665" lon="14.780178938631758"><ele>437.0</ele><time>2026-05-02T13:04:45Z</time></trkpt><trkpt lat="41.245478584556786" lon="14.780354075856996"><ele>436.3333333333333</ele><time>2026-05-02T13:04:46Z</time></trkpt><trkpt lat="41.24559644333507" lon="14.780525234313368"><ele>435.66666666666663</ele><time>2026-05-02T13:04:47Z</time></trkpt><trkpt lat="41.24575097858151" lon="14.780691653848066"><ele>435.0</ele><time>2026-05-02T13:04:48Z</time></trkpt><trkpt lat="41.24592668573333" lon="14.780838164066234"><ele>436.75</ele><time>2026-05-02T13:04:49Z</time></trkpt><trkpt lat="41.246076517194496" lon="14.780928894401974"><ele>438.5</ele><time>2026-05-02T13:04:50Z</time></trkpt><trkpt lat="41.24621461966483" lon="14.780954060193215"><ele>440.25</ele><time>2026-05-02T13:04:51Z</time></trkpt><trkpt lat="41.246288911875936" lon="14.781036466393743"><ele>442.0</ele><time>2026-05-02T13:04:52Z</time></trkpt><trkpt lat="41.246353994738875" lon="14.78111547334497"><ele>442.00000000000006</ele><time>2026-05-02T13:04:53Z</time></trkpt><trkpt lat="41.24633800026989" lon="14.781248093215966"><ele>442.0</ele><time>2026-05-02T13:04:54Z</time></trkpt><trkpt lat="41.24633028840483" lon="14.781353398055854"><ele>442.0</ele><time>2026-05-02T13:04:55Z</time></trkpt><trkpt lat="41.246297582241226" lon="14.78142576692171"><ele>442.0</ele><time>2026-05-02T13:04:56Z</time></trkpt><trkpt lat="41.24630357933957" lon="14.781536956927534"><ele>442.00000000000006</ele><time>2026-05-02T13:05:12Z</time></trkpt><trkpt lat="41.246263129338445" lon="14.781648840199516"><ele>442.0</ele><time>2026-05-02T13:05:14Z</time></trkpt><trkpt lat="41.24623007043487" lon="14.781740386528432"><ele>442.0</ele><time>2026-05-02T13:05:16Z</time></trkpt><trkpt lat="41.24617206822519" lon="14.781831790092196"><ele>442.00000000000006</ele><time>2026-05-02T13:05:18Z</time></trkpt><trkpt lat="41.24607822170868" lon="14.781896334925817"><ele>442.00000000000006</ele><time>2026-05-02T13:05:20Z</time></trkpt><trkpt lat="41.245974094707364" lon="14.781935707369202"><ele>442.0</ele><time>2026-05-02T13:05:22Z</time></trkpt><trkpt lat="41.2458851238468" lon="14.781975875037862"><ele>442.0</ele><time>2026-05-02T13:05:24Z</time></trkpt><trkpt lat="41.2457867834231" lon="14.782015636659159"><ele>441.7142857142857</ele><time>2026-05-02T13:05:26Z</time></trkpt><trkpt lat="41.245725079649276" lon="14.782041538635912"><ele>441.42857142857144</ele><time>2026-05-02T13:05:27Z</time></trkpt><trkpt lat="41.24565901401778" lon="14.782064059807693"><ele>441.1428571428571</ele><time>2026-05-02T13:05:28Z</time></trkpt><trkpt lat="41.24559218164368" lon="14.782095045850694"><ele>440.8571428571429</ele><time>2026-05-02T13:05:29Z</time></trkpt><trkpt lat="41.24553001654528" lon="14.782139342680178"><ele>440.57142857142856</ele><time>2026-05-02T13:05:30Z</time></trkpt><trkpt lat="41.24546849274146" lon="14.782188904683064"><ele>440.2857142857143</ele><time>2026-05-02T13:05:31Z</time></trkpt><trkpt lat="41.245408382150885" lon="14.782241320805515"><ele>440.0</ele><time>2026-05-02T13:05:32Z</time></trkpt><trkpt lat="41.24535221471687" lon="14.782299436705271"><ele>439.99999999999994</ele><time>2026-05-02T13:05:33Z</time></trkpt><trkpt lat="41.245295675416614" lon="14.782365362213874"><ele>440.0</ele><time>2026-05-02T13:05:34Z</time></trkpt><trkpt lat="41.245236911425586" lon="14.78242924733793"><ele>440.0</ele><time>2026-05-02T13:05:35Z</time></trkpt><trkpt lat="41.24517755106406" lon="14.782492545564446"><ele>440.0</ele><time>2026-05-02T13:05:36Z</time></trkpt><trkpt lat="41.245112485933944" lon="14.782553093234716"><ele>439.99999999999994</ele><time>2026-05-02T13:05:37Z</time></trkpt><trkpt lat="41.24504419223986" lon="14.782610751432168"><ele>440.0</ele><time>2026-05-02T13:05:38Z</time></trkpt><trkpt lat="41.244975285197704" lon="14.782671104504699"><ele>440.16666666666663</ele><time>2026-05-02T13:05:39Z</time></trkpt><trkpt lat="41.24490966620768" lon="14.782736615633727"><ele>440.3333333333333</ele><time>2026-05-02T13:05:40Z</time></trkpt><trkpt lat="41.244838281169436" lon="14.782790549624618"><ele>440.5</ele><time>2026-05-02T13:05:41Z</time></trkpt><trkpt lat="41.24477836211494" lon="14.782866590642268"><ele>440.66666666666663</ele><time>2026-05-02T13:05:42Z</time></trkpt><trkpt lat="41.24472736747459" lon="14.782956724197257"><ele>440.8333333333333</ele><time>2026-05-02T13:05:43Z</time></trkpt><trkpt lat="41.24467922544764" lon="14.783052258180746"><ele>441.0</ele><time>2026-05-02T13:05:44Z</time></trkpt><trkpt lat="41.24464592413646" lon="14.78315732466034"><ele>439.5</ele><time>2026-05-02T13:05:45Z</time></trkpt><trkpt lat="41.24459402555433" lon="14.783245236464623"><ele>438.0</ele><time>2026-05-02T13:05:46Z</time></trkpt><trkpt lat="41.244551347177314" lon="14.783335254254588"><ele>436.5</ele><time>2026-05-02T13:05:47Z</time></trkpt><trkpt lat="41.24450826218033" lon="14.783435916212651"><ele>435.0</ele><time>2026-05-02T13:05:48Z</time></trkpt><trkpt lat="41.24446351419831" lon="14.78354810100033"><ele>433.5</ele><time>2026-05-02T13:05:49Z</time></trkpt><trkpt lat="41.24442050984123" lon="14.783663365075395"><ele>432.0</ele><time>2026-05-02T13:05:50Z</time></trkpt><trkpt lat="41.24439184381052" lon="14.783778532873601"><ele>431.6</ele><time>2026-05-02T13:05:51Z</time></trkpt><trkpt lat="41.24436835289772" lon="14.783891133504232"><ele>431.20000000000005</ele><time>2026-05-02T13:05:52Z</time></trkpt><trkpt lat="41.24438333503632" lon="14.784033252334414"><ele>430.8</ele><time>2026-05-02T13:05:53Z</time></trkpt><trkpt lat="41.244434084134504" lon="14.784165831645351"><ele>430.4</ele><time>2026-05-02T13:05:54Z</time></trkpt><trkpt lat="41.24450513288103" lon="14.784288797120505"><ele>430.0</ele><time>2026-05-02T13:05:55Z</time></trkpt><trkpt lat="41.24457594983181" lon="14.784400249344161"><ele>429.5</ele><time>2026-05-02T13:05:56Z</time></trkpt><trkpt lat="41.2446507010283" lon="14.7845178932831"><ele>429.0</ele><time>2026-05-02T13:05:57Z</time></trkpt><trkpt lat="41.24473040380932" lon="14.784643330186775"><ele>428.5</ele><time>2026-05-02T13:05:58Z</time></trkpt><trkpt lat="41.244806305453295" lon="14.784772045468957"><ele>428.0</ele><time>2026-05-02T13:05:59Z</time></trkpt><trkpt lat="41.24486059433034" lon="14.784901887159199"><ele>428.79999999999995</ele><time>2026-05-02T13:06:00Z</time></trkpt><trkpt lat="41.24488015830365" lon="14.785037358464141"><ele>429.59999999999997</ele><time>2026-05-02T13:06:01Z</time></trkpt><trkpt lat="41.2448637375751" lon="14.785162937519114"><ele>430.40000000000003</ele><time>2026-05-02T13:06:02Z</time></trkpt><trkpt lat="41.244791902181454" lon="14.785277282312634"><ele>431.20000000000005</ele><time>2026-05-02T13:06:03Z</time></trkpt><trkpt lat="41.24468346182152" lon="14.785357820023469"><ele>432.0</ele><time>2026-05-02T13:06:04Z</time></trkpt><trkpt lat="41.244544269977105" lon="14.785359337078251"><ele>432.0</ele><time>2026-05-02T13:06:05Z</time></trkpt><trkpt lat="41.24442258043679" lon="14.785360968484849"><ele>432.0</ele><time>2026-05-02T13:06:06Z</time></trkpt><trkpt lat="41.24423818965153" lon="14.78535971015404"><ele>432.0</ele><time>2026-05-02T13:06:07Z</time></trkpt><trkpt lat="41.24406320082467" lon="14.785438669661529"><ele>428.66666666666663</ele><time>2026-05-02T13:06:08Z</time></trkpt><trkpt lat="41.2438620239874" lon="14.785515540202582"><ele>425.3333333333333</ele><time>2026-05-02T13:06:09Z</time></trkpt><trkpt lat="41.243680744984395" lon="14.785630665153882"><ele>422.0</ele><time>2026-05-02T13:06:10Z</time></trkpt><trkpt lat="41.243535773889306" lon="14.785753407081147"><ele>422.0</ele><time>2026-05-02T13:06:11Z</time></trkpt><trkpt lat="41.24341937545882" lon="14.785885875859751"><ele>422.0</ele><time>2026-05-02T13:06:12Z</time></trkpt><trkpt lat="41.24330577218486" lon="14.786062981813675"><ele>422.0</ele><time>2026-05-02T13:06:13Z</time></trkpt><trkpt lat="41.24317374748413" lon="14.786267435343243"><ele>420.0</ele><time>2026-05-02T13:06:14Z</time></trkpt><trkpt lat="41.243040246604586" lon="14.78645052630015"><ele>418.0</ele><time>2026-05-02T13:06:15Z</time></trkpt><trkpt lat="41.24290531456668" lon="14.786603120660489"><ele>416.0</ele><time>2026-05-02T13:06:16Z</time></trkpt><trkpt lat="41.242778302040364" lon="14.786740697602397"><ele>417.0</ele><time>2026-05-02T13:06:17Z</time></trkpt><trkpt lat="41.24263804968553" lon="14.786868433151275"><ele>418.0</ele><time>2026-05-02T13:06:18Z</time></trkpt><trkpt lat="41.242479035316485" lon="14.786981542920865"><ele>419.0</ele><time>2026-05-02T13:06:19Z</time></trkpt><trkpt lat="41.2422982935239" lon="14.787049990449445"><ele>417.0</ele><time>2026-05-02T13:06:20Z</time></trkpt><trkpt lat="41.2421136879486" lon="14.787107385357793"><ele>415.0</ele><time>2026-05-02T13:06:21Z</time></trkpt><trkpt lat="41.24191911215752" lon="14.787159043417937"><ele>413.0</ele><time>2026-05-02T13:06:22Z</time></trkpt><trkpt lat="41.24173770917102" lon="14.787172978325955"><ele>413.0</ele><time>2026-05-02T13:06:23Z</time></trkpt><trkpt lat="41.2415549859565" lon="14.787213420617396"><ele>413.0</ele><time>2026-05-02T13:06:24Z</time></trkpt><trkpt lat="41.2413672644984" lon="14.787320642768512"><ele>413.0</ele><time>2026-05-02T13:06:25Z</time></trkpt><trkpt lat="41.24115506050583" lon="14.787494235008976"><ele>409.5</ele><time>2026-05-02T13:06:26Z</time></trkpt><trkpt lat="41.240904943860784" lon="14.787692382227988"><ele>406.0</ele><time>2026-05-02T13:06:27Z</time></trkpt><trkpt lat="41.240630377652465" lon="14.78788836159427"><ele>405.5</ele><time>2026-05-02T13:06:28Z</time></trkpt><trkpt lat="41.240386162579824" lon="14.788059062717615"><ele>405.0</ele><time>2026-05-02T13:06:29Z</time></trkpt><trkpt lat="41.24019589183722" lon="14.788206199944824"><ele>405.0</ele><time>2026-05-02T13:06:30Z</time></trkpt><trkpt lat="41.240016458594404" lon="14.788328820514224"><ele>405.0</ele><time>2026-05-02T13:06:31Z</time></trkpt><trkpt lat="41.23984220300439" lon="14.788445995510875"><ele>405.0</ele><time>2026-05-02T13:06:32Z</time></trkpt><trkpt lat="41.23968488008939" lon="14.788546240440892"><ele>403.66666666666663</ele><time>2026-05-02T13:06:33Z</time></trkpt><trkpt lat="41.23953099013314" lon="14.788634964096659"><ele>402.3333333333333</ele><time>2026-05-02T13:06:34Z</time></trkpt><trkpt lat="41.239358942683154" lon="14.788650550786855"><ele>401.0</ele><time>2026-05-02T13:06:35Z</time></trkpt><trkpt lat="41.2391876076964" lon="14.788702841962666"><ele>401.0</ele><time>2026-05-02T13:06:36Z</time></trkpt><trkpt lat="41.23902877925598" lon="14.788727149627606"><ele>401.0</ele><time>2026-05-02T13:06:37Z</time></trkpt><trkpt lat="41.23888284019278" lon="14.788758327056797"><ele>401.0</ele><time>2026-05-02T13:06:38Z</time></trkpt><trkpt lat="41.238756302455926" lon="14.788793417172233"><ele>401.0</ele><time>2026-05-02T13:06:39Z</time></trkpt><trkpt lat="41.23864416576885" lon="14.788808214319527"><ele>401.3333333333333</ele><time>2026-05-02T13:06:40Z</time></trkpt><trkpt lat="41.23855674585154" lon="14.788979678914238"><ele>401.66666666666663</ele><time>2026-05-02T13:06:41Z</time></trkpt><trkpt lat="41.23846394286828" lon="14.7891444400332"><ele>402.0</ele><time>2026-05-02T13:06:42Z</time></trkpt><trkpt lat="41.23836340580458" lon="14.789335629129928"><ele>401.33333333333337</ele><time>2026-05-02T13:06:43Z</time></trkpt><trkpt lat="41.2382647069066" lon="14.7895282764726"><ele>400.6666666666667</ele><time>2026-05-02T13:06:44Z</time></trkpt><trkpt lat="41.238142775765944" lon="14.789700829070327"><ele>400.0</ele><time>2026-05-02T13:06:45Z</time></trkpt><trkpt lat="41.238039950548" lon="14.789862195914328"><ele>400.0</ele><time>2026-05-02T13:06:46Z</time></trkpt><trkpt lat="41.23792922271709" lon="14.79003090314853"><ele>400.0</ele><time>2026-05-02T13:06:47Z</time></trkpt><trkpt lat="41.237786758301446" lon="14.790164773020226"><ele>400.0</ele><time>2026-05-02T13:06:48Z</time></trkpt><trkpt lat="41.237638072146424" lon="14.790274772840748"><ele>399.0</ele><time>2026-05-02T13:06:49Z</time></trkpt><trkpt lat="41.23750482362304" lon="14.790396100855434"><ele>398.0</ele><time>2026-05-02T13:06:50Z</time></trkpt><trkpt lat="41.23738268326406" lon="14.790513736614974"><ele>397.0</ele><time>2026-05-02T13:06:51Z</time></trkpt><trkpt lat="41.23727481779648" lon="14.790623564333222"><ele>396.0</ele><time>2026-05-02T13:06:52Z</time></trkpt><trkpt lat="41.23719410510586" lon="14.790746153664966"><ele>396.0</ele><time>2026-05-02T13:06:53Z</time></trkpt><trkpt lat="41.237132057431296" lon="14.79089312941835"><ele>396.0</ele><time>2026-05-02T13:06:54Z</time></trkpt><trkpt lat="41.237070576899804" lon="14.791037108521316"><ele>396.0</ele><time>2026-05-02T13:06:55Z</time></trkpt><trkpt lat="41.23712610070977" lon="14.791237642960667"><ele>396.0</ele><time>2026-05-02T13:06:56Z</time></trkpt><trkpt lat="41.23716501474948" lon="14.7914132907326"><ele>395.75</ele><time>2026-05-02T13:06:57Z</time></trkpt><trkpt lat="41.23718446701598" lon="14.791593294640926"><ele>395.5</ele><time>2026-05-02T13:06:58Z</time></trkpt><trkpt lat="41.23724937044112" lon="14.791739598304302"><ele>395.25</ele><time>2026-05-02T13:06:59Z</time></trkpt><trkpt lat="41.237378287908406" lon="14.791839278921264"><ele>395.0</ele><time>2026-05-02T13:07:00Z</time></trkpt><trkpt lat="41.237525349407" lon="14.791939982179636"><ele>394.0</ele><time>2026-05-02T13:07:01Z</time></trkpt><trkpt lat="41.23766631599848" lon="14.792089867015436"><ele>393.0</ele><time>2026-05-02T13:07:02Z</time></trkpt><trkpt lat="41.237762058704185" lon="14.792227066953316"><ele>392.0</ele><time>2026-05-02T13:07:03Z</time></trkpt><trkpt lat="41.237833377912516" lon="14.792391627546415"><ele>392.0</ele><time>2026-05-02T13:07:04Z</time></trkpt><trkpt lat="41.237876270321735" lon="14.792586028431396"><ele>392.0</ele><time>2026-05-02T13:07:05Z</time></trkpt><trkpt lat="41.23791390124499" lon="14.792835270333137"><ele>392.0</ele><time>2026-05-02T13:07:06Z</time></trkpt><trkpt lat="41.237933828631256" lon="14.793111525373964"><ele>392.66666666666663</ele><time>2026-05-02T13:07:07Z</time></trkpt><trkpt lat="41.237974091468125" lon="14.793366430869371"><ele>393.33333333333337</ele><time>2026-05-02T13:07:08Z</time></trkpt><trkpt lat="41.238025862636526" lon="14.793582846468214"><ele>394.0</ele><time>2026-05-02T13:07:09Z</time></trkpt><trkpt lat="41.23807778809907" lon="14.793771942711286"><ele>393.2</ele><time>2026-05-02T13:07:10Z</time></trkpt><trkpt lat="41.238096728870865" lon="14.793901052751346"><ele>392.4</ele><time>2026-05-02T13:07:11Z</time></trkpt><trkpt lat="41.238085795822705" lon="14.794010609730595"><ele>391.6</ele><time>2026-05-02T13:07:12Z</time></trkpt><trkpt lat="41.238004431975206" lon="14.79408364442821"><ele>390.8</ele><time>2026-05-02T13:07:13Z</time></trkpt><trkpt lat="41.23788943661602" lon="14.794113004261947"><ele>390.0</ele><time>2026-05-02T13:07:14Z</time></trkpt><trkpt lat="41.23775238034988" lon="14.794133766354236"><ele>390.0</ele><time>2026-05-02T13:07:15Z</time></trkpt><trkpt lat="41.23762268121539" lon="14.794195531849555"><ele>390.0</ele><time>2026-05-02T13:07:16Z</time></trkpt><trkpt lat="41.23752518779944" lon="14.794331823121912"><ele>390.0</ele><time>2026-05-02T13:07:17Z</time></trkpt><trkpt lat="41.237460327625556" lon="14.794513262424687"><ele>390.0</ele><time>2026-05-02T13:07:18Z</time></trkpt><trkpt lat="41.23744237770321" lon="14.794694158921288"><ele>389.0</ele><time>2026-05-02T13:07:19Z</time></trkpt><trkpt lat="41.23747747345439" lon="14.794880688234775"><ele>388.0</ele><time>2026-05-02T13:07:20Z</time></trkpt><trkpt lat="41.237538044422465" lon="14.795077663508787"><ele>387.0</ele><time>2026-05-02T13:07:21Z</time></trkpt><trkpt lat="41.237594976454226" lon="14.795289339001627"><ele>385.5</ele><time>2026-05-02T13:07:22Z</time></trkpt><trkpt lat="41.237591051906286" lon="14.79550004050021"><ele>384.0</ele><time>2026-05-02T13:07:23Z</time></trkpt><trkpt lat="41.23759984353828" lon="14.79569510708848"><ele>382.5</ele><time>2026-05-02T13:07:24Z</time></trkpt><trkpt lat="41.23761161656633" lon="14.795866915862153"><ele>381.0</ele><time>2026-05-02T13:07:25Z</time></trkpt><trkpt lat="41.237601150275" lon="14.795992898707361"><ele>380.5</ele><time>2026-05-02T13:07:26Z</time></trkpt><trkpt lat="41.23757420618779" lon="14.796101984322068"><ele>380.0</ele><time>2026-05-02T13:07:27Z</time></trkpt><trkpt lat="41.23745466705487" lon="14.796173373295353"><ele>379.5</ele><time>2026-05-02T13:07:28Z</time></trkpt><trkpt lat="41.23731266992097" lon="14.796221248767154"><ele>379.0</ele><time>2026-05-02T13:07:29Z</time></trkpt><trkpt lat="41.237143881763544" lon="14.79628228638602"><ele>379.0</ele><time>2026-05-02T13:07:30Z</time></trkpt><trkpt lat="41.23701874631978" lon="14.79637394998137"><ele>379.0</ele><time>2026-05-02T13:07:31Z</time></trkpt><trkpt lat="41.2369213178962" lon="14.796462961220932"><ele>379.0</ele><time>2026-05-02T13:07:32Z</time></trkpt><trkpt lat="41.236824455488865" lon="14.796627621803994"><ele>379.0</ele><time>2026-05-02T13:07:33Z</time></trkpt><trkpt lat="41.23674826677697" lon="14.796786312372117"><ele>375.3333333333333</ele><time>2026-05-02T13:07:34Z</time></trkpt><trkpt lat="41.236682674057256" lon="14.796981676383579"><ele>371.6666666666667</ele><time>2026-05-02T13:07:35Z</time></trkpt><trkpt lat="41.23667393063024" lon="14.797178987640853"><ele>368.0</ele><time>2026-05-02T13:07:36Z</time></trkpt><trkpt lat="41.23663893550205" lon="14.797363082786148"><ele>368.0</ele><time>2026-05-02T13:07:37Z</time></trkpt><trkpt lat="41.23659271237332" lon="14.79751482047346"><ele>368.0</ele><time>2026-05-02T13:07:38Z</time></trkpt><trkpt lat="41.23649926487538" lon="14.797680620263387"><ele>368.0</ele><time>2026-05-02T13:07:39Z</time></trkpt><trkpt lat="41.236371682184505" lon="14.797878309780158"><ele>369.0</ele><time>2026-05-02T13:07:40Z</time></trkpt><trkpt lat="41.23628970841833" lon="14.798043103879726"><ele>370.0</ele><time>2026-05-02T13:07:41Z</time></trkpt><trkpt lat="41.23623688193478" lon="14.79818801795405"><ele>371.0</ele><time>2026-05-02T13:07:42Z</time></trkpt><trkpt lat="41.23621211658859" lon="14.798334352445917"><ele>372.0</ele><time>2026-05-02T13:07:43Z</time></trkpt><trkpt lat="41.23623060390778" lon="14.798483636460087"><ele>370.75</ele><time>2026-05-02T13:07:44Z</time></trkpt><trkpt lat="41.23628532038331" lon="14.798638842041616"><ele>369.5</ele><time>2026-05-02T13:07:45Z</time></trkpt><trkpt lat="41.236363051126354" lon="14.798779298937047"><ele>368.25</ele><time>2026-05-02T13:07:46Z</time></trkpt><trkpt lat="41.2363973425626" lon="14.798925666956723"><ele>367.0</ele><time>2026-05-02T13:07:47Z</time></trkpt><trkpt lat="41.23638566687808" lon="14.799069617898901"><ele>367.0</ele><time>2026-05-02T13:07:48Z</time></trkpt><trkpt lat="41.236335983919254" lon="14.799222966105695"><ele>367.0</ele><time>2026-05-02T13:07:49Z</time></trkpt><trkpt lat="41.2362444256937" lon="14.799362561806639"><ele>367.0</ele><time>2026-05-02T13:07:50Z</time></trkpt><trkpt lat="41.23611919187441" lon="14.799528413419873"><ele>367.0</ele><time>2026-05-02T13:07:51Z</time></trkpt><trkpt lat="41.23598483123057" lon="14.799744627970343"><ele>363.66666666666663</ele><time>2026-05-02T13:07:52Z</time></trkpt><trkpt lat="41.23585063169839" lon="14.79993322818676"><ele>360.3333333333333</ele><time>2026-05-02T13:07:53Z</time></trkpt><trkpt lat="41.23571166771468" lon="14.800069806608764"><ele>357.0</ele><time>2026-05-02T13:07:54Z</time></trkpt><trkpt lat="41.23557966689371" lon="14.80020360728561"><ele>355.3333333333333</ele><time>2026-05-02T13:07:55Z</time></trkpt><trkpt lat="41.2354236928841" lon="14.800311042018356"><ele>353.66666666666663</ele><time>2026-05-02T13:07:56Z</time></trkpt><trkpt lat="41.235256744961475" lon="14.800398106349125"><ele>352.0</ele><time>2026-05-02T13:07:57Z</time></trkpt><trkpt lat="41.23507694514408" lon="14.8004663169187"><ele>352.0</ele><time>2026-05-02T13:07:58Z</time></trkpt><trkpt lat="41.234916776439896" lon="14.800530517917233"><ele>352.0</ele><time>2026-05-02T13:07:59Z</time></trkpt><trkpt lat="41.23481132674044" lon="14.800596343002567"><ele>352.0</ele><time>2026-05-02T13:08:00Z</time></trkpt><trkpt lat="41.23474222998268" lon="14.800668113913815"><ele>352.0</ele><time>2026-05-02T13:08:01Z</time></trkpt><trkpt lat="41.23468571471388" lon="14.80075532292784"><ele>353.8</ele><time>2026-05-02T13:08:02Z</time></trkpt><trkpt lat="41.23465066645901" lon="14.800857913176477"><ele>355.6</ele><time>2026-05-02T13:08:03Z</time></trkpt><trkpt lat="41.23464829145953" lon="14.800956218950668"><ele>357.40000000000003</ele><time>2026-05-02T13:08:04Z</time></trkpt><trkpt lat="41.234668188968854" lon="14.80108855132363"><ele>359.20000000000005</ele><time>2026-05-02T13:08:05Z</time></trkpt><trkpt lat="41.23470948988513" lon="14.801216447678001"><ele>361.0</ele><time>2026-05-02T13:08:06Z</time></trkpt><trkpt lat="41.23478091898092" lon="14.80132608541661"><ele>359.5</ele><time>2026-05-02T13:08:07Z</time></trkpt><trkpt lat="41.23487592218303" lon="14.801407443063967"><ele>358.0</ele><time>2026-05-02T13:08:08Z</time></trkpt><trkpt lat="41.23499006022702" lon="14.801490837919054"><ele>356.5</ele><time>2026-05-02T13:08:09Z</time></trkpt><trkpt lat="41.23510958529551" lon="14.801635432655672"><ele>355.0</ele><time>2026-05-02T13:08:10Z</time></trkpt><trkpt lat="41.23525941037144" lon="14.801803994393412"><ele>354.0</ele><time>2026-05-02T13:08:11Z</time></trkpt><trkpt lat="41.235420806403184" lon="14.801984625119296"><ele>353.0</ele><time>2026-05-02T13:08:12Z</time></trkpt><trkpt lat="41.235560899590844" lon="14.802136753903692"><ele>352.0</ele><time>2026-05-02T13:08:13Z</time></trkpt><trkpt lat="41.235683714714" lon="14.802269887715129"><ele>352.0</ele><time>2026-05-02T13:08:14Z</time></trkpt><trkpt lat="41.23580727179612" lon="14.80238287458297"><ele>352.0</ele><time>2026-05-02T13:08:15Z</time></trkpt><trkpt lat="41.23591062220318" lon="14.802493116257876"><ele>352.0</ele><time>2026-05-02T13:08:16Z</time></trkpt><trkpt lat="41.23600058676919" lon="14.80257951211682"><ele>352.0</ele><time>2026-05-02T13:08:17Z</time></trkpt><trkpt lat="41.236092879603746" lon="14.802638565511185"><ele>352.0</ele><time>2026-05-02T13:08:18Z</time></trkpt><trkpt lat="41.236193853476514" lon="14.802660298559392"><ele>352.0</ele><time>2026-05-02T13:08:19Z</time></trkpt><trkpt lat="41.236303940869625" lon="14.802629055279278"><ele>352.0</ele><time>2026-05-02T13:08:20Z</time></trkpt><trkpt lat="41.23642719248147" lon="14.802558670910447"><ele>352.0</ele><time>2026-05-02T13:08:21Z</time></trkpt><trkpt lat="41.2365666741741" lon="14.802499421178585"><ele>353.5</ele><time>2026-05-02T13:08:22Z</time></trkpt><trkpt lat="41.23667866400202" lon="14.80248340644224"><ele>355.0</ele><time>2026-05-02T13:08:23Z</time></trkpt><trkpt lat="41.23677393364652" lon="14.802527060236342"><ele>356.5</ele><time>2026-05-02T13:08:24Z</time></trkpt><trkpt lat="41.23687312624183" lon="14.802592909221463"><ele>358.0</ele><time>2026-05-02T13:08:25Z</time></trkpt><trkpt lat="41.23697699033505" lon="14.802697645794288"><ele>358.0</ele><time>2026-05-02T13:08:26Z</time></trkpt><trkpt lat="41.237085142043746" lon="14.802834914543013"><ele>358.0</ele><time>2026-05-02T13:08:27Z</time></trkpt><trkpt lat="41.237218968128865" lon="14.803008223943362"><ele>358.0</ele><time>2026-05-02T13:08:28Z</time></trkpt><trkpt lat="41.23734251835794" lon="14.803148316500756"><ele>355.25</ele><time>2026-05-02T13:08:29Z</time></trkpt><trkpt lat="41.23744033487777" lon="14.803264103890625"><ele>352.5</ele><time>2026-05-02T13:08:30Z</time></trkpt><trkpt lat="41.23754860281813" lon="14.803331665062576"><ele>349.75</ele><time>2026-05-02T13:08:31Z</time></trkpt><trkpt lat="41.23767086196606" lon="14.803349089106108"><ele>347.0</ele><time>2026-05-02T13:08:32Z</time></trkpt><trkpt lat="41.237824580017346" lon="14.803321120717643"><ele>347.0</ele><time>2026-05-02T13:08:33Z</time></trkpt><trkpt lat="41.2379635846116" lon="14.803268066961163"><ele>347.0</ele><time>2026-05-02T13:08:34Z</time></trkpt><trkpt lat="41.23808001382009" lon="14.803249793133558"><ele>347.0</ele><time>2026-05-02T13:08:35Z</time></trkpt><trkpt lat="41.23816812380602" lon="14.803318366604264"><ele>347.0</ele><time>2026-05-02T13:08:36Z</time></trkpt><trkpt lat="41.238234054056896" lon="14.803387465472403"><ele>347.0</ele><time>2026-05-02T13:08:37Z</time></trkpt><trkpt lat="41.23823801081238" lon="14.803546915089342"><ele>345.0</ele><time>2026-05-02T13:08:38Z</time></trkpt><trkpt lat="41.23823324997499" lon="14.803733392665627"><ele>343.0</ele><time>2026-05-02T13:08:39Z</time></trkpt><trkpt lat="41.23822263603668" lon="14.803973486180059"><ele>341.0</ele><time>2026-05-02T13:08:40Z</time></trkpt><trkpt lat="41.23821288764012" lon="14.804186892895796"><ele>340.4</ele><time>2026-05-02T13:08:41Z</time></trkpt><trkpt lat="41.23820503208968" lon="14.804360679806702"><ele>339.8</ele><time>2026-05-02T13:08:42Z</time></trkpt><trkpt lat="41.23819930327155" lon="14.804500216108144"><ele>339.2</ele><time>2026-05-02T13:08:43Z</time></trkpt><trkpt lat="41.23821556239836" lon="14.804609813157873"><ele>338.59999999999997</ele><time>2026-05-02T13:08:44Z</time></trkpt><trkpt lat="41.23821205772578" lon="14.804717186364861"><ele>338.0</ele><time>2026-05-02T13:08:46Z</time></trkpt><trkpt lat="41.23822499863165" lon="14.804807376841437"><ele>338.0</ele><time>2026-05-02T13:08:49Z</time></trkpt><trkpt lat="41.23815479018451" lon="14.804983922153616"><ele>338.0</ele><time>2026-05-02T13:08:51Z</time></trkpt><trkpt lat="41.238100527113026" lon="14.80509146579154"><ele>338.0</ele><time>2026-05-02T13:08:52Z</time></trkpt><trkpt lat="41.23802036445713" lon="14.805193047411825"><ele>338.0</ele><time>2026-05-02T13:08:53Z</time></trkpt><trkpt lat="41.23792566951146" lon="14.805298269346824"><ele>340.6666666666667</ele><time>2026-05-02T13:08:54Z</time></trkpt><trkpt lat="41.23779864687365" lon="14.80536895860628"><ele>343.3333333333333</ele><time>2026-05-02T13:08:55Z</time></trkpt><trkpt lat="41.23763671453029" lon="14.805378061752464"><ele>346.0</ele><time>2026-05-02T13:08:56Z</time></trkpt><trkpt lat="41.23745893953468" lon="14.805408935395963"><ele>348.25</ele><time>2026-05-02T13:08:57Z</time></trkpt><trkpt lat="41.23728986637432" lon="14.805403182569089"><ele>350.5</ele><time>2026-05-02T13:08:58Z</time></trkpt><trkpt lat="41.23715457706665" lon="14.805431531026947"><ele>352.75</ele><time>2026-05-02T13:08:59Z</time></trkpt><trkpt lat="41.237037248821686" lon="14.80550766333305"><ele>355.0</ele><time>2026-05-02T13:09:00Z</time></trkpt><trkpt lat="41.2369411666729" lon="14.805626919864359"><ele>355.0</ele><time>2026-05-02T13:09:01Z</time></trkpt><trkpt lat="41.23687179843851" lon="14.805783539345228"><ele>355.0</ele><time>2026-05-02T13:09:02Z</time></trkpt><trkpt lat="41.23684287324739" lon="14.805960955190159"><ele>355.0</ele><time>2026-05-02T13:09:03Z</time></trkpt><trkpt lat="41.23685337023101" lon="14.80615742858717"><ele>355.0</ele><time>2026-05-02T13:09:04Z</time></trkpt><trkpt lat="41.23689493522136" lon="14.806391167205451"><ele>356.0</ele><time>2026-05-02T13:09:05Z</time></trkpt><trkpt lat="41.2369467253969" lon="14.806670631746673"><ele>357.0</ele><time>2026-05-02T13:09:06Z</time></trkpt><trkpt lat="41.23699242298908" lon="14.80693622907298"><ele>358.0</ele><time>2026-05-02T13:09:07Z</time></trkpt><trkpt lat="41.23703074511058" lon="14.807141463557642"><ele>359.0</ele><time>2026-05-02T13:09:08Z</time></trkpt><trkpt lat="41.2370724802277" lon="14.807332831288681"><ele>360.0</ele><time>2026-05-02T13:09:09Z</time></trkpt><trkpt lat="41.23712382768473" lon="14.807489789328727"><ele>361.0</ele><time>2026-05-02T13:09:10Z</time></trkpt><trkpt lat="41.2371367186898" lon="14.807638244544286"><ele>362.0</ele><time>2026-05-02T13:09:11Z</time></trkpt><trkpt lat="41.23714204304865" lon="14.807771365606543"><ele>362.6</ele><time>2026-05-02T13:09:12Z</time></trkpt><trkpt lat="41.23714113348291" lon="14.807896552670838"><ele>363.20000000000005</ele><time>2026-05-02T13:09:13Z</time></trkpt><trkpt lat="41.237091785319706" lon="14.808020897011849"><ele>363.8</ele><time>2026-05-02T13:09:14Z</time></trkpt><trkpt lat="41.23703568443561" lon="14.808150884879963"><ele>364.4</ele><time>2026-05-02T13:09:15Z</time></trkpt><trkpt lat="41.23696345418718" lon="14.808287073087511"><ele>365.0</ele><time>2026-05-02T13:09:16Z</time></trkpt><trkpt lat="41.236880403636846" lon="14.80842632577962"><ele>364.0</ele><time>2026-05-02T13:09:17Z</time></trkpt><trkpt lat="41.23679859653339" lon="14.808585063456421"><ele>363.0</ele><time>2026-05-02T13:09:18Z</time></trkpt><trkpt lat="41.23671232183027" lon="14.808746455691361"><ele>362.0</ele><time>2026-05-02T13:09:19Z</time></trkpt><trkpt lat="41.23662330007736" lon="14.808929236397958"><ele>362.0</ele><time>2026-05-02T13:09:20Z</time></trkpt><trkpt lat="41.23652566338774" lon="14.809101516544274"><ele>362.0</ele><time>2026-05-02T13:09:21Z</time></trkpt><trkpt lat="41.23642779457108" lon="14.809262862137592"><ele>362.0</ele><time>2026-05-02T13:09:22Z</time></trkpt><trkpt lat="41.236299120636964" lon="14.809367471218424"><ele>362.0</ele><time>2026-05-02T13:09:23Z</time></trkpt><trkpt lat="41.23617897775596" lon="14.809463815461664"><ele>362.0</ele><time>2026-05-02T13:09:24Z</time></trkpt><trkpt lat="41.23603363241912" lon="14.809511909155212"><ele>362.0</ele><time>2026-05-02T13:09:25Z</time></trkpt><trkpt lat="41.23587037764083" lon="14.80951931735204"><ele>362.0</ele><time>2026-05-02T13:09:26Z</time></trkpt><trkpt lat="41.23570645285605" lon="14.809509026090309"><ele>362.0</ele><time>2026-05-02T13:09:27Z</time></trkpt><trkpt lat="41.235572662128114" lon="14.809484863429953"><ele>362.0</ele><time>2026-05-02T13:09:28Z</time></trkpt><trkpt lat="41.235466261915526" lon="14.80947925240859"><ele>362.0</ele><time>2026-05-02T13:09:29Z</time></trkpt><trkpt lat="41.235364424351424" lon="14.809483892929283"><ele>364.6666666666667</ele><time>2026-05-02T13:09:30Z</time></trkpt><trkpt lat="41.235278344265154" lon="14.809503872305045"><ele>367.33333333333337</ele><time>2026-05-02T13:09:31Z</time></trkpt><trkpt lat="41.2352063035994" lon="14.809526532647899"><ele>370.0</ele><time>2026-05-02T13:09:32Z</time></trkpt><trkpt lat="41.235128638197" lon="14.809520026011349"><ele>372.6666666666667</ele><time>2026-05-02T13:09:33Z</time></trkpt><trkpt lat="41.23504496586898" lon="14.809469992689843"><ele>375.3333333333333</ele><time>2026-05-02T13:09:34Z</time></trkpt><trkpt lat="41.23495379661648" lon="14.809459791623505"><ele>378.0</ele><time>2026-05-02T13:09:35Z</time></trkpt><trkpt lat="41.234901551634955" lon="14.809230604778215"><ele>378.0</ele><time>2026-05-02T13:09:36Z</time></trkpt><trkpt lat="41.23480449085322" lon="14.809043517304245"><ele>378.0</ele><time>2026-05-02T13:09:37Z</time></trkpt><trkpt lat="41.23469463240077" lon="14.808874547013236"><ele>378.0</ele><time>2026-05-02T13:09:38Z</time></trkpt><trkpt lat="41.23465421897551" lon="14.80879018919508"><ele>378.0</ele><time>2026-05-02T13:09:39Z</time></trkpt><trkpt lat="41.23459845765032" lon="14.808735282154858"><ele>379.75</ele><time>2026-05-02T13:09:41Z</time></trkpt><trkpt lat="41.23452974377711" lon="14.808640153744946"><ele>381.5</ele><time>2026-05-02T13:09:43Z</time></trkpt><trkpt lat="41.23444738842437" lon="14.808493870921817"><ele>383.25</ele><time>2026-05-02T13:09:44Z</time></trkpt><trkpt lat="41.23435791160722" lon="14.808344641634061"><ele>385.0</ele><time>2026-05-02T13:09:45Z</time></trkpt><trkpt lat="41.23425756434481" lon="14.808176055166069"><ele>385.0</ele><time>2026-05-02T13:09:46Z</time></trkpt><trkpt lat="41.23415374159599" lon="14.807996367189446"><ele>385.0</ele><time>2026-05-02T13:09:47Z</time></trkpt><trkpt lat="41.234032208551625" lon="14.807788314959005"><ele>385.0</ele><time>2026-05-02T13:09:48Z</time></trkpt><trkpt lat="41.23392854311048" lon="14.807615001104443"><ele>388.0</ele><time>2026-05-02T13:09:49Z</time></trkpt><trkpt lat="41.23385278467236" lon="14.807483031288559"><ele>391.0</ele><time>2026-05-02T13:09:50Z</time></trkpt><trkpt lat="41.23377631326143" lon="14.807365956433518"><ele>394.0</ele><time>2026-05-02T13:09:51Z</time></trkpt><trkpt lat="41.23372730645331" lon="14.807295031229181"><ele>397.0</ele><time>2026-05-02T13:09:52Z</time></trkpt><trkpt lat="41.23367706776142" lon="14.807234441368314"><ele>400.0</ele><time>2026-05-02T13:09:54Z</time></trkpt><trkpt lat="41.23367748800048" lon="14.807337236673101"><ele>400.0</ele><time>2026-05-02T13:09:58Z</time></trkpt><trkpt lat="41.23374762021449" lon="14.807429463339734"><ele>400.0</ele><time>2026-05-02T13:09:59Z</time></trkpt><trkpt lat="41.233828290873426" lon="14.807532802818967"><ele>400.0</ele><time>2026-05-02T13:10:01Z</time></trkpt><trkpt lat="41.23387844696504" lon="14.807597899301442"><ele>400.0</ele><time>2026-05-02T13:10:34Z</time></trkpt><trkpt lat="41.23382206468131" lon="14.807542753345544"><ele>400.0</ele><time>2026-05-02T13:10:39Z</time></trkpt><trkpt lat="41.23374096517091" lon="14.80732738558472"><ele>400.0</ele><time>2026-05-02T13:10:40Z</time></trkpt><trkpt lat="41.23368337838505" lon="14.807231319165368"><ele>400.0</ele><time>2026-05-02T13:10:41Z</time></trkpt><trkpt lat="41.23362381003036" lon="14.807167553842014"><ele>400.0</ele><time>2026-05-02T13:10:43Z</time></trkpt><trkpt lat="41.2335132969065" lon="14.807303879481655"><ele>400.0</ele><time>2026-05-02T13:10:45Z</time></trkpt><trkpt lat="41.23341676544676" lon="14.807439200617104"><ele>400.0</ele><time>2026-05-02T13:10:46Z</time></trkpt><trkpt lat="41.233320266668755" lon="14.80757309162215"><ele>400.0</ele><time>2026-05-02T13:10:47Z</time></trkpt><trkpt lat="41.23322158563702" lon="14.807721487785876"><ele>400.0</ele><time>2026-05-02T13:10:48Z</time></trkpt><trkpt lat="41.233166198687904" lon="14.807889163860397"><ele>400.0</ele><time>2026-05-02T13:10:49Z</time></trkpt><trkpt lat="41.23314254803958" lon="14.808077832028571"><ele>399.75</ele><time>2026-05-02T13:10:50Z</time></trkpt><trkpt lat="41.233140781607815" lon="14.808299885138478"><ele>399.5</ele><time>2026-05-02T13:10:51Z</time></trkpt><trkpt lat="41.23314350171961" lon="14.808495986493185"><ele>399.25</ele><time>2026-05-02T13:10:52Z</time></trkpt><trkpt lat="41.233157792653465" lon="14.808660416281374"><ele>399.0</ele><time>2026-05-02T13:10:53Z</time></trkpt><trkpt lat="41.233155769898325" lon="14.808807692507104"><ele>399.5</ele><time>2026-05-02T13:10:54Z</time></trkpt><trkpt lat="41.23317301252772" lon="14.80894353896429"><ele>400.0</ele><time>2026-05-02T13:10:55Z</time></trkpt><trkpt lat="41.23323460352037" lon="14.809141502289172"><ele>400.5</ele><time>2026-05-02T13:10:56Z</time></trkpt><trkpt lat="41.23330260684669" lon="14.809318626945762"><ele>401.0</ele><time>2026-05-02T13:10:57Z</time></trkpt><trkpt lat="41.233366660751365" lon="14.809453027092623"><ele>401.5</ele><time>2026-05-02T13:10:58Z</time></trkpt><trkpt lat="41.23342852723557" lon="14.809567332900652"><ele>402.0</ele><time>2026-05-02T13:10:59Z</time></trkpt><trkpt lat="41.23349745400564" lon="14.809677944608021"><ele>402.5</ele><time>2026-05-02T13:11:00Z</time></trkpt><trkpt lat="41.23359140547398" lon="14.809802807582251"><ele>403.0</ele><time>2026-05-02T13:11:01Z</time></trkpt><trkpt lat="41.23367064405977" lon="14.809902116906883"><ele>403.0</ele><time>2026-05-02T13:11:02Z</time></trkpt><trkpt lat="41.233749941733095" lon="14.810001500284416"><ele>403.0</ele><time>2026-05-02T13:11:03Z</time></trkpt><trkpt lat="41.233840227481934" lon="14.810080061311794"><ele>403.0</ele><time>2026-05-02T13:11:04Z</time></trkpt><trkpt lat="41.233912804403765" lon="14.810169862037075"><ele>403.0</ele><time>2026-05-02T13:11:05Z</time></trkpt><trkpt lat="41.23399750250094" lon="14.810249307472128"><ele>403.0</ele><time>2026-05-02T13:11:06Z</time></trkpt><trkpt lat="41.23408017379082" lon="14.810318720782112"><ele>403.50000000000006</ele><time>2026-05-02T13:11:07Z</time></trkpt><trkpt lat="41.234157601811916" lon="14.810360939241566"><ele>404.0</ele><time>2026-05-02T13:11:08Z</time></trkpt><trkpt lat="41.234212607185206" lon="14.810411168700732"><ele>404.5</ele><time>2026-05-02T13:11:10Z</time></trkpt><trkpt lat="41.23413083987529" lon="14.810532980862465"><ele>405.0</ele><time>2026-05-02T13:11:13Z</time></trkpt><trkpt lat="41.234100065719474" lon="14.810633419033028"><ele>405.50000000000006</ele><time>2026-05-02T13:11:14Z</time></trkpt><trkpt lat="41.234069762329426" lon="14.810738739955399"><ele>406.0</ele><time>2026-05-02T13:11:15Z</time></trkpt><trkpt lat="41.23404264180866" lon="14.810841852845218"><ele>406.0</ele><time>2026-05-02T13:11:16Z</time></trkpt><trkpt lat="41.23401247671298" lon="14.810950557508615"><ele>406.0</ele><time>2026-05-02T13:11:17Z</time></trkpt><trkpt lat="41.23398016955877" lon="14.811037966622846"><ele>406.0</ele><time>2026-05-02T13:11:18Z</time></trkpt><trkpt lat="41.23394863342984" lon="14.811119209972162"><ele>406.0</ele><time>2026-05-02T13:11:19Z</time></trkpt><trkpt lat="41.233886775215936" lon="14.811148288726407"><ele>406.0</ele><time>2026-05-02T13:11:20Z</time></trkpt><trkpt lat="41.233818688178474" lon="14.811149254189177"><ele>406.0</ele><time>2026-05-02T13:11:21Z</time></trkpt><trkpt lat="41.23373586792182" lon="14.811156222139621"><ele>406.0</ele><time>2026-05-02T13:11:22Z</time></trkpt><trkpt lat="41.233609234771976" lon="14.81115341925983"><ele>406.6</ele><time>2026-05-02T13:11:24Z</time></trkpt><trkpt lat="41.233519835644785" lon="14.811102300396378"><ele>407.20000000000005</ele><time>2026-05-02T13:11:25Z</time></trkpt><trkpt lat="41.233410169841136" lon="14.8110576958962"><ele>407.79999999999995</ele><time>2026-05-02T13:11:26Z</time></trkpt><trkpt lat="41.23329926300403" lon="14.811012136845635"><ele>408.4</ele><time>2026-05-02T13:11:27Z</time></trkpt><trkpt lat="41.23318845817433" lon="14.810950978310943"><ele>409.0</ele><time>2026-05-02T13:11:28Z</time></trkpt><trkpt lat="41.23307179815071" lon="14.810877522515984"><ele>410.79999999999995</ele><time>2026-05-02T13:11:29Z</time></trkpt><trkpt lat="41.23295689304978" lon="14.810812972485463"><ele>412.59999999999997</ele><time>2026-05-02T13:11:30Z</time></trkpt><trkpt lat="41.232881734121264" lon="14.810744599803273"><ele>414.4</ele><time>2026-05-02T13:11:31Z</time></trkpt><trkpt lat="41.232816259282814" lon="14.810690468806916"><ele>416.2</ele><time>2026-05-02T13:11:32Z</time></trkpt><trkpt lat="41.232729283795344" lon="14.810669571854785"><ele>418.0</ele><time>2026-05-02T13:11:34Z</time></trkpt><trkpt lat="41.23271870759589" lon="14.810791961188489"><ele>418.00000000000006</ele><time>2026-05-02T13:11:36Z</time></trkpt><trkpt lat="41.2327616026027" lon="14.810875642545009"><ele>418.0</ele><time>2026-05-02T13:11:39Z</time></trkpt><trkpt lat="41.232808589235376" lon="14.810976405724013"><ele>418.0</ele><time>2026-05-02T13:11:41Z</time></trkpt><trkpt lat="41.23285407010711" lon="14.811055570184418"><ele>418.0</ele><time>2026-05-02T13:11:42Z</time></trkpt><trkpt lat="41.23290872215429" lon="14.811155046812578"><ele>418.00000000000006</ele><time>2026-05-02T13:11:43Z</time></trkpt><trkpt lat="41.232937294159484" lon="14.811233389156255"><ele>418.0</ele><time>2026-05-02T13:11:44Z</time></trkpt><trkpt lat="41.23298447483516" lon="14.811325750343984"><ele>418.79999999999995</ele><time>2026-05-02T13:11:46Z</time></trkpt><trkpt lat="41.23284545618647" lon="14.811446540093822"><ele>419.6</ele><time>2026-05-02T13:11:50Z</time></trkpt><trkpt lat="41.2327605295972" lon="14.81147694355035"><ele>420.4</ele><time>2026-05-02T13:11:51Z</time></trkpt><trkpt lat="41.23267836117039" lon="14.811515435301486"><ele>421.20000000000005</ele><time>2026-05-02T13:11:52Z</time></trkpt><trkpt lat="41.23260077039881" lon="14.81154674857163"><ele>422.0</ele><time>2026-05-02T13:11:53Z</time></trkpt><trkpt lat="41.232521224280774" lon="14.81158612687563"><ele>421.99999999999994</ele><time>2026-05-02T13:11:54Z</time></trkpt><trkpt lat="41.2324581934884" lon="14.811613139038007"><ele>422.0</ele><time>2026-05-02T13:11:55Z</time></trkpt><trkpt lat="41.2323867100737" lon="14.811646964852885"><ele>422.0</ele><time>2026-05-02T13:11:58Z</time></trkpt><trkpt lat="41.23239261459905" lon="14.811740474730502"><ele>422.0</ele><time>2026-05-02T13:11:59Z</time></trkpt><trkpt lat="41.23241286271283" lon="14.811820449303942"><ele>421.99999999999994</ele><time>2026-05-02T13:12:00Z</time></trkpt><trkpt lat="41.23244861666516" lon="14.811964412157222"><ele>422.0</ele><time>2026-05-02T13:12:01Z</time></trkpt><trkpt lat="41.23250541103604" lon="14.812118676659482"><ele>420.5</ele><time>2026-05-02T13:12:01.999Z</time></trkpt><trkpt lat="41.23254397045386" lon="14.812272671830975"><ele>419.0</ele><time>2026-05-02T13:12:02.999Z</time></trkpt><trkpt lat="41.232580444299984" lon="14.812443682787006"><ele>417.5</ele><time>2026-05-02T13:12:03.999Z</time></trkpt><trkpt lat="41.23262849061156" lon="14.812617500450525"><ele>416.0</ele><time>2026-05-02T13:12:04.999Z</time></trkpt><trkpt lat="41.232688627195124" lon="14.812763912802557"><ele>414.8</ele><time>2026-05-02T13:12:05.999Z</time></trkpt><trkpt lat="41.23272371546419" lon="14.812907481104435"><ele>413.6</ele><time>2026-05-02T13:12:06.999Z</time></trkpt><trkpt lat="41.232746171452334" lon="14.813048669728142"><ele>412.4</ele><time>2026-05-02T13:12:07.999Z</time></trkpt><trkpt lat="41.23275026715397" lon="14.813186062830471"><ele>411.2</ele><time>2026-05-02T13:12:08.999Z</time></trkpt><trkpt lat="41.23273815884299" lon="14.813321545484657"><ele>410.0</ele><time>2026-05-02T13:12:09.999Z</time></trkpt><trkpt lat="41.23270899948811" lon="14.813451486979615"><ele>407.25</ele><time>2026-05-02T13:12:10.999Z</time></trkpt><trkpt lat="41.23262917110385" lon="14.813592911083385"><ele>404.5</ele><time>2026-05-02T13:12:11.999Z</time></trkpt><trkpt lat="41.23257506186588" lon="14.813759651019037"><ele>401.75</ele><time>2026-05-02T13:12:12.999Z</time></trkpt><trkpt lat="41.232507549184945" lon="14.81391638081144"><ele>399.0</ele><time>2026-05-02T13:12:13.999Z</time></trkpt><trkpt lat="41.2324450978375" lon="14.814063423336696"><ele>399.0</ele><time>2026-05-02T13:12:14.999Z</time></trkpt><trkpt lat="41.232385598414346" lon="14.814210230141356"><ele>399.0</ele><time>2026-05-02T13:12:15.999Z</time></trkpt><trkpt lat="41.23233319452734" lon="14.814345408726155"><ele>399.0</ele><time>2026-05-02T13:12:16.999Z</time></trkpt><trkpt lat="41.23228454390132" lon="14.814487036565547"><ele>399.0</ele><time>2026-05-02T13:12:17.999Z</time></trkpt><trkpt lat="41.23223968262409" lon="14.814619573765425"><ele>399.25</ele><time>2026-05-02T13:12:18.999Z</time></trkpt><trkpt lat="41.23218536187476" lon="14.814849782441856"><ele>399.5</ele><time>2026-05-02T13:12:20.999Z</time></trkpt><trkpt lat="41.232154050029564" lon="14.814942806037307"><ele>399.75</ele><time>2026-05-02T13:12:22Z</time></trkpt><trkpt lat="41.232119116256634" lon="14.815053576258556"><ele>400.0</ele><time>2026-05-02T13:12:23Z</time></trkpt><trkpt lat="41.23206629076019" lon="14.81518104308891"><ele>400.0</ele><time>2026-05-02T13:12:24Z</time></trkpt><trkpt lat="41.23201524693299" lon="14.8153278641397"><ele>400.0</ele><time>2026-05-02T13:12:25Z</time></trkpt><trkpt lat="41.231986723592684" lon="14.815479820661428"><ele>400.0</ele><time>2026-05-02T13:12:26Z</time></trkpt><trkpt lat="41.23197103354121" lon="14.815615079946271"><ele>400.0</ele><time>2026-05-02T13:12:27Z</time></trkpt><trkpt lat="41.23196091864432" lon="14.815749355057727"><ele>400.0</ele><time>2026-05-02T13:12:28Z</time></trkpt><trkpt lat="41.23195588036104" lon="14.815941720137632"><ele>400.6666666666667</ele><time>2026-05-02T13:12:29Z</time></trkpt><trkpt lat="41.23196501492891" lon="14.8161975362636"><ele>401.33333333333337</ele><time>2026-05-02T13:12:30Z</time></trkpt><trkpt lat="41.23195287697425" lon="14.81644480694141"><ele>402.0</ele><time>2026-05-02T13:12:31Z</time></trkpt><trkpt lat="41.231938482172396" lon="14.816716729677958"><ele>405.0</ele><time>2026-05-02T13:12:32Z</time></trkpt><trkpt lat="41.23192768822868" lon="14.816954945131101"><ele>408.0</ele><time>2026-05-02T13:12:33Z</time></trkpt><trkpt lat="41.231947798121766" lon="14.81717637568265"><ele>411.0</ele><time>2026-05-02T13:12:34Z</time></trkpt><trkpt lat="41.23199748941789" lon="14.817391873764869"><ele>411.0</ele><time>2026-05-02T13:12:35Z</time></trkpt><trkpt lat="41.232071935280466" lon="14.817609827654584"><ele>411.0</ele><time>2026-05-02T13:12:36Z</time></trkpt><trkpt lat="41.23209771557906" lon="14.817815337144202"><ele>411.0</ele><time>2026-05-02T13:12:37Z</time></trkpt><trkpt lat="41.23211322265571" lon="14.818066304976433"><ele>411.25</ele><time>2026-05-02T13:12:38Z</time></trkpt><trkpt lat="41.232092132758474" lon="14.818291618545791"><ele>411.5</ele><time>2026-05-02T13:12:39Z</time></trkpt><trkpt lat="41.232047912167936" lon="14.818479423416877"><ele>411.75</ele><time>2026-05-02T13:12:40Z</time></trkpt><trkpt lat="41.231977127762164" lon="14.818608981409435"><ele>412.0</ele><time>2026-05-02T13:12:41Z</time></trkpt><trkpt lat="41.23188398293252" lon="14.818696863073251"><ele>409.0</ele><time>2026-05-02T13:12:42Z</time></trkpt><trkpt lat="41.23174499951559" lon="14.818677018760205"><ele>406.0</ele><time>2026-05-02T13:12:43Z</time></trkpt><trkpt lat="41.23157902857226" lon="14.8186642058631"><ele>403.0</ele><time>2026-05-02T13:12:44Z</time></trkpt><trkpt lat="41.231367837309364" lon="14.818592136826425"><ele>403.0</ele><time>2026-05-02T13:12:45Z</time></trkpt><trkpt lat="41.23113686657507" lon="14.818569768328214"><ele>403.0</ele><time>2026-05-02T13:12:46Z</time></trkpt><trkpt lat="41.23089542913652" lon="14.81859457450438"><ele>405.0</ele><time>2026-05-02T13:12:47Z</time></trkpt><trkpt lat="41.23061848021349" lon="14.81863838357947"><ele>407.0</ele><time>2026-05-02T13:12:48Z</time></trkpt><trkpt lat="41.23035988640829" lon="14.818678965500473"><ele>407.0</ele><time>2026-05-02T13:12:49Z</time></trkpt><trkpt lat="41.23008406228641" lon="14.818711923803416"><ele>407.0</ele><time>2026-05-02T13:12:50Z</time></trkpt><trkpt lat="41.22985019985361" lon="14.818738135788099"><ele>407.66666666666663</ele><time>2026-05-02T13:12:51Z</time></trkpt><trkpt lat="41.22963482525747" lon="14.818767080667927"><ele>408.33333333333337</ele><time>2026-05-02T13:12:52Z</time></trkpt><trkpt lat="41.229453989906" lon="14.81878374399044"><ele>409.0</ele><time>2026-05-02T13:12:53Z</time></trkpt><trkpt lat="41.2293012982987" lon="14.818737151538324"><ele>409.0</ele><time>2026-05-02T13:12:54Z</time></trkpt><trkpt lat="41.229135022122534" lon="14.81862194214242"><ele>409.0</ele><time>2026-05-02T13:12:55Z</time></trkpt><trkpt lat="41.22894166384142" lon="14.818514904937693"><ele>409.0</ele><time>2026-05-02T13:12:56Z</time></trkpt><trkpt lat="41.228732338264905" lon="14.818459918660869"><ele>419.0</ele><time>2026-05-02T13:12:57Z</time></trkpt><trkpt lat="41.22848496524682" lon="14.818459580863857"><ele>429.0</ele><time>2026-05-02T13:12:58Z</time></trkpt><trkpt lat="41.22824984558085" lon="14.81847806650675"><ele>424.33333333333337</ele><time>2026-05-02T13:12:59Z</time></trkpt><trkpt lat="41.22803139067604" lon="14.818536895165275"><ele>419.6666666666667</ele><time>2026-05-02T13:13:00Z</time></trkpt><trkpt lat="41.22782317203237" lon="14.818618943706946"><ele>415.0</ele><time>2026-05-02T13:13:01Z</time></trkpt><trkpt lat="41.22762544799055" lon="14.818686317492853"><ele>415.0</ele><time>2026-05-02T13:13:02Z</time></trkpt><trkpt lat="41.22744700861749" lon="14.818707025734676"><ele>415.0</ele><time>2026-05-02T13:13:03Z</time></trkpt><trkpt lat="41.22725883575583" lon="14.818659020909994"><ele>415.0</ele><time>2026-05-02T13:13:04Z</time></trkpt><trkpt lat="41.227028675922874" lon="14.818568692922963"><ele>425.5</ele><time>2026-05-02T13:13:05Z</time></trkpt><trkpt lat="41.22676491704807" lon="14.818455561050904"><ele>436.0</ele><time>2026-05-02T13:13:06Z</time></trkpt><trkpt lat="41.22646243142018" lon="14.818355693204499"><ele>436.0</ele><time>2026-05-02T13:13:07Z</time></trkpt><trkpt lat="41.226167789860064" lon="14.818229813592692"><ele>436.0</ele><time>2026-05-02T13:13:08Z</time></trkpt><trkpt lat="41.22590741236031" lon="14.818125207769809"><ele>436.0</ele><time>2026-05-02T13:13:09Z</time></trkpt><trkpt lat="41.22571395486902" lon="14.818044706228893"><ele>436.0</ele><time>2026-05-02T13:13:10Z</time></trkpt><trkpt lat="41.22556820313077" lon="14.817998001391736"><ele>436.0</ele><time>2026-05-02T13:13:11Z</time></trkpt><trkpt lat="41.22545265592623" lon="14.817953750159818"><ele>440.0</ele><time>2026-05-02T13:13:12Z</time></trkpt><trkpt lat="41.225120775901836" lon="14.817859648608234"><ele>444.0</ele><time>2026-05-02T13:13:13Z</time></trkpt><trkpt lat="41.224984323117575" lon="14.81785317109653"><ele>444.0</ele><time>2026-05-02T13:13:14Z</time></trkpt><trkpt lat="41.224878104832094" lon="14.81790927863185"><ele>444.0</ele><time>2026-05-02T13:13:15Z</time></trkpt><trkpt lat="41.22481090727372" lon="14.818022927627517"><ele>444.0</ele><time>2026-05-02T13:13:16Z</time></trkpt><trkpt lat="41.22477961820021" lon="14.81821854929308"><ele>444.0</ele><time>2026-05-02T13:13:17Z</time></trkpt><trkpt lat="41.22477111465849" lon="14.818471899939084"><ele>447.0</ele><time>2026-05-02T13:13:18Z</time></trkpt><trkpt lat="41.22484671284766" lon="14.818745834188704"><ele>450.0</ele><time>2026-05-02T13:13:19Z</time></trkpt><trkpt lat="41.224968657815715" lon="14.819014794063415"><ele>450.0</ele><time>2026-05-02T13:13:20Z</time></trkpt><trkpt lat="41.225101451344685" lon="14.819246522122915"><ele>450.0</ele><time>2026-05-02T13:13:21Z</time></trkpt><trkpt lat="41.225193943295785" lon="14.81943931114881"><ele>450.0</ele><time>2026-05-02T13:13:22Z</time></trkpt><trkpt lat="41.22522727958421" lon="14.819609311142191"><ele>449.5</ele><time>2026-05-02T13:13:23Z</time></trkpt><trkpt lat="41.22520855943127" lon="14.819751545923754"><ele>449.0</ele><time>2026-05-02T13:13:24Z</time></trkpt><trkpt lat="41.225133408958534" lon="14.81984834534391"><ele>448.5</ele><time>2026-05-02T13:13:25Z</time></trkpt><trkpt lat="41.225033924216746" lon="14.819894762705363"><ele>448.0</ele><time>2026-05-02T13:13:26Z</time></trkpt><trkpt lat="41.224896790791014" lon="14.819901054559688"><ele>450.6666666666667</ele><time>2026-05-02T13:13:27Z</time></trkpt><trkpt lat="41.22476777157088" lon="14.819828158324388"><ele>453.33333333333337</ele><time>2026-05-02T13:13:28Z</time></trkpt><trkpt lat="41.224597628306825" lon="14.819739332715987"><ele>456.0</ele><time>2026-05-02T13:13:29Z</time></trkpt><trkpt lat="41.22443601415428" lon="14.8197230611106"><ele>456.0</ele><time>2026-05-02T13:13:30Z</time></trkpt><trkpt lat="41.22428913270747" lon="14.819751538690033"><ele>456.0</ele><time>2026-05-02T13:13:31Z</time></trkpt><trkpt lat="41.22415145823219" lon="14.819865873399012"><ele>456.0</ele><time>2026-05-02T13:13:32Z</time></trkpt><trkpt lat="41.22400836824534" lon="14.820065638812277"><ele>460.0</ele><time>2026-05-02T13:13:33Z</time></trkpt><trkpt lat="41.223882354317105" lon="14.820324901146606"><ele>464.0</ele><time>2026-05-02T13:13:34Z</time></trkpt><trkpt lat="41.22377100165879" lon="14.820632367114666"><ele>465.5</ele><time>2026-05-02T13:13:35Z</time></trkpt><trkpt lat="41.22367247003431" lon="14.82105838708882"><ele>467.0</ele><time>2026-05-02T13:13:36Z</time></trkpt><trkpt lat="41.22357396612762" lon="14.821429972832542"><ele>467.0</ele><time>2026-05-02T13:13:37Z</time></trkpt><trkpt lat="41.22349175835311" lon="14.821801554243981"><ele>467.0</ele><time>2026-05-02T13:13:38Z</time></trkpt><trkpt lat="41.22340088903879" lon="14.822086802788212"><ele>467.0</ele><time>2026-05-02T13:13:39Z</time></trkpt><trkpt lat="41.223358930324395" lon="14.822352769209125"><ele>467.0</ele><time>2026-05-02T13:13:40Z</time></trkpt><trkpt lat="41.22339836744106" lon="14.822649161315569"><ele>467.0</ele><time>2026-05-02T13:13:41Z</time></trkpt><trkpt lat="41.22343376877907" lon="14.822887499345976"><ele>468.66666666666663</ele><time>2026-05-02T13:13:42Z</time></trkpt><trkpt lat="41.223521995317945" lon="14.82312806015153"><ele>470.33333333333337</ele><time>2026-05-02T13:13:43Z</time></trkpt><trkpt lat="41.223668110277345" lon="14.823333594316097"><ele>472.0</ele><time>2026-05-02T13:13:44Z</time></trkpt><trkpt lat="41.223871116176895" lon="14.823520259645596"><ele>471.5</ele><time>2026-05-02T13:13:45Z</time></trkpt><trkpt lat="41.22401849854554" lon="14.823682844072803"><ele>471.0</ele><time>2026-05-02T13:13:46Z</time></trkpt><trkpt lat="41.224104894140936" lon="14.823822653170264"><ele>470.5</ele><time>2026-05-02T13:13:47Z</time></trkpt><trkpt lat="41.22413912101677" lon="14.823964370963365"><ele>470.0</ele><time>2026-05-02T13:13:48Z</time></trkpt><trkpt lat="41.22412139750319" lon="14.824116189165661"><ele>470.3333333333333</ele><time>2026-05-02T13:13:49Z</time></trkpt><trkpt lat="41.22407218492801" lon="14.82437898874679"><ele>470.66666666666663</ele><time>2026-05-02T13:13:50Z</time></trkpt><trkpt lat="41.224019653190346" lon="14.824687751724346"><ele>471.0</ele><time>2026-05-02T13:13:51Z</time></trkpt><trkpt lat="41.22396450887593" lon="14.82499948089174"><ele>483.5</ele><time>2026-05-02T13:13:52Z</time></trkpt><trkpt lat="41.22390783597984" lon="14.82532340647071"><ele>496.0</ele><time>2026-05-02T13:13:53Z</time></trkpt><trkpt lat="41.223851178306106" lon="14.825670101766008"><ele>493.0</ele><time>2026-05-02T13:13:54Z</time></trkpt><trkpt lat="41.22381909338763" lon="14.826010911895219"><ele>490.0</ele><time>2026-05-02T13:13:55Z</time></trkpt><trkpt lat="41.22383186684649" lon="14.826316224600056"><ele>490.0</ele><time>2026-05-02T13:13:56Z</time></trkpt><trkpt lat="41.22380393896431" lon="14.82657590515878"><ele>490.0</ele><time>2026-05-02T13:13:57Z</time></trkpt><trkpt lat="41.223749952979496" lon="14.826791884191463"><ele>490.0</ele><time>2026-05-02T13:13:58Z</time></trkpt><trkpt lat="41.223647646270926" lon="14.827020753436841"><ele>487.5</ele><time>2026-05-02T13:13:59Z</time></trkpt><trkpt lat="41.223513392829375" lon="14.827291294752452"><ele>485.0</ele><time>2026-05-02T13:14:00Z</time></trkpt><trkpt lat="41.223372471748455" lon="14.827605275899645"><ele>485.0</ele><time>2026-05-02T13:14:01Z</time></trkpt><trkpt lat="41.22322424735492" lon="14.827868957112404"><ele>485.0</ele><time>2026-05-02T13:14:02Z</time></trkpt><trkpt lat="41.223104833679436" lon="14.828104089595136"><ele>485.3333333333333</ele><time>2026-05-02T13:14:03Z</time></trkpt><trkpt lat="41.22300381837748" lon="14.828273661945019"><ele>485.66666666666663</ele><time>2026-05-02T13:14:04Z</time></trkpt><trkpt lat="41.22289886650106" lon="14.828395778373347"><ele>486.0</ele><time>2026-05-02T13:14:05Z</time></trkpt><trkpt lat="41.222746397137364" lon="14.828513501902629"><ele>485.33333333333337</ele><time>2026-05-02T13:14:06Z</time></trkpt><trkpt lat="41.22255673108027" lon="14.828595084948832"><ele>484.6666666666667</ele><time>2026-05-02T13:14:07Z</time></trkpt><trkpt lat="41.222324509387136" lon="14.828645272632112"><ele>484.0</ele><time>2026-05-02T13:14:08Z</time></trkpt><trkpt lat="41.222065832817265" lon="14.82870599503541"><ele>482.6666666666667</ele><time>2026-05-02T13:14:09Z</time></trkpt><trkpt lat="41.22184576932083" lon="14.828738790093297"><ele>481.33333333333337</ele><time>2026-05-02T13:14:10Z</time></trkpt><trkpt lat="41.221636300476156" lon="14.828805523520103"><ele>480.0</ele><time>2026-05-02T13:14:11Z</time></trkpt><trkpt lat="41.221407947882675" lon="14.828867859239804"><ele>479.66666666666663</ele><time>2026-05-02T13:14:12Z</time></trkpt><trkpt lat="41.221217312757155" lon="14.828942970359371"><ele>479.3333333333333</ele><time>2026-05-02T13:14:13Z</time></trkpt><trkpt lat="41.221040065574236" lon="14.82904088445984"><ele>479.0</ele><time>2026-05-02T13:14:14Z</time></trkpt><trkpt lat="41.22088760818377" lon="14.829175328670484"><ele>479.0</ele><time>2026-05-02T13:14:15Z</time></trkpt><trkpt lat="41.22075650609785" lon="14.829274794363771"><ele>479.0</ele><time>2026-05-02T13:14:16Z</time></trkpt><trkpt lat="41.220647882898305" lon="14.829358635061148"><ele>479.0</ele><time>2026-05-02T13:14:17Z</time></trkpt><trkpt lat="41.22065166673277" lon="14.829716231093597"><ele>479.3333333333333</ele><time>2026-05-02T13:14:18Z</time></trkpt><trkpt lat="41.220589005216254" lon="14.82991387314096"><ele>479.66666666666663</ele><time>2026-05-02T13:14:19Z</time></trkpt><trkpt lat="41.22052016637298" lon="14.83011869680151"><ele>480.0</ele><time>2026-05-02T13:14:20Z</time></trkpt><trkpt lat="41.220439253114364" lon="14.830333427005776"><ele>477.33333333333337</ele><time>2026-05-02T13:14:21Z</time></trkpt><trkpt lat="41.220357914692784" lon="14.83051173494154"><ele>474.6666666666667</ele><time>2026-05-02T13:14:22Z</time></trkpt><trkpt lat="41.22021300589501" lon="14.830662799543278"><ele>472.0</ele><time>2026-05-02T13:14:23Z</time></trkpt><trkpt lat="41.220053624438314" lon="14.830788108103697"><ele>472.0</ele><time>2026-05-02T13:14:24Z</time></trkpt><trkpt lat="41.21985649660723" lon="14.830895036023426"><ele>472.0</ele><time>2026-05-02T13:14:25Z</time></trkpt><trkpt lat="41.219642707020114" lon="14.831002816412903"><ele>472.0</ele><time>2026-05-02T13:14:26Z</time></trkpt><trkpt lat="41.21942635575131" lon="14.831121355048857"><ele>471.0</ele><time>2026-05-02T13:14:27Z</time></trkpt><trkpt lat="41.219215803095814" lon="14.831261167709672"><ele>470.0</ele><time>2026-05-02T13:14:28Z</time></trkpt><trkpt lat="41.21900488594013" lon="14.83143027600742"><ele>469.3333333333333</ele><time>2026-05-02T13:14:29Z</time></trkpt><trkpt lat="41.21881883590322" lon="14.831598462709696"><ele>468.66666666666663</ele><time>2026-05-02T13:14:30Z</time></trkpt><trkpt lat="41.218650339498616" lon="14.831752421011641"><ele>468.0</ele><time>2026-05-02T13:14:31Z</time></trkpt><trkpt lat="41.21848255165672" lon="14.831908652398155"><ele>466.33333333333337</ele><time>2026-05-02T13:14:32Z</time></trkpt><trkpt lat="41.21830920447653" lon="14.832028730390405"><ele>464.6666666666667</ele><time>2026-05-02T13:14:33Z</time></trkpt><trkpt lat="41.21810614013533" lon="14.83210928785775"><ele>463.0</ele><time>2026-05-02T13:14:34Z</time></trkpt><trkpt lat="41.2178586040402" lon="14.832165896156294"><ele>462.5</ele><time>2026-05-02T13:14:35Z</time></trkpt><trkpt lat="41.21761732479956" lon="14.832199870263088"><ele>462.0</ele><time>2026-05-02T13:14:36Z</time></trkpt><trkpt lat="41.21741081876848" lon="14.83225951461332"><ele>462.33333333333337</ele><time>2026-05-02T13:14:37Z</time></trkpt><trkpt lat="41.21722301309534" lon="14.832338492747123"><ele>462.6666666666667</ele><time>2026-05-02T13:14:38Z</time></trkpt><trkpt lat="41.21705143348632" lon="14.832462604354227"><ele>463.0</ele><time>2026-05-02T13:14:39Z</time></trkpt><trkpt lat="41.21689611945213" lon="14.832647904857737"><ele>461.5</ele><time>2026-05-02T13:14:40Z</time></trkpt><trkpt lat="41.21675270854879" lon="14.832901133493989"><ele>460.0</ele><time>2026-05-02T13:14:41Z</time></trkpt><trkpt lat="41.21661580982119" lon="14.833193828168579"><ele>459.0</ele><time>2026-05-02T13:14:42Z</time></trkpt><trkpt lat="41.21646517516056" lon="14.833496569982005"><ele>458.0</ele><time>2026-05-02T13:14:43Z</time></trkpt><trkpt lat="41.21630189481963" lon="14.833799291965397"><ele>458.0</ele><time>2026-05-02T13:14:44Z</time></trkpt><trkpt lat="41.216135390007075" lon="14.834097039085465"><ele>458.0</ele><time>2026-05-02T13:14:45Z</time></trkpt><trkpt lat="41.2159640395473" lon="14.834392057024957"><ele>456.0</ele><time>2026-05-02T13:14:46Z</time></trkpt><trkpt lat="41.2157996050326" lon="14.834703005404153"><ele>454.0</ele><time>2026-05-02T13:14:47Z</time></trkpt><trkpt lat="41.215628984954826" lon="14.835014703613751"><ele>452.0</ele><time>2026-05-02T13:14:48Z</time></trkpt><trkpt lat="41.21543947501101" lon="14.8353530158698"><ele>450.0</ele><time>2026-05-02T13:14:49Z</time></trkpt><trkpt lat="41.21526082443269" lon="14.835683626079943"><ele>449.5</ele><time>2026-05-02T13:14:50Z</time></trkpt><trkpt lat="41.21509609678762" lon="14.835985030188391"><ele>449.0</ele><time>2026-05-02T13:14:51Z</time></trkpt><trkpt lat="41.2149319559151" lon="14.83626289659046"><ele>448.0</ele><time>2026-05-02T13:14:52Z</time></trkpt><trkpt lat="41.21475414319205" lon="14.836523189104389"><ele>447.0</ele><time>2026-05-02T13:14:53Z</time></trkpt><trkpt lat="41.214569480825276" lon="14.836774160350616"><ele>446.5</ele><time>2026-05-02T13:14:54Z</time></trkpt><trkpt lat="41.21437816617543" lon="14.837005513711212"><ele>446.0</ele><time>2026-05-02T13:14:55Z</time></trkpt><trkpt lat="41.21417619811472" lon="14.837226280851935"><ele>444.5</ele><time>2026-05-02T13:14:56Z</time></trkpt><trkpt lat="41.21396098972235" lon="14.837438995686309"><ele>443.0</ele><time>2026-05-02T13:14:57Z</time></trkpt><trkpt lat="41.21373505070918" lon="14.837652377010338"><ele>443.0</ele><time>2026-05-02T13:14:58Z</time></trkpt><trkpt lat="41.21349678635316" lon="14.837862346256504"><ele>443.0</ele><time>2026-05-02T13:14:59Z</time></trkpt><trkpt lat="41.213262527996626" lon="14.838050395220215"><ele>441.5</ele><time>2026-05-02T13:15:00Z</time></trkpt><trkpt lat="41.21303737403544" lon="14.838214919805687"><ele>440.0</ele><time>2026-05-02T13:15:01Z</time></trkpt><trkpt lat="41.212822266855355" lon="14.838380106795357"><ele>441.5</ele><time>2026-05-02T13:15:02Z</time></trkpt><trkpt lat="41.21258738096142" lon="14.83852695563543"><ele>443.0</ele><time>2026-05-02T13:15:03Z</time></trkpt><trkpt lat="41.21234495811756" lon="14.83865474148626"><ele>440.5</ele><time>2026-05-02T13:15:04Z</time></trkpt><trkpt lat="41.212099985874566" lon="14.838760497553663"><ele>438.0</ele><time>2026-05-02T13:15:05Z</time></trkpt><trkpt lat="41.211857271051386" lon="14.838841763148581"><ele>438.0</ele><time>2026-05-02T13:15:06Z</time></trkpt><trkpt lat="41.2116178928215" lon="14.838897941688963"><ele>438.0</ele><time>2026-05-02T13:15:07Z</time></trkpt><trkpt lat="41.21139435120064" lon="14.83892812064744"><ele>437.0</ele><time>2026-05-02T13:15:08Z</time></trkpt><trkpt lat="41.21118689730768" lon="14.83892959288796"><ele>436.0</ele><time>2026-05-02T13:15:09Z</time></trkpt><trkpt lat="41.21101432327831" lon="14.838934400738728"><ele>435.0</ele><time>2026-05-02T13:15:10Z</time></trkpt><trkpt lat="41.210863871219125" lon="14.83897810823525"><ele>435.0</ele><time>2026-05-02T13:15:11Z</time></trkpt><trkpt lat="41.21072699934568" lon="14.83909963486085"><ele>435.0</ele><time>2026-05-02T13:15:12Z</time></trkpt><trkpt lat="41.21062200669762" lon="14.839301934436662"><ele>435.0</ele><time>2026-05-02T13:15:13Z</time></trkpt><trkpt lat="41.2105260931405" lon="14.83956803983442"><ele>431.0</ele><time>2026-05-02T13:15:14Z</time></trkpt><trkpt lat="41.21042459964543" lon="14.839888474001365"><ele>427.0</ele><time>2026-05-02T13:15:15Z</time></trkpt><trkpt lat="41.21031443307381" lon="14.840203948393901"><ele>427.0</ele><time>2026-05-02T13:15:16Z</time></trkpt><trkpt lat="41.21020555098782" lon="14.840470728135426"><ele>427.0</ele><time>2026-05-02T13:15:17Z</time></trkpt><trkpt lat="41.21010261453115" lon="14.840709942201896"><ele>427.0</ele><time>2026-05-02T13:15:18Z</time></trkpt><trkpt lat="41.20999082207117" lon="14.840904707868958"><ele>426.6666666666667</ele><time>2026-05-02T13:15:19Z</time></trkpt><trkpt lat="41.20986968907362" lon="14.841045247397156"><ele>426.33333333333337</ele><time>2026-05-02T13:15:20Z</time></trkpt><trkpt lat="41.209712527229556" lon="14.841123285315668"><ele>426.0</ele><time>2026-05-02T13:15:21Z</time></trkpt><trkpt lat="41.20954379347255" lon="14.84112906616253"><ele>426.0</ele><time>2026-05-02T13:15:22Z</time></trkpt><trkpt lat="41.209379458601454" lon="14.841079776706412"><ele>426.0</ele><time>2026-05-02T13:15:23Z</time></trkpt><trkpt lat="41.20924905588619" lon="14.84101678590079"><ele>426.0</ele><time>2026-05-02T13:15:24Z</time></trkpt><trkpt lat="41.20914535243502" lon="14.840971668143647"><ele>426.0</ele><time>2026-05-02T13:15:25Z</time></trkpt><trkpt lat="41.20904836204696" lon="14.840947168620087"><ele>424.4</ele><time>2026-05-02T13:15:26Z</time></trkpt><trkpt lat="41.20894757558121" lon="14.840937529722634"><ele>422.8</ele><time>2026-05-02T13:15:27Z</time></trkpt><trkpt lat="41.20884822105958" lon="14.840949300417458"><ele>421.2</ele><time>2026-05-02T13:15:28Z</time></trkpt><trkpt lat="41.20874652818971" lon="14.84099735600053"><ele>419.59999999999997</ele><time>2026-05-02T13:15:29Z</time></trkpt><trkpt lat="41.208648222853064" lon="14.841084515824143"><ele>418.0</ele><time>2026-05-02T13:15:30Z</time></trkpt><trkpt lat="41.20857501806424" lon="14.841182302314461"><ele>418.0</ele><time>2026-05-02T13:15:31Z</time></trkpt><trkpt lat="41.2084800326611" lon="14.841348449221428"><ele>418.0</ele><time>2026-05-02T13:15:32Z</time></trkpt><trkpt lat="41.20838743093371" lon="14.84154824861475"><ele>418.0</ele><time>2026-05-02T13:15:33Z</time></trkpt><trkpt lat="41.20826840584916" lon="14.84180583883281"><ele>417.33333333333337</ele><time>2026-05-02T13:15:34Z</time></trkpt><trkpt lat="41.20813653725549" lon="14.842036194150587"><ele>416.66666666666663</ele><time>2026-05-02T13:15:35Z</time></trkpt><trkpt lat="41.20800359021222" lon="14.842218413592873"><ele>416.0</ele><time>2026-05-02T13:15:36Z</time></trkpt><trkpt lat="41.20785484066467" lon="14.842342332916374"><ele>416.0</ele><time>2026-05-02T13:15:37Z</time></trkpt><trkpt lat="41.20768701211" lon="14.842426604361458"><ele>416.0</ele><time>2026-05-02T13:15:38Z</time></trkpt><trkpt lat="41.20749757791365" lon="14.842451034386478"><ele>416.0</ele><time>2026-05-02T13:15:39Z</time></trkpt><trkpt lat="41.20727772450498" lon="14.842421091102766"><ele>414.0</ele><time>2026-05-02T13:15:40Z</time></trkpt><trkpt lat="41.20701242126779" lon="14.8423660275515"><ele>412.0</ele><time>2026-05-02T13:15:41Z</time></trkpt><trkpt lat="41.20675303388725" lon="14.842293184483708"><ele>412.0</ele><time>2026-05-02T13:15:42Z</time></trkpt><trkpt lat="41.2065133610373" lon="14.842226947373943"><ele>412.0</ele><time>2026-05-02T13:15:43Z</time></trkpt><trkpt lat="41.20629423183551" lon="14.842195691022786"><ele>411.33333333333337</ele><time>2026-05-02T13:15:44Z</time></trkpt><trkpt lat="41.20607301762701" lon="14.842186870817324"><ele>410.66666666666663</ele><time>2026-05-02T13:15:45Z</time></trkpt><trkpt lat="41.20585388625708" lon="14.842176973476588"><ele>410.0</ele><time>2026-05-02T13:15:46Z</time></trkpt><trkpt lat="41.205631833070974" lon="14.84218561393353"><ele>407.5</ele><time>2026-05-02T13:15:47Z</time></trkpt><trkpt lat="41.20540006486501" lon="14.842204863809993"><ele>405.0</ele><time>2026-05-02T13:15:48Z</time></trkpt><trkpt lat="41.20514967863967" lon="14.842240512974476"><ele>405.0</ele><time>2026-05-02T13:15:49Z</time></trkpt><trkpt lat="41.20490002217728" lon="14.842272248307012"><ele>405.0</ele><time>2026-05-02T13:15:50Z</time></trkpt><trkpt lat="41.20468088585537" lon="14.842309463292223"><ele>402.0</ele><time>2026-05-02T13:15:51Z</time></trkpt><trkpt lat="41.204450217398715" lon="14.84233803530238"><ele>399.0</ele><time>2026-05-02T13:15:52Z</time></trkpt><trkpt lat="41.20421014878041" lon="14.842342936864933"><ele>396.5</ele><time>2026-05-02T13:15:53Z</time></trkpt><trkpt lat="41.20395015461187" lon="14.842308286461254"><ele>394.0</ele><time>2026-05-02T13:15:54Z</time></trkpt><trkpt lat="41.203685252310414" lon="14.842243835650066"><ele>394.0</ele><time>2026-05-02T13:15:55Z</time></trkpt><trkpt lat="41.203449772462086" lon="14.842194102682672"><ele>394.0</ele><time>2026-05-02T13:15:56Z</time></trkpt><trkpt lat="41.20324838239565" lon="14.842159410773133"><ele>394.0</ele><time>2026-05-02T13:15:57Z</time></trkpt><trkpt lat="41.203070257785996" lon="14.842136926364502"><ele>392.33333333333337</ele><time>2026-05-02T13:15:58Z</time></trkpt><trkpt lat="41.2029141474858" lon="14.842132942193523"><ele>390.66666666666663</ele><time>2026-05-02T13:15:59Z</time></trkpt><trkpt lat="41.20276739852929" lon="14.84219699015299"><ele>389.0</ele><time>2026-05-02T13:16:00Z</time></trkpt><trkpt lat="41.20264048453943" lon="14.842326678238946"><ele>389.0</ele><time>2026-05-02T13:16:01Z</time></trkpt><trkpt lat="41.20252692862499" lon="14.842539618844933"><ele>389.0</ele><time>2026-05-02T13:16:02Z</time></trkpt><trkpt lat="41.20242278752116" lon="14.842792384055839"><ele>389.0</ele><time>2026-05-02T13:16:03Z</time></trkpt><trkpt lat="41.20230533158476" lon="14.843033293318111"><ele>387.75</ele><time>2026-05-02T13:16:04Z</time></trkpt><trkpt lat="41.202215317913854" lon="14.843214172316648"><ele>386.5</ele><time>2026-05-02T13:16:05Z</time></trkpt><trkpt lat="41.20213361516122" lon="14.843361028179958"><ele>385.25</ele><time>2026-05-02T13:16:06Z</time></trkpt><trkpt lat="41.20203342626425" lon="14.843448969636126"><ele>384.0</ele><time>2026-05-02T13:16:07Z</time></trkpt><trkpt lat="41.201901700253686" lon="14.843459743559455"><ele>384.0</ele><time>2026-05-02T13:16:08Z</time></trkpt><trkpt lat="41.20174282985415" lon="14.843372812806505"><ele>384.0</ele><time>2026-05-02T13:16:09Z</time></trkpt><trkpt lat="41.20155530673093" lon="14.843226889194563"><ele>384.0</ele><time>2026-05-02T13:16:10Z</time></trkpt><trkpt lat="41.20140042762037" lon="14.843035697118799"><ele>384.0</ele><time>2026-05-02T13:16:11Z</time></trkpt><trkpt lat="41.2012875636509" lon="14.842852559709046"><ele>384.0</ele><time>2026-05-02T13:16:12Z</time></trkpt><trkpt lat="41.20118627143486" lon="14.84267844923842"><ele>384.0</ele><time>2026-05-02T13:16:13Z</time></trkpt><trkpt lat="41.20109219547853" lon="14.842506723593408"><ele>382.0</ele><time>2026-05-02T13:16:14Z</time></trkpt><trkpt lat="41.2009946950013" lon="14.842349912210251"><ele>380.0</ele><time>2026-05-02T13:16:15Z</time></trkpt><trkpt lat="41.20090429359231" lon="14.842196147832786"><ele>378.0</ele><time>2026-05-02T13:16:16Z</time></trkpt><trkpt lat="41.20080890362174" lon="14.842027892055603"><ele>378.0</ele><time>2026-05-02T13:16:17Z</time></trkpt><trkpt lat="41.200704330220354" lon="14.841855174226376"><ele>378.0</ele><time>2026-05-02T13:16:18Z</time></trkpt><trkpt lat="41.20059502483358" lon="14.841686865210672"><ele>378.0</ele><time>2026-05-02T13:16:19Z</time></trkpt><trkpt lat="41.20046629391994" lon="14.841530083781965"><ele>376.0</ele><time>2026-05-02T13:16:20Z</time></trkpt><trkpt lat="41.20031573421882" lon="14.841388052187268"><ele>374.0</ele><time>2026-05-02T13:16:21Z</time></trkpt><trkpt lat="41.20015958464068" lon="14.841262899291648"><ele>372.0</ele><time>2026-05-02T13:16:22Z</time></trkpt><trkpt lat="41.20002821609309" lon="14.841134590668045"><ele>372.0</ele><time>2026-05-02T13:16:23Z</time></trkpt><trkpt lat="41.19989984172917" lon="14.841015741696554"><ele>372.0</ele><time>2026-05-02T13:16:24Z</time></trkpt><trkpt lat="41.199787934991065" lon="14.840910951677955"><ele>372.0</ele><time>2026-05-02T13:16:25Z</time></trkpt><trkpt lat="41.19968108009708" lon="14.840805054023841"><ele>372.0</ele><time>2026-05-02T13:16:26Z</time></trkpt><trkpt lat="41.199580171969544" lon="14.840703519606617"><ele>370.5</ele><time>2026-05-02T13:16:27Z</time></trkpt><trkpt lat="41.19948171171995" lon="14.840608669673243"><ele>369.0</ele><time>2026-05-02T13:16:28Z</time></trkpt><trkpt lat="41.19939039824711" lon="14.840511380593663"><ele>367.5</ele><time>2026-05-02T13:16:29Z</time></trkpt><trkpt lat="41.19929879190795" lon="14.840417830825947"><ele>366.0</ele><time>2026-05-02T13:16:30Z</time></trkpt><trkpt lat="41.19920180303821" lon="14.840318712504892"><ele>366.0</ele><time>2026-05-02T13:16:31Z</time></trkpt><trkpt lat="41.199092252854946" lon="14.840215126195316"><ele>366.0</ele><time>2026-05-02T13:16:32Z</time></trkpt><trkpt lat="41.19897719016369" lon="14.84010159728771"><ele>366.0</ele><time>2026-05-02T13:16:33Z</time></trkpt><trkpt lat="41.19887718936154" lon="14.839990925747822"><ele>366.0</ele><time>2026-05-02T13:16:34.001Z</time></trkpt><trkpt lat="41.19879186798221" lon="14.83986373268898"><ele>364.75</ele><time>2026-05-02T13:16:35.001Z</time></trkpt><trkpt lat="41.19871021536386" lon="14.839725252297189"><ele>363.5</ele><time>2026-05-02T13:16:36.001Z</time></trkpt><trkpt lat="41.19862762481978" lon="14.839576976264423"><ele>362.25</ele><time>2026-05-02T13:16:37.001Z</time></trkpt><trkpt lat="41.198556892780694" lon="14.839415593793317"><ele>361.0</ele><time>2026-05-02T13:16:38.001Z</time></trkpt><trkpt lat="41.19850112505488" lon="14.83926507351044"><ele>360.25</ele><time>2026-05-02T13:16:39.001Z</time></trkpt><trkpt lat="41.198447831495024" lon="14.839105583870456"><ele>359.5</ele><time>2026-05-02T13:16:40.001Z</time></trkpt><trkpt lat="41.198401879720905" lon="14.83894588276246"><ele>358.75</ele><time>2026-05-02T13:16:41.001Z</time></trkpt><trkpt lat="41.19835848048122" lon="14.83878648638058"><ele>358.0</ele><time>2026-05-02T13:16:42.001Z</time></trkpt><trkpt lat="41.198327428313796" lon="14.838645593106973"><ele>358.0</ele><time>2026-05-02T13:16:43.001Z</time></trkpt><trkpt lat="41.198311054117326" lon="14.838513806625802"><ele>358.0</ele><time>2026-05-02T13:16:44.001Z</time></trkpt><trkpt lat="41.19828063503521" lon="14.838349175363987"><ele>358.0</ele><time>2026-05-02T13:16:45.001Z</time></trkpt><trkpt lat="41.198262839599884" lon="14.838214356312703"><ele>358.0</ele><time>2026-05-02T13:16:46.001Z</time></trkpt><trkpt lat="41.19824633970017" lon="14.83806604537278"><ele>358.0</ele><time>2026-05-02T13:16:47.001Z</time></trkpt><trkpt lat="41.19823530432552" lon="14.837906104148297"><ele>357.59999999999997</ele><time>2026-05-02T13:16:48.001Z</time></trkpt><trkpt lat="41.19823709215723" lon="14.837758218802302"><ele>357.2</ele><time>2026-05-02T13:16:49.001Z</time></trkpt><trkpt lat="41.19825927714538" lon="14.83761268222722"><ele>356.8</ele><time>2026-05-02T13:16:50.001Z</time></trkpt><trkpt lat="41.19830168753472" lon="14.837502791933758"><ele>356.4</ele><time>2026-05-02T13:16:51.001Z</time></trkpt><trkpt lat="41.19835230950903" lon="14.837400156645986"><ele>356.0</ele><time>2026-05-02T13:16:52.001Z</time></trkpt><trkpt lat="41.19840548881875" lon="14.837293986909957"><ele>355.4</ele><time>2026-05-02T13:16:53.001Z</time></trkpt><trkpt lat="41.19844067555035" lon="14.83718170431298"><ele>354.8</ele><time>2026-05-02T13:16:54.001Z</time></trkpt><trkpt lat="41.19845531150027" lon="14.837046890917042"><ele>354.2</ele><time>2026-05-02T13:16:55.001Z</time></trkpt><trkpt lat="41.19842899191358" lon="14.836893221498615"><ele>353.59999999999997</ele><time>2026-05-02T13:16:56.001Z</time></trkpt><trkpt lat="41.19837755021771" lon="14.836742801226785"><ele>353.0</ele><time>2026-05-02T13:16:57Z</time></trkpt><trkpt lat="41.1982979197901" lon="14.836596780468076"><ele>350.6666666666667</ele><time>2026-05-02T13:16:58Z</time></trkpt><trkpt lat="41.198215973433996" lon="14.8364068473829"><ele>348.3333333333333</ele><time>2026-05-02T13:16:59Z</time></trkpt><trkpt lat="41.19814192006601" lon="14.836199588440724"><ele>346.0</ele><time>2026-05-02T13:17:00Z</time></trkpt><trkpt lat="41.19807485949689" lon="14.835983803092914"><ele>348.66666666666663</ele><time>2026-05-02T13:17:01Z</time></trkpt><trkpt lat="41.19799756258995" lon="14.83581898942152"><ele>351.3333333333333</ele><time>2026-05-02T13:17:02Z</time></trkpt><trkpt lat="41.19786835979117" lon="14.835711098867474"><ele>354.0</ele><time>2026-05-02T13:17:03Z</time></trkpt><trkpt lat="41.19771166858301" lon="14.83567119093629"><ele>354.0</ele><time>2026-05-02T13:17:04Z</time></trkpt><trkpt lat="41.19754934947363" lon="14.83571993623387"><ele>354.0</ele><time>2026-05-02T13:17:05Z</time></trkpt><trkpt lat="41.19733733247009" lon="14.835793894340638"><ele>354.0</ele><time>2026-05-02T13:17:06Z</time></trkpt><trkpt lat="41.1970766704674" lon="14.835844726419122"><ele>357.0</ele><time>2026-05-02T13:17:07Z</time></trkpt><trkpt lat="41.1968096528663" lon="14.835872145506716"><ele>360.0</ele><time>2026-05-02T13:17:08Z</time></trkpt><trkpt lat="41.19656150909804" lon="14.835929340237978"><ele>361.6666666666667</ele><time>2026-05-02T13:17:09Z</time></trkpt><trkpt lat="41.19636767369991" lon="14.836031123985341"><ele>363.33333333333337</ele><time>2026-05-02T13:17:10Z</time></trkpt><trkpt lat="41.1961947916411" lon="14.836189002640875"><ele>365.0</ele><time>2026-05-02T13:17:11Z</time></trkpt><trkpt lat="41.196044015495296" lon="14.836397772107821"><ele>365.0</ele><time>2026-05-02T13:17:12Z</time></trkpt><trkpt lat="41.19593018581709" lon="14.836644703003072"><ele>365.0</ele><time>2026-05-02T13:17:13Z</time></trkpt><trkpt lat="41.19585827882071" lon="14.8369008841787"><ele>365.0</ele><time>2026-05-02T13:17:14Z</time></trkpt><trkpt lat="41.195796791685524" lon="14.837091108912317"><ele>365.75</ele><time>2026-05-02T13:17:15Z</time></trkpt><trkpt lat="41.195690254569534" lon="14.837177858253295"><ele>366.5</ele><time>2026-05-02T13:17:16Z</time></trkpt><trkpt lat="41.19556367292759" lon="14.837205860419356"><ele>367.25</ele><time>2026-05-02T13:17:17Z</time></trkpt><trkpt lat="41.195430945113316" lon="14.837140982498687"><ele>368.0</ele><time>2026-05-02T13:17:18Z</time></trkpt><trkpt lat="41.19529593787864" lon="14.837032007862275"><ele>368.0</ele><time>2026-05-02T13:17:19Z</time></trkpt><trkpt lat="41.195112705260904" lon="14.836881264961137"><ele>368.0</ele><time>2026-05-02T13:17:20Z</time></trkpt><trkpt lat="41.19491767133382" lon="14.836725605179938"><ele>368.0</ele><time>2026-05-02T13:17:21Z</time></trkpt><trkpt lat="41.19470925267178" lon="14.83654641312766"><ele>370.5</ele><time>2026-05-02T13:17:22Z</time></trkpt><trkpt lat="41.194481785994455" lon="14.836350863886926"><ele>373.0</ele><time>2026-05-02T13:17:23Z</time></trkpt><trkpt lat="41.19423569802828" lon="14.836131566241601"><ele>375.5</ele><time>2026-05-02T13:17:24Z</time></trkpt><trkpt lat="41.19397833151545" lon="14.8359127700622"><ele>378.0</ele><time>2026-05-02T13:17:25Z</time></trkpt><trkpt lat="41.19371897216981" lon="14.835682583541134"><ele>378.0</ele><time>2026-05-02T13:17:26Z</time></trkpt><trkpt lat="41.19343785965864" lon="14.835447057485833"><ele>378.0</ele><time>2026-05-02T13:17:27Z</time></trkpt><trkpt lat="41.19314399884445" lon="14.835200276948248"><ele>380.5</ele><time>2026-05-02T13:17:28Z</time></trkpt><trkpt lat="41.192839884908544" lon="14.834947625144014"><ele>383.0</ele><time>2026-05-02T13:17:29Z</time></trkpt><trkpt lat="41.1925460403209" lon="14.834701526062867"><ele>385.0</ele><time>2026-05-02T13:17:30Z</time></trkpt><trkpt lat="41.192290560037094" lon="14.834487641876644"><ele>387.0</ele><time>2026-05-02T13:17:31Z</time></trkpt><trkpt lat="41.19206870265956" lon="14.8342899705759"><ele>387.0</ele><time>2026-05-02T13:17:32Z</time></trkpt><trkpt lat="41.19187765500464" lon="14.834122950571164"><ele>387.0</ele><time>2026-05-02T13:17:33Z</time></trkpt><trkpt lat="41.191695975145684" lon="14.833958992610842"><ele>387.0</ele><time>2026-05-02T13:17:34Z</time></trkpt><trkpt lat="41.19152797663984" lon="14.833805416659557"><ele>388.0</ele><time>2026-05-02T13:17:35Z</time></trkpt><trkpt lat="41.19137154268246" lon="14.833663089915953"><ele>389.0</ele><time>2026-05-02T13:17:36Z</time></trkpt><trkpt lat="41.19120956566582" lon="14.8335102130237"><ele>390.0</ele><time>2026-05-02T13:17:37Z</time></trkpt><trkpt lat="41.191054991750846" lon="14.833346225193747"><ele>390.33333333333337</ele><time>2026-05-02T13:17:38Z</time></trkpt><trkpt lat="41.1909227112451" lon="14.833187724347919"><ele>390.6666666666667</ele><time>2026-05-02T13:17:39Z</time></trkpt><trkpt lat="41.19079798608462" lon="14.833013540351587"><ele>391.0</ele><time>2026-05-02T13:17:40Z</time></trkpt><trkpt lat="41.19069144622126" lon="14.832850924383312"><ele>391.5</ele><time>2026-05-02T13:17:41Z</time></trkpt><trkpt lat="41.19059692430703" lon="14.832718638711341"><ele>392.0</ele><time>2026-05-02T13:17:42Z</time></trkpt><trkpt lat="41.1905158228645" lon="14.83259966742044"><ele>392.5</ele><time>2026-05-02T13:17:43Z</time></trkpt><trkpt lat="41.19044360871112" lon="14.832486805509326"><ele>393.0</ele><time>2026-05-02T13:17:44Z</time></trkpt><trkpt lat="41.190381915662144" lon="14.832384031818957"><ele>393.3333333333333</ele><time>2026-05-02T13:17:45Z</time></trkpt><trkpt lat="41.19033316719807" lon="14.83230256363482"><ele>393.66666666666663</ele><time>2026-05-02T13:17:46Z</time></trkpt><trkpt lat="41.19029215411494" lon="14.832238173199208"><ele>394.0</ele><time>2026-05-02T13:17:47Z</time></trkpt><trkpt lat="41.19024486939516" lon="14.83215590060338"><ele>394.3333333333333</ele><time>2026-05-02T13:17:48Z</time></trkpt><trkpt lat="41.19019221749071" lon="14.832054795638731"><ele>394.66666666666663</ele><time>2026-05-02T13:17:49Z</time></trkpt><trkpt lat="41.190135435365626" lon="14.831943412088528"><ele>395.0</ele><time>2026-05-02T13:17:50Z</time></trkpt><trkpt lat="41.19005415316525" lon="14.831814441937205"><ele>395.0</ele><time>2026-05-02T13:17:51Z</time></trkpt><trkpt lat="41.18997290210126" lon="14.831676806954194"><ele>395.0</ele><time>2026-05-02T13:17:52Z</time></trkpt><trkpt lat="41.18988362793797" lon="14.831532524502943"><ele>395.0</ele><time>2026-05-02T13:17:53Z</time></trkpt><trkpt lat="41.18978456353449" lon="14.831377567638937"><ele>395.0</ele><time>2026-05-02T13:17:54Z</time></trkpt><trkpt lat="41.18969141764751" lon="14.831189005506271"><ele>395.3333333333333</ele><time>2026-05-02T13:17:55Z</time></trkpt><trkpt lat="41.189577344862776" lon="14.830962354424493"><ele>395.66666666666663</ele><time>2026-05-02T13:17:56Z</time></trkpt><trkpt lat="41.18947167949654" lon="14.83073836851039"><ele>396.0</ele><time>2026-05-02T13:17:57Z</time></trkpt><trkpt lat="41.18936442002974" lon="14.830525299033317"><ele>396.0</ele><time>2026-05-02T13:17:58Z</time></trkpt><trkpt lat="41.18927956513798" lon="14.830333786073975"><ele>396.0</ele><time>2026-05-02T13:17:59Z</time></trkpt><trkpt lat="41.189198714134506" lon="14.830143943301202"><ele>396.0</ele><time>2026-05-02T13:18:00Z</time></trkpt><trkpt lat="41.18909986320487" lon="14.82992509460136"><ele>394.66666666666663</ele><time>2026-05-02T13:18:01Z</time></trkpt><trkpt lat="41.18899866578522" lon="14.829687226356578"><ele>393.3333333333333</ele><time>2026-05-02T13:18:02Z</time></trkpt><trkpt lat="41.188908500941615" lon="14.829433456353472"><ele>392.0</ele><time>2026-05-02T13:18:03Z</time></trkpt><trkpt lat="41.188822105558835" lon="14.829156653596286"><ele>391.3333333333333</ele><time>2026-05-02T13:18:04Z</time></trkpt><trkpt lat="41.188751389335565" lon="14.82888041823356"><ele>390.66666666666663</ele><time>2026-05-02T13:18:05Z</time></trkpt><trkpt lat="41.18868802034127" lon="14.82863581111769"><ele>390.0</ele><time>2026-05-02T13:18:06Z</time></trkpt><trkpt lat="41.18862324239728" lon="14.828408784906"><ele>389.33333333333337</ele><time>2026-05-02T13:18:07Z</time></trkpt><trkpt lat="41.188569226807815" lon="14.828196977413022"><ele>388.6666666666667</ele><time>2026-05-02T13:18:08Z</time></trkpt><trkpt lat="41.18851480046412" lon="14.827969742387161"><ele>388.0</ele><time>2026-05-02T13:18:09Z</time></trkpt><trkpt lat="41.18848230249695" lon="14.82774110783113"><ele>388.6666666666667</ele><time>2026-05-02T13:18:10Z</time></trkpt><trkpt lat="41.18847960178027" lon="14.827520184991359"><ele>389.33333333333337</ele><time>2026-05-02T13:18:11Z</time></trkpt><trkpt lat="41.18849410817584" lon="14.827301633422636"><ele>390.0</ele><time>2026-05-02T13:18:12Z</time></trkpt><trkpt lat="41.188504178719654" lon="14.827074877733269"><ele>390.0</ele><time>2026-05-02T13:18:13Z</time></trkpt><trkpt lat="41.188525356683186" lon="14.826810736946104"><ele>390.0</ele><time>2026-05-02T13:18:14Z</time></trkpt><trkpt lat="41.188558431309865" lon="14.826504648953058"><ele>390.0</ele><time>2026-05-02T13:18:15Z</time></trkpt><trkpt lat="41.18861063734677" lon="14.826202857287663"><ele>389.5</ele><time>2026-05-02T13:18:16Z</time></trkpt><trkpt lat="41.188652704680294" lon="14.825889249755017"><ele>389.0</ele><time>2026-05-02T13:18:17Z</time></trkpt><trkpt lat="41.188670588073855" lon="14.825588045464013"><ele>389.0</ele><time>2026-05-02T13:18:18Z</time></trkpt><trkpt lat="41.188700714490814" lon="14.825287805508895"><ele>389.0</ele><time>2026-05-02T13:18:19Z</time></trkpt><trkpt lat="41.18873344288333" lon="14.825023718985198"><ele>389.0</ele><time>2026-05-02T13:18:20Z</time></trkpt><trkpt lat="41.18875175911124" lon="14.824775245080577"><ele>389.0</ele><time>2026-05-02T13:18:21Z</time></trkpt><trkpt lat="41.18874606011268" lon="14.8245394119435"><ele>389.0</ele><time>2026-05-02T13:18:22Z</time></trkpt><trkpt lat="41.18868991934809" lon="14.824301602612652"><ele>389.0</ele><time>2026-05-02T13:18:23Z</time></trkpt><trkpt lat="41.18855052734099" lon="14.824072328583004"><ele>389.0</ele><time>2026-05-02T13:18:24Z</time></trkpt><trkpt lat="41.18835030704444" lon="14.823886465976639"><ele>389.0</ele><time>2026-05-02T13:18:25Z</time></trkpt><trkpt lat="41.188145711070966" lon="14.823704713968144"><ele>388.0</ele><time>2026-05-02T13:18:26Z</time></trkpt><trkpt lat="41.18792093521768" lon="14.823476764856007"><ele>387.0</ele><time>2026-05-02T13:18:27Z</time></trkpt><trkpt lat="41.18771186671926" lon="14.823238893391101"><ele>387.0</ele><time>2026-05-02T13:18:28Z</time></trkpt><trkpt lat="41.18749588478847" lon="14.82299988423312"><ele>387.0</ele><time>2026-05-02T13:18:29Z</time></trkpt><trkpt lat="41.187291338922165" lon="14.822780356325707"><ele>386.5</ele><time>2026-05-02T13:18:30Z</time></trkpt><trkpt lat="41.18707343204134" lon="14.822585369431177"><ele>386.0</ele><time>2026-05-02T13:18:31Z</time></trkpt><trkpt lat="41.186846598520475" lon="14.822396407128284"><ele>386.0</ele><time>2026-05-02T13:18:32Z</time></trkpt><trkpt lat="41.1866061999812" lon="14.822216200801245"><ele>386.0</ele><time>2026-05-02T13:18:33Z</time></trkpt><trkpt lat="41.186342398146486" lon="14.822014247069148"><ele>386.5</ele><time>2026-05-02T13:18:34Z</time></trkpt><trkpt lat="41.18609202147678" lon="14.821789996223634"><ele>387.0</ele><time>2026-05-02T13:18:35Z</time></trkpt><trkpt lat="41.18587103571436" lon="14.8215852849898"><ele>385.0</ele><time>2026-05-02T13:18:36Z</time></trkpt><trkpt lat="41.18565402795515" lon="14.821406345893935"><ele>383.0</ele><time>2026-05-02T13:18:37Z</time></trkpt><trkpt lat="41.185449371233325" lon="14.821237439428058"><ele>383.0</ele><time>2026-05-02T13:18:38Z</time></trkpt><trkpt lat="41.185254834779855" lon="14.821075915791592"><ele>383.0</ele><time>2026-05-02T13:18:39Z</time></trkpt><trkpt lat="41.18506860430876" lon="14.820907861719053"><ele>383.33333333333337</ele><time>2026-05-02T13:18:40.001Z</time></trkpt><trkpt lat="41.18489789009738" lon="14.82072577375731"><ele>383.6666666666667</ele><time>2026-05-02T13:18:41.001Z</time></trkpt><trkpt lat="41.18474465887939" lon="14.820528056209257"><ele>384.0</ele><time>2026-05-02T13:18:42.001Z</time></trkpt><trkpt lat="41.184605461469985" lon="14.820327478478612"><ele>384.33333333333337</ele><time>2026-05-02T13:18:43.001Z</time></trkpt><trkpt lat="41.184475109167224" lon="14.82010825804124"><ele>384.6666666666667</ele><time>2026-05-02T13:18:44.001Z</time></trkpt><trkpt lat="41.184350546980454" lon="14.819864512242367"><ele>385.0</ele><time>2026-05-02T13:18:45.001Z</time></trkpt><trkpt lat="41.18424499177758" lon="14.819634494718688"><ele>385.0</ele><time>2026-05-02T13:18:46.001Z</time></trkpt><trkpt lat="41.18415174507873" lon="14.819438412995433"><ele>385.0</ele><time>2026-05-02T13:18:47.001Z</time></trkpt><trkpt lat="41.184054097329664" lon="14.819255155812225"><ele>385.0</ele><time>2026-05-02T13:18:48.001Z</time></trkpt><trkpt lat="41.18395853005642" lon="14.819066818580815"><ele>384.6666666666667</ele><time>2026-05-02T13:18:49.001Z</time></trkpt><trkpt lat="41.183865270649754" lon="14.818872283199342"><ele>384.33333333333337</ele><time>2026-05-02T13:18:50.001Z</time></trkpt><trkpt lat="41.18376646493352" lon="14.818673648636452"><ele>384.0</ele><time>2026-05-02T13:18:51.001Z</time></trkpt><trkpt lat="41.18366224815305" lon="14.818475560581303"><ele>384.0</ele><time>2026-05-02T13:18:52.001Z</time></trkpt><trkpt lat="41.183539041087116" lon="14.818244495677058"><ele>384.0</ele><time>2026-05-02T13:18:53.001Z</time></trkpt><trkpt lat="41.183390592746505" lon="14.817972036166761"><ele>384.0</ele><time>2026-05-02T13:18:54.001Z</time></trkpt><trkpt lat="41.18324773107235" lon="14.817674470259199"><ele>384.0</ele><time>2026-05-02T13:18:55.001Z</time></trkpt><trkpt lat="41.18309750185934" lon="14.81733539304048"><ele>384.0</ele><time>2026-05-02T13:18:56.001Z</time></trkpt><trkpt lat="41.18293741786773" lon="14.816999041778763"><ele>384.0</ele><time>2026-05-02T13:18:57.001Z</time></trkpt><trkpt lat="41.18276877993027" lon="14.81666508297391"><ele>384.0</ele><time>2026-05-02T13:18:58.001Z</time></trkpt><trkpt lat="41.18260664320649" lon="14.816340814063532"><ele>384.0</ele><time>2026-05-02T13:18:59.001Z</time></trkpt><trkpt lat="41.18246243710193" lon="14.816054827116925"><ele>383.0</ele><time>2026-05-02T13:19:00.001Z</time></trkpt><trkpt lat="41.18232713488933" lon="14.81578289980578"><ele>382.0</ele><time>2026-05-02T13:19:01.001Z</time></trkpt><trkpt lat="41.18221117964341" lon="14.815526119061301"><ele>382.0</ele><time>2026-05-02T13:19:02.001Z</time></trkpt><trkpt lat="41.18208750099304" lon="14.815280591904227"><ele>382.0</ele><time>2026-05-02T13:19:03.001Z</time></trkpt><trkpt lat="41.1819785137982" lon="14.815042284841097"><ele>382.0</ele><time>2026-05-02T13:19:04.001Z</time></trkpt><trkpt lat="41.18189475134023" lon="14.814786242140332"><ele>382.0</ele><time>2026-05-02T13:19:05.001Z</time></trkpt><trkpt lat="41.18185016565084" lon="14.814533438864327"><ele>382.0</ele><time>2026-05-02T13:19:06.001Z</time></trkpt><trkpt lat="41.18182003515461" lon="14.814293264168127"><ele>382.0</ele><time>2026-05-02T13:19:07.001Z</time></trkpt><trkpt lat="41.18182170370147" lon="14.81407660701877"><ele>382.0</ele><time>2026-05-02T13:19:08.001Z</time></trkpt><trkpt lat="41.18191288512173" lon="14.81386736663809"><ele>382.0</ele><time>2026-05-02T13:19:09Z</time></trkpt><trkpt lat="41.18203270400685" lon="14.813642186251256"><ele>382.0</ele><time>2026-05-02T13:19:10Z</time></trkpt><trkpt lat="41.18217688475609" lon="14.8133937766995"><ele>382.0</ele><time>2026-05-02T13:19:11Z</time></trkpt><trkpt lat="41.18233656811209" lon="14.813132690185881"><ele>382.0</ele><time>2026-05-02T13:19:12Z</time></trkpt><trkpt lat="41.182496323967" lon="14.812841418288745"><ele>379.0</ele><time>2026-05-02T13:19:13Z</time></trkpt><trkpt lat="41.18266342503526" lon="14.812551773309016"><ele>376.0</ele><time>2026-05-02T13:19:14Z</time></trkpt><trkpt lat="41.182816636428065" lon="14.812285374432747"><ele>376.0</ele><time>2026-05-02T13:19:15Z</time></trkpt><trkpt lat="41.18295583996089" lon="14.812042445861307"><ele>376.0</ele><time>2026-05-02T13:19:16Z</time></trkpt><trkpt lat="41.18306785274384" lon="14.811795126474555"><ele>376.0</ele><time>2026-05-02T13:19:17Z</time></trkpt><trkpt lat="41.18318682692742" lon="14.811585505967727"><ele>372.66666666666663</ele><time>2026-05-02T13:19:18Z</time></trkpt><trkpt lat="41.183180630896814" lon="14.81128723250745"><ele>369.3333333333333</ele><time>2026-05-02T13:19:19Z</time></trkpt><trkpt lat="41.18317053256366" lon="14.81100684355224"><ele>366.0</ele><time>2026-05-02T13:19:20Z</time></trkpt><trkpt lat="41.18311481637031" lon="14.810695631869427"><ele>363.5</ele><time>2026-05-02T13:19:21Z</time></trkpt><trkpt lat="41.18306172629972" lon="14.810347926223898"><ele>361.0</ele><time>2026-05-02T13:19:22Z</time></trkpt><trkpt lat="41.18302413695719" lon="14.810012337996707"><ele>360.66666666666663</ele><time>2026-05-02T13:19:23Z</time></trkpt><trkpt lat="41.18299355085549" lon="14.809726275980664"><ele>360.3333333333333</ele><time>2026-05-02T13:19:24Z</time></trkpt><trkpt lat="41.182946502912806" lon="14.809484766120603"><ele>360.0</ele><time>2026-05-02T13:19:25Z</time></trkpt><trkpt lat="41.18284874337358" lon="14.809264304739418"><ele>361.0</ele><time>2026-05-02T13:19:26Z</time></trkpt><trkpt lat="41.18269986379145" lon="14.809075889940868"><ele>362.0</ele><time>2026-05-02T13:19:27Z</time></trkpt><trkpt lat="41.18251222623061" lon="14.808922036632762"><ele>363.0</ele><time>2026-05-02T13:19:28Z</time></trkpt><trkpt lat="41.18231868993772" lon="14.808775849720348"><ele>361.3333333333333</ele><time>2026-05-02T13:19:29Z</time></trkpt><trkpt lat="41.18213676223602" lon="14.80861784791681"><ele>359.66666666666663</ele><time>2026-05-02T13:19:30Z</time></trkpt><trkpt lat="41.18194445247559" lon="14.80844696401237"><ele>358.0</ele><time>2026-05-02T13:19:31Z</time></trkpt><trkpt lat="41.18175745168031" lon="14.808273583374252"><ele>358.0</ele><time>2026-05-02T13:19:32Z</time></trkpt><trkpt lat="41.181569481285315" lon="14.808089532234554"><ele>358.0</ele><time>2026-05-02T13:19:33Z</time></trkpt><trkpt lat="41.1813943637723" lon="14.807894015166628"><ele>355.66666666666663</ele><time>2026-05-02T13:19:34Z</time></trkpt><trkpt lat="41.18124313184996" lon="14.807695015712465"><ele>353.3333333333333</ele><time>2026-05-02T13:19:35Z</time></trkpt><trkpt lat="41.181125470650144" lon="14.807483456855161"><ele>351.0</ele><time>2026-05-02T13:19:36Z</time></trkpt><trkpt lat="41.18103523304295" lon="14.80725962909813"><ele>351.0</ele><time>2026-05-02T13:19:37Z</time></trkpt><trkpt lat="41.180982456512396" lon="14.807038833879846"><ele>351.0</ele><time>2026-05-02T13:19:38Z</time></trkpt><trkpt lat="41.18094322459091" lon="14.806821775673587"><ele>351.0</ele><time>2026-05-02T13:19:39Z</time></trkpt><trkpt lat="41.18090392160024" lon="14.806617100860795"><ele>351.0</ele><time>2026-05-02T13:19:40Z</time></trkpt><trkpt lat="41.18088054162008" lon="14.806431952648675"><ele>351.0</ele><time>2026-05-02T13:19:41Z</time></trkpt><trkpt lat="41.18088620113816" lon="14.806280379364877"><ele>351.0</ele><time>2026-05-02T13:19:42Z</time></trkpt><trkpt lat="41.18091327988431" lon="14.806147520551242"><ele>351.0</ele><time>2026-05-02T13:19:43Z</time></trkpt><trkpt lat="41.18092293367485" lon="14.806029275404718"><ele>351.0</ele><time>2026-05-02T13:19:44Z</time></trkpt><trkpt lat="41.180885577933516" lon="14.805922820814756"><ele>351.0</ele><time>2026-05-02T13:19:45Z</time></trkpt><trkpt lat="41.180815660631886" lon="14.805851676231422"><ele>351.0</ele><time>2026-05-02T13:19:46Z</time></trkpt><trkpt lat="41.18072098520453" lon="14.805814209680857"><ele>351.0</ele><time>2026-05-02T13:19:47Z</time></trkpt><trkpt lat="41.18062692514659" lon="14.805866154391182"><ele>351.0</ele><time>2026-05-02T13:19:48Z</time></trkpt><trkpt lat="41.18054712044637" lon="14.805933512789386"><ele>351.0</ele><time>2026-05-02T13:19:49Z</time></trkpt><trkpt lat="41.1805073189885" lon="14.80602666485157"><ele>349.4</ele><time>2026-05-02T13:19:50Z</time></trkpt><trkpt lat="41.18049148565945" lon="14.806136817003141"><ele>347.8</ele><time>2026-05-02T13:19:51Z</time></trkpt><trkpt lat="41.18047250718645" lon="14.806267004883312"><ele>346.2</ele><time>2026-05-02T13:19:52Z</time></trkpt><trkpt lat="41.180419344155155" lon="14.806385491225269"><ele>344.59999999999997</ele><time>2026-05-02T13:19:53Z</time></trkpt><trkpt lat="41.180319427560285" lon="14.806509639575786"><ele>343.0</ele><time>2026-05-02T13:19:54Z</time></trkpt><trkpt lat="41.18019299402049" lon="14.806621062039158"><ele>343.0</ele><time>2026-05-02T13:19:55Z</time></trkpt><trkpt lat="41.1800394393959" lon="14.806742138139967"><ele>343.0</ele><time>2026-05-02T13:19:56Z</time></trkpt><trkpt lat="41.17987115691001" lon="14.806865774223722"><ele>343.0</ele><time>2026-05-02T13:19:57Z</time></trkpt><trkpt lat="41.17968527891104" lon="14.806988500918651"><ele>339.66666666666663</ele><time>2026-05-02T13:19:58Z</time></trkpt><trkpt lat="41.17951378193262" lon="14.807100749062787"><ele>336.3333333333333</ele><time>2026-05-02T13:19:59Z</time></trkpt><trkpt lat="41.17934721713822" lon="14.80720444975319"><ele>333.0</ele><time>2026-05-02T13:20:00Z</time></trkpt><trkpt lat="41.17918429644642" lon="14.807296353145306"><ele>332.0</ele><time>2026-05-02T13:20:01Z</time></trkpt><trkpt lat="41.179014023026795" lon="14.80737653302937"><ele>331.0</ele><time>2026-05-02T13:20:02Z</time></trkpt><trkpt lat="41.17881833640386" lon="14.807425030521902"><ele>330.0</ele><time>2026-05-02T13:20:03Z</time></trkpt><trkpt lat="41.17860470511995" lon="14.807454596990718"><ele>330.0</ele><time>2026-05-02T13:20:04Z</time></trkpt><trkpt lat="41.17837403766426" lon="14.80749433106018"><ele>330.0</ele><time>2026-05-02T13:20:05Z</time></trkpt><trkpt lat="41.17814497140459" lon="14.807531938585754"><ele>327.5</ele><time>2026-05-02T13:20:06Z</time></trkpt><trkpt lat="41.177912343836134" lon="14.80757322112774"><ele>325.0</ele><time>2026-05-02T13:20:07Z</time></trkpt><trkpt lat="41.177681116416764" lon="14.807615669034574"><ele>325.0</ele><time>2026-05-02T13:20:08Z</time></trkpt><trkpt lat="41.17745112122216" lon="14.80765502990916"><ele>325.0</ele><time>2026-05-02T13:20:09Z</time></trkpt><trkpt lat="41.177220721696436" lon="14.807692657432183"><ele>319.5</ele><time>2026-05-02T13:20:10Z</time></trkpt><trkpt lat="41.176985346729175" lon="14.807727140581708"><ele>314.0</ele><time>2026-05-02T13:20:11Z</time></trkpt><trkpt lat="41.17673630513687" lon="14.807746362470612"><ele>311.5</ele><time>2026-05-02T13:20:12Z</time></trkpt><trkpt lat="41.17648948775136" lon="14.807758261302984"><ele>309.0</ele><time>2026-05-02T13:20:13Z</time></trkpt><trkpt lat="41.17626457689449" lon="14.807764223051125"><ele>309.0</ele><time>2026-05-02T13:20:14Z</time></trkpt><trkpt lat="41.17606077916909" lon="14.80776996839908"><ele>309.0</ele><time>2026-05-02T13:20:15Z</time></trkpt><trkpt lat="41.17588777624554" lon="14.807772567086738"><ele>309.0</ele><time>2026-05-02T13:20:16Z</time></trkpt><trkpt lat="41.17573069005955" lon="14.807782870406605"><ele>310.0</ele><time>2026-05-02T13:20:17Z</time></trkpt><trkpt lat="41.175580586415236" lon="14.807763932166743"><ele>311.0</ele><time>2026-05-02T13:20:18Z</time></trkpt><trkpt lat="41.17544344337092" lon="14.807674758126867"><ele>312.0</ele><time>2026-05-02T13:20:19Z</time></trkpt><trkpt lat="41.175304050784725" lon="14.807524771741022"><ele>312.0</ele><time>2026-05-02T13:20:20Z</time></trkpt><trkpt lat="41.175133266394056" lon="14.807310403406913"><ele>312.0</ele><time>2026-05-02T13:20:21Z</time></trkpt><trkpt lat="41.17492739484541" lon="14.807093427319488"><ele>312.0</ele><time>2026-05-02T13:20:22Z</time></trkpt><trkpt lat="41.17475853168186" lon="14.806933389246376"><ele>312.0</ele><time>2026-05-02T13:20:23Z</time></trkpt><trkpt lat="41.174591392842586" lon="14.806756142833637"><ele>312.0</ele><time>2026-05-02T13:20:24Z</time></trkpt><trkpt lat="41.17444289291744" lon="14.806574562881792"><ele>312.0</ele><time>2026-05-02T13:20:25Z</time></trkpt><trkpt lat="41.17430616115206" lon="14.80637086737988"><ele>312.0</ele><time>2026-05-02T13:20:26Z</time></trkpt><trkpt lat="41.174175699267494" lon="14.806121223537836"><ele>312.0</ele><time>2026-05-02T13:20:27Z</time></trkpt><trkpt lat="41.174047692529555" lon="14.805834590078735"><ele>309.0</ele><time>2026-05-02T13:20:28Z</time></trkpt><trkpt lat="41.173937413850574" lon="14.805543693682356"><ele>306.0</ele><time>2026-05-02T13:20:29Z</time></trkpt><trkpt lat="41.173841798829386" lon="14.805277774779237"><ele>306.5</ele><time>2026-05-02T13:20:30Z</time></trkpt><trkpt lat="41.173698886861885" lon="14.80497874863468"><ele>307.0</ele><time>2026-05-02T13:20:31Z</time></trkpt><trkpt lat="41.17356843888303" lon="14.804729402267998"><ele>307.0</ele><time>2026-05-02T13:20:32Z</time></trkpt><trkpt lat="41.17346321519706" lon="14.804498153014576"><ele>307.0</ele><time>2026-05-02T13:20:33Z</time></trkpt><trkpt lat="41.173368181864106" lon="14.804267720163708"><ele>307.0</ele><time>2026-05-02T13:20:34Z</time></trkpt><trkpt lat="41.17328827953741" lon="14.804014437336786"><ele>306.5</ele><time>2026-05-02T13:20:35Z</time></trkpt><trkpt lat="41.17322439366225" lon="14.803733732886435"><ele>306.0</ele><time>2026-05-02T13:20:36Z</time></trkpt><trkpt lat="41.17315824161855" lon="14.803404303989755"><ele>299.0</ele><time>2026-05-02T13:20:37Z</time></trkpt><trkpt lat="41.173092842975244" lon="14.80307070924021"><ele>292.0</ele><time>2026-05-02T13:20:38Z</time></trkpt><trkpt lat="41.17303467710872" lon="14.802763920233597"><ele>291.0</ele><time>2026-05-02T13:20:39Z</time></trkpt><trkpt lat="41.17297247075905" lon="14.802468737868615"><ele>290.0</ele><time>2026-05-02T13:20:40Z</time></trkpt><trkpt lat="41.17292852537329" lon="14.802166300804881"><ele>290.0</ele><time>2026-05-02T13:20:41Z</time></trkpt><trkpt lat="41.17289056939761" lon="14.801871924750204"><ele>290.0</ele><time>2026-05-02T13:20:42Z</time></trkpt><trkpt lat="41.17285143289743" lon="14.801595056260378"><ele>290.0</ele><time>2026-05-02T13:20:43Z</time></trkpt><trkpt lat="41.172820817610045" lon="14.801323483188996"><ele>289.33333333333337</ele><time>2026-05-02T13:20:44Z</time></trkpt><trkpt lat="41.1728000755752" lon="14.801050920452868"><ele>288.6666666666667</ele><time>2026-05-02T13:20:45Z</time></trkpt><trkpt lat="41.172786683708786" lon="14.800763016321183"><ele>288.0</ele><time>2026-05-02T13:20:46Z</time></trkpt><trkpt lat="41.17277699136931" lon="14.800464619128796"><ele>285.5</ele><time>2026-05-02T13:20:47Z</time></trkpt><trkpt lat="41.17277043564509" lon="14.80016256459937"><ele>283.0</ele><time>2026-05-02T13:20:48Z</time></trkpt><trkpt lat="41.17274788726911" lon="14.79983832184773"><ele>283.0</ele><time>2026-05-02T13:20:49Z</time></trkpt><trkpt lat="41.17273096267474" lon="14.799511512789119"><ele>283.0</ele><time>2026-05-02T13:20:50Z</time></trkpt><trkpt lat="41.17273001399679" lon="14.799161555598769"><ele>282.0</ele><time>2026-05-02T13:20:51Z</time></trkpt><trkpt lat="41.17273231612908" lon="14.798781858603643"><ele>281.0</ele><time>2026-05-02T13:20:52Z</time></trkpt><trkpt lat="41.17272458226768" lon="14.798414802943329"><ele>280.0</ele><time>2026-05-02T13:20:53Z</time></trkpt><trkpt lat="41.17271708091627" lon="14.79807990796557"><ele>279.0</ele><time>2026-05-02T13:20:54Z</time></trkpt><trkpt lat="41.17270924569489" lon="14.797762319839295"><ele>279.3333333333333</ele><time>2026-05-02T13:20:55Z</time></trkpt><trkpt lat="41.172702796153345" lon="14.797462899362367"><ele>279.66666666666663</ele><time>2026-05-02T13:20:56Z</time></trkpt><trkpt lat="41.172694225598974" lon="14.797172441574675"><ele>280.0</ele><time>2026-05-02T13:20:57Z</time></trkpt><trkpt lat="41.172688601368534" lon="14.796878006299977"><ele>278.0</ele><time>2026-05-02T13:20:58Z</time></trkpt><trkpt lat="41.172701299269676" lon="14.796578595479733"><ele>276.0</ele><time>2026-05-02T13:20:59Z</time></trkpt><trkpt lat="41.17274362966724" lon="14.796259418996566"><ele>274.0</ele><time>2026-05-02T13:21:00Z</time></trkpt><trkpt lat="41.17280176853858" lon="14.795911315248862"><ele>272.0</ele><time>2026-05-02T13:21:01Z</time></trkpt><trkpt lat="41.172858674305616" lon="14.795561554095624"><ele>272.0</ele><time>2026-05-02T13:21:02Z</time></trkpt><trkpt lat="41.172904144152724" lon="14.79524536167829"><ele>272.0</ele><time>2026-05-02T13:21:03Z</time></trkpt><trkpt lat="41.17294918760621" lon="14.794951557364604"><ele>271.0</ele><time>2026-05-02T13:21:04Z</time></trkpt><trkpt lat="41.17298259346066" lon="14.794678557642602"><ele>270.0</ele><time>2026-05-02T13:21:05Z</time></trkpt><trkpt lat="41.17301482486842" lon="14.7944315606367"><ele>269.0</ele><time>2026-05-02T13:21:06Z</time></trkpt><trkpt lat="41.17305539489951" lon="14.794211756151176"><ele>269.6666666666667</ele><time>2026-05-02T13:21:07Z</time></trkpt><trkpt lat="41.17313472714697" lon="14.79402034367012"><ele>270.3333333333333</ele><time>2026-05-02T13:21:08Z</time></trkpt><trkpt lat="41.173281352912376" lon="14.79387438818321"><ele>271.0</ele><time>2026-05-02T13:21:09Z</time></trkpt><trkpt lat="41.173398839775196" lon="14.79373569695461"><ele>271.0</ele><time>2026-05-02T13:21:10Z</time></trkpt><trkpt lat="41.173477362942286" lon="14.793639258383322"><ele>271.0</ele><time>2026-05-02T13:21:11Z</time></trkpt><trkpt lat="41.173503742044375" lon="14.793543351692803"><ele>271.0</ele><time>2026-05-02T13:21:12Z</time></trkpt><trkpt lat="41.173485800426306" lon="14.793446654006473"><ele>271.0</ele><time>2026-05-02T13:21:13Z</time></trkpt><trkpt lat="41.17344300057777" lon="14.793375033931198"><ele>271.0</ele><time>2026-05-02T13:21:14Z</time></trkpt><trkpt lat="41.17338038080716" lon="14.793250444869855"><ele>271.0</ele><time>2026-05-02T13:21:15Z</time></trkpt><trkpt lat="41.173292617555326" lon="14.793048277167093"><ele>270.0</ele><time>2026-05-02T13:21:16Z</time></trkpt><trkpt lat="41.17324710182879" lon="14.792818796397492"><ele>269.0</ele><time>2026-05-02T13:21:17Z</time></trkpt><trkpt lat="41.17326645768536" lon="14.792567324948944"><ele>268.0</ele><time>2026-05-02T13:21:18Z</time></trkpt><trkpt lat="41.17329723336528" lon="14.792290569941725"><ele>266.3333333333333</ele><time>2026-05-02T13:21:19Z</time></trkpt><trkpt lat="41.17334908959584" lon="14.792005865000347"><ele>264.6666666666667</ele><time>2026-05-02T13:21:20Z</time></trkpt><trkpt lat="41.173377763755816" lon="14.791731843032126"><ele>263.0</ele><time>2026-05-02T13:21:21Z</time></trkpt><trkpt lat="41.173361991108465" lon="14.791451430403221"><ele>261.6666666666667</ele><time>2026-05-02T13:21:22Z</time></trkpt><trkpt lat="41.17330697195404" lon="14.791152394698601"><ele>260.3333333333333</ele><time>2026-05-02T13:21:23Z</time></trkpt><trkpt lat="41.17324454401538" lon="14.790876252403322"><ele>259.0</ele><time>2026-05-02T13:21:24Z</time></trkpt><trkpt lat="41.17318049161544" lon="14.79061154650877"><ele>257.0</ele><time>2026-05-02T13:21:25Z</time></trkpt><trkpt lat="41.17311993926579" lon="14.790354645861763"><ele>255.0</ele><time>2026-05-02T13:21:26Z</time></trkpt><trkpt lat="41.17305529869899" lon="14.790079646250971"><ele>253.0</ele><time>2026-05-02T13:21:27Z</time></trkpt><trkpt lat="41.17300074466668" lon="14.789807524768285"><ele>252.33333333333331</ele><time>2026-05-02T13:21:28Z</time></trkpt><trkpt lat="41.17294968562246" lon="14.78955271770669"><ele>251.66666666666669</ele><time>2026-05-02T13:21:29Z</time></trkpt><trkpt lat="41.17289454049646" lon="14.789339469020623"><ele>251.0</ele><time>2026-05-02T13:21:30Z</time></trkpt><trkpt lat="41.17280038589599" lon="14.789148570326953"><ele>250.0</ele><time>2026-05-02T13:21:31Z</time></trkpt><trkpt lat="41.17264553240813" lon="14.788998476462075"><ele>249.0</ele><time>2026-05-02T13:21:32Z</time></trkpt><trkpt lat="41.172456006118495" lon="14.788857141462401"><ele>248.0</ele><time>2026-05-02T13:21:33Z</time></trkpt><trkpt lat="41.172237388760124" lon="14.788701976810216"><ele>246.0</ele><time>2026-05-02T13:21:34Z</time></trkpt><trkpt lat="41.17201901295502" lon="14.788521114473493"><ele>244.0</ele><time>2026-05-02T13:21:35Z</time></trkpt><trkpt lat="41.17182866087892" lon="14.788355352504663"><ele>243.66666666666666</ele><time>2026-05-02T13:21:36Z</time></trkpt><trkpt lat="41.17166475314547" lon="14.788224843709228"><ele>243.33333333333331</ele><time>2026-05-02T13:21:37Z</time></trkpt><trkpt lat="41.171518152385865" lon="14.788089489580388"><ele>243.0</ele><time>2026-05-02T13:21:38Z</time></trkpt><trkpt lat="41.17136569561469" lon="14.7879646556245"><ele>241.33333333333331</ele><time>2026-05-02T13:21:39Z</time></trkpt><trkpt lat="41.17121673450631" lon="14.78783813694978"><ele>239.66666666666666</ele><time>2026-05-02T13:21:40Z</time></trkpt><trkpt lat="41.17108708136328" lon="14.787724186289042"><ele>238.0</ele><time>2026-05-02T13:21:41Z</time></trkpt><trkpt lat="41.17096811396702" lon="14.787628723337642"><ele>238.0</ele><time>2026-05-02T13:21:42Z</time></trkpt><trkpt lat="41.17084115409399" lon="14.787536633583775"><ele>238.0</ele><time>2026-05-02T13:21:43Z</time></trkpt><trkpt lat="41.17068103485286" lon="14.787396695360687"><ele>238.0</ele><time>2026-05-02T13:21:44Z</time></trkpt><trkpt lat="41.17048602687404" lon="14.787254659426836"><ele>235.0</ele><time>2026-05-02T13:21:45Z</time></trkpt><trkpt lat="41.17028360281533" lon="14.787062535726484"><ele>232.0</ele><time>2026-05-02T13:21:46Z</time></trkpt><trkpt lat="41.17005790670095" lon="14.78686288686893"><ele>228.5</ele><time>2026-05-02T13:21:47Z</time></trkpt><trkpt lat="41.169824720321444" lon="14.78667071186109"><ele>225.0</ele><time>2026-05-02T13:21:48Z</time></trkpt><trkpt lat="41.169580015421744" lon="14.786467245603388"><ele>225.0</ele><time>2026-05-02T13:21:49Z</time></trkpt><trkpt lat="41.16932876749966" lon="14.786251365606853"><ele>225.0</ele><time>2026-05-02T13:21:50Z</time></trkpt><trkpt lat="41.16907056442451" lon="14.78602778454122"><ele>224.0</ele><time>2026-05-02T13:21:51Z</time></trkpt><trkpt lat="41.16881190475083" lon="14.78580893055264"><ele>223.0</ele><time>2026-05-02T13:21:52Z</time></trkpt><trkpt lat="41.16857601342072" lon="14.785607870158183"><ele>223.0</ele><time>2026-05-02T13:21:53Z</time></trkpt><trkpt lat="41.16835302422818" lon="14.785417079172547"><ele>223.0</ele><time>2026-05-02T13:21:54Z</time></trkpt><trkpt lat="41.16813054552888" lon="14.78522490365368"><ele>221.5</ele><time>2026-05-02T13:21:55Z</time></trkpt><trkpt lat="41.16789883230932" lon="14.785032303099598"><ele>220.0</ele><time>2026-05-02T13:21:56Z</time></trkpt><trkpt lat="41.167672182047546" lon="14.784836827237738"><ele>220.0</ele><time>2026-05-02T13:21:57Z</time></trkpt><trkpt lat="41.167441398692716" lon="14.78463563212761"><ele>220.0</ele><time>2026-05-02T13:21:58Z</time></trkpt><trkpt lat="41.167204723029776" lon="14.784437222721401"><ele>219.0</ele><time>2026-05-02T13:21:59Z</time></trkpt><trkpt lat="41.166981491911955" lon="14.784246817419119"><ele>218.0</ele><time>2026-05-02T13:22:00Z</time></trkpt><trkpt lat="41.16676072760999" lon="14.78406170736153"><ele>218.0</ele><time>2026-05-02T13:22:01Z</time></trkpt><trkpt lat="41.16653887812688" lon="14.783873634305673"><ele>218.0</ele><time>2026-05-02T13:22:02Z</time></trkpt><trkpt lat="41.16632873058697" lon="14.783693792595935"><ele>216.5</ele><time>2026-05-02T13:22:03Z</time></trkpt><trkpt lat="41.166125052471784" lon="14.783533443885437"><ele>215.0</ele><time>2026-05-02T13:22:04Z</time></trkpt><trkpt lat="41.165896104399685" lon="14.783378300426858"><ele>211.5</ele><time>2026-05-02T13:22:05Z</time></trkpt><trkpt lat="41.165648400582555" lon="14.783243240471338"><ele>208.0</ele><time>2026-05-02T13:22:05.999Z</time></trkpt><trkpt lat="41.16538346924312" lon="14.783126755245151"><ele>208.0</ele><time>2026-05-02T13:22:06.999Z</time></trkpt><trkpt lat="41.16510961727527" lon="14.783017060518134"><ele>208.0</ele><time>2026-05-02T13:22:07.999Z</time></trkpt><trkpt lat="41.16482541707124" lon="14.782883124602565"><ele>207.0</ele><time>2026-05-02T13:22:08.999Z</time></trkpt><trkpt lat="41.16452639536526" lon="14.782743261361006"><ele>206.0</ele><time>2026-05-02T13:22:09.999Z</time></trkpt><trkpt lat="41.1642475288447" lon="14.782609774646287"><ele>205.5</ele><time>2026-05-02T13:22:10.999Z</time></trkpt><trkpt lat="41.16399112163866" lon="14.782481981910244"><ele>205.0</ele><time>2026-05-02T13:22:11.999Z</time></trkpt><trkpt lat="41.163746747305844" lon="14.782355020996707"><ele>205.0</ele><time>2026-05-02T13:22:12.999Z</time></trkpt><trkpt lat="41.16350094206887" lon="14.782214847778302"><ele>205.0</ele><time>2026-05-02T13:22:13.999Z</time></trkpt><trkpt lat="41.163259439091256" lon="14.782079005371363"><ele>206.0</ele><time>2026-05-02T13:22:14.999Z</time></trkpt><trkpt lat="41.163048147495225" lon="14.78195493457942"><ele>207.0</ele><time>2026-05-02T13:22:15.999Z</time></trkpt><trkpt lat="41.16283292352304" lon="14.781827852967123"><ele>207.0</ele><time>2026-05-02T13:22:16.999Z</time></trkpt><trkpt lat="41.162640379721466" lon="14.78170705676135"><ele>207.0</ele><time>2026-05-02T13:22:17.999Z</time></trkpt><trkpt lat="41.162460349267135" lon="14.781584598884926"><ele>207.0</ele><time>2026-05-02T13:22:18.999Z</time></trkpt><trkpt lat="41.162287184721045" lon="14.78144075785158"><ele>207.0</ele><time>2026-05-02T13:22:19.999Z</time></trkpt><trkpt lat="41.16211288354232" lon="14.781264751050376"><ele>207.0</ele><time>2026-05-02T13:22:20.999Z</time></trkpt><trkpt lat="41.16194071245007" lon="14.781070778936796"><ele>207.0</ele><time>2026-05-02T13:22:21.999Z</time></trkpt><trkpt lat="41.16176888808364" lon="14.780858285377285"><ele>207.0</ele><time>2026-05-02T13:22:22.999Z</time></trkpt><trkpt lat="41.16159202046302" lon="14.78065039220838"><ele>207.0</ele><time>2026-05-02T13:22:23.999Z</time></trkpt><trkpt lat="41.16141251821908" lon="14.780444054275842"><ele>206.66666666666669</ele><time>2026-05-02T13:22:24.999Z</time></trkpt><trkpt lat="41.16124160477907" lon="14.78024778416738"><ele>206.33333333333334</ele><time>2026-05-02T13:22:25.999Z</time></trkpt><trkpt lat="41.1610860157195" lon="14.780061673213693"><ele>206.0</ele><time>2026-05-02T13:22:26.999Z</time></trkpt><trkpt lat="41.160924288141906" lon="14.779872591045269"><ele>206.0</ele><time>2026-05-02T13:22:27.999Z</time></trkpt><trkpt lat="41.160759792432145" lon="14.779677208196834"><ele>206.0</ele><time>2026-05-02T13:22:28.999Z</time></trkpt><trkpt lat="41.16059262045807" lon="14.779483853774554"><ele>206.0</ele><time>2026-05-02T13:22:29.999Z</time></trkpt><trkpt lat="41.16043113608985" lon="14.77931424265479"><ele>205.0</ele><time>2026-05-02T13:22:30.999Z</time></trkpt><trkpt lat="41.160256755599185" lon="14.779174728269828"><ele>204.0</ele><time>2026-05-02T13:22:31.999Z</time></trkpt><trkpt lat="41.16007001833315" lon="14.779057921721206"><ele>203.0</ele><time>2026-05-02T13:22:32.999Z</time></trkpt><trkpt lat="41.15986542570477" lon="14.778969189835781"><ele>201.66666666666669</ele><time>2026-05-02T13:22:33.999Z</time></trkpt><trkpt lat="41.15965857861891" lon="14.778899920113489"><ele>200.33333333333331</ele><time>2026-05-02T13:22:34.999Z</time></trkpt><trkpt lat="41.15944691870818" lon="14.778868108175434"><ele>199.0</ele><time>2026-05-02T13:22:35.999Z</time></trkpt><trkpt lat="41.15923142177338" lon="14.778865010519198"><ele>198.0</ele><time>2026-05-02T13:22:36.999Z</time></trkpt><trkpt lat="41.15901467253041" lon="14.778891642489473"><ele>197.0</ele><time>2026-05-02T13:22:37.999Z</time></trkpt><trkpt lat="41.15881407778535" lon="14.77892327291154"><ele>196.0</ele><time>2026-05-02T13:22:38.999Z</time></trkpt><trkpt lat="41.15862472107053" lon="14.778950981282769"><ele>196.0</ele><time>2026-05-02T13:22:39.999Z</time></trkpt><trkpt lat="41.15845020227392" lon="14.778979494192589"><ele>196.0</ele><time>2026-05-02T13:22:40.999Z</time></trkpt><trkpt lat="41.158307925785635" lon="14.779000715764521"><ele>196.0</ele><time>2026-05-02T13:22:41.999Z</time></trkpt><trkpt lat="41.158173076193314" lon="14.77902190859028"><ele>195.33333333333331</ele><time>2026-05-02T13:22:42.999Z</time></trkpt><trkpt lat="41.158028021661195" lon="14.779060452337164"><ele>194.66666666666669</ele><time>2026-05-02T13:22:43.999Z</time></trkpt><trkpt lat="41.15786415953914" lon="14.779099931416901"><ele>194.0</ele><time>2026-05-02T13:22:44.999Z</time></trkpt><trkpt lat="41.15766726261262" lon="14.779123989811911"><ele>194.0</ele><time>2026-05-02T13:22:45.999Z</time></trkpt><trkpt lat="41.157466912188845" lon="14.779131656208062"><ele>194.0</ele><time>2026-05-02T13:22:46.999Z</time></trkpt><trkpt lat="41.15729482728308" lon="14.779147527630116"><ele>194.0</ele><time>2026-05-02T13:22:47.999Z</time></trkpt><trkpt lat="41.15713494141681" lon="14.77917824835295"><ele>192.33333333333334</ele><time>2026-05-02T13:22:48.999Z</time></trkpt><trkpt lat="41.15698377689481" lon="14.779226080955326"><ele>190.66666666666669</ele><time>2026-05-02T13:22:49.999Z</time></trkpt><trkpt lat="41.15683628542377" lon="14.779285634967922"><ele>189.0</ele><time>2026-05-02T13:22:50.999Z</time></trkpt><trkpt lat="41.15668809058234" lon="14.77934246368579"><ele>188.0</ele><time>2026-05-02T13:22:52Z</time></trkpt><trkpt lat="41.15651798220634" lon="14.77938331547372"><ele>187.0</ele><time>2026-05-02T13:22:53Z</time></trkpt><trkpt lat="41.15630870631579" lon="14.779398016349315"><ele>186.0</ele><time>2026-05-02T13:22:54Z</time></trkpt><trkpt lat="41.156060438916235" lon="14.779397021998081"><ele>186.0</ele><time>2026-05-02T13:22:55Z</time></trkpt><trkpt lat="41.15577715011998" lon="14.779391181075335"><ele>186.0</ele><time>2026-05-02T13:22:56Z</time></trkpt><trkpt lat="41.15549552455374" lon="14.779423822957979"><ele>184.5</ele><time>2026-05-02T13:22:57Z</time></trkpt><trkpt lat="41.15519485716729" lon="14.779474419274763"><ele>183.0</ele><time>2026-05-02T13:22:58Z</time></trkpt><trkpt lat="41.15492431869364" lon="14.779530655474893"><ele>182.5</ele><time>2026-05-02T13:22:59Z</time></trkpt><trkpt lat="41.1546832620094" lon="14.779572097552647"><ele>182.0</ele><time>2026-05-02T13:23:00Z</time></trkpt><trkpt lat="41.15445179494343" lon="14.779609264588235"><ele>182.0</ele><time>2026-05-02T13:23:01Z</time></trkpt><trkpt lat="41.15423376597411" lon="14.779647512746612"><ele>182.0</ele><time>2026-05-02T13:23:02Z</time></trkpt><trkpt lat="41.15402875999145" lon="14.779674957170538"><ele>182.0</ele><time>2026-05-02T13:23:03Z</time></trkpt><trkpt lat="41.15383337641327" lon="14.779704831109497"><ele>181.66666666666666</ele><time>2026-05-02T13:23:04Z</time></trkpt><trkpt lat="41.15363711459313" lon="14.779736413128214"><ele>181.33333333333334</ele><time>2026-05-02T13:23:05Z</time></trkpt><trkpt lat="41.15344001638417" lon="14.779766992042882"><ele>181.0</ele><time>2026-05-02T13:23:06Z</time></trkpt><trkpt lat="41.15323784401193" lon="14.77979872642005"><ele>180.25</ele><time>2026-05-02T13:23:07Z</time></trkpt><trkpt lat="41.15307303733781" lon="14.779820653600517"><ele>179.5</ele><time>2026-05-02T13:23:08Z</time></trkpt><trkpt lat="41.152935211171354" lon="14.77981101361209"><ele>178.75</ele><time>2026-05-02T13:23:09Z</time></trkpt><trkpt lat="41.15280699556147" lon="14.779772976659926"><ele>178.0</ele><time>2026-05-02T13:23:10Z</time></trkpt><trkpt lat="41.152693520051194" lon="14.779721771320393"><ele>178.0</ele><time>2026-05-02T13:23:11Z</time></trkpt><trkpt lat="41.15259453418497" lon="14.779679724166256"><ele>178.0</ele><time>2026-05-02T13:23:12Z</time></trkpt><trkpt lat="41.15252210331351" lon="14.779672246452972"><ele>178.0</ele><time>2026-05-02T13:23:13Z</time></trkpt><trkpt lat="41.15242999219259" lon="14.77980895699638"><ele>178.0</ele><time>2026-05-02T13:23:15Z</time></trkpt><trkpt lat="41.15234712017315" lon="14.77987799398027"><ele>178.0</ele><time>2026-05-02T13:23:16Z</time></trkpt><trkpt lat="41.15222703215961" lon="14.77988578283165"><ele>176.33333333333334</ele><time>2026-05-02T13:23:17Z</time></trkpt><trkpt lat="41.15208166146313" lon="14.779878992951415"><ele>174.66666666666666</ele><time>2026-05-02T13:23:18Z</time></trkpt><trkpt lat="41.15190987459131" lon="14.779872570059288"><ele>173.0</ele><time>2026-05-02T13:23:19Z</time></trkpt><trkpt lat="41.151711805859705" lon="14.779870274011895"><ele>171.0</ele><time>2026-05-02T13:23:20Z</time></trkpt><trkpt lat="41.151512732195094" lon="14.779869523894215"><ele>169.0</ele><time>2026-05-02T13:23:21Z</time></trkpt><trkpt lat="41.15131861080455" lon="14.779868875916788"><ele>167.0</ele><time>2026-05-02T13:23:22Z</time></trkpt><trkpt lat="41.15112343114091" lon="14.779868071309183"><ele>167.0</ele><time>2026-05-02T13:23:23Z</time></trkpt><trkpt lat="41.150921665328596" lon="14.779865675017625"><ele>167.0</ele><time>2026-05-02T13:23:24Z</time></trkpt><trkpt lat="41.15070426136345" lon="14.779864328679801"><ele>167.0</ele><time>2026-05-02T13:23:25Z</time></trkpt><trkpt lat="41.15048209340614" lon="14.779865267373358"><ele>164.0</ele><time>2026-05-02T13:23:26Z</time></trkpt><trkpt lat="41.1502480392364" lon="14.77986597368745"><ele>161.0</ele><time>2026-05-02T13:23:27Z</time></trkpt><trkpt lat="41.15002081856155" lon="14.77986060930975"><ele>157.33333333333331</ele><time>2026-05-02T13:23:28Z</time></trkpt><trkpt lat="41.14980964201501" lon="14.779854270706911"><ele>153.66666666666666</ele><time>2026-05-02T13:23:29Z</time></trkpt><trkpt lat="41.149606259594215" lon="14.779850405247863"><ele>150.0</ele><time>2026-05-02T13:23:30Z</time></trkpt><trkpt lat="41.149408494436244" lon="14.779845677012718"><ele>150.0</ele><time>2026-05-02T13:23:31Z</time></trkpt><trkpt lat="41.14921779756666" lon="14.779847918517602"><ele>150.0</ele><time>2026-05-02T13:23:32Z</time></trkpt><trkpt lat="41.14903407173157" lon="14.779852379133551"><ele>150.0</ele><time>2026-05-02T13:23:33Z</time></trkpt><trkpt lat="41.148847599997595" lon="14.779857251464918"><ele>148.33333333333334</ele><time>2026-05-02T13:23:34Z</time></trkpt><trkpt lat="41.148670253858334" lon="14.77985532397095"><ele>146.66666666666669</ele><time>2026-05-02T13:23:35Z</time></trkpt><trkpt lat="41.148502293689496" lon="14.779851810479006"><ele>145.0</ele><time>2026-05-02T13:23:36Z</time></trkpt><trkpt lat="41.148344260397316" lon="14.779846967307638"><ele>143.66666666666669</ele><time>2026-05-02T13:23:37Z</time></trkpt><trkpt lat="41.14818293564225" lon="14.779845375032739"><ele>142.33333333333334</ele><time>2026-05-02T13:23:38Z</time></trkpt><trkpt lat="41.14802957793233" lon="14.779839640692753"><ele>141.0</ele><time>2026-05-02T13:23:39Z</time></trkpt><trkpt lat="41.147883031171034" lon="14.779838093091145"><ele>141.0</ele><time>2026-05-02T13:23:40Z</time></trkpt><trkpt lat="41.1477366621679" lon="14.77983921911805"><ele>141.0</ele><time>2026-05-02T13:23:41Z</time></trkpt><trkpt lat="41.14759822942479" lon="14.779839708986234"><ele>141.0</ele><time>2026-05-02T13:23:42Z</time></trkpt><trkpt lat="41.147456607202656" lon="14.779842945309747"><ele>141.0</ele><time>2026-05-02T13:23:43Z</time></trkpt><trkpt lat="41.14730945362994" lon="14.77984968140089"><ele>140.25</ele><time>2026-05-02T13:23:44Z</time></trkpt><trkpt lat="41.14717433413798" lon="14.779840636311002"><ele>139.5</ele><time>2026-05-02T13:23:45Z</time></trkpt><trkpt lat="41.147034399380445" lon="14.779851834133481"><ele>138.75</ele><time>2026-05-02T13:23:46Z</time></trkpt><trkpt lat="41.146892864466984" lon="14.779860868751625"><ele>138.0</ele><time>2026-05-02T13:23:47Z</time></trkpt><trkpt lat="41.146792286268855" lon="14.77986388331485"><ele>138.0</ele><time>2026-05-02T13:23:48Z</time></trkpt><trkpt lat="41.146717031352686" lon="14.779858294987008"><ele>138.0</ele><time>2026-05-02T13:23:49Z</time></trkpt><trkpt lat="41.14662515746822" lon="14.779862448808062"><ele>138.0</ele><time>2026-05-02T13:23:50Z</time></trkpt><trkpt lat="41.14652294668381" lon="14.779860390073118"><ele>138.0</ele><time>2026-05-02T13:23:51Z</time></trkpt><trkpt lat="41.1464264778681" lon="14.779853918600187"><ele>138.0</ele><time>2026-05-02T13:23:52Z</time></trkpt><trkpt lat="41.146292076958844" lon="14.779849730489383"><ele>137.33333333333334</ele><time>2026-05-02T13:23:53Z</time></trkpt><trkpt lat="41.146104421142795" lon="14.779841763376243"><ele>136.66666666666669</ele><time>2026-05-02T13:23:54Z</time></trkpt><trkpt lat="41.14593605754496" lon="14.779836256348496"><ele>136.0</ele><time>2026-05-02T13:23:55Z</time></trkpt><trkpt lat="41.14575836946363" lon="14.779828036627281"><ele>135.33333333333334</ele><time>2026-05-02T13:23:55.999Z</time></trkpt><trkpt lat="41.14554565946125" lon="14.77982061936768"><ele>134.66666666666666</ele><time>2026-05-02T13:23:56.999Z</time></trkpt><trkpt lat="41.1453668711236" lon="14.779809353593363"><ele>134.0</ele><time>2026-05-02T13:23:57.999Z</time></trkpt><trkpt lat="41.14520887356716" lon="14.779780967086191"><ele>134.0</ele><time>2026-05-02T13:23:58.999Z</time></trkpt><trkpt lat="41.1450663763351" lon="14.779739988969771"><ele>134.0</ele><time>2026-05-02T13:23:59.999Z</time></trkpt><trkpt lat="41.14492033942405" lon="14.779698011266166"><ele>134.0</ele><time>2026-05-02T13:24:00.999Z</time></trkpt><trkpt lat="41.144778885194846" lon="14.779635893998815"><ele>134.0</ele><time>2026-05-02T13:24:01.999Z</time></trkpt><trkpt lat="41.14464206231611" lon="14.779549124094485"><ele>134.0</ele><time>2026-05-02T13:24:02.999Z</time></trkpt><trkpt lat="41.144520480553744" lon="14.779482554890905"><ele>134.0</ele><time>2026-05-02T13:24:03.999Z</time></trkpt><trkpt lat="41.14440723222698" lon="14.779425284716663"><ele>134.0</ele><time>2026-05-02T13:24:04.999Z</time></trkpt><trkpt lat="41.14432727808194" lon="14.779391575677232"><ele>134.0</ele><time>2026-05-02T13:24:05.999Z</time></trkpt><trkpt lat="41.1442413276547" lon="14.779483537335075"><ele>134.0</ele><time>2026-05-02T13:24:07.999Z</time></trkpt><trkpt lat="41.14420074562103" lon="14.779576625765323"><ele>134.0</ele><time>2026-05-02T13:24:08.999Z</time></trkpt><trkpt lat="41.144144866946796" lon="14.779662703232093"><ele>134.0</ele><time>2026-05-02T13:24:09.999Z</time></trkpt><trkpt lat="41.14407990632158" lon="14.779713399474552"><ele>134.0</ele><time>2026-05-02T13:24:10.999Z</time></trkpt><trkpt lat="41.143988488057666" lon="14.779716470223775"><ele>134.0</ele><time>2026-05-02T13:24:11.999Z</time></trkpt><trkpt lat="41.143885079315766" lon="14.779708461765297"><ele>134.0</ele><time>2026-05-02T13:24:12.999Z</time></trkpt><trkpt lat="41.143774203555964" lon="14.779682588053765"><ele>133.2</ele><time>2026-05-02T13:24:13.999Z</time></trkpt><trkpt lat="41.14366061617914" lon="14.779643534999233"><ele>132.4</ele><time>2026-05-02T13:24:14.999Z</time></trkpt><trkpt lat="41.143541751681155" lon="14.779591279541933"><ele>131.6</ele><time>2026-05-02T13:24:15.999Z</time></trkpt><trkpt lat="41.14343733935332" lon="14.779547176859364"><ele>130.8</ele><time>2026-05-02T13:24:16.999Z</time></trkpt><trkpt lat="41.143346501222645" lon="14.779520489281047"><ele>130.0</ele><time>2026-05-02T13:24:17.999Z</time></trkpt><trkpt lat="41.14324175859859" lon="14.77949960534991"><ele>129.8</ele><time>2026-05-02T13:24:18.999Z</time></trkpt><trkpt lat="41.1431476965465" lon="14.779508664576376"><ele>129.6</ele><time>2026-05-02T13:24:19.999Z</time></trkpt><trkpt lat="41.143059909740145" lon="14.779563432667334"><ele>129.4</ele><time>2026-05-02T13:24:20.999Z</time></trkpt><trkpt lat="41.1429767748636" lon="14.779629381279259"><ele>129.2</ele><time>2026-05-02T13:24:21.999Z</time></trkpt><trkpt lat="41.142886155581046" lon="14.77964954541537"><ele>129.0</ele><time>2026-05-02T13:24:22.999Z</time></trkpt><trkpt lat="41.142797068068845" lon="14.779590711324312"><ele>129.0</ele><time>2026-05-02T13:24:23.999Z</time></trkpt><trkpt lat="41.14270698467237" lon="14.779491011832157"><ele>129.0</ele><time>2026-05-02T13:24:24.999Z</time></trkpt><trkpt lat="41.142614826162934" lon="14.779392620848855"><ele>129.0</ele><time>2026-05-02T13:24:25.999Z</time></trkpt><trkpt lat="41.14252328889739" lon="14.779305990915207"><ele>129.0</ele><time>2026-05-02T13:24:26.999Z</time></trkpt><trkpt lat="41.14243727329234" lon="14.779239738729993"><ele>129.0</ele><time>2026-05-02T13:24:27.999Z</time></trkpt><trkpt lat="41.142362178304" lon="14.779184509858544"><ele>128.75</ele><time>2026-05-02T13:24:28.999Z</time></trkpt><trkpt lat="41.1422741670548" lon="14.779128201989003"><ele>128.5</ele><time>2026-05-02T13:24:29.999Z</time></trkpt><trkpt lat="41.142139815024294" lon="14.77903784558463"><ele>128.25</ele><time>2026-05-02T13:24:30.999Z</time></trkpt><trkpt lat="41.14201601844603" lon="14.778972306094754"><ele>128.0</ele><time>2026-05-02T13:24:31.999Z</time></trkpt><trkpt lat="41.14189628964103" lon="14.778911735881172"><ele>128.0</ele><time>2026-05-02T13:24:32.999Z</time></trkpt><trkpt lat="41.141778764982796" lon="14.778862250715457"><ele>128.0</ele><time>2026-05-02T13:24:33.999Z</time></trkpt><trkpt lat="41.1416659588116" lon="14.778797035835085"><ele>128.0</ele><time>2026-05-02T13:24:34.999Z</time></trkpt><trkpt lat="41.14154212210861" lon="14.778724166075458"><ele>128.0</ele><time>2026-05-02T13:24:35.999Z</time></trkpt><trkpt lat="41.14141654288821" lon="14.778653527087732"><ele>127.75</ele><time>2026-05-02T13:24:36.999Z</time></trkpt><trkpt lat="41.141290115657526" lon="14.778580683775294"><ele>127.5</ele><time>2026-05-02T13:24:37.999Z</time></trkpt><trkpt lat="41.14116732873286" lon="14.778498569877264"><ele>127.25</ele><time>2026-05-02T13:24:38.999Z</time></trkpt><trkpt lat="41.14104525853516" lon="14.778420787610166"><ele>127.0</ele><time>2026-05-02T13:24:39.999Z</time></trkpt><trkpt lat="41.14093195992746" lon="14.778340867600958"><ele>127.0</ele><time>2026-05-02T13:24:40.999Z</time></trkpt><trkpt lat="41.14080982394549" lon="14.778256580985689"><ele>127.0</ele><time>2026-05-02T13:24:41.999Z</time></trkpt><trkpt lat="41.14069473454235" lon="14.77817664960666"><ele>127.0</ele><time>2026-05-02T13:24:42.999Z</time></trkpt><trkpt lat="41.14059133923146" lon="14.778112710432366"><ele>127.0</ele><time>2026-05-02T13:24:43.999Z</time></trkpt><trkpt lat="41.140493922575246" lon="14.77805162666539"><ele>126.5</ele><time>2026-05-02T13:24:44.999Z</time></trkpt><trkpt lat="41.14040696743394" lon="14.777993273008079"><ele>126.0</ele><time>2026-05-02T13:24:45.999Z</time></trkpt><trkpt lat="41.14032991476207" lon="14.777938427667241"><ele>125.5</ele><time>2026-05-02T13:24:46.999Z</time></trkpt><trkpt lat="41.140206145323255" lon="14.777867273759803"><ele>125.0</ele><time>2026-05-02T13:24:49.999Z</time></trkpt><trkpt lat="41.14009463964117" lon="14.77812767184782"><ele>125.0</ele><time>2026-05-02T13:24:51.999Z</time></trkpt><trkpt lat="41.14006512689238" lon="14.77825763140402"><ele>125.0</ele><time>2026-05-02T13:24:52.999Z</time></trkpt><trkpt lat="41.13999731873708" lon="14.77838520918146"><ele>125.0</ele><time>2026-05-02T13:24:53.999Z</time></trkpt><trkpt lat="41.13990877746948" lon="14.778506463464886"><ele>125.0</ele><time>2026-05-02T13:24:54.999Z</time></trkpt><trkpt lat="41.13981169117976" lon="14.77861203967716"><ele>124.75</ele><time>2026-05-02T13:24:55.999Z</time></trkpt><trkpt lat="41.13969889455208" lon="14.778706423606504"><ele>124.5</ele><time>2026-05-02T13:24:56.999Z</time></trkpt><trkpt lat="41.13957388336072" lon="14.77878642196692"><ele>124.25</ele><time>2026-05-02T13:24:57.999Z</time></trkpt><trkpt lat="41.139436128901615" lon="14.7788422640428"><ele>124.0</ele><time>2026-05-02T13:24:58.999Z</time></trkpt><trkpt lat="41.13929355825765" lon="14.77886218477345"><ele>124.0</ele><time>2026-05-02T13:24:59.999Z</time></trkpt><trkpt lat="41.13914734522095" lon="14.778870710801112"><ele>124.0</ele><time>2026-05-02T13:25:00.999Z</time></trkpt><trkpt lat="41.138984987073954" lon="14.778862718421221"><ele>124.0</ele><time>2026-05-02T13:25:01.999Z</time></trkpt><trkpt lat="41.13884974364369" lon="14.778854925848126"><ele>124.0</ele><time>2026-05-02T13:25:02.999Z</time></trkpt><trkpt lat="41.138726336278935" lon="14.778849879200308"><ele>123.75</ele><time>2026-05-02T13:25:03.999Z</time></trkpt><trkpt lat="41.138612044196094" lon="14.778840613969136"><ele>123.5</ele><time>2026-05-02T13:25:04.999Z</time></trkpt><trkpt lat="41.13850093846321" lon="14.778822789378808"><ele>123.25</ele><time>2026-05-02T13:25:05.999Z</time></trkpt><trkpt lat="41.13837871726214" lon="14.778821779350213"><ele>123.0</ele><time>2026-05-02T13:25:06.999Z</time></trkpt><trkpt lat="41.13828433468872" lon="14.778716768975773"><ele>122.25</ele><time>2026-05-02T13:25:07.999Z</time></trkpt><trkpt lat="41.138188693161695" lon="14.778608582077938"><ele>121.5</ele><time>2026-05-02T13:25:08.999Z</time></trkpt><trkpt lat="41.13808698249544" lon="14.77851117001478"><ele>120.75</ele><time>2026-05-02T13:25:09.999Z</time></trkpt><trkpt lat="41.13802436721513" lon="14.778311928465175"><ele>120.0</ele><time>2026-05-02T13:25:10.999Z</time></trkpt><trkpt lat="41.13793432538007" lon="14.778135919824367"><ele>120.0</ele><time>2026-05-02T13:25:11.999Z</time></trkpt><trkpt lat="41.13783224931449" lon="14.777945568597875"><ele>120.0</ele><time>2026-05-02T13:25:12.999Z</time></trkpt><trkpt lat="41.13772503341824" lon="14.777753318059245"><ele>120.0</ele><time>2026-05-02T13:25:13.999Z</time></trkpt><trkpt lat="41.1376148408675" lon="14.777548114552179"><ele>120.66666666666666</ele><time>2026-05-02T13:25:14.999Z</time></trkpt><trkpt lat="41.137513683836104" lon="14.77736224507958"><ele>121.33333333333333</ele><time>2026-05-02T13:25:15.999Z</time></trkpt><trkpt lat="41.13741992864563" lon="14.777187401530101"><ele>122.0</ele><time>2026-05-02T13:25:16.999Z</time></trkpt><trkpt lat="41.1373298895931" lon="14.777022228324778"><ele>122.0</ele><time>2026-05-02T13:25:18Z</time></trkpt><trkpt lat="41.137262146277926" lon="14.776878136522058"><ele>121.99999999999999</ele><time>2026-05-02T13:25:19Z</time></trkpt><trkpt lat="41.13723550861422" lon="14.776751297006703"><ele>121.99999999999999</ele><time>2026-05-02T13:25:20Z</time></trkpt><trkpt lat="41.137229463351204" lon="14.776627979092124"><ele>122.0</ele><time>2026-05-02T13:25:21Z</time></trkpt><trkpt lat="41.137197659028764" lon="14.776535088612627"><ele>122.0</ele><time>2026-05-02T13:25:22Z</time></trkpt><trkpt lat="41.13713312674617" lon="14.776496091083494"><ele>122.0</ele><time>2026-05-02T13:25:23Z</time></trkpt><trkpt lat="41.13688604140163" lon="14.776609407269001"><ele>122.0</ele><time>2026-05-02T13:25:26Z</time></trkpt><trkpt lat="41.136762455532036" lon="14.776623082581805"><ele>122.0</ele><time>2026-05-02T13:25:27Z</time></trkpt><trkpt lat="41.1366547866228" lon="14.776590484828288"><ele>122.0</ele><time>2026-05-02T13:25:28Z</time></trkpt><trkpt lat="41.1365731767236" lon="14.776465580496547"><ele>122.0</ele><time>2026-05-02T13:25:29Z</time></trkpt><trkpt lat="41.13648220962535" lon="14.776353947085225"><ele>122.0</ele><time>2026-05-02T13:25:30Z</time></trkpt><trkpt lat="41.13636266008714" lon="14.776216839780451"><ele>122.0</ele><time>2026-05-02T13:25:31Z</time></trkpt><trkpt lat="41.136255697690615" lon="14.776036460394396"><ele>121.5</ele><time>2026-05-02T13:25:32Z</time></trkpt><trkpt lat="41.136138066542436" lon="14.775899428881216"><ele>121.0</ele><time>2026-05-02T13:25:33Z</time></trkpt><trkpt lat="41.13604643409882" lon="14.775757836499396"><ele>120.5</ele><time>2026-05-02T13:25:34Z</time></trkpt><trkpt lat="41.135945758748754" lon="14.775625794993935"><ele>120.0</ele><time>2026-05-02T13:25:35Z</time></trkpt><trkpt lat="41.13584747641703" lon="14.775492045264226"><ele>120.0</ele><time>2026-05-02T13:25:36Z</time></trkpt><trkpt lat="41.13575059544312" lon="14.775349466636092"><ele>120.0</ele><time>2026-05-02T13:25:37Z</time></trkpt><trkpt lat="41.13565818702319" lon="14.775220965076937"><ele>120.0</ele><time>2026-05-02T13:25:38Z</time></trkpt><trkpt lat="41.13554661036817" lon="14.775098508367003"><ele>120.0</ele><time>2026-05-02T13:25:39Z</time></trkpt><trkpt lat="41.13544943735634" lon="14.774965213928635"><ele>121.33333333333334</ele><time>2026-05-02T13:25:40Z</time></trkpt><trkpt lat="41.13534835124066" lon="14.774826551859078"><ele>122.66666666666667</ele><time>2026-05-02T13:25:41Z</time></trkpt><trkpt lat="41.13525454558198" lon="14.774673679342621"><ele>124.0</ele><time>2026-05-02T13:25:42Z</time></trkpt><trkpt lat="41.13514593013659" lon="14.774517546341652"><ele>124.0</ele><time>2026-05-02T13:25:43Z</time></trkpt><trkpt lat="41.13503670642031" lon="14.774397825451823"><ele>124.0</ele><time>2026-05-02T13:25:44Z</time></trkpt><trkpt lat="41.134944191134245" lon="14.774271880116412"><ele>124.0</ele><time>2026-05-02T13:25:45Z</time></trkpt><trkpt lat="41.134863277756665" lon="14.774162256738979"><ele>124.0</ele><time>2026-05-02T13:25:46Z</time></trkpt><trkpt lat="41.134789777405175" lon="14.774062038140677"><ele>123.16666666666667</ele><time>2026-05-02T13:25:47Z</time></trkpt><trkpt lat="41.134736281617606" lon="14.77398830395099"><ele>122.33333333333334</ele><time>2026-05-02T13:25:48Z</time></trkpt><trkpt lat="41.13469189115879" lon="14.773927120415278"><ele>121.5</ele><time>2026-05-02T13:25:49Z</time></trkpt><trkpt lat="41.13464535474313" lon="14.773860692856685"><ele>120.66666666666666</ele><time>2026-05-02T13:25:50Z</time></trkpt><trkpt lat="41.13459958260119" lon="14.773776595670341"><ele>119.83333333333333</ele><time>2026-05-02T13:25:51Z</time></trkpt><trkpt lat="41.13456667187637" lon="14.773671726347734"><ele>119.0</ele><time>2026-05-02T13:25:52Z</time></trkpt><trkpt lat="41.134544845435194" lon="14.7735627719236"><ele>118.80000000000001</ele><time>2026-05-02T13:25:53Z</time></trkpt><trkpt lat="41.134525474634316" lon="14.773477362257463"><ele>118.60000000000001</ele><time>2026-05-02T13:25:54Z</time></trkpt><trkpt lat="41.13454465061296" lon="14.773332294054864"><ele>118.4</ele><time>2026-05-02T13:25:56Z</time></trkpt><trkpt lat="41.134555250602304" lon="14.773227467360742"><ele>118.2</ele><time>2026-05-02T13:25:58.999Z</time></trkpt><trkpt lat="41.13444649793775" lon="14.773196023672982"><ele>118.0</ele><time>2026-05-02T13:26:00.999Z</time></trkpt><trkpt lat="41.13423928383819" lon="14.77324949435719"><ele>118.0</ele><time>2026-05-02T13:26:02.999Z</time></trkpt><trkpt lat="41.13411418666212" lon="14.77330963041229"><ele>118.0</ele><time>2026-05-02T13:26:03.999Z</time></trkpt><trkpt lat="41.1339806685188" lon="14.773375990298625"><ele>118.0</ele><time>2026-05-02T13:26:04.999Z</time></trkpt><trkpt lat="41.133836990004006" lon="14.773438676359458"><ele>118.0</ele><time>2026-05-02T13:26:05.999Z</time></trkpt><trkpt lat="41.13366950818093" lon="14.773509166754717"><ele>120.25</ele><time>2026-05-02T13:26:06.999Z</time></trkpt><trkpt lat="41.1335254118089" lon="14.773564659070992"><ele>122.5</ele><time>2026-05-02T13:26:07.999Z</time></trkpt><trkpt lat="41.1334163501256" lon="14.773610051489946"><ele>124.75</ele><time>2026-05-02T13:26:08.999Z</time></trkpt><trkpt lat="41.133331316027075" lon="14.773640335565812"><ele>127.0</ele><time>2026-05-02T13:26:09.999Z</time></trkpt><trkpt lat="41.133258346153475" lon="14.773434581114198"><ele>127.0</ele><time>2026-05-02T13:26:12.999Z</time></trkpt><trkpt lat="41.1332589536838" lon="14.773223017356976"><ele>127.0</ele><time>2026-05-02T13:26:13.999Z</time></trkpt><trkpt lat="41.13327815181974" lon="14.772967590932653"><ele>127.0</ele><time>2026-05-02T13:26:14.999Z</time></trkpt><trkpt lat="41.1333124438774" lon="14.772664027388803"><ele>127.0</ele><time>2026-05-02T13:26:15.999Z</time></trkpt><trkpt lat="41.13333898367715" lon="14.772418733602695"><ele>127.0</ele><time>2026-05-02T13:26:16.999Z</time></trkpt><trkpt lat="41.13336040574661" lon="14.772224012816729"><ele>127.0</ele><time>2026-05-02T13:26:17.999Z</time></trkpt><trkpt lat="41.1333932725402" lon="14.77204097096771"><ele>127.0</ele><time>2026-05-02T13:26:18.999Z</time></trkpt><trkpt lat="41.133438065201055" lon="14.771883549643254"><ele>127.0</ele><time>2026-05-02T13:26:19.999Z</time></trkpt><trkpt lat="41.13350233958014" lon="14.771711269383177"><ele>127.0</ele><time>2026-05-02T13:26:20.999Z</time></trkpt><trkpt lat="41.13357539904098" lon="14.771563207349807"><ele>127.0</ele><time>2026-05-02T13:26:21.999Z</time></trkpt><trkpt lat="41.13365220326969" lon="14.771425329905323"><ele>127.8</ele><time>2026-05-02T13:26:22.999Z</time></trkpt><trkpt lat="41.13371836882829" lon="14.771292872278435"><ele>128.6</ele><time>2026-05-02T13:26:23.999Z</time></trkpt><trkpt lat="41.13377657186098" lon="14.771190598550852"><ele>129.39999999999998</ele><time>2026-05-02T13:26:24.999Z</time></trkpt><trkpt lat="41.1338309669225" lon="14.771079723907663"><ele>130.2</ele><time>2026-05-02T13:26:25.999Z</time></trkpt><trkpt lat="41.13388101773066" lon="14.7709498289728"><ele>131.0</ele><time>2026-05-02T13:26:26.999Z</time></trkpt><trkpt lat="41.13390156370362" lon="14.77082135692118"><ele>131.0</ele><time>2026-05-02T13:26:27.999Z</time></trkpt><trkpt lat="41.13391202279174" lon="14.770703866527674"><ele>131.0</ele><time>2026-05-02T13:26:28.999Z</time></trkpt><trkpt lat="41.13390567017609" lon="14.770586256734871"><ele>131.0</ele><time>2026-05-02T13:26:29.999Z</time></trkpt><trkpt lat="41.13387920353912" lon="14.770463993510495"><ele>131.0</ele><time>2026-05-02T13:26:30.999Z</time></trkpt><trkpt lat="41.13383127020117" lon="14.770354619658328"><ele>131.0</ele><time>2026-05-02T13:26:31.999Z</time></trkpt><trkpt lat="41.133778869921315" lon="14.770285840183007"><ele>131.0</ele><time>2026-05-02T13:26:32.999Z</time></trkpt><trkpt lat="41.13368475274576" lon="14.770207567294596"><ele>131.0</ele><time>2026-05-02T13:26:34.999Z</time></trkpt><trkpt lat="41.13360802592413" lon="14.770138316658707"><ele>131.0</ele><time>2026-05-02T13:26:36.999Z</time></trkpt><trkpt lat="41.13350802019396" lon="14.770028104588192"><ele>131.0</ele><time>2026-05-02T13:26:38.999Z</time></trkpt><trkpt lat="41.13344502299304" lon="14.769959196372508"><ele>131.0</ele><time>2026-05-02T13:26:39.999Z</time></trkpt><trkpt lat="41.13338327537274" lon="14.769886102899285"><ele>131.0</ele><time>2026-05-02T13:26:40.999Z</time></trkpt><trkpt lat="41.13332232391962" lon="14.769823336767848"><ele>131.0</ele><time>2026-05-02T13:26:41.999Z</time></trkpt><trkpt lat="41.13326980326925" lon="14.76976026545053"><ele>131.0</ele><time>2026-05-02T13:26:42.999Z</time></trkpt><trkpt lat="41.13321927266348" lon="14.769698676797532"><ele>131.0</ele><time>2026-05-02T13:26:43.999Z</time></trkpt><trkpt lat="41.13316457252709" lon="14.76964330143242"><ele>131.0</ele><time>2026-05-02T13:26:44.999Z</time></trkpt><trkpt lat="41.13310255847676" lon="14.769605005783156"><ele>131.0</ele><time>2026-05-02T13:26:45.999Z</time></trkpt><trkpt lat="41.13304106785783" lon="14.769556851482063"><ele>131.0</ele><time>2026-05-02T13:26:46.999Z</time></trkpt><trkpt lat="41.13298052192785" lon="14.769517434618379"><ele>131.0</ele><time>2026-05-02T13:26:47.999Z</time></trkpt><trkpt lat="41.132913734176405" lon="14.769469082367827"><ele>130.2</ele><time>2026-05-02T13:26:48.999Z</time></trkpt><trkpt lat="41.1328454199342" lon="14.769420640608333"><ele>129.39999999999998</ele><time>2026-05-02T13:26:49.999Z</time></trkpt><trkpt lat="41.13276709244906" lon="14.769352724735217"><ele>128.6</ele><time>2026-05-02T13:26:50.999Z</time></trkpt><trkpt lat="41.1326815307402" lon="14.769283176897407"><ele>127.8</ele><time>2026-05-02T13:26:51.999Z</time></trkpt><trkpt lat="41.132595275932225" lon="14.76922024848152"><ele>127.0</ele><time>2026-05-02T13:26:52.999Z</time></trkpt><trkpt lat="41.13250872537855" lon="14.769154193566187"><ele>127.0</ele><time>2026-05-02T13:26:53.999Z</time></trkpt><trkpt lat="41.13241658814849" lon="14.769086485133064"><ele>126.99999999999999</ele><time>2026-05-02T13:26:54.999Z</time></trkpt><trkpt lat="41.13232873131238" lon="14.769016218856928"><ele>126.99999999999999</ele><time>2026-05-02T13:26:55.999Z</time></trkpt><trkpt lat="41.13224580895303" lon="14.768949310565807"><ele>127.0</ele><time>2026-05-02T13:26:56.999Z</time></trkpt><trkpt lat="41.13215857642666" lon="14.768885407667822"><ele>127.0</ele><time>2026-05-02T13:26:57.999Z</time></trkpt><trkpt lat="41.13206885154535" lon="14.768816111922279"><ele>126.19999999999999</ele><time>2026-05-02T13:26:58.999Z</time></trkpt><trkpt lat="41.131975147689836" lon="14.768745069572919"><ele>125.39999999999999</ele><time>2026-05-02T13:26:59.999Z</time></trkpt><trkpt lat="41.131885413639836" lon="14.768685040098653"><ele>124.60000000000001</ele><time>2026-05-02T13:27:00.999Z</time></trkpt><trkpt lat="41.13179788499216" lon="14.7686366775736"><ele>123.80000000000001</ele><time>2026-05-02T13:27:01.999Z</time></trkpt><trkpt lat="41.131712687666585" lon="14.768584047511185"><ele>123.0</ele><time>2026-05-02T13:27:02.999Z</time></trkpt><trkpt lat="41.13162764055217" lon="14.768543318053533"><ele>121.83333333333333</ele><time>2026-05-02T13:27:03.999Z</time></trkpt><trkpt lat="41.131542083319275" lon="14.768503256970206"><ele>120.66666666666666</ele><time>2026-05-02T13:27:04.999Z</time></trkpt><trkpt lat="41.13145430117072" lon="14.768452654726618"><ele>119.5</ele><time>2026-05-02T13:27:05.999Z</time></trkpt><trkpt lat="41.13137162206744" lon="14.768412157721786"><ele>118.33333333333333</ele><time>2026-05-02T13:27:06.999Z</time></trkpt><trkpt lat="41.131289323208854" lon="14.768381793871933"><ele>117.16666666666666</ele><time>2026-05-02T13:27:07.999Z</time></trkpt><trkpt lat="41.13121303497022" lon="14.76835495634596"><ele>116.0</ele><time>2026-05-02T13:27:08.999Z</time></trkpt><trkpt lat="41.13113266841777" lon="14.768331711419322"><ele>115.99999999999999</ele><time>2026-05-02T13:27:09.999Z</time></trkpt><trkpt lat="41.131061927484005" lon="14.768320306033365"><ele>116.0</ele><time>2026-05-02T13:27:10.999Z</time></trkpt><trkpt lat="41.130997835970305" lon="14.768304867911539"><ele>116.0</ele><time>2026-05-02T13:27:11.999Z</time></trkpt><trkpt lat="41.13088177915221" lon="14.768223803401144"><ele>116.0</ele><time>2026-05-02T13:27:13.999Z</time></trkpt><trkpt lat="41.1308182091719" lon="14.768148467219739"><ele>115.99999999999999</ele><time>2026-05-02T13:27:14.999Z</time></trkpt><trkpt lat="41.13076596371863" lon="14.768085503129567"><ele>116.0</ele><time>2026-05-02T13:27:15.999Z</time></trkpt><trkpt lat="41.13065239639602" lon="14.768039112290918"><ele>115.66666666666666</ele><time>2026-05-02T13:27:17.999Z</time></trkpt><trkpt lat="41.13055457903954" lon="14.767982764908071"><ele>115.33333333333333</ele><time>2026-05-02T13:27:19.999Z</time></trkpt><trkpt lat="41.130499531851996" lon="14.76792715808782"><ele>115.0</ele><time>2026-05-02T13:27:20.999Z</time></trkpt><trkpt lat="41.13037953363957" lon="14.767959453806471"><ele>114.66666666666666</ele><time>2026-05-02T13:27:22.999Z</time></trkpt><trkpt lat="41.130323166186066" lon="14.76801239362386"><ele>114.33333333333333</ele><time>2026-05-02T13:27:23.999Z</time></trkpt><trkpt lat="41.130257619692806" lon="14.768055897430326"><ele>114.0</ele><time>2026-05-02T13:27:24.999Z</time></trkpt><trkpt lat="41.13017728132187" lon="14.768072242913586"><ele>114.0</ele><time>2026-05-02T13:27:25.999Z</time></trkpt><trkpt lat="41.1300842263111" lon="14.768085182443624"><ele>114.0</ele><time>2026-05-02T13:27:26.999Z</time></trkpt><trkpt lat="41.129986858262924" lon="14.768100869850269"><ele>114.0</ele><time>2026-05-02T13:27:27.999Z</time></trkpt><trkpt lat="41.12988386824992" lon="14.76811897230438"><ele>114.0</ele><time>2026-05-02T13:27:28.999Z</time></trkpt><trkpt lat="41.129783902691685" lon="14.768138801907858"><ele>114.0</ele><time>2026-05-02T13:27:29.999Z</time></trkpt><trkpt lat="41.12966509146329" lon="14.768164683825802"><ele>114.4</ele><time>2026-05-02T13:27:30.999Z</time></trkpt><trkpt lat="41.129544235512334" lon="14.768186883782914"><ele>114.80000000000001</ele><time>2026-05-02T13:27:31.999Z</time></trkpt><trkpt lat="41.12943067622384" lon="14.768204521856248"><ele>115.19999999999999</ele><time>2026-05-02T13:27:32.999Z</time></trkpt><trkpt lat="41.12932661246213" lon="14.768225668384819"><ele>115.6</ele><time>2026-05-02T13:27:33.999Z</time></trkpt><trkpt lat="41.12922360765325" lon="14.76824009348483"><ele>116.0</ele><time>2026-05-02T13:27:34.999Z</time></trkpt><trkpt lat="41.129114386229936" lon="14.768257960784382"><ele>115.8</ele><time>2026-05-02T13:27:35.999Z</time></trkpt><trkpt lat="41.12900467943244" lon="14.768280489425022"><ele>115.6</ele><time>2026-05-02T13:27:36.999Z</time></trkpt><trkpt lat="41.128893335215004" lon="14.768299797228952"><ele>115.4</ele><time>2026-05-02T13:27:37.999Z</time></trkpt><trkpt lat="41.12878606996345" lon="14.768315389647471"><ele>115.2</ele><time>2026-05-02T13:27:38.999Z</time></trkpt><trkpt lat="41.12868040423359" lon="14.76833742536805"><ele>115.0</ele><time>2026-05-02T13:27:39.999Z</time></trkpt><trkpt lat="41.128575219231934" lon="14.768362016721035"><ele>115.0</ele><time>2026-05-02T13:27:40.999Z</time></trkpt><trkpt lat="41.12846830241114" lon="14.768386339367753"><ele>115.0</ele><time>2026-05-02T13:27:41.999Z</time></trkpt><trkpt lat="41.12836543221953" lon="14.768406901103148"><ele>115.0</ele><time>2026-05-02T13:27:42.999Z</time></trkpt><trkpt lat="41.12827617623813" lon="14.768399302814272"><ele>115.0</ele><time>2026-05-02T13:27:43.999Z</time></trkpt><trkpt lat="41.12819334081955" lon="14.768366835795764"><ele>115.0</ele><time>2026-05-02T13:27:44.999Z</time></trkpt><trkpt lat="41.128126040752946" lon="14.76830756050378"><ele>115.5</ele><time>2026-05-02T13:27:45.999Z</time></trkpt><trkpt lat="41.12808605442171" lon="14.768224055929577"><ele>116.0</ele><time>2026-05-02T13:27:46.999Z</time></trkpt><trkpt lat="41.1280152930679" lon="14.768089657700044"><ele>116.5</ele><time>2026-05-02T13:27:48.999Z</time></trkpt><trkpt lat="41.127818582417774" lon="14.76813828592032"><ele>117.0</ele><time>2026-05-02T13:27:51.999Z</time></trkpt><trkpt lat="41.12772406550816" lon="14.768181546067789"><ele>117.0</ele><time>2026-05-02T13:27:52.999Z</time></trkpt><trkpt lat="41.12761758993978" lon="14.768212218711607"><ele>117.0</ele><time>2026-05-02T13:27:53.999Z</time></trkpt><trkpt lat="41.12747963100913" lon="14.76819470224165"><ele>117.0</ele><time>2026-05-02T13:27:54.999Z</time></trkpt><trkpt lat="41.12730176716631" lon="14.768203691589518"><ele>117.0</ele><time>2026-05-02T13:27:55.999Z</time></trkpt><trkpt lat="41.12713824464913" lon="14.768235780923499"><ele>119.0</ele><time>2026-05-02T13:27:56.999Z</time></trkpt><trkpt lat="41.12698489632319" lon="14.768259336468605"><ele>121.0</ele><time>2026-05-02T13:27:57.999Z</time></trkpt><trkpt lat="41.126833409375905" lon="14.768295015514614"><ele>123.0</ele><time>2026-05-02T13:27:58.999Z</time></trkpt><trkpt lat="41.12667781269519" lon="14.768340982662057"><ele>123.0</ele><time>2026-05-02T13:27:59.999Z</time></trkpt><trkpt lat="41.12652199324628" lon="14.768403883491457"><ele>123.0</ele><time>2026-05-02T13:28:00.999Z</time></trkpt><trkpt lat="41.126386815688775" lon="14.768479858976383"><ele>123.0</ele><time>2026-05-02T13:28:01.999Z</time></trkpt><trkpt lat="41.126262265018916" lon="14.768560529629283"><ele>123.0</ele><time>2026-05-02T13:28:02.999Z</time></trkpt><trkpt lat="41.12615461756373" lon="14.768649875805348"><ele>122.0</ele><time>2026-05-02T13:28:03.999Z</time></trkpt><trkpt lat="41.12605470417709" lon="14.768744229253102"><ele>121.00000000000001</ele><time>2026-05-02T13:28:04.999Z</time></trkpt><trkpt lat="41.12596208414127" lon="14.768836010608533"><ele>120.00000000000001</ele><time>2026-05-02T13:28:05.999Z</time></trkpt><trkpt lat="41.125885592530175" lon="14.768915602405912"><ele>119.0</ele><time>2026-05-02T13:28:06.999Z</time></trkpt><trkpt lat="41.12581325493514" lon="14.768976179017766"><ele>118.0</ele><time>2026-05-02T13:28:07.999Z</time></trkpt><trkpt lat="41.125738391255865" lon="14.769009144545771"><ele>118.83333333333334</ele><time>2026-05-02T13:28:08.999Z</time></trkpt><trkpt lat="41.125662727384324" lon="14.769015190055415"><ele>119.66666666666667</ele><time>2026-05-02T13:28:09.999Z</time></trkpt><trkpt lat="41.1255821273875" lon="14.76900421366966"><ele>120.5</ele><time>2026-05-02T13:28:10.999Z</time></trkpt><trkpt lat="41.125500450815046" lon="14.768958261012239"><ele>121.33333333333334</ele><time>2026-05-02T13:28:11.999Z</time></trkpt><trkpt lat="41.1254248298422" lon="14.768884357888215"><ele>122.16666666666667</ele><time>2026-05-02T13:28:12.999Z</time></trkpt><trkpt lat="41.125360672424684" lon="14.768789416729206"><ele>123.0</ele><time>2026-05-02T13:28:13.999Z</time></trkpt><trkpt lat="41.125302041093626" lon="14.768678334804777"><ele>123.0</ele><time>2026-05-02T13:28:14.999Z</time></trkpt><trkpt lat="41.12525187683549" lon="14.76858194189817"><ele>123.00000000000001</ele><time>2026-05-02T13:28:15.999Z</time></trkpt><trkpt lat="41.12520251965027" lon="14.768482195420312"><ele>123.00000000000001</ele><time>2026-05-02T13:28:16.999Z</time></trkpt><trkpt lat="41.125156436389254" lon="14.768386631941851"><ele>123.0</ele><time>2026-05-02T13:28:17.999Z</time></trkpt><trkpt lat="41.1251006686772" lon="14.7682928241925"><ele>123.0</ele><time>2026-05-02T13:28:18.999Z</time></trkpt><trkpt lat="41.12504347801358" lon="14.768188062452724"><ele>123.25</ele><time>2026-05-02T13:28:19.999Z</time></trkpt><trkpt lat="41.12497266658847" lon="14.768051768711986"><ele>123.5</ele><time>2026-05-02T13:28:20.999Z</time></trkpt><trkpt lat="41.1249009554288" lon="14.767924706799722"><ele>123.75</ele><time>2026-05-02T13:28:21.999Z</time></trkpt><trkpt lat="41.12483690560241" lon="14.767807644674967"><ele>124.0</ele><time>2026-05-02T13:28:22.999Z</time></trkpt><trkpt lat="41.12477279984915" lon="14.767692592914303"><ele>125.80000000000001</ele><time>2026-05-02T13:28:23.999Z</time></trkpt><trkpt lat="41.12471973189324" lon="14.767593120834427"><ele>127.60000000000001</ele><time>2026-05-02T13:28:24.999Z</time></trkpt><trkpt lat="41.12467680035377" lon="14.767491741966577"><ele>129.4</ele><time>2026-05-02T13:28:25.999Z</time></trkpt><trkpt lat="41.12462529617602" lon="14.767380948342971"><ele>131.20000000000002</ele><time>2026-05-02T13:28:26.999Z</time></trkpt><trkpt lat="41.12456231204853" lon="14.76726307339597"><ele>133.0</ele><time>2026-05-02T13:28:27.999Z</time></trkpt><trkpt lat="41.124502331683516" lon="14.767151045276965"><ele>133.0</ele><time>2026-05-02T13:28:28.999Z</time></trkpt><trkpt lat="41.1244485720988" lon="14.767048570771978"><ele>133.0</ele><time>2026-05-02T13:28:29.999Z</time></trkpt><trkpt lat="41.124396817207234" lon="14.766957806533867"><ele>133.0</ele><time>2026-05-02T13:28:30.999Z</time></trkpt><trkpt lat="41.12433853207063" lon="14.76688069576615"><ele>133.0</ele><time>2026-05-02T13:28:31.999Z</time></trkpt><trkpt lat="41.12426766363137" lon="14.766829469052801"><ele>133.0</ele><time>2026-05-02T13:28:32.999Z</time></trkpt><trkpt lat="41.124120787687986" lon="14.766796096754048"><ele>134.4</ele><time>2026-05-02T13:28:34.999Z</time></trkpt><trkpt lat="41.12403965529007" lon="14.766807034297011"><ele>135.8</ele><time>2026-05-02T13:28:35.999Z</time></trkpt><trkpt lat="41.123955567534246" lon="14.766837987096865"><ele>137.2</ele><time>2026-05-02T13:28:36.999Z</time></trkpt><trkpt lat="41.123870766174726" lon="14.766899370520754"><ele>138.6</ele><time>2026-05-02T13:28:37.999Z</time></trkpt><trkpt lat="41.123740529907934" lon="14.766980910074379"><ele>140.0</ele><time>2026-05-02T13:28:38.999Z</time></trkpt><trkpt lat="41.12359210272203" lon="14.76711375008492"><ele>140.0</ele><time>2026-05-02T13:28:39.999Z</time></trkpt><trkpt lat="41.12345511598099" lon="14.767237834259431"><ele>140.0</ele><time>2026-05-02T13:28:40.999Z</time></trkpt><trkpt lat="41.12333908954903" lon="14.767342932122022"><ele>140.0</ele><time>2026-05-02T13:28:41.999Z</time></trkpt><trkpt lat="41.123238576703486" lon="14.767433977805034"><ele>140.0</ele><time>2026-05-02T13:28:42.999Z</time></trkpt><trkpt lat="41.123150643082404" lon="14.767532153932704"><ele>139.5</ele><time>2026-05-02T13:28:43.999Z</time></trkpt><trkpt lat="41.123058273700394" lon="14.767609908631874"><ele>139.0</ele><time>2026-05-02T13:28:44.999Z</time></trkpt><trkpt lat="41.12297006375419" lon="14.767685049378434"><ele>138.5</ele><time>2026-05-02T13:28:45.999Z</time></trkpt><trkpt lat="41.12288286211389" lon="14.767776512407197"><ele>138.0</ele><time>2026-05-02T13:28:46.999Z</time></trkpt><trkpt lat="41.122779372690886" lon="14.767875286569247"><ele>138.0</ele><time>2026-05-02T13:28:47.999Z</time></trkpt><trkpt lat="41.12264166759162" lon="14.767975642997495"><ele>138.0</ele><time>2026-05-02T13:28:48.999Z</time></trkpt><trkpt lat="41.12248991868465" lon="14.76812718224492"><ele>138.0</ele><time>2026-05-02T13:28:49.999Z</time></trkpt><trkpt lat="41.12232352453696" lon="14.768271905239216"><ele>137.66666666666666</ele><time>2026-05-02T13:28:50.999Z</time></trkpt><trkpt lat="41.12215883288382" lon="14.768404857830088"><ele>137.33333333333331</ele><time>2026-05-02T13:28:51.999Z</time></trkpt><trkpt lat="41.122011423389125" lon="14.768530903009914"><ele>137.0</ele><time>2026-05-02T13:28:52.999Z</time></trkpt><trkpt lat="41.121881377606286" lon="14.768650188509902"><ele>137.0</ele><time>2026-05-02T13:28:53.999Z</time></trkpt><trkpt lat="41.12175246141391" lon="14.768769935623048"><ele>137.0</ele><time>2026-05-02T13:28:54.999Z</time></trkpt><trkpt lat="41.121633294629376" lon="14.768881652787059"><ele>137.0</ele><time>2026-05-02T13:28:55.999Z</time></trkpt><trkpt lat="41.121516865194565" lon="14.768985639525324"><ele>137.0</ele><time>2026-05-02T13:28:56.999Z</time></trkpt><trkpt lat="41.12141296388729" lon="14.769076994244276"><ele>137.0</ele><time>2026-05-02T13:28:57.999Z</time></trkpt><trkpt lat="41.12132448632104" lon="14.769155875211732"><ele>137.0</ele><time>2026-05-02T13:28:58.999Z</time></trkpt><trkpt lat="41.12125596033134" lon="14.76920975453807"><ele>137.0</ele><time>2026-05-02T13:28:59.999Z</time></trkpt><trkpt lat="41.121193357827764" lon="14.769234388048892"><ele>137.0</ele><time>2026-05-02T13:29:00.999Z</time></trkpt><trkpt lat="41.12114210215687" lon="14.769177917364908"><ele>137.0</ele><time>2026-05-02T13:29:03.999Z</time></trkpt><trkpt lat="41.12107792842469" lon="14.76911871063751"><ele>137.0</ele><time>2026-05-02T13:29:04.999Z</time></trkpt><trkpt lat="41.12100653072536" lon="14.768995414470373"><ele>137.0</ele><time>2026-05-02T13:29:05.999Z</time></trkpt><trkpt lat="41.120939866413245" lon="14.768856195445299"><ele>137.0</ele><time>2026-05-02T13:29:06.999Z</time></trkpt><trkpt lat="41.120847652514506" lon="14.768684876408717"><ele>137.0</ele><time>2026-05-02T13:29:07.999Z</time></trkpt><trkpt lat="41.12075900989443" lon="14.768513671341223"><ele>137.0</ele><time>2026-05-02T13:29:08.999Z</time></trkpt><trkpt lat="41.120663063944654" lon="14.768348225867"><ele>139.4</ele><time>2026-05-02T13:29:09.999Z</time></trkpt><trkpt lat="41.12059192425102" lon="14.768216083112078"><ele>141.79999999999998</ele><time>2026-05-02T13:29:10.999Z</time></trkpt><trkpt lat="41.120539922077974" lon="14.768108924605858"><ele>144.2</ele><time>2026-05-02T13:29:11.999Z</time></trkpt><trkpt lat="41.120484560893274" lon="14.767999428975775"><ele>146.6</ele><time>2026-05-02T13:29:12.999Z</time></trkpt><trkpt lat="41.120418749777336" lon="14.76788281759111"><ele>149.0</ele><time>2026-05-02T13:29:13.999Z</time></trkpt><trkpt lat="41.12035572351277" lon="14.767765964261802"><ele>149.66666666666666</ele><time>2026-05-02T13:29:14.999Z</time></trkpt><trkpt lat="41.12029827946466" lon="14.767655321326258"><ele>150.33333333333331</ele><time>2026-05-02T13:29:15.999Z</time></trkpt><trkpt lat="41.12025545788608" lon="14.76756797338486"><ele>151.0</ele><time>2026-05-02T13:29:16.999Z</time></trkpt><trkpt lat="41.12021419524037" lon="14.767502566769643"><ele>151.66666666666666</ele><time>2026-05-02T13:29:17.999Z</time></trkpt><trkpt lat="41.12016609179125" lon="14.767434148041593"><ele>152.33333333333334</ele><time>2026-05-02T13:29:18.999Z</time></trkpt><trkpt lat="41.120119970450475" lon="14.767336478143053"><ele>153.0</ele><time>2026-05-02T13:29:19.999Z</time></trkpt><trkpt lat="41.12006504641889" lon="14.767226011630374"><ele>153.0</ele><time>2026-05-02T13:29:20.999Z</time></trkpt><trkpt lat="41.11999173342872" lon="14.767092611473357"><ele>153.0</ele><time>2026-05-02T13:29:21.999Z</time></trkpt><trkpt lat="41.11990627007831" lon="14.76692436129254"><ele>153.0</ele><time>2026-05-02T13:29:22.999Z</time></trkpt><trkpt lat="41.11982670530909" lon="14.76675331817028"><ele>153.0</ele><time>2026-05-02T13:29:23.999Z</time></trkpt><trkpt lat="41.11972514626224" lon="14.766562166244363"><ele>155.0</ele><time>2026-05-02T13:29:24.999Z</time></trkpt><trkpt lat="41.11961994164387" lon="14.76634038130979"><ele>157.0</ele><time>2026-05-02T13:29:25.999Z</time></trkpt><trkpt lat="41.11949845672081" lon="14.766138958669872"><ele>159.0</ele><time>2026-05-02T13:29:26.999Z</time></trkpt><trkpt lat="41.119404757766844" lon="14.765953259859332"><ele>159.0</ele><time>2026-05-02T13:29:27.999Z</time></trkpt><trkpt lat="41.11932174600575" lon="14.765770408359172"><ele>159.0</ele><time>2026-05-02T13:29:28.999Z</time></trkpt><trkpt lat="41.119249155413605" lon="14.765587607529108"><ele>159.0</ele><time>2026-05-02T13:29:29.999Z</time></trkpt><trkpt lat="41.11917389692185" lon="14.765420530601048"><ele>159.0</ele><time>2026-05-02T13:29:30.999Z</time></trkpt><trkpt lat="41.119150436436456" lon="14.765218268419256"><ele>159.0</ele><time>2026-05-02T13:29:31.999Z</time></trkpt><trkpt lat="41.11910460501795" lon="14.76509300950371"><ele>159.0</ele><time>2026-05-02T13:29:32.999Z</time></trkpt><trkpt lat="41.11907814542711" lon="14.76498200703412"><ele>159.0</ele><time>2026-05-02T13:29:33.999Z</time></trkpt><trkpt lat="41.11903701452609" lon="14.764824616511646"><ele>160.33333333333334</ele><time>2026-05-02T13:29:34.999Z</time></trkpt><trkpt lat="41.11891644502577" lon="14.764505155055964"><ele>161.66666666666669</ele><time>2026-05-02T13:29:35.999Z</time></trkpt><trkpt lat="41.11886930813886" lon="14.76432676004545"><ele>163.0</ele><time>2026-05-02T13:29:36.999Z</time></trkpt><trkpt lat="41.11882215329999" lon="14.764167800914127"><ele>163.0</ele><time>2026-05-02T13:29:37.999Z</time></trkpt><trkpt lat="41.11877282232893" lon="14.764011056079294"><ele>163.0</ele><time>2026-05-02T13:29:38.999Z</time></trkpt><trkpt lat="41.11873010868226" lon="14.76386760045478"><ele>163.0</ele><time>2026-05-02T13:29:39.999Z</time></trkpt><trkpt lat="41.11868959212078" lon="14.763738504464904"><ele>163.0</ele><time>2026-05-02T13:29:40.999Z</time></trkpt><trkpt lat="41.11866335210768" lon="14.76363255645821"><ele>163.0</ele><time>2026-05-02T13:29:41.999Z</time></trkpt><trkpt lat="41.118622126503205" lon="14.763485476610457"><ele>161.8</ele><time>2026-05-02T13:29:43.999Z</time></trkpt><trkpt lat="41.118587517304675" lon="14.763414474136226"><ele>160.60000000000002</ele><time>2026-05-02T13:29:44.999Z</time></trkpt><trkpt lat="41.1185355386388" lon="14.763274587700007"><ele>159.39999999999998</ele><time>2026-05-02T13:29:45.999Z</time></trkpt><trkpt lat="41.11849843516137" lon="14.763105912719647"><ele>158.2</ele><time>2026-05-02T13:29:46.999Z</time></trkpt><trkpt lat="41.11846485144406" lon="14.762973799460209"><ele>157.0</ele><time>2026-05-02T13:29:47.999Z</time></trkpt><trkpt lat="41.11842819967231" lon="14.762864630392059"><ele>157.0</ele><time>2026-05-02T13:29:48.999Z</time></trkpt><trkpt lat="41.11838277974442" lon="14.762700001170119"><ele>157.0</ele><time>2026-05-02T13:29:49.999Z</time></trkpt><trkpt lat="41.118336331693015" lon="14.762516501473181"><ele>157.0</ele><time>2026-05-02T13:29:50.999Z</time></trkpt><trkpt lat="41.1182948344409" lon="14.76237520679906"><ele>157.0</ele><time>2026-05-02T13:29:51.999Z</time></trkpt><trkpt lat="41.11825960917274" lon="14.7622447256676"><ele>156.0</ele><time>2026-05-02T13:29:52.999Z</time></trkpt><trkpt lat="41.11822030270344" lon="14.762108981207016"><ele>155.0</ele><time>2026-05-02T13:29:53.999Z</time></trkpt><trkpt lat="41.11818590687019" lon="14.761994659604229"><ele>154.0</ele><time>2026-05-02T13:29:54.999Z</time></trkpt><trkpt lat="41.11815859048441" lon="14.761894709833554"><ele>153.0</ele><time>2026-05-02T13:29:55.999Z</time></trkpt><trkpt lat="41.11812943071154" lon="14.761786912142975"><ele>152.0</ele><time>2026-05-02T13:29:56.999Z</time></trkpt><trkpt lat="41.11807796038657" lon="14.761623595007451"><ele>150.0</ele><time>2026-05-02T13:29:57.999Z</time></trkpt><trkpt lat="41.11802726404527" lon="14.761440829053312"><ele>148.0</ele><time>2026-05-02T13:29:58.999Z</time></trkpt><trkpt lat="41.117982427768354" lon="14.761272179088031"><ele>146.0</ele><time>2026-05-02T13:29:59.999Z</time></trkpt><trkpt lat="41.11794593956753" lon="14.761128506622848"><ele>144.0</ele><time>2026-05-02T13:30:00.999Z</time></trkpt><trkpt lat="41.117911631145816" lon="14.760990045177643"><ele>143.66666666666666</ele><time>2026-05-02T13:30:01.999Z</time></trkpt><trkpt lat="41.117873159496796" lon="14.760865826469955"><ele>143.33333333333334</ele><time>2026-05-02T13:30:02.999Z</time></trkpt><trkpt lat="41.11784329585403" lon="14.760747502511224"><ele>143.0</ele><time>2026-05-02T13:30:03.999Z</time></trkpt><trkpt lat="41.11781355247433" lon="14.760648055393538"><ele>142.66666666666669</ele><time>2026-05-02T13:30:04.999Z</time></trkpt><trkpt lat="41.11778645493206" lon="14.76054574030732"><ele>142.33333333333334</ele><time>2026-05-02T13:30:05.999Z</time></trkpt><trkpt lat="41.11775722623525" lon="14.760429925962631"><ele>142.0</ele><time>2026-05-02T13:30:06.999Z</time></trkpt><trkpt lat="41.1177269278017" lon="14.760309689126652"><ele>141.83333333333334</ele><time>2026-05-02T13:30:07.999Z</time></trkpt><trkpt lat="41.1176943178873" lon="14.760184015761789"><ele>141.66666666666669</ele><time>2026-05-02T13:30:08.999Z</time></trkpt><trkpt lat="41.11766855491594" lon="14.760077936456723"><ele>141.5</ele><time>2026-05-02T13:30:09.999Z</time></trkpt><trkpt lat="41.117649780304696" lon="14.75998826506324"><ele>141.33333333333334</ele><time>2026-05-02T13:30:10.999Z</time></trkpt><trkpt lat="41.11763657954148" lon="14.75990267348501"><ele>141.16666666666666</ele><time>2026-05-02T13:30:11.999Z</time></trkpt><trkpt lat="41.11762490162026" lon="14.759815614681772"><ele>141.0</ele><time>2026-05-02T13:30:12.999Z</time></trkpt><trkpt lat="41.117607613299555" lon="14.759662624863818"><ele>141.0</ele><time>2026-05-02T13:30:14.999Z</time></trkpt><trkpt lat="41.11762984469694" lon="14.759524536435846"><ele>141.0</ele><time>2026-05-02T13:30:16.999Z</time></trkpt><trkpt lat="41.11767715879396" lon="14.759445332103274"><ele>141.0</ele><time>2026-05-02T13:30:17.999Z</time></trkpt><trkpt lat="41.11772278840131" lon="14.759370652282511"><ele>141.0</ele><time>2026-05-02T13:30:18.999Z</time></trkpt><trkpt lat="41.11776125387239" lon="14.7592860350775"><ele>141.0</ele><time>2026-05-02T13:30:19.999Z</time></trkpt><trkpt lat="41.11775105990829" lon="14.759131212131232"><ele>141.0</ele><time>2026-05-02T13:30:21.999Z</time></trkpt><trkpt lat="41.11766253013668" lon="14.759010266244145"><ele>141.0</ele><time>2026-05-02T13:30:23.999Z</time></trkpt><trkpt lat="41.11758605211646" lon="14.758951179806095"><ele>141.0</ele><time>2026-05-02T13:30:24.999Z</time></trkpt><trkpt lat="41.117513761283675" lon="14.758900368904134"><ele>141.0</ele><time>2026-05-02T13:30:25.999Z</time></trkpt><trkpt lat="41.117447252138106" lon="14.75884512232699"><ele>141.0</ele><time>2026-05-02T13:30:26.999Z</time></trkpt><trkpt lat="41.11737989409458" lon="14.758765835339686"><ele>141.0</ele><time>2026-05-02T13:30:27.999Z</time></trkpt><trkpt lat="41.11732387391492" lon="14.75866663705079"><ele>141.0</ele><time>2026-05-02T13:30:28.999Z</time></trkpt><trkpt lat="41.117278847770045" lon="14.758558836380665"><ele>142.2</ele><time>2026-05-02T13:30:29.999Z</time></trkpt><trkpt lat="41.11723567055442" lon="14.758446024478623"><ele>143.39999999999998</ele><time>2026-05-02T13:30:30.999Z</time></trkpt><trkpt lat="41.11719254347527" lon="14.758327043822922"><ele>144.6</ele><time>2026-05-02T13:30:31.999Z</time></trkpt><trkpt lat="41.117151387941526" lon="14.758202471218949"><ele>145.79999999999998</ele><time>2026-05-02T13:30:33Z</time></trkpt><trkpt lat="41.11711105093904" lon="14.758075455864317"><ele>147.0</ele><time>2026-05-02T13:30:34Z</time></trkpt><trkpt lat="41.1170705470133" lon="14.757945119676199"><ele>147.0</ele><time>2026-05-02T13:30:35Z</time></trkpt><trkpt lat="41.11703708134004" lon="14.757815113522616"><ele>147.0</ele><time>2026-05-02T13:30:36Z</time></trkpt><trkpt lat="41.11699840392367" lon="14.757665870071001"><ele>147.0</ele><time>2026-05-02T13:30:37Z</time></trkpt><trkpt lat="41.116938369687894" lon="14.757468751022905"><ele>147.0</ele><time>2026-05-02T13:30:38Z</time></trkpt><trkpt lat="41.11687674820413" lon="14.757270183899921"><ele>147.0</ele><time>2026-05-02T13:30:39Z</time></trkpt><trkpt lat="41.11680069869616" lon="14.7570298287205"><ele>147.0</ele><time>2026-05-02T13:30:40Z</time></trkpt><trkpt lat="41.116716836146644" lon="14.756719222107444"><ele>147.0</ele><time>2026-05-02T13:30:41Z</time></trkpt><trkpt lat="41.11663351615996" lon="14.756383831176718"><ele>149.5</ele><time>2026-05-02T13:30:42Z</time></trkpt><trkpt lat="41.116551579419735" lon="14.756026321855941"><ele>152.0</ele><time>2026-05-02T13:30:43Z</time></trkpt><trkpt lat="41.116455429924955" lon="14.755719539995516"><ele>152.0</ele><time>2026-05-02T13:30:44Z</time></trkpt><trkpt lat="41.11632684472817" lon="14.755440841275124"><ele>152.0</ele><time>2026-05-02T13:30:45Z</time></trkpt><trkpt lat="41.11616074025741" lon="14.755182201306585"><ele>150.0</ele><time>2026-05-02T13:30:46Z</time></trkpt><trkpt lat="41.11598121873948" lon="14.754939652756647"><ele>148.0</ele><time>2026-05-02T13:30:47Z</time></trkpt><trkpt lat="41.115779167967744" lon="14.754723504213871"><ele>147.0</ele><time>2026-05-02T13:30:48Z</time></trkpt><trkpt lat="41.11556465163467" lon="14.754545678570816"><ele>146.0</ele><time>2026-05-02T13:30:49Z</time></trkpt><trkpt lat="41.11532121859433" lon="14.754364383192515"><ele>146.0</ele><time>2026-05-02T13:30:50Z</time></trkpt><trkpt lat="41.115074174000625" lon="14.754184319706813"><ele>146.0</ele><time>2026-05-02T13:30:51Z</time></trkpt><trkpt lat="41.11485388178079" lon="14.754009911393819"><ele>147.5</ele><time>2026-05-02T13:30:52Z</time></trkpt><trkpt lat="41.11463946365248" lon="14.753838939715328"><ele>149.0</ele><time>2026-05-02T13:30:53Z</time></trkpt><trkpt lat="41.11444351040437" lon="14.753684206370362"><ele>148.33333333333331</ele><time>2026-05-02T13:30:54Z</time></trkpt><trkpt lat="41.114248608052755" lon="14.75352781052477"><ele>147.66666666666666</ele><time>2026-05-02T13:30:55Z</time></trkpt><trkpt lat="41.11406501433007" lon="14.753384052676761"><ele>147.0</ele><time>2026-05-02T13:30:56Z</time></trkpt><trkpt lat="41.11389525700277" lon="14.753248421057322"><ele>147.0</ele><time>2026-05-02T13:30:57Z</time></trkpt><trkpt lat="41.11373036747896" lon="14.75312032619378"><ele>147.0</ele><time>2026-05-02T13:30:58Z</time></trkpt><trkpt lat="41.113582787451755" lon="14.753000364221965"><ele>147.0</ele><time>2026-05-02T13:30:59Z</time></trkpt><trkpt lat="41.11345395851448" lon="14.75289429621531"><ele>147.0</ele><time>2026-05-02T13:31:00Z</time></trkpt><trkpt lat="41.11333543496145" lon="14.752790279906696"><ele>147.0</ele><time>2026-05-02T13:31:01Z</time></trkpt><trkpt lat="41.11321246836522" lon="14.752677388152796"><ele>147.0</ele><time>2026-05-02T13:31:02Z</time></trkpt><trkpt lat="41.11308361808293" lon="14.752564905712502"><ele>147.0</ele><time>2026-05-02T13:31:03Z</time></trkpt><trkpt lat="41.112949282013425" lon="14.752449786362305"><ele>145.66666666666666</ele><time>2026-05-02T13:31:04Z</time></trkpt><trkpt lat="41.11280950372205" lon="14.752322202928237"><ele>144.33333333333331</ele><time>2026-05-02T13:31:05Z</time></trkpt><trkpt lat="41.11266687088371" lon="14.752190379570202"><ele>143.0</ele><time>2026-05-02T13:31:06Z</time></trkpt><trkpt lat="41.112547318548245" lon="14.752068993110882"><ele>143.0</ele><time>2026-05-02T13:31:07Z</time></trkpt><trkpt lat="41.11242864181143" lon="14.751943165951252"><ele>143.0</ele><time>2026-05-02T13:31:08Z</time></trkpt><trkpt lat="41.11231068353915" lon="14.751822540218473"><ele>143.0</ele><time>2026-05-02T13:31:09Z</time></trkpt><trkpt lat="41.11218971803781" lon="14.751694124009084"><ele>140.0</ele><time>2026-05-02T13:31:10Z</time></trkpt><trkpt lat="41.112062173856366" lon="14.75155909325204"><ele>137.0</ele><time>2026-05-02T13:31:11Z</time></trkpt><trkpt lat="41.11194194059616" lon="14.751431824534148"><ele>134.0</ele><time>2026-05-02T13:31:12Z</time></trkpt><trkpt lat="41.11182051355963" lon="14.75130013235266"><ele>134.0</ele><time>2026-05-02T13:31:13Z</time></trkpt><trkpt lat="41.11168677919452" lon="14.751171379180304"><ele>134.0</ele><time>2026-05-02T13:31:14Z</time></trkpt><trkpt lat="41.11156416409907" lon="14.751045610995087"><ele>134.0</ele><time>2026-05-02T13:31:15Z</time></trkpt><trkpt lat="41.111443719985395" lon="14.75091725446173"><ele>133.33333333333331</ele><time>2026-05-02T13:31:15.999Z</time></trkpt><trkpt lat="41.11132277858643" lon="14.750791985335503"><ele>132.66666666666666</ele><time>2026-05-02T13:31:16.999Z</time></trkpt><trkpt lat="41.1112005256132" lon="14.75067076626545"><ele>132.0</ele><time>2026-05-02T13:31:17.999Z</time></trkpt><trkpt lat="41.11107914740684" lon="14.750543250764242"><ele>132.0</ele><time>2026-05-02T13:31:18.999Z</time></trkpt><trkpt lat="41.110963289660994" lon="14.750427601509575"><ele>132.0</ele><time>2026-05-02T13:31:19.999Z</time></trkpt><trkpt lat="41.11085515125914" lon="14.750316733456668"><ele>132.0</ele><time>2026-05-02T13:31:20.999Z</time></trkpt><trkpt lat="41.110741648438776" lon="14.750208935025194"><ele>132.0</ele><time>2026-05-02T13:31:21.999Z</time></trkpt><trkpt lat="41.11061668288664" lon="14.750093717728314"><ele>131.75</ele><time>2026-05-02T13:31:22.999Z</time></trkpt><trkpt lat="41.11049371084592" lon="14.749985946824072"><ele>131.5</ele><time>2026-05-02T13:31:23.999Z</time></trkpt><trkpt lat="41.110376240503726" lon="14.749890143250388"><ele>131.25</ele><time>2026-05-02T13:31:24.999Z</time></trkpt><trkpt lat="41.110253207799104" lon="14.749799342218129"><ele>131.0</ele><time>2026-05-02T13:31:25.999Z</time></trkpt><trkpt lat="41.110134740478095" lon="14.749714408726641"><ele>131.0</ele><time>2026-05-02T13:31:26.999Z</time></trkpt><trkpt lat="41.11001998125777" lon="14.749635642420596"><ele>131.0</ele><time>2026-05-02T13:31:27.999Z</time></trkpt><trkpt lat="41.10990033590253" lon="14.749557220536957"><ele>131.0</ele><time>2026-05-02T13:31:29Z</time></trkpt><trkpt lat="41.109782168570604" lon="14.749481553231945"><ele>131.0</ele><time>2026-05-02T13:31:30Z</time></trkpt><trkpt lat="41.10966321923619" lon="14.749403804215799"><ele>129.75</ele><time>2026-05-02T13:31:31Z</time></trkpt><trkpt lat="41.10953625118118" lon="14.749324525651115"><ele>128.5</ele><time>2026-05-02T13:31:32Z</time></trkpt><trkpt lat="41.10940545707865" lon="14.749249836775894"><ele>127.25</ele><time>2026-05-02T13:31:33Z</time></trkpt><trkpt lat="41.10928303315247" lon="14.749175100211085"><ele>126.0</ele><time>2026-05-02T13:31:34Z</time></trkpt><trkpt lat="41.10916458277611" lon="14.749098251203314"><ele>125.8</ele><time>2026-05-02T13:31:35Z</time></trkpt><trkpt lat="41.109053330806205" lon="14.749027032087207"><ele>125.6</ele><time>2026-05-02T13:31:36Z</time></trkpt><trkpt lat="41.108946758975264" lon="14.748957293836968"><ele>125.4</ele><time>2026-05-02T13:31:37Z</time></trkpt><trkpt lat="41.10885297400168" lon="14.748899003818115"><ele>125.2</ele><time>2026-05-02T13:31:38Z</time></trkpt><trkpt lat="41.10876611309148" lon="14.748836682843264"><ele>125.0</ele><time>2026-05-02T13:31:39Z</time></trkpt><trkpt lat="41.10869513834731" lon="14.748782194965125"><ele>124.99999999999999</ele><time>2026-05-02T13:31:40Z</time></trkpt><trkpt lat="41.10862227727721" lon="14.748723579248988"><ele>125.0</ele><time>2026-05-02T13:31:41Z</time></trkpt><trkpt lat="41.10855608746373" lon="14.74864485732422"><ele>125.0</ele><time>2026-05-02T13:31:42Z</time></trkpt><trkpt lat="41.10849523794078" lon="14.748541199451852"><ele>125.0</ele><time>2026-05-02T13:31:43Z</time></trkpt><trkpt lat="41.10841159541144" lon="14.748500358730224"><ele>124.99999999999999</ele><time>2026-05-02T13:31:44Z</time></trkpt><trkpt lat="41.10834205697013" lon="14.748447894353365"><ele>125.0</ele><time>2026-05-02T13:31:45Z</time></trkpt><trkpt lat="41.108271527378925" lon="14.748385785470948"><ele>125.75</ele><time>2026-05-02T13:31:46Z</time></trkpt><trkpt lat="41.10818955045332" lon="14.748321646920383"><ele>126.5</ele><time>2026-05-02T13:31:47Z</time></trkpt><trkpt lat="41.10807257444003" lon="14.74828213938571"><ele>127.25</ele><time>2026-05-02T13:31:48Z</time></trkpt><trkpt lat="41.10796362432304" lon="14.748209869566375"><ele>128.0</ele><time>2026-05-02T13:31:49Z</time></trkpt><trkpt lat="41.10785975324102" lon="14.748125319884295"><ele>128.0</ele><time>2026-05-02T13:31:50Z</time></trkpt><trkpt lat="41.10774090334209" lon="14.748005960803622"><ele>128.0</ele><time>2026-05-02T13:31:51Z</time></trkpt><trkpt lat="41.10760077858626" lon="14.747831550591155"><ele>128.0</ele><time>2026-05-02T13:31:52Z</time></trkpt><trkpt lat="41.107455265683406" lon="14.747637345919582"><ele>129.5</ele><time>2026-05-02T13:31:53Z</time></trkpt><trkpt lat="41.107309692700554" lon="14.747454950544556"><ele>131.0</ele><time>2026-05-02T13:31:54Z</time></trkpt><trkpt lat="41.106985634209444" lon="14.74709266107737"><ele>131.0</ele><time>2026-05-02T13:31:56Z</time></trkpt><trkpt lat="41.10684072969043" lon="14.746938430191708"><ele>131.0</ele><time>2026-05-02T13:31:57Z</time></trkpt><trkpt lat="41.10668186129475" lon="14.746771709847813"><ele>131.0</ele><time>2026-05-02T13:31:58Z</time></trkpt><trkpt lat="41.10651190848744" lon="14.746587827534762"><ele>130.5</ele><time>2026-05-02T13:31:59Z</time></trkpt><trkpt lat="41.10632818601499" lon="14.746373414965225"><ele>130.0</ele><time>2026-05-02T13:32:00Z</time></trkpt><trkpt lat="41.1061536231583" lon="14.7461563544328"><ele>130.66666666666669</ele><time>2026-05-02T13:32:01Z</time></trkpt><trkpt lat="41.10598814767273" lon="14.745957492062745"><ele>131.33333333333334</ele><time>2026-05-02T13:32:02Z</time></trkpt><trkpt lat="41.105836027745305" lon="14.745788035023518"><ele>132.0</ele><time>2026-05-02T13:32:03Z</time></trkpt><trkpt lat="41.1056749288398" lon="14.745620628619363"><ele>132.0</ele><time>2026-05-02T13:32:04Z</time></trkpt><trkpt lat="41.10549957632885" lon="14.745437696088374"><ele>132.0</ele><time>2026-05-02T13:32:05Z</time></trkpt><trkpt lat="41.10531764407492" lon="14.745233003983016"><ele>133.5</ele><time>2026-05-02T13:32:06Z</time></trkpt><trkpt lat="41.10512194883651" lon="14.745013895778497"><ele>135.0</ele><time>2026-05-02T13:32:07Z</time></trkpt><trkpt lat="41.10490956853774" lon="14.74480826295689"><ele>135.0</ele><time>2026-05-02T13:32:08Z</time></trkpt><trkpt lat="41.10468131303367" lon="14.744607875937906"><ele>135.0</ele><time>2026-05-02T13:32:09Z</time></trkpt><trkpt lat="41.10445761026145" lon="14.74441912115875"><ele>135.5</ele><time>2026-05-02T13:32:10Z</time></trkpt><trkpt lat="41.10422215239322" lon="14.744236696346679"><ele>136.0</ele><time>2026-05-02T13:32:11Z</time></trkpt><trkpt lat="41.10398318463412" lon="14.744058258016839"><ele>136.0</ele><time>2026-05-02T13:32:12Z</time></trkpt><trkpt lat="41.10374525462692" lon="14.743865550385117"><ele>136.0</ele><time>2026-05-02T13:32:13Z</time></trkpt><trkpt lat="41.103486581058455" lon="14.743679171156444"><ele>135.5</ele><time>2026-05-02T13:32:14Z</time></trkpt><trkpt lat="41.103232729782576" lon="14.743486001070169"><ele>135.0</ele><time>2026-05-02T13:32:15Z</time></trkpt><trkpt lat="41.10297843718231" lon="14.743288404251985"><ele>135.0</ele><time>2026-05-02T13:32:16Z</time></trkpt><trkpt lat="41.10272829502062" lon="14.743097483207073"><ele>135.0</ele><time>2026-05-02T13:32:17Z</time></trkpt><trkpt lat="41.102482465888926" lon="14.74290994706547"><ele>135.0</ele><time>2026-05-02T13:32:18Z</time></trkpt><trkpt lat="41.10223507217699" lon="14.742723562142917"><ele>135.0</ele><time>2026-05-02T13:32:19Z</time></trkpt><trkpt lat="41.10199006177278" lon="14.74254747363734"><ele>135.0</ele><time>2026-05-02T13:32:20Z</time></trkpt><trkpt lat="41.101744454572746" lon="14.742358922773697"><ele>135.0</ele><time>2026-05-02T13:32:21Z</time></trkpt><trkpt lat="41.10149372292818" lon="14.742165814859748"><ele>134.5</ele><time>2026-05-02T13:32:22Z</time></trkpt><trkpt lat="41.10124188885472" lon="14.74197782741679"><ele>134.0</ele><time>2026-05-02T13:32:23Z</time></trkpt><trkpt lat="41.100986206627745" lon="14.741798380965571"><ele>135.5</ele><time>2026-05-02T13:32:24Z</time></trkpt><trkpt lat="41.100734476940715" lon="14.74161900283276"><ele>137.0</ele><time>2026-05-02T13:32:25Z</time></trkpt><trkpt lat="41.100488941272474" lon="14.741435901778354"><ele>137.0</ele><time>2026-05-02T13:32:26Z</time></trkpt><trkpt lat="41.100246741841545" lon="14.741257123656329"><ele>137.0</ele><time>2026-05-02T13:32:27Z</time></trkpt><trkpt lat="41.100011154517276" lon="14.741074486204184"><ele>138.5</ele><time>2026-05-02T13:32:28Z</time></trkpt><trkpt lat="41.09977920525991" lon="14.74089876363521"><ele>140.0</ele><time>2026-05-02T13:32:29Z</time></trkpt><trkpt lat="41.09955776250484" lon="14.740733418411772"><ele>140.0</ele><time>2026-05-02T13:32:30Z</time></trkpt><trkpt lat="41.09935607192902" lon="14.740580685696345"><ele>140.0</ele><time>2026-05-02T13:32:31Z</time></trkpt><trkpt lat="41.09916505740174" lon="14.740440795972729"><ele>140.0</ele><time>2026-05-02T13:32:32Z</time></trkpt><trkpt lat="41.09898518647662" lon="14.740325693698727"><ele>140.0</ele><time>2026-05-02T13:32:33Z</time></trkpt><trkpt lat="41.098808790704034" lon="14.740234913957567"><ele>140.0</ele><time>2026-05-02T13:32:34Z</time></trkpt><trkpt lat="41.098653023826216" lon="14.740171287649707"><ele>140.6</ele><time>2026-05-02T13:32:35Z</time></trkpt><trkpt lat="41.098521104261785" lon="14.740119478622743"><ele>141.2</ele><time>2026-05-02T13:32:36Z</time></trkpt><trkpt lat="41.098436336490124" lon="14.740066070817537"><ele>141.8</ele><time>2026-05-02T13:32:37Z</time></trkpt><trkpt lat="41.098399037959354" lon="14.739957929491235"><ele>142.4</ele><time>2026-05-02T13:32:38Z</time></trkpt><trkpt lat="41.09830046838363" lon="14.739858411459323"><ele>143.0</ele><time>2026-05-02T13:32:40Z</time></trkpt><trkpt lat="41.098258277766334" lon="14.739791551008087"><ele>143.0</ele><time>2026-05-02T13:32:41Z</time></trkpt><trkpt lat="41.098282054046834" lon="14.739670328258272"><ele>143.0</ele><time>2026-05-02T13:32:42Z</time></trkpt><trkpt lat="41.098304896750776" lon="14.739545981601555"><ele>143.0</ele><time>2026-05-02T13:32:43Z</time></trkpt><trkpt lat="41.09833723418124" lon="14.739426614557692"><ele>143.0</ele><time>2026-05-02T13:32:44Z</time></trkpt><trkpt lat="41.098370614808026" lon="14.739309991486012"><ele>143.0</ele><time>2026-05-02T13:32:45Z</time></trkpt><trkpt lat="41.098393232551224" lon="14.73920044387969"><ele>143.83333333333331</ele><time>2026-05-02T13:32:46Z</time></trkpt><trkpt lat="41.0984114932076" lon="14.73910940740308"><ele>144.66666666666666</ele><time>2026-05-02T13:32:47Z</time></trkpt><trkpt lat="41.09843985118971" lon="14.739031773243038"><ele>145.5</ele><time>2026-05-02T13:32:48Z</time></trkpt><trkpt lat="41.09834116167068" lon="14.738919940932336"><ele>146.33333333333334</ele><time>2026-05-02T13:32:52Z</time></trkpt><trkpt lat="41.098270737872795" lon="14.73891313623579"><ele>147.16666666666669</ele><time>2026-05-02T13:32:53Z</time></trkpt><trkpt lat="41.09819491314033" lon="14.738892851411201"><ele>148.0</ele><time>2026-05-02T13:32:54Z</time></trkpt><trkpt lat="41.09809597526328" lon="14.73884967840866"><ele>148.75</ele><time>2026-05-02T13:32:55Z</time></trkpt><trkpt lat="41.0979634109578" lon="14.738776093976053"><ele>149.5</ele><time>2026-05-02T13:32:56Z</time></trkpt><trkpt lat="41.097844786945316" lon="14.738705236558207"><ele>150.25</ele><time>2026-05-02T13:32:57Z</time></trkpt><trkpt lat="41.097779247268726" lon="14.738609039376954"><ele>151.0</ele><time>2026-05-02T13:32:58Z</time></trkpt><trkpt lat="41.09773637221808" lon="14.738494770439642"><ele>152.6</ele><time>2026-05-02T13:32:59Z</time></trkpt><trkpt lat="41.09769799599578" lon="14.738384748169771"><ele>154.2</ele><time>2026-05-02T13:33:00Z</time></trkpt><trkpt lat="41.09766159159533" lon="14.738275209088556"><ele>155.8</ele><time>2026-05-02T13:33:01Z</time></trkpt><trkpt lat="41.09762570136979" lon="14.73816407591106"><ele>157.4</ele><time>2026-05-02T13:33:02Z</time></trkpt><trkpt lat="41.097584063973905" lon="14.738043501700943"><ele>159.0</ele><time>2026-05-02T13:33:03Z</time></trkpt><trkpt lat="41.09751678564898" lon="14.737847794036428"><ele>160.66666666666666</ele><time>2026-05-02T13:33:04Z</time></trkpt><trkpt lat="41.097446420708906" lon="14.73764812195898"><ele>162.33333333333331</ele><time>2026-05-02T13:33:05Z</time></trkpt><trkpt lat="41.097390513677006" lon="14.737461444490332"><ele>164.0</ele><time>2026-05-02T13:33:06Z</time></trkpt><trkpt lat="41.09732963839916" lon="14.737281649627752"><ele>165.75</ele><time>2026-05-02T13:33:07Z</time></trkpt><trkpt lat="41.097268975494664" lon="14.737108357797503"><ele>167.5</ele><time>2026-05-02T13:33:08Z</time></trkpt><trkpt lat="41.09721354487651" lon="14.736937981892524"><ele>169.25</ele><time>2026-05-02T13:33:09Z</time></trkpt><trkpt lat="41.09715940817192" lon="14.736778834916091"><ele>171.0</ele><time>2026-05-02T13:33:10Z</time></trkpt><trkpt lat="41.09710599895228" lon="14.736627996049066"><ele>173.20000000000002</ele><time>2026-05-02T13:33:11Z</time></trkpt><trkpt lat="41.09706595558765" lon="14.73651629218139"><ele>175.4</ele><time>2026-05-02T13:33:12Z</time></trkpt><trkpt lat="41.09703462729507" lon="14.736430061571504"><ele>177.6</ele><time>2026-05-02T13:33:13Z</time></trkpt><trkpt lat="41.09699473199699" lon="14.736337925195397"><ele>179.8</ele><time>2026-05-02T13:33:14Z</time></trkpt><trkpt lat="41.09693588972915" lon="14.736188755770206"><ele>182.0</ele><time>2026-05-02T13:33:15Z</time></trkpt><trkpt lat="41.09685097814427" lon="14.735986915421305"><ele>186.66666666666666</ele><time>2026-05-02T13:33:16Z</time></trkpt><trkpt lat="41.096773685940015" lon="14.735794160234432"><ele>191.33333333333331</ele><time>2026-05-02T13:33:17Z</time></trkpt><trkpt lat="41.09668724334985" lon="14.735581549113203"><ele>196.0</ele><time>2026-05-02T13:33:18Z</time></trkpt><trkpt lat="41.09659672040756" lon="14.735350631755523"><ele>201.0</ele><time>2026-05-02T13:33:19Z</time></trkpt><trkpt lat="41.09649764717628" lon="14.735128492632288"><ele>206.0</ele><time>2026-05-02T13:33:20Z</time></trkpt><trkpt lat="41.096396005521996" lon="14.734906858665205"><ele>211.0</ele><time>2026-05-02T13:33:21Z</time></trkpt><trkpt lat="41.096288605340966" lon="14.734696631212627"><ele>211.0</ele><time>2026-05-02T13:33:22Z</time></trkpt><trkpt lat="41.09618700209693" lon="14.734499498892943"><ele>211.0</ele><time>2026-05-02T13:33:23Z</time></trkpt><trkpt lat="41.09608115377495" lon="14.734281805134279"><ele>211.0</ele><time>2026-05-02T13:33:24Z</time></trkpt><trkpt lat="41.09595213495275" lon="14.734038468918374"><ele>213.33333333333331</ele><time>2026-05-02T13:33:25Z</time></trkpt><trkpt lat="41.09584724165775" lon="14.733827807276725"><ele>215.66666666666669</ele><time>2026-05-02T13:33:26Z</time></trkpt><trkpt lat="41.09574717344707" lon="14.733628543675586"><ele>218.0</ele><time>2026-05-02T13:33:27Z</time></trkpt><trkpt lat="41.09564531959992" lon="14.733409804380761"><ele>222.66666666666669</ele><time>2026-05-02T13:33:28Z</time></trkpt><trkpt lat="41.09555414763547" lon="14.733178940030184"><ele>227.33333333333331</ele><time>2026-05-02T13:33:29Z</time></trkpt><trkpt lat="41.095462598790874" lon="14.732987664611901"><ele>232.0</ele><time>2026-05-02T13:33:30Z</time></trkpt><trkpt lat="41.09534522694074" lon="14.732810800184714"><ele>235.0</ele><time>2026-05-02T13:33:31Z</time></trkpt><trkpt lat="41.095218139918266" lon="14.732642489232786"><ele>238.0</ele><time>2026-05-02T13:33:32Z</time></trkpt><trkpt lat="41.095092190139816" lon="14.73251475563756"><ele>241.0</ele><time>2026-05-02T13:33:33Z</time></trkpt><trkpt lat="41.094972765235326" lon="14.73240866487054"><ele>242.25</ele><time>2026-05-02T13:33:34Z</time></trkpt><trkpt lat="41.094864096067646" lon="14.732303202274089"><ele>243.5</ele><time>2026-05-02T13:33:35Z</time></trkpt><trkpt lat="41.09475597069132" lon="14.732186358324874"><ele>244.75</ele><time>2026-05-02T13:33:36Z</time></trkpt><trkpt lat="41.094667694838954" lon="14.732086156380953"><ele>246.0</ele><time>2026-05-02T13:33:37Z</time></trkpt><trkpt lat="41.09457864732991" lon="14.731993825238058"><ele>246.0</ele><time>2026-05-02T13:33:38Z</time></trkpt><trkpt lat="41.094485612375166" lon="14.731897845126616"><ele>246.0</ele><time>2026-05-02T13:33:39Z</time></trkpt><trkpt lat="41.0943970807202" lon="14.731804361515596"><ele>246.0</ele><time>2026-05-02T13:33:40Z</time></trkpt><trkpt lat="41.09430605076878" lon="14.731706196820566"><ele>246.0</ele><time>2026-05-02T13:33:41Z</time></trkpt><trkpt lat="41.09420398654465" lon="14.731599947842176"><ele>247.0</ele><time>2026-05-02T13:33:42Z</time></trkpt><trkpt lat="41.094092677483545" lon="14.731473439399236"><ele>248.0</ele><time>2026-05-02T13:33:43Z</time></trkpt><trkpt lat="41.09399022828776" lon="14.731346552463972"><ele>249.0</ele><time>2026-05-02T13:33:44Z</time></trkpt><trkpt lat="41.093901998417415" lon="14.731220456406634"><ele>250.0</ele><time>2026-05-02T13:33:45Z</time></trkpt><trkpt lat="41.09381179383201" lon="14.731097820287541"><ele>253.25</ele><time>2026-05-02T13:33:46Z</time></trkpt><trkpt lat="41.093714760335345" lon="14.730971833715252"><ele>256.5</ele><time>2026-05-02T13:33:47Z</time></trkpt><trkpt lat="41.0936027931434" lon="14.73084090002697"><ele>259.75</ele><time>2026-05-02T13:33:48Z</time></trkpt><trkpt lat="41.09347818540757" lon="14.730701175678648"><ele>263.0</ele><time>2026-05-02T13:33:49Z</time></trkpt><trkpt lat="41.09332653222979" lon="14.730492931744614"><ele>263.0</ele><time>2026-05-02T13:33:50Z</time></trkpt><trkpt lat="41.09315221258759" lon="14.730285761306924"><ele>263.0</ele><time>2026-05-02T13:33:51Z</time></trkpt><trkpt lat="41.09297167454979" lon="14.730096964458935"><ele>267.33333333333337</ele><time>2026-05-02T13:33:52Z</time></trkpt><trkpt lat="41.09281829680884" lon="14.72990274952237"><ele>271.6666666666667</ele><time>2026-05-02T13:33:53Z</time></trkpt><trkpt lat="41.09266447914501" lon="14.729711372134588"><ele>276.0</ele><time>2026-05-02T13:33:54Z</time></trkpt><trkpt lat="41.09250610379318" lon="14.729500899614843"><ele>280.0</ele><time>2026-05-02T13:33:55Z</time></trkpt><trkpt lat="41.092375221134795" lon="14.729319354197743"><ele>284.0</ele><time>2026-05-02T13:33:56Z</time></trkpt><trkpt lat="41.09224981364666" lon="14.729138347870414"><ele>288.0</ele><time>2026-05-02T13:33:57Z</time></trkpt><trkpt lat="41.09214149805799" lon="14.728987270326424"><ele>288.0</ele><time>2026-05-02T13:33:58Z</time></trkpt><trkpt lat="41.092059251338604" lon="14.728887024023608"><ele>288.0</ele><time>2026-05-02T13:33:59Z</time></trkpt><trkpt lat="41.092253784759755" lon="14.728650798183464"><ele>288.0</ele><time>2026-05-02T13:34:03Z</time></trkpt><trkpt lat="41.09237443423718" lon="14.728506509197242"><ele>288.0</ele><time>2026-05-02T13:34:04Z</time></trkpt><trkpt lat="41.09247106583064" lon="14.728378250557974"><ele>288.0</ele><time>2026-05-02T13:34:05Z</time></trkpt><trkpt lat="41.09256466156018" lon="14.728241510640466"><ele>288.0</ele><time>2026-05-02T13:34:06Z</time></trkpt><trkpt lat="41.09266182571545" lon="14.728104676480186"><ele>288.0</ele><time>2026-05-02T13:34:07Z</time></trkpt><trkpt lat="41.09277548060285" lon="14.727980549465348"><ele>288.0</ele><time>2026-05-02T13:34:08Z</time></trkpt><trkpt lat="41.0928956696781" lon="14.727849429443324"><ele>288.0</ele><time>2026-05-02T13:34:09Z</time></trkpt><trkpt lat="41.09301265493075" lon="14.727739649019991"><ele>288.0</ele><time>2026-05-02T13:34:10Z</time></trkpt><trkpt lat="41.093118928551526" lon="14.727630221012415"><ele>288.0</ele><time>2026-05-02T13:34:11Z</time></trkpt><trkpt lat="41.093212071854204" lon="14.727496917333365"><ele>288.5</ele><time>2026-05-02T13:34:12Z</time></trkpt><trkpt lat="41.093297057549634" lon="14.727349366461533"><ele>289.0</ele><time>2026-05-02T13:34:13Z</time></trkpt><trkpt lat="41.09335974238255" lon="14.727191479041695"><ele>289.5</ele><time>2026-05-02T13:34:14Z</time></trkpt><trkpt lat="41.09340407245431" lon="14.727057397669968"><ele>290.0</ele><time>2026-05-02T13:34:15Z</time></trkpt><trkpt lat="41.09343463669466" lon="14.726937264236375"><ele>290.83333333333337</ele><time>2026-05-02T13:34:16Z</time></trkpt><trkpt lat="41.09342618819782" lon="14.726838951875232"><ele>291.6666666666667</ele><time>2026-05-02T13:34:17Z</time></trkpt><trkpt lat="41.093430024935046" lon="14.726742710175676"><ele>292.5</ele><time>2026-05-02T13:34:18Z</time></trkpt><trkpt lat="41.09338650297111" lon="14.726640073388124"><ele>293.3333333333333</ele><time>2026-05-02T13:34:19Z</time></trkpt><trkpt lat="41.093330373480256" lon="14.72655032469064"><ele>294.16666666666663</ele><time>2026-05-02T13:34:20Z</time></trkpt><trkpt lat="41.093305596566466" lon="14.72643496692747"><ele>295.0</ele><time>2026-05-02T13:34:21Z</time></trkpt><trkpt lat="41.09326335458092" lon="14.726325461170159"><ele>295.66666666666663</ele><time>2026-05-02T13:34:22Z</time></trkpt><trkpt lat="41.09321174358078" lon="14.726221952199744"><ele>296.3333333333333</ele><time>2026-05-02T13:34:23Z</time></trkpt><trkpt lat="41.09318060367198" lon="14.726110544998908"><ele>297.0</ele><time>2026-05-02T13:34:24Z</time></trkpt><trkpt lat="41.09314567542188" lon="14.726006378704783"><ele>297.6666666666667</ele><time>2026-05-02T13:34:25Z</time></trkpt><trkpt lat="41.09311350744787" lon="14.725901967872623"><ele>298.33333333333337</ele><time>2026-05-02T13:34:26Z</time></trkpt><trkpt lat="41.093088516076364" lon="14.725810913761357"><ele>299.0</ele><time>2026-05-02T13:34:27Z</time></trkpt><trkpt lat="41.0930574740684" lon="14.725720798565836"><ele>300.2</ele><time>2026-05-02T13:34:28Z</time></trkpt><trkpt lat="41.09302488667846" lon="14.725622059432876"><ele>301.4</ele><time>2026-05-02T13:34:29Z</time></trkpt><trkpt lat="41.09297697419239" lon="14.72549333050191"><ele>302.6</ele><time>2026-05-02T13:34:30Z</time></trkpt><trkpt lat="41.09290818451918" lon="14.72534086791482"><ele>303.8</ele><time>2026-05-02T13:34:31Z</time></trkpt><trkpt lat="41.092873649036896" lon="14.725239391676624"><ele>305.0</ele><time>2026-05-02T13:34:32Z</time></trkpt><trkpt lat="41.09283996237496" lon="14.72513978303117"><ele>306.2</ele><time>2026-05-02T13:34:33Z</time></trkpt><trkpt lat="41.092800659669685" lon="14.72503082489116"><ele>307.4</ele><time>2026-05-02T13:34:34Z</time></trkpt><trkpt lat="41.092762698224966" lon="14.724920001741438"><ele>308.6</ele><time>2026-05-02T13:34:35Z</time></trkpt><trkpt lat="41.092726897555536" lon="14.724807882925756"><ele>309.8</ele><time>2026-05-02T13:34:36Z</time></trkpt><trkpt lat="41.09269755110947" lon="14.724686951698375"><ele>311.0</ele><time>2026-05-02T13:34:37Z</time></trkpt><trkpt lat="41.09266660460655" lon="14.724569207117664"><ele>311.0</ele><time>2026-05-02T13:34:38Z</time></trkpt><trkpt lat="41.0926265538097" lon="14.724448078130612"><ele>311.0</ele><time>2026-05-02T13:34:39Z</time></trkpt><trkpt lat="41.09258887489819" lon="14.724327514343901"><ele>311.0</ele><time>2026-05-02T13:34:40Z</time></trkpt><trkpt lat="41.092550102808296" lon="14.724203319601015"><ele>311.0</ele><time>2026-05-02T13:34:41Z</time></trkpt><trkpt lat="41.09251075201766" lon="14.724064122332003"><ele>311.0</ele><time>2026-05-02T13:34:42Z</time></trkpt><trkpt lat="41.09245278372462" lon="14.723919362761325"><ele>315.0</ele><time>2026-05-02T13:34:43Z</time></trkpt><trkpt lat="41.09240396190004" lon="14.723764877510595"><ele>319.0</ele><time>2026-05-02T13:34:44Z</time></trkpt><trkpt lat="41.09236731068987" lon="14.723593105215201"><ele>323.0</ele><time>2026-05-02T13:34:45Z</time></trkpt><trkpt lat="41.09233838428637" lon="14.723429754019575"><ele>327.0</ele><time>2026-05-02T13:34:46Z</time></trkpt><trkpt lat="41.09228014562815" lon="14.723295204172869"><ele>327.0</ele><time>2026-05-02T13:34:47Z</time></trkpt><trkpt lat="41.092217245382045" lon="14.723158212712132"><ele>327.0</ele><time>2026-05-02T13:34:48Z</time></trkpt><trkpt lat="41.092170347252726" lon="14.723037946018586"><ele>327.0</ele><time>2026-05-02T13:34:49Z</time></trkpt><trkpt lat="41.09212856209156" lon="14.722908585544037"><ele>327.0</ele><time>2026-05-02T13:34:50Z</time></trkpt><trkpt lat="41.09206670198472" lon="14.722781422765834"><ele>327.0</ele><time>2026-05-02T13:34:51Z</time></trkpt><trkpt lat="41.09198258475659" lon="14.72267830199085"><ele>326.6</ele><time>2026-05-02T13:34:52Z</time></trkpt><trkpt lat="41.091897744532055" lon="14.722600096279974"><ele>326.20000000000005</ele><time>2026-05-02T13:34:53Z</time></trkpt><trkpt lat="41.091821190948195" lon="14.722542078248749"><ele>325.8</ele><time>2026-05-02T13:34:54Z</time></trkpt><trkpt lat="41.09174526935664" lon="14.722467457133867"><ele>325.4</ele><time>2026-05-02T13:34:55Z</time></trkpt><trkpt lat="41.09167519870853" lon="14.722385982937725"><ele>325.0</ele><time>2026-05-02T13:34:56Z</time></trkpt><trkpt lat="41.09162527968107" lon="14.722306218970589"><ele>323.0</ele><time>2026-05-02T13:34:57Z</time></trkpt><trkpt lat="41.0915838301111" lon="14.722227954374441"><ele>321.0</ele><time>2026-05-02T13:34:58Z</time></trkpt><trkpt lat="41.09154871527805" lon="14.722151771415556"><ele>319.0</ele><time>2026-05-02T13:34:59Z</time></trkpt><trkpt lat="41.09152825318077" lon="14.722070524148842"><ele>317.0</ele><time>2026-05-02T13:35:00Z</time></trkpt><trkpt lat="41.09152787910915" lon="14.721869244039494"><ele>315.0</ele><time>2026-05-02T13:35:02Z</time></trkpt><trkpt lat="41.09155572383998" lon="14.721741036130439"><ele>314.5</ele><time>2026-05-02T13:35:03Z</time></trkpt><trkpt lat="41.091574263556076" lon="14.721610462360646"><ele>314.0</ele><time>2026-05-02T13:35:04Z</time></trkpt><trkpt lat="41.091525053486336" lon="14.721470204510316"><ele>313.5</ele><time>2026-05-02T13:35:05Z</time></trkpt><trkpt lat="41.09150525181897" lon="14.721277089254503"><ele>313.0</ele><time>2026-05-02T13:35:06Z</time></trkpt><trkpt lat="41.09147493545287" lon="14.721084186891098"><ele>313.66666666666663</ele><time>2026-05-02T13:35:07Z</time></trkpt><trkpt lat="41.09141924559395" lon="14.720894424221543"><ele>314.3333333333333</ele><time>2026-05-02T13:35:08Z</time></trkpt><trkpt lat="41.09135173743509" lon="14.720711889377505"><ele>315.0</ele><time>2026-05-02T13:35:09Z</time></trkpt><trkpt lat="41.09127852007584" lon="14.720536523437234"><ele>315.0</ele><time>2026-05-02T13:35:10Z</time></trkpt><trkpt lat="41.09121561610646" lon="14.720383349970271"><ele>315.0</ele><time>2026-05-02T13:35:11Z</time></trkpt><trkpt lat="41.09117056607502" lon="14.720215969076378"><ele>315.0</ele><time>2026-05-02T13:35:12Z</time></trkpt><trkpt lat="41.09115461041797" lon="14.720029901160975"><ele>315.0</ele><time>2026-05-02T13:35:13Z</time></trkpt><trkpt lat="41.09118420830193" lon="14.719830812524293"><ele>315.6666666666667</ele><time>2026-05-02T13:35:14Z</time></trkpt><trkpt lat="41.09124150934794" lon="14.719606588591446"><ele>316.33333333333337</ele><time>2026-05-02T13:35:15Z</time></trkpt><trkpt lat="41.09130621383583" lon="14.719392456328261"><ele>317.0</ele><time>2026-05-02T13:35:16Z</time></trkpt><trkpt lat="41.09135687974705" lon="14.719162848469452"><ele>317.0</ele><time>2026-05-02T13:35:17Z</time></trkpt><trkpt lat="41.09139535079706" lon="14.718920645788042"><ele>317.0</ele><time>2026-05-02T13:35:18Z</time></trkpt><trkpt lat="41.091425429888886" lon="14.718636455157169"><ele>317.0</ele><time>2026-05-02T13:35:19Z</time></trkpt><trkpt lat="41.09146971857331" lon="14.71830293211636"><ele>316.5</ele><time>2026-05-02T13:35:20Z</time></trkpt><trkpt lat="41.09154558876108" lon="14.717955438912817"><ele>316.0</ele><time>2026-05-02T13:35:21Z</time></trkpt><trkpt lat="41.09163574544471" lon="14.717661146104712"><ele>316.0</ele><time>2026-05-02T13:35:22Z</time></trkpt><trkpt lat="41.09174902446291" lon="14.717378221168977"><ele>316.0</ele><time>2026-05-02T13:35:23Z</time></trkpt><trkpt lat="41.091886700708436" lon="14.717057185877549"><ele>315.0</ele><time>2026-05-02T13:35:24Z</time></trkpt><trkpt lat="41.0920220267712" lon="14.716719749429641"><ele>314.0</ele><time>2026-05-02T13:35:25Z</time></trkpt><trkpt lat="41.09214871588804" lon="14.716388346382963"><ele>314.5</ele><time>2026-05-02T13:35:26Z</time></trkpt><trkpt lat="41.09228173296952" lon="14.716062957943578"><ele>315.0</ele><time>2026-05-02T13:35:27Z</time></trkpt><trkpt lat="41.09240368954175" lon="14.715760420996627"><ele>318.3333333333333</ele><time>2026-05-02T13:35:28Z</time></trkpt><trkpt lat="41.09250881356447" lon="14.715483751215215"><ele>321.66666666666663</ele><time>2026-05-02T13:35:29Z</time></trkpt><trkpt lat="41.09260545389618" lon="14.715229195114683"><ele>325.0</ele><time>2026-05-02T13:35:30Z</time></trkpt><trkpt lat="41.092686169900134" lon="14.714998669199721"><ele>326.0</ele><time>2026-05-02T13:35:31Z</time></trkpt><trkpt lat="41.09275592256224" lon="14.714769677813575"><ele>327.0</ele><time>2026-05-02T13:35:32Z</time></trkpt><trkpt lat="41.09281949615903" lon="14.714536150252314"><ele>328.0</ele><time>2026-05-02T13:35:33Z</time></trkpt><trkpt lat="41.09287700298865" lon="14.714303066288824"><ele>328.3333333333333</ele><time>2026-05-02T13:35:34Z</time></trkpt><trkpt lat="41.09293801130252" lon="14.714085696187446"><ele>328.6666666666667</ele><time>2026-05-02T13:35:35Z</time></trkpt><trkpt lat="41.093020474409336" lon="14.713896646074707"><ele>329.0</ele><time>2026-05-02T13:35:36Z</time></trkpt><trkpt lat="41.09311197991891" lon="14.713730571151798"><ele>329.0</ele><time>2026-05-02T13:35:37Z</time></trkpt><trkpt lat="41.093194382089244" lon="14.713599080848303"><ele>329.0</ele><time>2026-05-02T13:35:38Z</time></trkpt><trkpt lat="41.0932481041745" lon="14.713473681136534"><ele>329.0</ele><time>2026-05-02T13:35:39Z</time></trkpt><trkpt lat="41.09326101172418" lon="14.713354718558543"><ele>329.0</ele><time>2026-05-02T13:35:40Z</time></trkpt><trkpt lat="41.09314372033746" lon="14.713142578646053"><ele>329.79999999999995</ele><time>2026-05-02T13:35:42Z</time></trkpt><trkpt lat="41.09312708593327" lon="14.713007285499035"><ele>330.59999999999997</ele><time>2026-05-02T13:35:43Z</time></trkpt><trkpt lat="41.09313952900742" lon="14.712839669458672"><ele>331.4</ele><time>2026-05-02T13:35:44Z</time></trkpt><trkpt lat="41.09315390059686" lon="14.712706289075587"><ele>332.2</ele><time>2026-05-02T13:35:45Z</time></trkpt><trkpt lat="41.09317366106673" lon="14.712599428887469"><ele>333.0</ele><time>2026-05-02T13:35:46Z</time></trkpt><trkpt lat="41.093187098494965" lon="14.712501277118834"><ele>333.8333333333333</ele><time>2026-05-02T13:35:47Z</time></trkpt><trkpt lat="41.09319159920553" lon="14.712399702781614"><ele>334.6666666666667</ele><time>2026-05-02T13:35:48Z</time></trkpt><trkpt lat="41.09319474786735" lon="14.712277724274497"><ele>335.5</ele><time>2026-05-02T13:35:49Z</time></trkpt><trkpt lat="41.093192062789974" lon="14.712155955274286"><ele>336.33333333333337</ele><time>2026-05-02T13:35:50Z</time></trkpt><trkpt lat="41.093193016843095" lon="14.712031250770444"><ele>337.1666666666667</ele><time>2026-05-02T13:35:51Z</time></trkpt><trkpt lat="41.093190453635714" lon="14.711914913236559"><ele>338.0</ele><time>2026-05-02T13:35:52Z</time></trkpt><trkpt lat="41.09318344517693" lon="14.711819078139122"><ele>339.33333333333337</ele><time>2026-05-02T13:35:53Z</time></trkpt><trkpt lat="41.093169472513075" lon="14.711722784768417"><ele>340.6666666666667</ele><time>2026-05-02T13:35:54Z</time></trkpt><trkpt lat="41.09313646092301" lon="14.711605818804678"><ele>342.0</ele><time>2026-05-02T13:35:55Z</time></trkpt><trkpt lat="41.09309375011155" lon="14.711487499484765"><ele>343.3333333333333</ele><time>2026-05-02T13:35:56Z</time></trkpt><trkpt lat="41.09303948696096" lon="14.71138647842836"><ele>344.66666666666663</ele><time>2026-05-02T13:35:57Z</time></trkpt><trkpt lat="41.09298638767725" lon="14.711301080661"><ele>346.0</ele><time>2026-05-02T13:35:58Z</time></trkpt><trkpt lat="41.09293422860783" lon="14.711219462264664"><ele>346.0</ele><time>2026-05-02T13:35:59Z</time></trkpt><trkpt lat="41.092881533187274" lon="14.71114531710651"><ele>346.0</ele><time>2026-05-02T13:36:00Z</time></trkpt><trkpt lat="41.092831497954634" lon="14.711075278933357"><ele>346.0</ele><time>2026-05-02T13:36:01Z</time></trkpt><trkpt lat="41.092771295752364" lon="14.711006896697366"><ele>346.0</ele><time>2026-05-02T13:36:02Z</time></trkpt><trkpt lat="41.092696729207276" lon="14.710955827483314"><ele>346.0</ele><time>2026-05-02T13:36:03Z</time></trkpt><trkpt lat="41.092623402560044" lon="14.710927839991749"><ele>346.0</ele><time>2026-05-02T13:36:04Z</time></trkpt><trkpt lat="41.0924929867939" lon="14.710925004321663"><ele>346.16666666666663</ele><time>2026-05-02T13:36:06Z</time></trkpt><trkpt lat="41.09241107254733" lon="14.710926065922786"><ele>346.3333333333333</ele><time>2026-05-02T13:36:07Z</time></trkpt><trkpt lat="41.09232364193501" lon="14.710933740394783"><ele>346.5</ele><time>2026-05-02T13:36:08Z</time></trkpt><trkpt lat="41.09222672020251" lon="14.710930238083689"><ele>346.6666666666667</ele><time>2026-05-02T13:36:09Z</time></trkpt><trkpt lat="41.092145610089666" lon="14.710895839879765"><ele>346.83333333333337</ele><time>2026-05-02T13:36:10Z</time></trkpt><trkpt lat="41.09209831662838" lon="14.710822671987371"><ele>347.0</ele><time>2026-05-02T13:36:11Z</time></trkpt><trkpt lat="41.09207316215693" lon="14.710709021578813"><ele>347.0</ele><time>2026-05-02T13:36:12Z</time></trkpt><trkpt lat="41.092068128634146" lon="14.710590055543584"><ele>347.0</ele><time>2026-05-02T13:36:13Z</time></trkpt><trkpt lat="41.09207759993217" lon="14.71047346324439"><ele>347.0</ele><time>2026-05-02T13:36:14Z</time></trkpt><trkpt lat="41.09208184548173" lon="14.710362403165691"><ele>347.0</ele><time>2026-05-02T13:36:15Z</time></trkpt><trkpt lat="41.09208919981704" lon="14.710243906821054"><ele>347.0</ele><time>2026-05-02T13:36:16Z</time></trkpt><trkpt lat="41.092101273720814" lon="14.710103344796279"><ele>347.33333333333337</ele><time>2026-05-02T13:36:17Z</time></trkpt><trkpt lat="41.09213135423077" lon="14.70997131472318"><ele>347.6666666666667</ele><time>2026-05-02T13:36:18Z</time></trkpt><trkpt lat="41.09215895327241" lon="14.709871456827003"><ele>348.0</ele><time>2026-05-02T13:36:19Z</time></trkpt><trkpt lat="41.09219530221038" lon="14.709775699955491"><ele>348.3333333333333</ele><time>2026-05-02T13:36:20Z</time></trkpt><trkpt lat="41.09222818483781" lon="14.709681841169234"><ele>348.66666666666663</ele><time>2026-05-02T13:36:21Z</time></trkpt><trkpt lat="41.092249417660334" lon="14.70958496566362"><ele>349.0</ele><time>2026-05-02T13:36:22Z</time></trkpt><trkpt lat="41.09224719869369" lon="14.709500006947481"><ele>349.0</ele><time>2026-05-02T13:36:23Z</time></trkpt><trkpt lat="41.09225260139963" lon="14.709412772474646"><ele>349.0</ele><time>2026-05-02T13:36:24Z</time></trkpt><trkpt lat="41.09225619772441" lon="14.709310509075815"><ele>349.0</ele><time>2026-05-02T13:36:25Z</time></trkpt><trkpt lat="41.092249033596715" lon="14.70919741018387"><ele>349.0</ele><time>2026-05-02T13:36:26Z</time></trkpt><trkpt lat="41.092250474823814" lon="14.709084148809488"><ele>349.0</ele><time>2026-05-02T13:36:27Z</time></trkpt><trkpt lat="41.09226002306319" lon="14.708975112055306"><ele>349.0</ele><time>2026-05-02T13:36:28Z</time></trkpt><trkpt lat="41.09228100462095" lon="14.708864411896252"><ele>349.3333333333333</ele><time>2026-05-02T13:36:29Z</time></trkpt><trkpt lat="41.09231184313476" lon="14.708747883555656"><ele>349.66666666666663</ele><time>2026-05-02T13:36:30Z</time></trkpt><trkpt lat="41.09234384083023" lon="14.70864873690937"><ele>350.0</ele><time>2026-05-02T13:36:31Z</time></trkpt><trkpt lat="41.09237892452835" lon="14.708547533978363"><ele>350.3333333333333</ele><time>2026-05-02T13:36:32Z</time></trkpt><trkpt lat="41.09241490174226" lon="14.708438633438703"><ele>350.6666666666667</ele><time>2026-05-02T13:36:33Z</time></trkpt><trkpt lat="41.0924420957062" lon="14.70835169165851"><ele>351.0</ele><time>2026-05-02T13:36:34Z</time></trkpt><trkpt lat="41.092456121459364" lon="14.708254613283744"><ele>352.8333333333333</ele><time>2026-05-02T13:36:35Z</time></trkpt><trkpt lat="41.0924845730587" lon="14.708149396179952"><ele>354.6666666666667</ele><time>2026-05-02T13:36:36Z</time></trkpt><trkpt lat="41.09249080757698" lon="14.708035409310293"><ele>356.5</ele><time>2026-05-02T13:36:37Z</time></trkpt><trkpt lat="41.092476181101134" lon="14.70792925314296"><ele>358.33333333333337</ele><time>2026-05-02T13:36:38Z</time></trkpt><trkpt lat="41.092461242622974" lon="14.707825465448366"><ele>360.1666666666667</ele><time>2026-05-02T13:36:39Z</time></trkpt><trkpt lat="41.092446493822806" lon="14.707730768962541"><ele>362.0</ele><time>2026-05-02T13:36:40Z</time></trkpt><trkpt lat="41.0924193116712" lon="14.707585382669713"><ele>363.6</ele><time>2026-05-02T13:36:42Z</time></trkpt><trkpt lat="41.09244034384758" lon="14.707459229850159"><ele>365.20000000000005</ele><time>2026-05-02T13:36:44Z</time></trkpt><trkpt lat="41.092502829056016" lon="14.707370900445417"><ele>366.8</ele><time>2026-05-02T13:36:46Z</time></trkpt><trkpt lat="41.09256027093773" lon="14.707261358255682"><ele>368.4</ele><time>2026-05-02T13:36:48Z</time></trkpt><trkpt lat="41.092596388788174" lon="14.707120182680574"><ele>370.0</ele><time>2026-05-02T13:36:50Z</time></trkpt><trkpt lat="41.092594855561245" lon="14.706970945180768"><ele>369.66666666666663</ele><time>2026-05-02T13:36:52Z</time></trkpt><trkpt lat="41.09258220123949" lon="14.706879965814025"><ele>369.3333333333333</ele><time>2026-05-02T13:36:53Z</time></trkpt><trkpt lat="41.0925588583585" lon="14.706776896048941"><ele>369.0</ele><time>2026-05-02T13:36:54Z</time></trkpt><trkpt lat="41.09250571994013" lon="14.706686483332609"><ele>368.6666666666667</ele><time>2026-05-02T13:36:55Z</time></trkpt><trkpt lat="41.092443717197256" lon="14.706596078612783"><ele>368.33333333333337</ele><time>2026-05-02T13:36:56Z</time></trkpt><trkpt lat="41.09237339891962" lon="14.706506602797964"><ele>368.0</ele><time>2026-05-02T13:36:57Z</time></trkpt><trkpt lat="41.09230575587813" lon="14.706408244011152"><ele>368.0</ele><time>2026-05-02T13:36:58Z</time></trkpt><trkpt lat="41.09223841142336" lon="14.70631697403093"><ele>368.0</ele><time>2026-05-02T13:36:59Z</time></trkpt><trkpt lat="41.092172586590266" lon="14.70623989729057"><ele>368.0</ele><time>2026-05-02T13:37:00Z</time></trkpt><trkpt lat="41.092099400597675" lon="14.706173849757601"><ele>368.0</ele><time>2026-05-02T13:37:01Z</time></trkpt><trkpt lat="41.09203050516583" lon="14.70610480198525"><ele>368.0</ele><time>2026-05-02T13:37:02Z</time></trkpt><trkpt lat="41.09197850593405" lon="14.706037500548542"><ele>368.0</ele><time>2026-05-02T13:37:03Z</time></trkpt><trkpt lat="41.09192801824263" lon="14.705967475158621"><ele>368.6666666666667</ele><time>2026-05-02T13:37:04Z</time></trkpt><trkpt lat="41.09188980310381" lon="14.705880559692638"><ele>369.33333333333337</ele><time>2026-05-02T13:37:05Z</time></trkpt><trkpt lat="41.091856660017775" lon="14.705783044502903"><ele>370.0</ele><time>2026-05-02T13:37:06Z</time></trkpt><trkpt lat="41.091844782837775" lon="14.705688132389993"><ele>370.6666666666667</ele><time>2026-05-02T13:37:07Z</time></trkpt><trkpt lat="41.09185295157234" lon="14.705515620838064"><ele>371.3333333333333</ele><time>2026-05-02T13:37:09Z</time></trkpt><trkpt lat="41.091874183529605" lon="14.70541538720097"><ele>372.0</ele><time>2026-05-02T13:37:10Z</time></trkpt><trkpt lat="41.09190205416514" lon="14.705327791279009"><ele>372.00000000000006</ele><time>2026-05-02T13:37:11Z</time></trkpt><trkpt lat="41.091952116552456" lon="14.70525892132733"><ele>372.0</ele><time>2026-05-02T13:37:12Z</time></trkpt><trkpt lat="41.09198690427177" lon="14.70518699182785"><ele>372.0</ele><time>2026-05-02T13:37:13Z</time></trkpt><trkpt lat="41.09201226330466" lon="14.705108228141924"><ele>372.0</ele><time>2026-05-02T13:37:14Z</time></trkpt><trkpt lat="41.09205112561504" lon="14.705032309247585"><ele>372.0</ele><time>2026-05-02T13:37:15Z</time></trkpt><trkpt lat="41.092090835035954" lon="14.704948165248735"><ele>372.00000000000006</ele><time>2026-05-02T13:37:16Z</time></trkpt><trkpt lat="41.09212903654141" lon="14.704874348286856"><ele>372.0</ele><time>2026-05-02T13:37:17Z</time></trkpt><trkpt lat="41.09218323762806" lon="14.704789980530572"><ele>371.8333333333333</ele><time>2026-05-02T13:37:19Z</time></trkpt><trkpt lat="41.09225076652422" lon="14.704772653744602"><ele>371.6666666666667</ele><time>2026-05-02T13:37:21Z</time></trkpt><trkpt lat="41.09237183407247" lon="14.704755695809773"><ele>371.5</ele><time>2026-05-02T13:37:22Z</time></trkpt><trkpt lat="41.092458746652845" lon="14.704744319362861"><ele>371.33333333333337</ele><time>2026-05-02T13:37:23Z</time></trkpt><trkpt lat="41.09254969561241" lon="14.704714466895744"><ele>371.1666666666667</ele><time>2026-05-02T13:37:24Z</time></trkpt><trkpt lat="41.09260611511196" lon="14.704664499897197"><ele>371.0</ele><time>2026-05-02T13:37:25Z</time></trkpt><trkpt lat="41.09264625525629" lon="14.704525385929141"><ele>374.8</ele><time>2026-05-02T13:37:27Z</time></trkpt><trkpt lat="41.09262317074823" lon="14.704404918693104"><ele>378.6</ele><time>2026-05-02T13:37:28Z</time></trkpt><trkpt lat="41.09261548935634" lon="14.704276901959386"><ele>382.4</ele><time>2026-05-02T13:37:29Z</time></trkpt><trkpt lat="41.09264121067179" lon="14.704146942975415"><ele>386.2</ele><time>2026-05-02T13:37:30Z</time></trkpt><trkpt lat="41.09268044662466" lon="14.704002312218723"><ele>390.0</ele><time>2026-05-02T13:37:31Z</time></trkpt><trkpt lat="41.09271681121617" lon="14.703844305633513"><ele>390.0</ele><time>2026-05-02T13:37:32Z</time></trkpt><trkpt lat="41.09274550789063" lon="14.703670834761871"><ele>390.0</ele><time>2026-05-02T13:37:33Z</time></trkpt><trkpt lat="41.09275038109643" lon="14.703475129952295"><ele>390.0</ele><time>2026-05-02T13:37:34.001Z</time></trkpt><trkpt lat="41.092725639927004" lon="14.703303035335692"><ele>390.0</ele><time>2026-05-02T13:37:35.001Z</time></trkpt><trkpt lat="41.09267045804023" lon="14.703142395951774"><ele>390.25</ele><time>2026-05-02T13:37:36.001Z</time></trkpt><trkpt lat="41.092592829079756" lon="14.702980417501738"><ele>390.5</ele><time>2026-05-02T13:37:37.001Z</time></trkpt><trkpt lat="41.09251897142601" lon="14.702794676188148"><ele>390.75</ele><time>2026-05-02T13:37:38.001Z</time></trkpt><trkpt lat="41.092470788000945" lon="14.702639580641867"><ele>391.0</ele><time>2026-05-02T13:37:39.001Z</time></trkpt><trkpt lat="41.0924387343976" lon="14.70249530582796"><ele>388.0</ele><time>2026-05-02T13:37:40.001Z</time></trkpt><trkpt lat="41.09238893806136" lon="14.702372684046992"><ele>385.0</ele><time>2026-05-02T13:37:41.001Z</time></trkpt><trkpt lat="41.09230277329515" lon="14.702268013942575"><ele>382.0</ele><time>2026-05-02T13:37:42.001Z</time></trkpt><trkpt lat="41.09223376374253" lon="14.702180056617312"><ele>379.0</ele><time>2026-05-02T13:37:43.001Z</time></trkpt><trkpt lat="41.09218091718596" lon="14.702127466490554"><ele>376.0</ele><time>2026-05-02T13:37:44.001Z</time></trkpt><trkpt lat="41.09210992310761" lon="14.702060532320544"><ele>381.0</ele><time>2026-05-02T13:37:46.001Z</time></trkpt><trkpt lat="41.09176088339192" lon="14.701667001650678"><ele>381.0</ele><time>2026-05-02T13:37:48.001Z</time></trkpt><trkpt lat="41.09168813775256" lon="14.701591147305066"><ele>381.0</ele><time>2026-05-02T13:37:49Z</time></trkpt><trkpt lat="41.09157778680286" lon="14.70153009705984"><ele>381.0</ele><time>2026-05-02T13:37:50Z</time></trkpt><trkpt lat="41.091478112157525" lon="14.70147793198703"><ele>381.0</ele><time>2026-05-02T13:37:51Z</time></trkpt><trkpt lat="41.091385819431665" lon="14.701467682431351"><ele>381.0</ele><time>2026-05-02T13:37:52Z</time></trkpt><trkpt lat="41.09131709734643" lon="14.701430073185715"><ele>380.75</ele><time>2026-05-02T13:37:53Z</time></trkpt><trkpt lat="41.0912488786188" lon="14.701373798070552"><ele>380.5</ele><time>2026-05-02T13:37:55Z</time></trkpt><trkpt lat="41.091322146392756" lon="14.701155965058238"><ele>380.25</ele><time>2026-05-02T13:37:56Z</time></trkpt><trkpt lat="41.09133718960172" lon="14.70101116468403"><ele>380.0</ele><time>2026-05-02T13:37:57Z</time></trkpt><trkpt lat="41.09138101708143" lon="14.700824810069111"><ele>380.0</ele><time>2026-05-02T13:37:58Z</time></trkpt><trkpt lat="41.09143262810996" lon="14.70065489692411"><ele>380.0</ele><time>2026-05-02T13:37:59Z</time></trkpt><trkpt lat="41.09148745242761" lon="14.7004748029323"><ele>380.0</ele><time>2026-05-02T13:38:00Z</time></trkpt><trkpt lat="41.0915392934641" lon="14.700279101647583"><ele>380.0</ele><time>2026-05-02T13:38:01Z</time></trkpt><trkpt lat="41.091623574182556" lon="14.700079201347835"><ele>382.5</ele><time>2026-05-02T13:38:02Z</time></trkpt><trkpt lat="41.091716684741556" lon="14.699846778286807"><ele>385.0</ele><time>2026-05-02T13:38:03Z</time></trkpt><trkpt lat="41.091788458247684" lon="14.699691906478998"><ele>387.5</ele><time>2026-05-02T13:38:04Z</time></trkpt><trkpt lat="41.09183849742346" lon="14.699578187228042"><ele>390.0</ele><time>2026-05-02T13:38:05Z</time></trkpt><trkpt lat="41.09187404551538" lon="14.6994909278478"><ele>390.0</ele><time>2026-05-02T13:38:06Z</time></trkpt><trkpt lat="41.09186053865559" lon="14.699392208589675"><ele>390.0</ele><time>2026-05-02T13:38:08Z</time></trkpt><trkpt lat="41.09178635045928" lon="14.699422466105212"><ele>390.0</ele><time>2026-05-02T13:38:11Z</time></trkpt><trkpt lat="41.091630763065375" lon="14.699289633896463"><ele>390.0</ele><time>2026-05-02T13:38:13Z</time></trkpt><trkpt lat="41.091553689477564" lon="14.699208385466207"><ele>390.0</ele><time>2026-05-02T13:38:14Z</time></trkpt><trkpt lat="41.091484871775755" lon="14.699147379360777"><ele>391.4</ele><time>2026-05-02T13:38:15Z</time></trkpt><trkpt lat="41.091433951310854" lon="14.699065014192428"><ele>392.8</ele><time>2026-05-02T13:38:16Z</time></trkpt><trkpt lat="41.09139717604754" lon="14.69893628007868"><ele>394.20000000000005</ele><time>2026-05-02T13:38:18Z</time></trkpt><trkpt lat="41.09136359119363" lon="14.698780308829566"><ele>395.6</ele><time>2026-05-02T13:38:20Z</time></trkpt><trkpt lat="41.09138438880541" lon="14.698699019931627"><ele>397.0</ele><time>2026-05-02T13:38:21Z</time></trkpt><trkpt lat="41.09141724891812" lon="14.69853480954478"><ele>399.6</ele><time>2026-05-02T13:38:23Z</time></trkpt><trkpt lat="41.09145009714523" lon="14.698413003354782"><ele>402.20000000000005</ele><time>2026-05-02T13:38:24Z</time></trkpt><trkpt lat="41.09146626042516" lon="14.698331596836441"><ele>404.8</ele><time>2026-05-02T13:38:25Z</time></trkpt><trkpt lat="41.09134169111756" lon="14.698316923930658"><ele>407.4</ele><time>2026-05-02T13:38:34Z</time></trkpt><trkpt lat="41.09125305043039" lon="14.698334465996219"><ele>410.0</ele><time>2026-05-02T13:38:35Z</time></trkpt><trkpt lat="41.09116604287804" lon="14.698319961240902"><ele>409.99999999999994</ele><time>2026-05-02T13:38:36Z</time></trkpt><trkpt lat="41.09109211980195" lon="14.698291937867872"><ele>410.0</ele><time>2026-05-02T13:38:37Z</time></trkpt><trkpt lat="41.0910132210851" lon="14.698277915271342"><ele>410.0</ele><time>2026-05-02T13:38:38Z</time></trkpt><trkpt lat="41.0909107542915" lon="14.698274529264394"><ele>410.0</ele><time>2026-05-02T13:38:39Z</time></trkpt><trkpt lat="41.090807236291226" lon="14.69830612447793"><ele>409.99999999999994</ele><time>2026-05-02T13:38:40Z</time></trkpt><trkpt lat="41.09074147156231" lon="14.698320558678544"><ele>410.0</ele><time>2026-05-02T13:38:41Z</time></trkpt><trkpt lat="41.09065247046885" lon="14.698360564707453"><ele>408.8333333333333</ele><time>2026-05-02T13:38:42Z</time></trkpt><trkpt lat="41.09057161719955" lon="14.698412271807666"><ele>407.66666666666663</ele><time>2026-05-02T13:38:43Z</time></trkpt><trkpt lat="41.09048582404869" lon="14.698465013636934"><ele>406.5</ele><time>2026-05-02T13:38:44Z</time></trkpt><trkpt lat="41.09040601181074" lon="14.69851576529652"><ele>405.33333333333337</ele><time>2026-05-02T13:38:45Z</time></trkpt><trkpt lat="41.09033919006693" lon="14.698561983162445"><ele>404.1666666666667</ele><time>2026-05-02T13:38:46Z</time></trkpt><trkpt lat="41.09027990228896" lon="14.698625549230055"><ele>403.0</ele><time>2026-05-02T13:38:48Z</time></trkpt><trkpt lat="41.09035255115338" lon="14.698557152742776"><ele>403.0</ele><time>2026-05-02T13:38:52Z</time></trkpt><trkpt lat="41.09033029436432" lon="14.698669860283077"><ele>403.0</ele><time>2026-05-02T13:38:53Z</time></trkpt><trkpt lat="41.09039837914555" lon="14.698847501361707"><ele>403.0</ele><time>2026-05-02T13:38:54Z</time></trkpt><trkpt lat="41.09055194507139" lon="14.698348725800379"><ele>403.0</ele><time>2026-05-02T13:38:55Z</time></trkpt><trkpt lat="41.09065206495494" lon="14.698327793134084"><ele>403.0</ele><time>2026-05-02T13:38:56Z</time></trkpt><trkpt lat="41.09075005169844" lon="14.698276189914711"><ele>403.0</ele><time>2026-05-02T13:38:57Z</time></trkpt><trkpt lat="41.09086026908225" lon="14.698277831876938"><ele>403.0</ele><time>2026-05-02T13:38:58Z</time></trkpt><trkpt lat="41.09095676838954" lon="14.698274207959116"><ele>403.0</ele><time>2026-05-02T13:38:59Z</time></trkpt><trkpt lat="41.09104340857801" lon="14.698293311472634"><ele>404.4</ele><time>2026-05-02T13:39:00Z</time></trkpt><trkpt lat="41.091128433881416" lon="14.698263038707122"><ele>405.79999999999995</ele><time>2026-05-02T13:39:01Z</time></trkpt><trkpt lat="41.09123223150976" lon="14.698249249799298"><ele>407.2</ele><time>2026-05-02T13:39:02Z</time></trkpt><trkpt lat="41.091329900848486" lon="14.698284731878072"><ele>408.6</ele><time>2026-05-02T13:39:03Z</time></trkpt><trkpt lat="41.09144810026587" lon="14.698286798224517"><ele>410.0</ele><time>2026-05-02T13:39:05Z</time></trkpt><trkpt lat="41.09151867885733" lon="14.69823861823832"><ele>411.49999999999994</ele><time>2026-05-02T13:39:06Z</time></trkpt><trkpt lat="41.091600325626466" lon="14.698186664799344"><ele>413.0</ele><time>2026-05-02T13:39:07Z</time></trkpt><trkpt lat="41.09168047246647" lon="14.698234901228139"><ele>414.5</ele><time>2026-05-02T13:39:08Z</time></trkpt><trkpt lat="41.09174613270146" lon="14.698236453608052"><ele>416.0</ele><time>2026-05-02T13:39:09Z</time></trkpt><trkpt lat="41.091817763251946" lon="14.69824569688325"><ele>417.49999999999994</ele><time>2026-05-02T13:39:10Z</time></trkpt><trkpt lat="41.091746455365374" lon="14.698235979171809"><ele>419.0</ele><time>2026-05-02T13:39:15Z</time></trkpt><trkpt lat="41.09163917437507" lon="14.698233924833966"><ele>416.0</ele><time>2026-05-02T13:39:16Z</time></trkpt><trkpt lat="41.09156664049994" lon="14.698004226306356"><ele>413.0</ele><time>2026-05-02T13:39:17Z</time></trkpt><trkpt lat="41.09145661479259" lon="14.6979135876093"><ele>410.0</ele><time>2026-05-02T13:39:18Z</time></trkpt><trkpt lat="41.09133038142974" lon="14.69780699047171"><ele>414.25</ele><time>2026-05-02T13:39:19Z</time></trkpt><trkpt lat="41.09121281352098" lon="14.697715113808064"><ele>418.5</ele><time>2026-05-02T13:39:20Z</time></trkpt><trkpt lat="41.0910892184026" lon="14.697616456942164"><ele>422.75</ele><time>2026-05-02T13:39:21Z</time></trkpt><trkpt lat="41.09096598550529" lon="14.697506594441583"><ele>427.0</ele><time>2026-05-02T13:39:22Z</time></trkpt><trkpt lat="41.09083514549341" lon="14.697387850216765"><ele>426.25</ele><time>2026-05-02T13:39:23Z</time></trkpt><trkpt lat="41.09070307637165" lon="14.69726454946412"><ele>425.5</ele><time>2026-05-02T13:39:24Z</time></trkpt><trkpt lat="41.09057714929335" lon="14.697138729318034"><ele>424.75</ele><time>2026-05-02T13:39:25Z</time></trkpt><trkpt lat="41.090474109684195" lon="14.697034154090321"><ele>424.0</ele><time>2026-05-02T13:39:26Z</time></trkpt><trkpt lat="41.09037143270291" lon="14.696973893638166"><ele>425.79999999999995</ele><time>2026-05-02T13:39:27Z</time></trkpt><trkpt lat="41.09026420029621" lon="14.696904078938102"><ele>427.59999999999997</ele><time>2026-05-02T13:39:28Z</time></trkpt><trkpt lat="41.09016176323337" lon="14.69682649141802"><ele>429.4</ele><time>2026-05-02T13:39:29Z</time></trkpt><trkpt lat="41.09009021742812" lon="14.696724511596027"><ele>431.2</ele><time>2026-05-02T13:39:30Z</time></trkpt><trkpt lat="41.090054429411474" lon="14.696612989066162"><ele>433.0</ele><time>2026-05-02T13:39:31Z</time></trkpt><trkpt lat="41.090044274421906" lon="14.696465426301321"><ele>433.0</ele><time>2026-05-02T13:39:32Z</time></trkpt><trkpt lat="41.090059017052056" lon="14.696297714746745"><ele>433.0</ele><time>2026-05-02T13:39:33Z</time></trkpt><trkpt lat="41.090105054299514" lon="14.696119986395928"><ele>433.0</ele><time>2026-05-02T13:39:34Z</time></trkpt><trkpt lat="41.09017465524063" lon="14.695930078798607"><ele>433.0</ele><time>2026-05-02T13:39:35Z</time></trkpt><trkpt lat="41.090259345714905" lon="14.695734628868072"><ele>432.6666666666667</ele><time>2026-05-02T13:39:36Z</time></trkpt><trkpt lat="41.09030913952013" lon="14.695538443775341"><ele>432.33333333333337</ele><time>2026-05-02T13:39:37Z</time></trkpt><trkpt lat="41.09030627125872" lon="14.695329339441644"><ele>432.0</ele><time>2026-05-02T13:39:38Z</time></trkpt><trkpt lat="41.090266724578235" lon="14.695091000872244"><ele>434.0</ele><time>2026-05-02T13:39:39Z</time></trkpt><trkpt lat="41.09022114941448" lon="14.694820923540888"><ele>436.0</ele><time>2026-05-02T13:39:40Z</time></trkpt><trkpt lat="41.09015720773175" lon="14.69455600428816"><ele>438.0</ele><time>2026-05-02T13:39:41Z</time></trkpt><trkpt lat="41.09010148248681" lon="14.694311987705875"><ele>440.66666666666663</ele><time>2026-05-02T13:39:42Z</time></trkpt><trkpt lat="41.09004303553161" lon="14.694057821708538"><ele>443.3333333333333</ele><time>2026-05-02T13:39:43Z</time></trkpt><trkpt lat="41.089964941696806" lon="14.693806357488915"><ele>446.0</ele><time>2026-05-02T13:39:44Z</time></trkpt><trkpt lat="41.089862073816974" lon="14.69356478170946"><ele>446.0</ele><time>2026-05-02T13:39:45Z</time></trkpt><trkpt lat="41.08973518120543" lon="14.69333814653939"><ele>446.0</ele><time>2026-05-02T13:39:46Z</time></trkpt><trkpt lat="41.08958257719876" lon="14.693113606897702"><ele>446.0</ele><time>2026-05-02T13:39:47Z</time></trkpt><trkpt lat="41.08944332167916" lon="14.692906112130412"><ele>447.0</ele><time>2026-05-02T13:39:48Z</time></trkpt><trkpt lat="41.08932705951628" lon="14.692713235816202"><ele>448.0</ele><time>2026-05-02T13:39:49Z</time></trkpt><trkpt lat="41.08921402582837" lon="14.692515229838612"><ele>449.0</ele><time>2026-05-02T13:39:50Z</time></trkpt><trkpt lat="41.08912390205502" lon="14.692273411069264"><ele>450.0</ele><time>2026-05-02T13:39:51Z</time></trkpt><trkpt lat="41.089004575949055" lon="14.69201084102481"><ele>451.0</ele><time>2026-05-02T13:39:52Z</time></trkpt><trkpt lat="41.08889642834877" lon="14.691708292449354"><ele>451.0</ele><time>2026-05-02T13:39:53Z</time></trkpt><trkpt lat="41.088784540001576" lon="14.691433150604611"><ele>451.0</ele><time>2026-05-02T13:39:54Z</time></trkpt><trkpt lat="41.08868244816501" lon="14.69119727844799"><ele>451.0</ele><time>2026-05-02T13:39:55Z</time></trkpt><trkpt lat="41.088584469840455" lon="14.69095660317789"><ele>447.33333333333337</ele><time>2026-05-02T13:39:56Z</time></trkpt><trkpt lat="41.08849273457266" lon="14.690719315337324"><ele>443.66666666666663</ele><time>2026-05-02T13:39:57Z</time></trkpt><trkpt lat="41.0884362535494" lon="14.69047587161141"><ele>440.0</ele><time>2026-05-02T13:39:58Z</time></trkpt><trkpt lat="41.0884270500308" lon="14.690210373289014"><ele>438.0</ele><time>2026-05-02T13:39:59Z</time></trkpt><trkpt lat="41.088403372116694" lon="14.689928933075384"><ele>436.0</ele><time>2026-05-02T13:40:00Z</time></trkpt><trkpt lat="41.08841326731335" lon="14.689634297515044"><ele>434.0</ele><time>2026-05-02T13:40:01Z</time></trkpt><trkpt lat="41.088410674744416" lon="14.689353653616717"><ele>432.66666666666663</ele><time>2026-05-02T13:40:02Z</time></trkpt><trkpt lat="41.08840868946002" lon="14.689110368464318"><ele>431.33333333333337</ele><time>2026-05-02T13:40:03Z</time></trkpt><trkpt lat="41.088447368529" lon="14.688887816617012"><ele>430.0</ele><time>2026-05-02T13:40:04Z</time></trkpt><trkpt lat="41.088485876761155" lon="14.688673256680003"><ele>430.0</ele><time>2026-05-02T13:40:05Z</time></trkpt><trkpt lat="41.08859881906113" lon="14.688469157276902"><ele>430.0</ele><time>2026-05-02T13:40:06Z</time></trkpt><trkpt lat="41.08870946292041" lon="14.688222232662074"><ele>430.0</ele><time>2026-05-02T13:40:07Z</time></trkpt><trkpt lat="41.08881410777822" lon="14.687968598259657"><ele>429.0</ele><time>2026-05-02T13:40:08Z</time></trkpt><trkpt lat="41.088877875129775" lon="14.687688078226289"><ele>428.0</ele><time>2026-05-02T13:40:09Z</time></trkpt><trkpt lat="41.08894365383967" lon="14.68739273272522"><ele>428.0</ele><time>2026-05-02T13:40:10Z</time></trkpt><trkpt lat="41.088979413573696" lon="14.687107536194095"><ele>428.0</ele><time>2026-05-02T13:40:11Z</time></trkpt><trkpt lat="41.08900635928444" lon="14.68685949303477"><ele>428.0</ele><time>2026-05-02T13:40:12Z</time></trkpt><trkpt lat="41.08901154121055" lon="14.686615712072472"><ele>427.0</ele><time>2026-05-02T13:40:13Z</time></trkpt><trkpt lat="41.088957902076395" lon="14.68636499950562"><ele>426.0</ele><time>2026-05-02T13:40:14Z</time></trkpt><trkpt lat="41.088861205515876" lon="14.686120612830091"><ele>425.0</ele><time>2026-05-02T13:40:15Z</time></trkpt><trkpt lat="41.088759960585676" lon="14.685851778681059"><ele>430.0</ele><time>2026-05-02T13:40:16Z</time></trkpt><trkpt lat="41.08861166974356" lon="14.68558772244372"><ele>435.0</ele><time>2026-05-02T13:40:17Z</time></trkpt><trkpt lat="41.08847233431303" lon="14.685321659066993"><ele>432.33333333333337</ele><time>2026-05-02T13:40:18Z</time></trkpt><trkpt lat="41.08834599457922" lon="14.685099351659279"><ele>429.6666666666667</ele><time>2026-05-02T13:40:19Z</time></trkpt><trkpt lat="41.08824264848861" lon="14.684897162153977"><ele>427.0</ele><time>2026-05-02T13:40:20Z</time></trkpt><trkpt lat="41.08817002009119" lon="14.684701435045481"><ele>427.0</ele><time>2026-05-02T13:40:21Z</time></trkpt><trkpt lat="41.088151066440304" lon="14.684503987407734"><ele>427.0</ele><time>2026-05-02T13:40:22Z</time></trkpt><trkpt lat="41.08820434830745" lon="14.684320355161221"><ele>427.0</ele><time>2026-05-02T13:40:23Z</time></trkpt><trkpt lat="41.08829713814509" lon="14.684185426817473"><ele>427.0</ele><time>2026-05-02T13:40:24Z</time></trkpt><trkpt lat="41.08841677715554" lon="14.684046347807538"><ele>432.6666666666667</ele><time>2026-05-02T13:40:25Z</time></trkpt><trkpt lat="41.08858637436416" lon="14.683888250462116"><ele>438.33333333333337</ele><time>2026-05-02T13:40:26Z</time></trkpt><trkpt lat="41.08876499329174" lon="14.68369562359806"><ele>444.0</ele><time>2026-05-02T13:40:27Z</time></trkpt><trkpt lat="41.08894552139675" lon="14.683518658174957"><ele>448.33333333333337</ele><time>2026-05-02T13:40:28Z</time></trkpt><trkpt lat="41.08910199437542" lon="14.683322538449552"><ele>452.6666666666667</ele><time>2026-05-02T13:40:29Z</time></trkpt><trkpt lat="41.08924091844956" lon="14.683081536346956"><ele>457.0</ele><time>2026-05-02T13:40:30Z</time></trkpt><trkpt lat="41.08935538470338" lon="14.682800432831295"><ele>453.5</ele><time>2026-05-02T13:40:31Z</time></trkpt><trkpt lat="41.08947347162472" lon="14.682485665965665"><ele>450.0</ele><time>2026-05-02T13:40:32Z</time></trkpt><trkpt lat="41.089599017837166" lon="14.682165358324298"><ele>449.5</ele><time>2026-05-02T13:40:33Z</time></trkpt><trkpt lat="41.089722025053774" lon="14.681862036792054"><ele>449.0</ele><time>2026-05-02T13:40:34Z</time></trkpt><trkpt lat="41.089847698801485" lon="14.681562004335651"><ele>452.0</ele><time>2026-05-02T13:40:35Z</time></trkpt><trkpt lat="41.089964412660315" lon="14.681275322815633"><ele>455.0</ele><time>2026-05-02T13:40:36Z</time></trkpt><trkpt lat="41.0900631038675" lon="14.681029010277117"><ele>457.0</ele><time>2026-05-02T13:40:37Z</time></trkpt><trkpt lat="41.09014261211517" lon="14.680803768370925"><ele>459.0</ele><time>2026-05-02T13:40:38Z</time></trkpt><trkpt lat="41.090187690148404" lon="14.680574291533235"><ele>461.0</ele><time>2026-05-02T13:40:39Z</time></trkpt><trkpt lat="41.09017488895997" lon="14.680347064596596"><ele>463.0</ele><time>2026-05-02T13:40:40Z</time></trkpt><trkpt lat="41.09012662659905" lon="14.680093611129013"><ele>465.0</ele><time>2026-05-02T13:40:41Z</time></trkpt><trkpt lat="41.0900695288673" lon="14.679845584372087"><ele>467.0</ele><time>2026-05-02T13:40:42Z</time></trkpt><trkpt lat="41.09000385385581" lon="14.67960272541418"><ele>466.0</ele><time>2026-05-02T13:40:43Z</time></trkpt><trkpt lat="41.08992004815117" lon="14.679351972895216"><ele>465.0</ele><time>2026-05-02T13:40:44Z</time></trkpt><trkpt lat="41.08981877876173" lon="14.679125185666967"><ele>464.0</ele><time>2026-05-02T13:40:45Z</time></trkpt><trkpt lat="41.08973250217957" lon="14.678932936219578"><ele>464.0</ele><time>2026-05-02T13:40:46Z</time></trkpt><trkpt lat="41.089688365925355" lon="14.678757954569418"><ele>464.0</ele><time>2026-05-02T13:40:47Z</time></trkpt><trkpt lat="41.08968041883332" lon="14.678587720774233"><ele>464.0</ele><time>2026-05-02T13:40:48Z</time></trkpt><trkpt lat="41.08971660717624" lon="14.678406024147879"><ele>464.0</ele><time>2026-05-02T13:40:49Z</time></trkpt><trkpt lat="41.0897873650745" lon="14.678211500421508"><ele>465.66666666666663</ele><time>2026-05-02T13:40:50Z</time></trkpt><trkpt lat="41.08989668348437" lon="14.678049403474553"><ele>467.33333333333337</ele><time>2026-05-02T13:40:51Z</time></trkpt><trkpt lat="41.0900332118348" lon="14.677890305681935"><ele>469.0</ele><time>2026-05-02T13:40:52Z</time></trkpt><trkpt lat="41.09015808497462" lon="14.677734684526685"><ele>474.6666666666667</ele><time>2026-05-02T13:40:53Z</time></trkpt><trkpt lat="41.090277581068364" lon="14.677578831906986"><ele>480.33333333333337</ele><time>2026-05-02T13:40:54Z</time></trkpt><trkpt lat="41.09037149728045" lon="14.67739098126846"><ele>486.0</ele><time>2026-05-02T13:40:55Z</time></trkpt><trkpt lat="41.09043482500929" lon="14.677225793465412"><ele>486.0</ele><time>2026-05-02T13:40:56Z</time></trkpt><trkpt lat="41.09048138392592" lon="14.677091547184592"><ele>486.0</ele><time>2026-05-02T13:40:57Z</time></trkpt><trkpt lat="41.09053274333492" lon="14.676964550078024"><ele>486.0</ele><time>2026-05-02T13:40:58Z</time></trkpt><trkpt lat="41.090473375212206" lon="14.676776177428232"><ele>486.0</ele><time>2026-05-02T13:41:00Z</time></trkpt><trkpt lat="41.09043892921896" lon="14.676634414861201"><ele>487.75</ele><time>2026-05-02T13:41:01Z</time></trkpt><trkpt lat="41.090436667021194" lon="14.676459804645084"><ele>489.5</ele><time>2026-05-02T13:41:02Z</time></trkpt><trkpt lat="41.09045345780629" lon="14.67627061438229"><ele>491.25</ele><time>2026-05-02T13:41:03Z</time></trkpt><trkpt lat="41.09045211165428" lon="14.67606855964847"><ele>493.0</ele><time>2026-05-02T13:41:04Z</time></trkpt><trkpt lat="41.0904317831243" lon="14.67588175810923"><ele>495.25</ele><time>2026-05-02T13:41:05Z</time></trkpt><trkpt lat="41.090396395604984" lon="14.675705584725"><ele>497.5</ele><time>2026-05-02T13:41:06Z</time></trkpt><trkpt lat="41.0902887675979" lon="14.675619172015736"><ele>499.75</ele><time>2026-05-02T13:41:07Z</time></trkpt><trkpt lat="41.09022177304408" lon="14.675506279934238"><ele>502.0</ele><time>2026-05-02T13:41:08Z</time></trkpt><trkpt lat="41.09015620638216" lon="14.675387307812194"><ele>504.6666666666667</ele><time>2026-05-02T13:41:09Z</time></trkpt><trkpt lat="41.090331965150604" lon="14.67501997026404"><ele>507.33333333333337</ele><time>2026-05-02T13:41:10Z</time></trkpt><trkpt lat="41.09033156908604" lon="14.674881890475772"><ele>510.0</ele><time>2026-05-02T13:41:11Z</time></trkpt><trkpt lat="41.090342032358826" lon="14.674734850802869"><ele>510.0</ele><time>2026-05-02T13:41:12Z</time></trkpt><trkpt lat="41.0903719997218" lon="14.674600823891943"><ele>510.0</ele><time>2026-05-02T13:41:13Z</time></trkpt><trkpt lat="41.09040234801911" lon="14.674495693579486"><ele>510.0</ele><time>2026-05-02T13:41:14Z</time></trkpt><trkpt lat="41.090454808677066" lon="14.674395482611839"><ele>510.0</ele><time>2026-05-02T13:41:15Z</time></trkpt><trkpt lat="41.09052286918023" lon="14.674294159481715"><ele>510.0</ele><time>2026-05-02T13:41:16Z</time></trkpt><trkpt lat="41.090639980073874" lon="14.674177811363696"><ele>511.75</ele><time>2026-05-02T13:41:17Z</time></trkpt><trkpt lat="41.09075120576169" lon="14.67403128846098"><ele>513.5</ele><time>2026-05-02T13:41:18Z</time></trkpt><trkpt lat="41.09085691864639" lon="14.673902307348191"><ele>515.25</ele><time>2026-05-02T13:41:19Z</time></trkpt><trkpt lat="41.09094084192246" lon="14.67378024425272"><ele>517.0</ele><time>2026-05-02T13:41:20Z</time></trkpt><trkpt lat="41.091005709149066" lon="14.673669648411027"><ele>520.0</ele><time>2026-05-02T13:41:21Z</time></trkpt><trkpt lat="41.09105679787481" lon="14.673533191955793"><ele>523.0</ele><time>2026-05-02T13:41:22Z</time></trkpt><trkpt lat="41.091098055077744" lon="14.673384940984164"><ele>526.0</ele><time>2026-05-02T13:41:23Z</time></trkpt><trkpt lat="41.09112395764859" lon="14.673260746608923"><ele>529.0</ele><time>2026-05-02T13:41:24Z</time></trkpt><trkpt lat="41.09115255671888" lon="14.673170666360594"><ele>532.0</ele><time>2026-05-02T13:41:25Z</time></trkpt><trkpt lat="41.091159876244134" lon="14.673029242690173"><ele>532.0</ele><time>2026-05-02T13:41:27Z</time></trkpt><trkpt lat="41.09115030959207" lon="14.672898150755385"><ele>532.0</ele><time>2026-05-02T13:41:28Z</time></trkpt><trkpt lat="41.091147006971774" lon="14.672730577476164"><ele>532.0</ele><time>2026-05-02T13:41:29Z</time></trkpt><trkpt lat="41.0911573927259" lon="14.672561384152582"><ele>532.0</ele><time>2026-05-02T13:41:30Z</time></trkpt><trkpt lat="41.091176159529844" lon="14.672355558790958"><ele>534.25</ele><time>2026-05-02T13:41:31Z</time></trkpt><trkpt lat="41.09119592363194" lon="14.672174254130946"><ele>536.5</ele><time>2026-05-02T13:41:32Z</time></trkpt><trkpt lat="41.09119553853713" lon="14.672027786928284"><ele>538.75</ele><time>2026-05-02T13:41:33Z</time></trkpt><trkpt lat="41.091196772266386" lon="14.671912896048301"><ele>541.0</ele><time>2026-05-02T13:41:34Z</time></trkpt><trkpt lat="41.09106920259535" lon="14.67175844632989"><ele>543.75</ele><time>2026-05-02T13:41:38Z</time></trkpt><trkpt lat="41.09094630376536" lon="14.671675081994222"><ele>546.5</ele><time>2026-05-02T13:41:39Z</time></trkpt><trkpt lat="41.09083746652698" lon="14.671592448234971"><ele>549.25</ele><time>2026-05-02T13:41:40Z</time></trkpt><trkpt lat="41.09071207523915" lon="14.67150117296855"><ele>552.0</ele><time>2026-05-02T13:41:41Z</time></trkpt><trkpt lat="41.0905822943219" lon="14.671391029759434"><ele>552.0</ele><time>2026-05-02T13:41:42Z</time></trkpt><trkpt lat="41.090461643196655" lon="14.671269467336588"><ele>552.0</ele><time>2026-05-02T13:41:43Z</time></trkpt><trkpt lat="41.09035209596137" lon="14.671107690095038"><ele>552.0</ele><time>2026-05-02T13:41:44Z</time></trkpt><trkpt lat="41.09026276616174" lon="14.67093966628389"><ele>555.0</ele><time>2026-05-02T13:41:45Z</time></trkpt><trkpt lat="41.090167579254135" lon="14.670791602158122"><ele>558.0</ele><time>2026-05-02T13:41:46Z</time></trkpt><trkpt lat="41.09008461474103" lon="14.67068248654067"><ele>561.0</ele><time>2026-05-02T13:41:47Z</time></trkpt><trkpt lat="41.09001635301018" lon="14.670545705759578"><ele>564.0</ele><time>2026-05-02T13:41:48Z</time></trkpt><trkpt lat="41.089993702107925" lon="14.670389131787259"><ele>566.75</ele><time>2026-05-02T13:41:49Z</time></trkpt><trkpt lat="41.09002111411327" lon="14.670245401577185"><ele>569.5</ele><time>2026-05-02T13:41:50Z</time></trkpt><trkpt lat="41.090088492181856" lon="14.670118148795826"><ele>572.25</ele><time>2026-05-02T13:41:51Z</time></trkpt><trkpt lat="41.09020154236397" lon="14.670059697396793"><ele>575.0</ele><time>2026-05-02T13:41:52Z</time></trkpt><trkpt lat="41.09033245387048" lon="14.670055092433987"><ele>575.0</ele><time>2026-05-02T13:41:53Z</time></trkpt><trkpt lat="41.09049936756991" lon="14.670085919074944"><ele>575.0</ele><time>2026-05-02T13:41:54Z</time></trkpt><trkpt lat="41.09070720082278" lon="14.670138182426028"><ele>575.0</ele><time>2026-05-02T13:41:55Z</time></trkpt><trkpt lat="41.09090141580119" lon="14.670167274629836"><ele>575.0</ele><time>2026-05-02T13:41:56Z</time></trkpt><trkpt lat="41.0910762998281" lon="14.670196087428849"><ele>575.0</ele><time>2026-05-02T13:41:57Z</time></trkpt><trkpt lat="41.09122639109928" lon="14.670201783962716"><ele>575.0</ele><time>2026-05-02T13:41:58Z</time></trkpt><trkpt lat="41.09137460157467" lon="14.670171718953142"><ele>575.0</ele><time>2026-05-02T13:41:59Z</time></trkpt><trkpt lat="41.09151535469333" lon="14.670124094187052"><ele>575.0</ele><time>2026-05-02T13:42:00Z</time></trkpt><trkpt lat="41.09165168128672" lon="14.670021827733507"><ele>575.0</ele><time>2026-05-02T13:42:01Z</time></trkpt><trkpt lat="41.09175282843585" lon="14.66991853316082"><ele>575.0</ele><time>2026-05-02T13:42:02Z</time></trkpt><trkpt lat="41.091816693059016" lon="14.669798159363966"><ele>575.75</ele><time>2026-05-02T13:42:03Z</time></trkpt><trkpt lat="41.09183866411669" lon="14.669636945936018"><ele>576.5</ele><time>2026-05-02T13:42:04Z</time></trkpt><trkpt lat="41.09183823760878" lon="14.66945598236666"><ele>577.25</ele><time>2026-05-02T13:42:05Z</time></trkpt><trkpt lat="41.091771780845875" lon="14.669292752052614"><ele>578.0</ele><time>2026-05-02T13:42:06Z</time></trkpt><trkpt lat="41.091699410270515" lon="14.669191004299707"><ele>580.75</ele><time>2026-05-02T13:42:07Z</time></trkpt><trkpt lat="41.09160952470458" lon="14.669096371349498"><ele>583.5</ele><time>2026-05-02T13:42:08Z</time></trkpt><trkpt lat="41.09149233003153" lon="14.669084440846515"><ele>586.25</ele><time>2026-05-02T13:42:09Z</time></trkpt><trkpt lat="41.091346143231505" lon="14.669076063811588"><ele>589.0</ele><time>2026-05-02T13:42:10Z</time></trkpt><trkpt lat="41.0911642695281" lon="14.66910560257835"><ele>589.0</ele><time>2026-05-02T13:42:11Z</time></trkpt><trkpt lat="41.090987425545286" lon="14.669106662853418"><ele>589.0</ele><time>2026-05-02T13:42:12Z</time></trkpt><trkpt lat="41.09086013635937" lon="14.669079745600056"><ele>589.0</ele><time>2026-05-02T13:42:13Z</time></trkpt><trkpt lat="41.09077617362599" lon="14.669016673690312"><ele>589.0</ele><time>2026-05-02T13:42:14Z</time></trkpt><trkpt lat="41.09073375045489" lon="14.668912950749798"><ele>589.0</ele><time>2026-05-02T13:42:15Z</time></trkpt><trkpt lat="41.090747113100996" lon="14.668809545141936"><ele>589.0</ele><time>2026-05-02T13:42:16Z</time></trkpt><trkpt lat="41.09079236533223" lon="14.66871283567543"><ele>589.0</ele><time>2026-05-02T13:42:17Z</time></trkpt><trkpt lat="41.09086026532316" lon="14.668633117696094"><ele>589.0</ele><time>2026-05-02T13:42:18Z</time></trkpt><trkpt lat="41.09095824473184" lon="14.668576590381074"><ele>589.0</ele><time>2026-05-02T13:42:19Z</time></trkpt><trkpt lat="41.091087748046725" lon="14.668508764273836"><ele>594.6666666666667</ele><time>2026-05-02T13:42:20Z</time></trkpt><trkpt lat="41.09122596672498" lon="14.668427105023463"><ele>600.3333333333334</ele><time>2026-05-02T13:42:21Z</time></trkpt><trkpt lat="41.09136980920445" lon="14.66834153490579"><ele>606.0</ele><time>2026-05-02T13:42:22Z</time></trkpt><trkpt lat="41.09152211006978" lon="14.66825975395421"><ele>605.3333333333334</ele><time>2026-05-02T13:42:23Z</time></trkpt><trkpt lat="41.09169023945404" lon="14.668164533817125"><ele>604.6666666666667</ele><time>2026-05-02T13:42:24Z</time></trkpt><trkpt lat="41.09187102305437" lon="14.668079185362828"><ele>604.0</ele><time>2026-05-02T13:42:25Z</time></trkpt><trkpt lat="41.092005933949444" lon="14.667998323388591"><ele>604.0</ele><time>2026-05-02T13:42:26Z</time></trkpt><trkpt lat="41.09210671737247" lon="14.667903743472163"><ele>604.0</ele><time>2026-05-02T13:42:27Z</time></trkpt><trkpt lat="41.09216366549824" lon="14.66777925896497"><ele>604.0</ele><time>2026-05-02T13:42:28Z</time></trkpt><trkpt lat="41.09217557662876" lon="14.66761496843635"><ele>604.0</ele><time>2026-05-02T13:42:29Z</time></trkpt><trkpt lat="41.09211411884205" lon="14.66744891225387"><ele>609.0</ele><time>2026-05-02T13:42:30Z</time></trkpt><trkpt lat="41.092043588503245" lon="14.667245982954114"><ele>614.0</ele><time>2026-05-02T13:42:31Z</time></trkpt><trkpt lat="41.09194559443203" lon="14.667051221428496"><ele>619.0</ele><time>2026-05-02T13:42:32Z</time></trkpt><trkpt lat="41.09184876788917" lon="14.666834406714392"><ele>620.25</ele><time>2026-05-02T13:42:33Z</time></trkpt><trkpt lat="41.09178835328003" lon="14.666652556070773"><ele>621.5</ele><time>2026-05-02T13:42:34Z</time></trkpt><trkpt lat="41.09178453461593" lon="14.666471111198849"><ele>622.75</ele><time>2026-05-02T13:42:35Z</time></trkpt><trkpt lat="41.09186226300482" lon="14.666287562314034"><ele>624.0</ele><time>2026-05-02T13:42:36Z</time></trkpt><trkpt lat="41.091948026193286" lon="14.6660766472071"><ele>625.5</ele><time>2026-05-02T13:42:37Z</time></trkpt><trkpt lat="41.092036142966336" lon="14.665897300131602"><ele>627.0</ele><time>2026-05-02T13:42:38Z</time></trkpt><trkpt lat="41.092080211609094" lon="14.665746297822814"><ele>628.5</ele><time>2026-05-02T13:42:39Z</time></trkpt><trkpt lat="41.092110983428434" lon="14.665598832379024"><ele>630.0</ele><time>2026-05-02T13:42:40Z</time></trkpt><trkpt lat="41.09210788511941" lon="14.66544292453524"><ele>625.6666666666666</ele><time>2026-05-02T13:42:41Z</time></trkpt><trkpt lat="41.09210129574752" lon="14.665253427587519"><ele>621.3333333333333</ele><time>2026-05-02T13:42:42Z</time></trkpt><trkpt lat="41.09209946155344" lon="14.66500062324483"><ele>617.0</ele><time>2026-05-02T13:42:43Z</time></trkpt><trkpt lat="41.09210556672342" lon="14.664740622380856"><ele>617.0</ele><time>2026-05-02T13:42:44Z</time></trkpt><trkpt lat="41.09209504639643" lon="14.664479554595054"><ele>617.0</ele><time>2026-05-02T13:42:45Z</time></trkpt><trkpt lat="41.09208733531904" lon="14.664221228071252"><ele>617.0</ele><time>2026-05-02T13:42:46Z</time></trkpt><trkpt lat="41.092071520956566" lon="14.663938598344423"><ele>615.3333333333333</ele><time>2026-05-02T13:42:47Z</time></trkpt><trkpt lat="41.09205305632815" lon="14.663647327468635"><ele>613.6666666666666</ele><time>2026-05-02T13:42:48Z</time></trkpt><trkpt lat="41.09204310822211" lon="14.663354938944881"><ele>612.0</ele><time>2026-05-02T13:42:49Z</time></trkpt><trkpt lat="41.09203251974242" lon="14.663058117524518"><ele>610.0</ele><time>2026-05-02T13:42:50Z</time></trkpt><trkpt lat="41.09201235916021" lon="14.66275483260224"><ele>608.0</ele><time>2026-05-02T13:42:51Z</time></trkpt><trkpt lat="41.091997325631425" lon="14.662462414884198"><ele>608.0</ele><time>2026-05-02T13:42:52Z</time></trkpt><trkpt lat="41.09197453906945" lon="14.662190006236145"><ele>608.0</ele><time>2026-05-02T13:42:53Z</time></trkpt><trkpt lat="41.09193636883032" lon="14.661938925335505"><ele>608.0</ele><time>2026-05-02T13:42:54Z</time></trkpt><trkpt lat="41.09186237711613" lon="14.661706883812007"><ele>608.3333333333333</ele><time>2026-05-02T13:42:55Z</time></trkpt><trkpt lat="41.091748277901004" lon="14.661479292956106"><ele>608.6666666666666</ele><time>2026-05-02T13:42:56Z</time></trkpt><trkpt lat="41.091630777308545" lon="14.66128062840281"><ele>609.0</ele><time>2026-05-02T13:42:57Z</time></trkpt><trkpt lat="41.091520331990026" lon="14.661084156181856"><ele>605.3333333333334</ele><time>2026-05-02T13:42:58Z</time></trkpt><trkpt lat="41.09141167371386" lon="14.660882944428092"><ele>601.6666666666667</ele><time>2026-05-02T13:42:59Z</time></trkpt><trkpt lat="41.09130031724983" lon="14.66067742035513"><ele>598.0</ele><time>2026-05-02T13:43:00Z</time></trkpt><trkpt lat="41.09118665882484" lon="14.660475677860465"><ele>599.6666666666667</ele><time>2026-05-02T13:43:01Z</time></trkpt><trkpt lat="41.09108070800169" lon="14.660281494508045"><ele>601.3333333333334</ele><time>2026-05-02T13:43:02Z</time></trkpt><trkpt lat="41.09098131504803" lon="14.660094852103686"><ele>603.0</ele><time>2026-05-02T13:43:03Z</time></trkpt><trkpt lat="41.09088918232334" lon="14.65991088186682"><ele>603.0</ele><time>2026-05-02T13:43:04Z</time></trkpt><trkpt lat="41.090797210965306" lon="14.659745916947358"><ele>603.0</ele><time>2026-05-02T13:43:05Z</time></trkpt><trkpt lat="41.09070872691118" lon="14.659572924180676"><ele>603.0</ele><time>2026-05-02T13:43:06Z</time></trkpt><trkpt lat="41.09062100029513" lon="14.65938620222033"><ele>602.6666666666666</ele><time>2026-05-02T13:43:07Z</time></trkpt><trkpt lat="41.090534440770476" lon="14.659189543357174"><ele>602.3333333333333</ele><time>2026-05-02T13:43:08Z</time></trkpt><trkpt lat="41.0904417429368" lon="14.65899666465123"><ele>602.0</ele><time>2026-05-02T13:43:09Z</time></trkpt><trkpt lat="41.090340900910114" lon="14.658801562888717"><ele>600.6666666666666</ele><time>2026-05-02T13:43:10Z</time></trkpt><trkpt lat="41.09024919236503" lon="14.658601254139379"><ele>599.3333333333334</ele><time>2026-05-02T13:43:11Z</time></trkpt><trkpt lat="41.09014911107848" lon="14.658387876307014"><ele>598.0</ele><time>2026-05-02T13:43:12Z</time></trkpt><trkpt lat="41.090059267636256" lon="14.658170826359072"><ele>598.0</ele><time>2026-05-02T13:43:13Z</time></trkpt><trkpt lat="41.08997504968642" lon="14.657939124556167"><ele>598.0</ele><time>2026-05-02T13:43:14Z</time></trkpt><trkpt lat="41.08989728605662" lon="14.657703475643784"><ele>598.0</ele><time>2026-05-02T13:43:15Z</time></trkpt><trkpt lat="41.08983303475469" lon="14.657489991806095"><ele>593.0</ele><time>2026-05-02T13:43:16Z</time></trkpt><trkpt lat="41.08976947894559" lon="14.657275348719033"><ele>588.0</ele><time>2026-05-02T13:43:17Z</time></trkpt><trkpt lat="41.089710882750644" lon="14.657070975973499"><ele>583.0</ele><time>2026-05-02T13:43:18Z</time></trkpt><trkpt lat="41.08966266275813" lon="14.656865516917495"><ele>583.0</ele><time>2026-05-02T13:43:19Z</time></trkpt><trkpt lat="41.0896118409837" lon="14.656679580346044"><ele>583.0</ele><time>2026-05-02T13:43:20Z</time></trkpt><trkpt lat="41.08953429448427" lon="14.656520870632104"><ele>583.0</ele><time>2026-05-02T13:43:21Z</time></trkpt><trkpt lat="41.08942530190089" lon="14.656410986896788"><ele>583.0</ele><time>2026-05-02T13:43:22Z</time></trkpt><trkpt lat="41.08927824272125" lon="14.656358839426058"><ele>583.0</ele><time>2026-05-02T13:43:23Z</time></trkpt><trkpt lat="41.08910267773372" lon="14.65634539253715"><ele>583.0</ele><time>2026-05-02T13:43:24Z</time></trkpt><trkpt lat="41.08890987432324" lon="14.656370148235313"><ele>583.0</ele><time>2026-05-02T13:43:25Z</time></trkpt><trkpt lat="41.088678739724486" lon="14.656383169265624"><ele>576.0</ele><time>2026-05-02T13:43:26Z</time></trkpt><trkpt lat="41.08840329793913" lon="14.656379745781553"><ele>569.0</ele><time>2026-05-02T13:43:27Z</time></trkpt><trkpt lat="41.08812107716713" lon="14.65637353961553"><ele>566.3333333333333</ele><time>2026-05-02T13:43:28Z</time></trkpt><trkpt lat="41.0878846245304" lon="14.656364398291704"><ele>563.6666666666666</ele><time>2026-05-02T13:43:29Z</time></trkpt><trkpt lat="41.0876765643309" lon="14.656362579900817"><ele>561.0</ele><time>2026-05-02T13:43:30Z</time></trkpt><trkpt lat="41.08747355695963" lon="14.656360852611021"><ele>558.3333333333334</ele><time>2026-05-02T13:43:31Z</time></trkpt><trkpt lat="41.08730400049948" lon="14.656350034862953"><ele>555.6666666666667</ele><time>2026-05-02T13:43:32Z</time></trkpt><trkpt lat="41.08713469502531" lon="14.65631875622981"><ele>553.0</ele><time>2026-05-02T13:43:33Z</time></trkpt><trkpt lat="41.08697254126214" lon="14.656260328429711"><ele>553.0</ele><time>2026-05-02T13:43:34Z</time></trkpt><trkpt lat="41.08680732236814" lon="14.656172131129448"><ele>553.0</ele><time>2026-05-02T13:43:35Z</time></trkpt><trkpt lat="41.08663308429425" lon="14.656077907072946"><ele>553.0</ele><time>2026-05-02T13:43:36Z</time></trkpt><trkpt lat="41.08647338370379" lon="14.655980316748368"><ele>551.75</ele><time>2026-05-02T13:43:37Z</time></trkpt><trkpt lat="41.08632759323568" lon="14.655900893571836"><ele>550.5</ele><time>2026-05-02T13:43:38Z</time></trkpt><trkpt lat="41.086191448404364" lon="14.655829734362761"><ele>549.25</ele><time>2026-05-02T13:43:39Z</time></trkpt><trkpt lat="41.086084439720835" lon="14.65577771513817"><ele>548.0</ele><time>2026-05-02T13:43:40Z</time></trkpt><trkpt lat="41.085992326581504" lon="14.655719230946342"><ele>548.0</ele><time>2026-05-02T13:43:41Z</time></trkpt><trkpt lat="41.085909016346484" lon="14.655658885665034"><ele>548.0</ele><time>2026-05-02T13:43:42Z</time></trkpt><trkpt lat="41.085822091436775" lon="14.655623521707541"><ele>548.0</ele><time>2026-05-02T13:43:43Z</time></trkpt><trkpt lat="41.08577855344092" lon="14.655545274958307"><ele>548.0</ele><time>2026-05-02T13:43:44Z</time></trkpt><trkpt lat="41.08572320239145" lon="14.655449996204052"><ele>548.0</ele><time>2026-05-02T13:43:46Z</time></trkpt><trkpt lat="41.08590049508755" lon="14.655308626708193"><ele>547.25</ele><time>2026-05-02T13:43:48Z</time></trkpt><trkpt lat="41.0860147368294" lon="14.655223215670436"><ele>546.5</ele><time>2026-05-02T13:43:49Z</time></trkpt><trkpt lat="41.08613046952834" lon="14.655102438416007"><ele>545.75</ele><time>2026-05-02T13:43:50Z</time></trkpt><trkpt lat="41.086256666911446" lon="14.654981381073066"><ele>545.0</ele><time>2026-05-02T13:43:51Z</time></trkpt><trkpt lat="41.08639703294153" lon="14.654796684823822"><ele>545.0</ele><time>2026-05-02T13:43:52Z</time></trkpt><trkpt lat="41.08654978419961" lon="14.654597329378523"><ele>545.0</ele><time>2026-05-02T13:43:53Z</time></trkpt><trkpt lat="41.086692855771325" lon="14.6544085401722"><ele>545.0</ele><time>2026-05-02T13:43:54Z</time></trkpt><trkpt lat="41.08684700587952" lon="14.654204342854037"><ele>545.3333333333333</ele><time>2026-05-02T13:43:55Z</time></trkpt><trkpt lat="41.08696785788147" lon="14.654028425850385"><ele>545.6666666666666</ele><time>2026-05-02T13:43:56Z</time></trkpt><trkpt lat="41.087074454890605" lon="14.653867545754883"><ele>546.0</ele><time>2026-05-02T13:43:57Z</time></trkpt><trkpt lat="41.087151526235985" lon="14.65374279708362"><ele>546.0</ele><time>2026-05-02T13:43:58Z</time></trkpt><trkpt lat="41.08721618381525" lon="14.653640603132747"><ele>546.0</ele><time>2026-05-02T13:43:59Z</time></trkpt><trkpt lat="41.0872694330838" lon="14.653569806422707"><ele>546.0</ele><time>2026-05-02T13:44:00Z</time></trkpt><trkpt lat="41.087202812212816" lon="14.653368345658057"><ele>546.0</ele><time>2026-05-02T13:44:04Z</time></trkpt><trkpt lat="41.08712326148075" lon="14.653302968380117"><ele>546.0</ele><time>2026-05-02T13:44:05Z</time></trkpt><trkpt lat="41.08703259013663" lon="14.65324242232955"><ele>544.8</ele><time>2026-05-02T13:44:06Z</time></trkpt><trkpt lat="41.086949298705264" lon="14.653150588166561"><ele>543.6</ele><time>2026-05-02T13:44:07Z</time></trkpt><trkpt lat="41.08688158746664" lon="14.653049310075303"><ele>542.4</ele><time>2026-05-02T13:44:08Z</time></trkpt><trkpt lat="41.08682483191553" lon="14.65292646052214"><ele>541.2</ele><time>2026-05-02T13:44:09Z</time></trkpt><trkpt lat="41.08674251685819" lon="14.652834435358553"><ele>540.0</ele><time>2026-05-02T13:44:10Z</time></trkpt><trkpt lat="41.086667062313374" lon="14.652741290346158"><ele>536.8</ele><time>2026-05-02T13:44:11Z</time></trkpt><trkpt lat="41.08657666364982" lon="14.65266055720861"><ele>533.6</ele><time>2026-05-02T13:44:12Z</time></trkpt><trkpt lat="41.08648782928349" lon="14.652581305447937"><ele>530.4</ele><time>2026-05-02T13:44:13Z</time></trkpt><trkpt lat="41.08645031517802" lon="14.652464322225404"><ele>527.2</ele><time>2026-05-02T13:44:14Z</time></trkpt><trkpt lat="41.08641835600865" lon="14.652324063449083"><ele>524.0</ele><time>2026-05-02T13:44:15Z</time></trkpt><trkpt lat="41.086368581627745" lon="14.652134985416568"><ele>524.0</ele><time>2026-05-02T13:44:16Z</time></trkpt><trkpt lat="41.08635990420529" lon="14.651986952270505"><ele>524.0</ele><time>2026-05-02T13:44:17Z</time></trkpt><trkpt lat="41.08635860287533" lon="14.651831680702601"><ele>524.0</ele><time>2026-05-02T13:44:18Z</time></trkpt><trkpt lat="41.08636780281051" lon="14.65169886878643"><ele>524.0</ele><time>2026-05-02T13:44:19Z</time></trkpt><trkpt lat="41.086384817294" lon="14.651579769542442"><ele>524.0</ele><time>2026-05-02T13:44:20Z</time></trkpt><trkpt lat="41.086418376733185" lon="14.651462895690612"><ele>524.0</ele><time>2026-05-02T13:44:21Z</time></trkpt><trkpt lat="41.08646572111098" lon="14.651341532633243"><ele>524.0</ele><time>2026-05-02T13:44:22Z</time></trkpt><trkpt lat="41.0865041978802" lon="14.65125656607662"><ele>524.0</ele><time>2026-05-02T13:44:23Z</time></trkpt><trkpt lat="41.08655751515128" lon="14.651198371961897"><ele>524.0</ele><time>2026-05-02T13:44:24Z</time></trkpt><trkpt lat="41.086637705076505" lon="14.651137955307835"><ele>524.0</ele><time>2026-05-02T13:44:25Z</time></trkpt><trkpt lat="41.08674223620521" lon="14.65104612461964"><ele>523.8</ele><time>2026-05-02T13:44:26Z</time></trkpt><trkpt lat="41.086838757874" lon="14.650983934242072"><ele>523.5999999999999</ele><time>2026-05-02T13:44:27Z</time></trkpt><trkpt lat="41.08692696138539" lon="14.65091368214648"><ele>523.4</ele><time>2026-05-02T13:44:28Z</time></trkpt><trkpt lat="41.08701509478806" lon="14.650850317674305"><ele>523.1999999999999</ele><time>2026-05-02T13:44:29Z</time></trkpt><trkpt lat="41.08710700780182" lon="14.65082520164638"><ele>523.0</ele><time>2026-05-02T13:44:30Z</time></trkpt><trkpt lat="41.08717752036969" lon="14.650791508481552"><ele>523.0</ele><time>2026-05-02T13:44:31Z</time></trkpt><trkpt lat="41.087223950180885" lon="14.650731298484827"><ele>523.0</ele><time>2026-05-02T13:44:32Z</time></trkpt><trkpt lat="41.08723198582098" lon="14.650643866414564"><ele>523.0</ele><time>2026-05-02T13:44:34Z</time></trkpt><trkpt lat="41.08723632120415" lon="14.650473783636615"><ele>523.0</ele><time>2026-05-02T13:44:36Z</time></trkpt><trkpt lat="41.08723955211269" lon="14.65031432547115"><ele>523.0</ele><time>2026-05-02T13:44:37Z</time></trkpt><trkpt lat="41.087250023303824" lon="14.65017713683995"><ele>520.6</ele><time>2026-05-02T13:44:38Z</time></trkpt><trkpt lat="41.08725399819126" lon="14.650079575454969"><ele>518.1999999999999</ele><time>2026-05-02T13:44:39Z</time></trkpt><trkpt lat="41.08725881636226" lon="14.649948228038618"><ele>515.8</ele><time>2026-05-02T13:44:40Z</time></trkpt><trkpt lat="41.08728036013813" lon="14.64980819276167"><ele>513.4</ele><time>2026-05-02T13:44:41Z</time></trkpt><trkpt lat="41.087315480117226" lon="14.649619529067282"><ele>511.0</ele><time>2026-05-02T13:44:42Z</time></trkpt><trkpt lat="41.087349763045104" lon="14.649428113375809"><ele>508.4</ele><time>2026-05-02T13:44:43Z</time></trkpt><trkpt lat="41.087366896405264" lon="14.649275045040943"><ele>505.8</ele><time>2026-05-02T13:44:44Z</time></trkpt><trkpt lat="41.08736963091267" lon="14.649149221385217"><ele>503.19999999999993</ele><time>2026-05-02T13:44:45Z</time></trkpt><trkpt lat="41.08734467985713" lon="14.649006806836526"><ele>500.59999999999997</ele><time>2026-05-02T13:44:46Z</time></trkpt><trkpt lat="41.08729393361112" lon="14.64886328538332"><ele>498.0</ele><time>2026-05-02T13:44:47Z</time></trkpt><trkpt lat="41.08724250489618" lon="14.648740066445516"><ele>495.5</ele><time>2026-05-02T13:44:48Z</time></trkpt><trkpt lat="41.087202809131455" lon="14.648604595557535"><ele>493.0</ele><time>2026-05-02T13:44:49Z</time></trkpt><trkpt lat="41.087176307665516" lon="14.648430813633006"><ele>490.5</ele><time>2026-05-02T13:44:50Z</time></trkpt><trkpt lat="41.08717500748507" lon="14.648233802268532"><ele>488.0</ele><time>2026-05-02T13:44:51Z</time></trkpt><trkpt lat="41.08718536417586" lon="14.648034899377036"><ele>488.0</ele><time>2026-05-02T13:44:52Z</time></trkpt><trkpt lat="41.08717393135201" lon="14.647864339559545"><ele>487.99999999999994</ele><time>2026-05-02T13:44:53Z</time></trkpt><trkpt lat="41.087150112358174" lon="14.647707647880088"><ele>487.99999999999994</ele><time>2026-05-02T13:44:54Z</time></trkpt><trkpt lat="41.087139093163955" lon="14.64757508050246"><ele>488.0</ele><time>2026-05-02T13:44:55Z</time></trkpt><trkpt lat="41.08714870525511" lon="14.64744707043301"><ele>488.0</ele><time>2026-05-02T13:44:56Z</time></trkpt><trkpt lat="41.087172279001315" lon="14.647311829137243"><ele>486.0</ele><time>2026-05-02T13:44:57Z</time></trkpt><trkpt lat="41.08719731204547" lon="14.647173423984555"><ele>484.0</ele><time>2026-05-02T13:44:58Z</time></trkpt><trkpt lat="41.087209580148794" lon="14.647025982784902"><ele>482.0</ele><time>2026-05-02T13:44:59Z</time></trkpt><trkpt lat="41.08723104717507" lon="14.646861623597365"><ele>480.0</ele><time>2026-05-02T13:45:00Z</time></trkpt><trkpt lat="41.08725037147404" lon="14.64669071850195"><ele>479.5</ele><time>2026-05-02T13:45:01Z</time></trkpt><trkpt lat="41.087264682097164" lon="14.646534115395964"><ele>479.0</ele><time>2026-05-02T13:45:02Z</time></trkpt><trkpt lat="41.08730036840563" lon="14.646374029619023"><ele>478.5</ele><time>2026-05-02T13:45:03Z</time></trkpt><trkpt lat="41.08732844867633" lon="14.64620744754173"><ele>478.0</ele><time>2026-05-02T13:45:04Z</time></trkpt><trkpt lat="41.08735270466807" lon="14.646037040646094"><ele>479.25</ele><time>2026-05-02T13:45:05Z</time></trkpt><trkpt lat="41.087369972665506" lon="14.645867308270653"><ele>480.5</ele><time>2026-05-02T13:45:06Z</time></trkpt><trkpt lat="41.08737265818726" lon="14.64569593112747"><ele>481.75</ele><time>2026-05-02T13:45:07Z</time></trkpt><trkpt lat="41.08736817469366" lon="14.645512720921953"><ele>483.0</ele><time>2026-05-02T13:45:08Z</time></trkpt><trkpt lat="41.087345678133104" lon="14.645332447280497"><ele>481.0</ele><time>2026-05-02T13:45:09Z</time></trkpt><trkpt lat="41.0873263273267" lon="14.645163336915854"><ele>479.0</ele><time>2026-05-02T13:45:10Z</time></trkpt><trkpt lat="41.087294073432204" lon="14.64500496793618"><ele>477.0</ele><time>2026-05-02T13:45:11Z</time></trkpt><trkpt lat="41.087240327298396" lon="14.644839796218509"><ele>475.0</ele><time>2026-05-02T13:45:12Z</time></trkpt><trkpt lat="41.087188865817964" lon="14.644674175071998"><ele>475.0</ele><time>2026-05-02T13:45:13Z</time></trkpt><trkpt lat="41.087149189720414" lon="14.644536333765217"><ele>475.0</ele><time>2026-05-02T13:45:14Z</time></trkpt><trkpt lat="41.087129499416946" lon="14.644387704555069"><ele>475.0</ele><time>2026-05-02T13:45:15Z</time></trkpt><trkpt lat="41.08712054850582" lon="14.644238771905592"><ele>475.0</ele><time>2026-05-02T13:45:16Z</time></trkpt><trkpt lat="41.08713351704137" lon="14.644088466536374"><ele>472.2</ele><time>2026-05-02T13:45:17Z</time></trkpt><trkpt lat="41.08716527895921" lon="14.643949464330507"><ele>469.4</ele><time>2026-05-02T13:45:18Z</time></trkpt><trkpt lat="41.08719833718826" lon="14.643823480943484"><ele>466.6</ele><time>2026-05-02T13:45:19Z</time></trkpt><trkpt lat="41.087224838191226" lon="14.643719620350044"><ele>463.8</ele><time>2026-05-02T13:45:20Z</time></trkpt><trkpt lat="41.087220245430075" lon="14.643551124321435"><ele>461.0</ele><time>2026-05-02T13:45:22Z</time></trkpt><trkpt lat="41.08719934442542" lon="14.643461368270833"><ele>458.5</ele><time>2026-05-02T13:45:23Z</time></trkpt><trkpt lat="41.08717769631045" lon="14.643319076890156"><ele>456.0</ele><time>2026-05-02T13:45:24Z</time></trkpt><trkpt lat="41.08710056610921" lon="14.643171608238001"><ele>453.5</ele><time>2026-05-02T13:45:25Z</time></trkpt><trkpt lat="41.08703774778777" lon="14.643007479720326"><ele>451.0</ele><time>2026-05-02T13:45:26Z</time></trkpt><trkpt lat="41.08697375423112" lon="14.642859513318076"><ele>451.0</ele><time>2026-05-02T13:45:27Z</time></trkpt><trkpt lat="41.08687708842156" lon="14.642716306300345"><ele>451.0</ele><time>2026-05-02T13:45:28Z</time></trkpt><trkpt lat="41.08675060152784" lon="14.642538382383064"><ele>451.0</ele><time>2026-05-02T13:45:29Z</time></trkpt><trkpt lat="41.08663482965234" lon="14.642370329835938"><ele>448.0</ele><time>2026-05-02T13:45:30Z</time></trkpt><trkpt lat="41.08654368399791" lon="14.642226296878292"><ele>445.0</ele><time>2026-05-02T13:45:31Z</time></trkpt><trkpt lat="41.08645104040043" lon="14.642105374715674"><ele>442.0</ele><time>2026-05-02T13:45:32Z</time></trkpt><trkpt lat="41.086351632176594" lon="14.642009559414834"><ele>439.0</ele><time>2026-05-02T13:45:33Z</time></trkpt><trkpt lat="41.08625461170961" lon="14.641925266723836"><ele>438.5</ele><time>2026-05-02T13:45:34Z</time></trkpt><trkpt lat="41.086168330180925" lon="14.641803479681547"><ele>438.0</ele><time>2026-05-02T13:45:35Z</time></trkpt><trkpt lat="41.08607603825284" lon="14.641633013139952"><ele>437.5</ele><time>2026-05-02T13:45:36Z</time></trkpt><trkpt lat="41.08601022366202" lon="14.641507711372187"><ele>437.0</ele><time>2026-05-02T13:45:37Z</time></trkpt><trkpt lat="41.085924564494" lon="14.64137421828425"><ele>437.0</ele><time>2026-05-02T13:45:38Z</time></trkpt><trkpt lat="41.08582708168143" lon="14.64124597987829"><ele>437.0</ele><time>2026-05-02T13:45:39Z</time></trkpt><trkpt lat="41.08569613919603" lon="14.64111334897817"><ele>437.0</ele><time>2026-05-02T13:45:40Z</time></trkpt><trkpt lat="41.08554637615472" lon="14.641003312535265"><ele>435.0</ele><time>2026-05-02T13:45:41Z</time></trkpt><trkpt lat="41.08541045800091" lon="14.640864341711712"><ele>433.0</ele><time>2026-05-02T13:45:42Z</time></trkpt><trkpt lat="41.08532415906762" lon="14.64070045619058"><ele>431.0</ele><time>2026-05-02T13:45:43Z</time></trkpt><trkpt lat="41.08524085342878" lon="14.640504691669944"><ele>431.0</ele><time>2026-05-02T13:45:44Z</time></trkpt><trkpt lat="41.08517882764278" lon="14.640410473897155"><ele>431.0</ele><time>2026-05-02T13:45:45Z</time></trkpt><trkpt lat="41.085069578300256" lon="14.640341425962982"><ele>431.0</ele><time>2026-05-02T13:45:46Z</time></trkpt><trkpt lat="41.08497229771134" lon="14.640280642351474"><ele>431.0</ele><time>2026-05-02T13:45:47Z</time></trkpt><trkpt lat="41.084862332389804" lon="14.640195311742787"><ele>428.5</ele><time>2026-05-02T13:45:48Z</time></trkpt><trkpt lat="41.0847357051649" lon="14.640066505642922"><ele>426.0</ele><time>2026-05-02T13:45:49Z</time></trkpt><trkpt lat="41.084630909061794" lon="14.639956774304224"><ele>423.5</ele><time>2026-05-02T13:45:50Z</time></trkpt><trkpt lat="41.084523402095584" lon="14.639842307452978"><ele>421.0</ele><time>2026-05-02T13:45:51Z</time></trkpt><trkpt lat="41.08441589117733" lon="14.63970815978217"><ele>421.0</ele><time>2026-05-02T13:45:52Z</time></trkpt><trkpt lat="41.08431016846818" lon="14.639572046859037"><ele>421.0</ele><time>2026-05-02T13:45:53Z</time></trkpt><trkpt lat="41.0842235983006" lon="14.639418078299169"><ele>421.0</ele><time>2026-05-02T13:45:54Z</time></trkpt><trkpt lat="41.08414092356374" lon="14.63924574561962"><ele>421.0</ele><time>2026-05-02T13:45:55Z</time></trkpt><trkpt lat="41.08407330415368" lon="14.639092886846854"><ele>420.4</ele><time>2026-05-02T13:45:56Z</time></trkpt><trkpt lat="41.08401405905194" lon="14.638965009986363"><ele>419.8</ele><time>2026-05-02T13:45:57Z</time></trkpt><trkpt lat="41.08396949212691" lon="14.63885712113378"><ele>419.2</ele><time>2026-05-02T13:45:58.001Z</time></trkpt><trkpt lat="41.08394140460899" lon="14.638774813852846"><ele>418.59999999999997</ele><time>2026-05-02T13:45:59.001Z</time></trkpt><trkpt lat="41.08390170642121" lon="14.638652228997858"><ele>418.0</ele><time>2026-05-02T13:46:01.001Z</time></trkpt><trkpt lat="41.08374998672072" lon="14.638548553872157"><ele>418.0</ele><time>2026-05-02T13:46:02.001Z</time></trkpt><trkpt lat="41.08366402401993" lon="14.638484517708344"><ele>418.0</ele><time>2026-05-02T13:46:03.001Z</time></trkpt><trkpt lat="41.083583368038774" lon="14.63842088497485"><ele>418.0</ele><time>2026-05-02T13:46:04.001Z</time></trkpt><trkpt lat="41.08352340317888" lon="14.638359779068335"><ele>418.0</ele><time>2026-05-02T13:46:05.001Z</time></trkpt><trkpt lat="41.08346329536047" lon="14.638258997420307"><ele>418.0</ele><time>2026-05-02T13:46:06.001Z</time></trkpt><trkpt lat="41.08339118132604" lon="14.638125153846286"><ele>418.0</ele><time>2026-05-02T13:46:07.001Z</time></trkpt><trkpt lat="41.083290204706216" lon="14.63799874988144"><ele>418.0</ele><time>2026-05-02T13:46:08.001Z</time></trkpt><trkpt lat="41.083161894817934" lon="14.637879934240734"><ele>418.0</ele><time>2026-05-02T13:46:09.001Z</time></trkpt><trkpt lat="41.08304899372458" lon="14.637764284218845"><ele>418.0</ele><time>2026-05-02T13:46:10.001Z</time></trkpt><trkpt lat="41.08294336123906" lon="14.63764960066533"><ele>414.75</ele><time>2026-05-02T13:46:11.001Z</time></trkpt><trkpt lat="41.08283871586491" lon="14.637564943688151"><ele>411.5</ele><time>2026-05-02T13:46:12.001Z</time></trkpt><trkpt lat="41.08274689235732" lon="14.637480539607191"><ele>408.25</ele><time>2026-05-02T13:46:13.001Z</time></trkpt><trkpt lat="41.08268600942017" lon="14.63735735801639"><ele>405.0</ele><time>2026-05-02T13:46:14.001Z</time></trkpt><trkpt lat="41.08265476702456" lon="14.63721553846231"><ele>405.0</ele><time>2026-05-02T13:46:15.001Z</time></trkpt><trkpt lat="41.082614329913376" lon="14.637079351303296"><ele>405.0</ele><time>2026-05-02T13:46:16Z</time></trkpt><trkpt lat="41.08250583160883" lon="14.636998117349131"><ele>405.0</ele><time>2026-05-02T13:46:17Z</time></trkpt><trkpt lat="41.08238527108083" lon="14.63690671175946"><ele>405.0</ele><time>2026-05-02T13:46:18Z</time></trkpt><trkpt lat="41.08226280312136" lon="14.636794359111697"><ele>402.25</ele><time>2026-05-02T13:46:19Z</time></trkpt><trkpt lat="41.08216544579903" lon="14.636702524310532"><ele>399.5</ele><time>2026-05-02T13:46:20Z</time></trkpt><trkpt lat="41.08208296978495" lon="14.636575516926381"><ele>396.75</ele><time>2026-05-02T13:46:21Z</time></trkpt><trkpt lat="41.08201484399489" lon="14.636431404890045"><ele>394.0</ele><time>2026-05-02T13:46:22Z</time></trkpt><trkpt lat="41.0819461694114" lon="14.636305213127269"><ele>394.0</ele><time>2026-05-02T13:46:23Z</time></trkpt><trkpt lat="41.08186970125253" lon="14.636196561749621"><ele>394.0</ele><time>2026-05-02T13:46:24Z</time></trkpt><trkpt lat="41.08183955281553" lon="14.636068902942135"><ele>394.0</ele><time>2026-05-02T13:46:25Z</time></trkpt><trkpt lat="41.08180677040827" lon="14.635968775451957"><ele>394.0</ele><time>2026-05-02T13:46:26Z</time></trkpt><trkpt lat="41.08178472734838" lon="14.635846563635646"><ele>394.0</ele><time>2026-05-02T13:46:27Z</time></trkpt><trkpt lat="41.08174607091452" lon="14.635739657074438"><ele>393.00000000000006</ele><time>2026-05-02T13:46:28Z</time></trkpt><trkpt lat="41.081673569263955" lon="14.63568624654506"><ele>392.0</ele><time>2026-05-02T13:46:29Z</time></trkpt><trkpt lat="41.081605538127356" lon="14.635661814544905"><ele>391.0</ele><time>2026-05-02T13:46:30Z</time></trkpt><trkpt lat="41.08152029249998" lon="14.6356955953173"><ele>390.0</ele><time>2026-05-02T13:46:31Z</time></trkpt><trkpt lat="41.08145402525101" lon="14.635719656326623"><ele>389.00000000000006</ele><time>2026-05-02T13:46:32Z</time></trkpt><trkpt lat="41.081360982536" lon="14.635794436455026"><ele>388.0</ele><time>2026-05-02T13:46:34Z</time></trkpt><trkpt lat="41.08129157519628" lon="14.635831807081443"><ele>386.59999999999997</ele><time>2026-05-02T13:46:35Z</time></trkpt><trkpt lat="41.08122195514846" lon="14.635850435926635"><ele>385.2</ele><time>2026-05-02T13:46:36Z</time></trkpt><trkpt lat="41.08115237017412" lon="14.635838025256536"><ele>383.8</ele><time>2026-05-02T13:46:38Z</time></trkpt><trkpt lat="41.08124457921312" lon="14.635661693767657"><ele>382.4</ele><time>2026-05-02T13:46:41Z</time></trkpt><trkpt lat="41.08128572134916" lon="14.635558975298274"><ele>381.0</ele><time>2026-05-02T13:46:42Z</time></trkpt><trkpt lat="41.08132412572498" lon="14.635483457262598"><ele>381.0</ele><time>2026-05-02T13:46:43Z</time></trkpt><trkpt lat="41.08136978029387" lon="14.635405145061092"><ele>381.0</ele><time>2026-05-02T13:46:44Z</time></trkpt><trkpt lat="41.08140835497065" lon="14.635305755507133"><ele>381.0</ele><time>2026-05-02T13:46:45Z</time></trkpt><trkpt lat="41.0814536099904" lon="14.635192871427304"><ele>381.0</ele><time>2026-05-02T13:46:47Z</time></trkpt><trkpt lat="41.08133827323567" lon="14.63507421945346"><ele>381.0</ele><time>2026-05-02T13:46:49Z</time></trkpt><trkpt lat="41.08127254437524" lon="14.635008561344529"><ele>380.25</ele><time>2026-05-02T13:46:50Z</time></trkpt><trkpt lat="41.08124060263925" lon="14.634861190449012"><ele>379.5</ele><time>2026-05-02T13:46:52Z</time></trkpt><trkpt lat="41.08124763036029" lon="14.634707277803361"><ele>378.75</ele><time>2026-05-02T13:46:54Z</time></trkpt><trkpt lat="41.08124549552316" lon="14.6345294756925"><ele>378.0</ele><time>2026-05-02T13:46:56Z</time></trkpt><trkpt lat="41.081231939696856" lon="14.63438462904712"><ele>379.79999999999995</ele><time>2026-05-02T13:46:57Z</time></trkpt><trkpt lat="41.081200130369005" lon="14.634257773218597"><ele>381.6</ele><time>2026-05-02T13:46:58Z</time></trkpt><trkpt lat="41.08115720789596" lon="14.634127689757598"><ele>383.4</ele><time>2026-05-02T13:46:59Z</time></trkpt><trkpt lat="41.08111708038991" lon="14.634005991825848"><ele>385.20000000000005</ele><time>2026-05-02T13:47:00Z</time></trkpt><trkpt lat="41.08106776342798" lon="14.633884729651028"><ele>387.0</ele><time>2026-05-02T13:47:01Z</time></trkpt><trkpt lat="41.081018504750475" lon="14.633763351180678"><ele>387.0</ele><time>2026-05-02T13:47:02Z</time></trkpt><trkpt lat="41.08095031765326" lon="14.633639707198572"><ele>387.0</ele><time>2026-05-02T13:47:03Z</time></trkpt><trkpt lat="41.08086961036632" lon="14.633517458989507"><ele>387.0</ele><time>2026-05-02T13:47:04Z</time></trkpt><trkpt lat="41.0807758880776" lon="14.633376042755808"><ele>387.0</ele><time>2026-05-02T13:47:05Z</time></trkpt><trkpt lat="41.08070304879949" lon="14.633188675672216"><ele>387.25</ele><time>2026-05-02T13:47:06Z</time></trkpt><trkpt lat="41.080615558188676" lon="14.633028195657191"><ele>387.5</ele><time>2026-05-02T13:47:07Z</time></trkpt><trkpt lat="41.08055387018635" lon="14.632865363197158"><ele>387.75</ele><time>2026-05-02T13:47:08Z</time></trkpt><trkpt lat="41.08048663609567" lon="14.632709156766655"><ele>388.0</ele><time>2026-05-02T13:47:09Z</time></trkpt><trkpt lat="41.080426202034765" lon="14.632535623210789"><ele>391.6666666666667</ele><time>2026-05-02T13:47:10Z</time></trkpt><trkpt lat="41.08036228170382" lon="14.632362862772606"><ele>395.33333333333337</ele><time>2026-05-02T13:47:11Z</time></trkpt><trkpt lat="41.08029732577659" lon="14.632183889650346"><ele>399.0</ele><time>2026-05-02T13:47:12Z</time></trkpt><trkpt lat="41.08020978410211" lon="14.63199615554064"><ele>401.5</ele><time>2026-05-02T13:47:13Z</time></trkpt><trkpt lat="41.08015297826849" lon="14.631845200012767"><ele>404.0</ele><time>2026-05-02T13:47:14Z</time></trkpt><trkpt lat="41.080104193869914" lon="14.631706498665583"><ele>406.5</ele><time>2026-05-02T13:47:15Z</time></trkpt><trkpt lat="41.08005783807211" lon="14.631546998956015"><ele>409.0</ele><time>2026-05-02T13:47:16Z</time></trkpt><trkpt lat="41.08004944426793" lon="14.63135797077811"><ele>409.00000000000006</ele><time>2026-05-02T13:47:17Z</time></trkpt><trkpt lat="41.0800166841022" lon="14.631206941452549"><ele>409.0</ele><time>2026-05-02T13:47:18Z</time></trkpt><trkpt lat="41.080016992424575" lon="14.631090816974956"><ele>409.0</ele><time>2026-05-02T13:47:19Z</time></trkpt><trkpt lat="41.080014347279615" lon="14.631007021340274"><ele>409.0</ele><time>2026-05-02T13:47:20Z</time></trkpt><trkpt lat="41.08004451999642" lon="14.630901355357313"><ele>409.00000000000006</ele><time>2026-05-02T13:47:22Z</time></trkpt><trkpt lat="41.08009852855478" lon="14.630849199992646"><ele>409.0</ele><time>2026-05-02T13:47:23Z</time></trkpt><trkpt lat="41.08014103903397" lon="14.630784183253425"><ele>410.79999999999995</ele><time>2026-05-02T13:47:24Z</time></trkpt><trkpt lat="41.08019556120584" lon="14.630706101194976"><ele>412.59999999999997</ele><time>2026-05-02T13:47:25Z</time></trkpt><trkpt lat="41.080276971950674" lon="14.630597578365647"><ele>414.4</ele><time>2026-05-02T13:47:26Z</time></trkpt><trkpt lat="41.080355066801815" lon="14.630505965408874"><ele>416.2</ele><time>2026-05-02T13:47:27Z</time></trkpt><trkpt lat="41.080434610567046" lon="14.630432092885377"><ele>418.0</ele><time>2026-05-02T13:47:28Z</time></trkpt><trkpt lat="41.0805201460693" lon="14.630348049880773"><ele>418.00000000000006</ele><time>2026-05-02T13:47:29Z</time></trkpt><trkpt lat="41.080576694657324" lon="14.630265980893169"><ele>418.0</ele><time>2026-05-02T13:47:30Z</time></trkpt><trkpt lat="41.08063247354418" lon="14.630186654440676"><ele>418.0</ele><time>2026-05-02T13:47:31Z</time></trkpt><trkpt lat="41.08067838354868" lon="14.630103711243802"><ele>418.0</ele><time>2026-05-02T13:47:32Z</time></trkpt><trkpt lat="41.080711634681144" lon="14.629985625328757"><ele>418.00000000000006</ele><time>2026-05-02T13:47:34Z</time></trkpt><trkpt lat="41.0807034808232" lon="14.629846205706237"><ele>418.0</ele><time>2026-05-02T13:47:36Z</time></trkpt><trkpt lat="41.08070062522093" lon="14.629758576583166"><ele>418.0</ele><time>2026-05-02T13:47:37Z</time></trkpt><trkpt lat="41.08061590800003" lon="14.629659372016956"><ele>418.0</ele><time>2026-05-02T13:47:38Z</time></trkpt><trkpt lat="41.08053923783127" lon="14.629510189450865"><ele>418.0</ele><time>2026-05-02T13:47:39Z</time></trkpt><trkpt lat="41.08048984284104" lon="14.629371326150126"><ele>418.0</ele><time>2026-05-02T13:47:40Z</time></trkpt><trkpt lat="41.08047152011172" lon="14.629236714944842"><ele>417.25</ele><time>2026-05-02T13:47:41Z</time></trkpt><trkpt lat="41.08046970164739" lon="14.629085695898485"><ele>416.5</ele><time>2026-05-02T13:47:42Z</time></trkpt><trkpt lat="41.08051900503717" lon="14.628919896851562"><ele>415.75</ele><time>2026-05-02T13:47:43Z</time></trkpt><trkpt lat="41.08056622352524" lon="14.628774328708282"><ele>415.0</ele><time>2026-05-02T13:47:44Z</time></trkpt><trkpt lat="41.080607360456156" lon="14.6286397249894"><ele>414.33333333333337</ele><time>2026-05-02T13:47:45Z</time></trkpt><trkpt lat="41.08064442610767" lon="14.628530823793437"><ele>413.6666666666667</ele><time>2026-05-02T13:47:46Z</time></trkpt><trkpt lat="41.08063686771769" lon="14.62842897307789"><ele>413.0</ele><time>2026-05-02T13:47:47Z</time></trkpt><trkpt lat="41.08058718564435" lon="14.628352442782568"><ele>412.33333333333337</ele><time>2026-05-02T13:47:48Z</time></trkpt><trkpt lat="41.08052308708315" lon="14.628296161981371"><ele>411.6666666666667</ele><time>2026-05-02T13:47:49Z</time></trkpt><trkpt lat="41.08042510151552" lon="14.628217565021062"><ele>411.0</ele><time>2026-05-02T13:47:50Z</time></trkpt><trkpt lat="41.08035140805164" lon="14.628092779767774"><ele>411.0</ele><time>2026-05-02T13:47:51Z</time></trkpt><trkpt lat="41.08027876381154" lon="14.627923462482007"><ele>411.0</ele><time>2026-05-02T13:47:52Z</time></trkpt><trkpt lat="41.08023631249904" lon="14.627798753725168"><ele>411.0</ele><time>2026-05-02T13:47:53Z</time></trkpt><trkpt lat="41.0801631233198" lon="14.627652251307987"><ele>411.0</ele><time>2026-05-02T13:47:54Z</time></trkpt><trkpt lat="41.08010812004821" lon="14.627500272271497"><ele>410.25</ele><time>2026-05-02T13:47:55Z</time></trkpt><trkpt lat="41.08003554185428" lon="14.62739099911958"><ele>409.5</ele><time>2026-05-02T13:47:56Z</time></trkpt><trkpt lat="41.079970170433924" lon="14.627282786294664"><ele>408.75</ele><time>2026-05-02T13:47:57Z</time></trkpt><trkpt lat="41.07991862348482" lon="14.62715375356486"><ele>408.0</ele><time>2026-05-02T13:47:58Z</time></trkpt><trkpt lat="41.07984657051014" lon="14.62700700533893"><ele>407.66666666666663</ele><time>2026-05-02T13:47:59Z</time></trkpt><trkpt lat="41.07978800249136" lon="14.626837193177746"><ele>407.3333333333333</ele><time>2026-05-02T13:48:00Z</time></trkpt><trkpt lat="41.07973554907322" lon="14.626621848638793"><ele>407.0</ele><time>2026-05-02T13:48:01Z</time></trkpt><trkpt lat="41.07968203574842" lon="14.626371080014506"><ele>405.0</ele><time>2026-05-02T13:48:02Z</time></trkpt><trkpt lat="41.07962603545827" lon="14.626098523136779"><ele>403.0</ele><time>2026-05-02T13:48:03Z</time></trkpt><trkpt lat="41.07957903073978" lon="14.625842377473848"><ele>401.0</ele><time>2026-05-02T13:48:04Z</time></trkpt><trkpt lat="41.07954077431221" lon="14.625611447011167"><ele>401.0</ele><time>2026-05-02T13:48:05Z</time></trkpt><trkpt lat="41.0795067313548" lon="14.625408989841453"><ele>401.0</ele><time>2026-05-02T13:48:06Z</time></trkpt><trkpt lat="41.07946764363446" lon="14.625238100211002"><ele>401.0</ele><time>2026-05-02T13:48:07Z</time></trkpt><trkpt lat="41.07941348123816" lon="14.62509561524105"><ele>401.0</ele><time>2026-05-02T13:48:08Z</time></trkpt><trkpt lat="41.07933503950586" lon="14.62496049097785"><ele>401.4</ele><time>2026-05-02T13:48:09Z</time></trkpt><trkpt lat="41.07923854564548" lon="14.624834681194457"><ele>401.8</ele><time>2026-05-02T13:48:10Z</time></trkpt><trkpt lat="41.079146586222656" lon="14.62472604809383"><ele>402.2</ele><time>2026-05-02T13:48:11Z</time></trkpt><trkpt lat="41.07909233464462" lon="14.624631627798847"><ele>402.59999999999997</ele><time>2026-05-02T13:48:12Z</time></trkpt><trkpt lat="41.07908047017999" lon="14.62453094173872"><ele>403.0</ele><time>2026-05-02T13:48:13Z</time></trkpt><trkpt lat="41.07908086224334" lon="14.624369316954512"><ele>398.5</ele><time>2026-05-02T13:48:14Z</time></trkpt><trkpt lat="41.079083165506546" lon="14.62415646459962"><ele>394.0</ele><time>2026-05-02T13:48:15Z</time></trkpt><trkpt lat="41.079081345291115" lon="14.623974772088776"><ele>389.5</ele><time>2026-05-02T13:48:16Z</time></trkpt><trkpt lat="41.079058772942844" lon="14.623811653456892"><ele>385.0</ele><time>2026-05-02T13:48:17Z</time></trkpt><trkpt lat="41.07902352436337" lon="14.623651656740018"><ele>385.4</ele><time>2026-05-02T13:48:18Z</time></trkpt><trkpt lat="41.07898600839665" lon="14.623504969666302"><ele>385.8</ele><time>2026-05-02T13:48:19Z</time></trkpt><trkpt lat="41.07895300191679" lon="14.62337520089821"><ele>386.20000000000005</ele><time>2026-05-02T13:48:20Z</time></trkpt><trkpt lat="41.07892843243545" lon="14.623250503231503"><ele>386.6</ele><time>2026-05-02T13:48:21Z</time></trkpt><trkpt lat="41.07890609101846" lon="14.623144041069793"><ele>387.0</ele><time>2026-05-02T13:48:22Z</time></trkpt><trkpt lat="41.078855080498606" lon="14.623052098300864"><ele>387.0</ele><time>2026-05-02T13:48:23Z</time></trkpt><trkpt lat="41.078805632435255" lon="14.622930021353692"><ele>387.0</ele><time>2026-05-02T13:48:24Z</time></trkpt><trkpt lat="41.07872931156969" lon="14.622789538335606"><ele>387.0</ele><time>2026-05-02T13:48:25Z</time></trkpt><trkpt lat="41.078634148557626" lon="14.622619200349936"><ele>387.0</ele><time>2026-05-02T13:48:26Z</time></trkpt><trkpt lat="41.078552143279424" lon="14.62248186228973"><ele>388.75</ele><time>2026-05-02T13:48:27Z</time></trkpt><trkpt lat="41.07848404309881" lon="14.622345583955953"><ele>390.5</ele><time>2026-05-02T13:48:28Z</time></trkpt><trkpt lat="41.07841099901896" lon="14.622213677652407"><ele>392.25</ele><time>2026-05-02T13:48:29Z</time></trkpt><trkpt lat="41.07835078064373" lon="14.622077165987246"><ele>394.0</ele><time>2026-05-02T13:48:30Z</time></trkpt><trkpt lat="41.07831100927823" lon="14.621976501859654"><ele>387.6666666666667</ele><time>2026-05-02T13:48:31Z</time></trkpt><trkpt lat="41.07826222039983" lon="14.621880729550643"><ele>381.33333333333337</ele><time>2026-05-02T13:48:32Z</time></trkpt><trkpt lat="41.07815965069491" lon="14.621703770630504"><ele>375.0</ele><time>2026-05-02T13:48:33Z</time></trkpt><trkpt lat="41.078002467401696" lon="14.621493535980997"><ele>375.0</ele><time>2026-05-02T13:48:34Z</time></trkpt><trkpt lat="41.07781999302863" lon="14.621259337565341"><ele>375.0</ele><time>2026-05-02T13:48:35Z</time></trkpt><trkpt lat="41.07762884649121" lon="14.62105762425826"><ele>375.6666666666667</ele><time>2026-05-02T13:48:36Z</time></trkpt><trkpt lat="41.07743820656566" lon="14.62087947132632"><ele>376.33333333333337</ele><time>2026-05-02T13:48:37Z</time></trkpt><trkpt lat="41.07727424884317" lon="14.620740803255341"><ele>377.0</ele><time>2026-05-02T13:48:38Z</time></trkpt><trkpt lat="41.07714457022329" lon="14.620638646112445"><ele>373.5</ele><time>2026-05-02T13:48:39Z</time></trkpt><trkpt lat="41.07704809400744" lon="14.620535713277675"><ele>370.0</ele><time>2026-05-02T13:48:40Z</time></trkpt><trkpt lat="41.07697118865504" lon="14.620454914573637"><ele>366.5</ele><time>2026-05-02T13:48:41Z</time></trkpt><trkpt lat="41.07692468257394" lon="14.6203798538184"><ele>363.0</ele><time>2026-05-02T13:48:42Z</time></trkpt><trkpt lat="41.07675931875733" lon="14.620178801931766"><ele>363.0</ele><time>2026-05-02T13:48:45Z</time></trkpt><trkpt lat="41.07668629289695" lon="14.620085494896312"><ele>363.0</ele><time>2026-05-02T13:48:46Z</time></trkpt><trkpt lat="41.07663126710715" lon="14.619956716129813"><ele>363.0</ele><time>2026-05-02T13:48:47Z</time></trkpt><trkpt lat="41.076596846419676" lon="14.619830947150033"><ele>363.0</ele><time>2026-05-02T13:48:48Z</time></trkpt><trkpt lat="41.076559332996375" lon="14.619712943429406"><ele>363.0</ele><time>2026-05-02T13:48:49Z</time></trkpt><trkpt lat="41.07651669601926" lon="14.619614605796839"><ele>360.5</ele><time>2026-05-02T13:48:50Z</time></trkpt><trkpt lat="41.07648040631559" lon="14.619513258526615"><ele>358.0</ele><time>2026-05-02T13:48:51Z</time></trkpt><trkpt lat="41.076440012439214" lon="14.619438197455862"><ele>355.5</ele><time>2026-05-02T13:48:52Z</time></trkpt><trkpt lat="41.0763951396699" lon="14.61936660450134"><ele>353.0</ele><time>2026-05-02T13:48:53Z</time></trkpt><trkpt lat="41.07635599766752" lon="14.619282659712598"><ele>350.5</ele><time>2026-05-02T13:48:54Z</time></trkpt><trkpt lat="41.07630133746414" lon="14.61919101786421"><ele>348.0</ele><time>2026-05-02T13:48:55Z</time></trkpt><trkpt lat="41.07623963383841" lon="14.619105007574614"><ele>348.0</ele><time>2026-05-02T13:48:56Z</time></trkpt><trkpt lat="41.076137011066095" lon="14.619043388169572"><ele>348.0</ele><time>2026-05-02T13:48:57Z</time></trkpt><trkpt lat="41.076055865387474" lon="14.618983380935488"><ele>348.0</ele><time>2026-05-02T13:48:58Z</time></trkpt><trkpt lat="41.07598443506157" lon="14.618938028569742"><ele>348.0</ele><time>2026-05-02T13:48:59Z</time></trkpt><trkpt lat="41.075935026902684" lon="14.618881244643244"><ele>348.0</ele><time>2026-05-02T13:49:00Z</time></trkpt><trkpt lat="41.07588041048263" lon="14.618805669537677"><ele>348.0</ele><time>2026-05-02T13:49:01Z</time></trkpt><trkpt lat="41.07580659646989" lon="14.618743646199794"><ele>346.4</ele><time>2026-05-02T13:49:02Z</time></trkpt><trkpt lat="41.07571842200951" lon="14.618680865928859"><ele>344.79999999999995</ele><time>2026-05-02T13:49:03Z</time></trkpt><trkpt lat="41.07564183138952" lon="14.618630705064051"><ele>343.2</ele><time>2026-05-02T13:49:04Z</time></trkpt><trkpt lat="41.07558277535554" lon="14.618581991228549"><ele>341.6</ele><time>2026-05-02T13:49:05Z</time></trkpt><trkpt lat="41.07549837501066" lon="14.618482241761283"><ele>340.0</ele><time>2026-05-02T13:49:07Z</time></trkpt><trkpt lat="41.07543477028914" lon="14.61833760648826"><ele>340.0</ele><time>2026-05-02T13:49:09Z</time></trkpt><trkpt lat="41.07538709316529" lon="14.618236785398324"><ele>340.0</ele><time>2026-05-02T13:49:10Z</time></trkpt><trkpt lat="41.07531586434055" lon="14.618173306650574"><ele>340.0</ele><time>2026-05-02T13:49:11Z</time></trkpt><trkpt lat="41.075262346376526" lon="14.618108760044226"><ele>340.0</ele><time>2026-05-02T13:49:12Z</time></trkpt><trkpt lat="41.075228436951896" lon="14.618018796580305"><ele>340.0</ele><time>2026-05-02T13:49:13Z</time></trkpt><trkpt lat="41.07513807135542" lon="14.61791444152176"><ele>340.0</ele><time>2026-05-02T13:49:15Z</time></trkpt><trkpt lat="41.07509239403213" lon="14.617849316561767"><ele>339.4</ele><time>2026-05-02T13:49:16Z</time></trkpt><trkpt lat="41.075053679208935" lon="14.617768978942573"><ele>338.8</ele><time>2026-05-02T13:49:17Z</time></trkpt><trkpt lat="41.07497641687456" lon="14.61765192597911"><ele>338.20000000000005</ele><time>2026-05-02T13:49:18Z</time></trkpt><trkpt lat="41.074908293063686" lon="14.617515483930077"><ele>337.6</ele><time>2026-05-02T13:49:19Z</time></trkpt><trkpt lat="41.07486905730784" lon="14.61744955349465"><ele>337.0</ele><time>2026-05-02T13:49:20Z</time></trkpt><trkpt lat="41.07483534277944" lon="14.617318356247273"><ele>334.6</ele><time>2026-05-02T13:49:21Z</time></trkpt><trkpt lat="41.07477550138952" lon="14.617239799370005"><ele>332.20000000000005</ele><time>2026-05-02T13:49:22Z</time></trkpt><trkpt lat="41.07471568595158" lon="14.617158604223828"><ele>329.8</ele><time>2026-05-02T13:49:23Z</time></trkpt><trkpt lat="41.07465402546901" lon="14.617076570508848"><ele>327.4</ele><time>2026-05-02T13:49:24Z</time></trkpt><trkpt lat="41.074607613592" lon="14.617018615110434"><ele>325.0</ele><time>2026-05-02T13:49:25Z</time></trkpt><trkpt lat="41.07451149773634" lon="14.616904005356124"><ele>324.8</ele><time>2026-05-02T13:49:27Z</time></trkpt><trkpt lat="41.07444732395528" lon="14.616794241513311"><ele>324.6</ele><time>2026-05-02T13:49:28Z</time></trkpt><trkpt lat="41.074384602873415" lon="14.616718864583559"><ele>324.4</ele><time>2026-05-02T13:49:29Z</time></trkpt><trkpt lat="41.07431985499664" lon="14.6166565004721"><ele>324.2</ele><time>2026-05-02T13:49:30Z</time></trkpt><trkpt lat="41.074242437789685" lon="14.616577733348064"><ele>324.0</ele><time>2026-05-02T13:49:31Z</time></trkpt><trkpt lat="41.07418315985756" lon="14.616443619530399"><ele>324.0</ele><time>2026-05-02T13:49:32Z</time></trkpt><trkpt lat="41.074115706610456" lon="14.616328255172887"><ele>324.0</ele><time>2026-05-02T13:49:33Z</time></trkpt><trkpt lat="41.074067109106544" lon="14.616216678952142"><ele>324.0</ele><time>2026-05-02T13:49:34Z</time></trkpt><trkpt lat="41.07403199529307" lon="14.616109086206212"><ele>324.0</ele><time>2026-05-02T13:49:35Z</time></trkpt><trkpt lat="41.07398583365392" lon="14.615976194406683"><ele>324.0</ele><time>2026-05-02T13:49:36Z</time></trkpt><trkpt lat="41.07394212739358" lon="14.6158503665742"><ele>322.1666666666667</ele><time>2026-05-02T13:49:37Z</time></trkpt><trkpt lat="41.07389701655095" lon="14.615754635506098"><ele>320.3333333333333</ele><time>2026-05-02T13:49:38Z</time></trkpt><trkpt lat="41.07384880482431" lon="14.61564764196202"><ele>318.5</ele><time>2026-05-02T13:49:39Z</time></trkpt><trkpt lat="41.07380785616142" lon="14.615534913260575"><ele>316.66666666666663</ele><time>2026-05-02T13:49:40Z</time></trkpt><trkpt lat="41.0737617685598" lon="14.615452730873228"><ele>314.8333333333333</ele><time>2026-05-02T13:49:41Z</time></trkpt><trkpt lat="41.073707517066495" lon="14.615405450353236"><ele>313.0</ele><time>2026-05-02T13:49:42Z</time></trkpt><trkpt lat="41.07365871408081" lon="14.61533750313546"><ele>313.2</ele><time>2026-05-02T13:49:44Z</time></trkpt><trkpt lat="41.07361774785203" lon="14.615271971669895"><ele>313.4</ele><time>2026-05-02T13:49:46Z</time></trkpt><trkpt lat="41.07354537588783" lon="14.615220627366101"><ele>313.59999999999997</ele><time>2026-05-02T13:49:49Z</time></trkpt><trkpt lat="41.07345787280453" lon="14.615103027803277"><ele>313.8</ele><time>2026-05-02T13:49:52Z</time></trkpt><trkpt lat="41.07338517776573" lon="14.614980286249894"><ele>314.0</ele><time>2026-05-02T13:49:53Z</time></trkpt><trkpt lat="41.07331644697708" lon="14.614834223466667"><ele>311.5</ele><time>2026-05-02T13:49:54Z</time></trkpt><trkpt lat="41.07325106838923" lon="14.614655946049478"><ele>309.0</ele><time>2026-05-02T13:49:55Z</time></trkpt><trkpt lat="41.07318920098254" lon="14.61448091863154"><ele>306.5</ele><time>2026-05-02T13:49:56Z</time></trkpt><trkpt lat="41.07314370435936" lon="14.61429334611353"><ele>304.0</ele><time>2026-05-02T13:49:57Z</time></trkpt><trkpt lat="41.07310257578228" lon="14.6140704599562"><ele>304.0</ele><time>2026-05-02T13:49:58Z</time></trkpt><trkpt lat="41.07307638180933" lon="14.613867195402694"><ele>304.0</ele><time>2026-05-02T13:49:59Z</time></trkpt><trkpt lat="41.07305547383305" lon="14.613694477505181"><ele>304.0</ele><time>2026-05-02T13:50:00Z</time></trkpt><trkpt lat="41.07304065481848" lon="14.613557846000607"><ele>304.0</ele><time>2026-05-02T13:50:01Z</time></trkpt><trkpt lat="41.07302908039518" lon="14.613448955674267"><ele>304.25</ele><time>2026-05-02T13:50:02Z</time></trkpt><trkpt lat="41.07303137813745" lon="14.613360754793778"><ele>304.5</ele><time>2026-05-02T13:50:03Z</time></trkpt><trkpt lat="41.0730231582736" lon="14.613223594390847"><ele>304.75</ele><time>2026-05-02T13:50:04Z</time></trkpt><trkpt lat="41.073003792803455" lon="14.613026743576212"><ele>305.0</ele><time>2026-05-02T13:50:05Z</time></trkpt><trkpt lat="41.072975429499934" lon="14.612810142682404"><ele>305.6666666666667</ele><time>2026-05-02T13:50:06Z</time></trkpt><trkpt lat="41.0729386728496" lon="14.612565138538086"><ele>306.3333333333333</ele><time>2026-05-02T13:50:07Z</time></trkpt><trkpt lat="41.072884436958354" lon="14.612293075843144"><ele>307.0</ele><time>2026-05-02T13:50:08Z</time></trkpt><trkpt lat="41.072816866060954" lon="14.612033714470614"><ele>307.66666666666663</ele><time>2026-05-02T13:50:09Z</time></trkpt><trkpt lat="41.07273709348852" lon="14.611809561631866"><ele>308.3333333333333</ele><time>2026-05-02T13:50:10Z</time></trkpt><trkpt lat="41.07263787906995" lon="14.611613305297485"><ele>309.0</ele><time>2026-05-02T13:50:11Z</time></trkpt><trkpt lat="41.07254258609875" lon="14.61143393932073"><ele>309.0</ele><time>2026-05-02T13:50:12Z</time></trkpt><trkpt lat="41.0724482995682" lon="14.611264363308683"><ele>309.0</ele><time>2026-05-02T13:50:13Z</time></trkpt><trkpt lat="41.072380410916026" lon="14.611100598235561"><ele>309.0</ele><time>2026-05-02T13:50:14Z</time></trkpt><trkpt lat="41.07231949914182" lon="14.610981498074532"><ele>309.0</ele><time>2026-05-02T13:50:15Z</time></trkpt><trkpt lat="41.072228085653144" lon="14.610895593341835"><ele>305.75</ele><time>2026-05-02T13:50:16Z</time></trkpt><trkpt lat="41.07211072957389" lon="14.610857061520491"><ele>302.5</ele><time>2026-05-02T13:50:17Z</time></trkpt><trkpt lat="41.07197718508051" lon="14.6108537793031"><ele>299.25</ele><time>2026-05-02T13:50:18Z</time></trkpt><trkpt lat="41.07184911172006" lon="14.610869223939014"><ele>296.0</ele><time>2026-05-02T13:50:19Z</time></trkpt><trkpt lat="41.07173644514978" lon="14.610881264187414"><ele>296.0</ele><time>2026-05-02T13:50:20Z</time></trkpt><trkpt lat="41.071637169662075" lon="14.61089050271144"><ele>296.0</ele><time>2026-05-02T13:50:21Z</time></trkpt><trkpt lat="41.07153968383321" lon="14.610858531278454"><ele>296.0</ele><time>2026-05-02T13:50:22Z</time></trkpt><trkpt lat="41.071452890700655" lon="14.610840439732817"><ele>296.0</ele><time>2026-05-02T13:50:23Z</time></trkpt><trkpt lat="41.07132639778525" lon="14.610735950771229"><ele>296.0</ele><time>2026-05-02T13:50:25Z</time></trkpt><trkpt lat="41.07125851680763" lon="14.610617468255453"><ele>293.0</ele><time>2026-05-02T13:50:26Z</time></trkpt><trkpt lat="41.07116115471679" lon="14.61048910958661"><ele>290.0</ele><time>2026-05-02T13:50:27Z</time></trkpt><trkpt lat="41.07101740360366" lon="14.61037224677126"><ele>287.0</ele><time>2026-05-02T13:50:28Z</time></trkpt><trkpt lat="41.07085239229261" lon="14.610271866035582"><ele>284.33333333333337</ele><time>2026-05-02T13:50:29Z</time></trkpt><trkpt lat="41.07071154790183" lon="14.6101424416898"><ele>281.6666666666667</ele><time>2026-05-02T13:50:30Z</time></trkpt><trkpt lat="41.070599165402776" lon="14.609982266336331"><ele>279.0</ele><time>2026-05-02T13:50:31Z</time></trkpt><trkpt lat="41.07048611855553" lon="14.60979387783388"><ele>279.0</ele><time>2026-05-02T13:50:32Z</time></trkpt><trkpt lat="41.07037130393957" lon="14.609552658606736"><ele>279.0</ele><time>2026-05-02T13:50:33Z</time></trkpt><trkpt lat="41.07025981557117" lon="14.609319143634199"><ele>279.0</ele><time>2026-05-02T13:50:34Z</time></trkpt><trkpt lat="41.07014044505395" lon="14.609126409918426"><ele>278.3333333333333</ele><time>2026-05-02T13:50:35Z</time></trkpt><trkpt lat="41.07000220924509" lon="14.608981203470046"><ele>277.66666666666663</ele><time>2026-05-02T13:50:36Z</time></trkpt><trkpt lat="41.06985692862748" lon="14.608862970507206"><ele>277.0</ele><time>2026-05-02T13:50:37Z</time></trkpt><trkpt lat="41.06969562528228" lon="14.608761531732581"><ele>275.3333333333333</ele><time>2026-05-02T13:50:38Z</time></trkpt><trkpt lat="41.06952003778546" lon="14.608654199453522"><ele>273.6666666666667</ele><time>2026-05-02T13:50:39Z</time></trkpt><trkpt lat="41.069334189245644" lon="14.60856219859579"><ele>272.0</ele><time>2026-05-02T13:50:40Z</time></trkpt><trkpt lat="41.0691239187161" lon="14.608475208416928"><ele>271.33333333333337</ele><time>2026-05-02T13:50:41Z</time></trkpt><trkpt lat="41.06891568246611" lon="14.608390055162063"><ele>270.6666666666667</ele><time>2026-05-02T13:50:42Z</time></trkpt><trkpt lat="41.06873018371452" lon="14.608313681999887"><ele>270.0</ele><time>2026-05-02T13:50:43Z</time></trkpt><trkpt lat="41.06856871723998" lon="14.608243446577525"><ele>270.0</ele><time>2026-05-02T13:50:44Z</time></trkpt><trkpt lat="41.06842109279772" lon="14.608173742110427"><ele>270.0</ele><time>2026-05-02T13:50:45Z</time></trkpt><trkpt lat="41.06829123035908" lon="14.608114339709592"><ele>270.0</ele><time>2026-05-02T13:50:46Z</time></trkpt><trkpt lat="41.068187375065335" lon="14.608064433073688"><ele>270.0</ele><time>2026-05-02T13:50:47Z</time></trkpt><trkpt lat="41.06810587670789" lon="14.608025911893193"><ele>269.6</ele><time>2026-05-02T13:50:48Z</time></trkpt><trkpt lat="41.068021560938455" lon="14.607996713203173"><ele>269.2</ele><time>2026-05-02T13:50:50Z</time></trkpt><trkpt lat="41.06795778096024" lon="14.608012709563145"><ele>268.8</ele><time>2026-05-02T13:50:51Z</time></trkpt><trkpt lat="41.0678668410598" lon="14.607838299210076"><ele>268.4</ele><time>2026-05-02T13:50:52Z</time></trkpt><trkpt lat="41.06778430783593" lon="14.607702792641597"><ele>268.0</ele><time>2026-05-02T13:50:53Z</time></trkpt><trkpt lat="41.06771070402642" lon="14.607525075452637"><ele>268.0</ele><time>2026-05-02T13:50:54Z</time></trkpt><trkpt lat="41.067659323310444" lon="14.607312860601969"><ele>268.0</ele><time>2026-05-02T13:50:55Z</time></trkpt><trkpt lat="41.06763439560342" lon="14.607063841839684"><ele>268.0</ele><time>2026-05-02T13:50:56Z</time></trkpt><trkpt lat="41.067617483919385" lon="14.606768947327947"><ele>268.0</ele><time>2026-05-02T13:50:57Z</time></trkpt><trkpt lat="41.06761263194712" lon="14.606478056889392"><ele>268.0</ele><time>2026-05-02T13:50:58Z</time></trkpt><trkpt lat="41.06763043211391" lon="14.606153445289747"><ele>268.0</ele><time>2026-05-02T13:50:59Z</time></trkpt><trkpt lat="41.0676787311834" lon="14.60581256178213"><ele>268.0</ele><time>2026-05-02T13:51:00Z</time></trkpt><trkpt lat="41.067723397042315" lon="14.60546090994709"><ele>268.0</ele><time>2026-05-02T13:51:01Z</time></trkpt><trkpt lat="41.06775099166257" lon="14.605097103682189"><ele>268.0</ele><time>2026-05-02T13:51:02Z</time></trkpt><trkpt lat="41.0677519027159" lon="14.604760114904446"><ele>267.5</ele><time>2026-05-02T13:51:03Z</time></trkpt><trkpt lat="41.06774558246096" lon="14.604447660729978"><ele>267.0</ele><time>2026-05-02T13:51:04Z</time></trkpt><trkpt lat="41.06774024112678" lon="14.604146749819957"><ele>267.0</ele><time>2026-05-02T13:51:05Z</time></trkpt><trkpt lat="41.06773933023414" lon="14.60387028568774"><ele>267.0</ele><time>2026-05-02T13:51:06Z</time></trkpt><trkpt lat="41.06774595164831" lon="14.60359808307339"><ele>267.0</ele><time>2026-05-02T13:51:07Z</time></trkpt><trkpt lat="41.06777371167688" lon="14.603315955415686"><ele>266.0</ele><time>2026-05-02T13:51:08Z</time></trkpt><trkpt lat="41.067822401793514" lon="14.603028552596983"><ele>265.0</ele><time>2026-05-02T13:51:09Z</time></trkpt><trkpt lat="41.067886984655054" lon="14.602736146031395"><ele>264.5</ele><time>2026-05-02T13:51:10Z</time></trkpt><trkpt lat="41.067962323366416" lon="14.60243779120699"><ele>264.0</ele><time>2026-05-02T13:51:11Z</time></trkpt><trkpt lat="41.068041628982385" lon="14.602132609521778"><ele>263.5</ele><time>2026-05-02T13:51:12Z</time></trkpt><trkpt lat="41.06812628806323" lon="14.60182247435314"><ele>263.0</ele><time>2026-05-02T13:51:13Z</time></trkpt><trkpt lat="41.06821207859849" lon="14.601493242900215"><ele>263.5</ele><time>2026-05-02T13:51:14Z</time></trkpt><trkpt lat="41.068311928032166" lon="14.60112850067365"><ele>264.0</ele><time>2026-05-02T13:51:15Z</time></trkpt><trkpt lat="41.06843547137802" lon="14.600694401890257"><ele>264.5</ele><time>2026-05-02T13:51:16Z</time></trkpt><trkpt lat="41.06856535490192" lon="14.600242761753263"><ele>265.0</ele><time>2026-05-02T13:51:17Z</time></trkpt><trkpt lat="41.06861928882287" lon="14.59998962110449"><ele>265.0</ele><time>2026-05-02T13:51:18Z</time></trkpt><trkpt lat="41.06871833573314" lon="14.599613371326694"><ele>265.0</ele><time>2026-05-02T13:51:19Z</time></trkpt><trkpt lat="41.06880764959333" lon="14.599277223859955"><ele>264.0</ele><time>2026-05-02T13:51:20Z</time></trkpt><trkpt lat="41.0688921023065" lon="14.598970727495328"><ele>263.0</ele><time>2026-05-02T13:51:21Z</time></trkpt><trkpt lat="41.068960804183945" lon="14.598694304086917"><ele>263.0</ele><time>2026-05-02T13:51:22Z</time></trkpt><trkpt lat="41.069022976460055" lon="14.59845669793618"><ele>263.0</ele><time>2026-05-02T13:51:23Z</time></trkpt><trkpt lat="41.06907093706772" lon="14.598284182924571"><ele>263.0</ele><time>2026-05-02T13:51:24Z</time></trkpt><trkpt lat="41.0691285141118" lon="14.598165531139312"><ele>263.0</ele><time>2026-05-02T13:51:25Z</time></trkpt><trkpt lat="41.06915255231809" lon="14.598070469839495"><ele>263.0</ele><time>2026-05-02T13:51:26Z</time></trkpt><trkpt lat="41.069153314282204" lon="14.5979459014421"><ele>263.0</ele><time>2026-05-02T13:51:28Z</time></trkpt><trkpt lat="41.06905223975963" lon="14.597848345427156"><ele>263.0</ele><time>2026-05-02T13:51:29Z</time></trkpt><trkpt lat="41.068949061653676" lon="14.597679287449063"><ele>263.0</ele><time>2026-05-02T13:51:30Z</time></trkpt><trkpt lat="41.068890302796035" lon="14.597449030845313"><ele>262.5</ele><time>2026-05-02T13:51:31Z</time></trkpt><trkpt lat="41.06883127133086" lon="14.597156387043384"><ele>262.0</ele><time>2026-05-02T13:51:32Z</time></trkpt><trkpt lat="41.06876990240661" lon="14.596867505318588"><ele>261.66666666666663</ele><time>2026-05-02T13:51:33Z</time></trkpt><trkpt lat="41.068709951488565" lon="14.59660076484159"><ele>261.3333333333333</ele><time>2026-05-02T13:51:34Z</time></trkpt><trkpt lat="41.068658826785956" lon="14.596336190545626"><ele>261.0</ele><time>2026-05-02T13:51:35Z</time></trkpt><trkpt lat="41.068619329593275" lon="14.59607042933001"><ele>261.0</ele><time>2026-05-02T13:51:36Z</time></trkpt><trkpt lat="41.06857351647448" lon="14.595819244036393"><ele>261.0</ele><time>2026-05-02T13:51:37Z</time></trkpt><trkpt lat="41.068531845166525" lon="14.59555975565238"><ele>261.0</ele><time>2026-05-02T13:51:38Z</time></trkpt><trkpt lat="41.068481358009905" lon="14.595299653109874"><ele>261.0</ele><time>2026-05-02T13:51:39Z</time></trkpt><trkpt lat="41.06840778534426" lon="14.595047558405778"><ele>261.0</ele><time>2026-05-02T13:51:40Z</time></trkpt><trkpt lat="41.06834801543286" lon="14.594789416459086"><ele>261.0</ele><time>2026-05-02T13:51:41Z</time></trkpt><trkpt lat="41.06827959969052" lon="14.594521137494562"><ele>260.6666666666667</ele><time>2026-05-02T13:51:42Z</time></trkpt><trkpt lat="41.068216844453744" lon="14.594275699058265"><ele>260.33333333333337</ele><time>2026-05-02T13:51:43Z</time></trkpt><trkpt lat="41.068157037982694" lon="14.594060657122984"><ele>260.0</ele><time>2026-05-02T13:51:44Z</time></trkpt><trkpt lat="41.06808699591802" lon="14.593833422187206"><ele>260.0</ele><time>2026-05-02T13:51:45Z</time></trkpt><trkpt lat="41.06801674860753" lon="14.593650992468856"><ele>260.0</ele><time>2026-05-02T13:51:46Z</time></trkpt><trkpt lat="41.067958213364804" lon="14.593513331344907"><ele>260.0</ele><time>2026-05-02T13:51:47Z</time></trkpt><trkpt lat="41.0678899908081" lon="14.593334493267733"><ele>260.0</ele><time>2026-05-02T13:51:48Z</time></trkpt><trkpt lat="41.06781335829901" lon="14.593134912576211"><ele>260.0</ele><time>2026-05-02T13:51:49Z</time></trkpt><trkpt lat="41.067730361438066" lon="14.592937600137278"><ele>260.0</ele><time>2026-05-02T13:51:50Z</time></trkpt><trkpt lat="41.06764745498299" lon="14.59272411062661"><ele>260.0</ele><time>2026-05-02T13:51:51Z</time></trkpt><trkpt lat="41.06756193115486" lon="14.59250717465512"><ele>259.33333333333337</ele><time>2026-05-02T13:51:52Z</time></trkpt><trkpt lat="41.06747650626052" lon="14.592280577111753"><ele>258.6666666666667</ele><time>2026-05-02T13:51:53Z</time></trkpt><trkpt lat="41.06740327872508" lon="14.592048535592403"><ele>258.0</ele><time>2026-05-02T13:51:54Z</time></trkpt><trkpt lat="41.067335887340654" lon="14.59180972029355"><ele>258.0</ele><time>2026-05-02T13:51:55Z</time></trkpt><trkpt lat="41.06727384679034" lon="14.591565233619336"><ele>258.0</ele><time>2026-05-02T13:51:56Z</time></trkpt><trkpt lat="41.0672219190269" lon="14.591312411035485"><ele>258.0</ele><time>2026-05-02T13:51:57Z</time></trkpt><trkpt lat="41.06716155938617" lon="14.591044369765951"><ele>258.3333333333333</ele><time>2026-05-02T13:51:58Z</time></trkpt><trkpt lat="41.06711251275963" lon="14.590771176031623"><ele>258.66666666666663</ele><time>2026-05-02T13:51:59Z</time></trkpt><trkpt lat="41.06706587538196" lon="14.590497402085465"><ele>259.0</ele><time>2026-05-02T13:52:00Z</time></trkpt><trkpt lat="41.06702261374606" lon="14.590237233650189"><ele>259.0</ele><time>2026-05-02T13:52:01Z</time></trkpt><trkpt lat="41.066972329780214" lon="14.589991062289801"><ele>259.0</ele><time>2026-05-02T13:52:02Z</time></trkpt><trkpt lat="41.06692993267267" lon="14.589737847759922"><ele>259.0</ele><time>2026-05-02T13:52:02.999Z</time></trkpt><trkpt lat="41.066888516403125" lon="14.58948630974794"><ele>259.3333333333333</ele><time>2026-05-02T13:52:03.999Z</time></trkpt><trkpt lat="41.06684876977634" lon="14.589239963470012"><ele>259.6666666666667</ele><time>2026-05-02T13:52:04.999Z</time></trkpt><trkpt lat="41.0668108013248" lon="14.58899613461216"><ele>260.0</ele><time>2026-05-02T13:52:05.999Z</time></trkpt><trkpt lat="41.066775189565654" lon="14.58876493313446"><ele>259.6666666666667</ele><time>2026-05-02T13:52:06.999Z</time></trkpt><trkpt lat="41.066740083462044" lon="14.588549202083023"><ele>259.3333333333333</ele><time>2026-05-02T13:52:07.999Z</time></trkpt><trkpt lat="41.06670759431322" lon="14.58835696140438"><ele>259.0</ele><time>2026-05-02T13:52:08.999Z</time></trkpt><trkpt lat="41.06667076737241" lon="14.588151469309768"><ele>259.0</ele><time>2026-05-02T13:52:09.999Z</time></trkpt><trkpt lat="41.06663965919944" lon="14.58794571998911"><ele>259.0</ele><time>2026-05-02T13:52:10.999Z</time></trkpt><trkpt lat="41.066610908200474" lon="14.587758695788464"><ele>259.0</ele><time>2026-05-02T13:52:11.999Z</time></trkpt><trkpt lat="41.066567258992855" lon="14.587597316550564"><ele>259.0</ele><time>2026-05-02T13:52:12.999Z</time></trkpt><trkpt lat="41.06651668541699" lon="14.587428981571852"><ele>259.25</ele><time>2026-05-02T13:52:13.999Z</time></trkpt><trkpt lat="41.06646040812504" lon="14.587277649963157"><ele>259.5</ele><time>2026-05-02T13:52:14.999Z</time></trkpt><trkpt lat="41.06639800041603" lon="14.587122248625594"><ele>259.75</ele><time>2026-05-02T13:52:16Z</time></trkpt><trkpt lat="41.066324931711826" lon="14.586970597925326"><ele>260.0</ele><time>2026-05-02T13:52:17Z</time></trkpt><trkpt lat="41.066242068191606" lon="14.586820283283139"><ele>260.0</ele><time>2026-05-02T13:52:18Z</time></trkpt><trkpt lat="41.066150836885" lon="14.586668409783092"><ele>260.0</ele><time>2026-05-02T13:52:19Z</time></trkpt><trkpt lat="41.066067429454634" lon="14.586505122016996"><ele>260.0</ele><time>2026-05-02T13:52:20Z</time></trkpt><trkpt lat="41.065975471451935" lon="14.586343666076417"><ele>260.0</ele><time>2026-05-02T13:52:21Z</time></trkpt><trkpt lat="41.065893590143055" lon="14.586199367594698"><ele>259.5</ele><time>2026-05-02T13:52:22Z</time></trkpt><trkpt lat="41.065814725713764" lon="14.586044718038544"><ele>259.0</ele><time>2026-05-02T13:52:23Z</time></trkpt><trkpt lat="41.06572530041296" lon="14.585896521242782"><ele>258.5</ele><time>2026-05-02T13:52:24Z</time></trkpt><trkpt lat="41.06562969469468" lon="14.585746831311177"><ele>258.0</ele><time>2026-05-02T13:52:25Z</time></trkpt><trkpt lat="41.06552771641567" lon="14.585610246730054"><ele>258.0</ele><time>2026-05-02T13:52:26Z</time></trkpt><trkpt lat="41.06542009696149" lon="14.585488484567916"><ele>258.0</ele><time>2026-05-02T13:52:27Z</time></trkpt><trkpt lat="41.06532048219216" lon="14.58535021829376"><ele>258.0</ele><time>2026-05-02T13:52:28Z</time></trkpt><trkpt lat="41.06522574222741" lon="14.585209286083167"><ele>258.0</ele><time>2026-05-02T13:52:29Z</time></trkpt><trkpt lat="41.06513978951215" lon="14.58505568600014"><ele>258.0</ele><time>2026-05-02T13:52:30Z</time></trkpt><trkpt lat="41.06505508750725" lon="14.584867421069555"><ele>258.0</ele><time>2026-05-02T13:52:31Z</time></trkpt><trkpt lat="41.064979206590806" lon="14.584653430083629"><ele>258.0</ele><time>2026-05-02T13:52:32Z</time></trkpt><trkpt lat="41.06493109470001" lon="14.584429606098535"><ele>256.25</ele><time>2026-05-02T13:52:33Z</time></trkpt><trkpt lat="41.06490117949429" lon="14.584220685777613"><ele>254.5</ele><time>2026-05-02T13:52:34Z</time></trkpt><trkpt lat="41.064882967627504" lon="14.584030844926385"><ele>252.75</ele><time>2026-05-02T13:52:35Z</time></trkpt><trkpt lat="41.06487363707729" lon="14.583854188992413"><ele>251.0</ele><time>2026-05-02T13:52:36Z</time></trkpt><trkpt lat="41.06486900857732" lon="14.58365801662505"><ele>251.0</ele><time>2026-05-02T13:52:37Z</time></trkpt><trkpt lat="41.064868164154454" lon="14.58347098822313"><ele>251.0</ele><time>2026-05-02T13:52:38Z</time></trkpt><trkpt lat="41.064859560242546" lon="14.583316401199284"><ele>251.0</ele><time>2026-05-02T13:52:39Z</time></trkpt><trkpt lat="41.06485704916078" lon="14.58317982221339"><ele>251.0</ele><time>2026-05-02T13:52:40Z</time></trkpt><trkpt lat="41.064869238901004" lon="14.583055081329396"><ele>251.0</ele><time>2026-05-02T13:52:41Z</time></trkpt><trkpt lat="41.064888419775656" lon="14.582941690629587"><ele>251.00000000000003</ele><time>2026-05-02T13:52:42Z</time></trkpt><trkpt lat="41.06493224829366" lon="14.5828383020407"><ele>251.00000000000003</ele><time>2026-05-02T13:52:43Z</time></trkpt><trkpt lat="41.06501347174487" lon="14.582749413454252"><ele>251.0</ele><time>2026-05-02T13:52:44Z</time></trkpt><trkpt lat="41.06509824826847" lon="14.58266537383451"><ele>251.0</ele><time>2026-05-02T13:52:45Z</time></trkpt><trkpt lat="41.06516362389714" lon="14.582583505887182"><ele>251.16666666666669</ele><time>2026-05-02T13:52:46Z</time></trkpt><trkpt lat="41.06522179923208" lon="14.58251858624428"><ele>251.33333333333334</ele><time>2026-05-02T13:52:47Z</time></trkpt><trkpt lat="41.065274530128306" lon="14.582442349442005"><ele>251.5</ele><time>2026-05-02T13:52:48Z</time></trkpt><trkpt lat="41.065301906191266" lon="14.582348725100537"><ele>251.66666666666669</ele><time>2026-05-02T13:52:49Z</time></trkpt><trkpt lat="41.065306845375055" lon="14.58223475419152"><ele>251.83333333333334</ele><time>2026-05-02T13:52:50Z</time></trkpt><trkpt lat="41.06526961599871" lon="14.582127031620184"><ele>252.0</ele><time>2026-05-02T13:52:51Z</time></trkpt><trkpt lat="41.065212490718864" lon="14.581986109814718"><ele>251.25</ele><time>2026-05-02T13:52:52Z</time></trkpt><trkpt lat="41.0651414367878" lon="14.581837399573436"><ele>250.5</ele><time>2026-05-02T13:52:53Z</time></trkpt><trkpt lat="41.06507257748285" lon="14.58168604503116"><ele>249.75</ele><time>2026-05-02T13:52:54Z</time></trkpt><trkpt lat="41.065012696170925" lon="14.581515116048267"><ele>249.0</ele><time>2026-05-02T13:52:55Z</time></trkpt><trkpt lat="41.064941441498775" lon="14.58131055108153"><ele>248.33333333333331</ele><time>2026-05-02T13:52:56Z</time></trkpt><trkpt lat="41.06484993011587" lon="14.581070187908386"><ele>247.66666666666666</ele><time>2026-05-02T13:52:57Z</time></trkpt><trkpt lat="41.064759435013016" lon="14.580829298090638"><ele>247.0</ele><time>2026-05-02T13:52:58Z</time></trkpt><trkpt lat="41.06466374072497" lon="14.580577422413326"><ele>246.66666666666666</ele><time>2026-05-02T13:52:59Z</time></trkpt><trkpt lat="41.064574270618415" lon="14.580319841390024"><ele>246.33333333333331</ele><time>2026-05-02T13:53:00Z</time></trkpt><trkpt lat="41.06448751814519" lon="14.580090143492082"><ele>246.0</ele><time>2026-05-02T13:53:01Z</time></trkpt><trkpt lat="41.064412898955034" lon="14.579882127387148"><ele>246.0</ele><time>2026-05-02T13:53:02Z</time></trkpt><trkpt lat="41.06435802479266" lon="14.579678128102739"><ele>246.0</ele><time>2026-05-02T13:53:03Z</time></trkpt><trkpt lat="41.06431715886175" lon="14.579489728611303"><ele>246.0</ele><time>2026-05-02T13:53:04Z</time></trkpt><trkpt lat="41.06426551341638" lon="14.579321712738828"><ele>246.0</ele><time>2026-05-02T13:53:05Z</time></trkpt><trkpt lat="41.06418381605284" lon="14.579164817357833"><ele>247.0</ele><time>2026-05-02T13:53:06Z</time></trkpt><trkpt lat="41.064098480990374" lon="14.579019144414962"><ele>248.0</ele><time>2026-05-02T13:53:07Z</time></trkpt><trkpt lat="41.06403910608443" lon="14.578862361730451"><ele>249.0</ele><time>2026-05-02T13:53:08Z</time></trkpt><trkpt lat="41.06400699552059" lon="14.578682838789602"><ele>250.0</ele><time>2026-05-02T13:53:09Z</time></trkpt><trkpt lat="41.064020474052555" lon="14.578486968555167"><ele>251.33333333333331</ele><time>2026-05-02T13:53:10Z</time></trkpt><trkpt lat="41.064036113917005" lon="14.578275234983758"><ele>252.66666666666669</ele><time>2026-05-02T13:53:11Z</time></trkpt><trkpt lat="41.06404257655098" lon="14.57807597406437"><ele>254.0</ele><time>2026-05-02T13:53:12Z</time></trkpt><trkpt lat="41.06407708363597" lon="14.57788302464596"><ele>254.66666666666669</ele><time>2026-05-02T13:53:13Z</time></trkpt><trkpt lat="41.06411257880931" lon="14.57768880736431"><ele>255.33333333333331</ele><time>2026-05-02T13:53:14Z</time></trkpt><trkpt lat="41.0641595443196" lon="14.57745614569489"><ele>256.0</ele><time>2026-05-02T13:53:15Z</time></trkpt><trkpt lat="41.06419385881312" lon="14.5772403660361"><ele>254.20000000000002</ele><time>2026-05-02T13:53:16Z</time></trkpt><trkpt lat="41.06421678346099" lon="14.577041059198466"><ele>252.40000000000003</ele><time>2026-05-02T13:53:17Z</time></trkpt><trkpt lat="41.06421370414075" lon="14.57690542985937"><ele>250.6</ele><time>2026-05-02T13:53:18Z</time></trkpt><trkpt lat="41.064210123956904" lon="14.57676941164607"><ele>248.8</ele><time>2026-05-02T13:53:19Z</time></trkpt><trkpt lat="41.06422063810921" lon="14.57667128554877"><ele>247.0</ele><time>2026-05-02T13:53:21Z</time></trkpt><trkpt lat="41.06441239010299" lon="14.576676604412127"><ele>247.0</ele><time>2026-05-02T13:53:25Z</time></trkpt><trkpt lat="41.06451557652648" lon="14.576652712660328"><ele>247.0</ele><time>2026-05-02T13:53:26Z</time></trkpt><trkpt lat="41.064631777740125" lon="14.576591322204132"><ele>247.0</ele><time>2026-05-02T13:53:27Z</time></trkpt><trkpt lat="41.0647607150405" lon="14.576550697325105"><ele>247.0</ele><time>2026-05-02T13:53:28Z</time></trkpt><trkpt lat="41.064879846516064" lon="14.576485183910785"><ele>246.5</ele><time>2026-05-02T13:53:29Z</time></trkpt><trkpt lat="41.06501217276009" lon="14.576454386040684"><ele>246.0</ele><time>2026-05-02T13:53:30Z</time></trkpt><trkpt lat="41.06513590790989" lon="14.576418346866557"><ele>245.5</ele><time>2026-05-02T13:53:31Z</time></trkpt><trkpt lat="41.06524211701687" lon="14.576378921770798"><ele>245.0</ele><time>2026-05-02T13:53:32Z</time></trkpt><trkpt lat="41.06533311481714" lon="14.57634836657863"><ele>245.0</ele><time>2026-05-02T13:53:33Z</time></trkpt><trkpt lat="41.06540767121007" lon="14.57633461511035"><ele>245.0</ele><time>2026-05-02T13:53:34Z</time></trkpt><trkpt lat="41.06547124032039" lon="14.576325743694952"><ele>245.0</ele><time>2026-05-02T13:53:35Z</time></trkpt><trkpt lat="41.06556407282578" lon="14.576258696639753"><ele>245.0</ele><time>2026-05-02T13:53:37Z</time></trkpt><trkpt lat="41.06558316207474" lon="14.576123489972423"><ele>245.0</ele><time>2026-05-02T13:53:38Z</time></trkpt><trkpt lat="41.06562691539487" lon="14.575996499758768"><ele>245.25</ele><time>2026-05-02T13:53:39Z</time></trkpt><trkpt lat="41.06566523343157" lon="14.575836200733802"><ele>245.5</ele><time>2026-05-02T13:53:40Z</time></trkpt><trkpt lat="41.06567431129939" lon="14.575665432624504"><ele>245.75</ele><time>2026-05-02T13:53:41Z</time></trkpt><trkpt lat="41.06563013055557" lon="14.57548767301176"><ele>246.0</ele><time>2026-05-02T13:53:42Z</time></trkpt><trkpt lat="41.06555443940087" lon="14.57526437340491"><ele>246.0</ele><time>2026-05-02T13:53:43Z</time></trkpt><trkpt lat="41.065481146782666" lon="14.57502458055778"><ele>246.0</ele><time>2026-05-02T13:53:44Z</time></trkpt><trkpt lat="41.06543266375343" lon="14.574789943203811"><ele>246.0</ele><time>2026-05-02T13:53:45Z</time></trkpt><trkpt lat="41.06537952923994" lon="14.57455306864761"><ele>245.66666666666669</ele><time>2026-05-02T13:53:46Z</time></trkpt><trkpt lat="41.065332809025165" lon="14.574315800942614"><ele>245.33333333333334</ele><time>2026-05-02T13:53:47Z</time></trkpt><trkpt lat="41.065297258767764" lon="14.574072924905296"><ele>245.0</ele><time>2026-05-02T13:53:48Z</time></trkpt><trkpt lat="41.06528068287628" lon="14.573845436477814"><ele>245.33333333333334</ele><time>2026-05-02T13:53:49Z</time></trkpt><trkpt lat="41.06527514245752" lon="14.573632897495216"><ele>245.66666666666669</ele><time>2026-05-02T13:53:50Z</time></trkpt><trkpt lat="41.065263846330126" lon="14.573435316099973"><ele>246.0</ele><time>2026-05-02T13:53:51Z</time></trkpt><trkpt lat="41.06525044233159" lon="14.573234955931362"><ele>246.0</ele><time>2026-05-02T13:53:52Z</time></trkpt><trkpt lat="41.06523868652849" lon="14.573015027723564"><ele>246.0</ele><time>2026-05-02T13:53:53Z</time></trkpt><trkpt lat="41.06522118143235" lon="14.57280353395124"><ele>246.0</ele><time>2026-05-02T13:53:53.999Z</time></trkpt><trkpt lat="41.065209270659864" lon="14.57261355244721"><ele>245.66666666666669</ele><time>2026-05-02T13:53:54.999Z</time></trkpt><trkpt lat="41.06519733941354" lon="14.572422505559596"><ele>245.33333333333334</ele><time>2026-05-02T13:53:55.999Z</time></trkpt><trkpt lat="41.06517312810987" lon="14.572223999154971"><ele>245.0</ele><time>2026-05-02T13:53:56.999Z</time></trkpt><trkpt lat="41.06515690635388" lon="14.572010920236984"><ele>245.0</ele><time>2026-05-02T13:53:57.999Z</time></trkpt><trkpt lat="41.06515080467523" lon="14.571792582557093"><ele>245.0</ele><time>2026-05-02T13:53:58.999Z</time></trkpt><trkpt lat="41.065156923718064" lon="14.57157384098034"><ele>245.0</ele><time>2026-05-02T13:53:59.999Z</time></trkpt><trkpt lat="41.06516259142241" lon="14.571348446124901"><ele>245.66666666666669</ele><time>2026-05-02T13:54:00.999Z</time></trkpt><trkpt lat="41.06517003432838" lon="14.571126696562915"><ele>246.33333333333331</ele><time>2026-05-02T13:54:01.999Z</time></trkpt><trkpt lat="41.065174246967686" lon="14.570931992013538"><ele>247.0</ele><time>2026-05-02T13:54:02.999Z</time></trkpt><trkpt lat="41.06516799402695" lon="14.570749681515318"><ele>247.0</ele><time>2026-05-02T13:54:03.999Z</time></trkpt><trkpt lat="41.06517200379989" lon="14.57058172454302"><ele>247.0</ele><time>2026-05-02T13:54:04.999Z</time></trkpt><trkpt lat="41.06517796495824" lon="14.570443607764767"><ele>247.0</ele><time>2026-05-02T13:54:05.999Z</time></trkpt><trkpt lat="41.06517466739829" lon="14.570322166948758"><ele>247.0</ele><time>2026-05-02T13:54:06.999Z</time></trkpt><trkpt lat="41.06517125543555" lon="14.57019704616626"><ele>247.0</ele><time>2026-05-02T13:54:07.999Z</time></trkpt><trkpt lat="41.065183623768746" lon="14.570073188555396"><ele>247.0</ele><time>2026-05-02T13:54:08.999Z</time></trkpt><trkpt lat="41.065189372751085" lon="14.5699221191169"><ele>247.0</ele><time>2026-05-02T13:54:09.999Z</time></trkpt><trkpt lat="41.065191061305875" lon="14.569730025662638"><ele>247.0</ele><time>2026-05-02T13:54:10.999Z</time></trkpt><trkpt lat="41.065192640717584" lon="14.569495411117828"><ele>247.0</ele><time>2026-05-02T13:54:11.999Z</time></trkpt><trkpt lat="41.06519101752444" lon="14.569218906001003"><ele>247.0</ele><time>2026-05-02T13:54:12.999Z</time></trkpt><trkpt lat="41.065185402970954" lon="14.56896799555359"><ele>247.0</ele><time>2026-05-02T13:54:13.999Z</time></trkpt><trkpt lat="41.065179820340845" lon="14.568769673238686"><ele>247.0</ele><time>2026-05-02T13:54:14.999Z</time></trkpt><trkpt lat="41.06514314168139" lon="14.56857500557789"><ele>247.33333333333331</ele><time>2026-05-02T13:54:15.999Z</time></trkpt><trkpt lat="41.06507477865641" lon="14.568377576025785"><ele>247.66666666666669</ele><time>2026-05-02T13:54:16.999Z</time></trkpt><trkpt lat="41.06498366730286" lon="14.568188749960775"><ele>248.0</ele><time>2026-05-02T13:54:17.999Z</time></trkpt><trkpt lat="41.06490477645856" lon="14.568043275137315"><ele>248.0</ele><time>2026-05-02T13:54:18.999Z</time></trkpt><trkpt lat="41.06483014457336" lon="14.56791349267317"><ele>248.0</ele><time>2026-05-02T13:54:19.999Z</time></trkpt><trkpt lat="41.06473421042413" lon="14.567778283447334"><ele>248.0</ele><time>2026-05-02T13:54:20.999Z</time></trkpt><trkpt lat="41.06461322975403" lon="14.567639395825722"><ele>248.0</ele><time>2026-05-02T13:54:22Z</time></trkpt><trkpt lat="41.06446142669975" lon="14.567490320246733"><ele>248.0</ele><time>2026-05-02T13:54:23Z</time></trkpt><trkpt lat="41.064318794711056" lon="14.567346541041541"><ele>248.0</ele><time>2026-05-02T13:54:24Z</time></trkpt><trkpt lat="41.064175948143614" lon="14.567222672737394"><ele>248.0</ele><time>2026-05-02T13:54:25Z</time></trkpt><trkpt lat="41.06403563927194" lon="14.567092308038957"><ele>249.0</ele><time>2026-05-02T13:54:26Z</time></trkpt><trkpt lat="41.063914388851046" lon="14.566984932838743"><ele>250.0</ele><time>2026-05-02T13:54:27Z</time></trkpt><trkpt lat="41.06379801979028" lon="14.566883684556236"><ele>251.0</ele><time>2026-05-02T13:54:28Z</time></trkpt><trkpt lat="41.06369273780652" lon="14.566778932494664"><ele>252.0</ele><time>2026-05-02T13:54:29Z</time></trkpt><trkpt lat="41.06361065284865" lon="14.566648106999889"><ele>252.0</ele><time>2026-05-02T13:54:30Z</time></trkpt><trkpt lat="41.06356442723358" lon="14.56652776787616"><ele>252.0</ele><time>2026-05-02T13:54:31Z</time></trkpt><trkpt lat="41.06358378321838" lon="14.566394244592864"><ele>252.0</ele><time>2026-05-02T13:54:32Z</time></trkpt><trkpt lat="41.06366274933547" lon="14.566237695472696"><ele>252.0</ele><time>2026-05-02T13:54:33Z</time></trkpt><trkpt lat="41.06374170006466" lon="14.566072936857596"><ele>252.5</ele><time>2026-05-02T13:54:34Z</time></trkpt><trkpt lat="41.063808596726034" lon="14.565919051125988"><ele>253.0</ele><time>2026-05-02T13:54:35Z</time></trkpt><trkpt lat="41.06388509704791" lon="14.56577913523073"><ele>253.5</ele><time>2026-05-02T13:54:36Z</time></trkpt><trkpt lat="41.063959152611815" lon="14.565644622194714"><ele>254.0</ele><time>2026-05-02T13:54:37Z</time></trkpt><trkpt lat="41.06403584662571" lon="14.565512041143995"><ele>254.0</ele><time>2026-05-02T13:54:38Z</time></trkpt><trkpt lat="41.06409581974582" lon="14.565388054967887"><ele>253.99999999999997</ele><time>2026-05-02T13:54:39Z</time></trkpt><trkpt lat="41.0641248116637" lon="14.565262738818435"><ele>253.99999999999997</ele><time>2026-05-02T13:54:40Z</time></trkpt><trkpt lat="41.064128165404675" lon="14.565140841734125"><ele>254.0</ele><time>2026-05-02T13:54:41Z</time></trkpt><trkpt lat="41.064096131513786" lon="14.565032220461795"><ele>254.0</ele><time>2026-05-02T13:54:42Z</time></trkpt><trkpt lat="41.06404908675261" lon="14.564879304359783"><ele>254.6</ele><time>2026-05-02T13:54:43Z</time></trkpt><trkpt lat="41.06399897624768" lon="14.564734530339273"><ele>255.2</ele><time>2026-05-02T13:54:44Z</time></trkpt><trkpt lat="41.063943675679965" lon="14.564637400891796"><ele>255.79999999999998</ele><time>2026-05-02T13:54:45Z</time></trkpt><trkpt lat="41.06390257435535" lon="14.564565653257842"><ele>256.4</ele><time>2026-05-02T13:54:46Z</time></trkpt><trkpt lat="41.063862717128984" lon="14.564455386861821"><ele>257.0</ele><time>2026-05-02T13:54:48Z</time></trkpt><trkpt lat="41.06382972661945" lon="14.564343009849903"><ele>257.33333333333337</ele><time>2026-05-02T13:54:56Z</time></trkpt><trkpt lat="41.06379459814618" lon="14.564257264194449"><ele>257.6666666666667</ele><time>2026-05-02T13:54:57Z</time></trkpt><trkpt lat="41.06376265571931" lon="14.564164973046209"><ele>258.0</ele><time>2026-05-02T13:54:58Z</time></trkpt><trkpt lat="41.063701942898334" lon="14.56405337855246"><ele>258.3333333333333</ele><time>2026-05-02T13:55:00Z</time></trkpt><trkpt lat="41.06366574286326" lon="14.563984189014903"><ele>258.66666666666663</ele><time>2026-05-02T13:55:03Z</time></trkpt><trkpt lat="41.06363529248823" lon="14.563905115436459"><ele>259.0</ele><time>2026-05-02T13:55:05Z</time></trkpt><trkpt lat="41.063570019766" lon="14.563806653508092"><ele>259.0</ele><time>2026-05-02T13:55:07Z</time></trkpt><trkpt lat="41.06358424063804" lon="14.563675504680509"><ele>259.0</ele><time>2026-05-02T13:55:08Z</time></trkpt><trkpt lat="41.06355005853266" lon="14.56351776416759"><ele>259.0</ele><time>2026-05-02T13:55:10Z</time></trkpt><trkpt lat="41.063551697910576" lon="14.56343065353895"><ele>259.0</ele><time>2026-05-02T13:55:11Z</time></trkpt><trkpt lat="41.06354370332322" lon="14.56331537753337"><ele>259.0</ele><time>2026-05-02T13:55:12Z</time></trkpt><trkpt lat="41.063525622374584" lon="14.563140808847013"><ele>259.0</ele><time>2026-05-02T13:55:13Z</time></trkpt><trkpt lat="41.063517748580345" lon="14.563008618088068"><ele>259.0</ele><time>2026-05-02T13:55:14Z</time></trkpt><trkpt lat="41.063510375679115" lon="14.562895739766391"><ele>259.0</ele><time>2026-05-02T13:55:15Z</time></trkpt><trkpt lat="41.06350183482945" lon="14.562807086037337"><ele>259.0</ele><time>2026-05-02T13:55:16Z</time></trkpt><trkpt lat="41.063488521412665" lon="14.562715548485674"><ele>259.0</ele><time>2026-05-02T13:55:17Z</time></trkpt><trkpt lat="41.063474854386946" lon="14.562628173842533"><ele>259.0</ele><time>2026-05-02T13:55:18Z</time></trkpt><trkpt lat="41.06345635237855" lon="14.562499753835418"><ele>259.2</ele><time>2026-05-02T13:55:19Z</time></trkpt><trkpt lat="41.063430347616965" lon="14.562326695179893"><ele>259.4</ele><time>2026-05-02T13:55:20Z</time></trkpt><trkpt lat="41.063397574924956" lon="14.562206889433446"><ele>259.6</ele><time>2026-05-02T13:55:21Z</time></trkpt><trkpt lat="41.06336954034916" lon="14.562094686051053"><ele>259.8</ele><time>2026-05-02T13:55:22Z</time></trkpt><trkpt lat="41.063333765379134" lon="14.561974294097814"><ele>260.0</ele><time>2026-05-02T13:55:23Z</time></trkpt><trkpt lat="41.06329903648821" lon="14.561844742747196"><ele>260.4</ele><time>2026-05-02T13:55:24Z</time></trkpt><trkpt lat="41.06326213404386" lon="14.561714167282316"><ele>260.8</ele><time>2026-05-02T13:55:25Z</time></trkpt><trkpt lat="41.06322588864308" lon="14.561586972930016"><ele>261.2</ele><time>2026-05-02T13:55:26Z</time></trkpt><trkpt lat="41.0631840696939" lon="14.561468509694349"><ele>261.6</ele><time>2026-05-02T13:55:27Z</time></trkpt><trkpt lat="41.063147119223146" lon="14.561363622151779"><ele>262.0</ele><time>2026-05-02T13:55:28Z</time></trkpt><trkpt lat="41.063113004292106" lon="14.561244784605165"><ele>262.0</ele><time>2026-05-02T13:55:29Z</time></trkpt><trkpt lat="41.06307628386231" lon="14.561113240662397"><ele>262.0</ele><time>2026-05-02T13:55:30Z</time></trkpt><trkpt lat="41.06302706430537" lon="14.560997018970262"><ele>262.0</ele><time>2026-05-02T13:55:31Z</time></trkpt><trkpt lat="41.062985866769324" lon="14.560885819449556"><ele>262.0</ele><time>2026-05-02T13:55:32Z</time></trkpt><trkpt lat="41.062945975778966" lon="14.560775667489532"><ele>262.0</ele><time>2026-05-02T13:55:33Z</time></trkpt><trkpt lat="41.06290792295857" lon="14.56065994270529"><ele>262.0</ele><time>2026-05-02T13:55:34Z</time></trkpt><trkpt lat="41.062858521893965" lon="14.560544465151548"><ele>262.0</ele><time>2026-05-02T13:55:35Z</time></trkpt><trkpt lat="41.06281101774102" lon="14.560439216422138"><ele>262.0</ele><time>2026-05-02T13:55:36Z</time></trkpt><trkpt lat="41.06275939467888" lon="14.560327566461025"><ele>262.0</ele><time>2026-05-02T13:55:37Z</time></trkpt><trkpt lat="41.062718010430586" lon="14.560213210820121"><ele>262.0</ele><time>2026-05-02T13:55:38Z</time></trkpt><trkpt lat="41.06267574055591" lon="14.560101882498332"><ele>262.16666666666663</ele><time>2026-05-02T13:55:39Z</time></trkpt><trkpt lat="41.06263797459065" lon="14.559998206430638"><ele>262.3333333333333</ele><time>2026-05-02T13:55:40Z</time></trkpt><trkpt lat="41.062593385089464" lon="14.559900466639586"><ele>262.5</ele><time>2026-05-02T13:55:41Z</time></trkpt><trkpt lat="41.062547232521275" lon="14.559809864566175"><ele>262.6666666666667</ele><time>2026-05-02T13:55:42Z</time></trkpt><trkpt lat="41.062504400008784" lon="14.559710256042376"><ele>262.83333333333337</ele><time>2026-05-02T13:55:43Z</time></trkpt><trkpt lat="41.06246013980173" lon="14.559610202697282"><ele>263.0</ele><time>2026-05-02T13:55:44Z</time></trkpt><trkpt lat="41.06241538769394" lon="14.559515916972957"><ele>263.0</ele><time>2026-05-02T13:55:45Z</time></trkpt><trkpt lat="41.06237301284681" lon="14.559435790465338"><ele>263.0</ele><time>2026-05-02T13:55:46Z</time></trkpt><trkpt lat="41.06230234472799" lon="14.559312766401668"><ele>263.0</ele><time>2026-05-02T13:55:48Z</time></trkpt><trkpt lat="41.06225480437698" lon="14.559225499884338"><ele>263.0</ele><time>2026-05-02T13:55:50Z</time></trkpt><trkpt lat="41.06220125955773" lon="14.55915382305898"><ele>263.0</ele><time>2026-05-02T13:55:52Z</time></trkpt><trkpt lat="41.0621765654458" lon="14.559066536464833"><ele>263.0</ele><time>2026-05-02T13:55:54Z</time></trkpt><trkpt lat="41.062153583453664" lon="14.558980978080251"><ele>263.0</ele><time>2026-05-02T13:55:56Z</time></trkpt></trkseg></trk></gpx>